<?xml version='1.0' encoding='UTF-8'?><gpx version="1.1" creator="JPX - https://github.com/jenetics/jpx" xmlns="http://www.topografix.com/GPX/1/1"><trk><trkseg><trkpt lat="45.39860449685305" lon="8.929378516167777"><ele>115.00000000000001</ele><time>2026-05-03T07:17:04Z</time></trkpt><trkpt lat="45.398644122455586" lon="8.929463699188075"><ele>115.0</ele><time>2026-05-03T07:17:05Z</time></trkpt><trkpt lat="45.39872114564432" lon="8.9295751570331"><ele>115.0</ele><time>2026-05-03T07:17:07Z</time></trkpt><trkpt lat="45.398770939261965" lon="8.929645197644103"><ele>115.0</ele><time>2026-05-03T07:17:08Z</time></trkpt><trkpt lat="45.398820638172026" lon="8.929746399232847"><ele>115.00000000000001</ele><time>2026-05-03T07:17:09Z</time></trkpt><trkpt lat="45.39889072854111" lon="8.929824008372305"><ele>115.0</ele><time>2026-05-03T07:17:10Z</time></trkpt><trkpt lat="45.39896860046731" lon="8.929901665063463"><ele>115.4</ele><time>2026-05-03T07:17:11Z</time></trkpt><trkpt lat="45.39903861475065" lon="8.929957777713751"><ele>115.8</ele><time>2026-05-03T07:17:12Z</time></trkpt><trkpt lat="45.39909977631667" lon="8.93003496985527"><ele>116.19999999999999</ele><time>2026-05-03T07:17:13Z</time></trkpt><trkpt lat="45.39925245801824" lon="8.929873798624424"><ele>116.6</ele><time>2026-05-03T07:17:14Z</time></trkpt><trkpt lat="45.39930279022939" lon="8.929785348567817"><ele>117.0</ele><time>2026-05-03T07:17:15Z</time></trkpt><trkpt lat="45.399325516879074" lon="8.929643712548499"><ele>117.0</ele><time>2026-05-03T07:17:16Z</time></trkpt><trkpt lat="45.39933556445213" lon="8.929506780965426"><ele>117.0</ele><time>2026-05-03T07:17:17Z</time></trkpt><trkpt lat="45.399266624661884" lon="8.929273691329538"><ele>117.0</ele><time>2026-05-03T07:17:18Z</time></trkpt><trkpt lat="45.39920932868745" lon="8.929082169378484"><ele>117.0</ele><time>2026-05-03T07:17:19Z</time></trkpt><trkpt lat="45.39912732279111" lon="8.928870603840457"><ele>117.33333333333334</ele><time>2026-05-03T07:17:20Z</time></trkpt><trkpt lat="45.39893016999182" lon="8.928711108110864"><ele>117.66666666666667</ele><time>2026-05-03T07:17:20.999Z</time></trkpt><trkpt lat="45.39879223148139" lon="8.928562296584516"><ele>118.0</ele><time>2026-05-03T07:17:21.999Z</time></trkpt><trkpt lat="45.39868405928536" lon="8.92840988252123"><ele>117.66666666666667</ele><time>2026-05-03T07:17:22.999Z</time></trkpt><trkpt lat="45.398575408776544" lon="8.928260859687818"><ele>117.33333333333334</ele><time>2026-05-03T07:17:23.999Z</time></trkpt><trkpt lat="45.398468449673636" lon="8.92810765607494"><ele>117.0</ele><time>2026-05-03T07:17:24.999Z</time></trkpt><trkpt lat="45.39834774213495" lon="8.927972862959907"><ele>117.0</ele><time>2026-05-03T07:17:25.999Z</time></trkpt><trkpt lat="45.39822001322225" lon="8.92783817595579"><ele>117.0</ele><time>2026-05-03T07:17:26.999Z</time></trkpt><trkpt lat="45.39807173099828" lon="8.927715783727665"><ele>117.0</ele><time>2026-05-03T07:17:27.999Z</time></trkpt><trkpt lat="45.397923295493335" lon="8.927616533056284"><ele>117.0</ele><time>2026-05-03T07:17:28.999Z</time></trkpt><trkpt lat="45.397773404876766" lon="8.927518883534852"><ele>117.0</ele><time>2026-05-03T07:17:29.999Z</time></trkpt><trkpt lat="45.397606689759485" lon="8.92743481342267"><ele>117.0</ele><time>2026-05-03T07:17:30.999Z</time></trkpt><trkpt lat="45.39744431278295" lon="8.927367594469764"><ele>117.0</ele><time>2026-05-03T07:17:31.999Z</time></trkpt><trkpt lat="45.39728684097576" lon="8.927287480449216"><ele>117.0</ele><time>2026-05-03T07:17:32.999Z</time></trkpt><trkpt lat="45.39712199298832" lon="8.927215807099563"><ele>117.0</ele><time>2026-05-03T07:17:33.999Z</time></trkpt><trkpt lat="45.396961228255414" lon="8.927132124589155"><ele>116.66666666666666</ele><time>2026-05-03T07:17:34.999Z</time></trkpt><trkpt lat="45.396776402081926" lon="8.927049747616474"><ele>116.33333333333333</ele><time>2026-05-03T07:17:35.999Z</time></trkpt><trkpt lat="45.39660162307256" lon="8.926971270344486"><ele>116.0</ele><time>2026-05-03T07:17:36.999Z</time></trkpt><trkpt lat="45.39645251242035" lon="8.926893342974981"><ele>116.0</ele><time>2026-05-03T07:17:37.999Z</time></trkpt><trkpt lat="45.39628172800345" lon="8.926813382914307"><ele>116.0</ele><time>2026-05-03T07:17:38.999Z</time></trkpt><trkpt lat="45.39611679171501" lon="8.92673324402012"><ele>116.0</ele><time>2026-05-03T07:17:39.999Z</time></trkpt><trkpt lat="45.395952122380336" lon="8.926655208898724"><ele>116.0</ele><time>2026-05-03T07:17:40.999Z</time></trkpt><trkpt lat="45.3957830490008" lon="8.926575808352316"><ele>116.0</ele><time>2026-05-03T07:17:41.999Z</time></trkpt><trkpt lat="45.39562622199862" lon="8.926499278309226"><ele>116.0</ele><time>2026-05-03T07:17:42.999Z</time></trkpt><trkpt lat="45.39546429763731" lon="8.926397726858562"><ele>115.33333333333333</ele><time>2026-05-03T07:17:43.999Z</time></trkpt><trkpt lat="45.39529149825068" lon="8.926314721831215"><ele>114.66666666666666</ele><time>2026-05-03T07:17:44.999Z</time></trkpt><trkpt lat="45.395122428352494" lon="8.926259877514301"><ele>114.0</ele><time>2026-05-03T07:17:45.999Z</time></trkpt><trkpt lat="45.39496524636184" lon="8.926173702982549"><ele>114.0</ele><time>2026-05-03T07:17:46.999Z</time></trkpt><trkpt lat="45.39480749719099" lon="8.926092698176213"><ele>114.0</ele><time>2026-05-03T07:17:47.999Z</time></trkpt><trkpt lat="45.39466868775773" lon="8.926008204264688"><ele>114.0</ele><time>2026-05-03T07:17:48.999Z</time></trkpt><trkpt lat="45.39452741984834" lon="8.925937860935006"><ele>115.0</ele><time>2026-05-03T07:17:49.999Z</time></trkpt><trkpt lat="45.394393686452794" lon="8.925872375247229"><ele>116.0</ele><time>2026-05-03T07:17:50.999Z</time></trkpt><trkpt lat="45.39426582402559" lon="8.925803654184385"><ele>117.0</ele><time>2026-05-03T07:17:51.999Z</time></trkpt><trkpt lat="45.39414221947803" lon="8.925745241035177"><ele>118.0</ele><time>2026-05-03T07:17:52.999Z</time></trkpt><trkpt lat="45.394029499982466" lon="8.925671531357663"><ele>118.0</ele><time>2026-05-03T07:17:53.999Z</time></trkpt><trkpt lat="45.39394613868897" lon="8.925560967606632"><ele>118.00000000000001</ele><time>2026-05-03T07:17:54.999Z</time></trkpt><trkpt lat="45.39387929957658" lon="8.925434463723022"><ele>118.00000000000001</ele><time>2026-05-03T07:17:55.999Z</time></trkpt><trkpt lat="45.393800020412655" lon="8.925349090390919"><ele>118.0</ele><time>2026-05-03T07:17:56.999Z</time></trkpt><trkpt lat="45.39370961799615" lon="8.925318026520873"><ele>118.0</ele><time>2026-05-03T07:17:57.999Z</time></trkpt><trkpt lat="45.39361378009498" lon="8.925322233458873"><ele>117.80000000000001</ele><time>2026-05-03T07:17:58.999Z</time></trkpt><trkpt lat="45.393528693101295" lon="8.925359862250692"><ele>117.60000000000001</ele><time>2026-05-03T07:17:59.999Z</time></trkpt><trkpt lat="45.39343402812644" lon="8.925362529189172"><ele>117.39999999999999</ele><time>2026-05-03T07:18:00.999Z</time></trkpt><trkpt lat="45.39333561857394" lon="8.92533490126705"><ele>117.19999999999999</ele><time>2026-05-03T07:18:01.999Z</time></trkpt><trkpt lat="45.393242491063724" lon="8.925305167266787"><ele>117.0</ele><time>2026-05-03T07:18:02.999Z</time></trkpt><trkpt lat="45.39315387067731" lon="8.925265949033403"><ele>117.0</ele><time>2026-05-03T07:18:04Z</time></trkpt><trkpt lat="45.39306306117985" lon="8.925225782421942"><ele>116.99999999999999</ele><time>2026-05-03T07:18:05Z</time></trkpt><trkpt lat="45.39297859703149" lon="8.925178067746664"><ele>116.99999999999999</ele><time>2026-05-03T07:18:06Z</time></trkpt><trkpt lat="45.39288816978309" lon="8.925131472518776"><ele>117.0</ele><time>2026-05-03T07:18:07Z</time></trkpt><trkpt lat="45.39279059063181" lon="8.925086624548717"><ele>117.0</ele><time>2026-05-03T07:18:08Z</time></trkpt><trkpt lat="45.39268554985798" lon="8.925039946302107"><ele>117.0</ele><time>2026-05-03T07:18:09Z</time></trkpt><trkpt lat="45.39259928429938" lon="8.924942393343407"><ele>117.0</ele><time>2026-05-03T07:18:10Z</time></trkpt><trkpt lat="45.39247490939743" lon="8.924876024269567"><ele>117.0</ele><time>2026-05-03T07:18:11Z</time></trkpt><trkpt lat="45.39235245052067" lon="8.924813516043669"><ele>117.0</ele><time>2026-05-03T07:18:12Z</time></trkpt><trkpt lat="45.39222101578295" lon="8.924748794652796"><ele>117.0</ele><time>2026-05-03T07:18:13Z</time></trkpt><trkpt lat="45.39207990032763" lon="8.924678236254646"><ele>117.0</ele><time>2026-05-03T07:18:14Z</time></trkpt><trkpt lat="45.39194057338961" lon="8.924602763182344"><ele>117.0</ele><time>2026-05-03T07:18:15Z</time></trkpt><trkpt lat="45.39179814437319" lon="8.924534036255219"><ele>117.0</ele><time>2026-05-03T07:18:16Z</time></trkpt><trkpt lat="45.39165611854638" lon="8.924462526811249"><ele>117.0</ele><time>2026-05-03T07:18:17Z</time></trkpt><trkpt lat="45.39150547100171" lon="8.924401950600028"><ele>117.0</ele><time>2026-05-03T07:18:18Z</time></trkpt><trkpt lat="45.3913568599446" lon="8.924328338285305"><ele>117.0</ele><time>2026-05-03T07:18:19Z</time></trkpt><trkpt lat="45.39120022111007" lon="8.92426807444692"><ele>117.33333333333334</ele><time>2026-05-03T07:18:20Z</time></trkpt><trkpt lat="45.391051882811375" lon="8.924191916109903"><ele>117.66666666666667</ele><time>2026-05-03T07:18:21Z</time></trkpt><trkpt lat="45.39088145366992" lon="8.924116124559074"><ele>118.0</ele><time>2026-05-03T07:18:22Z</time></trkpt><trkpt lat="45.39071885260083" lon="8.924039007541737"><ele>118.0</ele><time>2026-05-03T07:18:23Z</time></trkpt><trkpt lat="45.3905590862772" lon="8.923960224856947"><ele>118.0</ele><time>2026-05-03T07:18:24Z</time></trkpt><trkpt lat="45.39040971207404" lon="8.923881855280586"><ele>118.0</ele><time>2026-05-03T07:18:25Z</time></trkpt><trkpt lat="45.39025919399055" lon="8.923819777088507"><ele>118.0</ele><time>2026-05-03T07:18:26Z</time></trkpt><trkpt lat="45.39011428340703" lon="8.923747553499629"><ele>118.0</ele><time>2026-05-03T07:18:27Z</time></trkpt><trkpt lat="45.389974834350674" lon="8.923673786457858"><ele>118.0</ele><time>2026-05-03T07:18:28Z</time></trkpt><trkpt lat="45.38981474822238" lon="8.923601395244141"><ele>118.0</ele><time>2026-05-03T07:18:29Z</time></trkpt><trkpt lat="45.38967155491459" lon="8.923530682608959"><ele>118.0</ele><time>2026-05-03T07:18:30Z</time></trkpt><trkpt lat="45.389511686528834" lon="8.923456695568094"><ele>118.0</ele><time>2026-05-03T07:18:31Z</time></trkpt><trkpt lat="45.389359676594474" lon="8.923373013632347"><ele>118.0</ele><time>2026-05-03T07:18:32Z</time></trkpt><trkpt lat="45.3892054389293" lon="8.923292580616133"><ele>118.0</ele><time>2026-05-03T07:18:33Z</time></trkpt><trkpt lat="45.38904444960677" lon="8.923214989905166"><ele>118.0</ele><time>2026-05-03T07:18:34Z</time></trkpt><trkpt lat="45.38889262459146" lon="8.92313067683773"><ele>117.0</ele><time>2026-05-03T07:18:35Z</time></trkpt><trkpt lat="45.388744038207406" lon="8.923042596137401"><ele>116.0</ele><time>2026-05-03T07:18:36Z</time></trkpt><trkpt lat="45.38861282370401" lon="8.922930074411"><ele>115.0</ele><time>2026-05-03T07:18:37Z</time></trkpt><trkpt lat="45.38848944628449" lon="8.922808110591763"><ele>115.0</ele><time>2026-05-03T07:18:38Z</time></trkpt><trkpt lat="45.38838536504874" lon="8.922700997199021"><ele>115.0</ele><time>2026-05-03T07:18:39Z</time></trkpt><trkpt lat="45.38829462919389" lon="8.922603366404886"><ele>115.0</ele><time>2026-05-03T07:18:40Z</time></trkpt><trkpt lat="45.388224122305076" lon="8.92251118057919"><ele>115.0</ele><time>2026-05-03T07:18:41Z</time></trkpt><trkpt lat="45.38817459966179" lon="8.922426661408686"><ele>115.0</ele><time>2026-05-03T07:18:42Z</time></trkpt><trkpt lat="45.38810491890428" lon="8.922313397068459"><ele>115.2</ele><time>2026-05-03T07:18:44Z</time></trkpt><trkpt lat="45.38806115947415" lon="8.922179078310519"><ele>115.4</ele><time>2026-05-03T07:18:46Z</time></trkpt><trkpt lat="45.38801949180729" lon="8.922045861627797"><ele>115.6</ele><time>2026-05-03T07:18:48Z</time></trkpt><trkpt lat="45.38791264848747" lon="8.92196543624109"><ele>115.8</ele><time>2026-05-03T07:18:50Z</time></trkpt><trkpt lat="45.387846910128374" lon="8.92191660322649"><ele>116.0</ele><time>2026-05-03T07:18:51Z</time></trkpt><trkpt lat="45.387803366925496" lon="8.921839910823808"><ele>116.19999999999999</ele><time>2026-05-03T07:18:52Z</time></trkpt><trkpt lat="45.38774764036012" lon="8.921734228840705"><ele>116.39999999999999</ele><time>2026-05-03T07:18:53Z</time></trkpt><trkpt lat="45.387698129007525" lon="8.921620562539527"><ele>116.6</ele><time>2026-05-03T07:18:54Z</time></trkpt><trkpt lat="45.387656376915345" lon="8.921496495981541"><ele>116.8</ele><time>2026-05-03T07:18:55Z</time></trkpt><trkpt lat="45.387611185601614" lon="8.921377487165266"><ele>117.0</ele><time>2026-05-03T07:18:56Z</time></trkpt><trkpt lat="45.38756144568585" lon="8.921255697914573"><ele>117.0</ele><time>2026-05-03T07:18:57Z</time></trkpt><trkpt lat="45.387514232061775" lon="8.921123745861287"><ele>116.99999999999999</ele><time>2026-05-03T07:18:58Z</time></trkpt><trkpt lat="45.387462156044634" lon="8.920992882026347"><ele>116.99999999999999</ele><time>2026-05-03T07:18:59Z</time></trkpt><trkpt lat="45.387423463927924" lon="8.920843215471145"><ele>117.0</ele><time>2026-05-03T07:19:00Z</time></trkpt><trkpt lat="45.38738741325588" lon="8.92069858410938"><ele>117.0</ele><time>2026-05-03T07:19:01Z</time></trkpt><trkpt lat="45.38734801793241" lon="8.920545310236372"><ele>117.0</ele><time>2026-05-03T07:19:02Z</time></trkpt><trkpt lat="45.38729879410342" lon="8.920387983818815"><ele>116.99999999999999</ele><time>2026-05-03T07:19:03Z</time></trkpt><trkpt lat="45.38725830488185" lon="8.920231881837953"><ele>116.99999999999999</ele><time>2026-05-03T07:19:04Z</time></trkpt><trkpt lat="45.3872208463916" lon="8.920088914911478"><ele>117.0</ele><time>2026-05-03T07:19:05Z</time></trkpt><trkpt lat="45.38719036145341" lon="8.919951348982499"><ele>117.0</ele><time>2026-05-03T07:19:06Z</time></trkpt><trkpt lat="45.387144447673926" lon="8.919818537622403"><ele>117.0</ele><time>2026-05-03T07:19:07Z</time></trkpt><trkpt lat="45.3871276773608" lon="8.919692805975904"><ele>116.99999999999999</ele><time>2026-05-03T07:19:08Z</time></trkpt><trkpt lat="45.38709731287064" lon="8.919580643758042"><ele>116.99999999999999</ele><time>2026-05-03T07:19:09Z</time></trkpt><trkpt lat="45.38706288444207" lon="8.919453469998231"><ele>117.0</ele><time>2026-05-03T07:19:10Z</time></trkpt><trkpt lat="45.387025285240924" lon="8.919317087650422"><ele>117.0</ele><time>2026-05-03T07:19:11Z</time></trkpt><trkpt lat="45.38698510151202" lon="8.919172475349551"><ele>117.0</ele><time>2026-05-03T07:19:12Z</time></trkpt><trkpt lat="45.38693462332523" lon="8.919009915896313"><ele>117.0</ele><time>2026-05-03T07:19:13Z</time></trkpt><trkpt lat="45.38687926105854" lon="8.91885010270537"><ele>117.0</ele><time>2026-05-03T07:19:14Z</time></trkpt><trkpt lat="45.386818350315075" lon="8.918696122586942"><ele>117.0</ele><time>2026-05-03T07:19:15Z</time></trkpt><trkpt lat="45.38678053886048" lon="8.918545289784864"><ele>117.0</ele><time>2026-05-03T07:19:16Z</time></trkpt><trkpt lat="45.38671230401237" lon="8.918409616515"><ele>117.0</ele><time>2026-05-03T07:19:17Z</time></trkpt><trkpt lat="45.38663409408788" lon="8.918270550092398"><ele>117.0</ele><time>2026-05-03T07:19:18Z</time></trkpt><trkpt lat="45.38657637409803" lon="8.91815113452006"><ele>117.0</ele><time>2026-05-03T07:19:19Z</time></trkpt><trkpt lat="45.38649944399766" lon="8.91803836837905"><ele>117.0</ele><time>2026-05-03T07:19:20Z</time></trkpt><trkpt lat="45.38642587631016" lon="8.91792222865782"><ele>116.99999999999999</ele><time>2026-05-03T07:19:21Z</time></trkpt><trkpt lat="45.386339721501464" lon="8.917816432069353"><ele>116.99999999999999</ele><time>2026-05-03T07:19:22Z</time></trkpt><trkpt lat="45.38625617542726" lon="8.917725525493035"><ele>117.0</ele><time>2026-05-03T07:19:23Z</time></trkpt><trkpt lat="45.38617117962672" lon="8.917630189261356"><ele>117.0</ele><time>2026-05-03T07:19:24Z</time></trkpt><trkpt lat="45.386078644128276" lon="8.917532781621714"><ele>116.39999999999999</ele><time>2026-05-03T07:19:25Z</time></trkpt><trkpt lat="45.38598430608945" lon="8.917451904346608"><ele>115.79999999999998</ele><time>2026-05-03T07:19:26Z</time></trkpt><trkpt lat="45.38589440412703" lon="8.917384260064628"><ele>115.2</ele><time>2026-05-03T07:19:27Z</time></trkpt><trkpt lat="45.38580298287372" lon="8.917333635253954"><ele>114.6</ele><time>2026-05-03T07:19:28Z</time></trkpt><trkpt lat="45.385710220886374" lon="8.917259186161152"><ele>114.0</ele><time>2026-05-03T07:19:29Z</time></trkpt><trkpt lat="45.38561746408052" lon="8.917199354012313"><ele>114.0</ele><time>2026-05-03T07:19:30Z</time></trkpt><trkpt lat="45.38553252906374" lon="8.917135675207838"><ele>114.0</ele><time>2026-05-03T07:19:31Z</time></trkpt><trkpt lat="45.38544348798684" lon="8.917061681802346"><ele>114.0</ele><time>2026-05-03T07:19:32Z</time></trkpt><trkpt lat="45.385350254197895" lon="8.916997694324618"><ele>114.0</ele><time>2026-05-03T07:19:32.999Z</time></trkpt><trkpt lat="45.38525568210547" lon="8.916928914113083"><ele>114.0</ele><time>2026-05-03T07:19:33.999Z</time></trkpt><trkpt lat="45.38514986910562" lon="8.916864679831368"><ele>114.0</ele><time>2026-05-03T07:19:34.999Z</time></trkpt><trkpt lat="45.38503211501272" lon="8.91679340668536"><ele>114.0</ele><time>2026-05-03T07:19:35.999Z</time></trkpt><trkpt lat="45.38489059696842" lon="8.91671715087356"><ele>114.0</ele><time>2026-05-03T07:19:36.999Z</time></trkpt><trkpt lat="45.38475200146531" lon="8.916593960066727"><ele>114.0</ele><time>2026-05-03T07:19:37.999Z</time></trkpt><trkpt lat="45.384593123309664" lon="8.916531731275551"><ele>112.75</ele><time>2026-05-03T07:19:38.999Z</time></trkpt><trkpt lat="45.384471571675405" lon="8.916461577946986"><ele>111.5</ele><time>2026-05-03T07:19:39.999Z</time></trkpt><trkpt lat="45.38436737107443" lon="8.916394528634056"><ele>110.25</ele><time>2026-05-03T07:19:40.999Z</time></trkpt><trkpt lat="45.38431960500871" lon="8.91621529548596"><ele>109.0</ele><time>2026-05-03T07:19:41.999Z</time></trkpt><trkpt lat="45.38423467489471" lon="8.916121841066738"><ele>109.0</ele><time>2026-05-03T07:19:42.999Z</time></trkpt><trkpt lat="45.384131070329985" lon="8.91609564126835"><ele>109.0</ele><time>2026-05-03T07:19:43.999Z</time></trkpt><trkpt lat="45.38404266024994" lon="8.916136174370852"><ele>109.0</ele><time>2026-05-03T07:19:44.999Z</time></trkpt><trkpt lat="45.38397870583094" lon="8.916276724000483"><ele>109.0</ele><time>2026-05-03T07:19:45.999Z</time></trkpt><trkpt lat="45.383947984987046" lon="8.916421314573627"><ele>109.0</ele><time>2026-05-03T07:19:46.999Z</time></trkpt><trkpt lat="45.38397015854525" lon="8.916570752009424"><ele>109.0</ele><time>2026-05-03T07:19:47.999Z</time></trkpt><trkpt lat="45.3840429726018" lon="8.916676811956638"><ele>109.0</ele><time>2026-05-03T07:19:48.999Z</time></trkpt><trkpt lat="45.384147766072616" lon="8.916747156048539"><ele>109.0</ele><time>2026-05-03T07:19:49.999Z</time></trkpt><trkpt lat="45.38424374974267" lon="8.9167348455298"><ele>109.0</ele><time>2026-05-03T07:19:50.999Z</time></trkpt><trkpt lat="45.38432336008608" lon="8.916669707319695"><ele>109.0</ele><time>2026-05-03T07:19:51.999Z</time></trkpt><trkpt lat="45.384374102628676" lon="8.916565081550697"><ele>109.0</ele><time>2026-05-03T07:19:52.999Z</time></trkpt><trkpt lat="45.38451625484536" lon="8.91657268867324"><ele>109.0</ele><time>2026-05-03T07:19:53.999Z</time></trkpt><trkpt lat="45.38463116757154" lon="8.91659297951866"><ele>109.0</ele><time>2026-05-03T07:19:54.999Z</time></trkpt><trkpt lat="45.38474812823074" lon="8.916628388081556"><ele>109.0</ele><time>2026-05-03T07:19:55.999Z</time></trkpt><trkpt lat="45.38485885254393" lon="8.916695481875061"><ele>110.25</ele><time>2026-05-03T07:19:56.999Z</time></trkpt><trkpt lat="45.38497071625483" lon="8.916775385382191"><ele>111.5</ele><time>2026-05-03T07:19:57.999Z</time></trkpt><trkpt lat="45.38508241686503" lon="8.916850584293348"><ele>112.75</ele><time>2026-05-03T07:19:58.999Z</time></trkpt><trkpt lat="45.38520501699382" lon="8.916927744680889"><ele>114.0</ele><time>2026-05-03T07:19:59.999Z</time></trkpt><trkpt lat="45.385325020412466" lon="8.917015983772941"><ele>114.0</ele><time>2026-05-03T07:20:00.999Z</time></trkpt><trkpt lat="45.38545194465438" lon="8.917105579803428"><ele>114.0</ele><time>2026-05-03T07:20:01.999Z</time></trkpt><trkpt lat="45.38557283072433" lon="8.917199869681932"><ele>114.0</ele><time>2026-05-03T07:20:02.999Z</time></trkpt><trkpt lat="45.3856901334148" lon="8.917286829955549"><ele>114.0</ele><time>2026-05-03T07:20:03.999Z</time></trkpt><trkpt lat="45.38581413148677" lon="8.917376967139814"><ele>114.0</ele><time>2026-05-03T07:20:04.999Z</time></trkpt><trkpt lat="45.38592704632159" lon="8.917465941204917"><ele>114.0</ele><time>2026-05-03T07:20:05.999Z</time></trkpt><trkpt lat="45.386031977679515" lon="8.917563114381974"><ele>114.0</ele><time>2026-05-03T07:20:06.999Z</time></trkpt><trkpt lat="45.38613172018717" lon="8.917669190999634"><ele>114.0</ele><time>2026-05-03T07:20:07.999Z</time></trkpt><trkpt lat="45.38622627709829" lon="8.917768374351251"><ele>114.4</ele><time>2026-05-03T07:20:08.999Z</time></trkpt><trkpt lat="45.38630566557545" lon="8.91787374825792"><ele>114.80000000000001</ele><time>2026-05-03T07:20:10Z</time></trkpt><trkpt lat="45.38638485208005" lon="8.917969537408592"><ele>115.19999999999999</ele><time>2026-05-03T07:20:11Z</time></trkpt><trkpt lat="45.386414994271156" lon="8.918078141517071"><ele>115.6</ele><time>2026-05-03T07:20:12Z</time></trkpt><trkpt lat="45.38647149203975" lon="8.918162012394651"><ele>116.0</ele><time>2026-05-03T07:20:13Z</time></trkpt><trkpt lat="45.38654023474345" lon="8.91823833092097"><ele>116.25</ele><time>2026-05-03T07:20:15Z</time></trkpt><trkpt lat="45.38659244875118" lon="8.91829718138568"><ele>116.5</ele><time>2026-05-03T07:20:18Z</time></trkpt><trkpt lat="45.38674102509964" lon="8.918056567417015"><ele>116.75</ele><time>2026-05-03T07:21:07Z</time></trkpt><trkpt lat="45.38674016548558" lon="8.91816783927972"><ele>117.0</ele><time>2026-05-03T07:21:46.999Z</time></trkpt><trkpt lat="45.38665391340047" lon="8.918189181994052"><ele>117.0</ele><time>2026-05-03T07:21:51.999Z</time></trkpt><trkpt lat="45.38671897026483" lon="8.918109860659202"><ele>117.0</ele><time>2026-05-03T07:23:47.999Z</time></trkpt><trkpt lat="45.386506787729004" lon="8.91819319075874"><ele>117.0</ele><time>2026-05-03T07:25:07Z</time></trkpt><trkpt lat="45.38663789876522" lon="8.918133489943639"><ele>117.0</ele><time>2026-05-03T07:26:44Z</time></trkpt><trkpt lat="45.38671992676489" lon="8.918042125529828"><ele>117.0</ele><time>2026-05-03T07:26:54Z</time></trkpt><trkpt lat="45.3866646933685" lon="8.918242339309868"><ele>116.99999999999999</ele><time>2026-05-03T07:31:00.914Z</time></trkpt><trkpt lat="45.38659818474732" lon="8.918244894602262"><ele>116.99999999999999</ele><time>2026-05-03T07:31:21Z</time></trkpt><trkpt lat="45.38666102832583" lon="8.918204373105038"><ele>117.0</ele><time>2026-05-03T07:34:30Z</time></trkpt><trkpt lat="45.38672289990375" lon="8.918161354951742"><ele>117.0</ele><time>2026-05-03T07:34:32Z</time></trkpt><trkpt lat="45.38661354050171" lon="8.918193838703099"><ele>117.0</ele><time>2026-05-03T07:35:37.999Z</time></trkpt><trkpt lat="45.386543545997775" lon="8.918234074681594"><ele>117.0</ele><time>2026-05-03T07:35:40.999Z</time></trkpt><trkpt lat="45.38662031192969" lon="8.918260855969908"><ele>117.0</ele><time>2026-05-03T07:35:45.999Z</time></trkpt><trkpt lat="45.38670356803707" lon="8.918238228635323"><ele>117.0</ele><time>2026-05-03T07:35:54.999Z</time></trkpt><trkpt lat="45.38676520996292" lon="8.918132256962833"><ele>117.0</ele><time>2026-05-03T07:36:00.999Z</time></trkpt><trkpt lat="45.38671146929632" lon="8.918052810549831"><ele>117.0</ele><time>2026-05-03T07:36:32.999Z</time></trkpt><trkpt lat="45.38663788382797" lon="8.91808993820599"><ele>117.0</ele><time>2026-05-03T07:36:35.999Z</time></trkpt><trkpt lat="45.38659735054188" lon="8.918178071245325"><ele>116.99999999999999</ele><time>2026-05-03T07:36:37.999Z</time></trkpt><trkpt lat="45.38652908196939" lon="8.918191899667574"><ele>116.99999999999999</ele><time>2026-05-03T07:36:39.999Z</time></trkpt><trkpt lat="45.38646326229975" lon="8.91810442028432"><ele>117.0</ele><time>2026-05-03T07:36:41.999Z</time></trkpt><trkpt lat="45.3863972691198" lon="8.917971525899889"><ele>117.0</ele><time>2026-05-03T07:36:43.999Z</time></trkpt><trkpt lat="45.38631473255274" lon="8.917867567863018"><ele>116.8</ele><time>2026-05-03T07:36:44.999Z</time></trkpt><trkpt lat="45.38625480952508" lon="8.91775962392897"><ele>116.6</ele><time>2026-05-03T07:36:45.999Z</time></trkpt><trkpt lat="45.386189550443554" lon="8.917660474856971"><ele>116.39999999999999</ele><time>2026-05-03T07:36:46.999Z</time></trkpt><trkpt lat="45.386082903475625" lon="8.917587003423098"><ele>116.19999999999999</ele><time>2026-05-03T07:36:47.999Z</time></trkpt><trkpt lat="45.38597634699522" lon="8.917487945536596"><ele>116.0</ele><time>2026-05-03T07:36:48.999Z</time></trkpt><trkpt lat="45.38587128916394" lon="8.917399878647077"><ele>115.5</ele><time>2026-05-03T07:36:49.999Z</time></trkpt><trkpt lat="45.38576789568437" lon="8.917306938439802"><ele>115.0</ele><time>2026-05-03T07:36:51Z</time></trkpt><trkpt lat="45.3856642115394" lon="8.917229092337692"><ele>114.5</ele><time>2026-05-03T07:36:52Z</time></trkpt><trkpt lat="45.385564086596" lon="8.917146768566623"><ele>114.0</ele><time>2026-05-03T07:36:53Z</time></trkpt><trkpt lat="45.38541965948404" lon="8.917075695549777"><ele>114.0</ele><time>2026-05-03T07:36:54Z</time></trkpt><trkpt lat="45.38531605556354" lon="8.916996855230838"><ele>114.0</ele><time>2026-05-03T07:36:55Z</time></trkpt><trkpt lat="45.38519325563921" lon="8.91692657658153"><ele>114.0</ele><time>2026-05-03T07:36:56Z</time></trkpt><trkpt lat="45.38509108459329" lon="8.91682132327583"><ele>114.0</ele><time>2026-05-03T07:36:57Z</time></trkpt><trkpt lat="45.38496603152628" lon="8.91675407769115"><ele>113.5</ele><time>2026-05-03T07:36:58Z</time></trkpt><trkpt lat="45.38486225621834" lon="8.916669783311336"><ele>113.0</ele><time>2026-05-03T07:36:59Z</time></trkpt><trkpt lat="45.38474459964328" lon="8.916602498674974"><ele>112.5</ele><time>2026-05-03T07:37:00Z</time></trkpt><trkpt lat="45.384621105103555" lon="8.916542447975006"><ele>112.0</ele><time>2026-05-03T07:37:01Z</time></trkpt><trkpt lat="45.38449530937736" lon="8.916489332475038"><ele>111.25</ele><time>2026-05-03T07:37:02Z</time></trkpt><trkpt lat="45.38439361925747" lon="8.916393668525211"><ele>110.5</ele><time>2026-05-03T07:37:03Z</time></trkpt><trkpt lat="45.384311176477404" lon="8.916204333845117"><ele>109.75</ele><time>2026-05-03T07:37:04Z</time></trkpt><trkpt lat="45.384179846414305" lon="8.916086996512893"><ele>109.0</ele><time>2026-05-03T07:37:05Z</time></trkpt><trkpt lat="45.38401518807697" lon="8.916050886906262"><ele>108.66666666666667</ele><time>2026-05-03T07:37:05.999Z</time></trkpt><trkpt lat="45.38383652786921" lon="8.91597277769555"><ele>108.33333333333334</ele><time>2026-05-03T07:37:06.999Z</time></trkpt><trkpt lat="45.383695896118816" lon="8.915844469827869"><ele>108.0</ele><time>2026-05-03T07:37:07.999Z</time></trkpt><trkpt lat="45.383532622310696" lon="8.91570680973914"><ele>108.0</ele><time>2026-05-03T07:37:08.999Z</time></trkpt><trkpt lat="45.383358542395726" lon="8.915593688627885"><ele>108.0</ele><time>2026-05-03T07:37:09.999Z</time></trkpt><trkpt lat="45.38317974353315" lon="8.915483036997614"><ele>108.0</ele><time>2026-05-03T07:37:10.999Z</time></trkpt><trkpt lat="45.3829959035106" lon="8.91537857583474"><ele>108.66666666666666</ele><time>2026-05-03T07:37:11.999Z</time></trkpt><trkpt lat="45.38281430839248" lon="8.915279176416691"><ele>109.33333333333333</ele><time>2026-05-03T07:37:12.999Z</time></trkpt><trkpt lat="45.38262776173193" lon="8.915182001314802"><ele>110.0</ele><time>2026-05-03T07:37:13.999Z</time></trkpt><trkpt lat="45.38243992820273" lon="8.915093126164972"><ele>109.33333333333333</ele><time>2026-05-03T07:37:14.999Z</time></trkpt><trkpt lat="45.38224798789942" lon="8.915006119745836"><ele>108.66666666666666</ele><time>2026-05-03T07:37:15.999Z</time></trkpt><trkpt lat="45.382055084433844" lon="8.914921571405255"><ele>108.0</ele><time>2026-05-03T07:37:16.999Z</time></trkpt><trkpt lat="45.381851690227585" lon="8.914834548811484"><ele>107.5</ele><time>2026-05-03T07:37:17.999Z</time></trkpt><trkpt lat="45.381635623501914" lon="8.914742104269443"><ele>107.0</ele><time>2026-05-03T07:37:18.999Z</time></trkpt><trkpt lat="45.38141646649052" lon="8.914648337511474"><ele>108.0</ele><time>2026-05-03T07:37:19.999Z</time></trkpt><trkpt lat="45.38120373652851" lon="8.914557320618632"><ele>109.0</ele><time>2026-05-03T07:37:20.999Z</time></trkpt><trkpt lat="45.38098228864375" lon="8.914462573751262"><ele>109.0</ele><time>2026-05-03T07:37:21.999Z</time></trkpt><trkpt lat="45.38074676800302" lon="8.914361805767928"><ele>109.0</ele><time>2026-05-03T07:37:22.999Z</time></trkpt><trkpt lat="45.38051714285577" lon="8.914263560257648"><ele>108.5</ele><time>2026-05-03T07:37:23.999Z</time></trkpt><trkpt lat="45.38028461058153" lon="8.914164070847479"><ele>108.0</ele><time>2026-05-03T07:37:24.999Z</time></trkpt><trkpt lat="45.380052385034325" lon="8.914064713427713"><ele>108.0</ele><time>2026-05-03T07:37:25.999Z</time></trkpt><trkpt lat="45.37983416752608" lon="8.91397245677754"><ele>108.0</ele><time>2026-05-03T07:37:26.999Z</time></trkpt><trkpt lat="45.37961442197942" lon="8.913879717739603"><ele>108.0</ele><time>2026-05-03T07:37:27.999Z</time></trkpt><trkpt lat="45.3793752406077" lon="8.913779428554701"><ele>108.0</ele><time>2026-05-03T07:37:28.999Z</time></trkpt><trkpt lat="45.37914356196759" lon="8.913682329918267"><ele>108.0</ele><time>2026-05-03T07:37:29.999Z</time></trkpt><trkpt lat="45.37892228775356" lon="8.913589591989023"><ele>108.0</ele><time>2026-05-03T07:37:30.999Z</time></trkpt><trkpt lat="45.37870206636134" lon="8.913496872437797"><ele>106.5</ele><time>2026-05-03T07:37:31.999Z</time></trkpt><trkpt lat="45.37848531394234" lon="8.913405280702909"><ele>105.0</ele><time>2026-05-03T07:37:32.999Z</time></trkpt><trkpt lat="45.37826091133122" lon="8.91331036717079"><ele>105.0</ele><time>2026-05-03T07:37:33.999Z</time></trkpt><trkpt lat="45.378036875643076" lon="8.913215607231567"><ele>105.0</ele><time>2026-05-03T07:37:34.999Z</time></trkpt><trkpt lat="45.377812435534906" lon="8.913119568760486"><ele>106.5</ele><time>2026-05-03T07:37:35.999Z</time></trkpt><trkpt lat="45.37758439909739" lon="8.913018459882428"><ele>108.0</ele><time>2026-05-03T07:37:36.999Z</time></trkpt><trkpt lat="45.37736301312192" lon="8.91291070971135"><ele>108.0</ele><time>2026-05-03T07:37:37.999Z</time></trkpt><trkpt lat="45.37713736404623" lon="8.912793584118148"><ele>108.0</ele><time>2026-05-03T07:37:38.999Z</time></trkpt><trkpt lat="45.37692087364797" lon="8.912669697234463"><ele>106.5</ele><time>2026-05-03T07:37:39.999Z</time></trkpt><trkpt lat="45.37670567472291" lon="8.912537494878432"><ele>105.0</ele><time>2026-05-03T07:37:40.999Z</time></trkpt><trkpt lat="45.376496733150745" lon="8.912406021893537"><ele>104.33333333333334</ele><time>2026-05-03T07:37:41.999Z</time></trkpt><trkpt lat="45.37629759541083" lon="8.912280717655216"><ele>103.66666666666667</ele><time>2026-05-03T07:37:42.999Z</time></trkpt><trkpt lat="45.37609774591761" lon="8.912154052198634"><ele>103.0</ele><time>2026-05-03T07:37:43.999Z</time></trkpt><trkpt lat="45.37589902489541" lon="8.912026422504933"><ele>103.0</ele><time>2026-05-03T07:37:44.999Z</time></trkpt><trkpt lat="45.37569857941949" lon="8.911896067264575"><ele>103.0</ele><time>2026-05-03T07:37:45.999Z</time></trkpt><trkpt lat="45.37549627566486" lon="8.911764499234796"><ele>103.0</ele><time>2026-05-03T07:37:46.999Z</time></trkpt><trkpt lat="45.375281903238104" lon="8.91163867617591"><ele>100.5</ele><time>2026-05-03T07:37:47.999Z</time></trkpt><trkpt lat="45.375104242054555" lon="8.911341233500092"><ele>98.0</ele><time>2026-05-03T07:37:48.999Z</time></trkpt><trkpt lat="45.37485501587669" lon="8.91128326496453"><ele>97.5</ele><time>2026-05-03T07:37:49.999Z</time></trkpt><trkpt lat="45.37462491404153" lon="8.911204595504426"><ele>97.0</ele><time>2026-05-03T07:37:50.999Z</time></trkpt><trkpt lat="45.374373789952564" lon="8.911229306090032"><ele>97.0</ele><time>2026-05-03T07:37:51.999Z</time></trkpt><trkpt lat="45.37413969040443" lon="8.91118029722783"><ele>97.0</ele><time>2026-05-03T07:37:52.999Z</time></trkpt><trkpt lat="45.37390446876707" lon="8.91114182570962"><ele>97.0</ele><time>2026-05-03T07:37:53.999Z</time></trkpt><trkpt lat="45.37366719572101" lon="8.911103194333391"><ele>97.0</ele><time>2026-05-03T07:37:54.999Z</time></trkpt><trkpt lat="45.373427714552626" lon="8.911079550986443"><ele>97.0</ele><time>2026-05-03T07:37:55.999Z</time></trkpt><trkpt lat="45.37318220256053" lon="8.911053141688665"><ele>97.0</ele><time>2026-05-03T07:37:56.999Z</time></trkpt><trkpt lat="45.37294503719288" lon="8.911017672986336"><ele>96.0</ele><time>2026-05-03T07:37:57.999Z</time></trkpt><trkpt lat="45.37270927406671" lon="8.910986927050509"><ele>95.0</ele><time>2026-05-03T07:37:58.999Z</time></trkpt><trkpt lat="45.372469523990155" lon="8.910957078549263"><ele>95.0</ele><time>2026-05-03T07:37:59.999Z</time></trkpt><trkpt lat="45.37223157555961" lon="8.910925480342382"><ele>95.0</ele><time>2026-05-03T07:38:00.999Z</time></trkpt><trkpt lat="45.3720051853022" lon="8.91088844902635"><ele>96.0</ele><time>2026-05-03T07:38:01.999Z</time></trkpt><trkpt lat="45.37177091268574" lon="8.910861078322135"><ele>97.0</ele><time>2026-05-03T07:38:02.999Z</time></trkpt><trkpt lat="45.37154102891397" lon="8.910825350358618"><ele>96.5</ele><time>2026-05-03T07:38:03.999Z</time></trkpt><trkpt lat="45.37131197821491" lon="8.91079547397712"><ele>96.0</ele><time>2026-05-03T07:38:04.999Z</time></trkpt><trkpt lat="45.37107533086157" lon="8.910779002011111"><ele>96.0</ele><time>2026-05-03T07:38:05.999Z</time></trkpt><trkpt lat="45.37084192788244" lon="8.91074339346478"><ele>96.0</ele><time>2026-05-03T07:38:06.999Z</time></trkpt><trkpt lat="45.37060368970587" lon="8.910696302209516"><ele>96.5</ele><time>2026-05-03T07:38:07.999Z</time></trkpt><trkpt lat="45.370365013331266" lon="8.910662212577966"><ele>97.0</ele><time>2026-05-03T07:38:08.999Z</time></trkpt><trkpt lat="45.37013038946148" lon="8.910629569431293"><ele>97.0</ele><time>2026-05-03T07:38:09.999Z</time></trkpt><trkpt lat="45.36990182469767" lon="8.910589709922206"><ele>97.0</ele><time>2026-05-03T07:38:10.999Z</time></trkpt><trkpt lat="45.369664387693305" lon="8.910557003474379"><ele>96.5</ele><time>2026-05-03T07:38:11.999Z</time></trkpt><trkpt lat="45.369435145422706" lon="8.910521874249886"><ele>96.0</ele><time>2026-05-03T07:38:12.999Z</time></trkpt><trkpt lat="45.36919631318465" lon="8.91050056510641"><ele>96.0</ele><time>2026-05-03T07:38:13.999Z</time></trkpt><trkpt lat="45.36895337030528" lon="8.910478602268897"><ele>96.0</ele><time>2026-05-03T07:38:14.999Z</time></trkpt><trkpt lat="45.36871267583188" lon="8.910448182136946"><ele>96.0</ele><time>2026-05-03T07:38:15.999Z</time></trkpt><trkpt lat="45.368478701990014" lon="8.910428653111603"><ele>96.0</ele><time>2026-05-03T07:38:16.999Z</time></trkpt><trkpt lat="45.368241353624214" lon="8.910405737164812"><ele>96.5</ele><time>2026-05-03T07:38:17.999Z</time></trkpt><trkpt lat="45.36800394674801" lon="8.910383689509512"><ele>97.0</ele><time>2026-05-03T07:38:18.999Z</time></trkpt><trkpt lat="45.36777188273477" lon="8.910354070803349"><ele>97.0</ele><time>2026-05-03T07:38:19.999Z</time></trkpt><trkpt lat="45.367526607944086" lon="8.910310953965311"><ele>97.0</ele><time>2026-05-03T07:38:20.999Z</time></trkpt><trkpt lat="45.36728676404784" lon="8.910271768952656"><ele>96.5</ele><time>2026-05-03T07:38:21.999Z</time></trkpt><trkpt lat="45.36704013614213" lon="8.910222735004547"><ele>96.0</ele><time>2026-05-03T07:38:22.999Z</time></trkpt><trkpt lat="45.36679921443918" lon="8.910205018310766"><ele>96.0</ele><time>2026-05-03T07:38:23.999Z</time></trkpt><trkpt lat="45.3665632692979" lon="8.91015896023234"><ele>96.0</ele><time>2026-05-03T07:38:24.999Z</time></trkpt><trkpt lat="45.36632848587077" lon="8.910112758876743"><ele>95.0</ele><time>2026-05-03T07:38:25.999Z</time></trkpt><trkpt lat="45.36609219307117" lon="8.910061462731289"><ele>94.0</ele><time>2026-05-03T07:38:26.999Z</time></trkpt><trkpt lat="45.365850676110725" lon="8.910022652601214"><ele>94.0</ele><time>2026-05-03T07:38:27.999Z</time></trkpt><trkpt lat="45.36560254608592" lon="8.909987693930024"><ele>94.0</ele><time>2026-05-03T07:38:28.999Z</time></trkpt><trkpt lat="45.36536327682725" lon="8.909947192973403"><ele>93.0</ele><time>2026-05-03T07:38:29.999Z</time></trkpt><trkpt lat="45.36512782356161" lon="8.909905162775052"><ele>92.0</ele><time>2026-05-03T07:38:30.999Z</time></trkpt><trkpt lat="45.36488863606726" lon="8.909864679942565"><ele>92.0</ele><time>2026-05-03T07:38:31.999Z</time></trkpt><trkpt lat="45.36464716122434" lon="8.90982601578009"><ele>92.0</ele><time>2026-05-03T07:38:32.999Z</time></trkpt><trkpt lat="45.364410895331424" lon="8.90977458569267"><ele>92.0</ele><time>2026-05-03T07:38:33.999Z</time></trkpt><trkpt lat="45.36418219253674" lon="8.909719246064103"><ele>92.0</ele><time>2026-05-03T07:38:34.999Z</time></trkpt><trkpt lat="45.36394311096231" lon="8.9096817179639"><ele>92.0</ele><time>2026-05-03T07:38:35.999Z</time></trkpt><trkpt lat="45.36369647922741" lon="8.909650786975057"><ele>92.0</ele><time>2026-05-03T07:38:37Z</time></trkpt><trkpt lat="45.36345215459088" lon="8.909602581801918"><ele>92.0</ele><time>2026-05-03T07:38:38Z</time></trkpt><trkpt lat="45.363203212265184" lon="8.909567311268123"><ele>92.0</ele><time>2026-05-03T07:38:39Z</time></trkpt><trkpt lat="45.36295549274022" lon="8.909538090989615"><ele>91.0</ele><time>2026-05-03T07:38:40Z</time></trkpt><trkpt lat="45.362703134909545" lon="8.909515476070046"><ele>90.0</ele><time>2026-05-03T07:38:41Z</time></trkpt><trkpt lat="45.3624557618309" lon="8.90947323224875"><ele>90.0</ele><time>2026-05-03T07:38:42Z</time></trkpt><trkpt lat="45.36220627386175" lon="8.909447247894077"><ele>90.0</ele><time>2026-05-03T07:38:43Z</time></trkpt><trkpt lat="45.361961098484485" lon="8.909406039650838"><ele>90.5</ele><time>2026-05-03T07:38:44Z</time></trkpt><trkpt lat="45.361716537743895" lon="8.90936947627894"><ele>91.0</ele><time>2026-05-03T07:38:45Z</time></trkpt><trkpt lat="45.36146565531991" lon="8.90933697202501"><ele>93.0</ele><time>2026-05-03T07:38:46Z</time></trkpt><trkpt lat="45.361213660428724" lon="8.909302106705654"><ele>95.0</ele><time>2026-05-03T07:38:47Z</time></trkpt><trkpt lat="45.36096644007945" lon="8.909255131150676"><ele>94.5</ele><time>2026-05-03T07:38:48Z</time></trkpt><trkpt lat="45.360725191873485" lon="8.909215982686172"><ele>94.0</ele><time>2026-05-03T07:38:49Z</time></trkpt><trkpt lat="45.36049874049424" lon="8.90918135452774"><ele>93.66666666666666</ele><time>2026-05-03T07:38:50Z</time></trkpt><trkpt lat="45.36028934970258" lon="8.9091449353721"><ele>93.33333333333333</ele><time>2026-05-03T07:38:51Z</time></trkpt><trkpt lat="45.36007526853822" lon="8.909114183126395"><ele>93.0</ele><time>2026-05-03T07:38:52Z</time></trkpt><trkpt lat="45.359875952657745" lon="8.909080721298906"><ele>92.33333333333333</ele><time>2026-05-03T07:38:53Z</time></trkpt><trkpt lat="45.359688039223876" lon="8.909049674349323"><ele>91.66666666666666</ele><time>2026-05-03T07:38:54Z</time></trkpt><trkpt lat="45.359504793365964" lon="8.909020528198727"><ele>91.0</ele><time>2026-05-03T07:38:55Z</time></trkpt><trkpt lat="45.359332572872546" lon="8.908983034413218"><ele>91.0</ele><time>2026-05-03T07:38:56Z</time></trkpt><trkpt lat="45.3591546364566" lon="8.908977879550626"><ele>91.0</ele><time>2026-05-03T07:38:57Z</time></trkpt><trkpt lat="45.35898929634724" lon="8.908973723306271"><ele>91.0</ele><time>2026-05-03T07:38:58Z</time></trkpt><trkpt lat="45.358831163577044" lon="8.908962604524278"><ele>91.33333333333333</ele><time>2026-05-03T07:38:59Z</time></trkpt><trkpt lat="45.35868294357618" lon="8.908935060642806"><ele>91.66666666666667</ele><time>2026-05-03T07:39:00Z</time></trkpt><trkpt lat="45.358510355898794" lon="8.908948326772387"><ele>92.0</ele><time>2026-05-03T07:39:01Z</time></trkpt><trkpt lat="45.358352888118034" lon="8.908926623821719"><ele>92.0</ele><time>2026-05-03T07:39:02Z</time></trkpt><trkpt lat="45.35820125770838" lon="8.908888404316809"><ele>92.0</ele><time>2026-05-03T07:39:03Z</time></trkpt><trkpt lat="45.35804065376701" lon="8.908864800547391"><ele>92.0</ele><time>2026-05-03T07:39:04Z</time></trkpt><trkpt lat="45.357879390475446" lon="8.90884118947782"><ele>91.66666666666667</ele><time>2026-05-03T07:39:05Z</time></trkpt><trkpt lat="45.357716166462666" lon="8.908821162919649"><ele>91.33333333333333</ele><time>2026-05-03T07:39:06Z</time></trkpt><trkpt lat="45.35755933833173" lon="8.908776756526658"><ele>91.0</ele><time>2026-05-03T07:39:07Z</time></trkpt><trkpt lat="45.35740720338575" lon="8.90873595247572"><ele>91.0</ele><time>2026-05-03T07:39:08Z</time></trkpt><trkpt lat="45.357256754991575" lon="8.908660556535795"><ele>91.0</ele><time>2026-05-03T07:39:09Z</time></trkpt><trkpt lat="45.35710069650275" lon="8.908630028308094"><ele>91.0</ele><time>2026-05-03T07:39:10Z</time></trkpt><trkpt lat="45.35693772473862" lon="8.90859804015414"><ele>89.66666666666666</ele><time>2026-05-03T07:39:11Z</time></trkpt><trkpt lat="45.356770305075415" lon="8.908568987667929"><ele>88.33333333333333</ele><time>2026-05-03T07:39:12Z</time></trkpt><trkpt lat="45.35660487204983" lon="8.908542958188626"><ele>87.0</ele><time>2026-05-03T07:39:13Z</time></trkpt><trkpt lat="45.35644700588004" lon="8.908521095548245"><ele>87.0</ele><time>2026-05-03T07:39:14Z</time></trkpt><trkpt lat="45.35627499021741" lon="8.908496999207275"><ele>87.0</ele><time>2026-05-03T07:39:15Z</time></trkpt><trkpt lat="45.35609461216127" lon="8.908472501353113"><ele>87.0</ele><time>2026-05-03T07:39:16Z</time></trkpt><trkpt lat="45.35591557818415" lon="8.908448843582958"><ele>87.0</ele><time>2026-05-03T07:39:17Z</time></trkpt><trkpt lat="45.35571918119622" lon="8.908423966641488"><ele>87.0</ele><time>2026-05-03T07:39:18Z</time></trkpt><trkpt lat="45.35551684468998" lon="8.90839700842303"><ele>87.0</ele><time>2026-05-03T07:39:19Z</time></trkpt><trkpt lat="45.35530457178359" lon="8.908368039996123"><ele>87.0</ele><time>2026-05-03T07:39:20Z</time></trkpt><trkpt lat="45.35507519734172" lon="8.908336058882732"><ele>87.0</ele><time>2026-05-03T07:39:21Z</time></trkpt><trkpt lat="45.35484593898112" lon="8.908301414565287"><ele>87.0</ele><time>2026-05-03T07:39:22Z</time></trkpt><trkpt lat="45.354610885880945" lon="8.908265823413663"><ele>87.0</ele><time>2026-05-03T07:39:23Z</time></trkpt><trkpt lat="45.354374084241805" lon="8.908229797544795"><ele>87.0</ele><time>2026-05-03T07:39:24Z</time></trkpt><trkpt lat="45.35413434046346" lon="8.908190916046204"><ele>87.0</ele><time>2026-05-03T07:39:25Z</time></trkpt><trkpt lat="45.35389221081647" lon="8.908142589469618"><ele>87.5</ele><time>2026-05-03T07:39:26Z</time></trkpt><trkpt lat="45.353655626335744" lon="8.908076406519253"><ele>88.0</ele><time>2026-05-03T07:39:27Z</time></trkpt><trkpt lat="45.35342386076445" lon="8.907979411590393"><ele>88.0</ele><time>2026-05-03T07:39:28Z</time></trkpt><trkpt lat="45.35318150362616" lon="8.907899413527447"><ele>88.0</ele><time>2026-05-03T07:39:29Z</time></trkpt><trkpt lat="45.35295362106843" lon="8.907747215829673"><ele>87.5</ele><time>2026-05-03T07:39:30Z</time></trkpt><trkpt lat="45.35274257768807" lon="8.907560360176495"><ele>87.0</ele><time>2026-05-03T07:39:31Z</time></trkpt><trkpt lat="45.35255328619522" lon="8.907337045399691"><ele>87.0</ele><time>2026-05-03T07:39:32Z</time></trkpt><trkpt lat="45.35239059821933" lon="8.907063600531497"><ele>87.0</ele><time>2026-05-03T07:39:33Z</time></trkpt><trkpt lat="45.352223036394044" lon="8.906805139081493"><ele>86.5</ele><time>2026-05-03T07:39:34Z</time></trkpt><trkpt lat="45.35207298663613" lon="8.906530245861468"><ele>86.0</ele><time>2026-05-03T07:39:35Z</time></trkpt><trkpt lat="45.351936010707725" lon="8.90621989877644"><ele>86.0</ele><time>2026-05-03T07:39:36Z</time></trkpt><trkpt lat="45.351827443270125" lon="8.905882722380019"><ele>86.0</ele><time>2026-05-03T07:39:37Z</time></trkpt><trkpt lat="45.351724726438604" lon="8.905527263388109"><ele>86.0</ele><time>2026-05-03T07:39:38Z</time></trkpt><trkpt lat="45.35161677550653" lon="8.905188651200534"><ele>86.0</ele><time>2026-05-03T07:39:39Z</time></trkpt><trkpt lat="45.35152828316338" lon="8.904836194087256"><ele>86.0</ele><time>2026-05-03T07:39:40Z</time></trkpt><trkpt lat="45.35143147779432" lon="8.904484398562067"><ele>86.0</ele><time>2026-05-03T07:39:41Z</time></trkpt><trkpt lat="45.35133248948117" lon="8.904127710831446"><ele>86.0</ele><time>2026-05-03T07:39:42Z</time></trkpt><trkpt lat="45.351244535589416" lon="8.903772865264603"><ele>86.0</ele><time>2026-05-03T07:39:43Z</time></trkpt><trkpt lat="45.35115686641648" lon="8.903416856099174"><ele>86.0</ele><time>2026-05-03T07:39:44Z</time></trkpt><trkpt lat="45.35105799945168" lon="8.903051913383623"><ele>86.0</ele><time>2026-05-03T07:39:45Z</time></trkpt><trkpt lat="45.35095680383853" lon="8.902675497873348"><ele>85.5</ele><time>2026-05-03T07:39:46Z</time></trkpt><trkpt lat="45.350856616211345" lon="8.902302831785548"><ele>85.0</ele><time>2026-05-03T07:39:47Z</time></trkpt><trkpt lat="45.35075401053855" lon="8.901921171325803"><ele>85.0</ele><time>2026-05-03T07:39:48Z</time></trkpt><trkpt lat="45.350654376827016" lon="8.901548392377748"><ele>85.0</ele><time>2026-05-03T07:39:49Z</time></trkpt><trkpt lat="45.3505549866866" lon="8.901177193619377"><ele>84.5</ele><time>2026-05-03T07:39:50Z</time></trkpt><trkpt lat="45.35045404058183" lon="8.900804748325385"><ele>84.0</ele><time>2026-05-03T07:39:51Z</time></trkpt><trkpt lat="45.350354046226244" lon="8.900431017917736"><ele>84.0</ele><time>2026-05-03T07:39:52Z</time></trkpt><trkpt lat="45.35025530431813" lon="8.900054410558592"><ele>84.0</ele><time>2026-05-03T07:39:53Z</time></trkpt><trkpt lat="45.35015311039943" lon="8.899675605001557"><ele>84.0</ele><time>2026-05-03T07:39:54Z</time></trkpt><trkpt lat="45.35005421358787" lon="8.899308151999247"><ele>84.0</ele><time>2026-05-03T07:39:55Z</time></trkpt><trkpt lat="45.349956639310996" lon="8.898933827274734"><ele>84.5</ele><time>2026-05-03T07:39:56Z</time></trkpt><trkpt lat="45.34985750687077" lon="8.8985535229319"><ele>85.0</ele><time>2026-05-03T07:39:57Z</time></trkpt><trkpt lat="45.3497606031065" lon="8.898181834717068"><ele>85.5</ele><time>2026-05-03T07:39:58Z</time></trkpt><trkpt lat="45.34966256405536" lon="8.897818457419671"><ele>86.0</ele><time>2026-05-03T07:39:59Z</time></trkpt><trkpt lat="45.34951489419967" lon="8.89749365686426"><ele>86.0</ele><time>2026-05-03T07:40:00Z</time></trkpt><trkpt lat="45.34942169104358" lon="8.897133736174908"><ele>86.0</ele><time>2026-05-03T07:40:01Z</time></trkpt><trkpt lat="45.349331045305846" lon="8.89677690159194"><ele>86.0</ele><time>2026-05-03T07:40:02Z</time></trkpt><trkpt lat="45.34925091012266" lon="8.896417338244964"><ele>86.0</ele><time>2026-05-03T07:40:03Z</time></trkpt><trkpt lat="45.349162971953696" lon="8.896046314336818"><ele>86.5</ele><time>2026-05-03T07:40:04Z</time></trkpt><trkpt lat="45.349068182288505" lon="8.895687574448521"><ele>87.0</ele><time>2026-05-03T07:40:05Z</time></trkpt><trkpt lat="45.34896702678029" lon="8.895331801652341"><ele>84.5</ele><time>2026-05-03T07:40:05.999Z</time></trkpt><trkpt lat="45.34886881117021" lon="8.894989951311228"><ele>82.0</ele><time>2026-05-03T07:40:06.999Z</time></trkpt><trkpt lat="45.34878120103734" lon="8.894639576113926"><ele>82.0</ele><time>2026-05-03T07:40:07.999Z</time></trkpt><trkpt lat="45.34869191601962" lon="8.894298473095892"><ele>82.0</ele><time>2026-05-03T07:40:08.999Z</time></trkpt><trkpt lat="45.34859209504836" lon="8.893955085575396"><ele>83.5</ele><time>2026-05-03T07:40:09.999Z</time></trkpt><trkpt lat="45.34849042872518" lon="8.893620245870071"><ele>85.0</ele><time>2026-05-03T07:40:10.999Z</time></trkpt><trkpt lat="45.348400884856574" lon="8.893269141260069"><ele>86.0</ele><time>2026-05-03T07:40:11.999Z</time></trkpt><trkpt lat="45.348310123040385" lon="8.892923183457782"><ele>87.0</ele><time>2026-05-03T07:40:12.999Z</time></trkpt><trkpt lat="45.34820310311015" lon="8.892586700558482"><ele>87.5</ele><time>2026-05-03T07:40:13.999Z</time></trkpt><trkpt lat="45.348086252439735" lon="8.892282774262606"><ele>88.0</ele><time>2026-05-03T07:40:14.999Z</time></trkpt><trkpt lat="45.34794448794948" lon="8.892001345836624"><ele>87.5</ele><time>2026-05-03T07:40:15.999Z</time></trkpt><trkpt lat="45.3477806702325" lon="8.891753090473552"><ele>87.0</ele><time>2026-05-03T07:40:16.999Z</time></trkpt><trkpt lat="45.34761080684257" lon="8.89152631724162"><ele>87.0</ele><time>2026-05-03T07:40:17.999Z</time></trkpt><trkpt lat="45.34740010805527" lon="8.891281316852345"><ele>87.0</ele><time>2026-05-03T07:40:18.999Z</time></trkpt><trkpt lat="45.347215038111884" lon="8.891044646989291"><ele>88.5</ele><time>2026-05-03T07:40:19.999Z</time></trkpt><trkpt lat="45.34702948405097" lon="8.890785693633092"><ele>90.0</ele><time>2026-05-03T07:40:20.999Z</time></trkpt><trkpt lat="45.34683843577228" lon="8.890530905881844"><ele>90.0</ele><time>2026-05-03T07:40:21.999Z</time></trkpt><trkpt lat="45.3466548639151" lon="8.890304422265572"><ele>90.0</ele><time>2026-05-03T07:40:22.999Z</time></trkpt><trkpt lat="45.34647015566114" lon="8.890054792600438"><ele>89.5</ele><time>2026-05-03T07:40:23.999Z</time></trkpt><trkpt lat="45.346283668191475" lon="8.889808495388694"><ele>89.0</ele><time>2026-05-03T07:40:24.999Z</time></trkpt><trkpt lat="45.34609674496447" lon="8.889561761397113"><ele>89.0</ele><time>2026-05-03T07:40:25.999Z</time></trkpt><trkpt lat="45.34590330860197" lon="8.889316159556406"><ele>89.0</ele><time>2026-05-03T07:40:26.999Z</time></trkpt><trkpt lat="45.34571917014759" lon="8.889069340619846"><ele>89.5</ele><time>2026-05-03T07:40:27.999Z</time></trkpt><trkpt lat="45.34554850432381" lon="8.88881993398548"><ele>90.0</ele><time>2026-05-03T07:40:28.999Z</time></trkpt><trkpt lat="45.345353742981445" lon="8.888593754303846"><ele>89.5</ele><time>2026-05-03T07:40:29.999Z</time></trkpt><trkpt lat="45.34515610530059" lon="8.888341234373025"><ele>89.0</ele><time>2026-05-03T07:40:30.999Z</time></trkpt><trkpt lat="45.3449704955939" lon="8.888080072051835"><ele>89.0</ele><time>2026-05-03T07:40:31.999Z</time></trkpt><trkpt lat="45.34477770125201" lon="8.887822279511168"><ele>89.0</ele><time>2026-05-03T07:40:32.999Z</time></trkpt><trkpt lat="45.344592061142095" lon="8.887581421718371"><ele>89.5</ele><time>2026-05-03T07:40:33.999Z</time></trkpt><trkpt lat="45.3444180828339" lon="8.887362356034007"><ele>90.0</ele><time>2026-05-03T07:40:34.999Z</time></trkpt><trkpt lat="45.34425575254046" lon="8.887144251580585"><ele>90.0</ele><time>2026-05-03T07:40:35.999Z</time></trkpt><trkpt lat="45.344108849709784" lon="8.886935642757512"><ele>90.0</ele><time>2026-05-03T07:40:36.999Z</time></trkpt><trkpt lat="45.343989497764774" lon="8.886709196803999"><ele>90.0</ele><time>2026-05-03T07:40:37.999Z</time></trkpt><trkpt lat="45.34389470233343" lon="8.886458319911256"><ele>88.66666666666667</ele><time>2026-05-03T07:40:38.999Z</time></trkpt><trkpt lat="45.3438168715247" lon="8.88618151701509"><ele>87.33333333333334</ele><time>2026-05-03T07:40:39.999Z</time></trkpt><trkpt lat="45.34375678727559" lon="8.885890067883267"><ele>86.0</ele><time>2026-05-03T07:40:40.999Z</time></trkpt><trkpt lat="45.34371395600509" lon="8.885583592967677"><ele>85.5</ele><time>2026-05-03T07:40:41.999Z</time></trkpt><trkpt lat="45.3436820902628" lon="8.885259587038064"><ele>85.0</ele><time>2026-05-03T07:40:43Z</time></trkpt><trkpt lat="45.343642589898636" lon="8.884930164307088"><ele>85.0</ele><time>2026-05-03T07:40:44Z</time></trkpt><trkpt lat="45.34359486211547" lon="8.884585226078402"><ele>85.0</ele><time>2026-05-03T07:40:45Z</time></trkpt><trkpt lat="45.343550751096615" lon="8.884230242057097"><ele>85.5</ele><time>2026-05-03T07:40:46Z</time></trkpt><trkpt lat="45.34350607541379" lon="8.883867245262493"><ele>86.0</ele><time>2026-05-03T07:40:47Z</time></trkpt><trkpt lat="45.34346809438045" lon="8.883511585135734"><ele>86.0</ele><time>2026-05-03T07:40:48Z</time></trkpt><trkpt lat="45.34342984982995" lon="8.88316339103483"><ele>86.0</ele><time>2026-05-03T07:40:49Z</time></trkpt><trkpt lat="45.34340067682363" lon="8.882824348897733"><ele>85.66666666666667</ele><time>2026-05-03T07:40:50Z</time></trkpt><trkpt lat="45.343368547836135" lon="8.882513344034415"><ele>85.33333333333333</ele><time>2026-05-03T07:40:51Z</time></trkpt><trkpt lat="45.343341383154275" lon="8.88222195452593"><ele>85.0</ele><time>2026-05-03T07:40:52Z</time></trkpt><trkpt lat="45.34329246882688" lon="8.881944639471074"><ele>85.33333333333333</ele><time>2026-05-03T07:40:53Z</time></trkpt><trkpt lat="45.343215522902426" lon="8.881677668518739"><ele>85.66666666666667</ele><time>2026-05-03T07:40:54Z</time></trkpt><trkpt lat="45.34310491096586" lon="8.881397550360422"><ele>86.0</ele><time>2026-05-03T07:40:55Z</time></trkpt><trkpt lat="45.34298529177982" lon="8.8811534937504"><ele>85.66666666666667</ele><time>2026-05-03T07:40:56Z</time></trkpt><trkpt lat="45.34284913194986" lon="8.8809283033295"><ele>85.33333333333333</ele><time>2026-05-03T07:40:57Z</time></trkpt><trkpt lat="45.34268907298157" lon="8.880735163470563"><ele>85.0</ele><time>2026-05-03T07:40:58Z</time></trkpt><trkpt lat="45.342517142830346" lon="8.880579735698209"><ele>85.0</ele><time>2026-05-03T07:40:59Z</time></trkpt><trkpt lat="45.34233661049218" lon="8.880410246876902"><ele>85.0</ele><time>2026-05-03T07:41:00Z</time></trkpt><trkpt lat="45.34212002861068" lon="8.880267598843261"><ele>82.5</ele><time>2026-05-03T07:41:01Z</time></trkpt><trkpt lat="45.34191541980242" lon="8.88009750042044"><ele>80.0</ele><time>2026-05-03T07:41:02Z</time></trkpt><trkpt lat="45.341727370125795" lon="8.879923012516027"><ele>80.0</ele><time>2026-05-03T07:41:03Z</time></trkpt><trkpt lat="45.341543646864466" lon="8.879746497553922"><ele>80.0</ele><time>2026-05-03T07:41:04Z</time></trkpt><trkpt lat="45.34135709581249" lon="8.879566554072415"><ele>80.0</ele><time>2026-05-03T07:41:05Z</time></trkpt><trkpt lat="45.34119369954953" lon="8.87937575962998"><ele>81.0</ele><time>2026-05-03T07:41:06Z</time></trkpt><trkpt lat="45.34103286995003" lon="8.879224195591933"><ele>82.0</ele><time>2026-05-03T07:41:07Z</time></trkpt><trkpt lat="45.34088162205028" lon="8.879082262921544"><ele>83.0</ele><time>2026-05-03T07:41:08Z</time></trkpt><trkpt lat="45.340732361443045" lon="8.87894731608753"><ele>83.0</ele><time>2026-05-03T07:41:09Z</time></trkpt><trkpt lat="45.34058610113677" lon="8.87881508175772"><ele>83.0</ele><time>2026-05-03T07:41:10Z</time></trkpt><trkpt lat="45.340439914823264" lon="8.878688956135882"><ele>83.0</ele><time>2026-05-03T07:41:11Z</time></trkpt><trkpt lat="45.34028522262641" lon="8.878560471396392"><ele>84.0</ele><time>2026-05-03T07:41:12Z</time></trkpt><trkpt lat="45.34012919577616" lon="8.878432073037398"><ele>85.0</ele><time>2026-05-03T07:41:13Z</time></trkpt><trkpt lat="45.33996468630686" lon="8.8782967757577"><ele>86.0</ele><time>2026-05-03T07:41:14Z</time></trkpt><trkpt lat="45.33979594018594" lon="8.878157994154002"><ele>85.66666666666667</ele><time>2026-05-03T07:41:15Z</time></trkpt><trkpt lat="45.33962787892353" lon="8.87801977577393"><ele>85.33333333333333</ele><time>2026-05-03T07:41:16Z</time></trkpt><trkpt lat="45.33945561673949" lon="8.877880127978523"><ele>85.0</ele><time>2026-05-03T07:41:17Z</time></trkpt><trkpt lat="45.33928423940905" lon="8.877741653416411"><ele>85.0</ele><time>2026-05-03T07:41:18Z</time></trkpt><trkpt lat="45.33911896965543" lon="8.877605907694177"><ele>85.0</ele><time>2026-05-03T07:41:19Z</time></trkpt><trkpt lat="45.338958394960386" lon="8.877495260746649"><ele>85.0</ele><time>2026-05-03T07:41:20Z</time></trkpt><trkpt lat="45.33881723972675" lon="8.877377941832949"><ele>85.5</ele><time>2026-05-03T07:41:21Z</time></trkpt><trkpt lat="45.338690000074244" lon="8.877265793165323"><ele>86.0</ele><time>2026-05-03T07:41:22Z</time></trkpt><trkpt lat="45.33856525761742" lon="8.877158774108821"><ele>86.5</ele><time>2026-05-03T07:41:23Z</time></trkpt><trkpt lat="45.33843387606544" lon="8.877074997611308"><ele>87.0</ele><time>2026-05-03T07:41:24Z</time></trkpt><trkpt lat="45.33830630783128" lon="8.87699711782958"><ele>87.0</ele><time>2026-05-03T07:41:25Z</time></trkpt><trkpt lat="45.33817312556991" lon="8.876931634821853"><ele>87.0</ele><time>2026-05-03T07:41:26Z</time></trkpt><trkpt lat="45.33801764521367" lon="8.876903387441581"><ele>87.0</ele><time>2026-05-03T07:41:27Z</time></trkpt><trkpt lat="45.33788548563844" lon="8.876892884704796"><ele>87.0</ele><time>2026-05-03T07:41:28Z</time></trkpt><trkpt lat="45.337757753950754" lon="8.876892119406284"><ele>87.0</ele><time>2026-05-03T07:41:29Z</time></trkpt><trkpt lat="45.33764441472307" lon="8.87690388331085"><ele>87.0</ele><time>2026-05-03T07:41:30Z</time></trkpt><trkpt lat="45.33752873787558" lon="8.876923413306043"><ele>87.0</ele><time>2026-05-03T07:41:31Z</time></trkpt><trkpt lat="45.3374101622728" lon="8.876952757470258"><ele>87.0</ele><time>2026-05-03T07:41:32Z</time></trkpt><trkpt lat="45.33730421852002" lon="8.876935877832524"><ele>87.19999999999999</ele><time>2026-05-03T07:41:33Z</time></trkpt><trkpt lat="45.337192364739884" lon="8.87697987985237"><ele>87.4</ele><time>2026-05-03T07:41:34Z</time></trkpt><trkpt lat="45.33708133029549" lon="8.877019031285643"><ele>87.6</ele><time>2026-05-03T07:41:35Z</time></trkpt><trkpt lat="45.33697526332788" lon="8.877055628446904"><ele>87.80000000000001</ele><time>2026-05-03T07:41:36Z</time></trkpt><trkpt lat="45.33687071249344" lon="8.877089081805897"><ele>88.0</ele><time>2026-05-03T07:41:37Z</time></trkpt><trkpt lat="45.33677691661772" lon="8.87711739771141"><ele>88.0</ele><time>2026-05-03T07:41:38Z</time></trkpt><trkpt lat="45.33669530540299" lon="8.877154633335646"><ele>88.0</ele><time>2026-05-03T07:41:39Z</time></trkpt><trkpt lat="45.33661668953493" lon="8.877200565363513"><ele>88.0</ele><time>2026-05-03T07:41:40Z</time></trkpt><trkpt lat="45.33655125054815" lon="8.8772269677065"><ele>88.0</ele><time>2026-05-03T07:41:41Z</time></trkpt><trkpt lat="45.33646144703998" lon="8.87725885810884"><ele>88.0</ele><time>2026-05-03T07:41:42Z</time></trkpt><trkpt lat="45.33639997491045" lon="8.877239372995522"><ele>88.0</ele><time>2026-05-03T07:41:43Z</time></trkpt><trkpt lat="45.33631795039769" lon="8.877233544552274"><ele>87.80000000000001</ele><time>2026-05-03T07:41:44Z</time></trkpt><trkpt lat="45.336229527662944" lon="8.877209395168148"><ele>87.6</ele><time>2026-05-03T07:41:45Z</time></trkpt><trkpt lat="45.33615186642416" lon="8.877148628451003"><ele>87.4</ele><time>2026-05-03T07:41:46Z</time></trkpt><trkpt lat="45.33606155413239" lon="8.877125170376289"><ele>87.19999999999999</ele><time>2026-05-03T07:41:47Z</time></trkpt><trkpt lat="45.335968045769555" lon="8.877133382872964"><ele>87.0</ele><time>2026-05-03T07:41:48Z</time></trkpt><trkpt lat="45.33588799300236" lon="8.877182016941232"><ele>87.0</ele><time>2026-05-03T07:41:49Z</time></trkpt><trkpt lat="45.33583118855107" lon="8.877265947916465"><ele>87.0</ele><time>2026-05-03T07:41:50Z</time></trkpt><trkpt lat="45.33578688876129" lon="8.877360227433709"><ele>87.0</ele><time>2026-05-03T07:41:51Z</time></trkpt><trkpt lat="45.33570100512437" lon="8.877455789449812"><ele>87.0</ele><time>2026-05-03T07:41:52Z</time></trkpt><trkpt lat="45.33561170738187" lon="8.877529736437914"><ele>87.0</ele><time>2026-05-03T07:41:53Z</time></trkpt><trkpt lat="45.335529686478445" lon="8.877606888037732"><ele>86.75</ele><time>2026-05-03T07:41:54Z</time></trkpt><trkpt lat="45.33539661019333" lon="8.877649536316273"><ele>86.5</ele><time>2026-05-03T07:41:55Z</time></trkpt><trkpt lat="45.335266541000124" lon="8.877736409838333"><ele>86.25</ele><time>2026-05-03T07:41:56Z</time></trkpt><trkpt lat="45.33513103437018" lon="8.877837901684792"><ele>86.0</ele><time>2026-05-03T07:41:57Z</time></trkpt><trkpt lat="45.3349909465045" lon="8.877875361568512"><ele>86.0</ele><time>2026-05-03T07:41:58Z</time></trkpt><trkpt lat="45.33482615284576" lon="8.87799886776111"><ele>86.0</ele><time>2026-05-03T07:41:59Z</time></trkpt><trkpt lat="45.334671335585654" lon="8.878090454039812"><ele>86.0</ele><time>2026-05-03T07:42:00Z</time></trkpt><trkpt lat="45.33451090949827" lon="8.878183760697311"><ele>86.0</ele><time>2026-05-03T07:42:01Z</time></trkpt><trkpt lat="45.33435132769898" lon="8.878282803074626"><ele>86.0</ele><time>2026-05-03T07:42:02Z</time></trkpt><trkpt lat="45.33419694296865" lon="8.878390620177273"><ele>86.0</ele><time>2026-05-03T07:42:03Z</time></trkpt><trkpt lat="45.33404844007648" lon="8.878498296369095"><ele>86.0</ele><time>2026-05-03T07:42:04Z</time></trkpt><trkpt lat="45.33391666561732" lon="8.878601106680929"><ele>86.0</ele><time>2026-05-03T07:42:05Z</time></trkpt><trkpt lat="45.33377846408736" lon="8.878714257452565"><ele>86.0</ele><time>2026-05-03T07:42:06Z</time></trkpt><trkpt lat="45.33365278315381" lon="8.878820271266232"><ele>86.25</ele><time>2026-05-03T07:42:07Z</time></trkpt><trkpt lat="45.333524080167415" lon="8.878926455889882"><ele>86.5</ele><time>2026-05-03T07:42:08Z</time></trkpt><trkpt lat="45.33341035897284" lon="8.879018791716685"><ele>86.75</ele><time>2026-05-03T07:42:09Z</time></trkpt><trkpt lat="45.33329886446551" lon="8.879086272502809"><ele>87.0</ele><time>2026-05-03T07:42:10Z</time></trkpt><trkpt lat="45.33320306863101" lon="8.879184181836246"><ele>87.0</ele><time>2026-05-03T07:42:11Z</time></trkpt><trkpt lat="45.33310601480962" lon="8.87926721846296"><ele>87.0</ele><time>2026-05-03T07:42:12Z</time></trkpt><trkpt lat="45.33300336635442" lon="8.879354840946739"><ele>87.0</ele><time>2026-05-03T07:42:13Z</time></trkpt><trkpt lat="45.332894279975" lon="8.879458393119043"><ele>87.0</ele><time>2026-05-03T07:42:14Z</time></trkpt><trkpt lat="45.332783682027554" lon="8.87954837165769"><ele>87.0</ele><time>2026-05-03T07:42:15Z</time></trkpt><trkpt lat="45.332659224441045" lon="8.879624453428157"><ele>87.0</ele><time>2026-05-03T07:42:16Z</time></trkpt><trkpt lat="45.33255531839354" lon="8.87970362452609"><ele>87.0</ele><time>2026-05-03T07:42:17Z</time></trkpt><trkpt lat="45.33245143161331" lon="8.879784090775395"><ele>87.0</ele><time>2026-05-03T07:42:18Z</time></trkpt><trkpt lat="45.33233486255502" lon="8.879874381818382"><ele>87.0</ele><time>2026-05-03T07:42:19Z</time></trkpt><trkpt lat="45.33223500892174" lon="8.879909912777691"><ele>87.0</ele><time>2026-05-03T07:42:20Z</time></trkpt><trkpt lat="45.33211056559279" lon="8.880001111998059"><ele>87.0</ele><time>2026-05-03T07:42:21Z</time></trkpt><trkpt lat="45.331981421056035" lon="8.880098518683477"><ele>87.0</ele><time>2026-05-03T07:42:22Z</time></trkpt><trkpt lat="45.33186382122484" lon="8.880160023301976"><ele>87.25</ele><time>2026-05-03T07:42:23Z</time></trkpt><trkpt lat="45.331733526376674" lon="8.880216357549301"><ele>87.5</ele><time>2026-05-03T07:42:23.999Z</time></trkpt><trkpt lat="45.331596128552526" lon="8.880258573328339"><ele>87.75</ele><time>2026-05-03T07:42:24.999Z</time></trkpt><trkpt lat="45.33145767253502" lon="8.880290478347433"><ele>88.0</ele><time>2026-05-03T07:42:25.999Z</time></trkpt><trkpt lat="45.33132861574586" lon="8.880291814687245"><ele>88.0</ele><time>2026-05-03T07:42:26.999Z</time></trkpt><trkpt lat="45.33119355957077" lon="8.880306100762574"><ele>88.0</ele><time>2026-05-03T07:42:27.999Z</time></trkpt><trkpt lat="45.331061799538084" lon="8.880293971416089"><ele>88.0</ele><time>2026-05-03T07:42:28.999Z</time></trkpt><trkpt lat="45.33092636657547" lon="8.880297847502856"><ele>88.0</ele><time>2026-05-03T07:42:29.999Z</time></trkpt><trkpt lat="45.330806694047304" lon="8.880298000527272"><ele>88.0</ele><time>2026-05-03T07:42:30.999Z</time></trkpt><trkpt lat="45.33070452029103" lon="8.880286472895628"><ele>88.0</ele><time>2026-05-03T07:42:31.999Z</time></trkpt><trkpt lat="45.330607941477865" lon="8.88027100743355"><ele>88.0</ele><time>2026-05-03T07:42:32.999Z</time></trkpt><trkpt lat="45.33051136644388" lon="8.880261422976918"><ele>88.0</ele><time>2026-05-03T07:42:33.999Z</time></trkpt><trkpt lat="45.33041049239455" lon="8.880254682467337"><ele>88.0</ele><time>2026-05-03T07:42:34.999Z</time></trkpt><trkpt lat="45.3303400558646" lon="8.880190503254367"><ele>88.0</ele><time>2026-05-03T07:42:35.999Z</time></trkpt><trkpt lat="45.3302502630515" lon="8.880180257579221"><ele>88.0</ele><time>2026-05-03T07:42:36.999Z</time></trkpt><trkpt lat="45.33017501543434" lon="8.880170893855794"><ele>88.0</ele><time>2026-05-03T07:42:37.999Z</time></trkpt><trkpt lat="45.33009511863469" lon="8.880167831168297"><ele>88.0</ele><time>2026-05-03T07:42:38.999Z</time></trkpt><trkpt lat="45.330012827412936" lon="8.880160382893525"><ele>88.0</ele><time>2026-05-03T07:42:39.999Z</time></trkpt><trkpt lat="45.32992989084555" lon="8.880152039509872"><ele>88.0</ele><time>2026-05-03T07:42:40.999Z</time></trkpt><trkpt lat="45.32985106589992" lon="8.880112614961316"><ele>88.80000000000001</ele><time>2026-05-03T07:42:41.999Z</time></trkpt><trkpt lat="45.329762997803805" lon="8.88003741750475"><ele>89.6</ele><time>2026-05-03T07:42:42.999Z</time></trkpt><trkpt lat="45.32967859093802" lon="8.879953986873533"><ele>90.4</ele><time>2026-05-03T07:42:43.999Z</time></trkpt><trkpt lat="45.329597195456266" lon="8.879941566513356"><ele>91.19999999999999</ele><time>2026-05-03T07:42:44.999Z</time></trkpt><trkpt lat="45.329505679454954" lon="8.880020443085133"><ele>92.0</ele><time>2026-05-03T07:42:45.999Z</time></trkpt><trkpt lat="45.3294192684049" lon="8.880161182454573"><ele>92.0</ele><time>2026-05-03T07:42:46.999Z</time></trkpt><trkpt lat="45.32930978745571" lon="8.880244058852297"><ele>92.0</ele><time>2026-05-03T07:42:47.999Z</time></trkpt><trkpt lat="45.329166959947976" lon="8.880263432777877"><ele>92.0</ele><time>2026-05-03T07:42:49Z</time></trkpt><trkpt lat="45.32900815375136" lon="8.880279318100206"><ele>92.0</ele><time>2026-05-03T07:42:50Z</time></trkpt><trkpt lat="45.32885499696977" lon="8.880308844564674"><ele>94.0</ele><time>2026-05-03T07:42:51Z</time></trkpt><trkpt lat="45.32869098177522" lon="8.880341011816437"><ele>96.0</ele><time>2026-05-03T07:42:52Z</time></trkpt><trkpt lat="45.32852826082081" lon="8.88036711729894"><ele>98.0</ele><time>2026-05-03T07:42:53Z</time></trkpt><trkpt lat="45.328351962384446" lon="8.880411391386913"><ele>98.0</ele><time>2026-05-03T07:42:54Z</time></trkpt><trkpt lat="45.32816078958703" lon="8.880446146264612"><ele>98.0</ele><time>2026-05-03T07:42:55Z</time></trkpt><trkpt lat="45.327965346004696" lon="8.88049113875478"><ele>98.0</ele><time>2026-05-03T07:42:56Z</time></trkpt><trkpt lat="45.32777178310552" lon="8.880535058626918"><ele>98.66666666666666</ele><time>2026-05-03T07:42:57Z</time></trkpt><trkpt lat="45.32757157067857" lon="8.880574536840443"><ele>99.33333333333334</ele><time>2026-05-03T07:42:58Z</time></trkpt><trkpt lat="45.32737084447002" lon="8.880628959385133"><ele>100.0</ele><time>2026-05-03T07:42:59Z</time></trkpt><trkpt lat="45.32716331092687" lon="8.880672972860795"><ele>100.33333333333334</ele><time>2026-05-03T07:43:00Z</time></trkpt><trkpt lat="45.3269563727035" lon="8.880696143025178"><ele>100.66666666666666</ele><time>2026-05-03T07:43:01Z</time></trkpt><trkpt lat="45.32674129228193" lon="8.88073025524667"><ele>101.0</ele><time>2026-05-03T07:43:02Z</time></trkpt><trkpt lat="45.32652430973717" lon="8.880784354149789"><ele>101.66666666666666</ele><time>2026-05-03T07:43:03Z</time></trkpt><trkpt lat="45.3263089642145" lon="8.880839348841821"><ele>102.33333333333334</ele><time>2026-05-03T07:43:04Z</time></trkpt><trkpt lat="45.32609456507142" lon="8.880880430504824"><ele>103.0</ele><time>2026-05-03T07:43:05Z</time></trkpt><trkpt lat="45.325880526141354" lon="8.880916926254631"><ele>103.0</ele><time>2026-05-03T07:43:06Z</time></trkpt><trkpt lat="45.32566478391923" lon="8.880926659600233"><ele>103.0</ele><time>2026-05-03T07:43:07Z</time></trkpt><trkpt lat="45.32545594617944" lon="8.880943047191634"><ele>103.0</ele><time>2026-05-03T07:43:08Z</time></trkpt><trkpt lat="45.32525962748591" lon="8.880976299414538"><ele>102.66666666666667</ele><time>2026-05-03T07:43:09Z</time></trkpt><trkpt lat="45.325074921333844" lon="8.88095966326817"><ele>102.33333333333334</ele><time>2026-05-03T07:43:10Z</time></trkpt><trkpt lat="45.32491774951913" lon="8.880956953404365"><ele>102.0</ele><time>2026-05-03T07:43:11Z</time></trkpt><trkpt lat="45.32478621398823" lon="8.88097266848221"><ele>102.19999999999999</ele><time>2026-05-03T07:43:12Z</time></trkpt><trkpt lat="45.324685881056006" lon="8.880958250996777"><ele>102.4</ele><time>2026-05-03T07:43:13Z</time></trkpt><trkpt lat="45.32458929665957" lon="8.880949170337859"><ele>102.6</ele><time>2026-05-03T07:43:14Z</time></trkpt><trkpt lat="45.32450014842762" lon="8.880905565256011"><ele>102.80000000000001</ele><time>2026-05-03T07:43:15Z</time></trkpt><trkpt lat="45.32442121572404" lon="8.880831094500264"><ele>103.0</ele><time>2026-05-03T07:43:16Z</time></trkpt><trkpt lat="45.32434419308667" lon="8.880756332338967"><ele>103.00000000000001</ele><time>2026-05-03T07:43:17Z</time></trkpt><trkpt lat="45.32426382557624" lon="8.880722330848947"><ele>103.0</ele><time>2026-05-03T07:43:18Z</time></trkpt><trkpt lat="45.32419058015201" lon="8.880703214463235"><ele>103.0</ele><time>2026-05-03T07:43:19Z</time></trkpt><trkpt lat="45.32411520503934" lon="8.880728825899363"><ele>103.0</ele><time>2026-05-03T07:43:20Z</time></trkpt><trkpt lat="45.32404654391859" lon="8.880788731832883"><ele>103.00000000000001</ele><time>2026-05-03T07:43:21Z</time></trkpt><trkpt lat="45.32397992763096" lon="8.880867172849133"><ele>103.0</ele><time>2026-05-03T07:43:22Z</time></trkpt><trkpt lat="45.323917645645594" lon="8.880984489526872"><ele>103.0</ele><time>2026-05-03T07:43:23Z</time></trkpt><trkpt lat="45.32375885120995" lon="8.88094765505138"><ele>103.0</ele><time>2026-05-03T07:43:24Z</time></trkpt><trkpt lat="45.323614516108684" lon="8.880964897288925"><ele>103.0</ele><time>2026-05-03T07:43:25Z</time></trkpt><trkpt lat="45.32348990981712" lon="8.88090664640563"><ele>103.0</ele><time>2026-05-03T07:43:26Z</time></trkpt><trkpt lat="45.323343088822035" lon="8.880899817700156"><ele>103.0</ele><time>2026-05-03T07:43:27Z</time></trkpt><trkpt lat="45.32317356208327" lon="8.880909505187832"><ele>103.0</ele><time>2026-05-03T07:43:28Z</time></trkpt><trkpt lat="45.322998054935745" lon="8.880907455957848"><ele>103.0</ele><time>2026-05-03T07:43:29Z</time></trkpt><trkpt lat="45.32282901804006" lon="8.880912394116224"><ele>103.0</ele><time>2026-05-03T07:43:30Z</time></trkpt><trkpt lat="45.32265439076991" lon="8.880925853642193"><ele>103.0</ele><time>2026-05-03T07:43:31Z</time></trkpt><trkpt lat="45.32247220992447" lon="8.880936897936055"><ele>103.0</ele><time>2026-05-03T07:43:32Z</time></trkpt><trkpt lat="45.32229822115234" lon="8.880936777334748"><ele>103.33333333333334</ele><time>2026-05-03T07:43:33Z</time></trkpt><trkpt lat="45.322119004857875" lon="8.880942434843277"><ele>103.66666666666666</ele><time>2026-05-03T07:43:34Z</time></trkpt><trkpt lat="45.32193806252959" lon="8.880951155164446"><ele>104.0</ele><time>2026-05-03T07:43:35Z</time></trkpt><trkpt lat="45.32174727970487" lon="8.88093873877819"><ele>104.0</ele><time>2026-05-03T07:43:36Z</time></trkpt><trkpt lat="45.32156248206497" lon="8.880938566764586"><ele>104.0</ele><time>2026-05-03T07:43:37Z</time></trkpt><trkpt lat="45.321375779441354" lon="8.880917248026826"><ele>104.0</ele><time>2026-05-03T07:43:38Z</time></trkpt><trkpt lat="45.32119630073395" lon="8.880921116355774"><ele>104.0</ele><time>2026-05-03T07:43:39Z</time></trkpt><trkpt lat="45.3210176725222" lon="8.880944037428247"><ele>104.0</ele><time>2026-05-03T07:43:40Z</time></trkpt><trkpt lat="45.3208654729688" lon="8.8809248808387"><ele>104.0</ele><time>2026-05-03T07:43:41Z</time></trkpt><trkpt lat="45.3207118448981" lon="8.88092456719718"><ele>103.66666666666666</ele><time>2026-05-03T07:43:42Z</time></trkpt><trkpt lat="45.320561981591794" lon="8.88092403540743"><ele>103.33333333333334</ele><time>2026-05-03T07:43:43Z</time></trkpt><trkpt lat="45.32040986642562" lon="8.880926882386392"><ele>103.0</ele><time>2026-05-03T07:43:44Z</time></trkpt><trkpt lat="45.32025897957944" lon="8.880931618434241"><ele>103.0</ele><time>2026-05-03T07:43:45Z</time></trkpt><trkpt lat="45.3201119655196" lon="8.880933978749987"><ele>103.0</ele><time>2026-05-03T07:43:46Z</time></trkpt><trkpt lat="45.31996462390603" lon="8.88090809856123"><ele>103.0</ele><time>2026-05-03T07:43:47Z</time></trkpt><trkpt lat="45.31980912935654" lon="8.880903188980579"><ele>103.0</ele><time>2026-05-03T07:43:48Z</time></trkpt><trkpt lat="45.31964525557335" lon="8.880898911514183"><ele>103.0</ele><time>2026-05-03T07:43:49Z</time></trkpt><trkpt lat="45.319482782439515" lon="8.880893394927558"><ele>103.0</ele><time>2026-05-03T07:43:50Z</time></trkpt><trkpt lat="45.31932181378535" lon="8.880887929425352"><ele>103.0</ele><time>2026-05-03T07:43:51Z</time></trkpt><trkpt lat="45.31916736527505" lon="8.880882685301692"><ele>103.0</ele><time>2026-05-03T07:43:52Z</time></trkpt><trkpt lat="45.31900959836864" lon="8.880877328481613"><ele>103.0</ele><time>2026-05-03T07:43:53Z</time></trkpt><trkpt lat="45.318839844149636" lon="8.88087127937857"><ele>103.0</ele><time>2026-05-03T07:43:54Z</time></trkpt><trkpt lat="45.3186686903248" lon="8.880865444871464"><ele>103.0</ele><time>2026-05-03T07:43:55Z</time></trkpt><trkpt lat="45.318488503554036" lon="8.88086011131039"><ele>103.0</ele><time>2026-05-03T07:43:56Z</time></trkpt><trkpt lat="45.318306096504884" lon="8.880854712030589"><ele>103.0</ele><time>2026-05-03T07:43:57Z</time></trkpt><trkpt lat="45.31812274815398" lon="8.880849687081962"><ele>103.0</ele><time>2026-05-03T07:43:58Z</time></trkpt><trkpt lat="45.317927199764604" lon="8.880846765202154"><ele>103.0</ele><time>2026-05-03T07:43:59Z</time></trkpt><trkpt lat="45.317733823639266" lon="8.88084387577903"><ele>102.66666666666667</ele><time>2026-05-03T07:44:00Z</time></trkpt><trkpt lat="45.31754224272864" lon="8.88084101522897"><ele>102.33333333333334</ele><time>2026-05-03T07:44:01Z</time></trkpt><trkpt lat="45.3173612059182" lon="8.880838085626122"><ele>102.0</ele><time>2026-05-03T07:44:02Z</time></trkpt><trkpt lat="45.317187861110355" lon="8.880841647473476"><ele>102.0</ele><time>2026-05-03T07:44:03Z</time></trkpt><trkpt lat="45.3170123833583" lon="8.880911178502755"><ele>102.0</ele><time>2026-05-03T07:44:04Z</time></trkpt><trkpt lat="45.316832219853524" lon="8.880910748567297"><ele>102.0</ele><time>2026-05-03T07:44:05Z</time></trkpt><trkpt lat="45.3166555535025" lon="8.88090760352224"><ele>102.0</ele><time>2026-05-03T07:44:06Z</time></trkpt><trkpt lat="45.31649032259571" lon="8.880899188147886"><ele>102.0</ele><time>2026-05-03T07:44:07Z</time></trkpt><trkpt lat="45.31633924437001" lon="8.88088916906795"><ele>102.0</ele><time>2026-05-03T07:44:08Z</time></trkpt><trkpt lat="45.316201656898755" lon="8.880882297201424"><ele>102.0</ele><time>2026-05-03T07:44:09Z</time></trkpt><trkpt lat="45.31607943429612" lon="8.880845197928162"><ele>102.0</ele><time>2026-05-03T07:44:10Z</time></trkpt><trkpt lat="45.31596757197213" lon="8.880777693216482"><ele>102.0</ele><time>2026-05-03T07:44:11Z</time></trkpt><trkpt lat="45.315872591474395" lon="8.880692263383864"><ele>102.0</ele><time>2026-05-03T07:44:12Z</time></trkpt><trkpt lat="45.315774599213434" lon="8.880658103527015"><ele>102.0</ele><time>2026-05-03T07:44:13Z</time></trkpt><trkpt lat="45.315671684299105" lon="8.880676833583825"><ele>102.0</ele><time>2026-05-03T07:44:14Z</time></trkpt><trkpt lat="45.315580456915306" lon="8.880736700179465"><ele>102.0</ele><time>2026-05-03T07:44:15Z</time></trkpt><trkpt lat="45.31551750626571" lon="8.88087701568311"><ele>102.0</ele><time>2026-05-03T07:44:16Z</time></trkpt><trkpt lat="45.31534834607809" lon="8.88084197321939"><ele>101.66666666666666</ele><time>2026-05-03T07:44:17Z</time></trkpt><trkpt lat="45.31519522413976" lon="8.880840928842234"><ele>101.33333333333333</ele><time>2026-05-03T07:44:18Z</time></trkpt><trkpt lat="45.31502378543445" lon="8.880839090291355"><ele>101.0</ele><time>2026-05-03T07:44:19Z</time></trkpt><trkpt lat="45.3148481868682" lon="8.880837080640408"><ele>101.66666666666666</ele><time>2026-05-03T07:44:20Z</time></trkpt><trkpt lat="45.31466029316296" lon="8.880835011032758"><ele>102.33333333333334</ele><time>2026-05-03T07:44:21Z</time></trkpt><trkpt lat="45.314468562108665" lon="8.880833113505194"><ele>103.0</ele><time>2026-05-03T07:44:22Z</time></trkpt><trkpt lat="45.31428136935227" lon="8.880831260893045"><ele>103.0</ele><time>2026-05-03T07:44:23Z</time></trkpt><trkpt lat="45.31407957271129" lon="8.880829263746854"><ele>103.0</ele><time>2026-05-03T07:44:24Z</time></trkpt><trkpt lat="45.3138786546237" lon="8.880827275297124"><ele>103.0</ele><time>2026-05-03T07:44:25Z</time></trkpt><trkpt lat="45.31367431201895" lon="8.880824655315577"><ele>102.0</ele><time>2026-05-03T07:44:26Z</time></trkpt><trkpt lat="45.31347306205059" lon="8.880820820384201"><ele>101.0</ele><time>2026-05-03T07:44:27Z</time></trkpt><trkpt lat="45.313273039960364" lon="8.880801639048043"><ele>100.0</ele><time>2026-05-03T07:44:28Z</time></trkpt><trkpt lat="45.31307755289497" lon="8.880751887367628"><ele>100.0</ele><time>2026-05-03T07:44:29Z</time></trkpt><trkpt lat="45.31288111617247" lon="8.880686791286509"><ele>100.0</ele><time>2026-05-03T07:44:30Z</time></trkpt><trkpt lat="45.31270321090166" lon="8.88060996571866"><ele>100.0</ele><time>2026-05-03T07:44:31Z</time></trkpt><trkpt lat="45.312527141694794" lon="8.88052321165033"><ele>100.0</ele><time>2026-05-03T07:44:32Z</time></trkpt><trkpt lat="45.31235785718318" lon="8.880428500565491"><ele>100.0</ele><time>2026-05-03T07:44:32.999Z</time></trkpt><trkpt lat="45.31218809961823" lon="8.880326772175595"><ele>100.0</ele><time>2026-05-03T07:44:33.999Z</time></trkpt><trkpt lat="45.31203240609628" lon="8.880216919726577"><ele>101.0</ele><time>2026-05-03T07:44:34.999Z</time></trkpt><trkpt lat="45.311883691704466" lon="8.88008496187492"><ele>102.0</ele><time>2026-05-03T07:44:35.999Z</time></trkpt><trkpt lat="45.311743439026586" lon="8.879956096993562"><ele>103.0</ele><time>2026-05-03T07:44:36.999Z</time></trkpt><trkpt lat="45.31160912880012" lon="8.87982534456002"><ele>103.0</ele><time>2026-05-03T07:44:37.999Z</time></trkpt><trkpt lat="45.311469471285605" lon="8.879686179863558"><ele>103.0</ele><time>2026-05-03T07:44:38.999Z</time></trkpt><trkpt lat="45.31132314762742" lon="8.879540091107684"><ele>103.0</ele><time>2026-05-03T07:44:39.999Z</time></trkpt><trkpt lat="45.31117527220503" lon="8.879392554828453"><ele>103.0</ele><time>2026-05-03T07:44:40.999Z</time></trkpt><trkpt lat="45.31101782705689" lon="8.879235840092663"><ele>103.0</ele><time>2026-05-03T07:44:41.999Z</time></trkpt><trkpt lat="45.310870138825045" lon="8.879089519358269"><ele>103.0</ele><time>2026-05-03T07:44:42.999Z</time></trkpt><trkpt lat="45.31073538734556" lon="8.87895789345185"><ele>103.0</ele><time>2026-05-03T07:44:43.999Z</time></trkpt><trkpt lat="45.31059204628561" lon="8.878817876968874"><ele>103.0</ele><time>2026-05-03T07:44:44.999Z</time></trkpt><trkpt lat="45.31048015689141" lon="8.878692274678766"><ele>103.0</ele><time>2026-05-03T07:44:45.999Z</time></trkpt><trkpt lat="45.31043385416625" lon="8.878493242413134"><ele>102.25</ele><time>2026-05-03T07:44:46.999Z</time></trkpt><trkpt lat="45.31041530188363" lon="8.878290784349447"><ele>101.5</ele><time>2026-05-03T07:44:47.999Z</time></trkpt><trkpt lat="45.310348228339315" lon="8.878114071750367"><ele>100.75</ele><time>2026-05-03T07:44:48.999Z</time></trkpt><trkpt lat="45.31020581223208" lon="8.878016643207301"><ele>100.0</ele><time>2026-05-03T07:44:49.999Z</time></trkpt><trkpt lat="45.31004850920122" lon="8.878036500603693"><ele>100.0</ele><time>2026-05-03T07:44:50.999Z</time></trkpt><trkpt lat="45.30990080815324" lon="8.878062376528531"><ele>100.0</ele><time>2026-05-03T07:44:51.999Z</time></trkpt><trkpt lat="45.309747534813276" lon="8.878015757886194"><ele>100.0</ele><time>2026-05-03T07:44:52.999Z</time></trkpt><trkpt lat="45.309618551309846" lon="8.87785967795003"><ele>100.0</ele><time>2026-05-03T07:44:53.999Z</time></trkpt><trkpt lat="45.30946077054167" lon="8.877710849467109"><ele>100.0</ele><time>2026-05-03T07:44:55Z</time></trkpt><trkpt lat="45.309308096831636" lon="8.87756281571048"><ele>100.0</ele><time>2026-05-03T07:44:56Z</time></trkpt><trkpt lat="45.30914543722068" lon="8.877403512405397"><ele>100.33333333333334</ele><time>2026-05-03T07:44:57Z</time></trkpt><trkpt lat="45.308976735680325" lon="8.877237340834228"><ele>100.66666666666666</ele><time>2026-05-03T07:44:58Z</time></trkpt><trkpt lat="45.30879442839277" lon="8.877057767744136"><ele>101.0</ele><time>2026-05-03T07:44:59Z</time></trkpt><trkpt lat="45.3086105860747" lon="8.876877055357951"><ele>101.0</ele><time>2026-05-03T07:45:00Z</time></trkpt><trkpt lat="45.30843234659389" lon="8.876702636577896"><ele>101.0</ele><time>2026-05-03T07:45:01Z</time></trkpt><trkpt lat="45.308249702350416" lon="8.87652390738992"><ele>101.0</ele><time>2026-05-03T07:45:02Z</time></trkpt><trkpt lat="45.30806921629703" lon="8.876346492482233"><ele>101.0</ele><time>2026-05-03T07:45:03Z</time></trkpt><trkpt lat="45.30789547117066" lon="8.876174944587975"><ele>101.0</ele><time>2026-05-03T07:45:04Z</time></trkpt><trkpt lat="45.30771128551009" lon="8.875993090276742"><ele>101.0</ele><time>2026-05-03T07:45:05Z</time></trkpt><trkpt lat="45.30751072907679" lon="8.875795070267092"><ele>100.5</ele><time>2026-05-03T07:45:06Z</time></trkpt><trkpt lat="45.30732072078529" lon="8.875609242617267"><ele>100.0</ele><time>2026-05-03T07:45:07Z</time></trkpt><trkpt lat="45.30713280713144" lon="8.875426169520825"><ele>100.0</ele><time>2026-05-03T07:45:08Z</time></trkpt><trkpt lat="45.306942889699926" lon="8.875241144391405"><ele>100.0</ele><time>2026-05-03T07:45:09Z</time></trkpt><trkpt lat="45.306759758948246" lon="8.8750618412377"><ele>100.0</ele><time>2026-05-03T07:45:10Z</time></trkpt><trkpt lat="45.30657147051919" lon="8.874878329832764"><ele>100.0</ele><time>2026-05-03T07:45:11Z</time></trkpt><trkpt lat="45.30635454678484" lon="8.874740597257269"><ele>100.0</ele><time>2026-05-03T07:45:12Z</time></trkpt><trkpt lat="45.30616405257968" lon="8.874556913637385"><ele>100.0</ele><time>2026-05-03T07:45:13Z</time></trkpt><trkpt lat="45.30596485564002" lon="8.87438014348614"><ele>101.5</ele><time>2026-05-03T07:45:14Z</time></trkpt><trkpt lat="45.30578898168567" lon="8.874208884851583"><ele>103.0</ele><time>2026-05-03T07:45:15Z</time></trkpt><trkpt lat="45.30559033301876" lon="8.874016280742325"><ele>102.5</ele><time>2026-05-03T07:45:16Z</time></trkpt><trkpt lat="45.30539843368871" lon="8.873831638797016"><ele>102.0</ele><time>2026-05-03T07:45:17Z</time></trkpt><trkpt lat="45.30521212779839" lon="8.873645839645025"><ele>102.0</ele><time>2026-05-03T07:45:18Z</time></trkpt><trkpt lat="45.305032618538526" lon="8.873464216339698"><ele>102.0</ele><time>2026-05-03T07:45:19Z</time></trkpt><trkpt lat="45.30485802340073" lon="8.87330744847201"><ele>102.0</ele><time>2026-05-03T07:45:20Z</time></trkpt><trkpt lat="45.30471741864872" lon="8.873092283770312"><ele>101.66666666666666</ele><time>2026-05-03T07:45:21Z</time></trkpt><trkpt lat="45.30456516705251" lon="8.872952995395552"><ele>101.33333333333333</ele><time>2026-05-03T07:45:22Z</time></trkpt><trkpt lat="45.304421803678984" lon="8.872814658936413"><ele>101.0</ele><time>2026-05-03T07:45:23Z</time></trkpt><trkpt lat="45.30428584398585" lon="8.872679235813038"><ele>101.0</ele><time>2026-05-03T07:45:24Z</time></trkpt><trkpt lat="45.304188948462226" lon="8.872579141667382"><ele>101.0</ele><time>2026-05-03T07:45:25Z</time></trkpt><trkpt lat="45.304090054285076" lon="8.872473888423876"><ele>101.0</ele><time>2026-05-03T07:45:26Z</time></trkpt><trkpt lat="45.30399872678137" lon="8.872398745239433"><ele>101.0</ele><time>2026-05-03T07:45:27Z</time></trkpt><trkpt lat="45.303960276481874" lon="8.872254701507982"><ele>101.0</ele><time>2026-05-03T07:45:28Z</time></trkpt><trkpt lat="45.303933668152936" lon="8.872097200160015"><ele>101.0</ele><time>2026-05-03T07:45:29Z</time></trkpt><trkpt lat="45.30389528458775" lon="8.871954170776313"><ele>101.0</ele><time>2026-05-03T07:45:30Z</time></trkpt><trkpt lat="45.303830636732755" lon="8.87185642870621"><ele>101.0</ele><time>2026-05-03T07:45:31Z</time></trkpt><trkpt lat="45.30374093295161" lon="8.871804386919779"><ele>101.0</ele><time>2026-05-03T07:45:32Z</time></trkpt><trkpt lat="45.3036468916641" lon="8.87181917911433"><ele>100.75</ele><time>2026-05-03T07:45:33Z</time></trkpt><trkpt lat="45.303557837866045" lon="8.871900934630958"><ele>100.5</ele><time>2026-05-03T07:45:34Z</time></trkpt><trkpt lat="45.30348882433292" lon="8.872046910035689"><ele>100.25</ele><time>2026-05-03T07:45:35Z</time></trkpt><trkpt lat="45.303435768197836" lon="8.872226124360159"><ele>100.0</ele><time>2026-05-03T07:45:36Z</time></trkpt><trkpt lat="45.303352548712034" lon="8.872383232938342"><ele>100.0</ele><time>2026-05-03T07:45:37Z</time></trkpt><trkpt lat="45.303213162285324" lon="8.872515396849481"><ele>100.0</ele><time>2026-05-03T07:45:38Z</time></trkpt><trkpt lat="45.30306742743479" lon="8.872618852124644"><ele>100.0</ele><time>2026-05-03T07:45:39Z</time></trkpt><trkpt lat="45.30292239915306" lon="8.872734969967713"><ele>100.0</ele><time>2026-05-03T07:45:40Z</time></trkpt><trkpt lat="45.30276521926738" lon="8.87287874547356"><ele>100.0</ele><time>2026-05-03T07:45:41Z</time></trkpt><trkpt lat="45.302609160755985" lon="8.873018919218348"><ele>100.0</ele><time>2026-05-03T07:45:42Z</time></trkpt><trkpt lat="45.30243526741587" lon="8.873170706157216"><ele>100.0</ele><time>2026-05-03T07:45:43Z</time></trkpt><trkpt lat="45.30225531300854" lon="8.873343477511257"><ele>100.0</ele><time>2026-05-03T07:45:44Z</time></trkpt><trkpt lat="45.30207587048868" lon="8.873510969905853"><ele>100.0</ele><time>2026-05-03T07:45:45Z</time></trkpt><trkpt lat="45.30189278436896" lon="8.873685938848594"><ele>99.5</ele><time>2026-05-03T07:45:46Z</time></trkpt><trkpt lat="45.30170130093633" lon="8.873871456178462"><ele>99.0</ele><time>2026-05-03T07:45:47Z</time></trkpt><trkpt lat="45.30151074894165" lon="8.874042176044542"><ele>98.5</ele><time>2026-05-03T07:45:48Z</time></trkpt><trkpt lat="45.30130481241189" lon="8.874198661487167"><ele>98.0</ele><time>2026-05-03T07:45:49Z</time></trkpt><trkpt lat="45.30111490792426" lon="8.874403384828922"><ele>97.5</ele><time>2026-05-03T07:45:50Z</time></trkpt><trkpt lat="45.300916210614126" lon="8.874581240759937"><ele>97.0</ele><time>2026-05-03T07:45:51Z</time></trkpt><trkpt lat="45.300710852829106" lon="8.874766057713751"><ele>97.5</ele><time>2026-05-03T07:45:52Z</time></trkpt><trkpt lat="45.30050573468453" lon="8.874954891955769"><ele>98.0</ele><time>2026-05-03T07:45:53Z</time></trkpt><trkpt lat="45.300285788977526" lon="8.87510520719967"><ele>98.5</ele><time>2026-05-03T07:45:54Z</time></trkpt><trkpt lat="45.30007961946323" lon="8.87528841842327"><ele>99.0</ele><time>2026-05-03T07:45:55Z</time></trkpt><trkpt lat="45.299868318011086" lon="8.875475189545382"><ele>98.5</ele><time>2026-05-03T07:45:56Z</time></trkpt><trkpt lat="45.29965117618271" lon="8.875667299823409"><ele>98.0</ele><time>2026-05-03T07:45:57Z</time></trkpt><trkpt lat="45.29944387597557" lon="8.8758507027662"><ele>98.5</ele><time>2026-05-03T07:45:58Z</time></trkpt><trkpt lat="45.29923522421659" lon="8.876035364922405"><ele>99.0</ele><time>2026-05-03T07:45:59Z</time></trkpt><trkpt lat="45.29901893564245" lon="8.876226954350763"><ele>99.0</ele><time>2026-05-03T07:46:00Z</time></trkpt><trkpt lat="45.29880656982812" lon="8.876415006183187"><ele>99.0</ele><time>2026-05-03T07:46:01Z</time></trkpt><trkpt lat="45.29859828506953" lon="8.876598391405679"><ele>98.5</ele><time>2026-05-03T07:46:02Z</time></trkpt><trkpt lat="45.298386364034506" lon="8.876784230539688"><ele>98.0</ele><time>2026-05-03T07:46:03Z</time></trkpt><trkpt lat="45.2981764779205" lon="8.87696782287422"><ele>98.0</ele><time>2026-05-03T07:46:04Z</time></trkpt><trkpt lat="45.29795293057924" lon="8.87716375313263"><ele>98.0</ele><time>2026-05-03T07:46:05Z</time></trkpt><trkpt lat="45.297735265118064" lon="8.877354163020673"><ele>98.0</ele><time>2026-05-03T07:46:06Z</time></trkpt><trkpt lat="45.29751769004003" lon="8.87754473715264"><ele>98.0</ele><time>2026-05-03T07:46:07Z</time></trkpt><trkpt lat="45.29730260973082" lon="8.877734446430365"><ele>98.5</ele><time>2026-05-03T07:46:08Z</time></trkpt><trkpt lat="45.297079483980106" lon="8.877931251954529"><ele>99.0</ele><time>2026-05-03T07:46:09Z</time></trkpt><trkpt lat="45.29685818321776" lon="8.878126448022389"><ele>99.0</ele><time>2026-05-03T07:46:10Z</time></trkpt><trkpt lat="45.29664784061748" lon="8.878311978552677"><ele>99.0</ele><time>2026-05-03T07:46:11Z</time></trkpt><trkpt lat="45.29643301723392" lon="8.878501092980715"><ele>98.5</ele><time>2026-05-03T07:46:12Z</time></trkpt><trkpt lat="45.2962201542729" lon="8.878687254047408"><ele>98.0</ele><time>2026-05-03T07:46:13Z</time></trkpt><trkpt lat="45.29600535266069" lon="8.878875110461298"><ele>98.0</ele><time>2026-05-03T07:46:14Z</time></trkpt><trkpt lat="45.29579091400268" lon="8.879062649223817"><ele>98.0</ele><time>2026-05-03T07:46:15Z</time></trkpt><trkpt lat="45.295569591127084" lon="8.879256717371048"><ele>98.0</ele><time>2026-05-03T07:46:16Z</time></trkpt><trkpt lat="45.29535485323906" lon="8.879446210864318"><ele>98.0</ele><time>2026-05-03T07:46:17Z</time></trkpt><trkpt lat="45.2951359327288" lon="8.879639395534012"><ele>98.0</ele><time>2026-05-03T07:46:18Z</time></trkpt><trkpt lat="45.29493425468035" lon="8.879818007125554"><ele>98.0</ele><time>2026-05-03T07:46:19Z</time></trkpt><trkpt lat="45.294737956528024" lon="8.879998428676021"><ele>97.5</ele><time>2026-05-03T07:46:20Z</time></trkpt><trkpt lat="45.29453036980941" lon="8.880182415553593"><ele>97.0</ele><time>2026-05-03T07:46:21Z</time></trkpt><trkpt lat="45.2943255595166" lon="8.880379633903924"><ele>97.0</ele><time>2026-05-03T07:46:22Z</time></trkpt><trkpt lat="45.294132975205486" lon="8.88054615995935"><ele>97.0</ele><time>2026-05-03T07:46:23Z</time></trkpt><trkpt lat="45.293952412002156" lon="8.880694752379869"><ele>97.0</ele><time>2026-05-03T07:46:24Z</time></trkpt><trkpt lat="45.29377782900519" lon="8.880855283279939"><ele>98.0</ele><time>2026-05-03T07:46:25Z</time></trkpt><trkpt lat="45.293615828742595" lon="8.88099185125985"><ele>99.0</ele><time>2026-05-03T07:46:26Z</time></trkpt><trkpt lat="45.29345294603355" lon="8.881137673663602"><ele>100.0</ele><time>2026-05-03T07:46:27Z</time></trkpt><trkpt lat="45.29329957928307" lon="8.881272855400288"><ele>100.0</ele><time>2026-05-03T07:46:28Z</time></trkpt><trkpt lat="45.293155158255225" lon="8.881395299798532"><ele>100.0</ele><time>2026-05-03T07:46:29Z</time></trkpt><trkpt lat="45.29301705268077" lon="8.88151589720702"><ele>100.0</ele><time>2026-05-03T07:46:29.999Z</time></trkpt><trkpt lat="45.292890705926744" lon="8.88163062346655"><ele>100.0</ele><time>2026-05-03T07:46:30.999Z</time></trkpt><trkpt lat="45.292755013112334" lon="8.881725348060627"><ele>100.0</ele><time>2026-05-03T07:46:31.999Z</time></trkpt><trkpt lat="45.292650407045635" lon="8.881817032645602"><ele>100.0</ele><time>2026-05-03T07:46:32.999Z</time></trkpt><trkpt lat="45.29255765944811" lon="8.881882403480194"><ele>100.0</ele><time>2026-05-03T07:46:33.999Z</time></trkpt><trkpt lat="45.292453694301294" lon="8.881973098304393"><ele>99.75</ele><time>2026-05-03T07:46:34.999Z</time></trkpt><trkpt lat="45.29235228567327" lon="8.882062821670651"><ele>99.5</ele><time>2026-05-03T07:46:35.999Z</time></trkpt><trkpt lat="45.29225363516647" lon="8.882157623153713"><ele>99.25</ele><time>2026-05-03T07:46:36.999Z</time></trkpt><trkpt lat="45.292152430240165" lon="8.882253928249844"><ele>99.0</ele><time>2026-05-03T07:46:37.999Z</time></trkpt><trkpt lat="45.29205685358685" lon="8.88231673677396"><ele>99.0</ele><time>2026-05-03T07:46:38.999Z</time></trkpt><trkpt lat="45.29195926560455" lon="8.882403958303863"><ele>99.0</ele><time>2026-05-03T07:46:39.999Z</time></trkpt><trkpt lat="45.29185480514932" lon="8.882496921562103"><ele>99.0</ele><time>2026-05-03T07:46:40.999Z</time></trkpt><trkpt lat="45.29174988464972" lon="8.882595466425444"><ele>99.0</ele><time>2026-05-03T07:46:41.999Z</time></trkpt><trkpt lat="45.29163741351668" lon="8.882712924154127"><ele>99.25</ele><time>2026-05-03T07:46:42.999Z</time></trkpt><trkpt lat="45.29152184887107" lon="8.882828037633768"><ele>99.5</ele><time>2026-05-03T07:46:43.999Z</time></trkpt><trkpt lat="45.29139785697761" lon="8.882941358067958"><ele>99.75</ele><time>2026-05-03T07:46:44.999Z</time></trkpt><trkpt lat="45.29126477231938" lon="8.883054611100768"><ele>100.0</ele><time>2026-05-03T07:46:45.999Z</time></trkpt><trkpt lat="45.291128986777686" lon="8.883153264653394"><ele>100.0</ele><time>2026-05-03T07:46:46.999Z</time></trkpt><trkpt lat="45.2909954444267" lon="8.883268536103264"><ele>100.0</ele><time>2026-05-03T07:46:47.999Z</time></trkpt><trkpt lat="45.290863611018715" lon="8.883384782827024"><ele>100.0</ele><time>2026-05-03T07:46:48.999Z</time></trkpt><trkpt lat="45.29073698940523" lon="8.883492585700532"><ele>100.0</ele><time>2026-05-03T07:46:49.999Z</time></trkpt><trkpt lat="45.29060579978575" lon="8.883609137849408"><ele>100.0</ele><time>2026-05-03T07:46:50.999Z</time></trkpt><trkpt lat="45.290474620107716" lon="8.883725110100293"><ele>100.0</ele><time>2026-05-03T07:46:51.999Z</time></trkpt><trkpt lat="45.290339462767484" lon="8.883848092213396"><ele>100.0</ele><time>2026-05-03T07:46:52.999Z</time></trkpt><trkpt lat="45.29020438680203" lon="8.883958558779531"><ele>100.0</ele><time>2026-05-03T07:46:53.999Z</time></trkpt><trkpt lat="45.290074853005756" lon="8.884055926612206"><ele>100.0</ele><time>2026-05-03T07:46:54.999Z</time></trkpt><trkpt lat="45.28994433447147" lon="8.884174899638252"><ele>100.0</ele><time>2026-05-03T07:46:55.999Z</time></trkpt><trkpt lat="45.28981910637444" lon="8.88427130615997"><ele>100.0</ele><time>2026-05-03T07:46:56.999Z</time></trkpt><trkpt lat="45.28968775260483" lon="8.884386786218592"><ele>100.0</ele><time>2026-05-03T07:46:57.999Z</time></trkpt><trkpt lat="45.28956029077861" lon="8.884490921742014"><ele>100.0</ele><time>2026-05-03T07:46:58.999Z</time></trkpt><trkpt lat="45.289434991387964" lon="8.884609514409057"><ele>100.0</ele><time>2026-05-03T07:46:59.999Z</time></trkpt><trkpt lat="45.28931753298337" lon="8.884714434912551"><ele>100.0</ele><time>2026-05-03T07:47:01Z</time></trkpt><trkpt lat="45.28920591056092" lon="8.884819860903516"><ele>100.0</ele><time>2026-05-03T07:47:02Z</time></trkpt><trkpt lat="45.28910812251565" lon="8.884910828479443"><ele>100.0</ele><time>2026-05-03T07:47:03Z</time></trkpt><trkpt lat="45.289014020483094" lon="8.884993161724344"><ele>100.0</ele><time>2026-05-03T07:47:04Z</time></trkpt><trkpt lat="45.288930049351634" lon="8.885065636004962"><ele>100.0</ele><time>2026-05-03T07:47:05Z</time></trkpt><trkpt lat="45.288851614777265" lon="8.88514400703343"><ele>100.0</ele><time>2026-05-03T07:47:06Z</time></trkpt><trkpt lat="45.28877499953787" lon="8.88521637445965"><ele>100.0</ele><time>2026-05-03T07:47:07Z</time></trkpt><trkpt lat="45.2887024052786" lon="8.88528607117131"><ele>100.0</ele><time>2026-05-03T07:47:08Z</time></trkpt><trkpt lat="45.2886311738329" lon="8.885341541940294"><ele>100.00000000000001</ele><time>2026-05-03T07:47:09Z</time></trkpt><trkpt lat="45.288558875500634" lon="8.885406316181719"><ele>100.0</ele><time>2026-05-03T07:47:10Z</time></trkpt><trkpt lat="45.28848962989247" lon="8.885475657098096"><ele>100.0</ele><time>2026-05-03T07:47:11Z</time></trkpt><trkpt lat="45.288393752537125" lon="8.885557463230215"><ele>100.0</ele><time>2026-05-03T07:47:13Z</time></trkpt><trkpt lat="45.288343432178415" lon="8.885611776533873"><ele>100.00000000000001</ele><time>2026-05-03T07:47:14Z</time></trkpt><trkpt lat="45.28826743395851" lon="8.885689357421759"><ele>100.0</ele><time>2026-05-03T07:47:16Z</time></trkpt><trkpt lat="45.28822764170786" lon="8.885760346996268"><ele>100.0</ele><time>2026-05-03T07:47:18Z</time></trkpt><trkpt lat="45.288160860674445" lon="8.885827209193021"><ele>100.0</ele><time>2026-05-03T07:47:20Z</time></trkpt><trkpt lat="45.288059467088615" lon="8.885964694602851"><ele>100.0</ele><time>2026-05-03T07:47:22Z</time></trkpt><trkpt lat="45.287995641932575" lon="8.886049798143318"><ele>100.0</ele><time>2026-05-03T07:47:23Z</time></trkpt><trkpt lat="45.28793324030011" lon="8.88613720061555"><ele>100.0</ele><time>2026-05-03T07:47:24Z</time></trkpt><trkpt lat="45.287834605814034" lon="8.88621559549479"><ele>100.25</ele><time>2026-05-03T07:47:25Z</time></trkpt><trkpt lat="45.28773155703884" lon="8.88631385041782"><ele>100.5</ele><time>2026-05-03T07:47:26Z</time></trkpt><trkpt lat="45.28762272017278" lon="8.886397066090408"><ele>100.75</ele><time>2026-05-03T07:47:27Z</time></trkpt><trkpt lat="45.287517025528665" lon="8.886494932633695"><ele>101.0</ele><time>2026-05-03T07:47:28Z</time></trkpt><trkpt lat="45.28739510805465" lon="8.886611842356555"><ele>101.0</ele><time>2026-05-03T07:47:29Z</time></trkpt><trkpt lat="45.28726663001385" lon="8.886769348660549"><ele>101.0</ele><time>2026-05-03T07:47:30Z</time></trkpt><trkpt lat="45.28710860001524" lon="8.886954771743094"><ele>101.0</ele><time>2026-05-03T07:47:31Z</time></trkpt><trkpt lat="45.28697154302737" lon="8.88710736560608"><ele>101.0</ele><time>2026-05-03T07:47:32Z</time></trkpt><trkpt lat="45.28683519320864" lon="8.88727249032289"><ele>101.0</ele><time>2026-05-03T07:47:33Z</time></trkpt><trkpt lat="45.28669282491364" lon="8.887441523438309"><ele>101.0</ele><time>2026-05-03T07:47:34Z</time></trkpt><trkpt lat="45.2865482135824" lon="8.887627270986608"><ele>100.33333333333333</ele><time>2026-05-03T07:47:35Z</time></trkpt><trkpt lat="45.286406262541405" lon="8.887802697350175"><ele>99.66666666666666</ele><time>2026-05-03T07:47:36Z</time></trkpt><trkpt lat="45.28626128973588" lon="8.887996107461708"><ele>99.0</ele><time>2026-05-03T07:47:37Z</time></trkpt><trkpt lat="45.28611334888892" lon="8.888190519050436"><ele>99.0</ele><time>2026-05-03T07:47:38Z</time></trkpt><trkpt lat="45.28596486808563" lon="8.888393210575478"><ele>99.0</ele><time>2026-05-03T07:47:39Z</time></trkpt><trkpt lat="45.28581914594844" lon="8.888584492636914"><ele>99.0</ele><time>2026-05-03T07:47:40Z</time></trkpt><trkpt lat="45.28565469773191" lon="8.888799028037838"><ele>99.66666666666666</ele><time>2026-05-03T07:47:41Z</time></trkpt><trkpt lat="45.285495529720265" lon="8.889016296019362"><ele>100.33333333333333</ele><time>2026-05-03T07:47:42Z</time></trkpt><trkpt lat="45.285327956274884" lon="8.88923476286282"><ele>101.0</ele><time>2026-05-03T07:47:43Z</time></trkpt><trkpt lat="45.28515818826336" lon="8.88946178555816"><ele>98.0</ele><time>2026-05-03T07:47:44Z</time></trkpt><trkpt lat="45.28498236495211" lon="8.889687672586037"><ele>95.0</ele><time>2026-05-03T07:47:45Z</time></trkpt><trkpt lat="45.28481396401118" lon="8.88991462283137"><ele>95.5</ele><time>2026-05-03T07:47:46Z</time></trkpt><trkpt lat="45.284638944527956" lon="8.890141559684052"><ele>96.0</ele><time>2026-05-03T07:47:47Z</time></trkpt><trkpt lat="45.28446407424794" lon="8.890378974651789"><ele>96.0</ele><time>2026-05-03T07:47:48Z</time></trkpt><trkpt lat="45.28429284551003" lon="8.890613930644195"><ele>96.0</ele><time>2026-05-03T07:47:49Z</time></trkpt><trkpt lat="45.284119276695485" lon="8.890843005960676"><ele>95.5</ele><time>2026-05-03T07:47:50Z</time></trkpt><trkpt lat="45.2839443851714" lon="8.891063513684593"><ele>95.0</ele><time>2026-05-03T07:47:51Z</time></trkpt><trkpt lat="45.28376565634553" lon="8.891273647129772"><ele>95.0</ele><time>2026-05-03T07:47:52Z</time></trkpt><trkpt lat="45.28358092486584" lon="8.891496816790337"><ele>95.0</ele><time>2026-05-03T07:47:53Z</time></trkpt><trkpt lat="45.283389440795844" lon="8.891702565591565"><ele>95.0</ele><time>2026-05-03T07:47:54Z</time></trkpt><trkpt lat="45.28318509254429" lon="8.89188483829644"><ele>95.0</ele><time>2026-05-03T07:47:55Z</time></trkpt><trkpt lat="45.28298450645015" lon="8.892075828445417"><ele>95.0</ele><time>2026-05-03T07:47:56Z</time></trkpt><trkpt lat="45.282777399106465" lon="8.892263903483512"><ele>95.0</ele><time>2026-05-03T07:47:57Z</time></trkpt><trkpt lat="45.28255796379289" lon="8.892447272757073"><ele>94.0</ele><time>2026-05-03T07:47:58Z</time></trkpt><trkpt lat="45.282351732225955" lon="8.892628606708762"><ele>93.0</ele><time>2026-05-03T07:47:59Z</time></trkpt><trkpt lat="45.28215050268022" lon="8.892805542515408"><ele>93.0</ele><time>2026-05-03T07:48:00Z</time></trkpt><trkpt lat="45.28194088961944" lon="8.89298984972515"><ele>93.0</ele><time>2026-05-03T07:48:01Z</time></trkpt><trkpt lat="45.28173494279938" lon="8.893170933305573"><ele>93.0</ele><time>2026-05-03T07:48:02Z</time></trkpt><trkpt lat="45.28153643653527" lon="8.893367425560795"><ele>93.0</ele><time>2026-05-03T07:48:03Z</time></trkpt><trkpt lat="45.28132262768819" lon="8.893561339490756"><ele>94.0</ele><time>2026-05-03T07:48:04Z</time></trkpt><trkpt lat="45.2811017045412" lon="8.893728193715702"><ele>95.0</ele><time>2026-05-03T07:48:05Z</time></trkpt><trkpt lat="45.28088265639103" lon="8.893921013177613"><ele>95.0</ele><time>2026-05-03T07:48:06Z</time></trkpt><trkpt lat="45.280664010319896" lon="8.894113478788597"><ele>95.0</ele><time>2026-05-03T07:48:07Z</time></trkpt><trkpt lat="45.28043169026949" lon="8.894317981055355"><ele>94.0</ele><time>2026-05-03T07:48:08Z</time></trkpt><trkpt lat="45.280208294863655" lon="8.894514627166261"><ele>93.0</ele><time>2026-05-03T07:48:09Z</time></trkpt><trkpt lat="45.27998830494589" lon="8.89470827572401"><ele>93.0</ele><time>2026-05-03T07:48:10Z</time></trkpt><trkpt lat="45.279785721095145" lon="8.894886602346972"><ele>93.0</ele><time>2026-05-03T07:48:11Z</time></trkpt><trkpt lat="45.27957633953473" lon="8.895070912617811"><ele>93.0</ele><time>2026-05-03T07:48:12Z</time></trkpt><trkpt lat="45.27936613320959" lon="8.895255949190558"><ele>93.0</ele><time>2026-05-03T07:48:13Z</time></trkpt><trkpt lat="45.27915697728317" lon="8.895440060882583"><ele>93.0</ele><time>2026-05-03T07:48:14Z</time></trkpt><trkpt lat="45.27893995423869" lon="8.895631765111107"><ele>93.0</ele><time>2026-05-03T07:48:15Z</time></trkpt><trkpt lat="45.27873043806282" lon="8.895813977805323"><ele>93.5</ele><time>2026-05-03T07:48:16Z</time></trkpt><trkpt lat="45.27852453132934" lon="8.895979813884052"><ele>94.0</ele><time>2026-05-03T07:48:17Z</time></trkpt><trkpt lat="45.278308417432974" lon="8.896134786507941"><ele>94.0</ele><time>2026-05-03T07:48:18Z</time></trkpt><trkpt lat="45.27808942287561" lon="8.896264589014708"><ele>94.0</ele><time>2026-05-03T07:48:19Z</time></trkpt><trkpt lat="45.27786230588313" lon="8.896372053510397"><ele>94.0</ele><time>2026-05-03T07:48:20Z</time></trkpt><trkpt lat="45.277634683371296" lon="8.89645652948309"><ele>94.0</ele><time>2026-05-03T07:48:21Z</time></trkpt><trkpt lat="45.27740728123797" lon="8.896520113512237"><ele>94.0</ele><time>2026-05-03T07:48:22Z</time></trkpt><trkpt lat="45.277169074219685" lon="8.896559818019314"><ele>94.0</ele><time>2026-05-03T07:48:23Z</time></trkpt><trkpt lat="45.276924872448966" lon="8.896581936919747"><ele>94.0</ele><time>2026-05-03T07:48:24Z</time></trkpt><trkpt lat="45.27667481609369" lon="8.896588408704064"><ele>94.0</ele><time>2026-05-03T07:48:25Z</time></trkpt><trkpt lat="45.27642107622138" lon="8.896590789546668"><ele>94.5</ele><time>2026-05-03T07:48:26Z</time></trkpt><trkpt lat="45.27617127830924" lon="8.896593131402355"><ele>95.0</ele><time>2026-05-03T07:48:27Z</time></trkpt><trkpt lat="45.27591877444903" lon="8.896595498625674"><ele>95.0</ele><time>2026-05-03T07:48:28Z</time></trkpt><trkpt lat="45.2756684419542" lon="8.896598634621876"><ele>95.0</ele><time>2026-05-03T07:48:29Z</time></trkpt><trkpt lat="45.27541743687707" lon="8.896606994453398"><ele>96.0</ele><time>2026-05-03T07:48:30Z</time></trkpt><trkpt lat="45.27516760450595" lon="8.896619256615114"><ele>97.0</ele><time>2026-05-03T07:48:30.999Z</time></trkpt><trkpt lat="45.27491899052324" lon="8.896639735127525"><ele>96.5</ele><time>2026-05-03T07:48:31.999Z</time></trkpt><trkpt lat="45.274665638322666" lon="8.896663875067738"><ele>96.0</ele><time>2026-05-03T07:48:32.999Z</time></trkpt><trkpt lat="45.27441524366758" lon="8.896687733203985"><ele>96.0</ele><time>2026-05-03T07:48:33.999Z</time></trkpt><trkpt lat="45.27417259251133" lon="8.896819369404614"><ele>96.0</ele><time>2026-05-03T07:48:34.999Z</time></trkpt><trkpt lat="45.273924397711895" lon="8.896870118204147"><ele>96.0</ele><time>2026-05-03T07:48:35.999Z</time></trkpt><trkpt lat="45.27368594456652" lon="8.896919609030347"><ele>96.0</ele><time>2026-05-03T07:48:36.999Z</time></trkpt><trkpt lat="45.27344908491847" lon="8.896967870912118"><ele>96.0</ele><time>2026-05-03T07:48:37.999Z</time></trkpt><trkpt lat="45.27320517578656" lon="8.897025272536515"><ele>96.0</ele><time>2026-05-03T07:48:38.999Z</time></trkpt><trkpt lat="45.272966438194146" lon="8.897076292691933"><ele>94.5</ele><time>2026-05-03T07:48:39.999Z</time></trkpt><trkpt lat="45.27273215390736" lon="8.897133117590485"><ele>93.0</ele><time>2026-05-03T07:48:40.999Z</time></trkpt><trkpt lat="45.27250951896673" lon="8.897193403216354"><ele>93.0</ele><time>2026-05-03T07:48:41.999Z</time></trkpt><trkpt lat="45.27230148424857" lon="8.897234629848386"><ele>93.0</ele><time>2026-05-03T07:48:42.999Z</time></trkpt><trkpt lat="45.27210732380036" lon="8.897264715034424"><ele>93.0</ele><time>2026-05-03T07:48:43.999Z</time></trkpt><trkpt lat="45.271923803050605" lon="8.897298238037695"><ele>93.66666666666667</ele><time>2026-05-03T07:48:44.999Z</time></trkpt><trkpt lat="45.27175070463164" lon="8.897329886711404"><ele>94.33333333333334</ele><time>2026-05-03T07:48:45.999Z</time></trkpt><trkpt lat="45.27159677753031" lon="8.897357628489644"><ele>95.0</ele><time>2026-05-03T07:48:46.999Z</time></trkpt><trkpt lat="45.27145585546169" lon="8.897380494507187"><ele>95.0</ele><time>2026-05-03T07:48:47.999Z</time></trkpt><trkpt lat="45.27132711068985" lon="8.897403343026776"><ele>95.0</ele><time>2026-05-03T07:48:48.999Z</time></trkpt><trkpt lat="45.27120120198713" lon="8.897412759003842"><ele>95.0</ele><time>2026-05-03T07:48:49.999Z</time></trkpt><trkpt lat="45.27106137995607" lon="8.897388613402393"><ele>95.0</ele><time>2026-05-03T07:48:50.999Z</time></trkpt><trkpt lat="45.2709155956896" lon="8.897355996338149"><ele>95.0</ele><time>2026-05-03T07:48:51.999Z</time></trkpt><trkpt lat="45.270770781525975" lon="8.89732883647377"><ele>95.0</ele><time>2026-05-03T07:48:52.999Z</time></trkpt><trkpt lat="45.27061105937226" lon="8.897282103658489"><ele>95.0</ele><time>2026-05-03T07:48:53.999Z</time></trkpt><trkpt lat="45.27045518917288" lon="8.897230940841114"><ele>96.33333333333334</ele><time>2026-05-03T07:48:54.999Z</time></trkpt><trkpt lat="45.27028437702009" lon="8.8971706182707"><ele>97.66666666666667</ele><time>2026-05-03T07:48:55.999Z</time></trkpt><trkpt lat="45.27010313939195" lon="8.897101442921594"><ele>99.0</ele><time>2026-05-03T07:48:56.999Z</time></trkpt><trkpt lat="45.269929761146415" lon="8.897035656402727"><ele>100.0</ele><time>2026-05-03T07:48:57.999Z</time></trkpt><trkpt lat="45.26974409498839" lon="8.896965247026165"><ele>101.0</ele><time>2026-05-03T07:48:58.999Z</time></trkpt><trkpt lat="45.269554156993074" lon="8.896901556440945"><ele>102.0</ele><time>2026-05-03T07:48:59.999Z</time></trkpt><trkpt lat="45.26935749706705" lon="8.896845814409106"><ele>102.0</ele><time>2026-05-03T07:49:00.999Z</time></trkpt><trkpt lat="45.26915541372343" lon="8.896771850855538"><ele>102.0</ele><time>2026-05-03T07:49:01.999Z</time></trkpt><trkpt lat="45.268942407944344" lon="8.896720508093757"><ele>102.0</ele><time>2026-05-03T07:49:02.999Z</time></trkpt><trkpt lat="45.26872826378662" lon="8.896687636470837"><ele>101.66666666666666</ele><time>2026-05-03T07:49:03.999Z</time></trkpt><trkpt lat="45.26851505989574" lon="8.896668952280386"><ele>101.33333333333333</ele><time>2026-05-03T07:49:04.999Z</time></trkpt><trkpt lat="45.26829286108722" lon="8.896668336815331"><ele>101.0</ele><time>2026-05-03T07:49:05.999Z</time></trkpt><trkpt lat="45.26806917527829" lon="8.896680419205369"><ele>101.0</ele><time>2026-05-03T07:49:07Z</time></trkpt><trkpt lat="45.26784219431935" lon="8.896711133111983"><ele>101.0</ele><time>2026-05-03T07:49:08Z</time></trkpt><trkpt lat="45.26761298733986" lon="8.896756804131927"><ele>101.5</ele><time>2026-05-03T07:49:09Z</time></trkpt><trkpt lat="45.26738841256584" lon="8.896814645849538"><ele>102.0</ele><time>2026-05-03T07:49:10Z</time></trkpt><trkpt lat="45.26716412177267" lon="8.896882564486855"><ele>102.0</ele><time>2026-05-03T07:49:11Z</time></trkpt><trkpt lat="45.26693782846721" lon="8.89696280423629"><ele>102.0</ele><time>2026-05-03T07:49:12Z</time></trkpt><trkpt lat="45.26671507305674" lon="8.897034105042797"><ele>102.0</ele><time>2026-05-03T07:49:13Z</time></trkpt><trkpt lat="45.26648640765559" lon="8.89710762153657"><ele>102.0</ele><time>2026-05-03T07:49:14Z</time></trkpt><trkpt lat="45.26625647499113" lon="8.89717857750602"><ele>102.0</ele><time>2026-05-03T07:49:15Z</time></trkpt><trkpt lat="45.266026066282954" lon="8.897249052312356"><ele>102.0</ele><time>2026-05-03T07:49:16Z</time></trkpt><trkpt lat="45.26579497828201" lon="8.897330579866782"><ele>101.0</ele><time>2026-05-03T07:49:17Z</time></trkpt><trkpt lat="45.265562144521795" lon="8.897408197803378"><ele>100.0</ele><time>2026-05-03T07:49:18Z</time></trkpt><trkpt lat="45.265330837834966" lon="8.897475101306858"><ele>100.0</ele><time>2026-05-03T07:49:19Z</time></trkpt><trkpt lat="45.26509431508515" lon="8.897555724159282"><ele>100.0</ele><time>2026-05-03T07:49:20Z</time></trkpt><trkpt lat="45.26486813865723" lon="8.8976198117335"><ele>100.5</ele><time>2026-05-03T07:49:21Z</time></trkpt><trkpt lat="45.26464310517067" lon="8.897693843980814"><ele>101.0</ele><time>2026-05-03T07:49:22Z</time></trkpt><trkpt lat="45.26441765719291" lon="8.897777406089006"><ele>101.0</ele><time>2026-05-03T07:49:23Z</time></trkpt><trkpt lat="45.26421407777502" lon="8.897814999060655"><ele>101.0</ele><time>2026-05-03T07:49:24Z</time></trkpt><trkpt lat="45.2640119060507" lon="8.89788806702845"><ele>101.0</ele><time>2026-05-03T07:49:25Z</time></trkpt><trkpt lat="45.2638375799885" lon="8.897931809783291"><ele>100.75</ele><time>2026-05-03T07:49:26Z</time></trkpt><trkpt lat="45.263691803514" lon="8.897981830409067"><ele>100.5</ele><time>2026-05-03T07:49:27Z</time></trkpt><trkpt lat="45.26356684238531" lon="8.898024468133785"><ele>100.25</ele><time>2026-05-03T07:49:28Z</time></trkpt><trkpt lat="45.26346364115484" lon="8.898032213847124"><ele>100.0</ele><time>2026-05-03T07:49:29Z</time></trkpt><trkpt lat="45.263380099950574" lon="8.89802843332327"><ele>100.0</ele><time>2026-05-03T07:49:30Z</time></trkpt><trkpt lat="45.26331547042297" lon="8.897963625710036"><ele>100.0</ele><time>2026-05-03T07:49:31Z</time></trkpt><trkpt lat="45.26327221731738" lon="8.897853308359329"><ele>100.0</ele><time>2026-05-03T07:49:32Z</time></trkpt><trkpt lat="45.263249074139765" lon="8.89770415715837"><ele>100.0</ele><time>2026-05-03T07:49:33Z</time></trkpt><trkpt lat="45.26323470135315" lon="8.897548610575399"><ele>100.0</ele><time>2026-05-03T07:49:34Z</time></trkpt><trkpt lat="45.26321000943511" lon="8.897342062018854"><ele>100.0</ele><time>2026-05-03T07:49:35Z</time></trkpt><trkpt lat="45.26317548461535" lon="8.897132445869671"><ele>100.0</ele><time>2026-05-03T07:49:36Z</time></trkpt><trkpt lat="45.26313314171717" lon="8.896897175514704"><ele>100.0</ele><time>2026-05-03T07:49:37Z</time></trkpt><trkpt lat="45.26308434222323" lon="8.896633657240764"><ele>100.0</ele><time>2026-05-03T07:49:38Z</time></trkpt><trkpt lat="45.26303664686042" lon="8.896374770150059"><ele>100.0</ele><time>2026-05-03T07:49:39Z</time></trkpt><trkpt lat="45.26297599521425" lon="8.89608480499813"><ele>100.0</ele><time>2026-05-03T07:49:40Z</time></trkpt><trkpt lat="45.26295826768755" lon="8.895783804788476"><ele>100.0</ele><time>2026-05-03T07:49:41Z</time></trkpt><trkpt lat="45.2628982880272" lon="8.89549777679014"><ele>100.0</ele><time>2026-05-03T07:49:42Z</time></trkpt><trkpt lat="45.26284225424183" lon="8.895205065813915"><ele>100.0</ele><time>2026-05-03T07:49:43Z</time></trkpt><trkpt lat="45.26278732991373" lon="8.894903900193107"><ele>100.0</ele><time>2026-05-03T07:49:44Z</time></trkpt><trkpt lat="45.26273257354095" lon="8.894603655525673"><ele>100.0</ele><time>2026-05-03T07:49:45Z</time></trkpt><trkpt lat="45.26267720171068" lon="8.894300036123772"><ele>100.0</ele><time>2026-05-03T07:49:46Z</time></trkpt><trkpt lat="45.26262474354781" lon="8.893998581636449"><ele>100.0</ele><time>2026-05-03T07:49:47Z</time></trkpt><trkpt lat="45.26257442088506" lon="8.893691404599958"><ele>100.0</ele><time>2026-05-03T07:49:48Z</time></trkpt><trkpt lat="45.26251688571952" lon="8.893371947909339"><ele>100.0</ele><time>2026-05-03T07:49:49Z</time></trkpt><trkpt lat="45.26245615464935" lon="8.89305351185729"><ele>100.0</ele><time>2026-05-03T07:49:50Z</time></trkpt><trkpt lat="45.262395491698506" lon="8.892735432982194"><ele>100.0</ele><time>2026-05-03T07:49:51Z</time></trkpt><trkpt lat="45.26233402672485" lon="8.892417660684902"><ele>100.0</ele><time>2026-05-03T07:49:52Z</time></trkpt><trkpt lat="45.26227259492067" lon="8.892102975243116"><ele>100.0</ele><time>2026-05-03T07:49:53Z</time></trkpt><trkpt lat="45.26220577059185" lon="8.891793400135429"><ele>100.0</ele><time>2026-05-03T07:49:54Z</time></trkpt><trkpt lat="45.26213804593752" lon="8.891484511926349"><ele>100.0</ele><time>2026-05-03T07:49:55Z</time></trkpt><trkpt lat="45.2620725073484" lon="8.891179578082243"><ele>100.0</ele><time>2026-05-03T07:49:56Z</time></trkpt><trkpt lat="45.26201039844331" lon="8.890880751132613"><ele>100.0</ele><time>2026-05-03T07:49:57Z</time></trkpt><trkpt lat="45.26195159386074" lon="8.890590631555645"><ele>100.0</ele><time>2026-05-03T07:49:58Z</time></trkpt><trkpt lat="45.26189507164847" lon="8.890303042457555"><ele>100.0</ele><time>2026-05-03T07:49:59Z</time></trkpt><trkpt lat="45.26184851578358" lon="8.890049691928162"><ele>100.0</ele><time>2026-05-03T07:50:00Z</time></trkpt><trkpt lat="45.261803904811735" lon="8.889788707109497"><ele>100.0</ele><time>2026-05-03T07:50:01Z</time></trkpt><trkpt lat="45.26176967497714" lon="8.889543244493785"><ele>100.0</ele><time>2026-05-03T07:50:02Z</time></trkpt><trkpt lat="45.26174121740243" lon="8.889301065828013"><ele>100.0</ele><time>2026-05-03T07:50:03Z</time></trkpt><trkpt lat="45.26171578856095" lon="8.889073180886468"><ele>100.0</ele><time>2026-05-03T07:50:04Z</time></trkpt><trkpt lat="45.26169137442266" lon="8.888848468211124"><ele>100.0</ele><time>2026-05-03T07:50:05Z</time></trkpt><trkpt lat="45.26166538221675" lon="8.888620122885763"><ele>100.0</ele><time>2026-05-03T07:50:06Z</time></trkpt><trkpt lat="45.26164047935092" lon="8.888402158781505"><ele>100.33333333333334</ele><time>2026-05-03T07:50:07Z</time></trkpt><trkpt lat="45.26161649664973" lon="8.888181330383068"><ele>100.66666666666666</ele><time>2026-05-03T07:50:08Z</time></trkpt><trkpt lat="45.26159617570889" lon="8.887969491533303"><ele>101.0</ele><time>2026-05-03T07:50:09Z</time></trkpt><trkpt lat="45.26157122777517" lon="8.887751380222955"><ele>101.25</ele><time>2026-05-03T07:50:10Z</time></trkpt><trkpt lat="45.26154628194503" lon="8.88753949465149"><ele>101.5</ele><time>2026-05-03T07:50:11Z</time></trkpt><trkpt lat="45.2615217849239" lon="8.887336127210114"><ele>101.75</ele><time>2026-05-03T07:50:12Z</time></trkpt><trkpt lat="45.26148025659964" lon="8.887138995907755"><ele>102.0</ele><time>2026-05-03T07:50:13Z</time></trkpt><trkpt lat="45.26145367334442" lon="8.886927019232123"><ele>102.0</ele><time>2026-05-03T07:50:14Z</time></trkpt><trkpt lat="45.26143648190788" lon="8.886718238340109"><ele>102.0</ele><time>2026-05-03T07:50:15Z</time></trkpt><trkpt lat="45.2613940738288" lon="8.88650142899283"><ele>102.0</ele><time>2026-05-03T07:50:16Z</time></trkpt><trkpt lat="45.26134398414947" lon="8.886280569405477"><ele>102.0</ele><time>2026-05-03T07:50:17Z</time></trkpt><trkpt lat="45.261292235910666" lon="8.88605359379065"><ele>102.0</ele><time>2026-05-03T07:50:18Z</time></trkpt><trkpt lat="45.26124781314982" lon="8.885814939001577"><ele>102.0</ele><time>2026-05-03T07:50:19Z</time></trkpt><trkpt lat="45.261215232147855" lon="8.885574269423842"><ele>102.0</ele><time>2026-05-03T07:50:20Z</time></trkpt><trkpt lat="45.26119781619916" lon="8.8853197664834"><ele>102.0</ele><time>2026-05-03T07:50:21Z</time></trkpt><trkpt lat="45.26118731604415" lon="8.885076856283899"><ele>102.0</ele><time>2026-05-03T07:50:22Z</time></trkpt><trkpt lat="45.26117992136124" lon="8.884821354242506"><ele>102.0</ele><time>2026-05-03T07:50:23Z</time></trkpt><trkpt lat="45.26117443488128" lon="8.884567020104672"><ele>102.0</ele><time>2026-05-03T07:50:24Z</time></trkpt><trkpt lat="45.2611642460247" lon="8.88429676369887"><ele>102.0</ele><time>2026-05-03T07:50:25Z</time></trkpt><trkpt lat="45.261155816866136" lon="8.884014246125425"><ele>101.66666666666666</ele><time>2026-05-03T07:50:25.999Z</time></trkpt><trkpt lat="45.2611263651699" lon="8.883728629640302"><ele>101.33333333333333</ele><time>2026-05-03T07:50:26.999Z</time></trkpt><trkpt lat="45.26109022628403" lon="8.883448488197946"><ele>101.0</ele><time>2026-05-03T07:50:27.999Z</time></trkpt><trkpt lat="45.261033433141954" lon="8.883137810715354"><ele>100.5</ele><time>2026-05-03T07:50:28.999Z</time></trkpt><trkpt lat="45.26099563635708" lon="8.882797173604274"><ele>100.0</ele><time>2026-05-03T07:50:29.999Z</time></trkpt><trkpt lat="45.26094150673549" lon="8.882445763159092"><ele>100.0</ele><time>2026-05-03T07:50:30.999Z</time></trkpt><trkpt lat="45.26088861306366" lon="8.882090780266997"><ele>100.0</ele><time>2026-05-03T07:50:31.999Z</time></trkpt><trkpt lat="45.260827578968836" lon="8.881730402305104"><ele>101.0</ele><time>2026-05-03T07:50:32.999Z</time></trkpt><trkpt lat="45.260763518677706" lon="8.881344827681179"><ele>102.0</ele><time>2026-05-03T07:50:33.999Z</time></trkpt><trkpt lat="45.26070832000226" lon="8.88097222453481"><ele>102.0</ele><time>2026-05-03T07:50:34.999Z</time></trkpt><trkpt lat="45.26064430144985" lon="8.880606352809007"><ele>102.0</ele><time>2026-05-03T07:50:35.999Z</time></trkpt><trkpt lat="45.26058052885986" lon="8.880242797782884"><ele>102.0</ele><time>2026-05-03T07:50:36.999Z</time></trkpt><trkpt lat="45.26050008842504" lon="8.879897232939214"><ele>102.0</ele><time>2026-05-03T07:50:37.999Z</time></trkpt><trkpt lat="45.26040942856843" lon="8.8795644876183"><ele>102.0</ele><time>2026-05-03T07:50:38.999Z</time></trkpt><trkpt lat="45.26033295310844" lon="8.879231703439013"><ele>102.0</ele><time>2026-05-03T07:50:39.999Z</time></trkpt><trkpt lat="45.26023581639594" lon="8.878902358503657"><ele>102.0</ele><time>2026-05-03T07:50:40.999Z</time></trkpt><trkpt lat="45.2601741627314" lon="8.878545234446852"><ele>102.0</ele><time>2026-05-03T07:50:41.999Z</time></trkpt><trkpt lat="45.26012957843721" lon="8.878178691562253"><ele>101.5</ele><time>2026-05-03T07:50:42.999Z</time></trkpt><trkpt lat="45.26005995959372" lon="8.877823015761782"><ele>101.0</ele><time>2026-05-03T07:50:43.999Z</time></trkpt><trkpt lat="45.26000236028269" lon="8.877472382007811"><ele>101.0</ele><time>2026-05-03T07:50:44.999Z</time></trkpt><trkpt lat="45.25990848869973" lon="8.877131251329569"><ele>101.0</ele><time>2026-05-03T07:50:45.999Z</time></trkpt><trkpt lat="45.25980110955732" lon="8.876800225629644"><ele>101.0</ele><time>2026-05-03T07:50:46.999Z</time></trkpt><trkpt lat="45.259698942905054" lon="8.876464593484572"><ele>101.0</ele><time>2026-05-03T07:50:47.999Z</time></trkpt><trkpt lat="45.259591615284045" lon="8.87612143738003"><ele>101.0</ele><time>2026-05-03T07:50:48.999Z</time></trkpt><trkpt lat="45.25949917405777" lon="8.875787295123404"><ele>101.0</ele><time>2026-05-03T07:50:49.999Z</time></trkpt><trkpt lat="45.25942072649063" lon="8.875452652657033"><ele>101.0</ele><time>2026-05-03T07:50:50.999Z</time></trkpt><trkpt lat="45.259348573767504" lon="8.875122966295544"><ele>101.0</ele><time>2026-05-03T07:50:51.999Z</time></trkpt><trkpt lat="45.25928127866591" lon="8.874798150324107"><ele>101.0</ele><time>2026-05-03T07:50:52.999Z</time></trkpt><trkpt lat="45.25920172065281" lon="8.874466736885923"><ele>101.0</ele><time>2026-05-03T07:50:53.999Z</time></trkpt><trkpt lat="45.25910151882979" lon="8.874129874870661"><ele>101.0</ele><time>2026-05-03T07:50:54.999Z</time></trkpt><trkpt lat="45.25899636766037" lon="8.873795645989219"><ele>101.0</ele><time>2026-05-03T07:50:55.999Z</time></trkpt><trkpt lat="45.25888840875962" lon="8.873464989575817"><ele>101.0</ele><time>2026-05-03T07:50:56.999Z</time></trkpt><trkpt lat="45.258774809057456" lon="8.873137242954405"><ele>101.0</ele><time>2026-05-03T07:50:57.999Z</time></trkpt><trkpt lat="45.25866388319611" lon="8.872822285299682"><ele>100.66666666666666</ele><time>2026-05-03T07:50:58.999Z</time></trkpt><trkpt lat="45.258576069508266" lon="8.872520569937347"><ele>100.33333333333334</ele><time>2026-05-03T07:50:59.999Z</time></trkpt><trkpt lat="45.25851233654912" lon="8.872234500368958"><ele>100.0</ele><time>2026-05-03T07:51:00.999Z</time></trkpt><trkpt lat="45.25847649423802" lon="8.871951042881498"><ele>100.0</ele><time>2026-05-03T07:51:01.999Z</time></trkpt><trkpt lat="45.25844583519252" lon="8.871664509760253"><ele>100.0</ele><time>2026-05-03T07:51:02.999Z</time></trkpt><trkpt lat="45.25840421864566" lon="8.871391469997436"><ele>100.0</ele><time>2026-05-03T07:51:03.999Z</time></trkpt><trkpt lat="45.25837669117116" lon="8.871128688482715"><ele>100.33333333333334</ele><time>2026-05-03T07:51:04.999Z</time></trkpt><trkpt lat="45.25836161340561" lon="8.870877390260576"><ele>100.66666666666666</ele><time>2026-05-03T07:51:05.999Z</time></trkpt><trkpt lat="45.25833689561118" lon="8.870646382837876"><ele>101.0</ele><time>2026-05-03T07:51:06.999Z</time></trkpt><trkpt lat="45.25831297845139" lon="8.870422858184376"><ele>101.0</ele><time>2026-05-03T07:51:07.999Z</time></trkpt><trkpt lat="45.25829071764716" lon="8.870214812817546"><ele>101.0</ele><time>2026-05-03T07:51:08.999Z</time></trkpt><trkpt lat="45.25826656556111" lon="8.870019425311117"><ele>101.0</ele><time>2026-05-03T07:51:09.999Z</time></trkpt><trkpt lat="45.2582451784551" lon="8.869834122427024"><ele>101.0</ele><time>2026-05-03T07:51:10.999Z</time></trkpt><trkpt lat="45.25822806279284" lon="8.869656763297016"><ele>101.25</ele><time>2026-05-03T07:51:11.999Z</time></trkpt><trkpt lat="45.25821753281586" lon="8.869483797772643"><ele>101.5</ele><time>2026-05-03T07:51:13Z</time></trkpt><trkpt lat="45.258209272515394" lon="8.869316142976917"><ele>101.75</ele><time>2026-05-03T07:51:14Z</time></trkpt><trkpt lat="45.2582022685009" lon="8.869156268771809"><ele>102.0</ele><time>2026-05-03T07:51:15Z</time></trkpt><trkpt lat="45.25817904301622" lon="8.868993053053789"><ele>102.39999999999999</ele><time>2026-05-03T07:51:16Z</time></trkpt><trkpt lat="45.258185958925935" lon="8.868850546553857"><ele>102.8</ele><time>2026-05-03T07:51:17Z</time></trkpt><trkpt lat="45.25818625772871" lon="8.868731101412218"><ele>103.2</ele><time>2026-05-03T07:51:18Z</time></trkpt><trkpt lat="45.25820954010045" lon="8.868588442423151"><ele>103.6</ele><time>2026-05-03T07:51:20Z</time></trkpt><trkpt lat="45.25829895109186" lon="8.868468696111062"><ele>104.0</ele><time>2026-05-03T07:51:22Z</time></trkpt><trkpt lat="45.258275631403144" lon="8.868300614443033"><ele>104.16666666666666</ele><time>2026-05-03T07:51:24Z</time></trkpt><trkpt lat="45.25820250641134" lon="8.868279031230578"><ele>104.33333333333333</ele><time>2026-05-03T07:51:25Z</time></trkpt><trkpt lat="45.25812575117592" lon="8.868308956947029"><ele>104.5</ele><time>2026-05-03T07:51:26Z</time></trkpt><trkpt lat="45.258070793363295" lon="8.868395187813457"><ele>104.66666666666666</ele><time>2026-05-03T07:51:27Z</time></trkpt><trkpt lat="45.257982655569066" lon="8.868410212659631"><ele>104.83333333333333</ele><time>2026-05-03T07:51:28Z</time></trkpt><trkpt lat="45.25786826771358" lon="8.86846546427364"><ele>105.0</ele><time>2026-05-03T07:51:29Z</time></trkpt><trkpt lat="45.25775486585711" lon="8.868478690349574"><ele>104.5</ele><time>2026-05-03T07:51:30Z</time></trkpt><trkpt lat="45.25762425975913" lon="8.86850350691833"><ele>104.0</ele><time>2026-05-03T07:51:31Z</time></trkpt><trkpt lat="45.25748804256126" lon="8.86852635385275"><ele>103.5</ele><time>2026-05-03T07:51:32Z</time></trkpt><trkpt lat="45.257351099809995" lon="8.868556151711973"><ele>103.0</ele><time>2026-05-03T07:51:33Z</time></trkpt><trkpt lat="45.25721183465796" lon="8.86859914587371"><ele>103.0</ele><time>2026-05-03T07:51:34Z</time></trkpt><trkpt lat="45.25706829730149" lon="8.86863949493158"><ele>103.0</ele><time>2026-05-03T07:51:35Z</time></trkpt><trkpt lat="45.25691493447403" lon="8.868684200763974"><ele>103.0</ele><time>2026-05-03T07:51:36Z</time></trkpt><trkpt lat="45.25676050087191" lon="8.868681691208376"><ele>103.0</ele><time>2026-05-03T07:51:37Z</time></trkpt><trkpt lat="45.25659533803382" lon="8.868714385882884"><ele>103.0</ele><time>2026-05-03T07:51:38Z</time></trkpt><trkpt lat="45.256427550326215" lon="8.86875389105987"><ele>103.0</ele><time>2026-05-03T07:51:39Z</time></trkpt><trkpt lat="45.25626118538317" lon="8.868789618876988"><ele>103.33333333333334</ele><time>2026-05-03T07:51:40Z</time></trkpt><trkpt lat="45.256081667765436" lon="8.868836775525454"><ele>103.66666666666666</ele><time>2026-05-03T07:51:41Z</time></trkpt><trkpt lat="45.255901027305754" lon="8.868891078321704"><ele>104.0</ele><time>2026-05-03T07:51:42Z</time></trkpt><trkpt lat="45.255723143313396" lon="8.86893121985833"><ele>104.0</ele><time>2026-05-03T07:51:43Z</time></trkpt><trkpt lat="45.255537490704505" lon="8.868981068774715"><ele>104.0</ele><time>2026-05-03T07:51:44Z</time></trkpt><trkpt lat="45.255361171435354" lon="8.869016744390233"><ele>104.0</ele><time>2026-05-03T07:51:45Z</time></trkpt><trkpt lat="45.255184324822835" lon="8.869062976201647"><ele>104.0</ele><time>2026-05-03T07:51:46Z</time></trkpt><trkpt lat="45.255003865913835" lon="8.869121354976091"><ele>104.0</ele><time>2026-05-03T07:51:47Z</time></trkpt><trkpt lat="45.25482520006419" lon="8.869176904376179"><ele>104.0</ele><time>2026-05-03T07:51:48Z</time></trkpt><trkpt lat="45.254639505524146" lon="8.86923388461022"><ele>104.33333333333333</ele><time>2026-05-03T07:51:49Z</time></trkpt><trkpt lat="45.254459534782626" lon="8.869263570057997"><ele>104.66666666666666</ele><time>2026-05-03T07:51:50Z</time></trkpt><trkpt lat="45.25427852291295" lon="8.86929675259495"><ele>105.0</ele><time>2026-05-03T07:51:51Z</time></trkpt><trkpt lat="45.25409704882059" lon="8.869307899151712"><ele>104.33333333333334</ele><time>2026-05-03T07:51:52Z</time></trkpt><trkpt lat="45.25391537389004" lon="8.86930133993237"><ele>103.66666666666667</ele><time>2026-05-03T07:51:53Z</time></trkpt><trkpt lat="45.2537456244274" lon="8.869270561689525"><ele>103.0</ele><time>2026-05-03T07:51:54Z</time></trkpt><trkpt lat="45.25357900456239" lon="8.869243497978314"><ele>102.66666666666667</ele><time>2026-05-03T07:51:55Z</time></trkpt><trkpt lat="45.25342627441735" lon="8.869184726502992"><ele>102.33333333333334</ele><time>2026-05-03T07:51:56Z</time></trkpt><trkpt lat="45.253280720463756" lon="8.869112229347328"><ele>102.0</ele><time>2026-05-03T07:51:57Z</time></trkpt><trkpt lat="45.25314012764984" lon="8.869057436336021"><ele>102.0</ele><time>2026-05-03T07:51:58Z</time></trkpt><trkpt lat="45.25300859712811" lon="8.868980703574515"><ele>102.0</ele><time>2026-05-03T07:51:59Z</time></trkpt><trkpt lat="45.25287767913471" lon="8.868906350551558"><ele>102.0</ele><time>2026-05-03T07:52:00Z</time></trkpt><trkpt lat="45.252761778863174" lon="8.868821744146375"><ele>102.0</ele><time>2026-05-03T07:52:01Z</time></trkpt><trkpt lat="45.25264371787103" lon="8.868731946507442"><ele>102.0</ele><time>2026-05-03T07:52:02Z</time></trkpt><trkpt lat="45.25253081625101" lon="8.868619612383505"><ele>102.0</ele><time>2026-05-03T07:52:03Z</time></trkpt><trkpt lat="45.252415883964794" lon="8.868509839967896"><ele>102.0</ele><time>2026-05-03T07:52:04Z</time></trkpt><trkpt lat="45.25230347566815" lon="8.868386810017816"><ele>102.0</ele><time>2026-05-03T07:52:05Z</time></trkpt><trkpt lat="45.25220090434347" lon="8.868245188224503"><ele>101.25</ele><time>2026-05-03T07:52:06Z</time></trkpt><trkpt lat="45.252092762798085" lon="8.868109666127213"><ele>100.5</ele><time>2026-05-03T07:52:07Z</time></trkpt><trkpt lat="45.25199506757614" lon="8.867959862447877"><ele>99.75</ele><time>2026-05-03T07:52:08Z</time></trkpt><trkpt lat="45.251888889162664" lon="8.867809068150278"><ele>99.0</ele><time>2026-05-03T07:52:09Z</time></trkpt><trkpt lat="45.25179612888126" lon="8.867639129901564"><ele>99.33333333333334</ele><time>2026-05-03T07:52:10Z</time></trkpt><trkpt lat="45.25169493691271" lon="8.867462839884366"><ele>99.66666666666667</ele><time>2026-05-03T07:52:11Z</time></trkpt><trkpt lat="45.25159156626125" lon="8.867289197068974"><ele>100.0</ele><time>2026-05-03T07:52:12Z</time></trkpt><trkpt lat="45.25147953938876" lon="8.867111105870853"><ele>100.0</ele><time>2026-05-03T07:52:13Z</time></trkpt><trkpt lat="45.25134524484007" lon="8.866920578316861"><ele>100.0</ele><time>2026-05-03T07:52:14Z</time></trkpt><trkpt lat="45.25122029084528" lon="8.866714536596954"><ele>100.0</ele><time>2026-05-03T07:52:15Z</time></trkpt><trkpt lat="45.25108646779534" lon="8.866492953154403"><ele>100.0</ele><time>2026-05-03T07:52:16Z</time></trkpt><trkpt lat="45.25095903339584" lon="8.866267413185708"><ele>100.0</ele><time>2026-05-03T07:52:17Z</time></trkpt><trkpt lat="45.25082484714507" lon="8.866040265264727"><ele>100.0</ele><time>2026-05-03T07:52:18Z</time></trkpt><trkpt lat="45.25067867943009" lon="8.865816444881599"><ele>99.66666666666667</ele><time>2026-05-03T07:52:19Z</time></trkpt><trkpt lat="45.25053687692671" lon="8.86559398313897"><ele>99.33333333333334</ele><time>2026-05-03T07:52:20Z</time></trkpt><trkpt lat="45.25039177016617" lon="8.865368474010507"><ele>99.0</ele><time>2026-05-03T07:52:21Z</time></trkpt><trkpt lat="45.25025468334319" lon="8.865144711599797"><ele>99.0</ele><time>2026-05-03T07:52:22Z</time></trkpt><trkpt lat="45.250113143605276" lon="8.864918067531267"><ele>99.0</ele><time>2026-05-03T07:52:23Z</time></trkpt><trkpt lat="45.24997326296235" lon="8.864696209118145"><ele>99.0</ele><time>2026-05-03T07:52:24Z</time></trkpt><trkpt lat="45.24984045534042" lon="8.864478170223116"><ele>98.33333333333334</ele><time>2026-05-03T07:52:25Z</time></trkpt><trkpt lat="45.24970210342297" lon="8.864258041998147"><ele>97.66666666666667</ele><time>2026-05-03T07:52:26Z</time></trkpt><trkpt lat="45.24957126018708" lon="8.864048961153705"><ele>97.0</ele><time>2026-05-03T07:52:27Z</time></trkpt><trkpt lat="45.24942445155883" lon="8.863847594199633"><ele>97.0</ele><time>2026-05-03T07:52:28Z</time></trkpt><trkpt lat="45.24926984915767" lon="8.86366377441847"><ele>97.0</ele><time>2026-05-03T07:52:28.999Z</time></trkpt><trkpt lat="45.24909954064713" lon="8.86352401874081"><ele>97.0</ele><time>2026-05-03T07:52:29.999Z</time></trkpt><trkpt lat="45.24893671694921" lon="8.863410504066808"><ele>97.0</ele><time>2026-05-03T07:52:30.999Z</time></trkpt><trkpt lat="45.24877906750541" lon="8.863323401278393"><ele>97.0</ele><time>2026-05-03T07:52:31.999Z</time></trkpt><trkpt lat="45.248625953732315" lon="8.86325722548723"><ele>97.0</ele><time>2026-05-03T07:52:32.999Z</time></trkpt><trkpt lat="45.24845486180891" lon="8.863224707842523"><ele>97.0</ele><time>2026-05-03T07:52:33.999Z</time></trkpt><trkpt lat="45.24827217371334" lon="8.86321637425356"><ele>97.0</ele><time>2026-05-03T07:52:34.999Z</time></trkpt><trkpt lat="45.24808150003916" lon="8.86323462812255"><ele>97.0</ele><time>2026-05-03T07:52:35.999Z</time></trkpt><trkpt lat="45.247882434488325" lon="8.863250163778025"><ele>97.33333333333334</ele><time>2026-05-03T07:52:36.999Z</time></trkpt><trkpt lat="45.247673272248036" lon="8.863286868449391"><ele>97.66666666666666</ele><time>2026-05-03T07:52:37.999Z</time></trkpt><trkpt lat="45.247456620154075" lon="8.863324597737108"><ele>98.0</ele><time>2026-05-03T07:52:38.999Z</time></trkpt><trkpt lat="45.24723058655833" lon="8.863365095485952"><ele>98.5</ele><time>2026-05-03T07:52:39.999Z</time></trkpt><trkpt lat="45.24700118029174" lon="8.863408471189226"><ele>99.0</ele><time>2026-05-03T07:52:40.999Z</time></trkpt><trkpt lat="45.24676764958601" lon="8.863452379480936"><ele>98.0</ele><time>2026-05-03T07:52:41.999Z</time></trkpt><trkpt lat="45.24652438212778" lon="8.863496227684113"><ele>97.0</ele><time>2026-05-03T07:52:42.999Z</time></trkpt><trkpt lat="45.246274219584464" lon="8.863541579111672"><ele>97.0</ele><time>2026-05-03T07:52:43.999Z</time></trkpt><trkpt lat="45.246013362897735" lon="8.863589030455321"><ele>97.0</ele><time>2026-05-03T07:52:44.999Z</time></trkpt><trkpt lat="45.24575618718565" lon="8.863635812215984"><ele>97.0</ele><time>2026-05-03T07:52:45.999Z</time></trkpt><trkpt lat="45.245495573571255" lon="8.86368321934509"><ele>97.0</ele><time>2026-05-03T07:52:46.999Z</time></trkpt><trkpt lat="45.24523217739251" lon="8.863731132638872"><ele>97.0</ele><time>2026-05-03T07:52:47.999Z</time></trkpt><trkpt lat="45.24496596956875" lon="8.863779680982287"><ele>97.0</ele><time>2026-05-03T07:52:48.999Z</time></trkpt><trkpt lat="45.244703205761446" lon="8.863833719564498"><ele>98.5</ele><time>2026-05-03T07:52:49.999Z</time></trkpt><trkpt lat="45.24444029384555" lon="8.863894721003513"><ele>100.0</ele><time>2026-05-03T07:52:50.999Z</time></trkpt><trkpt lat="45.24417856262121" lon="8.863966592028397"><ele>99.5</ele><time>2026-05-03T07:52:51.999Z</time></trkpt><trkpt lat="45.24391835734867" lon="8.86404402050074"><ele>99.0</ele><time>2026-05-03T07:52:52.999Z</time></trkpt><trkpt lat="45.24365449438867" lon="8.86411815178377"><ele>99.0</ele><time>2026-05-03T07:52:53.999Z</time></trkpt><trkpt lat="45.24338964260703" lon="8.864192558912606"><ele>99.0</ele><time>2026-05-03T07:52:54.999Z</time></trkpt><trkpt lat="45.24312367287411" lon="8.864267280119066"><ele>98.5</ele><time>2026-05-03T07:52:55.999Z</time></trkpt><trkpt lat="45.24285668488806" lon="8.864343542779134"><ele>98.0</ele><time>2026-05-03T07:52:56.999Z</time></trkpt><trkpt lat="45.24257529432619" lon="8.864424202409548"><ele>97.5</ele><time>2026-05-03T07:52:57.999Z</time></trkpt><trkpt lat="45.242286319043046" lon="8.864507036176292"><ele>97.0</ele><time>2026-05-03T07:52:58.999Z</time></trkpt><trkpt lat="45.2419848086197" lon="8.864593463095698"><ele>97.0</ele><time>2026-05-03T07:52:59.999Z</time></trkpt><trkpt lat="45.241679101449115" lon="8.864681102899382"><ele>97.0</ele><time>2026-05-03T07:53:00.999Z</time></trkpt><trkpt lat="45.241373052773675" lon="8.864768848350032"><ele>96.5</ele><time>2026-05-03T07:53:01.999Z</time></trkpt><trkpt lat="45.241073822882576" lon="8.864854638826614"><ele>96.0</ele><time>2026-05-03T07:53:02.999Z</time></trkpt><trkpt lat="45.24077406253691" lon="8.864940581383655"><ele>96.5</ele><time>2026-05-03T07:53:03.999Z</time></trkpt><trkpt lat="45.24046464463553" lon="8.865029292800628"><ele>97.0</ele><time>2026-05-03T07:53:04.999Z</time></trkpt><trkpt lat="45.240148804066486" lon="8.865120584374864"><ele>97.0</ele><time>2026-05-03T07:53:05.999Z</time></trkpt><trkpt lat="45.23981560124364" lon="8.865217675283555"><ele>97.0</ele><time>2026-05-03T07:53:06.999Z</time></trkpt><trkpt lat="45.239491638406506" lon="8.865312073776918"><ele>97.0</ele><time>2026-05-03T07:53:07.999Z</time></trkpt><trkpt lat="45.239152815357095" lon="8.86541139687365"><ele>97.0</ele><time>2026-05-03T07:53:08.999Z</time></trkpt><trkpt lat="45.238814741854625" lon="8.865511331451605"><ele>97.0</ele><time>2026-05-03T07:53:09.999Z</time></trkpt><trkpt lat="45.23846635455515" lon="8.865611416013293"><ele>97.0</ele><time>2026-05-03T07:53:10.999Z</time></trkpt><trkpt lat="45.23810283185939" lon="8.865714523667188"><ele>97.0</ele><time>2026-05-03T07:53:11.999Z</time></trkpt><trkpt lat="45.23772572157308" lon="8.865823856193366"><ele>97.0</ele><time>2026-05-03T07:53:12.999Z</time></trkpt><trkpt lat="45.23734021525273" lon="8.865935966633916"><ele>97.0</ele><time>2026-05-03T07:53:13.999Z</time></trkpt><trkpt lat="45.23694590691443" lon="8.866050638401564"><ele>97.0</ele><time>2026-05-03T07:53:14.999Z</time></trkpt><trkpt lat="45.23655593415289" lon="8.866215654907437"><ele>96.5</ele><time>2026-05-03T07:53:15.999Z</time></trkpt><trkpt lat="45.236149858305566" lon="8.866342875091496"><ele>96.0</ele><time>2026-05-03T07:53:16.999Z</time></trkpt><trkpt lat="45.23575166892868" lon="8.866469336333047"><ele>96.0</ele><time>2026-05-03T07:53:17.999Z</time></trkpt><trkpt lat="45.23535231517056" lon="8.866599085968003"><ele>96.0</ele><time>2026-05-03T07:53:19Z</time></trkpt><trkpt lat="45.234963446925015" lon="8.866690361471598"><ele>96.5</ele><time>2026-05-03T07:53:20Z</time></trkpt><trkpt lat="45.23457621981516" lon="8.866794649908343"><ele>97.0</ele><time>2026-05-03T07:53:21Z</time></trkpt><trkpt lat="45.23418121122985" lon="8.866916145435274"><ele>97.5</ele><time>2026-05-03T07:53:22Z</time></trkpt><trkpt lat="45.23379832563808" lon="8.867023591576208"><ele>98.0</ele><time>2026-05-03T07:53:23Z</time></trkpt><trkpt lat="45.23344066932566" lon="8.867110315392813"><ele>97.5</ele><time>2026-05-03T07:53:24Z</time></trkpt><trkpt lat="45.23310206214408" lon="8.867207096197037"><ele>97.0</ele><time>2026-05-03T07:53:25Z</time></trkpt><trkpt lat="45.232788104903754" lon="8.867274523617471"><ele>97.0</ele><time>2026-05-03T07:53:26Z</time></trkpt><trkpt lat="45.23247582637084" lon="8.867347225885574"><ele>97.0</ele><time>2026-05-03T07:53:27Z</time></trkpt><trkpt lat="45.23216154172303" lon="8.867446179013738"><ele>97.0</ele><time>2026-05-03T07:53:28Z</time></trkpt><trkpt lat="45.23184797233401" lon="8.86753458226433"><ele>97.0</ele><time>2026-05-03T07:53:29Z</time></trkpt><trkpt lat="45.23153503681507" lon="8.867631599969572"><ele>96.0</ele><time>2026-05-03T07:53:30Z</time></trkpt><trkpt lat="45.23121787809835" lon="8.867736485427713"><ele>95.0</ele><time>2026-05-03T07:53:31Z</time></trkpt><trkpt lat="45.2309030153398" lon="8.867826584187325"><ele>95.5</ele><time>2026-05-03T07:53:32Z</time></trkpt><trkpt lat="45.23058607087385" lon="8.867936585832796"><ele>96.0</ele><time>2026-05-03T07:53:33Z</time></trkpt><trkpt lat="45.23027165761371" lon="8.868013795088043"><ele>96.0</ele><time>2026-05-03T07:53:34Z</time></trkpt><trkpt lat="45.22995232627407" lon="8.868105350254947"><ele>96.0</ele><time>2026-05-03T07:53:35Z</time></trkpt><trkpt lat="45.22963663382223" lon="8.86819192334275"><ele>96.5</ele><time>2026-05-03T07:53:36Z</time></trkpt><trkpt lat="45.22932353733674" lon="8.86827320439306"><ele>97.0</ele><time>2026-05-03T07:53:37Z</time></trkpt><trkpt lat="45.22900882877546" lon="8.868370790036163"><ele>97.5</ele><time>2026-05-03T07:53:38Z</time></trkpt><trkpt lat="45.228698019425956" lon="8.86846275400206"><ele>98.0</ele><time>2026-05-03T07:53:39Z</time></trkpt><trkpt lat="45.22838821143152" lon="8.868539657414422"><ele>97.5</ele><time>2026-05-03T07:53:40Z</time></trkpt><trkpt lat="45.22808529632765" lon="8.868618845986083"><ele>97.0</ele><time>2026-05-03T07:53:41Z</time></trkpt><trkpt lat="45.227787823886366" lon="8.868699488973903"><ele>97.0</ele><time>2026-05-03T07:53:42Z</time></trkpt><trkpt lat="45.227497094486786" lon="8.868756001120895"><ele>97.0</ele><time>2026-05-03T07:53:43Z</time></trkpt><trkpt lat="45.22720777000641" lon="8.8687922922548"><ele>97.0</ele><time>2026-05-03T07:53:44Z</time></trkpt><trkpt lat="45.22692091000396" lon="8.868799612185272"><ele>97.0</ele><time>2026-05-03T07:53:45Z</time></trkpt><trkpt lat="45.226637531327384" lon="8.868780224247978"><ele>96.5</ele><time>2026-05-03T07:53:46Z</time></trkpt><trkpt lat="45.22635296809151" lon="8.868729826922143"><ele>96.0</ele><time>2026-05-03T07:53:47Z</time></trkpt><trkpt lat="45.226067837695645" lon="8.868662830444359"><ele>96.0</ele><time>2026-05-03T07:53:48Z</time></trkpt><trkpt lat="45.225784115430045" lon="8.868561864756792"><ele>96.0</ele><time>2026-05-03T07:53:49Z</time></trkpt><trkpt lat="45.225503386945185" lon="8.86843399707607"><ele>96.0</ele><time>2026-05-03T07:53:50Z</time></trkpt><trkpt lat="45.22521973906475" lon="8.868283485577827"><ele>96.0</ele><time>2026-05-03T07:53:51Z</time></trkpt><trkpt lat="45.22494835009583" lon="8.868101049279222"><ele>95.5</ele><time>2026-05-03T07:53:52Z</time></trkpt><trkpt lat="45.22467437448966" lon="8.867907501832123"><ele>95.0</ele><time>2026-05-03T07:53:53Z</time></trkpt><trkpt lat="45.22440405024122" lon="8.867661140110311"><ele>95.0</ele><time>2026-05-03T07:53:54Z</time></trkpt><trkpt lat="45.22413009624201" lon="8.867383725058271"><ele>95.0</ele><time>2026-05-03T07:53:55Z</time></trkpt><trkpt lat="45.22386495915733" lon="8.867062169335338"><ele>95.0</ele><time>2026-05-03T07:53:56Z</time></trkpt><trkpt lat="45.223602905823626" lon="8.866725488404454"><ele>95.0</ele><time>2026-05-03T07:53:57Z</time></trkpt><trkpt lat="45.22333663726895" lon="8.866370400300132"><ele>95.0</ele><time>2026-05-03T07:53:58Z</time></trkpt><trkpt lat="45.22306893367589" lon="8.866019660782937"><ele>95.0</ele><time>2026-05-03T07:53:59Z</time></trkpt><trkpt lat="45.2228044743477" lon="8.865668050587319"><ele>95.0</ele><time>2026-05-03T07:54:00Z</time></trkpt><trkpt lat="45.22254189508403" lon="8.865323718198159"><ele>95.0</ele><time>2026-05-03T07:54:01Z</time></trkpt><trkpt lat="45.2222744641837" lon="8.864987267159634"><ele>95.5</ele><time>2026-05-03T07:54:02Z</time></trkpt><trkpt lat="45.222005583617914" lon="8.864648093363446"><ele>96.0</ele><time>2026-05-03T07:54:03Z</time></trkpt><trkpt lat="45.221748762954206" lon="8.86431400356694"><ele>95.5</ele><time>2026-05-03T07:54:04Z</time></trkpt><trkpt lat="45.22151022092805" lon="8.86399234457523"><ele>95.0</ele><time>2026-05-03T07:54:05Z</time></trkpt><trkpt lat="45.221266257813426" lon="8.863676002571752"><ele>95.0</ele><time>2026-05-03T07:54:06Z</time></trkpt><trkpt lat="45.221021552711136" lon="8.863372690897668"><ele>95.0</ele><time>2026-05-03T07:54:07Z</time></trkpt><trkpt lat="45.22078196941222" lon="8.863070058051663"><ele>95.0</ele><time>2026-05-03T07:54:08Z</time></trkpt><trkpt lat="45.22053676477668" lon="8.862774409537378"><ele>95.0</ele><time>2026-05-03T07:54:09Z</time></trkpt><trkpt lat="45.220305296214" lon="8.862472529834356"><ele>94.5</ele><time>2026-05-03T07:54:10Z</time></trkpt><trkpt lat="45.22007245927593" lon="8.86217374587186"><ele>94.0</ele><time>2026-05-03T07:54:11Z</time></trkpt><trkpt lat="45.219836456588794" lon="8.861874000790205"><ele>94.0</ele><time>2026-05-03T07:54:12Z</time></trkpt><trkpt lat="45.21959644617048" lon="8.86156986335014"><ele>94.0</ele><time>2026-05-03T07:54:13Z</time></trkpt><trkpt lat="45.21937149621502" lon="8.861264069665118"><ele>94.0</ele><time>2026-05-03T07:54:14Z</time></trkpt><trkpt lat="45.219138510278555" lon="8.860962751434126"><ele>94.0</ele><time>2026-05-03T07:54:15Z</time></trkpt><trkpt lat="45.21891537272985" lon="8.86066339217343"><ele>94.0</ele><time>2026-05-03T07:54:16Z</time></trkpt><trkpt lat="45.21868399435971" lon="8.860364275861638"><ele>94.0</ele><time>2026-05-03T07:54:17Z</time></trkpt><trkpt lat="45.21845518684985" lon="8.860070182981902"><ele>94.0</ele><time>2026-05-03T07:54:18Z</time></trkpt><trkpt lat="45.21822226639773" lon="8.859787380767184"><ele>94.0</ele><time>2026-05-03T07:54:19Z</time></trkpt><trkpt lat="45.21799621213512" lon="8.859491173279734"><ele>94.0</ele><time>2026-05-03T07:54:20Z</time></trkpt><trkpt lat="45.21777158424664" lon="8.8592003894715"><ele>94.0</ele><time>2026-05-03T07:54:21Z</time></trkpt><trkpt lat="45.21755062708912" lon="8.858919638729077"><ele>94.0</ele><time>2026-05-03T07:54:22Z</time></trkpt><trkpt lat="45.21734996522538" lon="8.858642732411282"><ele>94.0</ele><time>2026-05-03T07:54:23Z</time></trkpt><trkpt lat="45.21715433110335" lon="8.8583822874823"><ele>95.0</ele><time>2026-05-03T07:54:24Z</time></trkpt><trkpt lat="45.21696089406323" lon="8.858129432981983"><ele>96.0</ele><time>2026-05-03T07:54:25Z</time></trkpt><trkpt lat="45.21676200101966" lon="8.857871907338764"><ele>96.0</ele><time>2026-05-03T07:54:26Z</time></trkpt><trkpt lat="45.216573884144445" lon="8.857617621165844"><ele>96.0</ele><time>2026-05-03T07:54:27Z</time></trkpt><trkpt lat="45.21637977093977" lon="8.85736671865699"><ele>96.0</ele><time>2026-05-03T07:54:28Z</time></trkpt><trkpt lat="45.21620033671466" lon="8.857094343008022"><ele>96.0</ele><time>2026-05-03T07:54:28.999Z</time></trkpt><trkpt lat="45.21601640657197" lon="8.856859789478031"><ele>96.0</ele><time>2026-05-03T07:54:29.999Z</time></trkpt><trkpt lat="45.21582389244451" lon="8.856670396143105"><ele>96.0</ele><time>2026-05-03T07:54:30.999Z</time></trkpt><trkpt lat="45.215621908406945" lon="8.856505985354406"><ele>95.66666666666667</ele><time>2026-05-03T07:54:31.999Z</time></trkpt><trkpt lat="45.21542382629016" lon="8.85635929365963"><ele>95.33333333333334</ele><time>2026-05-03T07:54:32.999Z</time></trkpt><trkpt lat="45.21520981405116" lon="8.856274673847196"><ele>95.0</ele><time>2026-05-03T07:54:33.999Z</time></trkpt><trkpt lat="45.214996464734654" lon="8.85624388467399"><ele>95.0</ele><time>2026-05-03T07:54:34.999Z</time></trkpt><trkpt lat="45.21478128884236" lon="8.856231846973326"><ele>95.0</ele><time>2026-05-03T07:54:35.999Z</time></trkpt><trkpt lat="45.21455856056648" lon="8.85623817728218"><ele>95.0</ele><time>2026-05-03T07:54:36.999Z</time></trkpt><trkpt lat="45.214345380584795" lon="8.856317150910476"><ele>95.0</ele><time>2026-05-03T07:54:37.999Z</time></trkpt><trkpt lat="45.21412490872454" lon="8.856406138806873"><ele>95.0</ele><time>2026-05-03T07:54:38.999Z</time></trkpt><trkpt lat="45.21392796433046" lon="8.856530889361302"><ele>95.0</ele><time>2026-05-03T07:54:39.999Z</time></trkpt><trkpt lat="45.21374162194751" lon="8.85669896002501"><ele>95.0</ele><time>2026-05-03T07:54:40.999Z</time></trkpt><trkpt lat="45.2135611308293" lon="8.856922930720863"><ele>95.0</ele><time>2026-05-03T07:54:41.999Z</time></trkpt><trkpt lat="45.213395608240674" lon="8.857149301832116"><ele>95.0</ele><time>2026-05-03T07:54:42.999Z</time></trkpt><trkpt lat="45.21325176187762" lon="8.857395826448688"><ele>95.0</ele><time>2026-05-03T07:54:43.999Z</time></trkpt><trkpt lat="45.21309870813203" lon="8.857644440961188"><ele>95.0</ele><time>2026-05-03T07:54:44.999Z</time></trkpt><trkpt lat="45.212930220393645" lon="8.857924622900269"><ele>95.0</ele><time>2026-05-03T07:54:45.999Z</time></trkpt><trkpt lat="45.21274063460665" lon="8.858165440533451"><ele>95.0</ele><time>2026-05-03T07:54:46.999Z</time></trkpt><trkpt lat="45.212557347039755" lon="8.858358684921766"><ele>95.0</ele><time>2026-05-03T07:54:47.999Z</time></trkpt><trkpt lat="45.21236568303609" lon="8.858526466145685"><ele>94.5</ele><time>2026-05-03T07:54:48.999Z</time></trkpt><trkpt lat="45.212159574140664" lon="8.858673634201844"><ele>94.0</ele><time>2026-05-03T07:54:49.999Z</time></trkpt><trkpt lat="45.21194733243887" lon="8.858773127406502"><ele>94.0</ele><time>2026-05-03T07:54:50.999Z</time></trkpt><trkpt lat="45.21172393394035" lon="8.858879855805123"><ele>94.0</ele><time>2026-05-03T07:54:51.999Z</time></trkpt><trkpt lat="45.21149684373363" lon="8.858909342230575"><ele>94.0</ele><time>2026-05-03T07:54:52.999Z</time></trkpt><trkpt lat="45.211259450943146" lon="8.858944484287266"><ele>94.0</ele><time>2026-05-03T07:54:53.999Z</time></trkpt><trkpt lat="45.21100591951736" lon="8.858956458057847"><ele>94.0</ele><time>2026-05-03T07:54:54.999Z</time></trkpt><trkpt lat="45.21074599919847" lon="8.85898226607712"><ele>94.0</ele><time>2026-05-03T07:54:55.999Z</time></trkpt><trkpt lat="45.21047993244935" lon="8.8590105920434"><ele>95.0</ele><time>2026-05-03T07:54:56.999Z</time></trkpt><trkpt lat="45.21021233758815" lon="8.859046277074103"><ele>96.0</ele><time>2026-05-03T07:54:57.999Z</time></trkpt><trkpt lat="45.20996211822163" lon="8.859119844693483"><ele>97.5</ele><time>2026-05-03T07:54:58.999Z</time></trkpt><trkpt lat="45.20971137112412" lon="8.859163494989325"><ele>99.0</ele><time>2026-05-03T07:54:59.999Z</time></trkpt><trkpt lat="45.20947794508971" lon="8.85925817974649"><ele>97.0</ele><time>2026-05-03T07:55:00.999Z</time></trkpt><trkpt lat="45.20925048639773" lon="8.859333053172483"><ele>95.0</ele><time>2026-05-03T07:55:01.999Z</time></trkpt><trkpt lat="45.20903287559057" lon="8.859411983066556"><ele>95.0</ele><time>2026-05-03T07:55:02.999Z</time></trkpt><trkpt lat="45.20882073643175" lon="8.859503261362917"><ele>95.0</ele><time>2026-05-03T07:55:03.999Z</time></trkpt><trkpt lat="45.20859567243787" lon="8.859632101865799"><ele>95.0</ele><time>2026-05-03T07:55:04.999Z</time></trkpt><trkpt lat="45.20837732463068" lon="8.859761124209735"><ele>95.0</ele><time>2026-05-03T07:55:05.999Z</time></trkpt><trkpt lat="45.208162380619" lon="8.859906690750226"><ele>95.0</ele><time>2026-05-03T07:55:06.999Z</time></trkpt><trkpt lat="45.207950212665665" lon="8.860062416156973"><ele>95.0</ele><time>2026-05-03T07:55:07.999Z</time></trkpt><trkpt lat="45.207738715351205" lon="8.860240039028206"><ele>95.0</ele><time>2026-05-03T07:55:08.999Z</time></trkpt><trkpt lat="45.20752646311989" lon="8.860432734216378"><ele>95.0</ele><time>2026-05-03T07:55:09.999Z</time></trkpt><trkpt lat="45.20731985826025" lon="8.860629213695994"><ele>95.0</ele><time>2026-05-03T07:55:10.999Z</time></trkpt><trkpt lat="45.2071137382956" lon="8.860856170468681"><ele>95.0</ele><time>2026-05-03T07:55:11.999Z</time></trkpt><trkpt lat="45.20691991686137" lon="8.86109061988255"><ele>95.0</ele><time>2026-05-03T07:55:12.999Z</time></trkpt><trkpt lat="45.20671334006131" lon="8.861321499166934"><ele>95.0</ele><time>2026-05-03T07:55:13.999Z</time></trkpt><trkpt lat="45.20652558265476" lon="8.86158039860159"><ele>94.5</ele><time>2026-05-03T07:55:14.999Z</time></trkpt><trkpt lat="45.206352331318335" lon="8.861856642500511"><ele>94.0</ele><time>2026-05-03T07:55:15.999Z</time></trkpt><trkpt lat="45.20617527187753" lon="8.862133823963353"><ele>94.0</ele><time>2026-05-03T07:55:16.999Z</time></trkpt><trkpt lat="45.206012445823724" lon="8.862400856584316"><ele>94.0</ele><time>2026-05-03T07:55:17.999Z</time></trkpt><trkpt lat="45.20586117348691" lon="8.862676445394278"><ele>94.0</ele><time>2026-05-03T07:55:18.999Z</time></trkpt><trkpt lat="45.20571571490939" lon="8.862945104370315"><ele>94.0</ele><time>2026-05-03T07:55:19.999Z</time></trkpt><trkpt lat="45.205572583353636" lon="8.863203974042332"><ele>93.0</ele><time>2026-05-03T07:55:20.999Z</time></trkpt><trkpt lat="45.20543398199531" lon="8.863440669187675"><ele>92.0</ele><time>2026-05-03T07:55:21.999Z</time></trkpt><trkpt lat="45.205301379018394" lon="8.863672811985445"><ele>91.0</ele><time>2026-05-03T07:55:22.999Z</time></trkpt><trkpt lat="45.20516506153019" lon="8.863910014580908"><ele>91.0</ele><time>2026-05-03T07:55:23.999Z</time></trkpt><trkpt lat="45.20501862926126" lon="8.86413766242169"><ele>91.0</ele><time>2026-05-03T07:55:25Z</time></trkpt><trkpt lat="45.204867004764715" lon="8.864326372412066"><ele>91.0</ele><time>2026-05-03T07:55:26Z</time></trkpt><trkpt lat="45.204716009568784" lon="8.864490481979523"><ele>91.0</ele><time>2026-05-03T07:55:27Z</time></trkpt><trkpt lat="45.20457761889498" lon="8.864652137553698"><ele>91.0</ele><time>2026-05-03T07:55:28Z</time></trkpt><trkpt lat="45.204441669030615" lon="8.864792978120276"><ele>91.0</ele><time>2026-05-03T07:55:29Z</time></trkpt><trkpt lat="45.204297920226146" lon="8.864902278165955"><ele>91.0</ele><time>2026-05-03T07:55:30Z</time></trkpt><trkpt lat="45.20414419877549" lon="8.86494025318477"><ele>91.0</ele><time>2026-05-03T07:55:31Z</time></trkpt><trkpt lat="45.20397721200539" lon="8.864912307996624"><ele>91.0</ele><time>2026-05-03T07:55:32Z</time></trkpt><trkpt lat="45.20380052468699" lon="8.864799886677119"><ele>92.0</ele><time>2026-05-03T07:55:33Z</time></trkpt><trkpt lat="45.203621369298105" lon="8.86467927792306"><ele>93.0</ele><time>2026-05-03T07:55:34Z</time></trkpt><trkpt lat="45.20343795360751" lon="8.864563111057748"><ele>94.0</ele><time>2026-05-03T07:55:35Z</time></trkpt><trkpt lat="45.20325208136671" lon="8.864447637468292"><ele>94.66666666666666</ele><time>2026-05-03T07:55:36Z</time></trkpt><trkpt lat="45.20306680173138" lon="8.864320282951216"><ele>95.33333333333333</ele><time>2026-05-03T07:55:37Z</time></trkpt><trkpt lat="45.20286558579968" lon="8.864184355555736"><ele>96.0</ele><time>2026-05-03T07:55:38Z</time></trkpt><trkpt lat="45.20265099681181" lon="8.864036379265583"><ele>96.0</ele><time>2026-05-03T07:55:39Z</time></trkpt><trkpt lat="45.202428663099106" lon="8.863893253013991"><ele>96.0</ele><time>2026-05-03T07:55:40Z</time></trkpt><trkpt lat="45.202205257240784" lon="8.863741546986615"><ele>95.5</ele><time>2026-05-03T07:55:41Z</time></trkpt><trkpt lat="45.20197565782878" lon="8.863598607546443"><ele>95.0</ele><time>2026-05-03T07:55:42Z</time></trkpt><trkpt lat="45.201745540505605" lon="8.863438170938142"><ele>95.0</ele><time>2026-05-03T07:55:43Z</time></trkpt><trkpt lat="45.20151351948283" lon="8.863263254154386"><ele>95.0</ele><time>2026-05-03T07:55:44Z</time></trkpt><trkpt lat="45.20126779055601" lon="8.863104550021832"><ele>94.5</ele><time>2026-05-03T07:55:45Z</time></trkpt><trkpt lat="45.20101661263801" lon="8.862956634521504"><ele>94.0</ele><time>2026-05-03T07:55:46Z</time></trkpt><trkpt lat="45.200767333516325" lon="8.862812816545071"><ele>94.0</ele><time>2026-05-03T07:55:47Z</time></trkpt><trkpt lat="45.20051787385766" lon="8.862648203693682"><ele>94.0</ele><time>2026-05-03T07:55:48Z</time></trkpt><trkpt lat="45.200267906046896" lon="8.862466829489295"><ele>93.5</ele><time>2026-05-03T07:55:49Z</time></trkpt><trkpt lat="45.20000585867644" lon="8.862290814351871"><ele>93.0</ele><time>2026-05-03T07:55:50Z</time></trkpt><trkpt lat="45.19973700343378" lon="8.862109579179226"><ele>93.0</ele><time>2026-05-03T07:55:51Z</time></trkpt><trkpt lat="45.19945845818708" lon="8.86193441553985"><ele>93.0</ele><time>2026-05-03T07:55:52Z</time></trkpt><trkpt lat="45.19918409406416" lon="8.861749600907004"><ele>95.5</ele><time>2026-05-03T07:55:53Z</time></trkpt><trkpt lat="45.198905666780576" lon="8.861573309413012"><ele>98.0</ele><time>2026-05-03T07:55:54Z</time></trkpt><trkpt lat="45.198620915092825" lon="8.861383135838125"><ele>98.0</ele><time>2026-05-03T07:55:55Z</time></trkpt><trkpt lat="45.19833334851202" lon="8.86121065037774"><ele>98.0</ele><time>2026-05-03T07:55:56Z</time></trkpt><trkpt lat="45.198049579275335" lon="8.861025483752547"><ele>96.5</ele><time>2026-05-03T07:55:57Z</time></trkpt><trkpt lat="45.197768522548955" lon="8.860839866819852"><ele>95.0</ele><time>2026-05-03T07:55:58Z</time></trkpt><trkpt lat="45.1974861128277" lon="8.860646542382202"><ele>94.5</ele><time>2026-05-03T07:55:59Z</time></trkpt><trkpt lat="45.19720007164036" lon="8.860459182438973"><ele>94.0</ele><time>2026-05-03T07:56:00Z</time></trkpt><trkpt lat="45.196922825380085" lon="8.860271677948532"><ele>94.0</ele><time>2026-05-03T07:56:01Z</time></trkpt><trkpt lat="45.1966432583125" lon="8.860085999989094"><ele>94.0</ele><time>2026-05-03T07:56:02Z</time></trkpt><trkpt lat="45.19636192799436" lon="8.859904291116193"><ele>94.5</ele><time>2026-05-03T07:56:03Z</time></trkpt><trkpt lat="45.196079859854734" lon="8.859715872653977"><ele>95.0</ele><time>2026-05-03T07:56:04Z</time></trkpt><trkpt lat="45.195805065793074" lon="8.859531193305857"><ele>95.0</ele><time>2026-05-03T07:56:05Z</time></trkpt><trkpt lat="45.195524059260045" lon="8.859342217181053"><ele>95.0</ele><time>2026-05-03T07:56:06Z</time></trkpt><trkpt lat="45.19524290990842" lon="8.85914825908884"><ele>95.0</ele><time>2026-05-03T07:56:07Z</time></trkpt><trkpt lat="45.19496427642785" lon="8.858955005781082"><ele>95.0</ele><time>2026-05-03T07:56:08Z</time></trkpt><trkpt lat="45.19468044878908" lon="8.8587668075685"><ele>95.5</ele><time>2026-05-03T07:56:09Z</time></trkpt><trkpt lat="45.194394061795094" lon="8.858582316758707"><ele>96.0</ele><time>2026-05-03T07:56:10Z</time></trkpt><trkpt lat="45.19410844617565" lon="8.85839150934424"><ele>94.5</ele><time>2026-05-03T07:56:11Z</time></trkpt><trkpt lat="45.19382660099774" lon="8.858201101750964"><ele>93.0</ele><time>2026-05-03T07:56:12Z</time></trkpt><trkpt lat="45.19354588342333" lon="8.858013891849296"><ele>93.0</ele><time>2026-05-03T07:56:13Z</time></trkpt><trkpt lat="45.19325094409011" lon="8.857835912190582"><ele>93.0</ele><time>2026-05-03T07:56:14Z</time></trkpt><trkpt lat="45.19297188078646" lon="8.85764301952117"><ele>92.0</ele><time>2026-05-03T07:56:15Z</time></trkpt><trkpt lat="45.19268974925551" lon="8.857455418853144"><ele>91.0</ele><time>2026-05-03T07:56:16Z</time></trkpt><trkpt lat="45.19240332656911" lon="8.857271654365755"><ele>91.5</ele><time>2026-05-03T07:56:17Z</time></trkpt><trkpt lat="45.192123209778515" lon="8.857088478907894"><ele>92.0</ele><time>2026-05-03T07:56:18Z</time></trkpt><trkpt lat="45.19184280334333" lon="8.856897255571926"><ele>92.0</ele><time>2026-05-03T07:56:19Z</time></trkpt><trkpt lat="45.19156017592531" lon="8.856703582909907"><ele>92.0</ele><time>2026-05-03T07:56:20Z</time></trkpt><trkpt lat="45.19127305889926" lon="8.856510432894083"><ele>92.0</ele><time>2026-05-03T07:56:21Z</time></trkpt><trkpt lat="45.19098997592304" lon="8.85632707998535"><ele>92.0</ele><time>2026-05-03T07:56:22Z</time></trkpt><trkpt lat="45.19070379730441" lon="8.856149034715665"><ele>92.0</ele><time>2026-05-03T07:56:23Z</time></trkpt><trkpt lat="45.19042396443477" lon="8.855953252392634"><ele>92.0</ele><time>2026-05-03T07:56:24Z</time></trkpt><trkpt lat="45.19014675979904" lon="8.855763119975544"><ele>92.0</ele><time>2026-05-03T07:56:25Z</time></trkpt><trkpt lat="45.18986247343425" lon="8.855582023180752"><ele>92.0</ele><time>2026-05-03T07:56:26Z</time></trkpt><trkpt lat="45.18957405233138" lon="8.855395752907132"><ele>92.0</ele><time>2026-05-03T07:56:27Z</time></trkpt><trkpt lat="45.189294170236685" lon="8.855213965050957"><ele>92.0</ele><time>2026-05-03T07:56:28Z</time></trkpt><trkpt lat="45.18901342445104" lon="8.855021975300922"><ele>92.0</ele><time>2026-05-03T07:56:29Z</time></trkpt><trkpt lat="45.188737311051426" lon="8.854806850666467"><ele>92.0</ele><time>2026-05-03T07:56:30Z</time></trkpt><trkpt lat="45.18845593630432" lon="8.854621315419678"><ele>92.0</ele><time>2026-05-03T07:56:31Z</time></trkpt><trkpt lat="45.18817563881427" lon="8.854434010571257"><ele>92.0</ele><time>2026-05-03T07:56:32Z</time></trkpt><trkpt lat="45.187891279475785" lon="8.854243991448186"><ele>92.0</ele><time>2026-05-03T07:56:33Z</time></trkpt><trkpt lat="45.187605997230456" lon="8.854057561265545"><ele>92.0</ele><time>2026-05-03T07:56:34Z</time></trkpt><trkpt lat="45.18732437621157" lon="8.853869818620302"><ele>91.5</ele><time>2026-05-03T07:56:35Z</time></trkpt><trkpt lat="45.18704187421269" lon="8.853682046643115"><ele>91.0</ele><time>2026-05-03T07:56:35.999Z</time></trkpt><trkpt lat="45.18676071908766" lon="8.853496230505263"><ele>91.5</ele><time>2026-05-03T07:56:36.999Z</time></trkpt><trkpt lat="45.18647850918698" lon="8.853310541903195"><ele>92.0</ele><time>2026-05-03T07:56:37.999Z</time></trkpt><trkpt lat="45.18619146991671" lon="8.85312115343563"><ele>92.0</ele><time>2026-05-03T07:56:38.999Z</time></trkpt><trkpt lat="45.185906812708" lon="8.852933132072975"><ele>92.0</ele><time>2026-05-03T07:56:39.999Z</time></trkpt><trkpt lat="45.185619964793084" lon="8.852745164365428"><ele>92.0</ele><time>2026-05-03T07:56:40.999Z</time></trkpt><trkpt lat="45.18533544326817" lon="8.852559340624452"><ele>92.0</ele><time>2026-05-03T07:56:41.999Z</time></trkpt><trkpt lat="45.185060014207934" lon="8.852375623577876"><ele>92.0</ele><time>2026-05-03T07:56:42.999Z</time></trkpt><trkpt lat="45.18477690733738" lon="8.852188774862453"><ele>92.0</ele><time>2026-05-03T07:56:43.999Z</time></trkpt><trkpt lat="45.184490444166364" lon="8.852022508842213"><ele>92.0</ele><time>2026-05-03T07:56:44.999Z</time></trkpt><trkpt lat="45.184214745416575" lon="8.851819808338782"><ele>92.0</ele><time>2026-05-03T07:56:45.999Z</time></trkpt><trkpt lat="45.183932892859275" lon="8.851631194788052"><ele>91.0</ele><time>2026-05-03T07:56:46.999Z</time></trkpt><trkpt lat="45.18365154694694" lon="8.851442920286546"><ele>90.0</ele><time>2026-05-03T07:56:47.999Z</time></trkpt><trkpt lat="45.18336731651318" lon="8.851254096128221"><ele>91.0</ele><time>2026-05-03T07:56:48.999Z</time></trkpt><trkpt lat="45.183087269943314" lon="8.851068306372868"><ele>92.0</ele><time>2026-05-03T07:56:49.999Z</time></trkpt><trkpt lat="45.18280629210968" lon="8.850881898709677"><ele>92.0</ele><time>2026-05-03T07:56:50.999Z</time></trkpt><trkpt lat="45.182523498427784" lon="8.850694286304602"><ele>92.0</ele><time>2026-05-03T07:56:51.999Z</time></trkpt><trkpt lat="45.18224307767743" lon="8.8505082501149"><ele>92.5</ele><time>2026-05-03T07:56:52.999Z</time></trkpt><trkpt lat="45.18196102500456" lon="8.85032143198353"><ele>93.0</ele><time>2026-05-03T07:56:53.999Z</time></trkpt><trkpt lat="45.18167819635175" lon="8.850133885113205"><ele>93.5</ele><time>2026-05-03T07:56:54.999Z</time></trkpt><trkpt lat="45.181393518930975" lon="8.849945112490031"><ele>94.0</ele><time>2026-05-03T07:56:55.999Z</time></trkpt><trkpt lat="45.18110982876287" lon="8.849757028262315"><ele>94.0</ele><time>2026-05-03T07:56:56.999Z</time></trkpt><trkpt lat="45.180827328818815" lon="8.849570048635583"><ele>94.0</ele><time>2026-05-03T07:56:57.999Z</time></trkpt><trkpt lat="45.180547123889546" lon="8.849384950136791"><ele>94.0</ele><time>2026-05-03T07:56:58.999Z</time></trkpt><trkpt lat="45.180260767777554" lon="8.849217718171081"><ele>94.0</ele><time>2026-05-03T07:56:59.999Z</time></trkpt><trkpt lat="45.17998328116418" lon="8.849011166726045"><ele>93.5</ele><time>2026-05-03T07:57:00.999Z</time></trkpt><trkpt lat="45.17969995645217" lon="8.848821221757978"><ele>93.0</ele><time>2026-05-03T07:57:01.999Z</time></trkpt><trkpt lat="45.17940992917328" lon="8.848656535940197"><ele>93.0</ele><time>2026-05-03T07:57:02.999Z</time></trkpt><trkpt lat="45.179134872987795" lon="8.848450814758488"><ele>93.0</ele><time>2026-05-03T07:57:03.999Z</time></trkpt><trkpt lat="45.17885203764108" lon="8.848261124394266"><ele>93.0</ele><time>2026-05-03T07:57:04.999Z</time></trkpt><trkpt lat="45.17856856830694" lon="8.848071009234314"><ele>93.0</ele><time>2026-05-03T07:57:05.999Z</time></trkpt><trkpt lat="45.17828830686871" lon="8.847886421688784"><ele>93.0</ele><time>2026-05-03T07:57:06.999Z</time></trkpt><trkpt lat="45.178005457969576" lon="8.847700950190482"><ele>93.0</ele><time>2026-05-03T07:57:07.999Z</time></trkpt><trkpt lat="45.17771711838446" lon="8.847534473010173"><ele>93.0</ele><time>2026-05-03T07:57:08.999Z</time></trkpt><trkpt lat="45.1774393686404" lon="8.847352398902245"><ele>93.0</ele><time>2026-05-03T07:57:09.999Z</time></trkpt><trkpt lat="45.177159297275125" lon="8.847164010603978"><ele>92.5</ele><time>2026-05-03T07:57:10.999Z</time></trkpt><trkpt lat="45.17688167111354" lon="8.846975449673895"><ele>92.0</ele><time>2026-05-03T07:57:11.999Z</time></trkpt><trkpt lat="45.17660428489549" lon="8.846789502144444"><ele>92.5</ele><time>2026-05-03T07:57:12.999Z</time></trkpt><trkpt lat="45.176325305461724" lon="8.846597797213162"><ele>93.0</ele><time>2026-05-03T07:57:13.999Z</time></trkpt><trkpt lat="45.176041794108215" lon="8.846412573903633"><ele>93.0</ele><time>2026-05-03T07:57:14.999Z</time></trkpt><trkpt lat="45.175756482276924" lon="8.846223877597659"><ele>93.0</ele><time>2026-05-03T07:57:15.999Z</time></trkpt><trkpt lat="45.175475631917095" lon="8.846033725371516"><ele>93.0</ele><time>2026-05-03T07:57:16.999Z</time></trkpt><trkpt lat="45.17519807417101" lon="8.845849479626503"><ele>93.0</ele><time>2026-05-03T07:57:17.999Z</time></trkpt><trkpt lat="45.17492007959245" lon="8.845656712567717"><ele>93.0</ele><time>2026-05-03T07:57:18.999Z</time></trkpt><trkpt lat="45.17464560807239" lon="8.845461710889733"><ele>93.0</ele><time>2026-05-03T07:57:19.999Z</time></trkpt><trkpt lat="45.174356779537916" lon="8.845275267661048"><ele>93.0</ele><time>2026-05-03T07:57:20.999Z</time></trkpt><trkpt lat="45.1740704382682" lon="8.845095299421851"><ele>93.0</ele><time>2026-05-03T07:57:21.999Z</time></trkpt><trkpt lat="45.17379185073195" lon="8.844912381130491"><ele>93.0</ele><time>2026-05-03T07:57:22.999Z</time></trkpt><trkpt lat="45.1735068300898" lon="8.844722608945961"><ele>93.0</ele><time>2026-05-03T07:57:23.999Z</time></trkpt><trkpt lat="45.17321356544397" lon="8.844532140302578"><ele>93.5</ele><time>2026-05-03T07:57:24.999Z</time></trkpt><trkpt lat="45.17292254730297" lon="8.84434104686581"><ele>94.0</ele><time>2026-05-03T07:57:25.999Z</time></trkpt><trkpt lat="45.172630998575904" lon="8.844160517038935"><ele>95.0</ele><time>2026-05-03T07:57:26.999Z</time></trkpt><trkpt lat="45.172353849493454" lon="8.84397054593128"><ele>96.0</ele><time>2026-05-03T07:57:27.999Z</time></trkpt><trkpt lat="45.172074014625814" lon="8.843766811037002"><ele>96.0</ele><time>2026-05-03T07:57:28.999Z</time></trkpt><trkpt lat="45.17180244999229" lon="8.843589947334562"><ele>96.0</ele><time>2026-05-03T07:57:29.999Z</time></trkpt><trkpt lat="45.17151966130058" lon="8.843409002684798"><ele>94.5</ele><time>2026-05-03T07:57:31Z</time></trkpt><trkpt lat="45.17123926507222" lon="8.843215602561944"><ele>93.0</ele><time>2026-05-03T07:57:32Z</time></trkpt><trkpt lat="45.17095777273273" lon="8.843028508043263"><ele>92.5</ele><time>2026-05-03T07:57:33Z</time></trkpt><trkpt lat="45.170664029109304" lon="8.842854864326329"><ele>92.0</ele><time>2026-05-03T07:57:34Z</time></trkpt><trkpt lat="45.170396256458936" lon="8.842664780532006"><ele>92.0</ele><time>2026-05-03T07:57:35Z</time></trkpt><trkpt lat="45.170107544335934" lon="8.842476300162069"><ele>92.0</ele><time>2026-05-03T07:57:36Z</time></trkpt><trkpt lat="45.16982228299659" lon="8.84229348981894"><ele>92.5</ele><time>2026-05-03T07:57:37Z</time></trkpt><trkpt lat="45.169534514886564" lon="8.84212390955532"><ele>93.0</ele><time>2026-05-03T07:57:38Z</time></trkpt><trkpt lat="45.16924821415016" lon="8.841937917881534"><ele>94.0</ele><time>2026-05-03T07:57:39Z</time></trkpt><trkpt lat="45.16895856260703" lon="8.841752976041382"><ele>95.0</ele><time>2026-05-03T07:57:40Z</time></trkpt><trkpt lat="45.168667703700145" lon="8.841566732986093"><ele>95.0</ele><time>2026-05-03T07:57:41Z</time></trkpt><trkpt lat="45.168382855729725" lon="8.84138881618962"><ele>95.0</ele><time>2026-05-03T07:57:42Z</time></trkpt><trkpt lat="45.16810016188093" lon="8.841211802991051"><ele>94.0</ele><time>2026-05-03T07:57:43Z</time></trkpt><trkpt lat="45.16782334513461" lon="8.841023886098325"><ele>93.0</ele><time>2026-05-03T07:57:44Z</time></trkpt><trkpt lat="45.167545860801354" lon="8.840827203981686"><ele>93.5</ele><time>2026-05-03T07:57:45Z</time></trkpt><trkpt lat="45.16726426626077" lon="8.840635086168742"><ele>94.0</ele><time>2026-05-03T07:57:46Z</time></trkpt><trkpt lat="45.16698415340498" lon="8.840450427246456"><ele>94.0</ele><time>2026-05-03T07:57:47Z</time></trkpt><trkpt lat="45.166697639332604" lon="8.840266643575985"><ele>94.0</ele><time>2026-05-03T07:57:48Z</time></trkpt><trkpt lat="45.16641788184453" lon="8.84006990474848"><ele>94.0</ele><time>2026-05-03T07:57:49Z</time></trkpt><trkpt lat="45.1661338434" lon="8.839876327117295"><ele>94.0</ele><time>2026-05-03T07:57:50Z</time></trkpt><trkpt lat="45.16584509951084" lon="8.839692806946607"><ele>94.5</ele><time>2026-05-03T07:57:51Z</time></trkpt><trkpt lat="45.165555098230165" lon="8.839515790633891"><ele>95.0</ele><time>2026-05-03T07:57:52Z</time></trkpt><trkpt lat="45.16526818078529" lon="8.839327126963916"><ele>96.5</ele><time>2026-05-03T07:57:53Z</time></trkpt><trkpt lat="45.16498439537806" lon="8.839139583136125"><ele>98.0</ele><time>2026-05-03T07:57:54Z</time></trkpt><trkpt lat="45.16470412865371" lon="8.838951611310367"><ele>98.0</ele><time>2026-05-03T07:57:55Z</time></trkpt><trkpt lat="45.16442402836812" lon="8.83876031002749"><ele>98.0</ele><time>2026-05-03T07:57:56Z</time></trkpt><trkpt lat="45.1641624250194" lon="8.838590715236304"><ele>95.0</ele><time>2026-05-03T07:57:57Z</time></trkpt><trkpt lat="45.16394353158276" lon="8.838409835592275"><ele>92.0</ele><time>2026-05-03T07:57:58Z</time></trkpt><trkpt lat="45.163701554606675" lon="8.83825230028182"><ele>92.0</ele><time>2026-05-03T07:57:59Z</time></trkpt><trkpt lat="45.16346400092137" lon="8.838116422390664"><ele>92.0</ele><time>2026-05-03T07:58:00Z</time></trkpt><trkpt lat="45.163240113673425" lon="8.83796974381404"><ele>92.0</ele><time>2026-05-03T07:58:01Z</time></trkpt><trkpt lat="45.163055011308586" lon="8.837813191957466"><ele>92.0</ele><time>2026-05-03T07:58:02Z</time></trkpt><trkpt lat="45.16286278683896" lon="8.837680538513547"><ele>92.0</ele><time>2026-05-03T07:58:03Z</time></trkpt><trkpt lat="45.16269167957133" lon="8.8375505228333"><ele>92.33333333333334</ele><time>2026-05-03T07:58:04Z</time></trkpt><trkpt lat="45.162514159823054" lon="8.837436955750077"><ele>92.66666666666667</ele><time>2026-05-03T07:58:05Z</time></trkpt><trkpt lat="45.16233053046073" lon="8.83732940483184"><ele>93.0</ele><time>2026-05-03T07:58:06Z</time></trkpt><trkpt lat="45.16216738766269" lon="8.837226474630016"><ele>93.0</ele><time>2026-05-03T07:58:07Z</time></trkpt><trkpt lat="45.16202439168998" lon="8.83714618069413"><ele>93.0</ele><time>2026-05-03T07:58:08Z</time></trkpt><trkpt lat="45.161924188513154" lon="8.83705133402716"><ele>93.0</ele><time>2026-05-03T07:58:09Z</time></trkpt><trkpt lat="45.16185326718456" lon="8.836948955669154"><ele>93.0</ele><time>2026-05-03T07:58:10Z</time></trkpt><trkpt lat="45.16182542684923" lon="8.836798008755526"><ele>93.2</ele><time>2026-05-03T07:58:11Z</time></trkpt><trkpt lat="45.161806802180294" lon="8.836626521963701"><ele>93.4</ele><time>2026-05-03T07:58:12Z</time></trkpt><trkpt lat="45.16177340784843" lon="8.836473310472753"><ele>93.60000000000001</ele><time>2026-05-03T07:58:13Z</time></trkpt><trkpt lat="45.161722685209774" lon="8.836352332496936"><ele>93.80000000000001</ele><time>2026-05-03T07:58:14Z</time></trkpt><trkpt lat="45.16164839651935" lon="8.836295544026928"><ele>94.0</ele><time>2026-05-03T07:58:15Z</time></trkpt><trkpt lat="45.16154201595081" lon="8.836235964606209"><ele>94.0</ele><time>2026-05-03T07:58:16Z</time></trkpt><trkpt lat="45.16144283871935" lon="8.836344884667824"><ele>94.0</ele><time>2026-05-03T07:58:17Z</time></trkpt><trkpt lat="45.1613392517411" lon="8.83640390396336"><ele>94.0</ele><time>2026-05-03T07:58:18Z</time></trkpt><trkpt lat="45.1612204523501" lon="8.836499342481888"><ele>94.0</ele><time>2026-05-03T07:58:19Z</time></trkpt><trkpt lat="45.161102947978215" lon="8.836522186169992"><ele>94.0</ele><time>2026-05-03T07:58:20Z</time></trkpt><trkpt lat="45.16097176194056" lon="8.836491821042522"><ele>94.0</ele><time>2026-05-03T07:58:21Z</time></trkpt><trkpt lat="45.16084698003469" lon="8.836397871217704"><ele>94.0</ele><time>2026-05-03T07:58:22Z</time></trkpt><trkpt lat="45.160721492762654" lon="8.836291216377964"><ele>94.0</ele><time>2026-05-03T07:58:23Z</time></trkpt><trkpt lat="45.16058337060832" lon="8.836185043884955"><ele>94.33333333333333</ele><time>2026-05-03T07:58:24Z</time></trkpt><trkpt lat="45.160426608822235" lon="8.83610348831459"><ele>94.66666666666667</ele><time>2026-05-03T07:58:25Z</time></trkpt><trkpt lat="45.160276717316094" lon="8.836000761201396"><ele>95.0</ele><time>2026-05-03T07:58:26Z</time></trkpt><trkpt lat="45.160133162829204" lon="8.83590254949176"><ele>95.0</ele><time>2026-05-03T07:58:27Z</time></trkpt><trkpt lat="45.15999086933936" lon="8.835797933379137"><ele>95.0</ele><time>2026-05-03T07:58:28Z</time></trkpt><trkpt lat="45.1598430024022" lon="8.835715907940944"><ele>95.0</ele><time>2026-05-03T07:58:29Z</time></trkpt><trkpt lat="45.15968234062604" lon="8.835651330123214"><ele>95.5</ele><time>2026-05-03T07:58:30Z</time></trkpt><trkpt lat="45.159542569658136" lon="8.835565252924948"><ele>96.0</ele><time>2026-05-03T07:58:31Z</time></trkpt><trkpt lat="45.15941245657906" lon="8.83547268313925"><ele>96.5</ele><time>2026-05-03T07:58:32Z</time></trkpt><trkpt lat="45.15927801023853" lon="8.835383608441951"><ele>97.0</ele><time>2026-05-03T07:58:33Z</time></trkpt><trkpt lat="45.159153018445686" lon="8.835296001253976"><ele>97.0</ele><time>2026-05-03T07:58:34Z</time></trkpt><trkpt lat="45.15903975356145" lon="8.83520482901385"><ele>97.0</ele><time>2026-05-03T07:58:35Z</time></trkpt><trkpt lat="45.15891322392054" lon="8.835129799964902"><ele>97.0</ele><time>2026-05-03T07:58:36Z</time></trkpt><trkpt lat="45.15879697446922" lon="8.835049282549774"><ele>97.0</ele><time>2026-05-03T07:58:37Z</time></trkpt><trkpt lat="45.15866906786709" lon="8.834990662200289"><ele>96.75</ele><time>2026-05-03T07:58:38Z</time></trkpt><trkpt lat="45.15857420878564" lon="8.834841980631555"><ele>96.5</ele><time>2026-05-03T07:58:39Z</time></trkpt><trkpt lat="45.158422109251475" lon="8.834871230517628"><ele>96.25</ele><time>2026-05-03T07:58:39.999Z</time></trkpt><trkpt lat="45.158304410622804" lon="8.834803950790356"><ele>96.0</ele><time>2026-05-03T07:58:40.999Z</time></trkpt><trkpt lat="45.15820053428871" lon="8.834728770231983"><ele>96.0</ele><time>2026-05-03T07:58:41.999Z</time></trkpt><trkpt lat="45.158091053098374" lon="8.834655607658929"><ele>96.0</ele><time>2026-05-03T07:58:42.999Z</time></trkpt><trkpt lat="45.15798872417909" lon="8.83458369538983"><ele>96.0</ele><time>2026-05-03T07:58:43.999Z</time></trkpt><trkpt lat="45.157874751038094" lon="8.8345061675316"><ele>96.0</ele><time>2026-05-03T07:58:44.999Z</time></trkpt><trkpt lat="45.157766142133404" lon="8.834438892941652"><ele>96.0</ele><time>2026-05-03T07:58:45.999Z</time></trkpt><trkpt lat="45.15765688451115" lon="8.83434991607971"><ele>96.0</ele><time>2026-05-03T07:58:46.999Z</time></trkpt><trkpt lat="45.15754201578576" lon="8.834275656968648"><ele>96.0</ele><time>2026-05-03T07:58:47.999Z</time></trkpt><trkpt lat="45.15742943754509" lon="8.834191533349143"><ele>96.0</ele><time>2026-05-03T07:58:48.999Z</time></trkpt><trkpt lat="45.15732371739622" lon="8.834111940679643"><ele>95.75</ele><time>2026-05-03T07:58:49.999Z</time></trkpt><trkpt lat="45.157235683519076" lon="8.833956120574234"><ele>95.5</ele><time>2026-05-03T07:58:50.999Z</time></trkpt><trkpt lat="45.15712283412483" lon="8.833882084047671"><ele>95.25</ele><time>2026-05-03T07:58:51.999Z</time></trkpt><trkpt lat="45.1570125417309" lon="8.833809725078064"><ele>95.0</ele><time>2026-05-03T07:58:52.999Z</time></trkpt><trkpt lat="45.156901983160424" lon="8.833737189951574"><ele>95.0</ele><time>2026-05-03T07:58:53.999Z</time></trkpt><trkpt lat="45.15678986635736" lon="8.83366363222241"><ele>95.0</ele><time>2026-05-03T07:58:54.999Z</time></trkpt><trkpt lat="45.15667822084773" lon="8.833590383683969"><ele>95.0</ele><time>2026-05-03T07:58:55.999Z</time></trkpt><trkpt lat="45.156568663894184" lon="8.833517485861876"><ele>95.0</ele><time>2026-05-03T07:58:56.999Z</time></trkpt><trkpt lat="45.15645886711544" lon="8.833444442518879"><ele>94.75</ele><time>2026-05-03T07:58:57.999Z</time></trkpt><trkpt lat="45.15634546888145" lon="8.833369003267027"><ele>94.5</ele><time>2026-05-03T07:58:58.999Z</time></trkpt><trkpt lat="45.15622586461816" lon="8.833289435398884"><ele>94.25</ele><time>2026-05-03T07:58:59.999Z</time></trkpt><trkpt lat="45.156103494144695" lon="8.83320802726387"><ele>94.0</ele><time>2026-05-03T07:59:00.999Z</time></trkpt><trkpt lat="45.155982273989494" lon="8.833128485730436"><ele>94.0</ele><time>2026-05-03T07:59:01.999Z</time></trkpt><trkpt lat="45.15586323634361" lon="8.833050311242518"><ele>94.0</ele><time>2026-05-03T07:59:02.999Z</time></trkpt><trkpt lat="45.15574595057214" lon="8.83297326619334"><ele>94.0</ele><time>2026-05-03T07:59:03.999Z</time></trkpt><trkpt lat="45.1556348026683" lon="8.832900156487682"><ele>94.0</ele><time>2026-05-03T07:59:04.999Z</time></trkpt><trkpt lat="45.155528310779054" lon="8.832830109379378"><ele>93.75</ele><time>2026-05-03T07:59:05.999Z</time></trkpt><trkpt lat="45.155417117745905" lon="8.83278228418166"><ele>93.5</ele><time>2026-05-03T07:59:06.999Z</time></trkpt><trkpt lat="45.15531521829827" lon="8.832701993781237"><ele>93.25</ele><time>2026-05-03T07:59:07.999Z</time></trkpt><trkpt lat="45.1552145361943" lon="8.832626847272723"><ele>93.0</ele><time>2026-05-03T07:59:08.999Z</time></trkpt><trkpt lat="45.15510911436293" lon="8.832560994279921"><ele>93.4</ele><time>2026-05-03T07:59:09.999Z</time></trkpt><trkpt lat="45.15501211124846" lon="8.832495900202037"><ele>93.80000000000001</ele><time>2026-05-03T07:59:10.999Z</time></trkpt><trkpt lat="45.15492043514478" lon="8.832436265069614"><ele>94.2</ele><time>2026-05-03T07:59:11.999Z</time></trkpt><trkpt lat="45.1548241237673" lon="8.832375934207239"><ele>94.6</ele><time>2026-05-03T07:59:12.999Z</time></trkpt><trkpt lat="45.154732355672834" lon="8.832312633288867"><ele>95.0</ele><time>2026-05-03T07:59:13.999Z</time></trkpt><trkpt lat="45.15464269769294" lon="8.832261692473004"><ele>95.0</ele><time>2026-05-03T07:59:14.999Z</time></trkpt><trkpt lat="45.15455261393213" lon="8.83219506567658"><ele>95.0</ele><time>2026-05-03T07:59:15.999Z</time></trkpt><trkpt lat="45.154464854960835" lon="8.83212906396962"><ele>95.0</ele><time>2026-05-03T07:59:16.999Z</time></trkpt><trkpt lat="45.15437622937183" lon="8.832065798810298"><ele>95.0</ele><time>2026-05-03T07:59:17.999Z</time></trkpt><trkpt lat="45.15428976130969" lon="8.83198856672831"><ele>95.0</ele><time>2026-05-03T07:59:18.999Z</time></trkpt><trkpt lat="45.154206390333044" lon="8.831893735157966"><ele>95.0</ele><time>2026-05-03T07:59:19.999Z</time></trkpt><trkpt lat="45.154108158371315" lon="8.831814125352768"><ele>95.0</ele><time>2026-05-03T07:59:20.999Z</time></trkpt><trkpt lat="45.15400553589565" lon="8.831723508074415"><ele>95.0</ele><time>2026-05-03T07:59:21.999Z</time></trkpt><trkpt lat="45.153903708979335" lon="8.83163803709936"><ele>95.0</ele><time>2026-05-03T07:59:22.999Z</time></trkpt><trkpt lat="45.15379946549923" lon="8.831543018789416"><ele>95.25</ele><time>2026-05-03T07:59:23.999Z</time></trkpt><trkpt lat="45.15368840292952" lon="8.83145168002941"><ele>95.5</ele><time>2026-05-03T07:59:24.999Z</time></trkpt><trkpt lat="45.15357282065551" lon="8.831357220688902"><ele>95.75</ele><time>2026-05-03T07:59:25.999Z</time></trkpt><trkpt lat="45.15345607077524" lon="8.831254549968"><ele>96.0</ele><time>2026-05-03T07:59:26.999Z</time></trkpt><trkpt lat="45.153337991008826" lon="8.831155157177927"><ele>96.0</ele><time>2026-05-03T07:59:27.999Z</time></trkpt><trkpt lat="45.153220392299865" lon="8.831058432148957"><ele>96.0</ele><time>2026-05-03T07:59:28.999Z</time></trkpt><trkpt lat="45.15311287142592" lon="8.830944463381964"><ele>96.0</ele><time>2026-05-03T07:59:29.999Z</time></trkpt><trkpt lat="45.153008538564784" lon="8.830854645143313"><ele>96.0</ele><time>2026-05-03T07:59:30.999Z</time></trkpt><trkpt lat="45.15291387624663" lon="8.830782165684695"><ele>96.16666666666667</ele><time>2026-05-03T07:59:31.999Z</time></trkpt><trkpt lat="45.15283885094389" lon="8.830705926492813"><ele>96.33333333333334</ele><time>2026-05-03T07:59:32.999Z</time></trkpt><trkpt lat="45.15278895042417" lon="8.830627997765855"><ele>96.5</ele><time>2026-05-03T07:59:33.999Z</time></trkpt><trkpt lat="45.15277774523457" lon="8.830526249315716"><ele>96.66666666666667</ele><time>2026-05-03T07:59:34.999Z</time></trkpt><trkpt lat="45.152786571952916" lon="8.830417085209"><ele>96.83333333333334</ele><time>2026-05-03T07:59:35.999Z</time></trkpt><trkpt lat="45.152840319283904" lon="8.830305287367782"><ele>97.0</ele><time>2026-05-03T07:59:37Z</time></trkpt><trkpt lat="45.152906774554765" lon="8.830202126806073"><ele>96.8</ele><time>2026-05-03T07:59:38Z</time></trkpt><trkpt lat="45.15297227584535" lon="8.830086079049826"><ele>96.6</ele><time>2026-05-03T07:59:39Z</time></trkpt><trkpt lat="45.15302928564872" lon="8.829969385134481"><ele>96.39999999999999</ele><time>2026-05-03T07:59:40Z</time></trkpt><trkpt lat="45.15309411778514" lon="8.829859016356359"><ele>96.19999999999999</ele><time>2026-05-03T07:59:41Z</time></trkpt><trkpt lat="45.15315417146101" lon="8.82973666832157"><ele>96.0</ele><time>2026-05-03T07:59:42Z</time></trkpt><trkpt lat="45.15322069952937" lon="8.82963258293738"><ele>96.0</ele><time>2026-05-03T07:59:43Z</time></trkpt><trkpt lat="45.15328988240267" lon="8.82952795521525"><ele>96.0</ele><time>2026-05-03T07:59:44Z</time></trkpt><trkpt lat="45.153364434784" lon="8.82942835561811"><ele>96.0</ele><time>2026-05-03T07:59:45Z</time></trkpt><trkpt lat="45.153444263827495" lon="8.8293633170437"><ele>96.0</ele><time>2026-05-03T07:59:46Z</time></trkpt><trkpt lat="45.15350537123857" lon="8.829289877417926"><ele>96.0</ele><time>2026-05-03T07:59:47Z</time></trkpt><trkpt lat="45.1535442880785" lon="8.82921017425026"><ele>96.0</ele><time>2026-05-03T07:59:48Z</time></trkpt><trkpt lat="45.153540546194755" lon="8.829113886147073"><ele>96.0</ele><time>2026-05-03T07:59:49Z</time></trkpt><trkpt lat="45.153540546195984" lon="8.829020149305489"><ele>96.0</ele><time>2026-05-03T07:59:50Z</time></trkpt><trkpt lat="45.15338191786976" lon="8.82894288511578"><ele>96.0</ele><time>2026-05-03T07:59:51Z</time></trkpt><trkpt lat="45.15330879639446" lon="8.828896500015984"><ele>96.0</ele><time>2026-05-03T07:59:52Z</time></trkpt><trkpt lat="45.15322278185189" lon="8.82881304189726"><ele>96.0</ele><time>2026-05-03T07:59:53Z</time></trkpt><trkpt lat="45.15314491469707" lon="8.82872277999549"><ele>96.0</ele><time>2026-05-03T07:59:54Z</time></trkpt><trkpt lat="45.15307785577863" lon="8.828620564711077"><ele>96.0</ele><time>2026-05-03T07:59:55Z</time></trkpt><trkpt lat="45.152994267963216" lon="8.828513923732237"><ele>96.0</ele><time>2026-05-03T07:59:56Z</time></trkpt><trkpt lat="45.15290238879207" lon="8.828397587428793"><ele>96.0</ele><time>2026-05-03T07:59:57Z</time></trkpt><trkpt lat="45.15281042287042" lon="8.828280757824059"><ele>95.5</ele><time>2026-05-03T07:59:58Z</time></trkpt><trkpt lat="45.15271933675162" lon="8.828169027779857"><ele>95.0</ele><time>2026-05-03T07:59:59Z</time></trkpt><trkpt lat="45.15262163007841" lon="8.82805136257936"><ele>94.5</ele><time>2026-05-03T08:00:00Z</time></trkpt><trkpt lat="45.15252336205215" lon="8.827938136784041"><ele>94.0</ele><time>2026-05-03T08:00:01Z</time></trkpt><trkpt lat="45.15243396511596" lon="8.827854157096366"><ele>94.0</ele><time>2026-05-03T08:00:02Z</time></trkpt><trkpt lat="45.15233658196752" lon="8.82774746677342"><ele>94.0</ele><time>2026-05-03T08:00:03Z</time></trkpt><trkpt lat="45.152237746489845" lon="8.82762331623112"><ele>94.0</ele><time>2026-05-03T08:00:04Z</time></trkpt><trkpt lat="45.15214403585236" lon="8.827506253625469"><ele>94.0</ele><time>2026-05-03T08:00:05Z</time></trkpt><trkpt lat="45.15205265128612" lon="8.827393423025892"><ele>94.0</ele><time>2026-05-03T08:00:06Z</time></trkpt><trkpt lat="45.15196379970271" lon="8.827277004985662"><ele>94.0</ele><time>2026-05-03T08:00:07Z</time></trkpt><trkpt lat="45.15186286773201" lon="8.827169622004375"><ele>94.0</ele><time>2026-05-03T08:00:08Z</time></trkpt><trkpt lat="45.15177235685884" lon="8.827052206169315"><ele>94.0</ele><time>2026-05-03T08:00:09Z</time></trkpt><trkpt lat="45.151672190867494" lon="8.826944872962805"><ele>94.0</ele><time>2026-05-03T08:00:10Z</time></trkpt><trkpt lat="45.15156972014701" lon="8.826835113970406"><ele>94.0</ele><time>2026-05-03T08:00:11Z</time></trkpt><trkpt lat="45.15146663101084" lon="8.826724364079485"><ele>94.0</ele><time>2026-05-03T08:00:12Z</time></trkpt><trkpt lat="45.151373577601404" lon="8.82660602388379"><ele>94.0</ele><time>2026-05-03T08:00:13Z</time></trkpt><trkpt lat="45.15127596987591" lon="8.826487253131154"><ele>94.0</ele><time>2026-05-03T08:00:14Z</time></trkpt><trkpt lat="45.15116656448731" lon="8.82634906171438"><ele>94.0</ele><time>2026-05-03T08:00:15Z</time></trkpt><trkpt lat="45.15106333797667" lon="8.82621756374881"><ele>94.0</ele><time>2026-05-03T08:00:16Z</time></trkpt><trkpt lat="45.150946403737315" lon="8.826091747089743"><ele>94.0</ele><time>2026-05-03T08:00:17Z</time></trkpt><trkpt lat="45.15081799968696" lon="8.825962382761976"><ele>94.0</ele><time>2026-05-03T08:00:18Z</time></trkpt><trkpt lat="45.1506819871492" lon="8.82584501374162"><ele>94.0</ele><time>2026-05-03T08:00:19Z</time></trkpt><trkpt lat="45.15053763643602" lon="8.825747595233747"><ele>94.0</ele><time>2026-05-03T08:00:20Z</time></trkpt><trkpt lat="45.15039014977641" lon="8.825641365307344"><ele>94.0</ele><time>2026-05-03T08:00:21Z</time></trkpt><trkpt lat="45.15025257485045" lon="8.8255206364129"><ele>94.0</ele><time>2026-05-03T08:00:22Z</time></trkpt><trkpt lat="45.15011596766773" lon="8.825424588354819"><ele>94.0</ele><time>2026-05-03T08:00:23Z</time></trkpt><trkpt lat="45.14998355959164" lon="8.825324399204854"><ele>93.33333333333333</ele><time>2026-05-03T08:00:24Z</time></trkpt><trkpt lat="45.149840959634474" lon="8.82522113253081"><ele>92.66666666666667</ele><time>2026-05-03T08:00:25Z</time></trkpt><trkpt lat="45.1496969415876" lon="8.825114652592429"><ele>92.0</ele><time>2026-05-03T08:00:26Z</time></trkpt><trkpt lat="45.14955134490623" lon="8.82500786488879"><ele>92.0</ele><time>2026-05-03T08:00:27Z</time></trkpt><trkpt lat="45.14939848596322" lon="8.824904093866378"><ele>92.0</ele><time>2026-05-03T08:00:28Z</time></trkpt><trkpt lat="45.149250373673276" lon="8.82479505467631"><ele>92.0</ele><time>2026-05-03T08:00:29Z</time></trkpt><trkpt lat="45.14909974277771" lon="8.824684862431344"><ele>92.0</ele><time>2026-05-03T08:00:30Z</time></trkpt><trkpt lat="45.14895081240994" lon="8.824573104786191"><ele>92.0</ele><time>2026-05-03T08:00:31Z</time></trkpt><trkpt lat="45.14878837031412" lon="8.824454823598742"><ele>92.0</ele><time>2026-05-03T08:00:32Z</time></trkpt><trkpt lat="45.148611195327845" lon="8.82433576604109"><ele>92.0</ele><time>2026-05-03T08:00:33Z</time></trkpt><trkpt lat="45.14843121089401" lon="8.824209814378218"><ele>92.0</ele><time>2026-05-03T08:00:34Z</time></trkpt><trkpt lat="45.14824574214889" lon="8.824071470359193"><ele>92.0</ele><time>2026-05-03T08:00:35Z</time></trkpt><trkpt lat="45.14805723013397" lon="8.823933349314313"><ele>92.0</ele><time>2026-05-03T08:00:36Z</time></trkpt><trkpt lat="45.14785643494099" lon="8.823791203660303"><ele>92.0</ele><time>2026-05-03T08:00:37Z</time></trkpt><trkpt lat="45.14765646074269" lon="8.823636413203358"><ele>92.0</ele><time>2026-05-03T08:00:38Z</time></trkpt><trkpt lat="45.14744771021747" lon="8.823485285642738"><ele>92.0</ele><time>2026-05-03T08:00:39Z</time></trkpt><trkpt lat="45.14722950072613" lon="8.823326473843078"><ele>92.0</ele><time>2026-05-03T08:00:40Z</time></trkpt><trkpt lat="45.1470066101628" lon="8.823164312809059"><ele>92.0</ele><time>2026-05-03T08:00:41Z</time></trkpt><trkpt lat="45.14676929472867" lon="8.822991657157205"><ele>92.5</ele><time>2026-05-03T08:00:42Z</time></trkpt><trkpt lat="45.14652344766011" lon="8.822813011586911"><ele>93.0</ele><time>2026-05-03T08:00:43Z</time></trkpt><trkpt lat="45.14626542010654" lon="8.82262653084756"><ele>93.0</ele><time>2026-05-03T08:00:44Z</time></trkpt><trkpt lat="45.14601033055663" lon="8.822442173449339"><ele>93.0</ele><time>2026-05-03T08:00:45Z</time></trkpt><trkpt lat="45.14575689918885" lon="8.822259014448893"><ele>93.0</ele><time>2026-05-03T08:00:45.999Z</time></trkpt><trkpt lat="45.14550732093657" lon="8.822078640156684"><ele>93.0</ele><time>2026-05-03T08:00:46.999Z</time></trkpt><trkpt lat="45.14525741653176" lon="8.821898208252382"><ele>93.5</ele><time>2026-05-03T08:00:47.999Z</time></trkpt><trkpt lat="45.145012879418225" lon="8.82172058227597"><ele>94.0</ele><time>2026-05-03T08:00:48.999Z</time></trkpt><trkpt lat="45.144768554984765" lon="8.821543110787637"><ele>94.0</ele><time>2026-05-03T08:00:49.999Z</time></trkpt><trkpt lat="45.14451640631778" lon="8.821359955959723"><ele>94.0</ele><time>2026-05-03T08:00:50.999Z</time></trkpt><trkpt lat="45.14426854679875" lon="8.821179916671774"><ele>93.5</ele><time>2026-05-03T08:00:51.999Z</time></trkpt><trkpt lat="45.14402143792258" lon="8.821000422633618"><ele>93.0</ele><time>2026-05-03T08:00:52.999Z</time></trkpt><trkpt lat="45.14377028811669" lon="8.82081738049608"><ele>93.0</ele><time>2026-05-03T08:00:53.999Z</time></trkpt><trkpt lat="45.143520521364" lon="8.82063533569656"><ele>93.0</ele><time>2026-05-03T08:00:54.999Z</time></trkpt><trkpt lat="45.143273146263404" lon="8.820455236639813"><ele>93.0</ele><time>2026-05-03T08:00:55.999Z</time></trkpt><trkpt lat="45.1430189138574" lon="8.820271250437516"><ele>93.0</ele><time>2026-05-03T08:00:56.999Z</time></trkpt><trkpt lat="45.142771915032014" lon="8.820092498879964"><ele>93.0</ele><time>2026-05-03T08:00:57.999Z</time></trkpt><trkpt lat="45.14251480080459" lon="8.819906427608212"><ele>93.0</ele><time>2026-05-03T08:00:58.999Z</time></trkpt><trkpt lat="45.14226132208771" lon="8.819722988913686"><ele>93.0</ele><time>2026-05-03T08:00:59.999Z</time></trkpt><trkpt lat="45.14200162457226" lon="8.819535047828241"><ele>93.0</ele><time>2026-05-03T08:01:00.999Z</time></trkpt><trkpt lat="45.14173932739328" lon="8.819345225384893"><ele>93.5</ele><time>2026-05-03T08:01:01.999Z</time></trkpt><trkpt lat="45.14148737741125" lon="8.81916289115568"><ele>94.0</ele><time>2026-05-03T08:01:02.999Z</time></trkpt><trkpt lat="45.14121712615872" lon="8.818967312433037"><ele>94.0</ele><time>2026-05-03T08:01:03.999Z</time></trkpt><trkpt lat="45.1409461428011" lon="8.818770907296857"><ele>94.0</ele><time>2026-05-03T08:01:04.999Z</time></trkpt><trkpt lat="45.14067290839354" lon="8.818572829863932"><ele>93.5</ele><time>2026-05-03T08:01:05.999Z</time></trkpt><trkpt lat="45.140394338567546" lon="8.818370884598393"><ele>93.0</ele><time>2026-05-03T08:01:06.999Z</time></trkpt><trkpt lat="45.14011916675496" lon="8.818171402659772"><ele>94.0</ele><time>2026-05-03T08:01:07.999Z</time></trkpt><trkpt lat="45.139839340640165" lon="8.817968546660595"><ele>95.0</ele><time>2026-05-03T08:01:08.999Z</time></trkpt><trkpt lat="45.13954796000205" lon="8.817782220456019"><ele>95.0</ele><time>2026-05-03T08:01:09.999Z</time></trkpt><trkpt lat="45.13926854677338" lon="8.817572520807717"><ele>95.0</ele><time>2026-05-03T08:01:10.999Z</time></trkpt><trkpt lat="45.13899951059796" lon="8.817359723672775"><ele>94.5</ele><time>2026-05-03T08:01:11.999Z</time></trkpt><trkpt lat="45.138708779920115" lon="8.817148962483591"><ele>94.0</ele><time>2026-05-03T08:01:12.999Z</time></trkpt><trkpt lat="45.13841902680607" lon="8.816962579753548"><ele>93.0</ele><time>2026-05-03T08:01:13.999Z</time></trkpt><trkpt lat="45.138139324024024" lon="8.81673620028787"><ele>92.0</ele><time>2026-05-03T08:01:14.999Z</time></trkpt><trkpt lat="45.137848343500636" lon="8.816550555403822"><ele>92.0</ele><time>2026-05-03T08:01:15.999Z</time></trkpt><trkpt lat="45.1375704997956" lon="8.816323902766007"><ele>92.0</ele><time>2026-05-03T08:01:16.999Z</time></trkpt><trkpt lat="45.13728262354983" lon="8.816115244883026"><ele>91.0</ele><time>2026-05-03T08:01:17.999Z</time></trkpt><trkpt lat="45.136997135942295" lon="8.815908316544155"><ele>90.0</ele><time>2026-05-03T08:01:18.999Z</time></trkpt><trkpt lat="45.136719969724865" lon="8.81570800211768"><ele>90.5</ele><time>2026-05-03T08:01:19.999Z</time></trkpt><trkpt lat="45.13643040765133" lon="8.815525402437737"><ele>91.0</ele><time>2026-05-03T08:01:20.999Z</time></trkpt><trkpt lat="45.136154745790265" lon="8.815320938306503"><ele>91.0</ele><time>2026-05-03T08:01:21.999Z</time></trkpt><trkpt lat="45.135878345141904" lon="8.81512243900114"><ele>91.0</ele><time>2026-05-03T08:01:22.999Z</time></trkpt><trkpt lat="45.13560932442731" lon="8.814920192844104"><ele>91.0</ele><time>2026-05-03T08:01:23.999Z</time></trkpt><trkpt lat="45.13533655368795" lon="8.814726019379611"><ele>91.0</ele><time>2026-05-03T08:01:24.999Z</time></trkpt><trkpt lat="45.13506940971838" lon="8.814524303135393"><ele>91.5</ele><time>2026-05-03T08:01:25.999Z</time></trkpt><trkpt lat="45.13479997975009" lon="8.814325659973676"><ele>92.0</ele><time>2026-05-03T08:01:26.999Z</time></trkpt><trkpt lat="45.13452395814591" lon="8.814128506676614"><ele>92.5</ele><time>2026-05-03T08:01:27.999Z</time></trkpt><trkpt lat="45.13425010154807" lon="8.813929823264106"><ele>93.0</ele><time>2026-05-03T08:01:28.999Z</time></trkpt><trkpt lat="45.13398141452733" lon="8.813730782911692"><ele>93.0</ele><time>2026-05-03T08:01:29.999Z</time></trkpt><trkpt lat="45.1337093908989" lon="8.813535137909193"><ele>93.0</ele><time>2026-05-03T08:01:30.999Z</time></trkpt><trkpt lat="45.13344720213202" lon="8.813347502665682"><ele>92.5</ele><time>2026-05-03T08:01:31.999Z</time></trkpt><trkpt lat="45.13318311369196" lon="8.8131524237308"><ele>92.0</ele><time>2026-05-03T08:01:32.999Z</time></trkpt><trkpt lat="45.132921382401506" lon="8.812960529334548"><ele>92.0</ele><time>2026-05-03T08:01:33.999Z</time></trkpt><trkpt lat="45.13266387351132" lon="8.812774348602234"><ele>92.0</ele><time>2026-05-03T08:01:34.999Z</time></trkpt><trkpt lat="45.132403338295404" lon="8.812591596908792"><ele>92.0</ele><time>2026-05-03T08:01:35.999Z</time></trkpt><trkpt lat="45.132148416456474" lon="8.812410833646034"><ele>92.0</ele><time>2026-05-03T08:01:36.999Z</time></trkpt><trkpt lat="45.13189787981592" lon="8.812226817065262"><ele>92.0</ele><time>2026-05-03T08:01:37.999Z</time></trkpt><trkpt lat="45.13166800782851" lon="8.812057552820544"><ele>92.0</ele><time>2026-05-03T08:01:38.999Z</time></trkpt><trkpt lat="45.131453581615325" lon="8.811894104119522"><ele>92.5</ele><time>2026-05-03T08:01:39.999Z</time></trkpt><trkpt lat="45.13122929942728" lon="8.81174672297207"><ele>93.0</ele><time>2026-05-03T08:01:40.999Z</time></trkpt><trkpt lat="45.13104385917732" lon="8.811614623492114"><ele>93.0</ele><time>2026-05-03T08:01:41.999Z</time></trkpt><trkpt lat="45.130853922466805" lon="8.811478321377548"><ele>93.0</ele><time>2026-05-03T08:01:43Z</time></trkpt><trkpt lat="45.13069019513725" lon="8.811352095392968"><ele>93.0</ele><time>2026-05-03T08:01:44Z</time></trkpt><trkpt lat="45.13054992933415" lon="8.811228930639908"><ele>92.75</ele><time>2026-05-03T08:01:45Z</time></trkpt><trkpt lat="45.13043217666648" lon="8.811118367745518"><ele>92.5</ele><time>2026-05-03T08:01:46Z</time></trkpt><trkpt lat="45.13031329136902" lon="8.810986915338468"><ele>92.25</ele><time>2026-05-03T08:01:47Z</time></trkpt><trkpt lat="45.13022829274794" lon="8.810801734636511"><ele>92.0</ele><time>2026-05-03T08:01:48Z</time></trkpt><trkpt lat="45.13015855083909" lon="8.810570081169578"><ele>91.66666666666667</ele><time>2026-05-03T08:01:49Z</time></trkpt><trkpt lat="45.130128798736735" lon="8.810308203248399"><ele>91.33333333333333</ele><time>2026-05-03T08:01:50Z</time></trkpt><trkpt lat="45.13010099040495" lon="8.8100369354202"><ele>91.0</ele><time>2026-05-03T08:01:51Z</time></trkpt><trkpt lat="45.13005774488911" lon="8.80975398559245"><ele>91.0</ele><time>2026-05-03T08:01:52Z</time></trkpt><trkpt lat="45.13000953704176" lon="8.80947402199649"><ele>91.0</ele><time>2026-05-03T08:01:53Z</time></trkpt><trkpt lat="45.12995264296768" lon="8.80916718160222"><ele>91.0</ele><time>2026-05-03T08:01:54Z</time></trkpt><trkpt lat="45.129896860919494" lon="8.808842053611613"><ele>90.0</ele><time>2026-05-03T08:01:55Z</time></trkpt><trkpt lat="45.129849226240836" lon="8.808518676904734"><ele>89.0</ele><time>2026-05-03T08:01:56Z</time></trkpt><trkpt lat="45.12980573245594" lon="8.808192452309308"><ele>88.5</ele><time>2026-05-03T08:01:57Z</time></trkpt><trkpt lat="45.12975888913975" lon="8.807868906089908"><ele>88.0</ele><time>2026-05-03T08:01:58Z</time></trkpt><trkpt lat="45.12970781190166" lon="8.807552106409878"><ele>87.5</ele><time>2026-05-03T08:01:59Z</time></trkpt><trkpt lat="45.12964817882759" lon="8.807233461683468"><ele>87.0</ele><time>2026-05-03T08:02:00Z</time></trkpt><trkpt lat="45.12958689538548" lon="8.806893015381691"><ele>90.0</ele><time>2026-05-03T08:02:01Z</time></trkpt><trkpt lat="45.129530682901866" lon="8.806536682421033"><ele>93.0</ele><time>2026-05-03T08:02:02Z</time></trkpt><trkpt lat="45.12948858884633" lon="8.806173630253966"><ele>93.0</ele><time>2026-05-03T08:02:03Z</time></trkpt><trkpt lat="45.12945316759013" lon="8.805825949293752"><ele>93.0</ele><time>2026-05-03T08:02:04Z</time></trkpt><trkpt lat="45.12941213431303" lon="8.80546404008889"><ele>92.0</ele><time>2026-05-03T08:02:05Z</time></trkpt><trkpt lat="45.12935165326282" lon="8.80508514077715"><ele>91.0</ele><time>2026-05-03T08:02:06Z</time></trkpt><trkpt lat="45.12928808534398" lon="8.80470741470473"><ele>91.0</ele><time>2026-05-03T08:02:07Z</time></trkpt><trkpt lat="45.129229093794216" lon="8.804332824853029"><ele>91.0</ele><time>2026-05-03T08:02:08Z</time></trkpt><trkpt lat="45.12916877589752" lon="8.803951987128562"><ele>90.0</ele><time>2026-05-03T08:02:09Z</time></trkpt><trkpt lat="45.12910578994539" lon="8.803572802328318"><ele>89.0</ele><time>2026-05-03T08:02:10Z</time></trkpt><trkpt lat="45.12905144942571" lon="8.80318237240644"><ele>89.0</ele><time>2026-05-03T08:02:11Z</time></trkpt><trkpt lat="45.12898531657366" lon="8.802795610884331"><ele>89.0</ele><time>2026-05-03T08:02:12Z</time></trkpt><trkpt lat="45.12892942443126" lon="8.80240445115722"><ele>88.5</ele><time>2026-05-03T08:02:13Z</time></trkpt><trkpt lat="45.12886557908811" lon="8.802023734014481"><ele>88.0</ele><time>2026-05-03T08:02:14Z</time></trkpt><trkpt lat="45.128809676810846" lon="8.801678969620106"><ele>88.0</ele><time>2026-05-03T08:02:15Z</time></trkpt><trkpt lat="45.128761176343176" lon="8.801349622419158"><ele>88.0</ele><time>2026-05-03T08:02:16Z</time></trkpt><trkpt lat="45.12871729779662" lon="8.801045398799086"><ele>88.33333333333333</ele><time>2026-05-03T08:02:17Z</time></trkpt><trkpt lat="45.12867018577216" lon="8.80075874618182"><ele>88.66666666666667</ele><time>2026-05-03T08:02:18Z</time></trkpt><trkpt lat="45.12864381667308" lon="8.800514342438921"><ele>89.0</ele><time>2026-05-03T08:02:19Z</time></trkpt><trkpt lat="45.128624386909976" lon="8.800334774082915"><ele>89.0</ele><time>2026-05-03T08:02:20Z</time></trkpt><trkpt lat="45.128625976818874" lon="8.800204099958215"><ele>89.0</ele><time>2026-05-03T08:02:21Z</time></trkpt><trkpt lat="45.128670630158325" lon="8.800090441556112"><ele>89.0</ele><time>2026-05-03T08:02:22Z</time></trkpt><trkpt lat="45.1287521481298" lon="8.799977504720857"><ele>89.0</ele><time>2026-05-03T08:02:23Z</time></trkpt><trkpt lat="45.12880270089213" lon="8.799866332020136"><ele>89.0</ele><time>2026-05-03T08:02:24Z</time></trkpt><trkpt lat="45.12878523846273" lon="8.799768546945709"><ele>88.75</ele><time>2026-05-03T08:02:25Z</time></trkpt><trkpt lat="45.128733932446124" lon="8.799686389675037"><ele>88.5</ele><time>2026-05-03T08:02:26Z</time></trkpt><trkpt lat="45.128630198298325" lon="8.799659050767595"><ele>88.25</ele><time>2026-05-03T08:02:27Z</time></trkpt><trkpt lat="45.128505249236945" lon="8.799683393953167"><ele>88.0</ele><time>2026-05-03T08:02:28Z</time></trkpt><trkpt lat="45.128350765652655" lon="8.799727856996956"><ele>87.33333333333333</ele><time>2026-05-03T08:02:29Z</time></trkpt><trkpt lat="45.12820448229302" lon="8.799738537583977"><ele>86.66666666666667</ele><time>2026-05-03T08:02:30Z</time></trkpt><trkpt lat="45.12804132652763" lon="8.799769008133318"><ele>86.0</ele><time>2026-05-03T08:02:31Z</time></trkpt><trkpt lat="45.12786496802006" lon="8.799817604818324"><ele>86.0</ele><time>2026-05-03T08:02:32Z</time></trkpt><trkpt lat="45.1276678972703" lon="8.799876779418826"><ele>86.0</ele><time>2026-05-03T08:02:33Z</time></trkpt><trkpt lat="45.12746931819771" lon="8.79988726345536"><ele>86.0</ele><time>2026-05-03T08:02:34Z</time></trkpt><trkpt lat="45.1272607229913" lon="8.799937686840394"><ele>86.0</ele><time>2026-05-03T08:02:35Z</time></trkpt><trkpt lat="45.1270476849892" lon="8.799987710158362"><ele>86.0</ele><time>2026-05-03T08:02:36Z</time></trkpt><trkpt lat="45.1268347704969" lon="8.800040559461971"><ele>86.0</ele><time>2026-05-03T08:02:37Z</time></trkpt><trkpt lat="45.12662155411837" lon="8.80008707842632"><ele>85.33333333333334</ele><time>2026-05-03T08:02:38Z</time></trkpt><trkpt lat="45.12640670785981" lon="8.800121887354928"><ele>84.66666666666667</ele><time>2026-05-03T08:02:39Z</time></trkpt><trkpt lat="45.1261925082733" lon="8.8001412656611"><ele>84.0</ele><time>2026-05-03T08:02:40Z</time></trkpt><trkpt lat="45.125977912974896" lon="8.800142031111028"><ele>84.0</ele><time>2026-05-03T08:02:41Z</time></trkpt><trkpt lat="45.125765105754134" lon="8.800129361461737"><ele>84.0</ele><time>2026-05-03T08:02:42Z</time></trkpt><trkpt lat="45.125550863298905" lon="8.800111132529851"><ele>84.0</ele><time>2026-05-03T08:02:43Z</time></trkpt><trkpt lat="45.12534390078032" lon="8.800082180741704"><ele>84.33333333333333</ele><time>2026-05-03T08:02:44Z</time></trkpt><trkpt lat="45.12513804851958" lon="8.80003831730401"><ele>84.66666666666666</ele><time>2026-05-03T08:02:45Z</time></trkpt><trkpt lat="45.12494219763923" lon="8.799970035683966"><ele>85.0</ele><time>2026-05-03T08:02:46Z</time></trkpt><trkpt lat="45.1247609981445" lon="8.799882938547158"><ele>85.0</ele><time>2026-05-03T08:02:47Z</time></trkpt><trkpt lat="45.12458337770951" lon="8.799810788773442"><ele>85.0</ele><time>2026-05-03T08:02:48Z</time></trkpt><trkpt lat="45.124420747189994" lon="8.799718170843905"><ele>85.0</ele><time>2026-05-03T08:02:49Z</time></trkpt><trkpt lat="45.124264289284795" lon="8.799635278156757"><ele>85.0</ele><time>2026-05-03T08:02:50Z</time></trkpt><trkpt lat="45.12410931508343" lon="8.799557764522293"><ele>85.0</ele><time>2026-05-03T08:02:51Z</time></trkpt><trkpt lat="45.12396773311959" lon="8.799486955152133"><ele>85.0</ele><time>2026-05-03T08:02:51.999Z</time></trkpt><trkpt lat="45.12382655412672" lon="8.79941049034463"><ele>85.5</ele><time>2026-05-03T08:02:52.999Z</time></trkpt><trkpt lat="45.12368470222271" lon="8.799334141189973"><ele>86.0</ele><time>2026-05-03T08:02:53.999Z</time></trkpt><trkpt lat="45.12354794750963" lon="8.799261444119757"><ele>86.5</ele><time>2026-05-03T08:02:54.999Z</time></trkpt><trkpt lat="45.12340665316524" lon="8.799190155361856"><ele>87.0</ele><time>2026-05-03T08:02:55.999Z</time></trkpt><trkpt lat="45.12326635466984" lon="8.799122492344809"><ele>87.25</ele><time>2026-05-03T08:02:56.999Z</time></trkpt><trkpt lat="45.12314912800205" lon="8.799025994252581"><ele>87.5</ele><time>2026-05-03T08:02:57.999Z</time></trkpt><trkpt lat="45.12302351591152" lon="8.798949118244636"><ele>87.75</ele><time>2026-05-03T08:02:58.999Z</time></trkpt><trkpt lat="45.12289794846079" lon="8.798850907017016"><ele>88.0</ele><time>2026-05-03T08:02:59.999Z</time></trkpt><trkpt lat="45.12278216836435" lon="8.798738425584395"><ele>88.0</ele><time>2026-05-03T08:03:00.999Z</time></trkpt><trkpt lat="45.122675879739624" lon="8.79860664502718"><ele>88.0</ele><time>2026-05-03T08:03:01.999Z</time></trkpt><trkpt lat="45.122579813177616" lon="8.798459319527936"><ele>88.0</ele><time>2026-05-03T08:03:02.999Z</time></trkpt><trkpt lat="45.12248542962803" lon="8.798309013654809"><ele>88.0</ele><time>2026-05-03T08:03:03.999Z</time></trkpt><trkpt lat="45.12239497863066" lon="8.798170227232893"><ele>89.0</ele><time>2026-05-03T08:03:04.999Z</time></trkpt><trkpt lat="45.12231211445679" lon="8.798025117830603"><ele>90.0</ele><time>2026-05-03T08:03:05.999Z</time></trkpt><trkpt lat="45.12223055640895" lon="8.79788852556412"><ele>91.0</ele><time>2026-05-03T08:03:06.999Z</time></trkpt><trkpt lat="45.1221462533674" lon="8.797754749323609"><ele>92.0</ele><time>2026-05-03T08:03:07.999Z</time></trkpt><trkpt lat="45.122071304535204" lon="8.797616858030345"><ele>92.25</ele><time>2026-05-03T08:03:08.999Z</time></trkpt><trkpt lat="45.12199335867546" lon="8.797481549532558"><ele>92.5</ele><time>2026-05-03T08:03:09.999Z</time></trkpt><trkpt lat="45.1219161968488" lon="8.79735476106171"><ele>92.75</ele><time>2026-05-03T08:03:10.999Z</time></trkpt><trkpt lat="45.12184313936414" lon="8.797222239826002"><ele>93.0</ele><time>2026-05-03T08:03:11.999Z</time></trkpt><trkpt lat="45.121755810956905" lon="8.797086560837933"><ele>93.0</ele><time>2026-05-03T08:03:12.999Z</time></trkpt><trkpt lat="45.121671829205745" lon="8.796955024485017"><ele>93.0</ele><time>2026-05-03T08:03:13.999Z</time></trkpt><trkpt lat="45.121585636862704" lon="8.796824577833188"><ele>93.0</ele><time>2026-05-03T08:03:14.999Z</time></trkpt><trkpt lat="45.12149541673455" lon="8.796678713407914"><ele>93.0</ele><time>2026-05-03T08:03:15.999Z</time></trkpt><trkpt lat="45.121415229287884" lon="8.796545975159471"><ele>92.75</ele><time>2026-05-03T08:03:16.999Z</time></trkpt><trkpt lat="45.12132990357597" lon="8.796413453546666"><ele>92.5</ele><time>2026-05-03T08:03:17.999Z</time></trkpt><trkpt lat="45.121244407416064" lon="8.796290557040999"><ele>92.25</ele><time>2026-05-03T08:03:18.999Z</time></trkpt><trkpt lat="45.121154359514925" lon="8.796154308054312"><ele>92.0</ele><time>2026-05-03T08:03:19.999Z</time></trkpt><trkpt lat="45.121079395105916" lon="8.796020526392642"><ele>92.19999999999999</ele><time>2026-05-03T08:03:20.999Z</time></trkpt><trkpt lat="45.121011498194" lon="8.795891185988568"><ele>92.4</ele><time>2026-05-03T08:03:21.999Z</time></trkpt><trkpt lat="45.12094661989497" lon="8.795766988061798"><ele>92.6</ele><time>2026-05-03T08:03:22.999Z</time></trkpt><trkpt lat="45.120878924527865" lon="8.795643276469606"><ele>92.80000000000001</ele><time>2026-05-03T08:03:23.999Z</time></trkpt><trkpt lat="45.12082832929494" lon="8.795534432534573"><ele>93.0</ele><time>2026-05-03T08:03:24.999Z</time></trkpt><trkpt lat="45.12078580090733" lon="8.795424556189145"><ele>93.0</ele><time>2026-05-03T08:03:25.999Z</time></trkpt><trkpt lat="45.12080126479924" lon="8.795313680329793"><ele>93.0</ele><time>2026-05-03T08:03:26.999Z</time></trkpt><trkpt lat="45.12083065207962" lon="8.795193279602907"><ele>93.0</ele><time>2026-05-03T08:03:27.999Z</time></trkpt><trkpt lat="45.120857810747395" lon="8.795085750016476"><ele>93.0</ele><time>2026-05-03T08:03:28.999Z</time></trkpt><trkpt lat="45.12087545965421" lon="8.794960760038935"><ele>93.0</ele><time>2026-05-03T08:03:29.999Z</time></trkpt><trkpt lat="45.12089206705018" lon="8.794857049365044"><ele>93.0</ele><time>2026-05-03T08:03:30.999Z</time></trkpt><trkpt lat="45.12092189313893" lon="8.794710358872337"><ele>93.16666666666667</ele><time>2026-05-03T08:03:32.999Z</time></trkpt><trkpt lat="45.12093195114052" lon="8.794569897266873"><ele>93.33333333333333</ele><time>2026-05-03T08:03:34.999Z</time></trkpt><trkpt lat="45.12095646505518" lon="8.794441021511208"><ele>93.5</ele><time>2026-05-03T08:03:36.999Z</time></trkpt><trkpt lat="45.12097850980709" lon="8.794321288710982"><ele>93.66666666666666</ele><time>2026-05-03T08:03:38.999Z</time></trkpt><trkpt lat="45.120988817627605" lon="8.794195823483854"><ele>93.83333333333333</ele><time>2026-05-03T08:03:40.999Z</time></trkpt><trkpt lat="45.120995623262694" lon="8.794091107125666"><ele>94.0</ele><time>2026-05-03T08:03:42.999Z</time></trkpt><trkpt lat="45.12102055673321" lon="8.793946934706222"><ele>94.0</ele><time>2026-05-03T08:03:44.999Z</time></trkpt><trkpt lat="45.12106948487915" lon="8.793794827484279"><ele>94.0</ele><time>2026-05-03T08:03:46.999Z</time></trkpt><trkpt lat="45.12109275175762" lon="8.793706581338048"><ele>94.0</ele><time>2026-05-03T08:03:47.999Z</time></trkpt><trkpt lat="45.1210893756392" lon="8.793607491997317"><ele>94.0</ele><time>2026-05-03T08:03:49Z</time></trkpt><trkpt lat="45.121068808591495" lon="8.793500009149525"><ele>94.0</ele><time>2026-05-03T08:03:50Z</time></trkpt><trkpt lat="45.121045879533064" lon="8.793391846305022"><ele>94.0</ele><time>2026-05-03T08:03:51Z</time></trkpt><trkpt lat="45.12098713670078" lon="8.79328927937574"><ele>93.80000000000001</ele><time>2026-05-03T08:03:52Z</time></trkpt><trkpt lat="45.12090416959344" lon="8.793251496267155"><ele>93.60000000000001</ele><time>2026-05-03T08:03:53Z</time></trkpt><trkpt lat="45.12082812957925" lon="8.793182021113264"><ele>93.4</ele><time>2026-05-03T08:03:54Z</time></trkpt><trkpt lat="45.12076071656551" lon="8.793095536971093"><ele>93.2</ele><time>2026-05-03T08:03:55Z</time></trkpt><trkpt lat="45.120681415398195" lon="8.79302245972857"><ele>93.0</ele><time>2026-05-03T08:03:56Z</time></trkpt><trkpt lat="45.12059511558076" lon="8.792970685109056"><ele>92.83333333333333</ele><time>2026-05-03T08:03:57Z</time></trkpt><trkpt lat="45.120523588961696" lon="8.79287520905445"><ele>92.66666666666667</ele><time>2026-05-03T08:03:58Z</time></trkpt><trkpt lat="45.1204501226136" lon="8.792805931839709"><ele>92.5</ele><time>2026-05-03T08:03:59Z</time></trkpt><trkpt lat="45.120381817671344" lon="8.792734683580417"><ele>92.33333333333334</ele><time>2026-05-03T08:04:00Z</time></trkpt><trkpt lat="45.12031178046744" lon="8.792663719846193"><ele>92.16666666666667</ele><time>2026-05-03T08:04:01Z</time></trkpt><trkpt lat="45.120241872569316" lon="8.792599562591937"><ele>92.0</ele><time>2026-05-03T08:04:02Z</time></trkpt><trkpt lat="45.120170561246475" lon="8.792534578144108"><ele>92.0</ele><time>2026-05-03T08:04:03Z</time></trkpt><trkpt lat="45.12009497308997" lon="8.792467030243188"><ele>92.0</ele><time>2026-05-03T08:04:04Z</time></trkpt><trkpt lat="45.12001468951562" lon="8.792411813542005"><ele>92.0</ele><time>2026-05-03T08:04:05Z</time></trkpt><trkpt lat="45.11994756452363" lon="8.792350225546373"><ele>92.0</ele><time>2026-05-03T08:04:06Z</time></trkpt><trkpt lat="45.119881256479054" lon="8.792300759567146"><ele>92.0</ele><time>2026-05-03T08:04:07Z</time></trkpt><trkpt lat="45.11980646799163" lon="8.792238490010968"><ele>92.0</ele><time>2026-05-03T08:04:08Z</time></trkpt><trkpt lat="45.1197388185884" lon="8.79215029347025"><ele>92.0</ele><time>2026-05-03T08:04:09Z</time></trkpt><trkpt lat="45.119670904855816" lon="8.792057435199403"><ele>92.0</ele><time>2026-05-03T08:04:10Z</time></trkpt><trkpt lat="45.11961372299534" lon="8.79195831750347"><ele>92.0</ele><time>2026-05-03T08:04:11Z</time></trkpt><trkpt lat="45.11956785979432" lon="8.79185054574085"><ele>92.0</ele><time>2026-05-03T08:04:12Z</time></trkpt><trkpt lat="45.119527845267065" lon="8.791735482543912"><ele>92.0</ele><time>2026-05-03T08:04:13Z</time></trkpt><trkpt lat="45.11947368666571" lon="8.791615297032207"><ele>92.0</ele><time>2026-05-03T08:04:14Z</time></trkpt><trkpt lat="45.11942226670193" lon="8.791491270425489"><ele>92.0</ele><time>2026-05-03T08:04:15Z</time></trkpt><trkpt lat="45.1193662852201" lon="8.79136782768204"><ele>92.0</ele><time>2026-05-03T08:04:16Z</time></trkpt><trkpt lat="45.11931442298675" lon="8.791248262909743"><ele>92.0</ele><time>2026-05-03T08:04:17Z</time></trkpt><trkpt lat="45.11926153709745" lon="8.79112701792712"><ele>92.0</ele><time>2026-05-03T08:04:18Z</time></trkpt><trkpt lat="45.119225266124054" lon="8.790986807311508"><ele>92.0</ele><time>2026-05-03T08:04:19Z</time></trkpt><trkpt lat="45.11916898517159" lon="8.79087172522848"><ele>92.0</ele><time>2026-05-03T08:04:20Z</time></trkpt><trkpt lat="45.11911017433309" lon="8.790722571498135"><ele>92.0</ele><time>2026-05-03T08:04:21Z</time></trkpt><trkpt lat="45.119054887057644" lon="8.790582817884594"><ele>92.0</ele><time>2026-05-03T08:04:22Z</time></trkpt><trkpt lat="45.11898511895216" lon="8.79041141204243"><ele>91.0</ele><time>2026-05-03T08:04:23Z</time></trkpt><trkpt lat="45.11891308588923" lon="8.790225729543803"><ele>90.0</ele><time>2026-05-03T08:04:24Z</time></trkpt><trkpt lat="45.11883751058466" lon="8.790011379506947"><ele>89.0</ele><time>2026-05-03T08:04:25Z</time></trkpt><trkpt lat="45.11875046547737" lon="8.789776649079878"><ele>88.66666666666667</ele><time>2026-05-03T08:04:26Z</time></trkpt><trkpt lat="45.11864903610666" lon="8.789491099342369"><ele>88.33333333333333</ele><time>2026-05-03T08:04:27Z</time></trkpt><trkpt lat="45.11853651953703" lon="8.789246352788243"><ele>88.0</ele><time>2026-05-03T08:04:28Z</time></trkpt><trkpt lat="45.11845121546401" lon="8.789020824518925"><ele>88.66666666666666</ele><time>2026-05-03T08:04:29Z</time></trkpt><trkpt lat="45.11837044723334" lon="8.788796046552328"><ele>89.33333333333333</ele><time>2026-05-03T08:04:30Z</time></trkpt><trkpt lat="45.11829928831408" lon="8.788589459924491"><ele>90.0</ele><time>2026-05-03T08:04:31Z</time></trkpt><trkpt lat="45.11825090899292" lon="8.78840272023818"><ele>90.0</ele><time>2026-05-03T08:04:32Z</time></trkpt><trkpt lat="45.118227518569434" lon="8.788225632470155"><ele>90.0</ele><time>2026-05-03T08:04:33Z</time></trkpt><trkpt lat="45.11823462435572" lon="8.788054470245633"><ele>90.0</ele><time>2026-05-03T08:04:34Z</time></trkpt><trkpt lat="45.1182377983348" lon="8.78789379136686"><ele>90.0</ele><time>2026-05-03T08:04:35Z</time></trkpt><trkpt lat="45.11819125565361" lon="8.787749182103845"><ele>89.75</ele><time>2026-05-03T08:04:36Z</time></trkpt><trkpt lat="45.11809462227701" lon="8.787621230099468"><ele>89.5</ele><time>2026-05-03T08:04:37Z</time></trkpt><trkpt lat="45.11798007754139" lon="8.787578807835633"><ele>89.25</ele><time>2026-05-03T08:04:38Z</time></trkpt><trkpt lat="45.1178550519459" lon="8.787420360770728"><ele>89.0</ele><time>2026-05-03T08:04:39Z</time></trkpt><trkpt lat="45.11775713609663" lon="8.78722102925792"><ele>89.0</ele><time>2026-05-03T08:04:40Z</time></trkpt><trkpt lat="45.11767910675472" lon="8.78701861667816"><ele>89.0</ele><time>2026-05-03T08:04:41Z</time></trkpt><trkpt lat="45.117584577119175" lon="8.786786720114447"><ele>89.0</ele><time>2026-05-03T08:04:42Z</time></trkpt><trkpt lat="45.11751099933733" lon="8.786559424884132"><ele>89.33333333333334</ele><time>2026-05-03T08:04:43Z</time></trkpt><trkpt lat="45.11742283916183" lon="8.786325890243766"><ele>89.66666666666667</ele><time>2026-05-03T08:04:44Z</time></trkpt><trkpt lat="45.11733068245926" lon="8.786083727199925"><ele>90.0</ele><time>2026-05-03T08:04:45Z</time></trkpt><trkpt lat="45.117233876588955" lon="8.785844446227895"><ele>90.33333333333333</ele><time>2026-05-03T08:04:46Z</time></trkpt><trkpt lat="45.11713788763916" lon="8.78560695875913"><ele>90.66666666666666</ele><time>2026-05-03T08:04:47Z</time></trkpt><trkpt lat="45.117046533656065" lon="8.785364292838409"><ele>91.0</ele><time>2026-05-03T08:04:48Z</time></trkpt><trkpt lat="45.11694392944936" lon="8.785115512411142"><ele>91.33333333333333</ele><time>2026-05-03T08:04:49Z</time></trkpt><trkpt lat="45.11684911418324" lon="8.78486300367704"><ele>91.66666666666667</ele><time>2026-05-03T08:04:50Z</time></trkpt><trkpt lat="45.11674712995713" lon="8.784601481619418"><ele>92.0</ele><time>2026-05-03T08:04:51Z</time></trkpt><trkpt lat="45.116643957333885" lon="8.784351241666139"><ele>92.66666666666667</ele><time>2026-05-03T08:04:52Z</time></trkpt><trkpt lat="45.11653256889451" lon="8.784084911148085"><ele>93.33333333333333</ele><time>2026-05-03T08:04:53Z</time></trkpt><trkpt lat="45.11643891210487" lon="8.783797559760712"><ele>94.0</ele><time>2026-05-03T08:04:54Z</time></trkpt><trkpt lat="45.116313675216794" lon="8.78352911575429"><ele>94.0</ele><time>2026-05-03T08:04:55Z</time></trkpt><trkpt lat="45.116196647522955" lon="8.783250989306413"><ele>94.0</ele><time>2026-05-03T08:04:56Z</time></trkpt><trkpt lat="45.116098569698025" lon="8.782982377435404"><ele>94.0</ele><time>2026-05-03T08:04:56.999Z</time></trkpt><trkpt lat="45.11598359143994" lon="8.782694515894999"><ele>92.5</ele><time>2026-05-03T08:04:57.999Z</time></trkpt><trkpt lat="45.11588906975219" lon="8.782360221013802"><ele>91.0</ele><time>2026-05-03T08:04:58.999Z</time></trkpt><trkpt lat="45.115763692752324" lon="8.78203295174121"><ele>90.5</ele><time>2026-05-03T08:04:59.999Z</time></trkpt><trkpt lat="45.115631605795066" lon="8.78168993287035"><ele>90.0</ele><time>2026-05-03T08:05:00.999Z</time></trkpt><trkpt lat="45.11549562719291" lon="8.781336807776913"><ele>90.0</ele><time>2026-05-03T08:05:01.999Z</time></trkpt><trkpt lat="45.115357088308215" lon="8.780977647065793"><ele>90.0</ele><time>2026-05-03T08:05:02.999Z</time></trkpt><trkpt lat="45.115217806710085" lon="8.780618619906415"><ele>90.0</ele><time>2026-05-03T08:05:03.999Z</time></trkpt><trkpt lat="45.115078899597506" lon="8.780260558080752"><ele>90.0</ele><time>2026-05-03T08:05:04.999Z</time></trkpt><trkpt lat="45.11494119541979" lon="8.779905597075588"><ele>90.0</ele><time>2026-05-03T08:05:05.999Z</time></trkpt><trkpt lat="45.11480435252674" lon="8.779552856210133"><ele>90.0</ele><time>2026-05-03T08:05:06.999Z</time></trkpt><trkpt lat="45.11466469687661" lon="8.77919286484814"><ele>90.0</ele><time>2026-05-03T08:05:07.999Z</time></trkpt><trkpt lat="45.11452349005648" lon="8.778828875044905"><ele>90.0</ele><time>2026-05-03T08:05:08.999Z</time></trkpt><trkpt lat="45.11437933223141" lon="8.778457772745224"><ele>90.0</ele><time>2026-05-03T08:05:09.999Z</time></trkpt><trkpt lat="45.11423683295472" lon="8.778090987685049"><ele>90.0</ele><time>2026-05-03T08:05:10.999Z</time></trkpt><trkpt lat="45.11409596618826" lon="8.77772779561566"><ele>89.0</ele><time>2026-05-03T08:05:11.999Z</time></trkpt><trkpt lat="45.11394079399966" lon="8.777366704732794"><ele>88.0</ele><time>2026-05-03T08:05:12.999Z</time></trkpt><trkpt lat="45.11379558654531" lon="8.776993562680005"><ele>88.5</ele><time>2026-05-03T08:05:13.999Z</time></trkpt><trkpt lat="45.113653540677554" lon="8.776622905617376"><ele>89.0</ele><time>2026-05-03T08:05:14.999Z</time></trkpt><trkpt lat="45.11350937920723" lon="8.7762469683982"><ele>88.5</ele><time>2026-05-03T08:05:15.999Z</time></trkpt><trkpt lat="45.11336151632214" lon="8.775873679710934"><ele>88.0</ele><time>2026-05-03T08:05:16.999Z</time></trkpt><trkpt lat="45.11322733993411" lon="8.775481807067623"><ele>88.0</ele><time>2026-05-03T08:05:17.999Z</time></trkpt><trkpt lat="45.11306964773771" lon="8.775119420886947"><ele>88.0</ele><time>2026-05-03T08:05:18.999Z</time></trkpt><trkpt lat="45.112929853566925" lon="8.77474205487532"><ele>88.0</ele><time>2026-05-03T08:05:19.999Z</time></trkpt><trkpt lat="45.11278513654729" lon="8.774358117201592"><ele>88.0</ele><time>2026-05-03T08:05:20.999Z</time></trkpt><trkpt lat="45.112628457433914" lon="8.773979451212574"><ele>88.0</ele><time>2026-05-03T08:05:21.999Z</time></trkpt><trkpt lat="45.112480235253635" lon="8.773596801108361"><ele>88.0</ele><time>2026-05-03T08:05:22.999Z</time></trkpt><trkpt lat="45.112332264452135" lon="8.773211895424497"><ele>87.5</ele><time>2026-05-03T08:05:23.999Z</time></trkpt><trkpt lat="45.11218771272096" lon="8.772826378691"><ele>87.0</ele><time>2026-05-03T08:05:24.999Z</time></trkpt><trkpt lat="45.11203587569566" lon="8.772442843758396"><ele>88.0</ele><time>2026-05-03T08:05:25.999Z</time></trkpt><trkpt lat="45.11188919193708" lon="8.772060914266506"><ele>89.0</ele><time>2026-05-03T08:05:26.999Z</time></trkpt><trkpt lat="45.111749445048424" lon="8.771675296921458"><ele>89.0</ele><time>2026-05-03T08:05:27.999Z</time></trkpt><trkpt lat="45.111606849566655" lon="8.771284680813807"><ele>89.0</ele><time>2026-05-03T08:05:28.999Z</time></trkpt><trkpt lat="45.11145834042741" lon="8.770903080482025"><ele>88.5</ele><time>2026-05-03T08:05:29.999Z</time></trkpt><trkpt lat="45.1113084084411" lon="8.770521678971853"><ele>88.0</ele><time>2026-05-03T08:05:30.999Z</time></trkpt><trkpt lat="45.11115949224756" lon="8.770137046868337"><ele>88.0</ele><time>2026-05-03T08:05:31.999Z</time></trkpt><trkpt lat="45.111011653591675" lon="8.769753092761874"><ele>88.0</ele><time>2026-05-03T08:05:32.999Z</time></trkpt><trkpt lat="45.11086680181094" lon="8.76937054182616"><ele>87.5</ele><time>2026-05-03T08:05:33.999Z</time></trkpt><trkpt lat="45.11072144242889" lon="8.768989036762475"><ele>87.0</ele><time>2026-05-03T08:05:34.999Z</time></trkpt><trkpt lat="45.110576150320306" lon="8.768611919497973"><ele>87.0</ele><time>2026-05-03T08:05:35.999Z</time></trkpt><trkpt lat="45.1104259718466" lon="8.768234448659317"><ele>87.0</ele><time>2026-05-03T08:05:36.999Z</time></trkpt><trkpt lat="45.11026970635215" lon="8.76785135814185"><ele>87.5</ele><time>2026-05-03T08:05:37.999Z</time></trkpt><trkpt lat="45.110112187680755" lon="8.767467486887071"><ele>88.0</ele><time>2026-05-03T08:05:38.999Z</time></trkpt><trkpt lat="45.10996841799453" lon="8.76709062776758"><ele>87.5</ele><time>2026-05-03T08:05:39.999Z</time></trkpt><trkpt lat="45.10982372227005" lon="8.766720587435453"><ele>87.0</ele><time>2026-05-03T08:05:40.999Z</time></trkpt><trkpt lat="45.10969132775837" lon="8.7663443327976"><ele>87.5</ele><time>2026-05-03T08:05:41.999Z</time></trkpt><trkpt lat="45.109549008080826" lon="8.766003850880896"><ele>88.0</ele><time>2026-05-03T08:05:42.999Z</time></trkpt><trkpt lat="45.10942014477651" lon="8.765654603755099"><ele>88.0</ele><time>2026-05-03T08:05:43.999Z</time></trkpt><trkpt lat="45.10928753845171" lon="8.76530836129749"><ele>88.0</ele><time>2026-05-03T08:05:44.999Z</time></trkpt><trkpt lat="45.10914571168668" lon="8.76495826409769"><ele>89.0</ele><time>2026-05-03T08:05:45.999Z</time></trkpt><trkpt lat="45.1090115520239" lon="8.764611087731913"><ele>90.0</ele><time>2026-05-03T08:05:46.999Z</time></trkpt><trkpt lat="45.108873396966786" lon="8.76425591037205"><ele>90.0</ele><time>2026-05-03T08:05:47.999Z</time></trkpt><trkpt lat="45.108736597832994" lon="8.76390986696313"><ele>90.0</ele><time>2026-05-03T08:05:48.999Z</time></trkpt><trkpt lat="45.1086100737976" lon="8.76356231656298"><ele>91.0</ele><time>2026-05-03T08:05:49.999Z</time></trkpt><trkpt lat="45.1084745723178" lon="8.763225802015876"><ele>92.0</ele><time>2026-05-03T08:05:50.999Z</time></trkpt><trkpt lat="45.108360362695514" lon="8.76291496516008"><ele>92.0</ele><time>2026-05-03T08:05:51.999Z</time></trkpt><trkpt lat="45.10824194359066" lon="8.762603222955553"><ele>92.0</ele><time>2026-05-03T08:05:52.999Z</time></trkpt><trkpt lat="45.108120530332016" lon="8.762295395775118"><ele>92.0</ele><time>2026-05-03T08:05:53.999Z</time></trkpt><trkpt lat="45.10799811170875" lon="8.761992115392793"><ele>92.0</ele><time>2026-05-03T08:05:55Z</time></trkpt><trkpt lat="45.107885430440604" lon="8.761689923982294"><ele>92.0</ele><time>2026-05-03T08:05:56Z</time></trkpt><trkpt lat="45.10777263912749" lon="8.761394094454838"><ele>92.0</ele><time>2026-05-03T08:05:57Z</time></trkpt><trkpt lat="45.10765497709702" lon="8.761107177470965"><ele>92.0</ele><time>2026-05-03T08:05:58Z</time></trkpt><trkpt lat="45.10755100652433" lon="8.760824596235631"><ele>92.0</ele><time>2026-05-03T08:05:59Z</time></trkpt><trkpt lat="45.10744099778176" lon="8.760544072054357"><ele>91.5</ele><time>2026-05-03T08:06:00Z</time></trkpt><trkpt lat="45.107335834681365" lon="8.760263821822706"><ele>91.0</ele><time>2026-05-03T08:06:01Z</time></trkpt><trkpt lat="45.107225060436214" lon="8.759984977035131"><ele>92.0</ele><time>2026-05-03T08:06:02Z</time></trkpt><trkpt lat="45.10711021604673" lon="8.759706005122856"><ele>93.0</ele><time>2026-05-03T08:06:03Z</time></trkpt><trkpt lat="45.10700006621497" lon="8.75943287903482"><ele>93.33333333333333</ele><time>2026-05-03T08:06:04Z</time></trkpt><trkpt lat="45.106886841639586" lon="8.759155160744863"><ele>93.66666666666666</ele><time>2026-05-03T08:06:05Z</time></trkpt><trkpt lat="45.10677816973279" lon="8.75888655073309"><ele>94.0</ele><time>2026-05-03T08:06:06Z</time></trkpt><trkpt lat="45.10666916084499" lon="8.758620341941523"><ele>93.66666666666666</ele><time>2026-05-03T08:06:07Z</time></trkpt><trkpt lat="45.1065699431239" lon="8.758344545528436"><ele>93.33333333333333</ele><time>2026-05-03T08:06:08Z</time></trkpt><trkpt lat="45.10647107635793" lon="8.758080733509514"><ele>93.0</ele><time>2026-05-03T08:06:09Z</time></trkpt><trkpt lat="45.10637264936647" lon="8.757823496712367"><ele>93.33333333333333</ele><time>2026-05-03T08:06:10Z</time></trkpt><trkpt lat="45.10627458082686" lon="8.75756731134442"><ele>93.66666666666666</ele><time>2026-05-03T08:06:11Z</time></trkpt><trkpt lat="45.106176174207995" lon="8.757309214214079"><ele>94.0</ele><time>2026-05-03T08:06:12Z</time></trkpt><trkpt lat="45.10607311465629" lon="8.757054636210022"><ele>94.0</ele><time>2026-05-03T08:06:13Z</time></trkpt><trkpt lat="45.10596923955587" lon="8.756798353277635"><ele>94.0</ele><time>2026-05-03T08:06:14Z</time></trkpt><trkpt lat="45.10587483315674" lon="8.756541485353528"><ele>94.0</ele><time>2026-05-03T08:06:15Z</time></trkpt><trkpt lat="45.1057713202452" lon="8.756280940157703"><ele>93.33333333333333</ele><time>2026-05-03T08:06:16Z</time></trkpt><trkpt lat="45.105679306376764" lon="8.756015452900114"><ele>92.66666666666667</ele><time>2026-05-03T08:06:17Z</time></trkpt><trkpt lat="45.105565067716135" lon="8.755746470013184"><ele>92.0</ele><time>2026-05-03T08:06:18Z</time></trkpt><trkpt lat="45.10546591929087" lon="8.755491842202677"><ele>92.0</ele><time>2026-05-03T08:06:19Z</time></trkpt><trkpt lat="45.105379330968276" lon="8.75525673303738"><ele>92.0</ele><time>2026-05-03T08:06:20Z</time></trkpt><trkpt lat="45.1052917437664" lon="8.755029194749483"><ele>92.0</ele><time>2026-05-03T08:06:21Z</time></trkpt><trkpt lat="45.10520876374759" lon="8.754822135713184"><ele>92.0</ele><time>2026-05-03T08:06:22Z</time></trkpt><trkpt lat="45.105143805179296" lon="8.754630834874726"><ele>92.0</ele><time>2026-05-03T08:06:23Z</time></trkpt><trkpt lat="45.10508411675124" lon="8.754455108915813"><ele>92.0</ele><time>2026-05-03T08:06:24Z</time></trkpt><trkpt lat="45.10503615152531" lon="8.754288315582174"><ele>92.0</ele><time>2026-05-03T08:06:25Z</time></trkpt><trkpt lat="45.10500775024005" lon="8.754128262473426"><ele>91.8</ele><time>2026-05-03T08:06:26Z</time></trkpt><trkpt lat="45.10498653871238" lon="8.7539701996805"><ele>91.6</ele><time>2026-05-03T08:06:27Z</time></trkpt><trkpt lat="45.1049762815447" lon="8.753819106240595"><ele>91.39999999999999</ele><time>2026-05-03T08:06:28Z</time></trkpt><trkpt lat="45.104967567686096" lon="8.753660221091593"><ele>91.19999999999999</ele><time>2026-05-03T08:06:29Z</time></trkpt><trkpt lat="45.104936105792895" lon="8.75350409888872"><ele>91.0</ele><time>2026-05-03T08:06:30Z</time></trkpt><trkpt lat="45.104893717261454" lon="8.753363893242616"><ele>90.8</ele><time>2026-05-03T08:06:31Z</time></trkpt><trkpt lat="45.10483260447627" lon="8.75325123209341"><ele>90.6</ele><time>2026-05-03T08:06:32Z</time></trkpt><trkpt lat="45.1047591918153" lon="8.7531777939987"><ele>90.4</ele><time>2026-05-03T08:06:33Z</time></trkpt><trkpt lat="45.104654185750455" lon="8.753176957567629"><ele>90.2</ele><time>2026-05-03T08:06:34Z</time></trkpt><trkpt lat="45.104555006061865" lon="8.753235716994876"><ele>90.0</ele><time>2026-05-03T08:06:35Z</time></trkpt><trkpt lat="45.10444397166505" lon="8.753341453100923"><ele>90.0</ele><time>2026-05-03T08:06:36Z</time></trkpt><trkpt lat="45.10434982806514" lon="8.753510288781827"><ele>90.0</ele><time>2026-05-03T08:06:37Z</time></trkpt><trkpt lat="45.10425554466783" lon="8.753681215726077"><ele>90.0</ele><time>2026-05-03T08:06:38Z</time></trkpt><trkpt lat="45.10413826350914" lon="8.753879757577863"><ele>90.0</ele><time>2026-05-03T08:06:39Z</time></trkpt><trkpt lat="45.10397827027692" lon="8.753994199426536"><ele>90.0</ele><time>2026-05-03T08:06:40Z</time></trkpt><trkpt lat="45.10378940140216" lon="8.754073003668992"><ele>90.0</ele><time>2026-05-03T08:06:41Z</time></trkpt><trkpt lat="45.10356672373051" lon="8.754077138790842"><ele>90.0</ele><time>2026-05-03T08:06:42Z</time></trkpt><trkpt lat="45.10332396108014" lon="8.754039113642486"><ele>90.0</ele><time>2026-05-03T08:06:43Z</time></trkpt><trkpt lat="45.103073524159676" lon="8.753970665930936"><ele>90.5</ele><time>2026-05-03T08:06:44Z</time></trkpt><trkpt lat="45.102806962397445" lon="8.753936117718462"><ele>91.0</ele><time>2026-05-03T08:06:45Z</time></trkpt><trkpt lat="45.10254466647881" lon="8.753906247669583"><ele>92.0</ele><time>2026-05-03T08:06:46Z</time></trkpt><trkpt lat="45.102265142063345" lon="8.753868396797508"><ele>93.0</ele><time>2026-05-03T08:06:47Z</time></trkpt><trkpt lat="45.10197826219502" lon="8.7538249557988"><ele>93.0</ele><time>2026-05-03T08:06:48Z</time></trkpt><trkpt lat="45.10168943474602" lon="8.753785420019812"><ele>93.0</ele><time>2026-05-03T08:06:49Z</time></trkpt><trkpt lat="45.10140065231951" lon="8.753751719057345"><ele>92.0</ele><time>2026-05-03T08:06:50Z</time></trkpt><trkpt lat="45.101123556059456" lon="8.753690802966124"><ele>91.0</ele><time>2026-05-03T08:06:51Z</time></trkpt><trkpt lat="45.10083803919665" lon="8.753674187107979"><ele>92.0</ele><time>2026-05-03T08:06:52Z</time></trkpt><trkpt lat="45.100554904396375" lon="8.753609830371621"><ele>93.0</ele><time>2026-05-03T08:06:53Z</time></trkpt><trkpt lat="45.10026597896351" lon="8.753563178075018"><ele>93.0</ele><time>2026-05-03T08:06:54Z</time></trkpt><trkpt lat="45.099977609482984" lon="8.753515460886295"><ele>93.0</ele><time>2026-05-03T08:06:55Z</time></trkpt><trkpt lat="45.09968529110464" lon="8.753467090252244"><ele>91.5</ele><time>2026-05-03T08:06:56Z</time></trkpt><trkpt lat="45.099394525706614" lon="8.753420221828879"><ele>90.0</ele><time>2026-05-03T08:06:57Z</time></trkpt><trkpt lat="45.09909735646875" lon="8.75337302554068"><ele>90.5</ele><time>2026-05-03T08:06:58Z</time></trkpt><trkpt lat="45.098797951792875" lon="8.753325474233854"><ele>91.0</ele><time>2026-05-03T08:06:59Z</time></trkpt><trkpt lat="45.0985018522166" lon="8.753278113639615"><ele>90.5</ele><time>2026-05-03T08:07:00Z</time></trkpt><trkpt lat="45.09821373683208" lon="8.753230419710277"><ele>90.0</ele><time>2026-05-03T08:07:01Z</time></trkpt><trkpt lat="45.0979377186773" lon="8.753184857826474"><ele>90.0</ele><time>2026-05-03T08:07:01.999Z</time></trkpt><trkpt lat="45.09767054604688" lon="8.753141522736604"><ele>90.0</ele><time>2026-05-03T08:07:02.999Z</time></trkpt><trkpt lat="45.09740015051323" lon="8.753097664895039"><ele>90.0</ele><time>2026-05-03T08:07:03.999Z</time></trkpt><trkpt lat="45.09712697320594" lon="8.753053355919052"><ele>90.0</ele><time>2026-05-03T08:07:04.999Z</time></trkpt><trkpt lat="45.09685053470102" lon="8.753008517937438"><ele>90.0</ele><time>2026-05-03T08:07:05.999Z</time></trkpt><trkpt lat="45.09657038662953" lon="8.752962997595521"><ele>90.0</ele><time>2026-05-03T08:07:06.999Z</time></trkpt><trkpt lat="45.09628934566118" lon="8.75291731134468"><ele>90.0</ele><time>2026-05-03T08:07:07.999Z</time></trkpt><trkpt lat="45.09600685552401" lon="8.75287272300655"><ele>90.0</ele><time>2026-05-03T08:07:08.999Z</time></trkpt><trkpt lat="45.095724498184445" lon="8.752827609768097"><ele>90.0</ele><time>2026-05-03T08:07:09.999Z</time></trkpt><trkpt lat="45.09544871296513" lon="8.752783546584794"><ele>90.0</ele><time>2026-05-03T08:07:10.999Z</time></trkpt><trkpt lat="45.09517231973318" lon="8.752739386250234"><ele>90.0</ele><time>2026-05-03T08:07:11.999Z</time></trkpt><trkpt lat="45.09489166889562" lon="8.752694545660875"><ele>90.0</ele><time>2026-05-03T08:07:12.999Z</time></trkpt><trkpt lat="45.09460552570292" lon="8.752648827542513"><ele>90.0</ele><time>2026-05-03T08:07:13.999Z</time></trkpt><trkpt lat="45.094329722088176" lon="8.752604761423122"><ele>90.0</ele><time>2026-05-03T08:07:14.999Z</time></trkpt><trkpt lat="45.09407524849897" lon="8.752564103261065"><ele>90.0</ele><time>2026-05-03T08:07:15.999Z</time></trkpt><trkpt lat="45.09383492062965" lon="8.752525515295678"><ele>90.0</ele><time>2026-05-03T08:07:16.999Z</time></trkpt><trkpt lat="45.09361232587651" lon="8.752489451720347"><ele>90.0</ele><time>2026-05-03T08:07:17.999Z</time></trkpt><trkpt lat="45.093401433477545" lon="8.752455284158533"><ele>90.0</ele><time>2026-05-03T08:07:18.999Z</time></trkpt><trkpt lat="45.09319781404127" lon="8.752423312670281"><ele>90.0</ele><time>2026-05-03T08:07:19.999Z</time></trkpt><trkpt lat="45.09301541258599" lon="8.752394731688915"><ele>89.66666666666667</ele><time>2026-05-03T08:07:20.999Z</time></trkpt><trkpt lat="45.09283227568516" lon="8.752377198692797"><ele>89.33333333333334</ele><time>2026-05-03T08:07:21.999Z</time></trkpt><trkpt lat="45.09267274261369" lon="8.752265189335668"><ele>89.0</ele><time>2026-05-03T08:07:22.999Z</time></trkpt><trkpt lat="45.09250645720286" lon="8.75218367794971"><ele>89.66666666666667</ele><time>2026-05-03T08:07:23.999Z</time></trkpt><trkpt lat="45.092349234263445" lon="8.752072179648122"><ele>90.33333333333333</ele><time>2026-05-03T08:07:24.999Z</time></trkpt><trkpt lat="45.09215917491026" lon="8.752001896329503"><ele>91.0</ele><time>2026-05-03T08:07:25.999Z</time></trkpt><trkpt lat="45.09196015157086" lon="8.751958213925837"><ele>91.0</ele><time>2026-05-03T08:07:26.999Z</time></trkpt><trkpt lat="45.0917410595235" lon="8.751970689340608"><ele>91.0</ele><time>2026-05-03T08:07:27.999Z</time></trkpt><trkpt lat="45.091525230752374" lon="8.752006965542794"><ele>91.0</ele><time>2026-05-03T08:07:28.999Z</time></trkpt><trkpt lat="45.09130708612446" lon="8.752047819530675"><ele>91.0</ele><time>2026-05-03T08:07:29.999Z</time></trkpt><trkpt lat="45.09107782396654" lon="8.752108980751048"><ele>91.0</ele><time>2026-05-03T08:07:30.999Z</time></trkpt><trkpt lat="45.090914327283826" lon="8.752242212116295"><ele>91.0</ele><time>2026-05-03T08:07:31.999Z</time></trkpt><trkpt lat="45.09073727519507" lon="8.752353251116803"><ele>90.5</ele><time>2026-05-03T08:07:32.999Z</time></trkpt><trkpt lat="45.09056215459113" lon="8.75245042308896"><ele>90.0</ele><time>2026-05-03T08:07:33.999Z</time></trkpt><trkpt lat="45.09013481334552" lon="8.751804567079098"><ele>90.0</ele><time>2026-05-03T08:07:34.999Z</time></trkpt><trkpt lat="45.08991782247209" lon="8.751668334117124"><ele>90.0</ele><time>2026-05-03T08:07:35.999Z</time></trkpt><trkpt lat="45.08971832418658" lon="8.751526081129693"><ele>90.0</ele><time>2026-05-03T08:07:36.999Z</time></trkpt><trkpt lat="45.089538539926004" lon="8.751365879787192"><ele>90.0</ele><time>2026-05-03T08:07:37.999Z</time></trkpt><trkpt lat="45.08936633488937" lon="8.751200253144308"><ele>90.0</ele><time>2026-05-03T08:07:38.999Z</time></trkpt><trkpt lat="45.08919797350633" lon="8.75102592848578"><ele>90.0</ele><time>2026-05-03T08:07:39.999Z</time></trkpt><trkpt lat="45.08903866803888" lon="8.750844117003417"><ele>90.0</ele><time>2026-05-03T08:07:40.999Z</time></trkpt><trkpt lat="45.08889045267811" lon="8.750651062336441"><ele>90.0</ele><time>2026-05-03T08:07:41.999Z</time></trkpt><trkpt lat="45.08874351049248" lon="8.750437292818878"><ele>90.0</ele><time>2026-05-03T08:07:42.999Z</time></trkpt><trkpt lat="45.088616956807066" lon="8.750202625965098"><ele>90.0</ele><time>2026-05-03T08:07:43.999Z</time></trkpt><trkpt lat="45.08848910258197" lon="8.749970318168618"><ele>90.0</ele><time>2026-05-03T08:07:44.999Z</time></trkpt><trkpt lat="45.08836085070808" lon="8.74972129288788"><ele>90.0</ele><time>2026-05-03T08:07:45.999Z</time></trkpt><trkpt lat="45.08825501703102" lon="8.749461877950642"><ele>90.0</ele><time>2026-05-03T08:07:46.999Z</time></trkpt><trkpt lat="45.08817884728407" lon="8.74918729846495"><ele>90.0</ele><time>2026-05-03T08:07:47.999Z</time></trkpt><trkpt lat="45.088095576474615" lon="8.7488970850867"><ele>90.0</ele><time>2026-05-03T08:07:48.999Z</time></trkpt><trkpt lat="45.08803587294067" lon="8.74859631999492"><ele>90.0</ele><time>2026-05-03T08:07:49.999Z</time></trkpt><trkpt lat="45.08797953240053" lon="8.748290828455474"><ele>90.0</ele><time>2026-05-03T08:07:50.999Z</time></trkpt><trkpt lat="45.08792657156524" lon="8.747966624031033"><ele>90.5</ele><time>2026-05-03T08:07:51.999Z</time></trkpt><trkpt lat="45.08786821326664" lon="8.747630933633921"><ele>91.0</ele><time>2026-05-03T08:07:52.999Z</time></trkpt><trkpt lat="45.087822479114706" lon="8.747282637628757"><ele>91.0</ele><time>2026-05-03T08:07:53.999Z</time></trkpt><trkpt lat="45.08776769208106" lon="8.746927499847292"><ele>91.0</ele><time>2026-05-03T08:07:54.999Z</time></trkpt><trkpt lat="45.0877054557413" lon="8.746561728966139"><ele>90.5</ele><time>2026-05-03T08:07:55.999Z</time></trkpt><trkpt lat="45.08764816266849" lon="8.746187386920797"><ele>90.0</ele><time>2026-05-03T08:07:56.999Z</time></trkpt><trkpt lat="45.08758608491598" lon="8.745812922996294"><ele>90.0</ele><time>2026-05-03T08:07:57.999Z</time></trkpt><trkpt lat="45.087525177235946" lon="8.745422132640527"><ele>90.0</ele><time>2026-05-03T08:07:58.999Z</time></trkpt><trkpt lat="45.08745823858236" lon="8.745025455486564"><ele>90.0</ele><time>2026-05-03T08:07:59.999Z</time></trkpt><trkpt lat="45.08740710925396" lon="8.744624935787023"><ele>90.0</ele><time>2026-05-03T08:08:01Z</time></trkpt><trkpt lat="45.08734765240452" lon="8.744205302302445"><ele>90.0</ele><time>2026-05-03T08:08:02Z</time></trkpt><trkpt lat="45.08728331463076" lon="8.743773520871976"><ele>90.0</ele><time>2026-05-03T08:08:03Z</time></trkpt><trkpt lat="45.08722624877628" lon="8.74333354110862"><ele>90.0</ele><time>2026-05-03T08:08:04Z</time></trkpt><trkpt lat="45.08716164437823" lon="8.74289859066671"><ele>90.0</ele><time>2026-05-03T08:08:05Z</time></trkpt><trkpt lat="45.08709398157558" lon="8.742461172068552"><ele>90.0</ele><time>2026-05-03T08:08:06Z</time></trkpt><trkpt lat="45.0870208896912" lon="8.742027666433469"><ele>90.0</ele><time>2026-05-03T08:08:07Z</time></trkpt><trkpt lat="45.08694409386941" lon="8.741591539147509"><ele>89.5</ele><time>2026-05-03T08:08:08Z</time></trkpt><trkpt lat="45.08687381377833" lon="8.741158788967969"><ele>89.0</ele><time>2026-05-03T08:08:09Z</time></trkpt><trkpt lat="45.08680108860067" lon="8.740729177393046"><ele>89.0</ele><time>2026-05-03T08:08:10Z</time></trkpt><trkpt lat="45.08673679745067" lon="8.740307331378926"><ele>89.0</ele><time>2026-05-03T08:08:11Z</time></trkpt><trkpt lat="45.086670063165585" lon="8.739885389145511"><ele>89.0</ele><time>2026-05-03T08:08:12Z</time></trkpt><trkpt lat="45.08660849152566" lon="8.739473781345488"><ele>89.0</ele><time>2026-05-03T08:08:13Z</time></trkpt><trkpt lat="45.08655368558284" lon="8.739068955163466"><ele>89.0</ele><time>2026-05-03T08:08:14Z</time></trkpt><trkpt lat="45.08649073667689" lon="8.738655946062476"><ele>89.0</ele><time>2026-05-03T08:08:15Z</time></trkpt><trkpt lat="45.08642377274503" lon="8.73824616548482"><ele>89.0</ele><time>2026-05-03T08:08:16Z</time></trkpt><trkpt lat="45.08636498565408" lon="8.737838095877242"><ele>89.0</ele><time>2026-05-03T08:08:17Z</time></trkpt><trkpt lat="45.086308752356636" lon="8.737431697216469"><ele>89.0</ele><time>2026-05-03T08:08:18Z</time></trkpt><trkpt lat="45.08624090697838" lon="8.737016036318764"><ele>89.0</ele><time>2026-05-03T08:08:19Z</time></trkpt><trkpt lat="45.08616676442707" lon="8.736599253868905"><ele>89.0</ele><time>2026-05-03T08:08:20Z</time></trkpt><trkpt lat="45.08610369510417" lon="8.736184908174296"><ele>89.0</ele><time>2026-05-03T08:08:21Z</time></trkpt><trkpt lat="45.08604997706023" lon="8.73576982810526"><ele>89.0</ele><time>2026-05-03T08:08:22Z</time></trkpt><trkpt lat="45.0859831612689" lon="8.735344117969534"><ele>89.0</ele><time>2026-05-03T08:08:23Z</time></trkpt><trkpt lat="45.085919532882464" lon="8.734923134860749"><ele>89.0</ele><time>2026-05-03T08:08:24Z</time></trkpt><trkpt lat="45.08585535894312" lon="8.734512366450888"><ele>89.0</ele><time>2026-05-03T08:08:25Z</time></trkpt><trkpt lat="45.08579878641791" lon="8.734104325117356"><ele>89.5</ele><time>2026-05-03T08:08:26Z</time></trkpt><trkpt lat="45.08573880044686" lon="8.73369864849036"><ele>90.0</ele><time>2026-05-03T08:08:27Z</time></trkpt><trkpt lat="45.085681975932275" lon="8.733309801315052"><ele>90.0</ele><time>2026-05-03T08:08:28Z</time></trkpt><trkpt lat="45.08562485485311" lon="8.732941741722536"><ele>90.0</ele><time>2026-05-03T08:08:29Z</time></trkpt><trkpt lat="45.08556892265898" lon="8.732580217597798"><ele>89.5</ele><time>2026-05-03T08:08:30Z</time></trkpt><trkpt lat="45.08551687929021" lon="8.732224725861576"><ele>89.0</ele><time>2026-05-03T08:08:31Z</time></trkpt><trkpt lat="45.08545845899342" lon="8.731862244510207"><ele>88.5</ele><time>2026-05-03T08:08:32Z</time></trkpt><trkpt lat="45.08539314939617" lon="8.731492776336353"><ele>88.0</ele><time>2026-05-03T08:08:33Z</time></trkpt><trkpt lat="45.08533022972902" lon="8.731124690719833"><ele>89.5</ele><time>2026-05-03T08:08:34Z</time></trkpt><trkpt lat="45.08528574202656" lon="8.730745988079372"><ele>91.0</ele><time>2026-05-03T08:08:35Z</time></trkpt><trkpt lat="45.08523728708525" lon="8.730361692566538"><ele>91.5</ele><time>2026-05-03T08:08:36Z</time></trkpt><trkpt lat="45.08519183367689" lon="8.72997681905047"><ele>92.0</ele><time>2026-05-03T08:08:37Z</time></trkpt><trkpt lat="45.08512538633482" lon="8.729587237033147"><ele>91.0</ele><time>2026-05-03T08:08:38Z</time></trkpt><trkpt lat="45.08506060617637" lon="8.729191971560091"><ele>90.0</ele><time>2026-05-03T08:08:39Z</time></trkpt><trkpt lat="45.08499578416431" lon="8.728795119008852"><ele>90.0</ele><time>2026-05-03T08:08:40Z</time></trkpt><trkpt lat="45.084925767517646" lon="8.728394736578407"><ele>90.0</ele><time>2026-05-03T08:08:41Z</time></trkpt><trkpt lat="45.084858144075014" lon="8.727997137498006"><ele>90.0</ele><time>2026-05-03T08:08:42Z</time></trkpt><trkpt lat="45.08479225675061" lon="8.72760892826718"><ele>90.0</ele><time>2026-05-03T08:08:43Z</time></trkpt><trkpt lat="45.08474725798787" lon="8.727236991703874"><ele>90.5</ele><time>2026-05-03T08:08:44Z</time></trkpt><trkpt lat="45.08470410149069" lon="8.72686805056402"><ele>91.0</ele><time>2026-05-03T08:08:45Z</time></trkpt><trkpt lat="45.08465225743709" lon="8.726495839537447"><ele>91.0</ele><time>2026-05-03T08:08:46Z</time></trkpt><trkpt lat="45.084588819181526" lon="8.726113918220864"><ele>91.0</ele><time>2026-05-03T08:08:47Z</time></trkpt><trkpt lat="45.08453622274814" lon="8.725736094003167"><ele>91.5</ele><time>2026-05-03T08:08:48Z</time></trkpt><trkpt lat="45.08447794181702" lon="8.725354303001323"><ele>92.0</ele><time>2026-05-03T08:08:49Z</time></trkpt><trkpt lat="45.08441580958265" lon="8.72497415796215"><ele>92.5</ele><time>2026-05-03T08:08:50Z</time></trkpt><trkpt lat="45.08435533153975" lon="8.724593432647826"><ele>93.0</ele><time>2026-05-03T08:08:51Z</time></trkpt><trkpt lat="45.08429524512713" lon="8.724208204068157"><ele>93.0</ele><time>2026-05-03T08:08:52Z</time></trkpt><trkpt lat="45.08423123018993" lon="8.723836937971065"><ele>93.0</ele><time>2026-05-03T08:08:53Z</time></trkpt><trkpt lat="45.0841796805114" lon="8.723467175630581"><ele>93.0</ele><time>2026-05-03T08:08:54Z</time></trkpt><trkpt lat="45.084116230805336" lon="8.723096870367135"><ele>93.0</ele><time>2026-05-03T08:08:55Z</time></trkpt><trkpt lat="45.08407035591854" lon="8.722731718975256"><ele>91.5</ele><time>2026-05-03T08:08:56Z</time></trkpt><trkpt lat="45.08401766296251" lon="8.722374590760277"><ele>90.0</ele><time>2026-05-03T08:08:57Z</time></trkpt><trkpt lat="45.083981675911126" lon="8.722049607355661"><ele>90.5</ele><time>2026-05-03T08:08:58Z</time></trkpt><trkpt lat="45.083948223044786" lon="8.721736783500537"><ele>91.0</ele><time>2026-05-03T08:08:58.999Z</time></trkpt><trkpt lat="45.0839013824699" lon="8.721416700718073"><ele>91.0</ele><time>2026-05-03T08:08:59.999Z</time></trkpt><trkpt lat="45.08385252356815" lon="8.721098454593129"><ele>91.0</ele><time>2026-05-03T08:09:00.999Z</time></trkpt><trkpt lat="45.083789932737986" lon="8.720782407307492"><ele>91.33333333333333</ele><time>2026-05-03T08:09:01.999Z</time></trkpt><trkpt lat="45.08370048922635" lon="8.720486530221251"><ele>91.66666666666667</ele><time>2026-05-03T08:09:02.999Z</time></trkpt><trkpt lat="45.08357595536646" lon="8.720227887273845"><ele>92.0</ele><time>2026-05-03T08:09:03.999Z</time></trkpt><trkpt lat="45.08343216587722" lon="8.719972495929417"><ele>92.0</ele><time>2026-05-03T08:09:04.999Z</time></trkpt><trkpt lat="45.08326435921346" lon="8.71974267511364"><ele>92.0</ele><time>2026-05-03T08:09:05.999Z</time></trkpt><trkpt lat="45.08308176422584" lon="8.719517390735147"><ele>91.5</ele><time>2026-05-03T08:09:06.999Z</time></trkpt><trkpt lat="45.08290573055855" lon="8.71928638492942"><ele>91.0</ele><time>2026-05-03T08:09:07.999Z</time></trkpt><trkpt lat="45.082727650477494" lon="8.719052787362486"><ele>91.0</ele><time>2026-05-03T08:09:08.999Z</time></trkpt><trkpt lat="45.08255608346703" lon="8.71882092341753"><ele>91.0</ele><time>2026-05-03T08:09:09.999Z</time></trkpt><trkpt lat="45.08238056787905" lon="8.718594165584005"><ele>90.0</ele><time>2026-05-03T08:09:10.999Z</time></trkpt><trkpt lat="45.082195149035805" lon="8.71837234235009"><ele>89.0</ele><time>2026-05-03T08:09:11.999Z</time></trkpt><trkpt lat="45.082023549671426" lon="8.71814452060697"><ele>89.0</ele><time>2026-05-03T08:09:12.999Z</time></trkpt><trkpt lat="45.08184853993576" lon="8.717917601862368"><ele>89.0</ele><time>2026-05-03T08:09:13.999Z</time></trkpt><trkpt lat="45.08167932907234" lon="8.717690812677315"><ele>89.0</ele><time>2026-05-03T08:09:14.999Z</time></trkpt><trkpt lat="45.081496159360015" lon="8.717463758875013"><ele>89.0</ele><time>2026-05-03T08:09:15.999Z</time></trkpt><trkpt lat="45.08131334881329" lon="8.717235901882677"><ele>89.0</ele><time>2026-05-03T08:09:16.999Z</time></trkpt><trkpt lat="45.081133645507144" lon="8.717001565762958"><ele>89.0</ele><time>2026-05-03T08:09:17.999Z</time></trkpt><trkpt lat="45.08095493793411" lon="8.716768708261842"><ele>89.5</ele><time>2026-05-03T08:09:18.999Z</time></trkpt><trkpt lat="45.08077721735016" lon="8.716535398524695"><ele>90.0</ele><time>2026-05-03T08:09:19.999Z</time></trkpt><trkpt lat="45.08059500156596" lon="8.71627923016067"><ele>90.0</ele><time>2026-05-03T08:09:20.999Z</time></trkpt><trkpt lat="45.08041576280866" lon="8.716045774648979"><ele>90.0</ele><time>2026-05-03T08:09:21.999Z</time></trkpt><trkpt lat="45.080224085123156" lon="8.71582787287783"><ele>90.0</ele><time>2026-05-03T08:09:22.999Z</time></trkpt><trkpt lat="45.080051700501016" lon="8.715593466671583"><ele>90.0</ele><time>2026-05-03T08:09:23.999Z</time></trkpt><trkpt lat="45.07987363055742" lon="8.715358782366645"><ele>90.0</ele><time>2026-05-03T08:09:24.999Z</time></trkpt><trkpt lat="45.07968611555728" lon="8.715125615229042"><ele>90.0</ele><time>2026-05-03T08:09:25.999Z</time></trkpt><trkpt lat="45.079508924727484" lon="8.714890081536655"><ele>90.0</ele><time>2026-05-03T08:09:26.999Z</time></trkpt><trkpt lat="45.079330333767416" lon="8.714664230927292"><ele>90.0</ele><time>2026-05-03T08:09:27.999Z</time></trkpt><trkpt lat="45.07915896643159" lon="8.714440066109187"><ele>91.0</ele><time>2026-05-03T08:09:28.999Z</time></trkpt><trkpt lat="45.07898751045497" lon="8.714219817910832"><ele>92.0</ele><time>2026-05-03T08:09:29.999Z</time></trkpt><trkpt lat="45.078829533436775" lon="8.713986089827982"><ele>92.0</ele><time>2026-05-03T08:09:30.999Z</time></trkpt><trkpt lat="45.07865850415366" lon="8.713764347674775"><ele>92.0</ele><time>2026-05-03T08:09:31.999Z</time></trkpt><trkpt lat="45.07849090093347" lon="8.713547048062146"><ele>92.0</ele><time>2026-05-03T08:09:32.999Z</time></trkpt><trkpt lat="45.07832358721402" lon="8.713330123300153"><ele>92.0</ele><time>2026-05-03T08:09:33.999Z</time></trkpt><trkpt lat="45.07816023806435" lon="8.713118338653128"><ele>92.0</ele><time>2026-05-03T08:09:34.999Z</time></trkpt><trkpt lat="45.0780038679764" lon="8.712915602845388"><ele>91.33333333333334</ele><time>2026-05-03T08:09:35.999Z</time></trkpt><trkpt lat="45.07784974093961" lon="8.71271577492542"><ele>90.66666666666667</ele><time>2026-05-03T08:09:36.999Z</time></trkpt><trkpt lat="45.07770820447941" lon="8.712531726195634"><ele>90.0</ele><time>2026-05-03T08:09:37.999Z</time></trkpt><trkpt lat="45.077557981919455" lon="8.712363999198846"><ele>90.0</ele><time>2026-05-03T08:09:38.999Z</time></trkpt><trkpt lat="45.077427408590744" lon="8.712191143348775"><ele>90.0</ele><time>2026-05-03T08:09:39.999Z</time></trkpt><trkpt lat="45.077298277397" lon="8.712026252401374"><ele>90.0</ele><time>2026-05-03T08:09:40.999Z</time></trkpt><trkpt lat="45.077174106769675" lon="8.711866344361336"><ele>90.33333333333333</ele><time>2026-05-03T08:09:41.999Z</time></trkpt><trkpt lat="45.077055451130256" lon="8.711711807119848"><ele>90.66666666666666</ele><time>2026-05-03T08:09:42.999Z</time></trkpt><trkpt lat="45.076948065508475" lon="8.71154350619905"><ele>91.0</ele><time>2026-05-03T08:09:43.999Z</time></trkpt><trkpt lat="45.076837003623226" lon="8.711398031599845"><ele>91.0</ele><time>2026-05-03T08:09:44.999Z</time></trkpt><trkpt lat="45.07673091500212" lon="8.711258568036877"><ele>91.0</ele><time>2026-05-03T08:09:45.999Z</time></trkpt><trkpt lat="45.076630149344474" lon="8.711126221222218"><ele>91.0</ele><time>2026-05-03T08:09:46.999Z</time></trkpt><trkpt lat="45.076526983320726" lon="8.71100782109677"><ele>91.0</ele><time>2026-05-03T08:09:47.999Z</time></trkpt><trkpt lat="45.07643638380584" lon="8.710883606353997"><ele>91.25</ele><time>2026-05-03T08:09:48.999Z</time></trkpt><trkpt lat="45.076348183943445" lon="8.71076119163882"><ele>91.5</ele><time>2026-05-03T08:09:49.999Z</time></trkpt><trkpt lat="45.0762594559109" lon="8.71063488302371"><ele>91.75</ele><time>2026-05-03T08:09:50.999Z</time></trkpt><trkpt lat="45.076192733206824" lon="8.710492512030989"><ele>92.0</ele><time>2026-05-03T08:09:51.999Z</time></trkpt><trkpt lat="45.07612934273334" lon="8.71037979553974"><ele>92.39999999999999</ele><time>2026-05-03T08:09:52.999Z</time></trkpt><trkpt lat="45.076087102218786" lon="8.710241313376107"><ele>92.8</ele><time>2026-05-03T08:09:53.999Z</time></trkpt><trkpt lat="45.076052049849686" lon="8.710106564160649"><ele>93.2</ele><time>2026-05-03T08:09:54.999Z</time></trkpt><trkpt lat="45.076008780476045" lon="8.70997466985254"><ele>93.6</ele><time>2026-05-03T08:09:55.999Z</time></trkpt><trkpt lat="45.07597862616035" lon="8.709852589929783"><ele>94.0</ele><time>2026-05-03T08:09:56.999Z</time></trkpt><trkpt lat="45.0759612726872" lon="8.709744057680338"><ele>94.0</ele><time>2026-05-03T08:09:57.999Z</time></trkpt><trkpt lat="45.07593605830638" lon="8.709642198997155"><ele>94.0</ele><time>2026-05-03T08:09:58.999Z</time></trkpt><trkpt lat="45.07590758199654" lon="8.709520565706848"><ele>94.0</ele><time>2026-05-03T08:09:59.999Z</time></trkpt><trkpt lat="45.0758721794365" lon="8.709385922415413"><ele>94.0</ele><time>2026-05-03T08:10:00.999Z</time></trkpt><trkpt lat="45.0758533883309" lon="8.709238677135378"><ele>94.0</ele><time>2026-05-03T08:10:01.999Z</time></trkpt><trkpt lat="45.07582389008632" lon="8.70908348758574"><ele>94.0</ele><time>2026-05-03T08:10:02.999Z</time></trkpt><trkpt lat="45.07578956233974" lon="8.708924977740883"><ele>94.0</ele><time>2026-05-03T08:10:03.999Z</time></trkpt><trkpt lat="45.07576133151375" lon="8.70876478158863"><ele>94.0</ele><time>2026-05-03T08:10:04.999Z</time></trkpt><trkpt lat="45.075729717656785" lon="8.708607242797529"><ele>94.0</ele><time>2026-05-03T08:10:05.999Z</time></trkpt><trkpt lat="45.07569601941273" lon="8.708442247428986"><ele>94.0</ele><time>2026-05-03T08:10:07Z</time></trkpt><trkpt lat="45.07565542630793" lon="8.7082794328464"><ele>94.0</ele><time>2026-05-03T08:10:08Z</time></trkpt><trkpt lat="45.07563282157282" lon="8.708117527370263"><ele>94.0</ele><time>2026-05-03T08:10:09Z</time></trkpt><trkpt lat="45.07559877126396" lon="8.707928628112759"><ele>94.0</ele><time>2026-05-03T08:10:10Z</time></trkpt><trkpt lat="45.07558357491342" lon="8.70776086393786"><ele>93.80000000000001</ele><time>2026-05-03T08:10:11Z</time></trkpt><trkpt lat="45.07555190618027" lon="8.707630868380827"><ele>93.60000000000001</ele><time>2026-05-03T08:10:12Z</time></trkpt><trkpt lat="45.07552399792635" lon="8.707479750212267"><ele>93.4</ele><time>2026-05-03T08:10:13Z</time></trkpt><trkpt lat="45.0755084684724" lon="8.707311931614418"><ele>93.2</ele><time>2026-05-03T08:10:14Z</time></trkpt><trkpt lat="45.0754838905224" lon="8.707143564264214"><ele>93.0</ele><time>2026-05-03T08:10:15Z</time></trkpt><trkpt lat="45.0754387640045" lon="8.70697786823567"><ele>92.5</ele><time>2026-05-03T08:10:16Z</time></trkpt><trkpt lat="45.075398621951365" lon="8.706821370548841"><ele>92.0</ele><time>2026-05-03T08:10:17Z</time></trkpt><trkpt lat="45.075346291566994" lon="8.70666845070722"><ele>91.5</ele><time>2026-05-03T08:10:18Z</time></trkpt><trkpt lat="45.0752966187252" lon="8.706530124348932"><ele>91.0</ele><time>2026-05-03T08:10:19Z</time></trkpt><trkpt lat="45.075236118737834" lon="8.706377779907427"><ele>91.0</ele><time>2026-05-03T08:10:20Z</time></trkpt><trkpt lat="45.07517324005124" lon="8.706219241091697"><ele>91.0</ele><time>2026-05-03T08:10:21Z</time></trkpt><trkpt lat="45.0751087387194" lon="8.706065046150643"><ele>91.0</ele><time>2026-05-03T08:10:22Z</time></trkpt><trkpt lat="45.0750419169662" lon="8.705908378069449"><ele>91.0</ele><time>2026-05-03T08:10:23Z</time></trkpt><trkpt lat="45.074985312046444" lon="8.705762522602043"><ele>90.5</ele><time>2026-05-03T08:10:24Z</time></trkpt><trkpt lat="45.07491688334107" lon="8.705605164475402"><ele>90.0</ele><time>2026-05-03T08:10:25Z</time></trkpt><trkpt lat="45.07487008799926" lon="8.705440739243302"><ele>89.5</ele><time>2026-05-03T08:10:26Z</time></trkpt><trkpt lat="45.07481463063005" lon="8.705260169390343"><ele>89.0</ele><time>2026-05-03T08:10:27Z</time></trkpt><trkpt lat="45.074753318629455" lon="8.705104740652144"><ele>89.0</ele><time>2026-05-03T08:10:28Z</time></trkpt><trkpt lat="45.074682506726845" lon="8.70493634516236"><ele>89.0</ele><time>2026-05-03T08:10:29Z</time></trkpt><trkpt lat="45.074603932126585" lon="8.70475895668049"><ele>89.0</ele><time>2026-05-03T08:10:30Z</time></trkpt><trkpt lat="45.07452577818457" lon="8.70457951727942"><ele>89.0</ele><time>2026-05-03T08:10:31Z</time></trkpt><trkpt lat="45.07444776375714" lon="8.704396952498538"><ele>88.66666666666667</ele><time>2026-05-03T08:10:32Z</time></trkpt><trkpt lat="45.074372044289404" lon="8.704206822522734"><ele>88.33333333333333</ele><time>2026-05-03T08:10:33Z</time></trkpt><trkpt lat="45.07429593273327" lon="8.704015838965672"><ele>88.0</ele><time>2026-05-03T08:10:34Z</time></trkpt><trkpt lat="45.07422503630763" lon="8.703825330689513"><ele>88.0</ele><time>2026-05-03T08:10:35Z</time></trkpt><trkpt lat="45.074137071119196" lon="8.70363468679366"><ele>88.0</ele><time>2026-05-03T08:10:36Z</time></trkpt><trkpt lat="45.074058000365405" lon="8.70343713378541"><ele>88.0</ele><time>2026-05-03T08:10:37Z</time></trkpt><trkpt lat="45.073969896686236" lon="8.703235201682107"><ele>88.0</ele><time>2026-05-03T08:10:38Z</time></trkpt><trkpt lat="45.07387714751688" lon="8.703023044230509"><ele>88.0</ele><time>2026-05-03T08:10:39Z</time></trkpt><trkpt lat="45.07379195006473" lon="8.702787579810549"><ele>88.0</ele><time>2026-05-03T08:10:40Z</time></trkpt><trkpt lat="45.073700783343355" lon="8.702542179891932"><ele>88.33333333333333</ele><time>2026-05-03T08:10:41Z</time></trkpt><trkpt lat="45.073609490672276" lon="8.70229563954882"><ele>88.66666666666667</ele><time>2026-05-03T08:10:42Z</time></trkpt><trkpt lat="45.07350179187075" lon="8.702029128025641"><ele>89.0</ele><time>2026-05-03T08:10:43Z</time></trkpt><trkpt lat="45.073395204984074" lon="8.701751988870292"><ele>89.0</ele><time>2026-05-03T08:10:44Z</time></trkpt><trkpt lat="45.07327797742437" lon="8.701460795021266"><ele>89.0</ele><time>2026-05-03T08:10:45Z</time></trkpt><trkpt lat="45.07314608641683" lon="8.701152204480294"><ele>87.5</ele><time>2026-05-03T08:10:46Z</time></trkpt><trkpt lat="45.07301757684609" lon="8.700837184507314"><ele>86.0</ele><time>2026-05-03T08:10:47Z</time></trkpt><trkpt lat="45.072879621030026" lon="8.700513834512783"><ele>86.5</ele><time>2026-05-03T08:10:48Z</time></trkpt><trkpt lat="45.072748605461165" lon="8.700191784142108"><ele>87.0</ele><time>2026-05-03T08:10:49Z</time></trkpt><trkpt lat="45.07261324980536" lon="8.699865703689818"><ele>87.0</ele><time>2026-05-03T08:10:50Z</time></trkpt><trkpt lat="45.07248238609632" lon="8.699523081203754"><ele>87.0</ele><time>2026-05-03T08:10:51Z</time></trkpt><trkpt lat="45.07234151298347" lon="8.69918913529372"><ele>87.0</ele><time>2026-05-03T08:10:52Z</time></trkpt><trkpt lat="45.072216920308286" lon="8.69883229433705"><ele>87.0</ele><time>2026-05-03T08:10:53Z</time></trkpt><trkpt lat="45.07208877932206" lon="8.698508134693185"><ele>86.5</ele><time>2026-05-03T08:10:54Z</time></trkpt><trkpt lat="45.07195522828458" lon="8.698172464544282"><ele>86.0</ele><time>2026-05-03T08:10:55Z</time></trkpt><trkpt lat="45.07182260938447" lon="8.697839749152514"><ele>86.5</ele><time>2026-05-03T08:10:56Z</time></trkpt><trkpt lat="45.07169093736138" lon="8.697509409260563"><ele>87.0</ele><time>2026-05-03T08:10:57Z</time></trkpt><trkpt lat="45.071553585404764" lon="8.697164819232079"><ele>87.0</ele><time>2026-05-03T08:10:58Z</time></trkpt><trkpt lat="45.07142207012247" lon="8.696834872469918"><ele>87.0</ele><time>2026-05-03T08:10:59Z</time></trkpt><trkpt lat="45.07128049208511" lon="8.696523908924998"><ele>87.0</ele><time>2026-05-03T08:11:00Z</time></trkpt><trkpt lat="45.07114813695229" lon="8.696182322368458"><ele>87.0</ele><time>2026-05-03T08:11:01Z</time></trkpt><trkpt lat="45.07100751778611" lon="8.695841564405434"><ele>87.0</ele><time>2026-05-03T08:11:02Z</time></trkpt><trkpt lat="45.0708787896233" lon="8.695505229450415"><ele>87.0</ele><time>2026-05-03T08:11:03Z</time></trkpt><trkpt lat="45.070734601513294" lon="8.69515407050952"><ele>86.5</ele><time>2026-05-03T08:11:04Z</time></trkpt><trkpt lat="45.070609796882906" lon="8.694803767956595"><ele>86.0</ele><time>2026-05-03T08:11:05Z</time></trkpt><trkpt lat="45.07046799728265" lon="8.694442894695477"><ele>86.5</ele><time>2026-05-03T08:11:06Z</time></trkpt><trkpt lat="45.07033314282635" lon="8.694084973160265"><ele>87.0</ele><time>2026-05-03T08:11:07Z</time></trkpt><trkpt lat="45.07019559569566" lon="8.69372714716642"><ele>87.0</ele><time>2026-05-03T08:11:08Z</time></trkpt><trkpt lat="45.07005817652848" lon="8.693373234931093"><ele>87.0</ele><time>2026-05-03T08:11:09Z</time></trkpt><trkpt lat="45.06991237272147" lon="8.693010650585272"><ele>87.0</ele><time>2026-05-03T08:11:10Z</time></trkpt><trkpt lat="45.069763622865224" lon="8.692650064620446"><ele>87.0</ele><time>2026-05-03T08:11:11Z</time></trkpt><trkpt lat="45.069613726771635" lon="8.692282191913096"><ele>88.0</ele><time>2026-05-03T08:11:12Z</time></trkpt><trkpt lat="45.069463973347624" lon="8.691904580725941"><ele>89.0</ele><time>2026-05-03T08:11:13Z</time></trkpt><trkpt lat="45.069306501107945" lon="8.691532241094707"><ele>89.0</ele><time>2026-05-03T08:11:14Z</time></trkpt><trkpt lat="45.069157933941504" lon="8.691164631967235"><ele>89.0</ele><time>2026-05-03T08:11:14.999Z</time></trkpt><trkpt lat="45.06901031065375" lon="8.690786480786867"><ele>87.5</ele><time>2026-05-03T08:11:15.999Z</time></trkpt><trkpt lat="45.06886475596086" lon="8.690419546565854"><ele>86.0</ele><time>2026-05-03T08:11:16.999Z</time></trkpt><trkpt lat="45.068714542673405" lon="8.690053479423266"><ele>86.0</ele><time>2026-05-03T08:11:17.999Z</time></trkpt><trkpt lat="45.068571114126655" lon="8.689686170091166"><ele>86.0</ele><time>2026-05-03T08:11:18.999Z</time></trkpt><trkpt lat="45.06840937081278" lon="8.689314738718611"><ele>86.0</ele><time>2026-05-03T08:11:19.999Z</time></trkpt><trkpt lat="45.06826106370135" lon="8.688946361135054"><ele>86.0</ele><time>2026-05-03T08:11:20.999Z</time></trkpt><trkpt lat="45.06810769783" lon="8.68856970661814"><ele>86.0</ele><time>2026-05-03T08:11:21.999Z</time></trkpt><trkpt lat="45.0679612839597" lon="8.68819154379259"><ele>86.0</ele><time>2026-05-03T08:11:22.999Z</time></trkpt><trkpt lat="45.067814114980855" lon="8.687815251634467"><ele>85.5</ele><time>2026-05-03T08:11:23.999Z</time></trkpt><trkpt lat="45.067665364320966" lon="8.687440903230696"><ele>85.0</ele><time>2026-05-03T08:11:24.999Z</time></trkpt><trkpt lat="45.06751346600371" lon="8.68706863776776"><ele>84.5</ele><time>2026-05-03T08:11:25.999Z</time></trkpt><trkpt lat="45.067372507931545" lon="8.6866938725136"><ele>84.0</ele><time>2026-05-03T08:11:26.999Z</time></trkpt><trkpt lat="45.06722142863916" lon="8.686316473503751"><ele>84.5</ele><time>2026-05-03T08:11:27.999Z</time></trkpt><trkpt lat="45.06708059493983" lon="8.685951149910137"><ele>85.0</ele><time>2026-05-03T08:11:28.999Z</time></trkpt><trkpt lat="45.06693828987831" lon="8.685591200074597"><ele>85.5</ele><time>2026-05-03T08:11:29.999Z</time></trkpt><trkpt lat="45.06680095787015" lon="8.685231190450546"><ele>86.0</ele><time>2026-05-03T08:11:30.999Z</time></trkpt><trkpt lat="45.06665718934198" lon="8.68487375017381"><ele>85.5</ele><time>2026-05-03T08:11:31.999Z</time></trkpt><trkpt lat="45.066514009707866" lon="8.684514185172596"><ele>85.0</ele><time>2026-05-03T08:11:32.999Z</time></trkpt><trkpt lat="45.06637403920472" lon="8.684154042519797"><ele>85.0</ele><time>2026-05-03T08:11:33.999Z</time></trkpt><trkpt lat="45.06622718455238" lon="8.683795958953805"><ele>85.0</ele><time>2026-05-03T08:11:34.999Z</time></trkpt><trkpt lat="45.06607979572947" lon="8.683430253372993"><ele>85.5</ele><time>2026-05-03T08:11:35.999Z</time></trkpt><trkpt lat="45.06592928690082" lon="8.683063203250653"><ele>86.0</ele><time>2026-05-03T08:11:36.999Z</time></trkpt><trkpt lat="45.065784526297364" lon="8.68269783018397"><ele>86.0</ele><time>2026-05-03T08:11:37.999Z</time></trkpt><trkpt lat="45.06564504714561" lon="8.68232966206936"><ele>86.0</ele><time>2026-05-03T08:11:38.999Z</time></trkpt><trkpt lat="45.065505986208" lon="8.681965779141974"><ele>85.5</ele><time>2026-05-03T08:11:39.999Z</time></trkpt><trkpt lat="45.06536398629703" lon="8.681604859992698"><ele>85.0</ele><time>2026-05-03T08:11:40.999Z</time></trkpt><trkpt lat="45.065223326944185" lon="8.681249118355582"><ele>85.5</ele><time>2026-05-03T08:11:41.999Z</time></trkpt><trkpt lat="45.065092215213646" lon="8.680906104790159"><ele>86.0</ele><time>2026-05-03T08:11:42.999Z</time></trkpt><trkpt lat="45.06495581939665" lon="8.680568312577211"><ele>86.5</ele><time>2026-05-03T08:11:43.999Z</time></trkpt><trkpt lat="45.06482772723339" lon="8.680235360646417"><ele>87.0</ele><time>2026-05-03T08:11:44.999Z</time></trkpt><trkpt lat="45.06469734299113" lon="8.679903842204979"><ele>87.0</ele><time>2026-05-03T08:11:45.999Z</time></trkpt><trkpt lat="45.06456509186878" lon="8.679577300349996"><ele>87.0</ele><time>2026-05-03T08:11:46.999Z</time></trkpt><trkpt lat="45.06444178728464" lon="8.679252715051264"><ele>87.5</ele><time>2026-05-03T08:11:47.999Z</time></trkpt><trkpt lat="45.06431023589967" lon="8.678927291434565"><ele>88.0</ele><time>2026-05-03T08:11:48.999Z</time></trkpt><trkpt lat="45.06417011987028" lon="8.678596823744474"><ele>87.5</ele><time>2026-05-03T08:11:49.999Z</time></trkpt><trkpt lat="45.0640419592656" lon="8.678262755986866"><ele>87.0</ele><time>2026-05-03T08:11:50.999Z</time></trkpt><trkpt lat="45.06391561143565" lon="8.677936404684049"><ele>87.5</ele><time>2026-05-03T08:11:51.999Z</time></trkpt><trkpt lat="45.06378072115252" lon="8.677627120560164"><ele>88.0</ele><time>2026-05-03T08:11:52.999Z</time></trkpt><trkpt lat="45.063660811798044" lon="8.677326623838168"><ele>88.0</ele><time>2026-05-03T08:11:53.999Z</time></trkpt><trkpt lat="45.063547815065334" lon="8.677038722428298"><ele>88.0</ele><time>2026-05-03T08:11:54.999Z</time></trkpt><trkpt lat="45.06344108484397" lon="8.676768678918988"><ele>88.33333333333333</ele><time>2026-05-03T08:11:55.999Z</time></trkpt><trkpt lat="45.06333914499409" lon="8.67650817816575"><ele>88.66666666666667</ele><time>2026-05-03T08:11:56.999Z</time></trkpt><trkpt lat="45.06322985886325" lon="8.676256299165473"><ele>89.0</ele><time>2026-05-03T08:11:57.999Z</time></trkpt><trkpt lat="45.06313284448235" lon="8.676014399908384"><ele>89.0</ele><time>2026-05-03T08:11:58.999Z</time></trkpt><trkpt lat="45.0630451819539" lon="8.675779245857715"><ele>89.0</ele><time>2026-05-03T08:11:59.999Z</time></trkpt><trkpt lat="45.0629505342192" lon="8.67555074478885"><ele>89.0</ele><time>2026-05-03T08:12:00.999Z</time></trkpt><trkpt lat="45.06286434744954" lon="8.675332924098186"><ele>88.66666666666667</ele><time>2026-05-03T08:12:01.999Z</time></trkpt><trkpt lat="45.062779050093475" lon="8.67512346583864"><ele>88.33333333333333</ele><time>2026-05-03T08:12:02.999Z</time></trkpt><trkpt lat="45.06269776071434" lon="8.674921908969692"><ele>88.0</ele><time>2026-05-03T08:12:03.999Z</time></trkpt><trkpt lat="45.06261907396021" lon="8.674731407394281"><ele>88.0</ele><time>2026-05-03T08:12:04.999Z</time></trkpt><trkpt lat="45.062538410561096" lon="8.674539291373517"><ele>88.0</ele><time>2026-05-03T08:12:05.999Z</time></trkpt><trkpt lat="45.06245959190321" lon="8.674350046926518"><ele>88.0</ele><time>2026-05-03T08:12:06.999Z</time></trkpt><trkpt lat="45.062387482131044" lon="8.674162122957213"><ele>88.5</ele><time>2026-05-03T08:12:07.999Z</time></trkpt><trkpt lat="45.06231011180197" lon="8.673976313980262"><ele>89.0</ele><time>2026-05-03T08:12:08.999Z</time></trkpt><trkpt lat="45.0622340810129" lon="8.673793693006107"><ele>89.5</ele><time>2026-05-03T08:12:09.999Z</time></trkpt><trkpt lat="45.06215956311555" lon="8.673614360766873"><ele>90.0</ele><time>2026-05-03T08:12:10.999Z</time></trkpt><trkpt lat="45.062084779707256" lon="8.67343821736619"><ele>90.0</ele><time>2026-05-03T08:12:11.999Z</time></trkpt><trkpt lat="45.06201608052898" lon="8.673264876545655"><ele>90.0</ele><time>2026-05-03T08:12:13Z</time></trkpt><trkpt lat="45.061952589647554" lon="8.673107015929869"><ele>90.0</ele><time>2026-05-03T08:12:14Z</time></trkpt><trkpt lat="45.06189470373882" lon="8.672954666641616"><ele>90.0</ele><time>2026-05-03T08:12:15Z</time></trkpt><trkpt lat="45.06183776717218" lon="8.672814188607568"><ele>89.8</ele><time>2026-05-03T08:12:16Z</time></trkpt><trkpt lat="45.06177998759735" lon="8.67267370376333"><ele>89.6</ele><time>2026-05-03T08:12:17Z</time></trkpt><trkpt lat="45.06172351717553" lon="8.672533515858435"><ele>89.4</ele><time>2026-05-03T08:12:18Z</time></trkpt><trkpt lat="45.06166350364065" lon="8.672403888395657"><ele>89.2</ele><time>2026-05-03T08:12:19Z</time></trkpt><trkpt lat="45.06161746891564" lon="8.672281761635388"><ele>89.0</ele><time>2026-05-03T08:12:20Z</time></trkpt><trkpt lat="45.06158807782202" lon="8.67217657969953"><ele>89.33333333333334</ele><time>2026-05-03T08:12:21Z</time></trkpt><trkpt lat="45.06156109604161" lon="8.672095606730009"><ele>89.66666666666667</ele><time>2026-05-03T08:12:22Z</time></trkpt><trkpt lat="45.06152827022837" lon="8.671975523687903"><ele>90.0</ele><time>2026-05-03T08:12:24Z</time></trkpt><trkpt lat="45.06142911823588" lon="8.67190926017666"><ele>90.33333333333333</ele><time>2026-05-03T08:12:26Z</time></trkpt><trkpt lat="45.06134906336576" lon="8.671919301390444"><ele>90.66666666666666</ele><time>2026-05-03T08:12:27Z</time></trkpt><trkpt lat="45.06127460711787" lon="8.671908879384064"><ele>91.0</ele><time>2026-05-03T08:12:28Z</time></trkpt><trkpt lat="45.06120636040049" lon="8.67193475940014"><ele>91.0</ele><time>2026-05-03T08:12:29Z</time></trkpt><trkpt lat="45.06113188388085" lon="8.67192206617629"><ele>91.0</ele><time>2026-05-03T08:12:30Z</time></trkpt><trkpt lat="45.061059540442" lon="8.671857675061156"><ele>91.0</ele><time>2026-05-03T08:12:31Z</time></trkpt><trkpt lat="45.06108258994427" lon="8.67175823452657"><ele>91.0</ele><time>2026-05-03T08:12:32Z</time></trkpt><trkpt lat="45.06105140265259" lon="8.671611503419994"><ele>91.0</ele><time>2026-05-03T08:12:33Z</time></trkpt><trkpt lat="45.061013616561326" lon="8.67148220118786"><ele>91.0</ele><time>2026-05-03T08:12:34Z</time></trkpt><trkpt lat="45.060980553268" lon="8.67135508150916"><ele>91.0</ele><time>2026-05-03T08:12:35Z</time></trkpt><trkpt lat="45.06094671318472" lon="8.67121186822479"><ele>91.0</ele><time>2026-05-03T08:12:36Z</time></trkpt><trkpt lat="45.06091401233926" lon="8.671069514327408"><ele>91.0</ele><time>2026-05-03T08:12:37Z</time></trkpt><trkpt lat="45.06086926420874" lon="8.670932643904015"><ele>91.0</ele><time>2026-05-03T08:12:38Z</time></trkpt><trkpt lat="45.060828903601916" lon="8.67078605148429"><ele>91.0</ele><time>2026-05-03T08:12:39Z</time></trkpt><trkpt lat="45.060778523511495" lon="8.670634543240862"><ele>91.0</ele><time>2026-05-03T08:12:40Z</time></trkpt><trkpt lat="45.06072651870702" lon="8.670474824435127"><ele>91.0</ele><time>2026-05-03T08:12:41Z</time></trkpt><trkpt lat="45.06067411752272" lon="8.670321345758364"><ele>91.0</ele><time>2026-05-03T08:12:42Z</time></trkpt><trkpt lat="45.06063047350459" lon="8.67016680157997"><ele>91.0</ele><time>2026-05-03T08:12:43Z</time></trkpt><trkpt lat="45.06058241865379" lon="8.670018736659626"><ele>91.0</ele><time>2026-05-03T08:12:44Z</time></trkpt><trkpt lat="45.06052109704405" lon="8.669853802689225"><ele>91.0</ele><time>2026-05-03T08:12:45Z</time></trkpt><trkpt lat="45.06044941371816" lon="8.66971834583003"><ele>91.0</ele><time>2026-05-03T08:12:46Z</time></trkpt><trkpt lat="45.060377537282925" lon="8.669602168825532"><ele>91.0</ele><time>2026-05-03T08:12:47Z</time></trkpt><trkpt lat="45.06030554954797" lon="8.669465011272468"><ele>90.83333333333333</ele><time>2026-05-03T08:12:48Z</time></trkpt><trkpt lat="45.06025631674863" lon="8.669363695016477"><ele>90.66666666666666</ele><time>2026-05-03T08:12:49Z</time></trkpt><trkpt lat="45.06019564127769" lon="8.669258167737624"><ele>90.5</ele><time>2026-05-03T08:12:50Z</time></trkpt><trkpt lat="45.060141898771874" lon="8.669180277334851"><ele>90.33333333333333</ele><time>2026-05-03T08:12:51Z</time></trkpt><trkpt lat="45.06006564198771" lon="8.669166531612198"><ele>90.16666666666667</ele><time>2026-05-03T08:12:52Z</time></trkpt><trkpt lat="45.05998231919769" lon="8.669180281829268"><ele>90.0</ele><time>2026-05-03T08:12:53Z</time></trkpt><trkpt lat="45.059891422570544" lon="8.669175041974036"><ele>90.0</ele><time>2026-05-03T08:12:54Z</time></trkpt><trkpt lat="45.05978695684789" lon="8.669132527730447"><ele>90.0</ele><time>2026-05-03T08:12:55Z</time></trkpt><trkpt lat="45.05969634186796" lon="8.669065024313344"><ele>90.0</ele><time>2026-05-03T08:12:56Z</time></trkpt><trkpt lat="45.05960274611358" lon="8.669011051509523"><ele>90.0</ele><time>2026-05-03T08:12:57Z</time></trkpt><trkpt lat="45.05949050691651" lon="8.668962839161043"><ele>90.0</ele><time>2026-05-03T08:12:58Z</time></trkpt><trkpt lat="45.05937000836392" lon="8.668910334821645"><ele>90.0</ele><time>2026-05-03T08:12:59Z</time></trkpt><trkpt lat="45.05924738024304" lon="8.6688576899365"><ele>90.0</ele><time>2026-05-03T08:13:00Z</time></trkpt><trkpt lat="45.05912094192571" lon="8.668807603218285"><ele>90.0</ele><time>2026-05-03T08:13:01Z</time></trkpt><trkpt lat="45.058983182661876" lon="8.668746392593007"><ele>90.0</ele><time>2026-05-03T08:13:02Z</time></trkpt><trkpt lat="45.05884337548331" lon="8.668687647544251"><ele>90.33333333333333</ele><time>2026-05-03T08:13:03Z</time></trkpt><trkpt lat="45.058693283195815" lon="8.668626408484997"><ele>90.66666666666666</ele><time>2026-05-03T08:13:04Z</time></trkpt><trkpt lat="45.05855463916501" lon="8.668562373549602"><ele>91.0</ele><time>2026-05-03T08:13:05Z</time></trkpt><trkpt lat="45.058413463404314" lon="8.66849755473745"><ele>90.66666666666666</ele><time>2026-05-03T08:13:06Z</time></trkpt><trkpt lat="45.058264568907575" lon="8.668432531086495"><ele>90.33333333333333</ele><time>2026-05-03T08:13:07Z</time></trkpt><trkpt lat="45.05810825982838" lon="8.668365575371904"><ele>90.0</ele><time>2026-05-03T08:13:08Z</time></trkpt><trkpt lat="45.05794575098472" lon="8.668304657637837"><ele>90.0</ele><time>2026-05-03T08:13:09Z</time></trkpt><trkpt lat="45.05778862842875" lon="8.668237958010572"><ele>90.0</ele><time>2026-05-03T08:13:10Z</time></trkpt><trkpt lat="45.057632746714134" lon="8.668174166997645"><ele>90.0</ele><time>2026-05-03T08:13:11Z</time></trkpt><trkpt lat="45.05746407696872" lon="8.668100260782097"><ele>88.66666666666667</ele><time>2026-05-03T08:13:12Z</time></trkpt><trkpt lat="45.05730217452577" lon="8.66802209447288"><ele>87.33333333333334</ele><time>2026-05-03T08:13:13Z</time></trkpt><trkpt lat="45.057138071368385" lon="8.667936647257633"><ele>86.0</ele><time>2026-05-03T08:13:14Z</time></trkpt><trkpt lat="45.056959410820326" lon="8.667855811050996"><ele>86.33333333333334</ele><time>2026-05-03T08:13:15Z</time></trkpt><trkpt lat="45.05676780957678" lon="8.667767972548882"><ele>86.66666666666667</ele><time>2026-05-03T08:13:16Z</time></trkpt><trkpt lat="45.05657183590055" lon="8.667676552418886"><ele>87.0</ele><time>2026-05-03T08:13:17Z</time></trkpt><trkpt lat="45.05635852602978" lon="8.667591301203865"><ele>88.0</ele><time>2026-05-03T08:13:18Z</time></trkpt><trkpt lat="45.05613408942135" lon="8.667508790383714"><ele>89.0</ele><time>2026-05-03T08:13:19Z</time></trkpt><trkpt lat="45.055902627931786" lon="8.667411138201906"><ele>89.5</ele><time>2026-05-03T08:13:20Z</time></trkpt><trkpt lat="45.05567472624088" lon="8.667285327406278"><ele>90.0</ele><time>2026-05-03T08:13:21Z</time></trkpt><trkpt lat="45.05544211440704" lon="8.667180751488342"><ele>90.0</ele><time>2026-05-03T08:13:22Z</time></trkpt><trkpt lat="45.055216376506515" lon="8.667079265903274"><ele>90.0</ele><time>2026-05-03T08:13:23Z</time></trkpt><trkpt lat="45.05498955578179" lon="8.666977293505909"><ele>89.0</ele><time>2026-05-03T08:13:24Z</time></trkpt><trkpt lat="45.054748554694534" lon="8.666868177566792"><ele>88.0</ele><time>2026-05-03T08:13:25Z</time></trkpt><trkpt lat="45.05450610097113" lon="8.666759323258272"><ele>88.0</ele><time>2026-05-03T08:13:25.999Z</time></trkpt><trkpt lat="45.054257274383" lon="8.666647607725457"><ele>88.0</ele><time>2026-05-03T08:13:26.999Z</time></trkpt><trkpt lat="45.05400377717204" lon="8.666533795229869"><ele>88.0</ele><time>2026-05-03T08:13:27.999Z</time></trkpt><trkpt lat="45.05373352867616" lon="8.666429982026823"><ele>88.0</ele><time>2026-05-03T08:13:28.999Z</time></trkpt><trkpt lat="45.053447518637306" lon="8.666304984122272"><ele>87.5</ele><time>2026-05-03T08:13:29.999Z</time></trkpt><trkpt lat="45.05315525153838" lon="8.66617153732309"><ele>87.0</ele><time>2026-05-03T08:13:30.999Z</time></trkpt><trkpt lat="45.05287206114349" lon="8.666039694890241"><ele>87.0</ele><time>2026-05-03T08:13:31.999Z</time></trkpt><trkpt lat="45.05259260688667" lon="8.665915760959791"><ele>87.0</ele><time>2026-05-03T08:13:32.999Z</time></trkpt><trkpt lat="45.05232476108561" lon="8.665790769070622"><ele>88.0</ele><time>2026-05-03T08:13:33.999Z</time></trkpt><trkpt lat="45.052060019458175" lon="8.665673009778494"><ele>89.0</ele><time>2026-05-03T08:13:34.999Z</time></trkpt><trkpt lat="45.05179938066118" lon="8.665548359087444"><ele>88.5</ele><time>2026-05-03T08:13:35.999Z</time></trkpt><trkpt lat="45.05153480651293" lon="8.66543242563023"><ele>88.0</ele><time>2026-05-03T08:13:36.999Z</time></trkpt><trkpt lat="45.05127928205341" lon="8.665316511938117"><ele>88.0</ele><time>2026-05-03T08:13:37.999Z</time></trkpt><trkpt lat="45.05102086454541" lon="8.665207222977816"><ele>88.0</ele><time>2026-05-03T08:13:38.999Z</time></trkpt><trkpt lat="45.05077499886201" lon="8.665101355339738"><ele>88.0</ele><time>2026-05-03T08:13:39.999Z</time></trkpt><trkpt lat="45.05053635746273" lon="8.664988168599223"><ele>88.0</ele><time>2026-05-03T08:13:40.999Z</time></trkpt><trkpt lat="45.050300885019865" lon="8.664878545818182"><ele>88.0</ele><time>2026-05-03T08:13:41.999Z</time></trkpt><trkpt lat="45.05007082575297" lon="8.664780212228829"><ele>88.0</ele><time>2026-05-03T08:13:42.999Z</time></trkpt><trkpt lat="45.04985270656834" lon="8.664690136934569"><ele>88.0</ele><time>2026-05-03T08:13:43.999Z</time></trkpt><trkpt lat="45.04965232767818" lon="8.66460067671672"><ele>88.0</ele><time>2026-05-03T08:13:44.999Z</time></trkpt><trkpt lat="45.04947171678482" lon="8.664511478380636"><ele>88.0</ele><time>2026-05-03T08:13:45.999Z</time></trkpt><trkpt lat="45.04929335115391" lon="8.664436340515959"><ele>88.0</ele><time>2026-05-03T08:13:46.999Z</time></trkpt><trkpt lat="45.04913508758338" lon="8.664364635299181"><ele>88.0</ele><time>2026-05-03T08:13:47.999Z</time></trkpt><trkpt lat="45.04900597445193" lon="8.66426757054278"><ele>88.0</ele><time>2026-05-03T08:13:48.999Z</time></trkpt><trkpt lat="45.04890486514871" lon="8.664142800420551"><ele>88.0</ele><time>2026-05-03T08:13:49.999Z</time></trkpt><trkpt lat="45.048828026431835" lon="8.66401150222149"><ele>88.25</ele><time>2026-05-03T08:13:50.999Z</time></trkpt><trkpt lat="45.04877162907966" lon="8.663866585218257"><ele>88.5</ele><time>2026-05-03T08:13:51.999Z</time></trkpt><trkpt lat="45.048728428814464" lon="8.663702461023636"><ele>88.75</ele><time>2026-05-03T08:13:52.999Z</time></trkpt><trkpt lat="45.048693479782344" lon="8.663525143814818"><ele>89.0</ele><time>2026-05-03T08:13:53.999Z</time></trkpt><trkpt lat="45.04869980532592" lon="8.663305203779244"><ele>88.33333333333334</ele><time>2026-05-03T08:13:54.999Z</time></trkpt><trkpt lat="45.04874660441389" lon="8.663077587274122"><ele>87.66666666666667</ele><time>2026-05-03T08:13:55.999Z</time></trkpt><trkpt lat="45.04882264200178" lon="8.662863959286636"><ele>87.0</ele><time>2026-05-03T08:13:56.999Z</time></trkpt><trkpt lat="45.04891768619474" lon="8.662652449639296"><ele>87.0</ele><time>2026-05-03T08:13:57.999Z</time></trkpt><trkpt lat="45.04902828065462" lon="8.662416431154718"><ele>87.0</ele><time>2026-05-03T08:13:58.999Z</time></trkpt><trkpt lat="45.049137439775045" lon="8.662156364198554"><ele>87.0</ele><time>2026-05-03T08:13:59.999Z</time></trkpt><trkpt lat="45.0492438604288" lon="8.661897354369696"><ele>87.0</ele><time>2026-05-03T08:14:00.999Z</time></trkpt><trkpt lat="45.04935203270562" lon="8.661633262385763"><ele>87.0</ele><time>2026-05-03T08:14:01.999Z</time></trkpt><trkpt lat="45.049468417793896" lon="8.661361680896619"><ele>87.0</ele><time>2026-05-03T08:14:02.999Z</time></trkpt><trkpt lat="45.049585140075735" lon="8.661078736260551"><ele>87.5</ele><time>2026-05-03T08:14:03.999Z</time></trkpt><trkpt lat="45.049701680239075" lon="8.660790063783834"><ele>88.0</ele><time>2026-05-03T08:14:04.999Z</time></trkpt><trkpt lat="45.049821119165365" lon="8.660497270257999"><ele>88.0</ele><time>2026-05-03T08:14:05.999Z</time></trkpt><trkpt lat="45.04994392279005" lon="8.660210180735188"><ele>88.0</ele><time>2026-05-03T08:14:06.999Z</time></trkpt><trkpt lat="45.050065604676654" lon="8.659921218841411"><ele>88.5</ele><time>2026-05-03T08:14:07.999Z</time></trkpt><trkpt lat="45.05018979928133" lon="8.65963003620581"><ele>89.0</ele><time>2026-05-03T08:14:08.999Z</time></trkpt><trkpt lat="45.050315720484285" lon="8.659323576530968"><ele>90.5</ele><time>2026-05-03T08:14:09.999Z</time></trkpt><trkpt lat="45.050438342608366" lon="8.659023329999188"><ele>92.0</ele><time>2026-05-03T08:14:10.999Z</time></trkpt><trkpt lat="45.05055971276416" lon="8.658717170286522"><ele>93.5</ele><time>2026-05-03T08:14:11.999Z</time></trkpt><trkpt lat="45.050669418552765" lon="8.65839181541737"><ele>95.0</ele><time>2026-05-03T08:14:12.999Z</time></trkpt><trkpt lat="45.05076386462615" lon="8.658057117146994"><ele>93.0</ele><time>2026-05-03T08:14:13.999Z</time></trkpt><trkpt lat="45.05084361973638" lon="8.657707171906083"><ele>91.0</ele><time>2026-05-03T08:14:14.999Z</time></trkpt><trkpt lat="45.05092281474863" lon="8.657353658545652"><ele>91.0</ele><time>2026-05-03T08:14:15.999Z</time></trkpt><trkpt lat="45.051006933422066" lon="8.657002883490494"><ele>91.0</ele><time>2026-05-03T08:14:16.999Z</time></trkpt><trkpt lat="45.05109020301529" lon="8.656653003631158"><ele>90.0</ele><time>2026-05-03T08:14:17.999Z</time></trkpt><trkpt lat="45.05117270790167" lon="8.656298209226934"><ele>89.0</ele><time>2026-05-03T08:14:19Z</time></trkpt><trkpt lat="45.051254343762075" lon="8.655941372294784"><ele>88.5</ele><time>2026-05-03T08:14:20Z</time></trkpt><trkpt lat="45.05133667325777" lon="8.65559360967496"><ele>88.0</ele><time>2026-05-03T08:14:21Z</time></trkpt><trkpt lat="45.05141781800603" lon="8.655236073921332"><ele>88.0</ele><time>2026-05-03T08:14:22Z</time></trkpt><trkpt lat="45.05150099070411" lon="8.654875856403693"><ele>88.0</ele><time>2026-05-03T08:14:23Z</time></trkpt><trkpt lat="45.05158587386372" lon="8.654513456034291"><ele>88.5</ele><time>2026-05-03T08:14:24Z</time></trkpt><trkpt lat="45.051668759289015" lon="8.654144963612984"><ele>89.0</ele><time>2026-05-03T08:14:25Z</time></trkpt><trkpt lat="45.05175232831841" lon="8.653782713384492"><ele>89.0</ele><time>2026-05-03T08:14:26Z</time></trkpt><trkpt lat="45.05183380114882" lon="8.653417259253658"><ele>89.0</ele><time>2026-05-03T08:14:27Z</time></trkpt><trkpt lat="45.051918937154866" lon="8.653054449926815"><ele>89.0</ele><time>2026-05-03T08:14:28Z</time></trkpt><trkpt lat="45.05200186713936" lon="8.652692273608897"><ele>89.0</ele><time>2026-05-03T08:14:29Z</time></trkpt><trkpt lat="45.05208399235079" lon="8.652339621762886"><ele>89.0</ele><time>2026-05-03T08:14:30Z</time></trkpt><trkpt lat="45.05216183854355" lon="8.651982031938587"><ele>89.0</ele><time>2026-05-03T08:14:31Z</time></trkpt><trkpt lat="45.052243828043395" lon="8.651639516382637"><ele>88.5</ele><time>2026-05-03T08:14:32Z</time></trkpt><trkpt lat="45.05231445759568" lon="8.651321556892494"><ele>88.0</ele><time>2026-05-03T08:14:33Z</time></trkpt><trkpt lat="45.05238807289433" lon="8.651011228523213"><ele>88.0</ele><time>2026-05-03T08:14:34Z</time></trkpt><trkpt lat="45.0524517560528" lon="8.650718308524766"><ele>88.0</ele><time>2026-05-03T08:14:35Z</time></trkpt><trkpt lat="45.052514688828076" lon="8.650446295471635"><ele>88.0</ele><time>2026-05-03T08:14:36Z</time></trkpt><trkpt lat="45.05259132193182" lon="8.650181958875164"><ele>89.0</ele><time>2026-05-03T08:14:37Z</time></trkpt><trkpt lat="45.05269218527206" lon="8.649926545736404"><ele>90.0</ele><time>2026-05-03T08:14:38Z</time></trkpt><trkpt lat="45.05281821616272" lon="8.649688921703001"><ele>91.0</ele><time>2026-05-03T08:14:39Z</time></trkpt><trkpt lat="45.05296542137218" lon="8.649481678220836"><ele>91.0</ele><time>2026-05-03T08:14:40Z</time></trkpt><trkpt lat="45.05313354527027" lon="8.649298980446172"><ele>91.0</ele><time>2026-05-03T08:14:41Z</time></trkpt><trkpt lat="45.05332103291984" lon="8.64915412833385"><ele>91.0</ele><time>2026-05-03T08:14:42Z</time></trkpt><trkpt lat="45.05352061065637" lon="8.649013020206844"><ele>91.0</ele><time>2026-05-03T08:14:43Z</time></trkpt><trkpt lat="45.053736676141504" lon="8.648904994078055"><ele>91.0</ele><time>2026-05-03T08:14:44Z</time></trkpt><trkpt lat="45.05395881860969" lon="8.64880460855291"><ele>90.66666666666666</ele><time>2026-05-03T08:14:45Z</time></trkpt><trkpt lat="45.05416296303733" lon="8.648688170616664"><ele>90.33333333333333</ele><time>2026-05-03T08:14:46Z</time></trkpt><trkpt lat="45.05436051870825" lon="8.648594742426342"><ele>90.0</ele><time>2026-05-03T08:14:47Z</time></trkpt><trkpt lat="45.05453948386723" lon="8.648507968459748"><ele>90.0</ele><time>2026-05-03T08:14:48Z</time></trkpt><trkpt lat="45.05470618011443" lon="8.648479927492092"><ele>90.0</ele><time>2026-05-03T08:14:49Z</time></trkpt><trkpt lat="45.05483307724099" lon="8.648379173427688"><ele>90.0</ele><time>2026-05-03T08:14:50Z</time></trkpt><trkpt lat="45.05492232840525" lon="8.648235992675986"><ele>90.0</ele><time>2026-05-03T08:14:51Z</time></trkpt><trkpt lat="45.05496664227481" lon="8.648038793596495"><ele>90.0</ele><time>2026-05-03T08:14:52Z</time></trkpt><trkpt lat="45.05493646618353" lon="8.647807454201741"><ele>90.0</ele><time>2026-05-03T08:14:53Z</time></trkpt><trkpt lat="45.054890570204286" lon="8.647550585010059"><ele>90.0</ele><time>2026-05-03T08:14:54Z</time></trkpt><trkpt lat="45.05483039168066" lon="8.647289763609717"><ele>89.66666666666667</ele><time>2026-05-03T08:14:55Z</time></trkpt><trkpt lat="45.0547632285598" lon="8.647031079091608"><ele>89.33333333333334</ele><time>2026-05-03T08:14:56Z</time></trkpt><trkpt lat="45.05469530286026" lon="8.646778512019093"><ele>89.0</ele><time>2026-05-03T08:14:57Z</time></trkpt><trkpt lat="45.05462186533464" lon="8.646503345521033"><ele>89.0</ele><time>2026-05-03T08:14:58Z</time></trkpt><trkpt lat="45.05456384929989" lon="8.646237200524924"><ele>89.0</ele><time>2026-05-03T08:14:59Z</time></trkpt><trkpt lat="45.05449146025255" lon="8.64594842097591"><ele>89.0</ele><time>2026-05-03T08:15:00Z</time></trkpt><trkpt lat="45.054413797818626" lon="8.645636718138567"><ele>90.5</ele><time>2026-05-03T08:15:01Z</time></trkpt><trkpt lat="45.05433463772816" lon="8.64531098244343"><ele>92.0</ele><time>2026-05-03T08:15:02Z</time></trkpt><trkpt lat="45.05425332871384" lon="8.644979166544447"><ele>92.5</ele><time>2026-05-03T08:15:03Z</time></trkpt><trkpt lat="45.0541724481046" lon="8.644649691706363"><ele>93.0</ele><time>2026-05-03T08:15:04Z</time></trkpt><trkpt lat="45.054094085470666" lon="8.64432754809628"><ele>91.5</ele><time>2026-05-03T08:15:05Z</time></trkpt><trkpt lat="45.05401421562571" lon="8.64401098865866"><ele>90.0</ele><time>2026-05-03T08:15:06Z</time></trkpt><trkpt lat="45.053925859831836" lon="8.643689077903945"><ele>89.5</ele><time>2026-05-03T08:15:07Z</time></trkpt><trkpt lat="45.05384446427995" lon="8.64337255710587"><ele>89.0</ele><time>2026-05-03T08:15:08Z</time></trkpt><trkpt lat="45.053766017362804" lon="8.643042138750296"><ele>89.5</ele><time>2026-05-03T08:15:09Z</time></trkpt><trkpt lat="45.053681343994306" lon="8.642715347077365"><ele>90.0</ele><time>2026-05-03T08:15:10Z</time></trkpt><trkpt lat="45.05359927280948" lon="8.642384160659292"><ele>90.0</ele><time>2026-05-03T08:15:11Z</time></trkpt><trkpt lat="45.0535182203119" lon="8.642057737443835"><ele>90.0</ele><time>2026-05-03T08:15:12Z</time></trkpt><trkpt lat="45.05343421294985" lon="8.641751582639328"><ele>89.66666666666667</ele><time>2026-05-03T08:15:13Z</time></trkpt><trkpt lat="45.05334971686849" lon="8.641441580234325"><ele>89.33333333333334</ele><time>2026-05-03T08:15:14Z</time></trkpt><trkpt lat="45.05328877134644" lon="8.641155681159034"><ele>89.0</ele><time>2026-05-03T08:15:15Z</time></trkpt><trkpt lat="45.053215959784175" lon="8.640865403134312"><ele>89.0</ele><time>2026-05-03T08:15:16Z</time></trkpt><trkpt lat="45.053125531131954" lon="8.640573662729265"><ele>89.0</ele><time>2026-05-03T08:15:17Z</time></trkpt><trkpt lat="45.05306581684641" lon="8.640266827947343"><ele>90.5</ele><time>2026-05-03T08:15:18Z</time></trkpt><trkpt lat="45.0529895317989" lon="8.639965556899792"><ele>92.0</ele><time>2026-05-03T08:15:19Z</time></trkpt><trkpt lat="45.052910954548736" lon="8.639658498978106"><ele>92.0</ele><time>2026-05-03T08:15:20Z</time></trkpt><trkpt lat="45.052831745548986" lon="8.639345578067092"><ele>92.0</ele><time>2026-05-03T08:15:21Z</time></trkpt><trkpt lat="45.05275252849854" lon="8.639026464254515"><ele>92.0</ele><time>2026-05-03T08:15:22Z</time></trkpt><trkpt lat="45.052670886949514" lon="8.638699351239223"><ele>92.0</ele><time>2026-05-03T08:15:23Z</time></trkpt><trkpt lat="45.05258734700204" lon="8.638368093709124"><ele>93.0</ele><time>2026-05-03T08:15:24Z</time></trkpt><trkpt lat="45.05250602116837" lon="8.638041057360114"><ele>94.0</ele><time>2026-05-03T08:15:25Z</time></trkpt><trkpt lat="45.05241176272378" lon="8.637720668753103"><ele>94.0</ele><time>2026-05-03T08:15:26Z</time></trkpt><trkpt lat="45.05234895159678" lon="8.637384436893456"><ele>94.0</ele><time>2026-05-03T08:15:27Z</time></trkpt><trkpt lat="45.05227017328035" lon="8.637038056335419"><ele>93.0</ele><time>2026-05-03T08:15:28Z</time></trkpt><trkpt lat="45.052182487023344" lon="8.63670328363918"><ele>92.0</ele><time>2026-05-03T08:15:29Z</time></trkpt><trkpt lat="45.05211270110027" lon="8.636348504610432"><ele>91.0</ele><time>2026-05-03T08:15:30Z</time></trkpt><trkpt lat="45.052039148291854" lon="8.635994698363762"><ele>90.0</ele><time>2026-05-03T08:15:30.999Z</time></trkpt><trkpt lat="45.05195565595808" lon="8.635640601030524"><ele>90.0</ele><time>2026-05-03T08:15:31.999Z</time></trkpt><trkpt lat="45.05187214998866" lon="8.635298166757737"><ele>90.0</ele><time>2026-05-03T08:15:32.999Z</time></trkpt><trkpt lat="45.05178189856391" lon="8.634948229023923"><ele>90.0</ele><time>2026-05-03T08:15:33.999Z</time></trkpt><trkpt lat="45.051695245156864" lon="8.634586702572513"><ele>90.0</ele><time>2026-05-03T08:15:34.999Z</time></trkpt><trkpt lat="45.051622321547704" lon="8.634240674956613"><ele>88.0</ele><time>2026-05-03T08:15:35.999Z</time></trkpt><trkpt lat="45.051532017073" lon="8.633890265397602"><ele>86.0</ele><time>2026-05-03T08:15:36.999Z</time></trkpt><trkpt lat="45.051439496958615" lon="8.633532490012444"><ele>86.0</ele><time>2026-05-03T08:15:37.999Z</time></trkpt><trkpt lat="45.05135092313209" lon="8.633190897242493"><ele>86.0</ele><time>2026-05-03T08:15:38.999Z</time></trkpt><trkpt lat="45.05126194628886" lon="8.632839288098905"><ele>86.0</ele><time>2026-05-03T08:15:39.999Z</time></trkpt><trkpt lat="45.05116997734258" lon="8.632486006656471"><ele>86.0</ele><time>2026-05-03T08:15:40.999Z</time></trkpt><trkpt lat="45.05108217584079" lon="8.632139851845384"><ele>86.5</ele><time>2026-05-03T08:15:41.999Z</time></trkpt><trkpt lat="45.050999258398186" lon="8.63179547446919"><ele>87.0</ele><time>2026-05-03T08:15:42.999Z</time></trkpt><trkpt lat="45.05091525061007" lon="8.631453768811477"><ele>87.0</ele><time>2026-05-03T08:15:43.999Z</time></trkpt><trkpt lat="45.05083051726419" lon="8.631116098292782"><ele>87.0</ele><time>2026-05-03T08:15:44.999Z</time></trkpt><trkpt lat="45.05074258408129" lon="8.630781150231488"><ele>87.5</ele><time>2026-05-03T08:15:45.999Z</time></trkpt><trkpt lat="45.0506631517129" lon="8.630449891594186"><ele>88.0</ele><time>2026-05-03T08:15:46.999Z</time></trkpt><trkpt lat="45.05057509565645" lon="8.630115924917439"><ele>88.5</ele><time>2026-05-03T08:15:47.999Z</time></trkpt><trkpt lat="45.05048528428873" lon="8.629778530597749"><ele>89.0</ele><time>2026-05-03T08:15:48.999Z</time></trkpt><trkpt lat="45.05039554237404" lon="8.629435404240304"><ele>90.5</ele><time>2026-05-03T08:15:49.999Z</time></trkpt><trkpt lat="45.050298988894184" lon="8.629072260791547"><ele>92.0</ele><time>2026-05-03T08:15:50.999Z</time></trkpt><trkpt lat="45.05020743946688" lon="8.628709760494493"><ele>92.0</ele><time>2026-05-03T08:15:51.999Z</time></trkpt><trkpt lat="45.0501139004443" lon="8.628343338885932"><ele>92.0</ele><time>2026-05-03T08:15:52.999Z</time></trkpt><trkpt lat="45.05001692559811" lon="8.627975470126897"><ele>90.0</ele><time>2026-05-03T08:15:53.999Z</time></trkpt><trkpt lat="45.04991402878285" lon="8.627622805673129"><ele>88.0</ele><time>2026-05-03T08:15:54.999Z</time></trkpt><trkpt lat="45.04982188767443" lon="8.627271442276458"><ele>88.0</ele><time>2026-05-03T08:15:55.999Z</time></trkpt><trkpt lat="45.049725429235835" lon="8.626926186577894"><ele>88.0</ele><time>2026-05-03T08:15:56.999Z</time></trkpt><trkpt lat="45.04963348349989" lon="8.626591852203077"><ele>88.0</ele><time>2026-05-03T08:15:57.999Z</time></trkpt><trkpt lat="45.04954432052481" lon="8.626279218351328"><ele>88.0</ele><time>2026-05-03T08:15:58.999Z</time></trkpt><trkpt lat="45.04943248593248" lon="8.625972982675476"><ele>89.0</ele><time>2026-05-03T08:15:59.999Z</time></trkpt><trkpt lat="45.04930182023863" lon="8.625671593983501"><ele>90.0</ele><time>2026-05-03T08:16:00.999Z</time></trkpt><trkpt lat="45.0491782446061" lon="8.625361755323695"><ele>89.5</ele><time>2026-05-03T08:16:01.999Z</time></trkpt><trkpt lat="45.04906847635254" lon="8.625036700789801"><ele>89.0</ele><time>2026-05-03T08:16:02.999Z</time></trkpt><trkpt lat="45.04894080483032" lon="8.624727784802412"><ele>90.0</ele><time>2026-05-03T08:16:03.999Z</time></trkpt><trkpt lat="45.048802652868645" lon="8.624434522730247"><ele>91.0</ele><time>2026-05-03T08:16:04.999Z</time></trkpt><trkpt lat="45.04866128972667" lon="8.624143791126881"><ele>91.0</ele><time>2026-05-03T08:16:05.999Z</time></trkpt><trkpt lat="45.048520022294376" lon="8.623852917115528"><ele>91.0</ele><time>2026-05-03T08:16:06.999Z</time></trkpt><trkpt lat="45.04837081654046" lon="8.623575733388108"><ele>89.5</ele><time>2026-05-03T08:16:07.999Z</time></trkpt><trkpt lat="45.04820889376845" lon="8.623302137961604"><ele>88.0</ele><time>2026-05-03T08:16:08.999Z</time></trkpt><trkpt lat="45.0480260238716" lon="8.623044969996213"><ele>90.0</ele><time>2026-05-03T08:16:09.999Z</time></trkpt><trkpt lat="45.047847669359875" lon="8.622795550879438"><ele>92.0</ele><time>2026-05-03T08:16:10.999Z</time></trkpt><trkpt lat="45.04766340201358" lon="8.622547449540127"><ele>92.0</ele><time>2026-05-03T08:16:11.999Z</time></trkpt><trkpt lat="45.04746682618685" lon="8.622316468433391"><ele>92.0</ele><time>2026-05-03T08:16:12.999Z</time></trkpt><trkpt lat="45.04726778229086" lon="8.622092135919482"><ele>91.5</ele><time>2026-05-03T08:16:13.999Z</time></trkpt><trkpt lat="45.04708211989175" lon="8.621865058651139"><ele>91.0</ele><time>2026-05-03T08:16:14.999Z</time></trkpt><trkpt lat="45.04688833970014" lon="8.621698818886909"><ele>91.0</ele><time>2026-05-03T08:16:15.999Z</time></trkpt><trkpt lat="45.04669375022067" lon="8.62151787687765"><ele>91.0</ele><time>2026-05-03T08:16:16.999Z</time></trkpt><trkpt lat="45.046489278477864" lon="8.621347523687879"><ele>91.0</ele><time>2026-05-03T08:16:17.999Z</time></trkpt><trkpt lat="45.04627828479" lon="8.62119351820294"><ele>91.0</ele><time>2026-05-03T08:16:18.999Z</time></trkpt><trkpt lat="45.04607893344791" lon="8.621054329802647"><ele>91.0</ele><time>2026-05-03T08:16:19.999Z</time></trkpt><trkpt lat="45.045889968803536" lon="8.620939196224086"><ele>91.0</ele><time>2026-05-03T08:16:20.999Z</time></trkpt><trkpt lat="45.04570385172405" lon="8.620842938047206"><ele>91.0</ele><time>2026-05-03T08:16:21.999Z</time></trkpt><trkpt lat="45.045525724016265" lon="8.620771083001987"><ele>90.5</ele><time>2026-05-03T08:16:22.999Z</time></trkpt><trkpt lat="45.04535657634507" lon="8.620744352528781"><ele>90.0</ele><time>2026-05-03T08:16:23.999Z</time></trkpt><trkpt lat="45.04521486904038" lon="8.620721372132994"><ele>89.5</ele><time>2026-05-03T08:16:25Z</time></trkpt><trkpt lat="45.045094341012785" lon="8.620654453483505"><ele>89.0</ele><time>2026-05-03T08:16:26Z</time></trkpt><trkpt lat="45.044982400444155" lon="8.620557905954392"><ele>89.25</ele><time>2026-05-03T08:16:27Z</time></trkpt><trkpt lat="45.04488874099614" lon="8.620423565966082"><ele>89.5</ele><time>2026-05-03T08:16:28Z</time></trkpt><trkpt lat="45.04483763588768" lon="8.620263818834198"><ele>89.75</ele><time>2026-05-03T08:16:29Z</time></trkpt><trkpt lat="45.04482959938271" lon="8.620086471181407"><ele>90.0</ele><time>2026-05-03T08:16:30Z</time></trkpt><trkpt lat="45.04485183148758" lon="8.61991363548202"><ele>90.0</ele><time>2026-05-03T08:16:31Z</time></trkpt><trkpt lat="45.04493868123469" lon="8.619734441315865"><ele>90.0</ele><time>2026-05-03T08:16:32Z</time></trkpt><trkpt lat="45.044997189041005" lon="8.619542534230522"><ele>90.0</ele><time>2026-05-03T08:16:33Z</time></trkpt><trkpt lat="45.04505190629896" lon="8.619349390124016"><ele>90.0</ele><time>2026-05-03T08:16:34Z</time></trkpt><trkpt lat="45.04510604406894" lon="8.619156801693796"><ele>90.0</ele><time>2026-05-03T08:16:35Z</time></trkpt><trkpt lat="45.045183688673525" lon="8.618966268347696"><ele>90.0</ele><time>2026-05-03T08:16:36Z</time></trkpt><trkpt lat="45.045285604359044" lon="8.618785375088468"><ele>90.0</ele><time>2026-05-03T08:16:37Z</time></trkpt><trkpt lat="45.0454178655682" lon="8.618651475101874"><ele>88.66666666666667</ele><time>2026-05-03T08:16:38Z</time></trkpt><trkpt lat="45.0455776222873" lon="8.618588828183999"><ele>87.33333333333334</ele><time>2026-05-03T08:16:39Z</time></trkpt><trkpt lat="45.04574300714485" lon="8.6185538149547"><ele>86.0</ele><time>2026-05-03T08:16:40Z</time></trkpt><trkpt lat="45.04591756062024" lon="8.618557607463512"><ele>86.0</ele><time>2026-05-03T08:16:41Z</time></trkpt><trkpt lat="45.04609608412705" lon="8.618597564507427"><ele>86.0</ele><time>2026-05-03T08:16:42Z</time></trkpt><trkpt lat="45.04627786362445" lon="8.618639602575719"><ele>86.0</ele><time>2026-05-03T08:16:43Z</time></trkpt><trkpt lat="45.04646396099038" lon="8.61867135038663"><ele>86.66666666666667</ele><time>2026-05-03T08:16:44Z</time></trkpt><trkpt lat="45.0466619706098" lon="8.618713517157587"><ele>87.33333333333333</ele><time>2026-05-03T08:16:45Z</time></trkpt><trkpt lat="45.046869088785726" lon="8.618759081863736"><ele>88.0</ele><time>2026-05-03T08:16:46Z</time></trkpt><trkpt lat="45.04708581682097" lon="8.618799351197893"><ele>88.0</ele><time>2026-05-03T08:16:47Z</time></trkpt><trkpt lat="45.047306139450775" lon="8.61886665584051"><ele>88.0</ele><time>2026-05-03T08:16:48Z</time></trkpt><trkpt lat="45.04753445099512" lon="8.618893536931907"><ele>88.5</ele><time>2026-05-03T08:16:49Z</time></trkpt><trkpt lat="45.047759885555635" lon="8.618950294794411"><ele>89.0</ele><time>2026-05-03T08:16:50Z</time></trkpt><trkpt lat="45.04798345433588" lon="8.619002249395132"><ele>89.0</ele><time>2026-05-03T08:16:51Z</time></trkpt><trkpt lat="45.048210621832666" lon="8.619048689125632"><ele>89.0</ele><time>2026-05-03T08:16:52Z</time></trkpt><trkpt lat="45.04844384253948" lon="8.619097076232487"><ele>89.5</ele><time>2026-05-03T08:16:53Z</time></trkpt><trkpt lat="45.04867804299274" lon="8.619143134787173"><ele>90.0</ele><time>2026-05-03T08:16:54Z</time></trkpt><trkpt lat="45.0489144240758" lon="8.619215233128264"><ele>89.0</ele><time>2026-05-03T08:16:55Z</time></trkpt><trkpt lat="45.04914378190432" lon="8.619257888064345"><ele>88.0</ele><time>2026-05-03T08:16:56Z</time></trkpt><trkpt lat="45.04936835780658" lon="8.619314236280724"><ele>88.0</ele><time>2026-05-03T08:16:57Z</time></trkpt><trkpt lat="45.049594834844115" lon="8.619361114358716"><ele>88.0</ele><time>2026-05-03T08:16:58Z</time></trkpt><trkpt lat="45.04981090963647" lon="8.619410953613503"><ele>88.0</ele><time>2026-05-03T08:16:59Z</time></trkpt><trkpt lat="45.05001624403563" lon="8.61945972836987"><ele>89.33333333333333</ele><time>2026-05-03T08:17:00Z</time></trkpt><trkpt lat="45.05021034143074" lon="8.619513098255123"><ele>90.66666666666667</ele><time>2026-05-03T08:17:01Z</time></trkpt><trkpt lat="45.05041366283807" lon="8.61953697786139"><ele>92.0</ele><time>2026-05-03T08:17:02Z</time></trkpt><trkpt lat="45.05062013633707" lon="8.619509863803108"><ele>90.66666666666667</ele><time>2026-05-03T08:17:03Z</time></trkpt><trkpt lat="45.05082564724792" lon="8.619436626643813"><ele>89.33333333333333</ele><time>2026-05-03T08:17:04Z</time></trkpt><trkpt lat="45.051022391235804" lon="8.619332183377988"><ele>88.0</ele><time>2026-05-03T08:17:05Z</time></trkpt><trkpt lat="45.05120603338048" lon="8.619178187345051"><ele>88.0</ele><time>2026-05-03T08:17:06Z</time></trkpt><trkpt lat="45.051379660020324" lon="8.618982324752825"><ele>88.0</ele><time>2026-05-03T08:17:07Z</time></trkpt><trkpt lat="45.05154057451121" lon="8.618750047472167"><ele>87.0</ele><time>2026-05-03T08:17:08Z</time></trkpt><trkpt lat="45.051711116160114" lon="8.618502457864118"><ele>86.0</ele><time>2026-05-03T08:17:09Z</time></trkpt><trkpt lat="45.051878810087146" lon="8.618264557620932"><ele>86.0</ele><time>2026-05-03T08:17:10Z</time></trkpt><trkpt lat="45.05204728760301" lon="8.618025575612341"><ele>86.0</ele><time>2026-05-03T08:17:11Z</time></trkpt><trkpt lat="45.05221601279546" lon="8.617789779748323"><ele>86.0</ele><time>2026-05-03T08:17:12Z</time></trkpt><trkpt lat="45.05238122354321" lon="8.617548987961879"><ele>86.0</ele><time>2026-05-03T08:17:13Z</time></trkpt><trkpt lat="45.05254739747122" lon="8.61731023483986"><ele>87.0</ele><time>2026-05-03T08:17:14Z</time></trkpt><trkpt lat="45.052716039584915" lon="8.617077892110627"><ele>88.0</ele><time>2026-05-03T08:17:15Z</time></trkpt><trkpt lat="45.052882023176075" lon="8.616842630415494"><ele>88.0</ele><time>2026-05-03T08:17:16Z</time></trkpt><trkpt lat="45.05304634348145" lon="8.616603661899743"><ele>88.0</ele><time>2026-05-03T08:17:17Z</time></trkpt><trkpt lat="45.053206677851946" lon="8.61637380031098"><ele>88.33333333333333</ele><time>2026-05-03T08:17:18Z</time></trkpt><trkpt lat="45.05337757741026" lon="8.616165080676625"><ele>88.66666666666667</ele><time>2026-05-03T08:17:19Z</time></trkpt><trkpt lat="45.05352256058873" lon="8.615927412250338"><ele>89.0</ele><time>2026-05-03T08:17:20Z</time></trkpt><trkpt lat="45.05369221295506" lon="8.615720757419938"><ele>89.0</ele><time>2026-05-03T08:17:21Z</time></trkpt><trkpt lat="45.0538461948452" lon="8.615502859968654"><ele>89.0</ele><time>2026-05-03T08:17:22Z</time></trkpt><trkpt lat="45.0539994455157" lon="8.615286425414677"><ele>89.0</ele><time>2026-05-03T08:17:23Z</time></trkpt><trkpt lat="45.05415321321042" lon="8.615069266389348"><ele>89.0</ele><time>2026-05-03T08:17:24Z</time></trkpt><trkpt lat="45.05430981005832" lon="8.614848111784422"><ele>89.0</ele><time>2026-05-03T08:17:25Z</time></trkpt><trkpt lat="45.054466623156955" lon="8.61462665170475"><ele>89.0</ele><time>2026-05-03T08:17:26Z</time></trkpt><trkpt lat="45.05462297500399" lon="8.614405843043455"><ele>88.66666666666667</ele><time>2026-05-03T08:17:27Z</time></trkpt><trkpt lat="45.054780122315094" lon="8.614183912393768"><ele>88.33333333333333</ele><time>2026-05-03T08:17:28Z</time></trkpt><trkpt lat="45.054932873013435" lon="8.613968189533857"><ele>88.0</ele><time>2026-05-03T08:17:29Z</time></trkpt><trkpt lat="45.05508500910037" lon="8.613752388057003"><ele>88.33333333333333</ele><time>2026-05-03T08:17:30Z</time></trkpt><trkpt lat="45.05523777523399" lon="8.613532571682256"><ele>88.66666666666667</ele><time>2026-05-03T08:17:31Z</time></trkpt><trkpt lat="45.05538670745393" lon="8.61331459018611"><ele>89.0</ele><time>2026-05-03T08:17:31.999Z</time></trkpt><trkpt lat="45.055540369404994" lon="8.61310191452343"><ele>89.0</ele><time>2026-05-03T08:17:32.999Z</time></trkpt><trkpt lat="45.05569204068644" lon="8.612892529441398"><ele>89.0</ele><time>2026-05-03T08:17:33.999Z</time></trkpt><trkpt lat="45.055839758299136" lon="8.612683432279876"><ele>89.0</ele><time>2026-05-03T08:17:34.999Z</time></trkpt><trkpt lat="45.05598940970974" lon="8.61247159767932"><ele>89.0</ele><time>2026-05-03T08:17:35.999Z</time></trkpt><trkpt lat="45.056138842390226" lon="8.612260072832886"><ele>89.0</ele><time>2026-05-03T08:17:36.999Z</time></trkpt><trkpt lat="45.05628776754129" lon="8.612049266360048"><ele>89.0</ele><time>2026-05-03T08:17:37.999Z</time></trkpt><trkpt lat="45.05643984748332" lon="8.611833878067202"><ele>89.0</ele><time>2026-05-03T08:17:38.999Z</time></trkpt><trkpt lat="45.05658907135164" lon="8.611621703931574"><ele>89.0</ele><time>2026-05-03T08:17:39.999Z</time></trkpt><trkpt lat="45.056742536253324" lon="8.611403499809967"><ele>89.0</ele><time>2026-05-03T08:17:40.999Z</time></trkpt><trkpt lat="45.05689697003916" lon="8.611183917986878"><ele>89.0</ele><time>2026-05-03T08:17:41.999Z</time></trkpt><trkpt lat="45.05704776251586" lon="8.610969513585056"><ele>89.0</ele><time>2026-05-03T08:17:42.999Z</time></trkpt><trkpt lat="45.05719880570059" lon="8.61075657118946"><ele>89.0</ele><time>2026-05-03T08:17:43.999Z</time></trkpt><trkpt lat="45.05735069755329" lon="8.610542710270218"><ele>89.0</ele><time>2026-05-03T08:17:44.999Z</time></trkpt><trkpt lat="45.057502005790255" lon="8.61032967105948"><ele>89.0</ele><time>2026-05-03T08:17:45.999Z</time></trkpt><trkpt lat="45.057655117420836" lon="8.610114095051303"><ele>89.0</ele><time>2026-05-03T08:17:46.999Z</time></trkpt><trkpt lat="45.05781089643616" lon="8.609894767584121"><ele>89.0</ele><time>2026-05-03T08:17:47.999Z</time></trkpt><trkpt lat="45.05795952288128" lon="8.609685510511495"><ele>89.0</ele><time>2026-05-03T08:17:48.999Z</time></trkpt><trkpt lat="45.05807960220031" lon="8.60941932572994"><ele>89.0</ele><time>2026-05-03T08:17:49.999Z</time></trkpt><trkpt lat="45.0582366655655" lon="8.609212190434459"><ele>88.5</ele><time>2026-05-03T08:17:50.999Z</time></trkpt><trkpt lat="45.058388715103106" lon="8.608966364743264"><ele>88.0</ele><time>2026-05-03T08:17:51.999Z</time></trkpt><trkpt lat="45.05854706790923" lon="8.608733979199684"><ele>88.0</ele><time>2026-05-03T08:17:52.999Z</time></trkpt><trkpt lat="45.05870784678698" lon="8.608501646819311"><ele>88.0</ele><time>2026-05-03T08:17:53.999Z</time></trkpt><trkpt lat="45.058871536527604" lon="8.608280674238912"><ele>88.0</ele><time>2026-05-03T08:17:54.999Z</time></trkpt><trkpt lat="45.05903277263395" lon="8.608061038949263"><ele>88.0</ele><time>2026-05-03T08:17:55.999Z</time></trkpt><trkpt lat="45.05919425817132" lon="8.607841033715255"><ele>88.0</ele><time>2026-05-03T08:17:56.999Z</time></trkpt><trkpt lat="45.05935605263277" lon="8.60762226658065"><ele>91.0</ele><time>2026-05-03T08:17:57.999Z</time></trkpt><trkpt lat="45.05951349787624" lon="8.607387730318305"><ele>94.0</ele><time>2026-05-03T08:17:58.999Z</time></trkpt><trkpt lat="45.05967544807689" lon="8.607164925062134"><ele>93.66666666666666</ele><time>2026-05-03T08:17:59.999Z</time></trkpt><trkpt lat="45.059834306067025" lon="8.606941156205192"><ele>93.33333333333333</ele><time>2026-05-03T08:18:00.999Z</time></trkpt><trkpt lat="45.0599873260431" lon="8.606716176894142"><ele>93.0</ele><time>2026-05-03T08:18:01.999Z</time></trkpt><trkpt lat="45.06014222213691" lon="8.606500764728954"><ele>93.0</ele><time>2026-05-03T08:18:02.999Z</time></trkpt><trkpt lat="45.060297727872616" lon="8.606268883158117"><ele>93.0</ele><time>2026-05-03T08:18:03.999Z</time></trkpt><trkpt lat="45.06045434386378" lon="8.606062015342008"><ele>93.0</ele><time>2026-05-03T08:18:04.999Z</time></trkpt><trkpt lat="45.06061096180816" lon="8.605841654106317"><ele>93.66666666666667</ele><time>2026-05-03T08:18:05.999Z</time></trkpt><trkpt lat="45.06076485507117" lon="8.605630118439588"><ele>94.33333333333334</ele><time>2026-05-03T08:18:06.999Z</time></trkpt><trkpt lat="45.06091979879738" lon="8.60542956917397"><ele>95.0</ele><time>2026-05-03T08:18:07.999Z</time></trkpt><trkpt lat="45.06108081368959" lon="8.605204870172683"><ele>93.33333333333334</ele><time>2026-05-03T08:18:08.999Z</time></trkpt><trkpt lat="45.06124342257375" lon="8.60499800461503"><ele>91.66666666666667</ele><time>2026-05-03T08:18:09.999Z</time></trkpt><trkpt lat="45.06139998644076" lon="8.604768460799445"><ele>90.0</ele><time>2026-05-03T08:18:10.999Z</time></trkpt><trkpt lat="45.06155797047618" lon="8.604547016842934"><ele>89.66666666666667</ele><time>2026-05-03T08:18:11.999Z</time></trkpt><trkpt lat="45.06171280567332" lon="8.604329015181563"><ele>89.33333333333334</ele><time>2026-05-03T08:18:12.999Z</time></trkpt><trkpt lat="45.061860906568285" lon="8.604113813072361"><ele>89.0</ele><time>2026-05-03T08:18:13.999Z</time></trkpt><trkpt lat="45.06200697255283" lon="8.603901532659066"><ele>89.0</ele><time>2026-05-03T08:18:14.999Z</time></trkpt><trkpt lat="45.06215591379192" lon="8.603696068320398"><ele>89.0</ele><time>2026-05-03T08:18:15.999Z</time></trkpt><trkpt lat="45.062298918681144" lon="8.60346898238837"><ele>89.0</ele><time>2026-05-03T08:18:16.999Z</time></trkpt><trkpt lat="45.06243433751078" lon="8.603246761763662"><ele>89.0</ele><time>2026-05-03T08:18:17.999Z</time></trkpt><trkpt lat="45.06257030912285" lon="8.603019751180836"><ele>89.0</ele><time>2026-05-03T08:18:18.999Z</time></trkpt><trkpt lat="45.06269792179232" lon="8.602780743155169"><ele>89.0</ele><time>2026-05-03T08:18:19.999Z</time></trkpt><trkpt lat="45.06282362646695" lon="8.602537317739325"><ele>89.0</ele><time>2026-05-03T08:18:20.999Z</time></trkpt><trkpt lat="45.06295273523462" lon="8.60229611040545"><ele>89.0</ele><time>2026-05-03T08:18:21.999Z</time></trkpt><trkpt lat="45.063083190133376" lon="8.602053573225874"><ele>89.0</ele><time>2026-05-03T08:18:22.999Z</time></trkpt><trkpt lat="45.063211390793356" lon="8.601810815159839"><ele>89.0</ele><time>2026-05-03T08:18:23.999Z</time></trkpt><trkpt lat="45.06334209466295" lon="8.601572004360644"><ele>89.0</ele><time>2026-05-03T08:18:24.999Z</time></trkpt><trkpt lat="45.06346785756951" lon="8.601328771134515"><ele>89.0</ele><time>2026-05-03T08:18:25.999Z</time></trkpt><trkpt lat="45.06359983083849" lon="8.60108849479091"><ele>89.0</ele><time>2026-05-03T08:18:26.999Z</time></trkpt><trkpt lat="45.06372743967312" lon="8.600842131569198"><ele>89.0</ele><time>2026-05-03T08:18:27.999Z</time></trkpt><trkpt lat="45.063855369678755" lon="8.600588521713805"><ele>89.0</ele><time>2026-05-03T08:18:28.999Z</time></trkpt><trkpt lat="45.063988562692366" lon="8.600346859399911"><ele>88.66666666666667</ele><time>2026-05-03T08:18:29.999Z</time></trkpt><trkpt lat="45.064117387128654" lon="8.60009996398641"><ele>88.33333333333333</ele><time>2026-05-03T08:18:31Z</time></trkpt><trkpt lat="45.06424747910285" lon="8.599863923737178"><ele>88.0</ele><time>2026-05-03T08:18:32Z</time></trkpt><trkpt lat="45.06437447403681" lon="8.599631744440137"><ele>89.0</ele><time>2026-05-03T08:18:33Z</time></trkpt><trkpt lat="45.06450307652653" lon="8.599405158747837"><ele>90.0</ele><time>2026-05-03T08:18:34Z</time></trkpt><trkpt lat="45.064641661937884" lon="8.599156095845757"><ele>91.0</ele><time>2026-05-03T08:18:35Z</time></trkpt><trkpt lat="45.064766937154715" lon="8.59891393005571"><ele>91.0</ele><time>2026-05-03T08:18:36Z</time></trkpt><trkpt lat="45.06489333501864" lon="8.598672079226134"><ele>91.0</ele><time>2026-05-03T08:18:37Z</time></trkpt><trkpt lat="45.06502478503161" lon="8.59843712150404"><ele>91.0</ele><time>2026-05-03T08:18:38Z</time></trkpt><trkpt lat="45.065153259263084" lon="8.598191498661082"><ele>91.0</ele><time>2026-05-03T08:18:39Z</time></trkpt><trkpt lat="45.06528145643549" lon="8.597950096901183"><ele>91.0</ele><time>2026-05-03T08:18:40Z</time></trkpt><trkpt lat="45.06541019801218" lon="8.59771509442229"><ele>91.0</ele><time>2026-05-03T08:18:41Z</time></trkpt><trkpt lat="45.06553687532927" lon="8.597471893934065"><ele>91.0</ele><time>2026-05-03T08:18:42Z</time></trkpt><trkpt lat="45.065654745724" lon="8.597207512956865"><ele>91.0</ele><time>2026-05-03T08:18:43Z</time></trkpt><trkpt lat="45.06576507747109" lon="8.596956078525363"><ele>91.0</ele><time>2026-05-03T08:18:44Z</time></trkpt><trkpt lat="45.06587467068068" lon="8.596701429112574"><ele>91.0</ele><time>2026-05-03T08:18:45Z</time></trkpt><trkpt lat="45.06597795020728" lon="8.596433030785123"><ele>91.0</ele><time>2026-05-03T08:18:46Z</time></trkpt><trkpt lat="45.06607829645872" lon="8.596133893793144"><ele>92.0</ele><time>2026-05-03T08:18:47Z</time></trkpt><trkpt lat="45.066182878492306" lon="8.59581312777879"><ele>93.0</ele><time>2026-05-03T08:18:48Z</time></trkpt><trkpt lat="45.06629418518072" lon="8.595482911291569"><ele>92.5</ele><time>2026-05-03T08:18:49Z</time></trkpt><trkpt lat="45.06642000674475" lon="8.595154287831285"><ele>92.0</ele><time>2026-05-03T08:18:50Z</time></trkpt><trkpt lat="45.066548503203855" lon="8.594801079452926"><ele>92.0</ele><time>2026-05-03T08:18:51Z</time></trkpt><trkpt lat="45.066673892866554" lon="8.594437742065498"><ele>92.0</ele><time>2026-05-03T08:18:52Z</time></trkpt><trkpt lat="45.066807233620914" lon="8.594071410436063"><ele>92.0</ele><time>2026-05-03T08:18:53Z</time></trkpt><trkpt lat="45.06692927296319" lon="8.593688768765631"><ele>92.0</ele><time>2026-05-03T08:18:54Z</time></trkpt><trkpt lat="45.06707364951872" lon="8.593312221012736"><ele>91.5</ele><time>2026-05-03T08:18:55Z</time></trkpt><trkpt lat="45.067211007630306" lon="8.592906284862595"><ele>91.0</ele><time>2026-05-03T08:18:56Z</time></trkpt><trkpt lat="45.06733990903551" lon="8.592525340895612"><ele>91.0</ele><time>2026-05-03T08:18:57Z</time></trkpt><trkpt lat="45.067470144560644" lon="8.592141700629218"><ele>91.0</ele><time>2026-05-03T08:18:58Z</time></trkpt><trkpt lat="45.0676042751376" lon="8.591748414009766"><ele>91.0</ele><time>2026-05-03T08:18:59Z</time></trkpt><trkpt lat="45.067733050380454" lon="8.591370829935558"><ele>91.0</ele><time>2026-05-03T08:19:00Z</time></trkpt><trkpt lat="45.06785735940972" lon="8.591007259668368"><ele>91.0</ele><time>2026-05-03T08:19:01Z</time></trkpt><trkpt lat="45.0679878198215" lon="8.590626030255029"><ele>91.0</ele><time>2026-05-03T08:19:02Z</time></trkpt><trkpt lat="45.068115393959935" lon="8.59025323472152"><ele>90.5</ele><time>2026-05-03T08:19:03Z</time></trkpt><trkpt lat="45.068247486148714" lon="8.589862649705541"><ele>90.0</ele><time>2026-05-03T08:19:04Z</time></trkpt><trkpt lat="45.0683789627854" lon="8.589472622934489"><ele>90.0</ele><time>2026-05-03T08:19:05Z</time></trkpt><trkpt lat="45.0685075559073" lon="8.589091931903239"><ele>90.0</ele><time>2026-05-03T08:19:06Z</time></trkpt><trkpt lat="45.068639745332796" lon="8.588701265725101"><ele>90.5</ele><time>2026-05-03T08:19:07Z</time></trkpt><trkpt lat="45.06876460816912" lon="8.588328280582521"><ele>91.0</ele><time>2026-05-03T08:19:08Z</time></trkpt><trkpt lat="45.06889315184607" lon="8.58794616268742"><ele>91.0</ele><time>2026-05-03T08:19:09Z</time></trkpt><trkpt lat="45.06902081559959" lon="8.587569381732095"><ele>91.0</ele><time>2026-05-03T08:19:10Z</time></trkpt><trkpt lat="45.06914803925371" lon="8.58718695056261"><ele>92.0</ele><time>2026-05-03T08:19:11Z</time></trkpt><trkpt lat="45.069274138556416" lon="8.586816904711082"><ele>93.0</ele><time>2026-05-03T08:19:12Z</time></trkpt><trkpt lat="45.06939967012381" lon="8.586449500401745"><ele>92.5</ele><time>2026-05-03T08:19:13Z</time></trkpt><trkpt lat="45.069527890158895" lon="8.586073226526894"><ele>92.0</ele><time>2026-05-03T08:19:14Z</time></trkpt><trkpt lat="45.069654512484014" lon="8.585694270936875"><ele>91.0</ele><time>2026-05-03T08:19:15Z</time></trkpt><trkpt lat="45.06977846255171" lon="8.585325657922352"><ele>90.0</ele><time>2026-05-03T08:19:16Z</time></trkpt><trkpt lat="45.06991020856944" lon="8.584936757584002"><ele>90.5</ele><time>2026-05-03T08:19:17Z</time></trkpt><trkpt lat="45.070034923217364" lon="8.584564870298685"><ele>91.0</ele><time>2026-05-03T08:19:18Z</time></trkpt><trkpt lat="45.07015548420676" lon="8.584203266643103"><ele>91.0</ele><time>2026-05-03T08:19:19Z</time></trkpt><trkpt lat="45.07028089719432" lon="8.583828578419244"><ele>91.0</ele><time>2026-05-03T08:19:20Z</time></trkpt><trkpt lat="45.070408137964705" lon="8.583455935745418"><ele>91.0</ele><time>2026-05-03T08:19:21Z</time></trkpt><trkpt lat="45.070530766605586" lon="8.583096800410274"><ele>91.0</ele><time>2026-05-03T08:19:22Z</time></trkpt><trkpt lat="45.07065017050709" lon="8.58274525229763"><ele>91.0</ele><time>2026-05-03T08:19:23Z</time></trkpt><trkpt lat="45.07075297574845" lon="8.582389172877855"><ele>91.0</ele><time>2026-05-03T08:19:24Z</time></trkpt><trkpt lat="45.070892311807135" lon="8.582030876637111"><ele>92.0</ele><time>2026-05-03T08:19:25Z</time></trkpt><trkpt lat="45.07101649515686" lon="8.58166450559051"><ele>93.0</ele><time>2026-05-03T08:19:26Z</time></trkpt><trkpt lat="45.071142069438324" lon="8.581294030934085"><ele>93.5</ele><time>2026-05-03T08:19:27Z</time></trkpt><trkpt lat="45.071265313075656" lon="8.580929879561582"><ele>94.0</ele><time>2026-05-03T08:19:28Z</time></trkpt><trkpt lat="45.071387355726515" lon="8.5805682116012"><ele>93.5</ele><time>2026-05-03T08:19:29Z</time></trkpt><trkpt lat="45.07150918340979" lon="8.580211781075619"><ele>93.0</ele><time>2026-05-03T08:19:30Z</time></trkpt><trkpt lat="45.071638103069105" lon="8.579846609290165"><ele>92.5</ele><time>2026-05-03T08:19:31Z</time></trkpt><trkpt lat="45.07176600432852" lon="8.579510300074013"><ele>92.0</ele><time>2026-05-03T08:19:32Z</time></trkpt><trkpt lat="45.07190105389382" lon="8.57920054573227"><ele>92.0</ele><time>2026-05-03T08:19:33Z</time></trkpt><trkpt lat="45.07204758106917" lon="8.578911032680162"><ele>92.0</ele><time>2026-05-03T08:19:34Z</time></trkpt><trkpt lat="45.07220438392178" lon="8.578623750919279"><ele>92.0</ele><time>2026-05-03T08:19:35Z</time></trkpt><trkpt lat="45.07236610421043" lon="8.5783372136767"><ele>92.0</ele><time>2026-05-03T08:19:36Z</time></trkpt><trkpt lat="45.072532601984115" lon="8.578040821888344"><ele>93.0</ele><time>2026-05-03T08:19:37Z</time></trkpt><trkpt lat="45.07269837109898" lon="8.577743831702916"><ele>94.0</ele><time>2026-05-03T08:19:38Z</time></trkpt><trkpt lat="45.07286390159421" lon="8.577447269010854"><ele>94.0</ele><time>2026-05-03T08:19:38.999Z</time></trkpt><trkpt lat="45.07301374001013" lon="8.577144312496623"><ele>94.0</ele><time>2026-05-03T08:19:39.999Z</time></trkpt><trkpt lat="45.07316636423224" lon="8.576891012837702"><ele>93.0</ele><time>2026-05-03T08:19:40.999Z</time></trkpt><trkpt lat="45.07331224396862" lon="8.57663702090026"><ele>92.0</ele><time>2026-05-03T08:19:41.999Z</time></trkpt><trkpt lat="45.07345105758278" lon="8.576374531446476"><ele>92.66666666666667</ele><time>2026-05-03T08:19:42.999Z</time></trkpt><trkpt lat="45.073582960969404" lon="8.576137777803794"><ele>93.33333333333333</ele><time>2026-05-03T08:19:43.999Z</time></trkpt><trkpt lat="45.0737066835735" lon="8.575920790402089"><ele>94.0</ele><time>2026-05-03T08:19:44.999Z</time></trkpt><trkpt lat="45.07382057852179" lon="8.575716214953694"><ele>94.0</ele><time>2026-05-03T08:19:45.999Z</time></trkpt><trkpt lat="45.0739193058186" lon="8.575531668231392"><ele>94.0</ele><time>2026-05-03T08:19:46.999Z</time></trkpt><trkpt lat="45.073999763687844" lon="8.575391544657485"><ele>94.0</ele><time>2026-05-03T08:19:47.999Z</time></trkpt><trkpt lat="45.074061301439414" lon="8.575273625176484"><ele>94.0</ele><time>2026-05-03T08:19:48.999Z</time></trkpt><trkpt lat="45.07410942715001" lon="8.57521036215447"><ele>94.75</ele><time>2026-05-03T08:19:49.999Z</time></trkpt><trkpt lat="45.073958412658406" lon="8.574987327820477"><ele>95.5</ele><time>2026-05-03T08:19:52.999Z</time></trkpt><trkpt lat="45.07384842153929" lon="8.57496211403266"><ele>96.25</ele><time>2026-05-03T08:19:53.999Z</time></trkpt><trkpt lat="45.073744795395264" lon="8.574922390126781"><ele>97.0</ele><time>2026-05-03T08:19:54.999Z</time></trkpt><trkpt lat="45.07361457963161" lon="8.57483338363779"><ele>97.0</ele><time>2026-05-03T08:19:55.999Z</time></trkpt><trkpt lat="45.07347981151513" lon="8.574773837955725"><ele>97.0</ele><time>2026-05-03T08:19:56.999Z</time></trkpt><trkpt lat="45.07332708027813" lon="8.574706497509936"><ele>97.0</ele><time>2026-05-03T08:19:57.999Z</time></trkpt><trkpt lat="45.07317288339195" lon="8.574640057731946"><ele>97.66666666666667</ele><time>2026-05-03T08:19:58.999Z</time></trkpt><trkpt lat="45.07300625891738" lon="8.574566649304995"><ele>98.33333333333334</ele><time>2026-05-03T08:19:59.999Z</time></trkpt><trkpt lat="45.07282445905984" lon="8.574489550577216"><ele>99.0</ele><time>2026-05-03T08:20:00.999Z</time></trkpt><trkpt lat="45.0726499013824" lon="8.574410840771932"><ele>99.0</ele><time>2026-05-03T08:20:01.999Z</time></trkpt><trkpt lat="45.07246623610835" lon="8.574328868590602"><ele>99.0</ele><time>2026-05-03T08:20:02.999Z</time></trkpt><trkpt lat="45.072270319972304" lon="8.57424139896361"><ele>99.0</ele><time>2026-05-03T08:20:03.999Z</time></trkpt><trkpt lat="45.07206936051317" lon="8.574148175640486"><ele>99.0</ele><time>2026-05-03T08:20:04.999Z</time></trkpt><trkpt lat="45.07187109389488" lon="8.574058238859223"><ele>99.0</ele><time>2026-05-03T08:20:05.999Z</time></trkpt><trkpt lat="45.07167286205065" lon="8.573976084633594"><ele>99.0</ele><time>2026-05-03T08:20:06.999Z</time></trkpt><trkpt lat="45.071469694184145" lon="8.573895196280155"><ele>99.33333333333334</ele><time>2026-05-03T08:20:07.999Z</time></trkpt><trkpt lat="45.07126583533528" lon="8.57380555858155"><ele>99.66666666666667</ele><time>2026-05-03T08:20:08.999Z</time></trkpt><trkpt lat="45.0710594143585" lon="8.573700895131399"><ele>100.0</ele><time>2026-05-03T08:20:09.999Z</time></trkpt><trkpt lat="45.07085213252367" lon="8.573611565337531"><ele>100.33333333333334</ele><time>2026-05-03T08:20:10.999Z</time></trkpt><trkpt lat="45.070642733386244" lon="8.573500548632946"><ele>100.66666666666666</ele><time>2026-05-03T08:20:11.999Z</time></trkpt><trkpt lat="45.070434317673815" lon="8.57340637078453"><ele>101.0</ele><time>2026-05-03T08:20:12.999Z</time></trkpt><trkpt lat="45.07022167025499" lon="8.573310280734875"><ele>101.0</ele><time>2026-05-03T08:20:13.999Z</time></trkpt><trkpt lat="45.07001313316961" lon="8.57321604803657"><ele>101.0</ele><time>2026-05-03T08:20:14.999Z</time></trkpt><trkpt lat="45.06980496972389" lon="8.573121984179155"><ele>101.0</ele><time>2026-05-03T08:20:15.999Z</time></trkpt><trkpt lat="45.0695911735749" lon="8.573025375043825"><ele>101.0</ele><time>2026-05-03T08:20:16.999Z</time></trkpt><trkpt lat="45.069375747507856" lon="8.572928029391946"><ele>101.0</ele><time>2026-05-03T08:20:17.999Z</time></trkpt><trkpt lat="45.06916447110941" lon="8.572831283618514"><ele>101.0</ele><time>2026-05-03T08:20:18.999Z</time></trkpt><trkpt lat="45.068958558638606" lon="8.572737486209965"><ele>101.66666666666666</ele><time>2026-05-03T08:20:19.999Z</time></trkpt><trkpt lat="45.06876381904806" lon="8.57265192571648"><ele>102.33333333333334</ele><time>2026-05-03T08:20:20.999Z</time></trkpt><trkpt lat="45.06857974181547" lon="8.572568878826726"><ele>103.0</ele><time>2026-05-03T08:20:21.999Z</time></trkpt><trkpt lat="45.0684049112003" lon="8.57249053341651"><ele>103.33333333333334</ele><time>2026-05-03T08:20:22.999Z</time></trkpt><trkpt lat="45.06824430294253" lon="8.572420546153932"><ele>103.66666666666666</ele><time>2026-05-03T08:20:23.999Z</time></trkpt><trkpt lat="45.06808595869336" lon="8.572351502534424"><ele>104.0</ele><time>2026-05-03T08:20:24.999Z</time></trkpt><trkpt lat="45.06794034786541" lon="8.572285435437385"><ele>104.0</ele><time>2026-05-03T08:20:25.999Z</time></trkpt><trkpt lat="45.067809741456045" lon="8.572208002759073"><ele>104.0</ele><time>2026-05-03T08:20:26.999Z</time></trkpt><trkpt lat="45.06768814861878" lon="8.572115928983935"><ele>104.0</ele><time>2026-05-03T08:20:27.999Z</time></trkpt><trkpt lat="45.06757293808546" lon="8.572036187437694"><ele>104.0</ele><time>2026-05-03T08:20:28.999Z</time></trkpt><trkpt lat="45.06747386606819" lon="8.571910378034817"><ele>102.75</ele><time>2026-05-03T08:20:29.999Z</time></trkpt><trkpt lat="45.067357586540055" lon="8.571820700433484"><ele>101.5</ele><time>2026-05-03T08:20:30.999Z</time></trkpt><trkpt lat="45.067266347208744" lon="8.571702390874329"><ele>100.25</ele><time>2026-05-03T08:20:31.999Z</time></trkpt><trkpt lat="45.06716874353382" lon="8.571608699665765"><ele>99.0</ele><time>2026-05-03T08:20:32.999Z</time></trkpt><trkpt lat="45.06706662466975" lon="8.571518920084761"><ele>99.0</ele><time>2026-05-03T08:20:33.999Z</time></trkpt><trkpt lat="45.066965866257775" lon="8.571423953684656"><ele>99.0</ele><time>2026-05-03T08:20:34.999Z</time></trkpt><trkpt lat="45.06687337411799" lon="8.571316275147383"><ele>99.0</ele><time>2026-05-03T08:20:35.999Z</time></trkpt><trkpt lat="45.06677221566886" lon="8.571215647252671"><ele>99.0</ele><time>2026-05-03T08:20:37Z</time></trkpt><trkpt lat="45.06666906590132" lon="8.571111815583915"><ele>98.75</ele><time>2026-05-03T08:20:38Z</time></trkpt><trkpt lat="45.06656415849251" lon="8.571004903043562"><ele>98.5</ele><time>2026-05-03T08:20:39Z</time></trkpt><trkpt lat="45.06645860703883" lon="8.570896160921853"><ele>98.25</ele><time>2026-05-03T08:20:40Z</time></trkpt><trkpt lat="45.06635094702629" lon="8.570790586164417"><ele>98.0</ele><time>2026-05-03T08:20:41Z</time></trkpt><trkpt lat="45.06624136678973" lon="8.570683914578272"><ele>98.0</ele><time>2026-05-03T08:20:42Z</time></trkpt><trkpt lat="45.06613091928584" lon="8.570578824382249"><ele>98.0</ele><time>2026-05-03T08:20:43Z</time></trkpt><trkpt lat="45.06601378620723" lon="8.570469590442197"><ele>98.0</ele><time>2026-05-03T08:20:44Z</time></trkpt><trkpt lat="45.06589918619896" lon="8.570359028654869"><ele>98.0</ele><time>2026-05-03T08:20:45Z</time></trkpt><trkpt lat="45.06578594434113" lon="8.570245444473906"><ele>98.25</ele><time>2026-05-03T08:20:46Z</time></trkpt><trkpt lat="45.06567105110479" lon="8.570131501996917"><ele>98.5</ele><time>2026-05-03T08:20:47Z</time></trkpt><trkpt lat="45.06556091898419" lon="8.57002571676464"><ele>98.75</ele><time>2026-05-03T08:20:48Z</time></trkpt><trkpt lat="45.065449585388706" lon="8.569922964298465"><ele>99.0</ele><time>2026-05-03T08:20:49Z</time></trkpt><trkpt lat="45.06533146055285" lon="8.569814021919212"><ele>99.0</ele><time>2026-05-03T08:20:50Z</time></trkpt><trkpt lat="45.06521408598506" lon="8.569709585434191"><ele>99.0</ele><time>2026-05-03T08:20:51Z</time></trkpt><trkpt lat="45.06510677383005" lon="8.569604338836145"><ele>99.0</ele><time>2026-05-03T08:20:52Z</time></trkpt><trkpt lat="45.06501269278202" lon="8.5695152926972"><ele>99.0</ele><time>2026-05-03T08:20:53Z</time></trkpt><trkpt lat="45.06491499461566" lon="8.569419829405884"><ele>98.80000000000001</ele><time>2026-05-03T08:20:54Z</time></trkpt><trkpt lat="45.064824360708364" lon="8.569331225149226"><ele>98.60000000000001</ele><time>2026-05-03T08:20:55Z</time></trkpt><trkpt lat="45.06473952213172" lon="8.569244126123017"><ele>98.4</ele><time>2026-05-03T08:20:56Z</time></trkpt><trkpt lat="45.064653655617356" lon="8.569158760349007"><ele>98.2</ele><time>2026-05-03T08:20:57Z</time></trkpt><trkpt lat="45.064574276666086" lon="8.569075345323874"><ele>98.0</ele><time>2026-05-03T08:20:58Z</time></trkpt><trkpt lat="45.06449308905609" lon="8.568995027148114"><ele>97.99999999999999</ele><time>2026-05-03T08:20:59Z</time></trkpt><trkpt lat="45.064421527217156" lon="8.568925704357175"><ele>98.0</ele><time>2026-05-03T08:21:00Z</time></trkpt><trkpt lat="45.06435278967269" lon="8.568853982475257"><ele>98.0</ele><time>2026-05-03T08:21:01Z</time></trkpt><trkpt lat="45.06427690487695" lon="8.56877401774277"><ele>98.0</ele><time>2026-05-03T08:21:02Z</time></trkpt><trkpt lat="45.06420696119292" lon="8.568711411549671"><ele>97.99999999999999</ele><time>2026-05-03T08:21:03Z</time></trkpt><trkpt lat="45.06413723973369" lon="8.56863914095486"><ele>98.0</ele><time>2026-05-03T08:21:04Z</time></trkpt><trkpt lat="45.064073173874306" lon="8.568558862175655"><ele>98.33333333333333</ele><time>2026-05-03T08:21:05Z</time></trkpt><trkpt lat="45.064017444437056" lon="8.568506530144855"><ele>98.66666666666666</ele><time>2026-05-03T08:21:06Z</time></trkpt><trkpt lat="45.06395368856721" lon="8.568460227671439"><ele>99.0</ele><time>2026-05-03T08:21:07Z</time></trkpt><trkpt lat="45.06388289148853" lon="8.568438176836823"><ele>99.33333333333334</ele><time>2026-05-03T08:21:08Z</time></trkpt><trkpt lat="45.06380426375048" lon="8.56842467046194"><ele>99.66666666666667</ele><time>2026-05-03T08:21:09Z</time></trkpt><trkpt lat="45.063724793773396" lon="8.568427803353869"><ele>100.0</ele><time>2026-05-03T08:21:10Z</time></trkpt><trkpt lat="45.06363569678474" lon="8.5684447381534"><ele>100.00000000000001</ele><time>2026-05-03T08:21:11Z</time></trkpt><trkpt lat="45.063553760080005" lon="8.568444824729212"><ele>100.0</ele><time>2026-05-03T08:21:12Z</time></trkpt><trkpt lat="45.06347492738183" lon="8.568451275576043"><ele>100.0</ele><time>2026-05-03T08:21:13Z</time></trkpt><trkpt lat="45.063394186237836" lon="8.568448764482586"><ele>100.0</ele><time>2026-05-03T08:21:14Z</time></trkpt><trkpt lat="45.06331338625132" lon="8.568439731113415"><ele>100.00000000000001</ele><time>2026-05-03T08:21:15Z</time></trkpt><trkpt lat="45.06324778992823" lon="8.568441199351929"><ele>100.0</ele><time>2026-05-03T08:21:16Z</time></trkpt><trkpt lat="45.06317663845448" lon="8.568417304925196"><ele>99.85714285714286</ele><time>2026-05-03T08:21:17Z</time></trkpt><trkpt lat="45.063101878668505" lon="8.568416171554508"><ele>99.71428571428572</ele><time>2026-05-03T08:21:18Z</time></trkpt><trkpt lat="45.06302830931969" lon="8.56841616273742"><ele>99.57142857142858</ele><time>2026-05-03T08:21:19Z</time></trkpt><trkpt lat="45.06295881805726" lon="8.568415911021551"><ele>99.42857142857143</ele><time>2026-05-03T08:21:20Z</time></trkpt><trkpt lat="45.062889141184726" lon="8.568415658634175"><ele>99.28571428571428</ele><time>2026-05-03T08:21:21Z</time></trkpt><trkpt lat="45.062810610857554" lon="8.56841537418641"><ele>99.14285714285715</ele><time>2026-05-03T08:21:22Z</time></trkpt><trkpt lat="45.06273566233238" lon="8.568415102703575"><ele>99.0</ele><time>2026-05-03T08:21:23Z</time></trkpt><trkpt lat="45.06266210692588" lon="8.568412790623292"><ele>99.0</ele><time>2026-05-03T08:21:24Z</time></trkpt><trkpt lat="45.0625935484327" lon="8.568408662924845"><ele>99.0</ele><time>2026-05-03T08:21:25Z</time></trkpt><trkpt lat="45.06251415527772" lon="8.568403385301162"><ele>99.0</ele><time>2026-05-03T08:21:26Z</time></trkpt><trkpt lat="45.06244632765035" lon="8.568396096606058"><ele>99.0</ele><time>2026-05-03T08:21:27Z</time></trkpt><trkpt lat="45.06237169607518" lon="8.56838804980515"><ele>99.0</ele><time>2026-05-03T08:21:28Z</time></trkpt><trkpt lat="45.062298433822505" lon="8.568377160011963"><ele>99.0</ele><time>2026-05-03T08:21:29Z</time></trkpt><trkpt lat="45.06221588616149" lon="8.56836206258093"><ele>99.0</ele><time>2026-05-03T08:21:30Z</time></trkpt><trkpt lat="45.06213608631565" lon="8.568347467703608"><ele>99.4</ele><time>2026-05-03T08:21:31Z</time></trkpt><trkpt lat="45.0620595029592" lon="8.568334954874166"><ele>99.80000000000001</ele><time>2026-05-03T08:21:32Z</time></trkpt><trkpt lat="45.0619745032791" lon="8.568322272378026"><ele>100.19999999999999</ele><time>2026-05-03T08:21:33Z</time></trkpt><trkpt lat="45.061881959300976" lon="8.568308464227123"><ele>100.6</ele><time>2026-05-03T08:21:34Z</time></trkpt><trkpt lat="45.06177896310794" lon="8.568290933895291"><ele>101.0</ele><time>2026-05-03T08:21:35Z</time></trkpt><trkpt lat="45.061681875505236" lon="8.568268524431405"><ele>101.4</ele><time>2026-05-03T08:21:36Z</time></trkpt><trkpt lat="45.061577753714786" lon="8.568237059528427"><ele>101.8</ele><time>2026-05-03T08:21:37Z</time></trkpt><trkpt lat="45.061478532816594" lon="8.56819923521945"><ele>102.2</ele><time>2026-05-03T08:21:38Z</time></trkpt><trkpt lat="45.061388712849826" lon="8.56816354163882"><ele>102.60000000000001</ele><time>2026-05-03T08:21:39Z</time></trkpt><trkpt lat="45.06131526171783" lon="8.568133413858865"><ele>103.0</ele><time>2026-05-03T08:21:40Z</time></trkpt><trkpt lat="45.06121604723431" lon="8.568077801660488"><ele>103.0</ele><time>2026-05-03T08:21:42Z</time></trkpt><trkpt lat="45.06123764797754" lon="8.567932707048291"><ele>103.0</ele><time>2026-05-03T08:21:44Z</time></trkpt><trkpt lat="45.06124790880655" lon="8.567816218722154"><ele>103.0</ele><time>2026-05-03T08:21:45Z</time></trkpt><trkpt lat="45.061255279191556" lon="8.567716599661813"><ele>103.0</ele><time>2026-05-03T08:21:46Z</time></trkpt><trkpt lat="45.061262574609074" lon="8.567597238035614"><ele>103.0</ele><time>2026-05-03T08:21:46.999Z</time></trkpt><trkpt lat="45.06127141031479" lon="8.567420799805566"><ele>103.0</ele><time>2026-05-03T08:21:47.999Z</time></trkpt><trkpt lat="45.06127719283257" lon="8.5672631962918"><ele>103.0</ele><time>2026-05-03T08:21:48.999Z</time></trkpt><trkpt lat="45.061279469260505" lon="8.5670894257519"><ele>103.0</ele><time>2026-05-03T08:21:49.999Z</time></trkpt><trkpt lat="45.061280345561364" lon="8.56693667284248"><ele>103.0</ele><time>2026-05-03T08:21:50.999Z</time></trkpt><trkpt lat="45.06128119188225" lon="8.56676264394709"><ele>102.5</ele><time>2026-05-03T08:21:51.999Z</time></trkpt><trkpt lat="45.06128167091433" lon="8.56659200204298"><ele>102.0</ele><time>2026-05-03T08:21:52.999Z</time></trkpt><trkpt lat="45.06128220253951" lon="8.566402630168751"><ele>101.5</ele><time>2026-05-03T08:21:53.999Z</time></trkpt><trkpt lat="45.061272610821064" lon="8.566269756219542"><ele>101.0</ele><time>2026-05-03T08:21:54.999Z</time></trkpt><trkpt lat="45.061279280066074" lon="8.566118656433112"><ele>101.0</ele><time>2026-05-03T08:21:55.999Z</time></trkpt><trkpt lat="45.06128492775359" lon="8.565955886596608"><ele>101.0</ele><time>2026-05-03T08:21:56.999Z</time></trkpt><trkpt lat="45.06128233502239" lon="8.565811185708224"><ele>101.0</ele><time>2026-05-03T08:21:57.999Z</time></trkpt><trkpt lat="45.061284249501796" lon="8.565680961737938"><ele>101.0</ele><time>2026-05-03T08:21:58.999Z</time></trkpt><trkpt lat="45.06128112168356" lon="8.565552940969974"><ele>101.0</ele><time>2026-05-03T08:21:59.999Z</time></trkpt><trkpt lat="45.06127257923769" lon="8.565435074946697"><ele>101.0</ele><time>2026-05-03T08:22:00.999Z</time></trkpt><trkpt lat="45.06122382082843" lon="8.565335808446317"><ele>101.0</ele><time>2026-05-03T08:22:01.999Z</time></trkpt><trkpt lat="45.061147286809444" lon="8.565249743503973"><ele>101.0</ele><time>2026-05-03T08:22:02.999Z</time></trkpt><trkpt lat="45.06108601767137" lon="8.565192461466417"><ele>101.0</ele><time>2026-05-03T08:22:03.999Z</time></trkpt><trkpt lat="45.060985929232835" lon="8.565104817082695"><ele>101.0</ele><time>2026-05-03T08:22:04.999Z</time></trkpt><trkpt lat="45.06089421219128" lon="8.565026559077094"><ele>101.0</ele><time>2026-05-03T08:22:05.999Z</time></trkpt><trkpt lat="45.06080490621094" lon="8.564950358300596"><ele>101.0</ele><time>2026-05-03T08:22:06.999Z</time></trkpt><trkpt lat="45.06070245013833" lon="8.564890652173544"><ele>101.0</ele><time>2026-05-03T08:22:07.999Z</time></trkpt><trkpt lat="45.06060859542835" lon="8.564777228111923"><ele>101.0</ele><time>2026-05-03T08:22:08.999Z</time></trkpt><trkpt lat="45.06051767705469" lon="8.564699072168375"><ele>101.0</ele><time>2026-05-03T08:22:09.999Z</time></trkpt><trkpt lat="45.06041638634025" lon="8.56461834373575"><ele>101.0</ele><time>2026-05-03T08:22:10.999Z</time></trkpt><trkpt lat="45.0603285990738" lon="8.564549953370296"><ele>101.0</ele><time>2026-05-03T08:22:11.999Z</time></trkpt><trkpt lat="45.06022789804016" lon="8.564469700424235"><ele>101.0</ele><time>2026-05-03T08:22:12.999Z</time></trkpt><trkpt lat="45.060124481014135" lon="8.564384593091138"><ele>101.0</ele><time>2026-05-03T08:22:13.999Z</time></trkpt><trkpt lat="45.06000977101546" lon="8.564301866497006"><ele>101.0</ele><time>2026-05-03T08:22:14.999Z</time></trkpt><trkpt lat="45.059913961649244" lon="8.564223981709688"><ele>101.0</ele><time>2026-05-03T08:22:15.999Z</time></trkpt><trkpt lat="45.05982155695715" lon="8.564121287761921"><ele>101.0</ele><time>2026-05-03T08:22:16.999Z</time></trkpt><trkpt lat="45.05972363908231" lon="8.564036034762687"><ele>101.0</ele><time>2026-05-03T08:22:17.999Z</time></trkpt><trkpt lat="45.059633767327654" lon="8.563959732856748"><ele>101.0</ele><time>2026-05-03T08:22:18.999Z</time></trkpt><trkpt lat="45.0595330114257" lon="8.563874700180138"><ele>101.0</ele><time>2026-05-03T08:22:19.999Z</time></trkpt><trkpt lat="45.059435893581764" lon="8.563792789439917"><ele>101.0</ele><time>2026-05-03T08:22:20.999Z</time></trkpt><trkpt lat="45.05936615027068" lon="8.563644734454023"><ele>101.0</ele><time>2026-05-03T08:22:21.999Z</time></trkpt><trkpt lat="45.059291284012325" lon="8.563500390077449"><ele>101.0</ele><time>2026-05-03T08:22:22.999Z</time></trkpt><trkpt lat="45.05922768581895" lon="8.563338020749137"><ele>100.75</ele><time>2026-05-03T08:22:23.999Z</time></trkpt><trkpt lat="45.05917055025812" lon="8.563168836292682"><ele>100.5</ele><time>2026-05-03T08:22:24.999Z</time></trkpt><trkpt lat="45.05910185511067" lon="8.56301398831978"><ele>100.25</ele><time>2026-05-03T08:22:25.999Z</time></trkpt><trkpt lat="45.05902672555551" lon="8.562837729404611"><ele>100.0</ele><time>2026-05-03T08:22:26.999Z</time></trkpt><trkpt lat="45.05894643943369" lon="8.562653607235408"><ele>99.66666666666667</ele><time>2026-05-03T08:22:27.999Z</time></trkpt><trkpt lat="45.058871432724395" lon="8.562478214415732"><ele>99.33333333333334</ele><time>2026-05-03T08:22:28.999Z</time></trkpt><trkpt lat="45.0587939759728" lon="8.562287121189028"><ele>99.0</ele><time>2026-05-03T08:22:29.999Z</time></trkpt><trkpt lat="45.05871548408833" lon="8.56209883901766"><ele>99.33333333333334</ele><time>2026-05-03T08:22:30.999Z</time></trkpt><trkpt lat="45.05863310840686" lon="8.561903437293406"><ele>99.66666666666667</ele><time>2026-05-03T08:22:31.999Z</time></trkpt><trkpt lat="45.058546277356285" lon="8.561708935751927"><ele>100.0</ele><time>2026-05-03T08:22:32.999Z</time></trkpt><trkpt lat="45.058464114392216" lon="8.56152034632246"><ele>100.0</ele><time>2026-05-03T08:22:33.999Z</time></trkpt><trkpt lat="45.058382951195824" lon="8.561330780108355"><ele>100.0</ele><time>2026-05-03T08:22:34.999Z</time></trkpt><trkpt lat="45.05829823166211" lon="8.56114733375814"><ele>100.0</ele><time>2026-05-03T08:22:35.999Z</time></trkpt><trkpt lat="45.05820008751529" lon="8.560966736175759"><ele>100.0</ele><time>2026-05-03T08:22:36.999Z</time></trkpt><trkpt lat="45.0580967332509" lon="8.56078650053175"><ele>100.0</ele><time>2026-05-03T08:22:37.999Z</time></trkpt><trkpt lat="45.05799940889426" lon="8.56060977451271"><ele>100.0</ele><time>2026-05-03T08:22:38.999Z</time></trkpt><trkpt lat="45.05789948069344" lon="8.560432222782095"><ele>100.33333333333334</ele><time>2026-05-03T08:22:39.999Z</time></trkpt><trkpt lat="45.05780675400175" lon="8.560242895171589"><ele>100.66666666666666</ele><time>2026-05-03T08:22:40.999Z</time></trkpt><trkpt lat="45.0577013189577" lon="8.56006917169802"><ele>101.0</ele><time>2026-05-03T08:22:41.999Z</time></trkpt><trkpt lat="45.05759609131691" lon="8.559900041824775"><ele>101.0</ele><time>2026-05-03T08:22:43Z</time></trkpt><trkpt lat="45.05748765208805" lon="8.55972834637883"><ele>101.0</ele><time>2026-05-03T08:22:44Z</time></trkpt><trkpt lat="45.057378861172744" lon="8.559557320415951"><ele>101.0</ele><time>2026-05-03T08:22:45Z</time></trkpt><trkpt lat="45.05726754905843" lon="8.55938849159011"><ele>102.0</ele><time>2026-05-03T08:22:46Z</time></trkpt><trkpt lat="45.05715569903135" lon="8.55922136486543"><ele>103.0</ele><time>2026-05-03T08:22:47Z</time></trkpt><trkpt lat="45.05704346851403" lon="8.559058638930503"><ele>104.0</ele><time>2026-05-03T08:22:48Z</time></trkpt><trkpt lat="45.05692061869244" lon="8.558898321713816"><ele>104.0</ele><time>2026-05-03T08:22:49Z</time></trkpt><trkpt lat="45.05679322396956" lon="8.55875801348948"><ele>104.0</ele><time>2026-05-03T08:22:50Z</time></trkpt><trkpt lat="45.05665893994736" lon="8.558628082233307"><ele>104.0</ele><time>2026-05-03T08:22:51Z</time></trkpt><trkpt lat="45.05651281271589" lon="8.558509646539868"><ele>102.33333333333333</ele><time>2026-05-03T08:22:52Z</time></trkpt><trkpt lat="45.0563541577461" lon="8.558399428911489"><ele>100.66666666666666</ele><time>2026-05-03T08:22:53Z</time></trkpt><trkpt lat="45.05619504094778" lon="8.558312562439369"><ele>99.0</ele><time>2026-05-03T08:22:54Z</time></trkpt><trkpt lat="45.05602088514548" lon="8.558239013000023"><ele>99.0</ele><time>2026-05-03T08:22:55Z</time></trkpt><trkpt lat="45.055845788695066" lon="8.558180732530815"><ele>99.0</ele><time>2026-05-03T08:22:56Z</time></trkpt><trkpt lat="45.055669067340936" lon="8.558125379802119"><ele>99.0</ele><time>2026-05-03T08:22:57Z</time></trkpt><trkpt lat="45.055495720815614" lon="8.558092149649866"><ele>99.0</ele><time>2026-05-03T08:22:58Z</time></trkpt><trkpt lat="45.05532256378238" lon="8.558013972436672"><ele>99.0</ele><time>2026-05-03T08:22:59Z</time></trkpt><trkpt lat="45.05514976846032" lon="8.557930298184976"><ele>99.0</ele><time>2026-05-03T08:23:00Z</time></trkpt><trkpt lat="45.0549809917633" lon="8.557831419720344"><ele>99.33333333333334</ele><time>2026-05-03T08:23:01Z</time></trkpt><trkpt lat="45.05481756963025" lon="8.557698464920383"><ele>99.66666666666667</ele><time>2026-05-03T08:23:02Z</time></trkpt><trkpt lat="45.05464585250548" lon="8.55756935854314"><ele>100.0</ele><time>2026-05-03T08:23:03Z</time></trkpt><trkpt lat="45.054471199511624" lon="8.55743536039939"><ele>100.0</ele><time>2026-05-03T08:23:04Z</time></trkpt><trkpt lat="45.05429390028508" lon="8.557299332022136"><ele>100.0</ele><time>2026-05-03T08:23:05Z</time></trkpt><trkpt lat="45.05411268505348" lon="8.55716029912723"><ele>100.0</ele><time>2026-05-03T08:23:06Z</time></trkpt><trkpt lat="45.053931093365904" lon="8.557020977478947"><ele>100.33333333333334</ele><time>2026-05-03T08:23:07Z</time></trkpt><trkpt lat="45.053752969613505" lon="8.556884316498165"><ele>100.66666666666666</ele><time>2026-05-03T08:23:08Z</time></trkpt><trkpt lat="45.05357699365938" lon="8.556748354006578"><ele>101.0</ele><time>2026-05-03T08:23:09Z</time></trkpt><trkpt lat="45.05341041618555" lon="8.556619324674477"><ele>101.66666666666666</ele><time>2026-05-03T08:23:10Z</time></trkpt><trkpt lat="45.053245706753735" lon="8.556491742327767"><ele>102.33333333333334</ele><time>2026-05-03T08:23:11Z</time></trkpt><trkpt lat="45.0530817991388" lon="8.556364781025058"><ele>103.0</ele><time>2026-05-03T08:23:12Z</time></trkpt><trkpt lat="45.05291708326699" lon="8.556237195411947"><ele>102.33333333333334</ele><time>2026-05-03T08:23:13Z</time></trkpt><trkpt lat="45.05275242619598" lon="8.556109653667614"><ele>101.66666666666666</ele><time>2026-05-03T08:23:14Z</time></trkpt><trkpt lat="45.05258566989467" lon="8.555979794049728"><ele>101.0</ele><time>2026-05-03T08:23:15Z</time></trkpt><trkpt lat="45.05241596760016" lon="8.55584701616621"><ele>101.0</ele><time>2026-05-03T08:23:16Z</time></trkpt><trkpt lat="45.05224688749865" lon="8.555714724909517"><ele>101.0</ele><time>2026-05-03T08:23:17Z</time></trkpt><trkpt lat="45.052070843533535" lon="8.555576776797482"><ele>101.0</ele><time>2026-05-03T08:23:18Z</time></trkpt><trkpt lat="45.05188884245831" lon="8.555434076760589"><ele>101.0</ele><time>2026-05-03T08:23:19Z</time></trkpt><trkpt lat="45.05170386228125" lon="8.555289210640629"><ele>101.0</ele><time>2026-05-03T08:23:20Z</time></trkpt><trkpt lat="45.0515110608456" lon="8.555139863203719"><ele>101.0</ele><time>2026-05-03T08:23:21Z</time></trkpt><trkpt lat="45.0513146923936" lon="8.554987752591279"><ele>101.0</ele><time>2026-05-03T08:23:22Z</time></trkpt><trkpt lat="45.051120445963335" lon="8.554837285542344"><ele>101.0</ele><time>2026-05-03T08:23:23Z</time></trkpt><trkpt lat="45.05092185851501" lon="8.554683456077939"><ele>101.0</ele><time>2026-05-03T08:23:24Z</time></trkpt><trkpt lat="45.05072385931814" lon="8.55453008229972"><ele>101.0</ele><time>2026-05-03T08:23:25Z</time></trkpt><trkpt lat="45.05052253117706" lon="8.554374129947206"><ele>101.0</ele><time>2026-05-03T08:23:26Z</time></trkpt><trkpt lat="45.05032101189474" lon="8.554218029361936"><ele>101.0</ele><time>2026-05-03T08:23:27Z</time></trkpt><trkpt lat="45.050121719930004" lon="8.55406417775541"><ele>101.0</ele><time>2026-05-03T08:23:28Z</time></trkpt><trkpt lat="45.04992392286328" lon="8.55391177898635"><ele>100.5</ele><time>2026-05-03T08:23:29Z</time></trkpt><trkpt lat="45.049724653046006" lon="8.553758869227106"><ele>100.0</ele><time>2026-05-03T08:23:30Z</time></trkpt><trkpt lat="45.04952053149273" lon="8.553603308371878"><ele>101.5</ele><time>2026-05-03T08:23:31Z</time></trkpt><trkpt lat="45.049316179014916" lon="8.55344757173739"><ele>103.0</ele><time>2026-05-03T08:23:32Z</time></trkpt><trkpt lat="45.04910633593104" lon="8.55328707475085"><ele>103.0</ele><time>2026-05-03T08:23:33Z</time></trkpt><trkpt lat="45.04890199927027" lon="8.553129092878297"><ele>103.0</ele><time>2026-05-03T08:23:34Z</time></trkpt><trkpt lat="45.04870209351117" lon="8.552974536322791"><ele>103.0</ele><time>2026-05-03T08:23:35Z</time></trkpt><trkpt lat="45.04849825636838" lon="8.55281793160154"><ele>103.0</ele><time>2026-05-03T08:23:36Z</time></trkpt><trkpt lat="45.04829521763411" lon="8.552663040985054"><ele>102.0</ele><time>2026-05-03T08:23:37Z</time></trkpt><trkpt lat="45.04809111008597" lon="8.552507336678735"><ele>101.0</ele><time>2026-05-03T08:23:38Z</time></trkpt><trkpt lat="45.047886387297225" lon="8.552348675105899"><ele>101.0</ele><time>2026-05-03T08:23:39Z</time></trkpt><trkpt lat="45.04767987826092" lon="8.552187386971328"><ele>101.0</ele><time>2026-05-03T08:23:40Z</time></trkpt><trkpt lat="45.047474437543826" lon="8.552026933267545"><ele>102.0</ele><time>2026-05-03T08:23:41Z</time></trkpt><trkpt lat="45.047265548811275" lon="8.551864705772962"><ele>103.0</ele><time>2026-05-03T08:23:42Z</time></trkpt><trkpt lat="45.047050940825685" lon="8.55169863831338"><ele>103.0</ele><time>2026-05-03T08:23:43Z</time></trkpt><trkpt lat="45.046841670821614" lon="8.551536701358996"><ele>103.0</ele><time>2026-05-03T08:23:44Z</time></trkpt><trkpt lat="45.04662992955249" lon="8.551372916243803"><ele>103.5</ele><time>2026-05-03T08:23:45Z</time></trkpt><trkpt lat="45.04642141851515" lon="8.551211883213142"><ele>104.0</ele><time>2026-05-03T08:23:46Z</time></trkpt><trkpt lat="45.04621035930562" lon="8.551048882141568"><ele>104.0</ele><time>2026-05-03T08:23:47Z</time></trkpt><trkpt lat="45.045995227048614" lon="8.550882735633241"><ele>104.0</ele><time>2026-05-03T08:23:48Z</time></trkpt><trkpt lat="45.04578606439053" lon="8.550721213153347"><ele>103.0</ele><time>2026-05-03T08:23:48.999Z</time></trkpt><trkpt lat="45.04556704628952" lon="8.550552900229015"><ele>102.0</ele><time>2026-05-03T08:23:49.999Z</time></trkpt><trkpt lat="45.04535151970592" lon="8.550412926872237"><ele>102.0</ele><time>2026-05-03T08:23:50.999Z</time></trkpt><trkpt lat="45.04514112345153" lon="8.55022558331131"><ele>102.0</ele><time>2026-05-03T08:23:51.999Z</time></trkpt><trkpt lat="45.04493014463529" lon="8.550062503017587"><ele>102.0</ele><time>2026-05-03T08:23:52.999Z</time></trkpt><trkpt lat="45.044716310339325" lon="8.549897020952228"><ele>102.0</ele><time>2026-05-03T08:23:53.999Z</time></trkpt><trkpt lat="45.04449428925242" lon="8.549725203262065"><ele>102.0</ele><time>2026-05-03T08:23:54.999Z</time></trkpt><trkpt lat="45.044267394209854" lon="8.549549613653582"><ele>102.0</ele><time>2026-05-03T08:23:55.999Z</time></trkpt><trkpt lat="45.04404851630219" lon="8.549380228393229"><ele>103.5</ele><time>2026-05-03T08:23:56.999Z</time></trkpt><trkpt lat="45.04382657635144" lon="8.54920847347624"><ele>105.0</ele><time>2026-05-03T08:23:57.999Z</time></trkpt><trkpt lat="45.04361571219738" lon="8.549045289790506"><ele>105.0</ele><time>2026-05-03T08:23:58.999Z</time></trkpt><trkpt lat="45.04340656798455" lon="8.548883437368021"><ele>105.0</ele><time>2026-05-03T08:23:59.999Z</time></trkpt><trkpt lat="45.04319309038425" lon="8.548718335181475"><ele>105.0</ele><time>2026-05-03T08:24:00.999Z</time></trkpt><trkpt lat="45.04297841258134" lon="8.548552339812623"><ele>105.0</ele><time>2026-05-03T08:24:01.999Z</time></trkpt><trkpt lat="45.042763798115224" lon="8.548386391825142"><ele>105.0</ele><time>2026-05-03T08:24:02.999Z</time></trkpt><trkpt lat="45.04254540684848" lon="8.54821811217516"><ele>105.0</ele><time>2026-05-03T08:24:03.999Z</time></trkpt><trkpt lat="45.04233295114204" lon="8.548068158416818"><ele>105.0</ele><time>2026-05-03T08:24:04.999Z</time></trkpt><trkpt lat="45.04212818967083" lon="8.547905332690737"><ele>105.0</ele><time>2026-05-03T08:24:05.999Z</time></trkpt><trkpt lat="45.04192260271554" lon="8.547754587728422"><ele>104.66666666666666</ele><time>2026-05-03T08:24:06.999Z</time></trkpt><trkpt lat="45.041726453380264" lon="8.547597527184061"><ele>104.33333333333333</ele><time>2026-05-03T08:24:07.999Z</time></trkpt><trkpt lat="45.04153650227607" lon="8.54743233296871"><ele>104.0</ele><time>2026-05-03T08:24:08.999Z</time></trkpt><trkpt lat="45.04136034952644" lon="8.54723961011064"><ele>105.5</ele><time>2026-05-03T08:24:09.999Z</time></trkpt><trkpt lat="45.04119835122876" lon="8.547007891128695"><ele>107.0</ele><time>2026-05-03T08:24:10.999Z</time></trkpt><trkpt lat="45.041063714132555" lon="8.54675899031627"><ele>107.0</ele><time>2026-05-03T08:24:11.999Z</time></trkpt><trkpt lat="45.040948316459165" lon="8.546490036970924"><ele>107.0</ele><time>2026-05-03T08:24:12.999Z</time></trkpt><trkpt lat="45.040861000649755" lon="8.546212663806456"><ele>107.0</ele><time>2026-05-03T08:24:13.999Z</time></trkpt><trkpt lat="45.04079802109774" lon="8.545912344842966"><ele>107.0</ele><time>2026-05-03T08:24:14.999Z</time></trkpt><trkpt lat="45.04076705325676" lon="8.545601989805068"><ele>107.0</ele><time>2026-05-03T08:24:15.999Z</time></trkpt><trkpt lat="45.04073573480645" lon="8.545280111930238"><ele>107.0</ele><time>2026-05-03T08:24:16.999Z</time></trkpt><trkpt lat="45.04069755601359" lon="8.544957248290787"><ele>107.0</ele><time>2026-05-03T08:24:17.999Z</time></trkpt><trkpt lat="45.04066154299345" lon="8.544634471312646"><ele>107.5</ele><time>2026-05-03T08:24:18.999Z</time></trkpt><trkpt lat="45.040633993836835" lon="8.54431808185216"><ele>108.0</ele><time>2026-05-03T08:24:19.999Z</time></trkpt><trkpt lat="45.04059973917455" lon="8.543984411613499"><ele>107.5</ele><time>2026-05-03T08:24:20.999Z</time></trkpt><trkpt lat="45.04056715653678" lon="8.543659859225292"><ele>107.0</ele><time>2026-05-03T08:24:21.999Z</time></trkpt><trkpt lat="45.04053147967219" lon="8.54333340167224"><ele>107.0</ele><time>2026-05-03T08:24:22.999Z</time></trkpt><trkpt lat="45.04050294298505" lon="8.543016316300445"><ele>107.0</ele><time>2026-05-03T08:24:23.999Z</time></trkpt><trkpt lat="45.04046624681211" lon="8.542696497342016"><ele>106.5</ele><time>2026-05-03T08:24:24.999Z</time></trkpt><trkpt lat="45.040433616554786" lon="8.542374957585388"><ele>106.0</ele><time>2026-05-03T08:24:25.999Z</time></trkpt><trkpt lat="45.0404042109614" lon="8.54205815699244"><ele>106.0</ele><time>2026-05-03T08:24:26.999Z</time></trkpt><trkpt lat="45.04037082939188" lon="8.541740271100398"><ele>106.0</ele><time>2026-05-03T08:24:27.999Z</time></trkpt><trkpt lat="45.040337224613786" lon="8.541428372240071"><ele>106.33333333333334</ele><time>2026-05-03T08:24:28.999Z</time></trkpt><trkpt lat="45.040306282783355" lon="8.541120652501007"><ele>106.66666666666666</ele><time>2026-05-03T08:24:29.999Z</time></trkpt><trkpt lat="45.040283105315225" lon="8.540834320464262"><ele>107.0</ele><time>2026-05-03T08:24:30.999Z</time></trkpt><trkpt lat="45.04025658159618" lon="8.540555565697522"><ele>106.66666666666666</ele><time>2026-05-03T08:24:31.999Z</time></trkpt><trkpt lat="45.04022865454514" lon="8.54028457443344"><ele>106.33333333333334</ele><time>2026-05-03T08:24:32.999Z</time></trkpt><trkpt lat="45.040200365520136" lon="8.540015385166647"><ele>106.0</ele><time>2026-05-03T08:24:33.999Z</time></trkpt><trkpt lat="45.04017558804533" lon="8.539750884050449"><ele>106.0</ele><time>2026-05-03T08:24:34.999Z</time></trkpt><trkpt lat="45.04014627504088" lon="8.539487011097666"><ele>106.0</ele><time>2026-05-03T08:24:35.999Z</time></trkpt><trkpt lat="45.04011412906839" lon="8.539214057487726"><ele>106.0</ele><time>2026-05-03T08:24:36.999Z</time></trkpt><trkpt lat="45.04008676074216" lon="8.538939928219742"><ele>106.33333333333334</ele><time>2026-05-03T08:24:37.999Z</time></trkpt><trkpt lat="45.04005351469154" lon="8.538641106538737"><ele>106.66666666666666</ele><time>2026-05-03T08:24:38.999Z</time></trkpt><trkpt lat="45.04002446214364" lon="8.538344444583098"><ele>107.0</ele><time>2026-05-03T08:24:39.999Z</time></trkpt><trkpt lat="45.03998985104214" lon="8.538042828045636"><ele>108.0</ele><time>2026-05-03T08:24:40.999Z</time></trkpt><trkpt lat="45.03993141858601" lon="8.537735913306895"><ele>109.0</ele><time>2026-05-03T08:24:41.999Z</time></trkpt><trkpt lat="45.03987065454654" lon="8.537424133472369"><ele>109.0</ele><time>2026-05-03T08:24:42.999Z</time></trkpt><trkpt lat="45.039809841165834" lon="8.537103025488834"><ele>109.0</ele><time>2026-05-03T08:24:43.999Z</time></trkpt><trkpt lat="45.039750355971805" lon="8.53678251015063"><ele>109.0</ele><time>2026-05-03T08:24:44.999Z</time></trkpt><trkpt lat="45.039697189922144" lon="8.536470720274705"><ele>109.0</ele><time>2026-05-03T08:24:45.999Z</time></trkpt><trkpt lat="45.03963603333851" lon="8.536160008839397"><ele>109.0</ele><time>2026-05-03T08:24:46.999Z</time></trkpt><trkpt lat="45.039578678554165" lon="8.535848583045249"><ele>109.0</ele><time>2026-05-03T08:24:47.999Z</time></trkpt><trkpt lat="45.03951936651199" lon="8.535538130005223"><ele>108.0</ele><time>2026-05-03T08:24:49Z</time></trkpt><trkpt lat="45.03945950378351" lon="8.535231953601064"><ele>107.0</ele><time>2026-05-03T08:24:50Z</time></trkpt><trkpt lat="45.03939290873678" lon="8.53491831942367"><ele>107.0</ele><time>2026-05-03T08:24:51Z</time></trkpt><trkpt lat="45.03932443225548" lon="8.534600319572725"><ele>107.0</ele><time>2026-05-03T08:24:52Z</time></trkpt><trkpt lat="45.0392542073636" lon="8.534284449221209"><ele>108.0</ele><time>2026-05-03T08:24:53Z</time></trkpt><trkpt lat="45.03918527490057" lon="8.533977439086986"><ele>109.0</ele><time>2026-05-03T08:24:54Z</time></trkpt><trkpt lat="45.039125605687424" lon="8.533653037082399"><ele>111.0</ele><time>2026-05-03T08:24:55Z</time></trkpt><trkpt lat="45.039073199627204" lon="8.533333906026334"><ele>113.0</ele><time>2026-05-03T08:24:56Z</time></trkpt><trkpt lat="45.03901338866015" lon="8.533013599915671"><ele>113.0</ele><time>2026-05-03T08:24:57Z</time></trkpt><trkpt lat="45.03894958225671" lon="8.532685856936997"><ele>113.0</ele><time>2026-05-03T08:24:58Z</time></trkpt><trkpt lat="45.038886374461605" lon="8.532353315136406"><ele>113.5</ele><time>2026-05-03T08:24:59Z</time></trkpt><trkpt lat="45.03882811554769" lon="8.532028691412066"><ele>114.0</ele><time>2026-05-03T08:25:00Z</time></trkpt><trkpt lat="45.03876736232116" lon="8.531712000758704"><ele>114.0</ele><time>2026-05-03T08:25:01Z</time></trkpt><trkpt lat="45.03870657483672" lon="8.531407445331052"><ele>114.0</ele><time>2026-05-03T08:25:02Z</time></trkpt><trkpt lat="45.03864652809493" lon="8.531099019982555"><ele>114.33333333333334</ele><time>2026-05-03T08:25:03Z</time></trkpt><trkpt lat="45.03858317149326" lon="8.530797442793133"><ele>114.66666666666667</ele><time>2026-05-03T08:25:04Z</time></trkpt><trkpt lat="45.03852465728899" lon="8.53049902523425"><ele>115.0</ele><time>2026-05-03T08:25:05Z</time></trkpt><trkpt lat="45.03846281836336" lon="8.5302017909383"><ele>115.5</ele><time>2026-05-03T08:25:06Z</time></trkpt><trkpt lat="45.03840426323693" lon="8.529895316925685"><ele>116.0</ele><time>2026-05-03T08:25:07Z</time></trkpt><trkpt lat="45.03834446164974" lon="8.529585884817797"><ele>116.0</ele><time>2026-05-03T08:25:08Z</time></trkpt><trkpt lat="45.03828441936724" lon="8.529296823435324"><ele>116.0</ele><time>2026-05-03T08:25:09Z</time></trkpt><trkpt lat="45.03823775890909" lon="8.529029394709697"><ele>116.0</ele><time>2026-05-03T08:25:10Z</time></trkpt><trkpt lat="45.03819412181635" lon="8.528774526879879"><ele>117.66666666666666</ele><time>2026-05-03T08:25:11Z</time></trkpt><trkpt lat="45.0381526473935" lon="8.528531107560179"><ele>119.33333333333334</ele><time>2026-05-03T08:25:12Z</time></trkpt><trkpt lat="45.03810938877577" lon="8.528276903310458"><ele>121.0</ele><time>2026-05-03T08:25:13Z</time></trkpt><trkpt lat="45.038068728840194" lon="8.528032136475973"><ele>121.33333333333334</ele><time>2026-05-03T08:25:14Z</time></trkpt><trkpt lat="45.038049753534146" lon="8.527791586729734"><ele>121.66666666666666</ele><time>2026-05-03T08:25:15Z</time></trkpt><trkpt lat="45.03801285540648" lon="8.527582704078274"><ele>122.0</ele><time>2026-05-03T08:25:16Z</time></trkpt><trkpt lat="45.03797833533701" lon="8.527374939991127"><ele>122.0</ele><time>2026-05-03T08:25:17Z</time></trkpt><trkpt lat="45.03794546142933" lon="8.527164488593913"><ele>122.0</ele><time>2026-05-03T08:25:18Z</time></trkpt><trkpt lat="45.03790718925777" lon="8.526956518319261"><ele>122.0</ele><time>2026-05-03T08:25:19Z</time></trkpt><trkpt lat="45.03789255547934" lon="8.52675073667349"><ele>122.25</ele><time>2026-05-03T08:25:20Z</time></trkpt><trkpt lat="45.03789943782906" lon="8.52654993504413"><ele>122.5</ele><time>2026-05-03T08:25:21Z</time></trkpt><trkpt lat="45.03793875037392" lon="8.52635372077239"><ele>122.75</ele><time>2026-05-03T08:25:22Z</time></trkpt><trkpt lat="45.03797414337683" lon="8.52618890316468"><ele>123.0</ele><time>2026-05-03T08:25:23Z</time></trkpt><trkpt lat="45.03801246728156" lon="8.526032358184557"><ele>123.2</ele><time>2026-05-03T08:25:24Z</time></trkpt><trkpt lat="45.03804730764613" lon="8.525908388224154"><ele>123.4</ele><time>2026-05-03T08:25:25Z</time></trkpt><trkpt lat="45.038083478762786" lon="8.525783252308738"><ele>123.60000000000001</ele><time>2026-05-03T08:25:26Z</time></trkpt><trkpt lat="45.03811613974613" lon="8.525668364959525"><ele>123.80000000000001</ele><time>2026-05-03T08:25:27Z</time></trkpt><trkpt lat="45.03814710520509" lon="8.525552788569152"><ele>124.0</ele><time>2026-05-03T08:25:28Z</time></trkpt><trkpt lat="45.038178854205896" lon="8.52542441930358"><ele>124.0</ele><time>2026-05-03T08:25:30Z</time></trkpt><trkpt lat="45.038192429012604" lon="8.525316124141453"><ele>124.0</ele><time>2026-05-03T08:25:37Z</time></trkpt><trkpt lat="45.03804177686479" lon="8.525259144972093"><ele>124.0</ele><time>2026-05-03T08:25:38Z</time></trkpt><trkpt lat="45.03793643500949" lon="8.525267276549823"><ele>124.0</ele><time>2026-05-03T08:25:39Z</time></trkpt><trkpt lat="45.03785912172613" lon="8.525280812998053"><ele>124.0</ele><time>2026-05-03T08:25:40Z</time></trkpt><trkpt lat="45.037765704759266" lon="8.525296385512442"><ele>124.0</ele><time>2026-05-03T08:25:41Z</time></trkpt><trkpt lat="45.03766149150871" lon="8.525308742770743"><ele>124.0</ele><time>2026-05-03T08:25:42Z</time></trkpt><trkpt lat="45.03757006959409" lon="8.525303275716654"><ele>124.0</ele><time>2026-05-03T08:25:43Z</time></trkpt><trkpt lat="45.037470482145096" lon="8.525292306326083"><ele>124.0</ele><time>2026-05-03T08:25:44Z</time></trkpt><trkpt lat="45.03735605036931" lon="8.525306910365298"><ele>124.0</ele><time>2026-05-03T08:25:45Z</time></trkpt><trkpt lat="45.03724925513642" lon="8.525313762278259"><ele>122.5</ele><time>2026-05-03T08:25:46Z</time></trkpt><trkpt lat="45.037123743229536" lon="8.52533406232053"><ele>121.0</ele><time>2026-05-03T08:25:47Z</time></trkpt><trkpt lat="45.03702071391503" lon="8.525275374742227"><ele>119.5</ele><time>2026-05-03T08:25:48Z</time></trkpt><trkpt lat="45.03691123425502" lon="8.525281467126003"><ele>118.0</ele><time>2026-05-03T08:25:49Z</time></trkpt><trkpt lat="45.03680309093228" lon="8.525296179742169"><ele>118.0</ele><time>2026-05-03T08:25:50Z</time></trkpt><trkpt lat="45.03668951070506" lon="8.525307335232833"><ele>118.00000000000001</ele><time>2026-05-03T08:25:51Z</time></trkpt><trkpt lat="45.036588297439636" lon="8.525297044437131"><ele>118.00000000000001</ele><time>2026-05-03T08:25:52Z</time></trkpt><trkpt lat="45.036478586932944" lon="8.52527948031907"><ele>118.0</ele><time>2026-05-03T08:25:53Z</time></trkpt><trkpt lat="45.03636824364301" lon="8.525231586059055"><ele>118.0</ele><time>2026-05-03T08:25:53.999Z</time></trkpt><trkpt lat="45.036261536012475" lon="8.525167064574717"><ele>118.0</ele><time>2026-05-03T08:25:54.999Z</time></trkpt><trkpt lat="45.03615117238485" lon="8.525085943134014"><ele>118.0</ele><time>2026-05-03T08:25:55.999Z</time></trkpt><trkpt lat="45.036053884350885" lon="8.524998772850337"><ele>118.0</ele><time>2026-05-03T08:25:56.999Z</time></trkpt><trkpt lat="45.03596098882516" lon="8.524907366409954"><ele>118.0</ele><time>2026-05-03T08:25:57.999Z</time></trkpt><trkpt lat="45.03586826657036" lon="8.52480358034201"><ele>118.0</ele><time>2026-05-03T08:25:58.999Z</time></trkpt><trkpt lat="45.035793220469316" lon="8.524672893107468"><ele>118.00000000000001</ele><time>2026-05-03T08:25:59.999Z</time></trkpt><trkpt lat="45.03573804398964" lon="8.524551216699052"><ele>118.00000000000001</ele><time>2026-05-03T08:26:00.999Z</time></trkpt><trkpt lat="45.03569676512198" lon="8.52442589966894"><ele>118.0</ele><time>2026-05-03T08:26:01.999Z</time></trkpt><trkpt lat="45.035651408137156" lon="8.52430650291651"><ele>118.0</ele><time>2026-05-03T08:26:02.999Z</time></trkpt><trkpt lat="45.03561164024318" lon="8.524223672718323"><ele>118.00000000000001</ele><time>2026-05-03T08:26:03.999Z</time></trkpt><trkpt lat="45.035576845398694" lon="8.524124840845758"><ele>118.0</ele><time>2026-05-03T08:26:04.999Z</time></trkpt><trkpt lat="45.03553378357863" lon="8.523976400708888"><ele>118.0</ele><time>2026-05-03T08:26:06.999Z</time></trkpt><trkpt lat="45.03549251486557" lon="8.523883086609041"><ele>118.0</ele><time>2026-05-03T08:26:09.999Z</time></trkpt><trkpt lat="45.035449376611055" lon="8.523810217832542"><ele>118.00000000000001</ele><time>2026-05-03T08:26:13.999Z</time></trkpt><trkpt lat="45.035375516539695" lon="8.52380165472246"><ele>118.0</ele><time>2026-05-03T08:26:15.999Z</time></trkpt><trkpt lat="45.03535625175476" lon="8.523684248631548"><ele>118.0</ele><time>2026-05-03T08:26:17.999Z</time></trkpt><trkpt lat="45.03532330351427" lon="8.52387392095343"><ele>118.0</ele><time>2026-05-03T08:26:18.999Z</time></trkpt><trkpt lat="45.035073017614124" lon="8.523676429041144"><ele>118.0</ele><time>2026-05-03T08:27:41.019Z</time></trkpt><trkpt lat="45.03527778482815" lon="8.523816565553197"><ele>118.0</ele><time>2026-05-03T08:27:53Z</time></trkpt><trkpt lat="45.035195418769426" lon="8.524077897570553"><ele>118.0</ele><time>2026-05-03T08:28:01.999Z</time></trkpt><trkpt lat="45.03532365724514" lon="8.523852568788291"><ele>118.0</ele><time>2026-05-03T08:28:09.999Z</time></trkpt><trkpt lat="45.035483295581585" lon="8.523792728440938"><ele>118.0</ele><time>2026-05-03T08:28:49.148Z</time></trkpt><trkpt lat="45.035413144701465" lon="8.52380203094222"><ele>118.0</ele><time>2026-05-03T08:29:22Z</time></trkpt><trkpt lat="45.03533029441028" lon="8.523877223324519"><ele>118.0</ele><time>2026-05-03T08:29:48Z</time></trkpt><trkpt lat="45.035589983357696" lon="8.523789312487619"><ele>118.0</ele><time>2026-05-03T08:30:21.999Z</time></trkpt><trkpt lat="45.03550008556787" lon="8.523788030299798"><ele>118.0</ele><time>2026-05-03T08:30:29.999Z</time></trkpt><trkpt lat="45.035438609035786" lon="8.523765925189613"><ele>118.00000000000001</ele><time>2026-05-03T08:30:32.999Z</time></trkpt><trkpt lat="45.03530134792717" lon="8.523767414131607"><ele>118.00000000000001</ele><time>2026-05-03T08:30:40.999Z</time></trkpt><trkpt lat="45.03537921844561" lon="8.52378571478072"><ele>118.0</ele><time>2026-05-03T08:38:50.292Z</time></trkpt><trkpt lat="45.035493416355024" lon="8.523803944196034"><ele>118.0</ele><time>2026-05-03T08:38:57.912Z</time></trkpt><trkpt lat="45.03561857796835" lon="8.524036932701362"><ele>118.0</ele><time>2026-05-03T08:39:06.217Z</time></trkpt><trkpt lat="45.03562700716035" lon="8.523943080643926"><ele>118.00000000000001</ele><time>2026-05-03T08:39:08.949Z</time></trkpt><trkpt lat="45.03556852240654" lon="8.523860411606552"><ele>118.00000000000001</ele><time>2026-05-03T08:39:10.018Z</time></trkpt><trkpt lat="45.035474386416745" lon="8.523857092407022"><ele>118.0</ele><time>2026-05-03T08:39:15.999Z</time></trkpt><trkpt lat="45.03533716846303" lon="8.52394646176957"><ele>118.0</ele><time>2026-05-03T08:42:38Z</time></trkpt><trkpt lat="45.03531276887661" lon="8.524030175088148"><ele>118.0</ele><time>2026-05-03T08:42:56.999Z</time></trkpt><trkpt lat="45.03524214625615" lon="8.524124135854043"><ele>118.00000000000001</ele><time>2026-05-03T08:42:59.999Z</time></trkpt><trkpt lat="45.035167840506794" lon="8.524240855533892"><ele>118.00000000000001</ele><time>2026-05-03T08:43:01.999Z</time></trkpt><trkpt lat="45.0350769562592" lon="8.524398375800809"><ele>118.0</ele><time>2026-05-03T08:43:03.999Z</time></trkpt><trkpt lat="45.03503019472552" lon="8.524466572496955"><ele>118.0</ele><time>2026-05-03T08:43:04.999Z</time></trkpt><trkpt lat="45.03499424461194" lon="8.52456191288433"><ele>118.66666666666667</ele><time>2026-05-03T08:43:05.999Z</time></trkpt><trkpt lat="45.03493782123621" lon="8.524646796699493"><ele>119.33333333333334</ele><time>2026-05-03T08:43:06.999Z</time></trkpt><trkpt lat="45.03490829042079" lon="8.524730924191543"><ele>120.0</ele><time>2026-05-03T08:43:07.999Z</time></trkpt><trkpt lat="45.03483751236506" lon="8.524698081412932"><ele>120.66666666666666</ele><time>2026-05-03T08:43:09.999Z</time></trkpt><trkpt lat="45.034752741686056" lon="8.524544691342848"><ele>121.33333333333333</ele><time>2026-05-03T08:43:11.999Z</time></trkpt><trkpt lat="45.034709994121975" lon="8.524468637110445"><ele>122.0</ele><time>2026-05-03T08:43:12.999Z</time></trkpt><trkpt lat="45.034660057084125" lon="8.524380299261919"><ele>122.16666666666666</ele><time>2026-05-03T08:43:13.999Z</time></trkpt><trkpt lat="45.034619530288275" lon="8.52430860796574"><ele>122.33333333333333</ele><time>2026-05-03T08:43:14.999Z</time></trkpt><trkpt lat="45.034571563019135" lon="8.524223755002927"><ele>122.5</ele><time>2026-05-03T08:43:15.999Z</time></trkpt><trkpt lat="45.03452177240499" lon="8.524137422645548"><ele>122.66666666666666</ele><time>2026-05-03T08:43:16.999Z</time></trkpt><trkpt lat="45.03445416570448" lon="8.52404642554671"><ele>122.83333333333333</ele><time>2026-05-03T08:43:17.999Z</time></trkpt><trkpt lat="45.0344019993687" lon="8.523937471230132"><ele>123.0</ele><time>2026-05-03T08:43:18.999Z</time></trkpt><trkpt lat="45.03433792862044" lon="8.523835059432523"><ele>123.0</ele><time>2026-05-03T08:43:19.999Z</time></trkpt><trkpt lat="45.034278554541615" lon="8.52375136706019"><ele>123.00000000000001</ele><time>2026-05-03T08:43:20.999Z</time></trkpt><trkpt lat="45.03422496603004" lon="8.523642107067577"><ele>123.00000000000001</ele><time>2026-05-03T08:43:21.999Z</time></trkpt><trkpt lat="45.03416454515875" lon="8.523545943139359"><ele>123.0</ele><time>2026-05-03T08:43:22.999Z</time></trkpt><trkpt lat="45.034089088417474" lon="8.523433422432296"><ele>123.0</ele><time>2026-05-03T08:43:23.999Z</time></trkpt><trkpt lat="45.0340302540482" lon="8.523331510907054"><ele>123.4</ele><time>2026-05-03T08:43:24.999Z</time></trkpt><trkpt lat="45.03395579515372" lon="8.523256595409773"><ele>123.80000000000001</ele><time>2026-05-03T08:43:25.999Z</time></trkpt><trkpt lat="45.03388803605917" lon="8.523167995619119"><ele>124.2</ele><time>2026-05-03T08:43:26.999Z</time></trkpt><trkpt lat="45.03377175566637" lon="8.523133446735093"><ele>124.6</ele><time>2026-05-03T08:43:27.999Z</time></trkpt><trkpt lat="45.03367169282013" lon="8.523016708603857"><ele>125.0</ele><time>2026-05-03T08:43:28.999Z</time></trkpt><trkpt lat="45.03358017199249" lon="8.522933770570656"><ele>125.0</ele><time>2026-05-03T08:43:29.999Z</time></trkpt><trkpt lat="45.03348699057897" lon="8.522848837795918"><ele>125.0</ele><time>2026-05-03T08:43:30.999Z</time></trkpt><trkpt lat="45.03339731318846" lon="8.522753159707179"><ele>125.0</ele><time>2026-05-03T08:43:31.999Z</time></trkpt><trkpt lat="45.03331401056477" lon="8.52267910861538"><ele>125.0</ele><time>2026-05-03T08:43:32.999Z</time></trkpt><trkpt lat="45.033207973111885" lon="8.522620697081969"><ele>125.0</ele><time>2026-05-03T08:43:33.999Z</time></trkpt><trkpt lat="45.03312577348541" lon="8.52252859402696"><ele>125.0</ele><time>2026-05-03T08:43:34.999Z</time></trkpt><trkpt lat="45.03303556601012" lon="8.522455784364857"><ele>125.0</ele><time>2026-05-03T08:43:35.999Z</time></trkpt><trkpt lat="45.03294118293544" lon="8.52238724355904"><ele>125.0</ele><time>2026-05-03T08:43:36.999Z</time></trkpt><trkpt lat="45.03284111142334" lon="8.52230693712272"><ele>125.0</ele><time>2026-05-03T08:43:37.999Z</time></trkpt><trkpt lat="45.032743667004276" lon="8.52222802660998"><ele>125.0</ele><time>2026-05-03T08:43:38.999Z</time></trkpt><trkpt lat="45.032655582466" lon="8.522149765844146"><ele>124.75</ele><time>2026-05-03T08:43:39.999Z</time></trkpt><trkpt lat="45.03256431180937" lon="8.522058149838221"><ele>124.5</ele><time>2026-05-03T08:43:40.999Z</time></trkpt><trkpt lat="45.032468640674175" lon="8.521959258498592"><ele>124.25</ele><time>2026-05-03T08:43:41.999Z</time></trkpt><trkpt lat="45.032374291701295" lon="8.521862767693785"><ele>124.0</ele><time>2026-05-03T08:43:42.999Z</time></trkpt><trkpt lat="45.03230861589515" lon="8.521741227207619"><ele>124.0</ele><time>2026-05-03T08:43:43.999Z</time></trkpt><trkpt lat="45.032240886316686" lon="8.52165302679677"><ele>124.0</ele><time>2026-05-03T08:43:44.999Z</time></trkpt><trkpt lat="45.0321771158454" lon="8.521544323367275"><ele>124.0</ele><time>2026-05-03T08:43:45.999Z</time></trkpt><trkpt lat="45.03210584278601" lon="8.521423292829214"><ele>124.0</ele><time>2026-05-03T08:43:46.999Z</time></trkpt><trkpt lat="45.032040837637474" lon="8.521312906033353"><ele>124.0</ele><time>2026-05-03T08:43:47.999Z</time></trkpt><trkpt lat="45.03197587224536" lon="8.521202526207079"><ele>124.0</ele><time>2026-05-03T08:43:48.999Z</time></trkpt><trkpt lat="45.031909448292396" lon="8.521089626853383"><ele>124.0</ele><time>2026-05-03T08:43:49.999Z</time></trkpt><trkpt lat="45.031842768898024" lon="8.520978066765101"><ele>124.0</ele><time>2026-05-03T08:43:50.999Z</time></trkpt><trkpt lat="45.031771615606004" lon="8.520868546519234"><ele>124.0</ele><time>2026-05-03T08:43:52Z</time></trkpt><trkpt lat="45.03170084502276" lon="8.520766731680716"><ele>124.0</ele><time>2026-05-03T08:43:53Z</time></trkpt><trkpt lat="45.03162990779331" lon="8.52067044341833"><ele>124.0</ele><time>2026-05-03T08:43:54Z</time></trkpt><trkpt lat="45.03155253475797" lon="8.520575111166702"><ele>124.0</ele><time>2026-05-03T08:43:55Z</time></trkpt><trkpt lat="45.03146818570847" lon="8.520484595928103"><ele>124.0</ele><time>2026-05-03T08:43:56Z</time></trkpt><trkpt lat="45.031380062754025" lon="8.520402012131871"><ele>124.0</ele><time>2026-05-03T08:43:57Z</time></trkpt><trkpt lat="45.03128971958338" lon="8.520342135288358"><ele>124.0</ele><time>2026-05-03T08:43:58Z</time></trkpt><trkpt lat="45.03121249299495" lon="8.520247683339205"><ele>123.6</ele><time>2026-05-03T08:43:59Z</time></trkpt><trkpt lat="45.03112179882629" lon="8.520165683685722"><ele>123.2</ele><time>2026-05-03T08:44:00Z</time></trkpt><trkpt lat="45.031032342451546" lon="8.520086399316204"><ele>122.79999999999998</ele><time>2026-05-03T08:44:01Z</time></trkpt><trkpt lat="45.030944596968446" lon="8.519999509922506"><ele>122.39999999999999</ele><time>2026-05-03T08:44:02Z</time></trkpt><trkpt lat="45.03084510603557" lon="8.519905364876458"><ele>122.0</ele><time>2026-05-03T08:44:03Z</time></trkpt><trkpt lat="45.030739125519474" lon="8.519809928482426"><ele>122.0</ele><time>2026-05-03T08:44:04Z</time></trkpt><trkpt lat="45.03062880245351" lon="8.519712518568287"><ele>122.0</ele><time>2026-05-03T08:44:05Z</time></trkpt><trkpt lat="45.03051462704739" lon="8.519614432950783"><ele>122.0</ele><time>2026-05-03T08:44:06Z</time></trkpt><trkpt lat="45.03040455217058" lon="8.519513991296675"><ele>122.0</ele><time>2026-05-03T08:44:07Z</time></trkpt><trkpt lat="45.030292916482125" lon="8.519410648875814"><ele>122.25</ele><time>2026-05-03T08:44:08Z</time></trkpt><trkpt lat="45.0301761345234" lon="8.519305608552603"><ele>122.5</ele><time>2026-05-03T08:44:09Z</time></trkpt><trkpt lat="45.03005936358174" lon="8.519201122497448"><ele>122.75</ele><time>2026-05-03T08:44:10Z</time></trkpt><trkpt lat="45.0299355394262" lon="8.519100761006792"><ele>123.0</ele><time>2026-05-03T08:44:11Z</time></trkpt><trkpt lat="45.029802158196986" lon="8.519010254781094"><ele>123.66666666666666</ele><time>2026-05-03T08:44:12Z</time></trkpt><trkpt lat="45.029659791845056" lon="8.518927152863547"><ele>124.33333333333333</ele><time>2026-05-03T08:44:13Z</time></trkpt><trkpt lat="45.02952579043523" lon="8.518846306191351"><ele>125.0</ele><time>2026-05-03T08:44:14Z</time></trkpt><trkpt lat="45.02938388363833" lon="8.518765156122454"><ele>125.0</ele><time>2026-05-03T08:44:15Z</time></trkpt><trkpt lat="45.02924155928153" lon="8.518689533835508"><ele>125.0</ele><time>2026-05-03T08:44:16Z</time></trkpt><trkpt lat="45.02910241258409" lon="8.51858321970446"><ele>125.0</ele><time>2026-05-03T08:44:17Z</time></trkpt><trkpt lat="45.02895752127863" lon="8.518495254575754"><ele>125.0</ele><time>2026-05-03T08:44:18Z</time></trkpt><trkpt lat="45.02881400831881" lon="8.518404508242849"><ele>125.0</ele><time>2026-05-03T08:44:19Z</time></trkpt><trkpt lat="45.028665528956196" lon="8.51831041017358"><ele>125.0</ele><time>2026-05-03T08:44:20Z</time></trkpt><trkpt lat="45.02851161633442" lon="8.518223935793573"><ele>125.0</ele><time>2026-05-03T08:44:21Z</time></trkpt><trkpt lat="45.028355158474604" lon="8.518128082950088"><ele>125.0</ele><time>2026-05-03T08:44:22Z</time></trkpt><trkpt lat="45.02820139895015" lon="8.51804334235252"><ele>125.0</ele><time>2026-05-03T08:44:23Z</time></trkpt><trkpt lat="45.02804221124315" lon="8.517952850234341"><ele>126.0</ele><time>2026-05-03T08:44:24Z</time></trkpt><trkpt lat="45.02787822638428" lon="8.517857456156385"><ele>127.0</ele><time>2026-05-03T08:44:25Z</time></trkpt><trkpt lat="45.02770974183392" lon="8.517753983067244"><ele>128.0</ele><time>2026-05-03T08:44:26Z</time></trkpt><trkpt lat="45.02753160082105" lon="8.517655882297094"><ele>127.66666666666666</ele><time>2026-05-03T08:44:27Z</time></trkpt><trkpt lat="45.027363145299454" lon="8.5175419808669"><ele>127.33333333333334</ele><time>2026-05-03T08:44:28Z</time></trkpt><trkpt lat="45.02719088754978" lon="8.517438689369774"><ele>127.0</ele><time>2026-05-03T08:44:29Z</time></trkpt><trkpt lat="45.027016067945965" lon="8.517345239432611"><ele>127.0</ele><time>2026-05-03T08:44:30Z</time></trkpt><trkpt lat="45.026847476606406" lon="8.51724766317551"><ele>127.0</ele><time>2026-05-03T08:44:31Z</time></trkpt><trkpt lat="45.026681832238424" lon="8.51715049388779"><ele>127.0</ele><time>2026-05-03T08:44:32Z</time></trkpt><trkpt lat="45.026514925199315" lon="8.517059602428542"><ele>127.33333333333334</ele><time>2026-05-03T08:44:33Z</time></trkpt><trkpt lat="45.026342150913955" lon="8.516985754887521"><ele>127.66666666666666</ele><time>2026-05-03T08:44:34Z</time></trkpt><trkpt lat="45.02617832541973" lon="8.516920921394725"><ele>128.0</ele><time>2026-05-03T08:44:35Z</time></trkpt><trkpt lat="45.0260201608112" lon="8.516863377315397"><ele>128.0</ele><time>2026-05-03T08:44:36Z</time></trkpt><trkpt lat="45.025869110812785" lon="8.516814377966702"><ele>128.0</ele><time>2026-05-03T08:44:37Z</time></trkpt><trkpt lat="45.02572539941952" lon="8.51676906425151"><ele>128.0</ele><time>2026-05-03T08:44:38Z</time></trkpt><trkpt lat="45.02559006820718" lon="8.516728494583164"><ele>128.0</ele><time>2026-05-03T08:44:39Z</time></trkpt><trkpt lat="45.02545645078168" lon="8.51669244754195"><ele>128.75</ele><time>2026-05-03T08:44:40Z</time></trkpt><trkpt lat="45.02532351102667" lon="8.516663946822346"><ele>129.5</ele><time>2026-05-03T08:44:41Z</time></trkpt><trkpt lat="45.02519806987582" lon="8.5166336205509"><ele>130.25</ele><time>2026-05-03T08:44:42Z</time></trkpt><trkpt lat="45.025083430246276" lon="8.516611053158234"><ele>131.0</ele><time>2026-05-03T08:44:43Z</time></trkpt><trkpt lat="45.024973360315826" lon="8.51658751470568"><ele>131.2</ele><time>2026-05-03T08:44:44Z</time></trkpt><trkpt lat="45.02485765061062" lon="8.51655713186398"><ele>131.39999999999998</ele><time>2026-05-03T08:44:45Z</time></trkpt><trkpt lat="45.02475519954347" lon="8.516530378830721"><ele>131.6</ele><time>2026-05-03T08:44:46Z</time></trkpt><trkpt lat="45.024645447369885" lon="8.51649343322134"><ele>131.79999999999998</ele><time>2026-05-03T08:44:47Z</time></trkpt><trkpt lat="45.0245354281015" lon="8.516454963806169"><ele>132.0</ele><time>2026-05-03T08:44:48Z</time></trkpt><trkpt lat="45.02440542074411" lon="8.516408655869306"><ele>132.0</ele><time>2026-05-03T08:44:49Z</time></trkpt><trkpt lat="45.02427031377684" lon="8.516372026454004"><ele>132.0</ele><time>2026-05-03T08:44:50Z</time></trkpt><trkpt lat="45.02412685364423" lon="8.516333194779737"><ele>132.0</ele><time>2026-05-03T08:44:51Z</time></trkpt><trkpt lat="45.02398421359478" lon="8.516293390368395"><ele>132.0</ele><time>2026-05-03T08:44:52Z</time></trkpt><trkpt lat="45.02382418246153" lon="8.516259011573649"><ele>132.66666666666666</ele><time>2026-05-03T08:44:53Z</time></trkpt><trkpt lat="45.0236605474595" lon="8.516206630270224"><ele>133.33333333333331</ele><time>2026-05-03T08:44:54Z</time></trkpt><trkpt lat="45.02349726211673" lon="8.516164801678876"><ele>134.0</ele><time>2026-05-03T08:44:55Z</time></trkpt><trkpt lat="45.02334209836573" lon="8.51611163257187"><ele>134.33333333333331</ele><time>2026-05-03T08:44:56Z</time></trkpt><trkpt lat="45.02318033198401" lon="8.516070677409775"><ele>134.66666666666666</ele><time>2026-05-03T08:44:57Z</time></trkpt><trkpt lat="45.02302602006056" lon="8.516019708922531"><ele>135.0</ele><time>2026-05-03T08:44:58Z</time></trkpt><trkpt lat="45.02287029014695" lon="8.515950746962659"><ele>135.0</ele><time>2026-05-03T08:44:59Z</time></trkpt><trkpt lat="45.02271890580832" lon="8.51585358891379"><ele>135.0</ele><time>2026-05-03T08:45:00Z</time></trkpt><trkpt lat="45.022571653620005" lon="8.515743976158635"><ele>135.0</ele><time>2026-05-03T08:45:01Z</time></trkpt><trkpt lat="45.02242742521884" lon="8.515649843779938"><ele>135.66666666666666</ele><time>2026-05-03T08:45:02Z</time></trkpt><trkpt lat="45.02228935886083" lon="8.515550118240208"><ele>136.33333333333331</ele><time>2026-05-03T08:45:03Z</time></trkpt><trkpt lat="45.02215573581865" lon="8.515448876351737"><ele>137.0</ele><time>2026-05-03T08:45:04Z</time></trkpt><trkpt lat="45.022025665183996" lon="8.515356552620162"><ele>137.0</ele><time>2026-05-03T08:45:05Z</time></trkpt><trkpt lat="45.02190539566986" lon="8.515270574428568"><ele>137.0</ele><time>2026-05-03T08:45:06Z</time></trkpt><trkpt lat="45.02179214260716" lon="8.515198824260398"><ele>137.0</ele><time>2026-05-03T08:45:07Z</time></trkpt><trkpt lat="45.02169661823024" lon="8.515129395889053"><ele>137.0</ele><time>2026-05-03T08:45:08Z</time></trkpt><trkpt lat="45.02161383673161" lon="8.515066246985597"><ele>137.16666666666666</ele><time>2026-05-03T08:45:09Z</time></trkpt><trkpt lat="45.02154048719835" lon="8.515014559652881"><ele>137.33333333333331</ele><time>2026-05-03T08:45:10Z</time></trkpt><trkpt lat="45.02146532697146" lon="8.514925130123537"><ele>137.5</ele><time>2026-05-03T08:45:12Z</time></trkpt><trkpt lat="45.02146394342117" lon="8.51477447014532"><ele>137.66666666666666</ele><time>2026-05-03T08:45:14Z</time></trkpt><trkpt lat="45.021478620249646" lon="8.51468213537228"><ele>137.83333333333334</ele><time>2026-05-03T08:45:15Z</time></trkpt><trkpt lat="45.02149252514033" lon="8.514590024623502"><ele>138.0</ele><time>2026-05-03T08:45:16Z</time></trkpt><trkpt lat="45.021511462373454" lon="8.514479767265673"><ele>138.0</ele><time>2026-05-03T08:45:16.999Z</time></trkpt><trkpt lat="45.021529579950496" lon="8.51435593409107"><ele>138.0</ele><time>2026-05-03T08:45:17.999Z</time></trkpt><trkpt lat="45.021550054137826" lon="8.514230802725852"><ele>138.0</ele><time>2026-05-03T08:45:18.999Z</time></trkpt><trkpt lat="45.021579410744884" lon="8.51409754222359"><ele>138.0</ele><time>2026-05-03T08:45:19.999Z</time></trkpt><trkpt lat="45.02161088391662" lon="8.51396889185404"><ele>138.0</ele><time>2026-05-03T08:45:20.999Z</time></trkpt><trkpt lat="45.0216398355219" lon="8.513818282556464"><ele>137.0</ele><time>2026-05-03T08:45:21.999Z</time></trkpt><trkpt lat="45.021685486247485" lon="8.513667915723616"><ele>136.0</ele><time>2026-05-03T08:45:22.999Z</time></trkpt><trkpt lat="45.021709662095525" lon="8.513506608610077"><ele>135.0</ele><time>2026-05-03T08:45:23.999Z</time></trkpt><trkpt lat="45.021729382140556" lon="8.51334734504291"><ele>134.0</ele><time>2026-05-03T08:45:24.999Z</time></trkpt><trkpt lat="45.021745156609335" lon="8.513167120247452"><ele>134.0</ele><time>2026-05-03T08:45:25.999Z</time></trkpt><trkpt lat="45.02176715982996" lon="8.512988288372567"><ele>134.0</ele><time>2026-05-03T08:45:26.999Z</time></trkpt><trkpt lat="45.02179385202328" lon="8.512815033522719"><ele>134.0</ele><time>2026-05-03T08:45:27.999Z</time></trkpt><trkpt lat="45.02181093452923" lon="8.512639596149825"><ele>134.0</ele><time>2026-05-03T08:45:28.999Z</time></trkpt><trkpt lat="45.02183373941509" lon="8.512468675975347"><ele>134.0</ele><time>2026-05-03T08:45:29.999Z</time></trkpt><trkpt lat="45.02185815281889" lon="8.512290203515622"><ele>134.0</ele><time>2026-05-03T08:45:30.999Z</time></trkpt><trkpt lat="45.0218803252061" lon="8.512125134591656"><ele>134.0</ele><time>2026-05-03T08:45:31.999Z</time></trkpt><trkpt lat="45.021904110670135" lon="8.511965361877243"><ele>134.0</ele><time>2026-05-03T08:45:32.999Z</time></trkpt><trkpt lat="45.02194214549985" lon="8.511819713546515"><ele>134.5</ele><time>2026-05-03T08:45:33.999Z</time></trkpt><trkpt lat="45.02196551665181" lon="8.511655722692684"><ele>135.0</ele><time>2026-05-03T08:45:34.999Z</time></trkpt><trkpt lat="45.02198845309033" lon="8.511495059689588"><ele>135.5</ele><time>2026-05-03T08:45:35.999Z</time></trkpt><trkpt lat="45.02200865061597" lon="8.511323942347254"><ele>136.0</ele><time>2026-05-03T08:45:36.999Z</time></trkpt><trkpt lat="45.02202835597008" lon="8.511160058372928"><ele>136.25</ele><time>2026-05-03T08:45:37.999Z</time></trkpt><trkpt lat="45.02204551031282" lon="8.510993904902374"><ele>136.5</ele><time>2026-05-03T08:45:38.999Z</time></trkpt><trkpt lat="45.02206208087467" lon="8.510826237356445"><ele>136.75</ele><time>2026-05-03T08:45:39.999Z</time></trkpt><trkpt lat="45.02208533524957" lon="8.51065171517525"><ele>137.0</ele><time>2026-05-03T08:45:40.999Z</time></trkpt><trkpt lat="45.022102604455235" lon="8.510475084284753"><ele>137.25</ele><time>2026-05-03T08:45:41.999Z</time></trkpt><trkpt lat="45.02211775727856" lon="8.510297200948933"><ele>137.5</ele><time>2026-05-03T08:45:42.999Z</time></trkpt><trkpt lat="45.022133414977034" lon="8.510127219102557"><ele>137.75</ele><time>2026-05-03T08:45:43.999Z</time></trkpt><trkpt lat="45.022161215601805" lon="8.509988324430257"><ele>138.0</ele><time>2026-05-03T08:45:44.999Z</time></trkpt><trkpt lat="45.022192517314174" lon="8.50983558477139"><ele>138.0</ele><time>2026-05-03T08:45:45.999Z</time></trkpt><trkpt lat="45.02224139827057" lon="8.509711155747102"><ele>138.0</ele><time>2026-05-03T08:45:46.999Z</time></trkpt><trkpt lat="45.02227330500353" lon="8.509553097976223"><ele>138.0</ele><time>2026-05-03T08:45:47.999Z</time></trkpt><trkpt lat="45.022300466987296" lon="8.509383448248238"><ele>138.0</ele><time>2026-05-03T08:45:48.999Z</time></trkpt><trkpt lat="45.02232493533104" lon="8.50920647981417"><ele>138.25</ele><time>2026-05-03T08:45:49.999Z</time></trkpt><trkpt lat="45.022341684090655" lon="8.509025547183326"><ele>138.5</ele><time>2026-05-03T08:45:50.999Z</time></trkpt><trkpt lat="45.02234576838714" lon="8.50883965612106"><ele>138.75</ele><time>2026-05-03T08:45:51.999Z</time></trkpt><trkpt lat="45.02234529571386" lon="8.508647995825923"><ele>139.0</ele><time>2026-05-03T08:45:52.999Z</time></trkpt><trkpt lat="45.022346705635655" lon="8.508468644731389"><ele>139.75</ele><time>2026-05-03T08:45:53.999Z</time></trkpt><trkpt lat="45.02234764906029" lon="8.508289112828429"><ele>140.5</ele><time>2026-05-03T08:45:54.999Z</time></trkpt><trkpt lat="45.02235301464732" lon="8.508110211261222"><ele>141.25</ele><time>2026-05-03T08:45:55.999Z</time></trkpt><trkpt lat="45.02235511129398" lon="8.507935821821075"><ele>142.0</ele><time>2026-05-03T08:45:56.999Z</time></trkpt><trkpt lat="45.0223579744562" lon="8.507760089406903"><ele>142.5</ele><time>2026-05-03T08:45:58Z</time></trkpt><trkpt lat="45.022362581464996" lon="8.507582981494807"><ele>143.0</ele><time>2026-05-03T08:45:59Z</time></trkpt><trkpt lat="45.02236740108121" lon="8.50740814708311"><ele>143.5</ele><time>2026-05-03T08:46:00Z</time></trkpt><trkpt lat="45.02236768727183" lon="8.507235098967586"><ele>144.0</ele><time>2026-05-03T08:46:01Z</time></trkpt><trkpt lat="45.02237219297882" lon="8.507062663127284"><ele>144.0</ele><time>2026-05-03T08:46:02Z</time></trkpt><trkpt lat="45.02238041106146" lon="8.506887812393417"><ele>144.0</ele><time>2026-05-03T08:46:03Z</time></trkpt><trkpt lat="45.02239044135417" lon="8.506716013900293"><ele>144.0</ele><time>2026-05-03T08:46:04Z</time></trkpt><trkpt lat="45.02241555068782" lon="8.506532962756284"><ele>144.0</ele><time>2026-05-03T08:46:05Z</time></trkpt><trkpt lat="45.02240967641282" lon="8.506358340933078"><ele>144.0</ele><time>2026-05-03T08:46:06Z</time></trkpt><trkpt lat="45.02243784481617" lon="8.50617658846832"><ele>144.0</ele><time>2026-05-03T08:46:07Z</time></trkpt><trkpt lat="45.02245290934862" lon="8.506006780996568"><ele>144.0</ele><time>2026-05-03T08:46:08Z</time></trkpt><trkpt lat="45.02247247167888" lon="8.505822624058593"><ele>144.0</ele><time>2026-05-03T08:46:09Z</time></trkpt><trkpt lat="45.02248383143332" lon="8.505625045621084"><ele>144.0</ele><time>2026-05-03T08:46:10Z</time></trkpt><trkpt lat="45.02251692001362" lon="8.505474910931694"><ele>144.0</ele><time>2026-05-03T08:46:11Z</time></trkpt><trkpt lat="45.02254209721348" lon="8.505294461717574"><ele>144.0</ele><time>2026-05-03T08:46:12Z</time></trkpt><trkpt lat="45.022569101835124" lon="8.505100615416788"><ele>144.0</ele><time>2026-05-03T08:46:13Z</time></trkpt><trkpt lat="45.02261561705941" lon="8.504940820229747"><ele>144.0</ele><time>2026-05-03T08:46:14Z</time></trkpt><trkpt lat="45.02264529525045" lon="8.504754552874077"><ele>144.0</ele><time>2026-05-03T08:46:15Z</time></trkpt><trkpt lat="45.02267020580521" lon="8.504555697933943"><ele>144.0</ele><time>2026-05-03T08:46:16Z</time></trkpt><trkpt lat="45.0226959519441" lon="8.50437893134738"><ele>144.0</ele><time>2026-05-03T08:46:17Z</time></trkpt><trkpt lat="45.022728011008844" lon="8.504181778204702"><ele>143.75</ele><time>2026-05-03T08:46:18Z</time></trkpt><trkpt lat="45.02275749133222" lon="8.503992158991567"><ele>143.5</ele><time>2026-05-03T08:46:19Z</time></trkpt><trkpt lat="45.022783650995365" lon="8.503793381179568"><ele>143.25</ele><time>2026-05-03T08:46:20Z</time></trkpt><trkpt lat="45.02281777034533" lon="8.50361891451067"><ele>143.0</ele><time>2026-05-03T08:46:21Z</time></trkpt><trkpt lat="45.02284492669919" lon="8.503452104015585"><ele>143.0</ele><time>2026-05-03T08:46:22Z</time></trkpt><trkpt lat="45.02289516519271" lon="8.50328254084064"><ele>143.0</ele><time>2026-05-03T08:46:23Z</time></trkpt><trkpt lat="45.02295462197855" lon="8.503109094896578"><ele>143.0</ele><time>2026-05-03T08:46:24Z</time></trkpt><trkpt lat="45.02301172106753" lon="8.502949235931416"><ele>143.0</ele><time>2026-05-03T08:46:25Z</time></trkpt><trkpt lat="45.02304995565823" lon="8.50280432071424"><ele>143.6</ele><time>2026-05-03T08:46:26Z</time></trkpt><trkpt lat="45.02307918102995" lon="8.502664553542202"><ele>144.20000000000002</ele><time>2026-05-03T08:46:27Z</time></trkpt><trkpt lat="45.02308362651159" lon="8.502522574813616"><ele>144.8</ele><time>2026-05-03T08:46:28Z</time></trkpt><trkpt lat="45.0230639290571" lon="8.502367450760802"><ele>145.4</ele><time>2026-05-03T08:46:29Z</time></trkpt><trkpt lat="45.02301626204949" lon="8.502189849742361"><ele>146.0</ele><time>2026-05-03T08:46:30Z</time></trkpt><trkpt lat="45.022961074557145" lon="8.502015116672148"><ele>146.25</ele><time>2026-05-03T08:46:31Z</time></trkpt><trkpt lat="45.022902905207" lon="8.501845329481974"><ele>146.5</ele><time>2026-05-03T08:46:32Z</time></trkpt><trkpt lat="45.0228542834566" lon="8.501677776010816"><ele>146.75</ele><time>2026-05-03T08:46:33Z</time></trkpt><trkpt lat="45.02279785618369" lon="8.501525536837656"><ele>147.0</ele><time>2026-05-03T08:46:34Z</time></trkpt><trkpt lat="45.022774143991825" lon="8.501379358866588"><ele>147.0</ele><time>2026-05-03T08:46:35Z</time></trkpt><trkpt lat="45.022737201624906" lon="8.50125252712606"><ele>147.0</ele><time>2026-05-03T08:46:36Z</time></trkpt><trkpt lat="45.022706059955574" lon="8.50116739548954"><ele>147.0</ele><time>2026-05-03T08:46:37Z</time></trkpt><trkpt lat="45.022683327946886" lon="8.501018612834065"><ele>147.0</ele><time>2026-05-03T08:46:39Z</time></trkpt><trkpt lat="45.022776206224215" lon="8.500943620499003"><ele>147.0</ele><time>2026-05-03T08:46:41Z</time></trkpt><trkpt lat="45.02285231304556" lon="8.500922394596516"><ele>147.0</ele><time>2026-05-03T08:46:42Z</time></trkpt><trkpt lat="45.02294330623946" lon="8.500874828937862"><ele>147.0</ele><time>2026-05-03T08:46:43Z</time></trkpt><trkpt lat="45.02302595802146" lon="8.500831623655667"><ele>147.0</ele><time>2026-05-03T08:46:44Z</time></trkpt><trkpt lat="45.02311665328447" lon="8.500760022523867"><ele>147.0</ele><time>2026-05-03T08:46:45Z</time></trkpt><trkpt lat="45.02321906459599" lon="8.500717816979035"><ele>147.0</ele><time>2026-05-03T08:46:46Z</time></trkpt><trkpt lat="45.0233225701192" lon="8.500657071170995"><ele>146.66666666666666</ele><time>2026-05-03T08:46:47Z</time></trkpt><trkpt lat="45.02341579530462" lon="8.500592684445762"><ele>146.33333333333334</ele><time>2026-05-03T08:46:48Z</time></trkpt><trkpt lat="45.02349686124474" lon="8.50052660083764"><ele>146.0</ele><time>2026-05-03T08:46:49Z</time></trkpt><trkpt lat="45.02355741874539" lon="8.500442490575667"><ele>145.66666666666669</ele><time>2026-05-03T08:46:50Z</time></trkpt><trkpt lat="45.023595160346304" lon="8.500358340545517"><ele>145.33333333333334</ele><time>2026-05-03T08:46:51Z</time></trkpt><trkpt lat="45.02361301690496" lon="8.50025421735936"><ele>145.0</ele><time>2026-05-03T08:46:52Z</time></trkpt><trkpt lat="45.02361031725484" lon="8.500141426999068"><ele>144.83333333333334</ele><time>2026-05-03T08:46:53Z</time></trkpt><trkpt lat="45.02361535583254" lon="8.500024014612471"><ele>144.66666666666669</ele><time>2026-05-03T08:46:54Z</time></trkpt><trkpt lat="45.023625960198444" lon="8.49991798927242"><ele>144.5</ele><time>2026-05-03T08:46:55Z</time></trkpt><trkpt lat="45.023652267448284" lon="8.499764018949941"><ele>144.33333333333334</ele><time>2026-05-03T08:46:57Z</time></trkpt><trkpt lat="45.0237031664449" lon="8.49965795872474"><ele>144.16666666666666</ele><time>2026-05-03T08:46:59Z</time></trkpt><trkpt lat="45.023745146353136" lon="8.499565256656371"><ele>144.0</ele><time>2026-05-03T08:47:01Z</time></trkpt><trkpt lat="45.02371454561053" lon="8.499443957326635"><ele>143.83333333333334</ele><time>2026-05-03T08:47:03Z</time></trkpt><trkpt lat="45.02373909348677" lon="8.499296766304566"><ele>143.66666666666666</ele><time>2026-05-03T08:47:05Z</time></trkpt><trkpt lat="45.02376106929997" lon="8.499201061444198"><ele>143.5</ele><time>2026-05-03T08:47:06Z</time></trkpt><trkpt lat="45.023788617963405" lon="8.499104034837824"><ele>143.33333333333331</ele><time>2026-05-03T08:47:07Z</time></trkpt><trkpt lat="45.02383238461023" lon="8.498994661647657"><ele>143.16666666666666</ele><time>2026-05-03T08:47:08Z</time></trkpt><trkpt lat="45.02389178609431" lon="8.498875202225925"><ele>143.0</ele><time>2026-05-03T08:47:09Z</time></trkpt><trkpt lat="45.02395573554903" lon="8.498763705783887"><ele>143.5</ele><time>2026-05-03T08:47:10Z</time></trkpt><trkpt lat="45.02403225256833" lon="8.498637372705483"><ele>144.0</ele><time>2026-05-03T08:47:11Z</time></trkpt><trkpt lat="45.024116094702876" lon="8.498514416366575"><ele>144.5</ele><time>2026-05-03T08:47:12Z</time></trkpt><trkpt lat="45.02419582560481" lon="8.498383469321302"><ele>145.0</ele><time>2026-05-03T08:47:13Z</time></trkpt><trkpt lat="45.024269410646454" lon="8.49823022090094"><ele>145.0</ele><time>2026-05-03T08:47:14Z</time></trkpt><trkpt lat="45.024311191564976" lon="8.49807396794802"><ele>145.0</ele><time>2026-05-03T08:47:15Z</time></trkpt><trkpt lat="45.024360349289054" lon="8.497901718879193"><ele>145.0</ele><time>2026-05-03T08:47:16Z</time></trkpt><trkpt lat="45.02439740157247" lon="8.497716624790804"><ele>145.0</ele><time>2026-05-03T08:47:17Z</time></trkpt><trkpt lat="45.024421860758856" lon="8.497507116488642"><ele>145.25</ele><time>2026-05-03T08:47:18Z</time></trkpt><trkpt lat="45.024451011071385" lon="8.497319358724802"><ele>145.5</ele><time>2026-05-03T08:47:19Z</time></trkpt><trkpt lat="45.02447152808783" lon="8.497124072817535"><ele>145.75</ele><time>2026-05-03T08:47:20Z</time></trkpt><trkpt lat="45.02449176689298" lon="8.496918476421753"><ele>146.0</ele><time>2026-05-03T08:47:21Z</time></trkpt><trkpt lat="45.024513244782284" lon="8.496714239269787"><ele>146.75</ele><time>2026-05-03T08:47:22Z</time></trkpt><trkpt lat="45.024532544569155" lon="8.496509138478965"><ele>147.5</ele><time>2026-05-03T08:47:23Z</time></trkpt><trkpt lat="45.02455168665898" lon="8.496323195616702"><ele>148.25</ele><time>2026-05-03T08:47:24Z</time></trkpt><trkpt lat="45.02456291197102" lon="8.496151348633473"><ele>149.0</ele><time>2026-05-03T08:47:25Z</time></trkpt><trkpt lat="45.02457356910714" lon="8.495995120784388"><ele>148.83333333333331</ele><time>2026-05-03T08:47:25.999Z</time></trkpt><trkpt lat="45.02458007904675" lon="8.495867821398345"><ele>148.66666666666666</ele><time>2026-05-03T08:47:26.999Z</time></trkpt><trkpt lat="45.02458718107678" lon="8.49575869068533"><ele>148.5</ele><time>2026-05-03T08:47:27.999Z</time></trkpt><trkpt lat="45.02461266701768" lon="8.495648593867017"><ele>148.33333333333334</ele><time>2026-05-03T08:47:28.999Z</time></trkpt><trkpt lat="45.024645446460035" lon="8.495534308373061"><ele>148.16666666666669</ele><time>2026-05-03T08:47:29.999Z</time></trkpt><trkpt lat="45.024689952085" lon="8.495406466491968"><ele>148.0</ele><time>2026-05-03T08:47:30.999Z</time></trkpt><trkpt lat="45.02474132416486" lon="8.495262650767"><ele>148.0</ele><time>2026-05-03T08:47:31.999Z</time></trkpt><trkpt lat="45.02479559461922" lon="8.495100955420268"><ele>148.0</ele><time>2026-05-03T08:47:32.999Z</time></trkpt><trkpt lat="45.02484671517147" lon="8.494942795541386"><ele>148.0</ele><time>2026-05-03T08:47:33.999Z</time></trkpt><trkpt lat="45.024891122086665" lon="8.494770619130307"><ele>148.0</ele><time>2026-05-03T08:47:34.999Z</time></trkpt><trkpt lat="45.02493654296006" lon="8.494591321002666"><ele>147.0</ele><time>2026-05-03T08:47:35.999Z</time></trkpt><trkpt lat="45.024982647973495" lon="8.494413013007138"><ele>146.0</ele><time>2026-05-03T08:47:36.999Z</time></trkpt><trkpt lat="45.02502795719863" lon="8.494223943064256"><ele>145.0</ele><time>2026-05-03T08:47:37.999Z</time></trkpt><trkpt lat="45.025092161368676" lon="8.494067171222023"><ele>144.0</ele><time>2026-05-03T08:47:38.999Z</time></trkpt><trkpt lat="45.025139348713736" lon="8.493892939076025"><ele>144.5</ele><time>2026-05-03T08:47:39.999Z</time></trkpt><trkpt lat="45.025190220457695" lon="8.493713804388218"><ele>145.0</ele><time>2026-05-03T08:47:40.999Z</time></trkpt><trkpt lat="45.02523524686514" lon="8.493551312909728"><ele>145.5</ele><time>2026-05-03T08:47:41.999Z</time></trkpt><trkpt lat="45.0252837611245" lon="8.493377328091222"><ele>146.0</ele><time>2026-05-03T08:47:42.999Z</time></trkpt><trkpt lat="45.02533424200058" lon="8.493200568047175"><ele>146.0</ele><time>2026-05-03T08:47:43.999Z</time></trkpt><trkpt lat="45.02538922470683" lon="8.493033663876968"><ele>146.0</ele><time>2026-05-03T08:47:44.999Z</time></trkpt><trkpt lat="45.02544945779" lon="8.49287655328307"><ele>146.0</ele><time>2026-05-03T08:47:45.999Z</time></trkpt><trkpt lat="45.02551080093514" lon="8.492717543697944"><ele>146.0</ele><time>2026-05-03T08:47:46.999Z</time></trkpt><trkpt lat="45.025552447848845" lon="8.492537646254515"><ele>146.0</ele><time>2026-05-03T08:47:47.999Z</time></trkpt><trkpt lat="45.02562877491578" lon="8.492386703170961"><ele>146.0</ele><time>2026-05-03T08:47:48.999Z</time></trkpt><trkpt lat="45.02569535412121" lon="8.492218044978246"><ele>146.0</ele><time>2026-05-03T08:47:49.999Z</time></trkpt><trkpt lat="45.02576076275918" lon="8.492052352078973"><ele>146.0</ele><time>2026-05-03T08:47:50.999Z</time></trkpt><trkpt lat="45.025829279254175" lon="8.491878785214103"><ele>145.5</ele><time>2026-05-03T08:47:51.999Z</time></trkpt><trkpt lat="45.02589838555976" lon="8.491709012436917"><ele>145.0</ele><time>2026-05-03T08:47:52.999Z</time></trkpt><trkpt lat="45.025965086854434" lon="8.491543658308892"><ele>144.5</ele><time>2026-05-03T08:47:53.999Z</time></trkpt><trkpt lat="45.026032405262676" lon="8.491375648519563"><ele>144.0</ele><time>2026-05-03T08:47:54.999Z</time></trkpt><trkpt lat="45.02609589438895" lon="8.491210261707744"><ele>144.0</ele><time>2026-05-03T08:47:55.999Z</time></trkpt><trkpt lat="45.02616133631037" lon="8.491033511488526"><ele>144.0</ele><time>2026-05-03T08:47:56.999Z</time></trkpt><trkpt lat="45.026232464210125" lon="8.490860540527796"><ele>144.0</ele><time>2026-05-03T08:47:57.999Z</time></trkpt><trkpt lat="45.02630594617465" lon="8.490698169192552"><ele>144.0</ele><time>2026-05-03T08:47:58.999Z</time></trkpt><trkpt lat="45.026378139467134" lon="8.490537017788686"><ele>143.75</ele><time>2026-05-03T08:47:59.999Z</time></trkpt><trkpt lat="45.02645361532197" lon="8.490369378609266"><ele>143.5</ele><time>2026-05-03T08:48:00.999Z</time></trkpt><trkpt lat="45.026522197483416" lon="8.490218710269712"><ele>143.25</ele><time>2026-05-03T08:48:01.999Z</time></trkpt><trkpt lat="45.02659289303231" lon="8.490063398832064"><ele>143.0</ele><time>2026-05-03T08:48:02.999Z</time></trkpt><trkpt lat="45.02666029202911" lon="8.489915329757203"><ele>142.5</ele><time>2026-05-03T08:48:04Z</time></trkpt><trkpt lat="45.026734769430604" lon="8.489747776437168"><ele>142.0</ele><time>2026-05-03T08:48:05Z</time></trkpt><trkpt lat="45.02680714470715" lon="8.489574685679715"><ele>141.5</ele><time>2026-05-03T08:48:06Z</time></trkpt><trkpt lat="45.0268779518265" lon="8.489392205245265"><ele>141.0</ele><time>2026-05-03T08:48:07Z</time></trkpt><trkpt lat="45.02694582409072" lon="8.489195172320004"><ele>140.66666666666666</ele><time>2026-05-03T08:48:08Z</time></trkpt><trkpt lat="45.02700929279646" lon="8.48898912291508"><ele>140.33333333333331</ele><time>2026-05-03T08:48:09Z</time></trkpt><trkpt lat="45.02707125779855" lon="8.488777728038752"><ele>140.0</ele><time>2026-05-03T08:48:10Z</time></trkpt><trkpt lat="45.02712938995646" lon="8.488569595434484"><ele>140.0</ele><time>2026-05-03T08:48:11Z</time></trkpt><trkpt lat="45.027182677391686" lon="8.488364191052282"><ele>140.0</ele><time>2026-05-03T08:48:12Z</time></trkpt><trkpt lat="45.02723123642136" lon="8.488144314671908"><ele>140.0</ele><time>2026-05-03T08:48:13Z</time></trkpt><trkpt lat="45.027282421805616" lon="8.487933944139625"><ele>139.66666666666666</ele><time>2026-05-03T08:48:14Z</time></trkpt><trkpt lat="45.02733883240651" lon="8.48772637563832"><ele>139.33333333333334</ele><time>2026-05-03T08:48:15Z</time></trkpt><trkpt lat="45.027400340381604" lon="8.487529950486708"><ele>139.0</ele><time>2026-05-03T08:48:16Z</time></trkpt><trkpt lat="45.02746012641751" lon="8.487338267217666"><ele>139.0</ele><time>2026-05-03T08:48:17Z</time></trkpt><trkpt lat="45.02752290311255" lon="8.487137869074575"><ele>139.0</ele><time>2026-05-03T08:48:18Z</time></trkpt><trkpt lat="45.02758848682988" lon="8.486955256891981"><ele>139.0</ele><time>2026-05-03T08:48:19Z</time></trkpt><trkpt lat="45.027648133912344" lon="8.486749799094484"><ele>139.0</ele><time>2026-05-03T08:48:20Z</time></trkpt><trkpt lat="45.02771653659041" lon="8.486558754273627"><ele>139.0</ele><time>2026-05-03T08:48:21Z</time></trkpt><trkpt lat="45.02777331027315" lon="8.48635758018478"><ele>139.0</ele><time>2026-05-03T08:48:22Z</time></trkpt><trkpt lat="45.02783352312688" lon="8.486157037171555"><ele>139.0</ele><time>2026-05-03T08:48:23Z</time></trkpt><trkpt lat="45.027887715722535" lon="8.485964500558051"><ele>139.0</ele><time>2026-05-03T08:48:24Z</time></trkpt><trkpt lat="45.02793286144889" lon="8.485758864519596"><ele>139.0</ele><time>2026-05-03T08:48:25Z</time></trkpt><trkpt lat="45.02797921234706" lon="8.485563638327406"><ele>139.0</ele><time>2026-05-03T08:48:26Z</time></trkpt><trkpt lat="45.02802034397263" lon="8.485364463299621"><ele>139.0</ele><time>2026-05-03T08:48:27Z</time></trkpt><trkpt lat="45.028061505612165" lon="8.485161745261351"><ele>139.0</ele><time>2026-05-03T08:48:28Z</time></trkpt><trkpt lat="45.02810381407714" lon="8.484965945997082"><ele>139.0</ele><time>2026-05-03T08:48:29Z</time></trkpt><trkpt lat="45.028146734401204" lon="8.484803508930963"><ele>139.0</ele><time>2026-05-03T08:48:30Z</time></trkpt><trkpt lat="45.028185688622784" lon="8.484634944955411"><ele>138.6</ele><time>2026-05-03T08:48:31Z</time></trkpt><trkpt lat="45.02821495416089" lon="8.484480095201027"><ele>138.2</ele><time>2026-05-03T08:48:32Z</time></trkpt><trkpt lat="45.028257441123806" lon="8.484337314667512"><ele>137.79999999999998</ele><time>2026-05-03T08:48:33Z</time></trkpt><trkpt lat="45.02830905379279" lon="8.484212951952866"><ele>137.4</ele><time>2026-05-03T08:48:34Z</time></trkpt><trkpt lat="45.02837960571227" lon="8.484116390853004"><ele>137.0</ele><time>2026-05-03T08:48:35Z</time></trkpt><trkpt lat="45.02847165534894" lon="8.484032551788925"><ele>137.0</ele><time>2026-05-03T08:48:36Z</time></trkpt><trkpt lat="45.02856977680932" lon="8.48394509528561"><ele>137.0</ele><time>2026-05-03T08:48:37Z</time></trkpt><trkpt lat="45.02868426053284" lon="8.483860870739493"><ele>137.0</ele><time>2026-05-03T08:48:38Z</time></trkpt><trkpt lat="45.02879858297625" lon="8.483741896903743"><ele>137.0</ele><time>2026-05-03T08:48:39Z</time></trkpt><trkpt lat="45.02890632720876" lon="8.48364178240224"><ele>136.5</ele><time>2026-05-03T08:48:40Z</time></trkpt><trkpt lat="45.0290114565513" lon="8.483543964999363"><ele>136.0</ele><time>2026-05-03T08:48:41Z</time></trkpt><trkpt lat="45.02910828633642" lon="8.483442070395583"><ele>135.5</ele><time>2026-05-03T08:48:42Z</time></trkpt><trkpt lat="45.02920043248036" lon="8.483366045182116"><ele>135.0</ele><time>2026-05-03T08:48:43Z</time></trkpt><trkpt lat="45.02928302748339" lon="8.48328759656595"><ele>135.0</ele><time>2026-05-03T08:48:44Z</time></trkpt><trkpt lat="45.02935511041475" lon="8.483222945602202"><ele>135.0</ele><time>2026-05-03T08:48:45Z</time></trkpt><trkpt lat="45.02940578357367" lon="8.483162563029657"><ele>135.0</ele><time>2026-05-03T08:48:46Z</time></trkpt><trkpt lat="45.02946929262201" lon="8.483094363223666"><ele>135.0</ele><time>2026-05-03T08:48:48Z</time></trkpt><trkpt lat="45.02939696242158" lon="8.482874352654681"><ele>135.0</ele><time>2026-05-03T08:48:52Z</time></trkpt><trkpt lat="45.02935347230646" lon="8.48279900581501"><ele>134.16666666666666</ele><time>2026-05-03T08:48:53Z</time></trkpt><trkpt lat="45.0292842113584" lon="8.482725286034293"><ele>133.33333333333334</ele><time>2026-05-03T08:48:54Z</time></trkpt><trkpt lat="45.02921186540773" lon="8.482658569134205"><ele>132.5</ele><time>2026-05-03T08:48:55Z</time></trkpt><trkpt lat="45.02913769289892" lon="8.482606298690364"><ele>131.66666666666669</ele><time>2026-05-03T08:48:56Z</time></trkpt><trkpt lat="45.02905490343731" lon="8.482574630932447"><ele>130.83333333333334</ele><time>2026-05-03T08:48:57Z</time></trkpt><trkpt lat="45.028979926575715" lon="8.482508310263096"><ele>130.0</ele><time>2026-05-03T08:48:58Z</time></trkpt><trkpt lat="45.02889862465969" lon="8.4824572841607"><ele>129.4</ele><time>2026-05-03T08:48:59Z</time></trkpt><trkpt lat="45.028821557694265" lon="8.482419717776105"><ele>128.8</ele><time>2026-05-03T08:49:00Z</time></trkpt><trkpt lat="45.028740050289926" lon="8.482382193788936"><ele>128.2</ele><time>2026-05-03T08:49:01Z</time></trkpt><trkpt lat="45.02864102418367" lon="8.482344570519764"><ele>127.6</ele><time>2026-05-03T08:49:02Z</time></trkpt><trkpt lat="45.02853793101712" lon="8.482318851468554"><ele>127.0</ele><time>2026-05-03T08:49:03Z</time></trkpt><trkpt lat="45.02843254732148" lon="8.482309458308924"><ele>127.0</ele><time>2026-05-03T08:49:04Z</time></trkpt><trkpt lat="45.02832580279173" lon="8.482299863997763"><ele>126.99999999999999</ele><time>2026-05-03T08:49:05Z</time></trkpt><trkpt lat="45.028218218044756" lon="8.482270580796754"><ele>126.99999999999999</ele><time>2026-05-03T08:49:06Z</time></trkpt><trkpt lat="45.0281177163163" lon="8.482221851357489"><ele>127.0</ele><time>2026-05-03T08:49:07Z</time></trkpt><trkpt lat="45.02800467952899" lon="8.482155617646109"><ele>127.0</ele><time>2026-05-03T08:49:08Z</time></trkpt><trkpt lat="45.02790270153079" lon="8.48207282946639"><ele>126.8</ele><time>2026-05-03T08:49:09Z</time></trkpt><trkpt lat="45.027808703879344" lon="8.482003143008454"><ele>126.6</ele><time>2026-05-03T08:49:10Z</time></trkpt><trkpt lat="45.02771592578214" lon="8.481923491503563"><ele>126.39999999999999</ele><time>2026-05-03T08:49:11Z</time></trkpt><trkpt lat="45.02762429131471" lon="8.481848817954093"><ele>126.19999999999999</ele><time>2026-05-03T08:49:12Z</time></trkpt><trkpt lat="45.027537604196105" lon="8.48178822039304"><ele>126.0</ele><time>2026-05-03T08:49:13Z</time></trkpt><trkpt lat="45.02745141626556" lon="8.481731064145045"><ele>127.0</ele><time>2026-05-03T08:49:14Z</time></trkpt><trkpt lat="45.027362441047124" lon="8.481664121283023"><ele>128.0</ele><time>2026-05-03T08:49:15Z</time></trkpt><trkpt lat="45.02724981234155" lon="8.481628348104469"><ele>129.0</ele><time>2026-05-03T08:49:16Z</time></trkpt><trkpt lat="45.02712943545286" lon="8.481618230820933"><ele>130.0</ele><time>2026-05-03T08:49:17Z</time></trkpt><trkpt lat="45.027005869000774" lon="8.481614148495932"><ele>130.0</ele><time>2026-05-03T08:49:18Z</time></trkpt><trkpt lat="45.02688715073211" lon="8.481628351872885"><ele>130.0</ele><time>2026-05-03T08:49:19Z</time></trkpt><trkpt lat="45.02676932650578" lon="8.481601079603216"><ele>130.0</ele><time>2026-05-03T08:49:20Z</time></trkpt><trkpt lat="45.02664176551161" lon="8.481591839662762"><ele>130.0</ele><time>2026-05-03T08:49:21Z</time></trkpt><trkpt lat="45.02651363570335" lon="8.481582550404784"><ele>129.75</ele><time>2026-05-03T08:49:22Z</time></trkpt><trkpt lat="45.02638195612026" lon="8.481573131645918"><ele>129.5</ele><time>2026-05-03T08:49:23Z</time></trkpt><trkpt lat="45.026265047748694" lon="8.481577662668546"><ele>129.25</ele><time>2026-05-03T08:49:24Z</time></trkpt><trkpt lat="45.026145534483504" lon="8.481592727867978"><ele>129.0</ele><time>2026-05-03T08:49:25Z</time></trkpt><trkpt lat="45.02602672471803" lon="8.481596383747517"><ele>129.0</ele><time>2026-05-03T08:49:26Z</time></trkpt><trkpt lat="45.02590101578274" lon="8.481599537177097"><ele>129.0</ele><time>2026-05-03T08:49:26.999Z</time></trkpt><trkpt lat="45.02577465824997" lon="8.481596834720559"><ele>129.0</ele><time>2026-05-03T08:49:27.999Z</time></trkpt><trkpt lat="45.025643510653225" lon="8.481594317505113"><ele>129.0</ele><time>2026-05-03T08:49:28.999Z</time></trkpt><trkpt lat="45.02551850343286" lon="8.481593119997015"><ele>129.0</ele><time>2026-05-03T08:49:29.999Z</time></trkpt><trkpt lat="45.02539533680231" lon="8.48156491653817"><ele>129.0</ele><time>2026-05-03T08:49:30.999Z</time></trkpt><trkpt lat="45.025281626727626" lon="8.481561123852565"><ele>129.0</ele><time>2026-05-03T08:49:31.999Z</time></trkpt><trkpt lat="45.0251583643565" lon="8.481548656798118"><ele>129.0</ele><time>2026-05-03T08:49:32.999Z</time></trkpt><trkpt lat="45.025033560771995" lon="8.481520919969395"><ele>128.25</ele><time>2026-05-03T08:49:33.999Z</time></trkpt><trkpt lat="45.02490206054138" lon="8.481471371543666"><ele>127.5</ele><time>2026-05-03T08:49:34.999Z</time></trkpt><trkpt lat="45.02476547045851" lon="8.481410173694721"><ele>126.75</ele><time>2026-05-03T08:49:35.999Z</time></trkpt><trkpt lat="45.024625337786986" lon="8.481364533353606"><ele>126.0</ele><time>2026-05-03T08:49:36.999Z</time></trkpt><trkpt lat="45.02448530608271" lon="8.481293730201772"><ele>125.0</ele><time>2026-05-03T08:49:37.999Z</time></trkpt><trkpt lat="45.0243467874597" lon="8.481199991553567"><ele>124.0</ele><time>2026-05-03T08:49:38.999Z</time></trkpt><trkpt lat="45.0241934351884" lon="8.481129399989833"><ele>123.0</ele><time>2026-05-03T08:49:39.999Z</time></trkpt><trkpt lat="45.024035578420516" lon="8.48104784900964"><ele>123.0</ele><time>2026-05-03T08:49:40.999Z</time></trkpt><trkpt lat="45.02388693362566" lon="8.480977178239032"><ele>123.0</ele><time>2026-05-03T08:49:41.999Z</time></trkpt><trkpt lat="45.02374032996077" lon="8.480890907460262"><ele>123.0</ele><time>2026-05-03T08:49:42.999Z</time></trkpt><trkpt lat="45.02358358712076" lon="8.480803233670336"><ele>123.0</ele><time>2026-05-03T08:49:43.999Z</time></trkpt><trkpt lat="45.02343011795163" lon="8.480703275093376"><ele>123.0</ele><time>2026-05-03T08:49:44.999Z</time></trkpt><trkpt lat="45.02327150670595" lon="8.480618003691477"><ele>123.0</ele><time>2026-05-03T08:49:45.999Z</time></trkpt><trkpt lat="45.02310705972913" lon="8.480530066640247"><ele>123.66666666666666</ele><time>2026-05-03T08:49:46.999Z</time></trkpt><trkpt lat="45.022945021405214" lon="8.480440776696572"><ele>124.33333333333333</ele><time>2026-05-03T08:49:47.999Z</time></trkpt><trkpt lat="45.022786551790766" lon="8.480351570235134"><ele>125.0</ele><time>2026-05-03T08:49:48.999Z</time></trkpt><trkpt lat="45.02263469341949" lon="8.480269873904966"><ele>125.0</ele><time>2026-05-03T08:49:49.999Z</time></trkpt><trkpt lat="45.02248698058808" lon="8.480187268043872"><ele>125.0</ele><time>2026-05-03T08:49:50.999Z</time></trkpt><trkpt lat="45.022337947741136" lon="8.480080429354283"><ele>125.0</ele><time>2026-05-03T08:49:51.999Z</time></trkpt><trkpt lat="45.02219557738791" lon="8.480000520426225"><ele>125.5</ele><time>2026-05-03T08:49:52.999Z</time></trkpt><trkpt lat="45.02206194628632" lon="8.479944645244396"><ele>126.0</ele><time>2026-05-03T08:49:53.999Z</time></trkpt><trkpt lat="45.021922209627796" lon="8.479870849111718"><ele>126.5</ele><time>2026-05-03T08:49:54.999Z</time></trkpt><trkpt lat="45.02178470536084" lon="8.479789782068792"><ele>127.0</ele><time>2026-05-03T08:49:55.999Z</time></trkpt><trkpt lat="45.02164741926267" lon="8.479713625451424"><ele>127.25</ele><time>2026-05-03T08:49:56.999Z</time></trkpt><trkpt lat="45.02151959784035" lon="8.479621300421938"><ele>127.5</ele><time>2026-05-03T08:49:57.999Z</time></trkpt><trkpt lat="45.02139773894639" lon="8.479550043533786"><ele>127.75</ele><time>2026-05-03T08:49:58.999Z</time></trkpt><trkpt lat="45.02128147789527" lon="8.47947879505302"><ele>128.0</ele><time>2026-05-03T08:49:59.999Z</time></trkpt><trkpt lat="45.02116952051318" lon="8.479402080551715"><ele>128.0</ele><time>2026-05-03T08:50:00.999Z</time></trkpt><trkpt lat="45.021065871025975" lon="8.479341671270552"><ele>128.0</ele><time>2026-05-03T08:50:01.999Z</time></trkpt><trkpt lat="45.020970668867776" lon="8.479259925486332"><ele>128.0</ele><time>2026-05-03T08:50:02.999Z</time></trkpt><trkpt lat="45.02088121264512" lon="8.479182282265946"><ele>128.0</ele><time>2026-05-03T08:50:03.999Z</time></trkpt><trkpt lat="45.02078930412568" lon="8.479094410428072"><ele>128.0</ele><time>2026-05-03T08:50:04.999Z</time></trkpt><trkpt lat="45.02070133692579" lon="8.479012123632806"><ele>128.0</ele><time>2026-05-03T08:50:05.999Z</time></trkpt><trkpt lat="45.02060876833779" lon="8.478932752332968"><ele>128.0</ele><time>2026-05-03T08:50:06.999Z</time></trkpt><trkpt lat="45.02052820701986" lon="8.47885680735633"><ele>128.0</ele><time>2026-05-03T08:50:07.999Z</time></trkpt><trkpt lat="45.02045442092772" lon="8.478778042531125"><ele>128.0</ele><time>2026-05-03T08:50:08.999Z</time></trkpt><trkpt lat="45.020378182812884" lon="8.478713839429798"><ele>128.0</ele><time>2026-05-03T08:50:10Z</time></trkpt><trkpt lat="45.0203244422653" lon="8.478644629308125"><ele>128.0</ele><time>2026-05-03T08:50:11Z</time></trkpt><trkpt lat="45.020236018494714" lon="8.47856278548906"><ele>128.0</ele><time>2026-05-03T08:50:13Z</time></trkpt><trkpt lat="45.020123169346256" lon="8.478637667742804"><ele>128.0</ele><time>2026-05-03T08:50:39Z</time></trkpt><trkpt lat="45.02006604115078" lon="8.478746568909015"><ele>128.0</ele><time>2026-05-03T08:50:40Z</time></trkpt><trkpt lat="45.02000950488275" lon="8.4788331423472"><ele>128.0</ele><time>2026-05-03T08:50:41Z</time></trkpt><trkpt lat="45.019920027164964" lon="8.478950165059123"><ele>129.4</ele><time>2026-05-03T08:50:43Z</time></trkpt><trkpt lat="45.01986587289412" lon="8.479029322641988"><ele>130.8</ele><time>2026-05-03T08:50:44Z</time></trkpt><trkpt lat="45.01980034788669" lon="8.479129403148244"><ele>132.2</ele><time>2026-05-03T08:50:45Z</time></trkpt><trkpt lat="45.01974589915308" lon="8.479229085660448"><ele>133.6</ele><time>2026-05-03T08:50:46Z</time></trkpt><trkpt lat="45.0197263065699" lon="8.47939037501557"><ele>135.0</ele><time>2026-05-03T08:50:47Z</time></trkpt><trkpt lat="45.01967769026365" lon="8.479526465433667"><ele>135.4</ele><time>2026-05-03T08:50:48Z</time></trkpt><trkpt lat="45.01963911014855" lon="8.479664991812376"><ele>135.8</ele><time>2026-05-03T08:50:49Z</time></trkpt><trkpt lat="45.01958055978165" lon="8.479795483022096"><ele>136.2</ele><time>2026-05-03T08:50:50Z</time></trkpt><trkpt lat="45.019546411874224" lon="8.479925116573204"><ele>136.6</ele><time>2026-05-03T08:50:51Z</time></trkpt><trkpt lat="45.0195063161152" lon="8.480068414578326"><ele>137.0</ele><time>2026-05-03T08:50:52Z</time></trkpt><trkpt lat="45.019466711406125" lon="8.480216578677087"><ele>137.0</ele><time>2026-05-03T08:50:53Z</time></trkpt><trkpt lat="45.019428232575144" lon="8.480302033323975"><ele>137.0</ele><time>2026-05-03T08:50:54Z</time></trkpt><trkpt lat="45.01941202938109" lon="8.480419146086192"><ele>137.0</ele><time>2026-05-03T08:50:55Z</time></trkpt><trkpt lat="45.01939258467219" lon="8.480527530531417"><ele>137.0</ele><time>2026-05-03T08:50:56Z</time></trkpt><trkpt lat="45.01937960534936" lon="8.48068360865279"><ele>137.0</ele><time>2026-05-03T08:50:57Z</time></trkpt><trkpt lat="45.01938614368262" lon="8.480832892574583"><ele>137.6</ele><time>2026-05-03T08:50:58Z</time></trkpt><trkpt lat="45.019403384930506" lon="8.480942370657058"><ele>138.2</ele><time>2026-05-03T08:50:59Z</time></trkpt><trkpt lat="45.0194378565067" lon="8.4810709508659"><ele>138.8</ele><time>2026-05-03T08:51:01Z</time></trkpt><trkpt lat="45.01940120205038" lon="8.48115472775356"><ele>139.4</ele><time>2026-05-03T08:51:03Z</time></trkpt><trkpt lat="45.019291638774774" lon="8.48126219111481"><ele>140.0</ele><time>2026-05-03T08:51:05Z</time></trkpt><trkpt lat="45.01920524061301" lon="8.481324606150668"><ele>140.66666666666666</ele><time>2026-05-03T08:51:06Z</time></trkpt><trkpt lat="45.01911958225626" lon="8.481385921781994"><ele>141.33333333333331</ele><time>2026-05-03T08:51:07Z</time></trkpt><trkpt lat="45.01905591868379" lon="8.48143215149384"><ele>142.0</ele><time>2026-05-03T08:51:08Z</time></trkpt><trkpt lat="45.01899354594663" lon="8.481505749903569"><ele>142.66666666666666</ele><time>2026-05-03T08:51:09Z</time></trkpt><trkpt lat="45.01893353695528" lon="8.48156949877998"><ele>143.33333333333334</ele><time>2026-05-03T08:51:10Z</time></trkpt><trkpt lat="45.01886748607878" lon="8.48169365873284"><ele>144.0</ele><time>2026-05-03T08:51:12Z</time></trkpt><trkpt lat="45.01888535956478" lon="8.481782129938871"><ele>144.0</ele><time>2026-05-03T08:51:13Z</time></trkpt><trkpt lat="45.01889520216786" lon="8.481975872569699"><ele>144.0</ele><time>2026-05-03T08:51:15Z</time></trkpt><trkpt lat="45.01894619532664" lon="8.482121240814534"><ele>144.0</ele><time>2026-05-03T08:51:16Z</time></trkpt><trkpt lat="45.018974689314874" lon="8.482240595112508"><ele>144.0</ele><time>2026-05-03T08:51:17Z</time></trkpt><trkpt lat="45.01898872718834" lon="8.482360283059473"><ele>144.0</ele><time>2026-05-03T08:51:18Z</time></trkpt><trkpt lat="45.019015676760354" lon="8.48247654535705"><ele>145.0</ele><time>2026-05-03T08:51:19Z</time></trkpt><trkpt lat="45.019041256717074" lon="8.482572413011347"><ele>146.0</ele><time>2026-05-03T08:51:20Z</time></trkpt><trkpt lat="45.01905873586826" lon="8.48266748603107"><ele>147.0</ele><time>2026-05-03T08:51:21Z</time></trkpt><trkpt lat="45.0190993209328" lon="8.482792810253422"><ele>148.0</ele><time>2026-05-03T08:51:22.999Z</time></trkpt><trkpt lat="45.01912301260425" lon="8.482936023232341"><ele>149.0</ele><time>2026-05-03T08:51:24.999Z</time></trkpt><trkpt lat="45.01914490626054" lon="8.483042645648176"><ele>150.0</ele><time>2026-05-03T08:51:26.999Z</time></trkpt><trkpt lat="45.019160673039366" lon="8.483170979575268"><ele>153.4</ele><time>2026-05-03T08:51:28.999Z</time></trkpt><trkpt lat="45.019202605429214" lon="8.48330394016006"><ele>156.8</ele><time>2026-05-03T08:51:30.999Z</time></trkpt><trkpt lat="45.01928405620111" lon="8.483401794212915"><ele>160.2</ele><time>2026-05-03T08:51:32.999Z</time></trkpt><trkpt lat="45.01935838352757" lon="8.483473145897118"><ele>163.6</ele><time>2026-05-03T08:51:34.999Z</time></trkpt><trkpt lat="45.01943663724347" lon="8.483559432783919"><ele>167.0</ele><time>2026-05-03T08:51:36.999Z</time></trkpt><trkpt lat="45.01949081555749" lon="8.483612946545241"><ele>167.0</ele><time>2026-05-03T08:51:37.999Z</time></trkpt><trkpt lat="45.01955874173045" lon="8.483729230152058"><ele>167.0</ele><time>2026-05-03T08:51:39.999Z</time></trkpt><trkpt lat="45.01957520084556" lon="8.483824065260173"><ele>167.0</ele><time>2026-05-03T08:51:41.999Z</time></trkpt><trkpt lat="45.019528749173006" lon="8.483971983101485"><ele>167.0</ele><time>2026-05-03T08:51:44.999Z</time></trkpt><trkpt lat="45.01941176803311" lon="8.484053426922213"><ele>167.0</ele><time>2026-05-03T08:51:46.999Z</time></trkpt><trkpt lat="45.01935061212751" lon="8.484117457613742"><ele>169.39999999999998</ele><time>2026-05-03T08:51:47.999Z</time></trkpt><trkpt lat="45.01929886936204" lon="8.48418620967403"><ele>171.79999999999998</ele><time>2026-05-03T08:51:48.999Z</time></trkpt><trkpt lat="45.01925620422019" lon="8.484354947313136"><ele>174.2</ele><time>2026-05-03T08:51:50.999Z</time></trkpt><trkpt lat="45.01922408049466" lon="8.484541106916874"><ele>176.6</ele><time>2026-05-03T08:51:52.999Z</time></trkpt><trkpt lat="45.01922625124813" lon="8.48464026348924"><ele>179.0</ele><time>2026-05-03T08:51:53.999Z</time></trkpt><trkpt lat="45.01919485223266" lon="8.484809102346286"><ele>179.79999999999998</ele><time>2026-05-03T08:51:55.999Z</time></trkpt><trkpt lat="45.019205116433255" lon="8.485006160941197"><ele>180.6</ele><time>2026-05-03T08:51:56.999Z</time></trkpt><trkpt lat="45.0192077064774" lon="8.485101696216548"><ele>181.4</ele><time>2026-05-03T08:51:57.999Z</time></trkpt><trkpt lat="45.01920466646128" lon="8.485238164271681"><ele>182.2</ele><time>2026-05-03T08:51:58.999Z</time></trkpt><trkpt lat="45.01917615173743" lon="8.485365405399875"><ele>183.0</ele><time>2026-05-03T08:51:59.999Z</time></trkpt><trkpt lat="45.01914711943567" lon="8.485451798846382"><ele>183.0</ele><time>2026-05-03T08:52:00.999Z</time></trkpt><trkpt lat="45.019009239275434" lon="8.485417440204552"><ele>183.0</ele><time>2026-05-03T08:52:02.999Z</time></trkpt><trkpt lat="45.01889613935951" lon="8.485504272509685"><ele>183.0</ele><time>2026-05-03T08:52:03.999Z</time></trkpt><trkpt lat="45.018824131282734" lon="8.48553704957221"><ele>183.0</ele><time>2026-05-03T08:52:04.999Z</time></trkpt><trkpt lat="45.01873066739209" lon="8.485549292153197"><ele>183.0</ele><time>2026-05-03T08:52:05.999Z</time></trkpt><trkpt lat="45.01865956513296" lon="8.48553517353869"><ele>183.33333333333334</ele><time>2026-05-03T08:52:06.999Z</time></trkpt><trkpt lat="45.01856964382173" lon="8.485533495873987"><ele>183.66666666666666</ele><time>2026-05-03T08:52:07.999Z</time></trkpt><trkpt lat="45.01848945041174" lon="8.485533939557728"><ele>184.0</ele><time>2026-05-03T08:52:08.999Z</time></trkpt><trkpt lat="45.01841934514987" lon="8.485523278768577"><ele>184.33333333333331</ele><time>2026-05-03T08:52:09.999Z</time></trkpt><trkpt lat="45.018343359856004" lon="8.485537317547239"><ele>184.66666666666666</ele><time>2026-05-03T08:52:10.999Z</time></trkpt><trkpt lat="45.01826170174386" lon="8.485543001647205"><ele>185.0</ele><time>2026-05-03T08:52:11.999Z</time></trkpt><trkpt lat="45.01817741058385" lon="8.48555613042072"><ele>187.33333333333331</ele><time>2026-05-03T08:52:12.999Z</time></trkpt><trkpt lat="45.018097553441706" lon="8.485558979109044"><ele>189.66666666666666</ele><time>2026-05-03T08:52:13.999Z</time></trkpt><trkpt lat="45.01801167776964" lon="8.48558282694256"><ele>192.0</ele><time>2026-05-03T08:52:14.999Z</time></trkpt><trkpt lat="45.0179224784156" lon="8.485617803383288"><ele>194.33333333333331</ele><time>2026-05-03T08:52:16Z</time></trkpt><trkpt lat="45.017835101864165" lon="8.485654849649986"><ele>196.66666666666666</ele><time>2026-05-03T08:52:17Z</time></trkpt><trkpt lat="45.01775516542889" lon="8.485705629430079"><ele>199.0</ele><time>2026-05-03T08:52:18Z</time></trkpt><trkpt lat="45.01769568337145" lon="8.485744475740217"><ele>198.99999999999997</ele><time>2026-05-03T08:52:19Z</time></trkpt><trkpt lat="45.01763458713302" lon="8.485796524398381"><ele>199.0</ele><time>2026-05-03T08:52:20Z</time></trkpt><trkpt lat="45.017582359159896" lon="8.48586130146352"><ele>199.0</ele><time>2026-05-03T08:52:21Z</time></trkpt><trkpt lat="45.017524398825984" lon="8.485942320128492"><ele>199.0</ele><time>2026-05-03T08:52:22Z</time></trkpt><trkpt lat="45.0174599046298" lon="8.486049622017683"><ele>198.99999999999997</ele><time>2026-05-03T08:52:23Z</time></trkpt><trkpt lat="45.01739339006981" lon="8.486124066469477"><ele>199.0</ele><time>2026-05-03T08:52:24Z</time></trkpt><trkpt lat="45.01731849553466" lon="8.486184195089264"><ele>199.83333333333331</ele><time>2026-05-03T08:52:25Z</time></trkpt><trkpt lat="45.01724441605909" lon="8.486246889994996"><ele>200.66666666666666</ele><time>2026-05-03T08:52:26Z</time></trkpt><trkpt lat="45.01717310213813" lon="8.486305694932277"><ele>201.5</ele><time>2026-05-03T08:52:27Z</time></trkpt><trkpt lat="45.01709447034372" lon="8.486319588444728"><ele>202.33333333333331</ele><time>2026-05-03T08:52:28Z</time></trkpt><trkpt lat="45.01703220166183" lon="8.486361889899072"><ele>203.16666666666666</ele><time>2026-05-03T08:52:29Z</time></trkpt><trkpt lat="45.01692588651599" lon="8.486389984507568"><ele>204.0</ele><time>2026-05-03T08:52:31Z</time></trkpt><trkpt lat="45.01683665858054" lon="8.486338813657675"><ele>204.0</ele><time>2026-05-03T08:52:33Z</time></trkpt><trkpt lat="45.01678238651846" lon="8.48628399918053"><ele>204.0</ele><time>2026-05-03T08:52:34Z</time></trkpt><trkpt lat="45.01672771828791" lon="8.48623537417216"><ele>204.0</ele><time>2026-05-03T08:52:35Z</time></trkpt><trkpt lat="45.016669948295444" lon="8.486191950589674"><ele>204.0</ele><time>2026-05-03T08:52:36Z</time></trkpt><trkpt lat="45.016599019710185" lon="8.486140741560032"><ele>204.0</ele><time>2026-05-03T08:52:37Z</time></trkpt><trkpt lat="45.01652577627316" lon="8.486118221508649"><ele>204.0</ele><time>2026-05-03T08:52:38Z</time></trkpt><trkpt lat="45.01643899200382" lon="8.48609753563741"><ele>204.0</ele><time>2026-05-03T08:52:39Z</time></trkpt><trkpt lat="45.01636386505933" lon="8.486083254993313"><ele>205.16666666666666</ele><time>2026-05-03T08:52:40Z</time></trkpt><trkpt lat="45.01628858551153" lon="8.486072006317539"><ele>206.33333333333331</ele><time>2026-05-03T08:52:41Z</time></trkpt><trkpt lat="45.01621922809679" lon="8.486045669756267"><ele>207.5</ele><time>2026-05-03T08:52:42Z</time></trkpt><trkpt lat="45.01613757348359" lon="8.486049243940258"><ele>208.66666666666666</ele><time>2026-05-03T08:52:43Z</time></trkpt><trkpt lat="45.0160594979377" lon="8.486056111422702"><ele>209.83333333333331</ele><time>2026-05-03T08:52:44Z</time></trkpt><trkpt lat="45.0159804729744" lon="8.486063877271597"><ele>211.0</ele><time>2026-05-03T08:52:45Z</time></trkpt><trkpt lat="45.01590143942663" lon="8.486061173494114"><ele>210.99999999999997</ele><time>2026-05-03T08:52:46Z</time></trkpt><trkpt lat="45.01582867958574" lon="8.48604387238001"><ele>211.0</ele><time>2026-05-03T08:52:47Z</time></trkpt><trkpt lat="45.01574714132159" lon="8.486031876690065"><ele>211.0</ele><time>2026-05-03T08:52:48Z</time></trkpt><trkpt lat="45.01566846490625" lon="8.486009591659457"><ele>211.0</ele><time>2026-05-03T08:52:49Z</time></trkpt><trkpt lat="45.01558842210895" lon="8.485979084148282"><ele>210.99999999999997</ele><time>2026-05-03T08:52:50Z</time></trkpt><trkpt lat="45.01550698459129" lon="8.485946644677012"><ele>211.0</ele><time>2026-05-03T08:52:51Z</time></trkpt><trkpt lat="45.01542900262033" lon="8.485922504974361"><ele>211.16666666666666</ele><time>2026-05-03T08:52:52Z</time></trkpt><trkpt lat="45.01535007916284" lon="8.485885594888796"><ele>211.33333333333331</ele><time>2026-05-03T08:52:53Z</time></trkpt><trkpt lat="45.01527016692895" lon="8.485880510292425"><ele>211.5</ele><time>2026-05-03T08:52:54Z</time></trkpt><trkpt lat="45.01518746607293" lon="8.485907274219517"><ele>211.66666666666669</ele><time>2026-05-03T08:52:55Z</time></trkpt><trkpt lat="45.01511086749684" lon="8.485925567539528"><ele>211.83333333333334</ele><time>2026-05-03T08:52:56Z</time></trkpt><trkpt lat="45.01504391565763" lon="8.485963887262507"><ele>212.0</ele><time>2026-05-03T08:52:57Z</time></trkpt><trkpt lat="45.01497437304463" lon="8.486009284072079"><ele>212.0</ele><time>2026-05-03T08:52:58Z</time></trkpt><trkpt lat="45.014887845389815" lon="8.486045621259821"><ele>212.0</ele><time>2026-05-03T08:52:59Z</time></trkpt><trkpt lat="45.01479504300755" lon="8.486089565091435"><ele>212.0</ele><time>2026-05-03T08:53:00Z</time></trkpt><trkpt lat="45.014693151789096" lon="8.486128034743789"><ele>212.0</ele><time>2026-05-03T08:53:01Z</time></trkpt><trkpt lat="45.014590799000246" lon="8.486171610129784"><ele>212.0</ele><time>2026-05-03T08:53:02Z</time></trkpt><trkpt lat="45.014492669153775" lon="8.486193385941927"><ele>212.0</ele><time>2026-05-03T08:53:03Z</time></trkpt><trkpt lat="45.01439389989938" lon="8.486217621104833"><ele>212.0</ele><time>2026-05-03T08:53:04Z</time></trkpt><trkpt lat="45.014297526032784" lon="8.48623434349483"><ele>212.0</ele><time>2026-05-03T08:53:05Z</time></trkpt><trkpt lat="45.01419952836085" lon="8.486252095494772"><ele>212.0</ele><time>2026-05-03T08:53:06Z</time></trkpt><trkpt lat="45.01409642244969" lon="8.486220986946144"><ele>212.0</ele><time>2026-05-03T08:53:07Z</time></trkpt><trkpt lat="45.01399139751907" lon="8.486204597962383"><ele>213.2</ele><time>2026-05-03T08:53:08Z</time></trkpt><trkpt lat="45.013891171156764" lon="8.486183156922003"><ele>214.39999999999998</ele><time>2026-05-03T08:53:09Z</time></trkpt><trkpt lat="45.01379215076145" lon="8.486163637190245"><ele>215.60000000000002</ele><time>2026-05-03T08:53:10Z</time></trkpt><trkpt lat="45.013692727061674" lon="8.48613219125616"><ele>216.8</ele><time>2026-05-03T08:53:11Z</time></trkpt><trkpt lat="45.01359787324319" lon="8.48608996385454"><ele>218.0</ele><time>2026-05-03T08:53:12Z</time></trkpt><trkpt lat="45.013505880498315" lon="8.486036043180937"><ele>218.0</ele><time>2026-05-03T08:53:13Z</time></trkpt><trkpt lat="45.01340487923626" lon="8.485977240293915"><ele>218.0</ele><time>2026-05-03T08:53:14Z</time></trkpt><trkpt lat="45.013307534769915" lon="8.485939808801549"><ele>218.0</ele><time>2026-05-03T08:53:15Z</time></trkpt><trkpt lat="45.013223788509244" lon="8.485896954139987"><ele>218.0</ele><time>2026-05-03T08:53:16Z</time></trkpt><trkpt lat="45.013133131805404" lon="8.485862555165747"><ele>218.0</ele><time>2026-05-03T08:53:17Z</time></trkpt><trkpt lat="45.01306764931694" lon="8.485839790268617"><ele>216.2</ele><time>2026-05-03T08:53:18Z</time></trkpt><trkpt lat="45.01295704917384" lon="8.485794467112036"><ele>214.4</ele><time>2026-05-03T08:53:20Z</time></trkpt><trkpt lat="45.012884161795405" lon="8.485836976355065"><ele>212.6</ele><time>2026-05-03T08:53:22Z</time></trkpt><trkpt lat="45.012770297494505" lon="8.485915993485753"><ele>210.79999999999998</ele><time>2026-05-03T08:53:24Z</time></trkpt><trkpt lat="45.01272667182062" lon="8.48600082246771"><ele>209.0</ele><time>2026-05-03T08:53:25Z</time></trkpt><trkpt lat="45.01267836734718" lon="8.486098699648332"><ele>209.0</ele><time>2026-05-03T08:53:26Z</time></trkpt><trkpt lat="45.012632663990544" lon="8.48619674461673"><ele>209.0</ele><time>2026-05-03T08:53:27Z</time></trkpt><trkpt lat="45.012582577557154" lon="8.486307907628941"><ele>209.0</ele><time>2026-05-03T08:53:28Z</time></trkpt><trkpt lat="45.01253481029909" lon="8.486417542668546"><ele>209.0</ele><time>2026-05-03T08:53:29Z</time></trkpt><trkpt lat="45.01249577922373" lon="8.486548320510062"><ele>209.0</ele><time>2026-05-03T08:53:30Z</time></trkpt><trkpt lat="45.0124442851117" lon="8.486652558361978"><ele>209.2</ele><time>2026-05-03T08:53:31Z</time></trkpt><trkpt lat="45.012384099723064" lon="8.48678517089319"><ele>209.39999999999998</ele><time>2026-05-03T08:53:32Z</time></trkpt><trkpt lat="45.01232815137574" lon="8.486913653694469"><ele>209.6</ele><time>2026-05-03T08:53:33Z</time></trkpt><trkpt lat="45.01227988287311" lon="8.487045007435954"><ele>209.8</ele><time>2026-05-03T08:53:33.999Z</time></trkpt><trkpt lat="45.01222588091642" lon="8.487177577197583"><ele>210.0</ele><time>2026-05-03T08:53:34.999Z</time></trkpt><trkpt lat="45.01216947851256" lon="8.487318458206532"><ele>210.0</ele><time>2026-05-03T08:53:35.999Z</time></trkpt><trkpt lat="45.01211093307588" lon="8.487452403146568"><ele>210.0</ele><time>2026-05-03T08:53:36.999Z</time></trkpt><trkpt lat="45.012047511233156" lon="8.487589147111857"><ele>210.0</ele><time>2026-05-03T08:53:37.999Z</time></trkpt><trkpt lat="45.01199918616692" lon="8.48773240603181"><ele>210.0</ele><time>2026-05-03T08:53:38.999Z</time></trkpt><trkpt lat="45.01194507584972" lon="8.487882084012412"><ele>211.75</ele><time>2026-05-03T08:53:39.999Z</time></trkpt><trkpt lat="45.0119163970645" lon="8.488063944268474"><ele>213.5</ele><time>2026-05-03T08:53:40.999Z</time></trkpt><trkpt lat="45.01188841097561" lon="8.488232289662434"><ele>215.25</ele><time>2026-05-03T08:53:41.999Z</time></trkpt><trkpt lat="45.01181636728627" lon="8.488386545741381"><ele>217.0</ele><time>2026-05-03T08:53:42.999Z</time></trkpt><trkpt lat="45.01175385393259" lon="8.488548784053627"><ele>217.0</ele><time>2026-05-03T08:53:43.999Z</time></trkpt><trkpt lat="45.01170621286311" lon="8.48871325030905"><ele>217.0</ele><time>2026-05-03T08:53:44.999Z</time></trkpt><trkpt lat="45.01163519626443" lon="8.488862501630853"><ele>217.0</ele><time>2026-05-03T08:53:45.999Z</time></trkpt><trkpt lat="45.0115651865924" lon="8.489035028743979"><ele>217.0</ele><time>2026-05-03T08:53:46.999Z</time></trkpt><trkpt lat="45.01149838299285" lon="8.48918912487955"><ele>219.0</ele><time>2026-05-03T08:53:47.999Z</time></trkpt><trkpt lat="45.011436811005964" lon="8.48934860146313"><ele>221.0</ele><time>2026-05-03T08:53:48.999Z</time></trkpt><trkpt lat="45.01138462964208" lon="8.489507328701354"><ele>223.0</ele><time>2026-05-03T08:53:49.999Z</time></trkpt><trkpt lat="45.011349007358774" lon="8.48965575636485"><ele>225.0</ele><time>2026-05-03T08:53:50.999Z</time></trkpt><trkpt lat="45.011323755333066" lon="8.489780272872004"><ele>226.0</ele><time>2026-05-03T08:53:51.999Z</time></trkpt><trkpt lat="45.011301517055095" lon="8.48989057981355"><ele>227.0</ele><time>2026-05-03T08:53:52.999Z</time></trkpt><trkpt lat="45.011262050192876" lon="8.489998201831417"><ele>228.0</ele><time>2026-05-03T08:53:53.999Z</time></trkpt><trkpt lat="45.011192985640754" lon="8.490066726367964"><ele>229.0</ele><time>2026-05-03T08:53:54.999Z</time></trkpt><trkpt lat="45.011137311405356" lon="8.490142225932235"><ele>230.0</ele><time>2026-05-03T08:53:55.999Z</time></trkpt><trkpt lat="45.01108970045974" lon="8.490230941750706"><ele>231.0</ele><time>2026-05-03T08:53:56.999Z</time></trkpt><trkpt lat="45.01101152693132" lon="8.490284306293002"><ele>231.0</ele><time>2026-05-03T08:53:57.999Z</time></trkpt><trkpt lat="45.01093944029688" lon="8.490344980888013"><ele>231.00000000000003</ele><time>2026-05-03T08:53:58.999Z</time></trkpt><trkpt lat="45.01086047729058" lon="8.490406788174363"><ele>231.00000000000003</ele><time>2026-05-03T08:53:59.999Z</time></trkpt><trkpt lat="45.010773618534245" lon="8.4904757689568"><ele>231.0</ele><time>2026-05-03T08:54:00.999Z</time></trkpt><trkpt lat="45.01068790603552" lon="8.490540610842373"><ele>231.0</ele><time>2026-05-03T08:54:01.999Z</time></trkpt><trkpt lat="45.01060985668613" lon="8.490611355665635"><ele>231.8</ele><time>2026-05-03T08:54:02.999Z</time></trkpt><trkpt lat="45.01052388600377" lon="8.49067024235251"><ele>232.60000000000002</ele><time>2026-05-03T08:54:03.999Z</time></trkpt><trkpt lat="45.010434687300695" lon="8.490723536864355"><ele>233.4</ele><time>2026-05-03T08:54:04.999Z</time></trkpt><trkpt lat="45.010344028007005" lon="8.490751409100797"><ele>234.2</ele><time>2026-05-03T08:54:05.999Z</time></trkpt><trkpt lat="45.010252820856486" lon="8.490797455871215"><ele>235.0</ele><time>2026-05-03T08:54:06.999Z</time></trkpt><trkpt lat="45.01016187290347" lon="8.49084253673046"><ele>235.0</ele><time>2026-05-03T08:54:07.999Z</time></trkpt><trkpt lat="45.01005414323255" lon="8.490894181280153"><ele>235.0</ele><time>2026-05-03T08:54:08.999Z</time></trkpt><trkpt lat="45.00995368082033" lon="8.490951688198422"><ele>235.0</ele><time>2026-05-03T08:54:09.999Z</time></trkpt><trkpt lat="45.00984008329098" lon="8.4910216462323"><ele>235.0</ele><time>2026-05-03T08:54:10.999Z</time></trkpt><trkpt lat="45.00972188010382" lon="8.491103730532297"><ele>235.0</ele><time>2026-05-03T08:54:11.999Z</time></trkpt><trkpt lat="45.009598517597496" lon="8.49119078939811"><ele>235.0</ele><time>2026-05-03T08:54:12.999Z</time></trkpt><trkpt lat="45.00947489710499" lon="8.49128528605958"><ele>235.0</ele><time>2026-05-03T08:54:13.999Z</time></trkpt><trkpt lat="45.00936523262286" lon="8.491372134842443"><ele>235.0</ele><time>2026-05-03T08:54:14.999Z</time></trkpt><trkpt lat="45.00925881195358" lon="8.49145533570052"><ele>236.0</ele><time>2026-05-03T08:54:15.999Z</time></trkpt><trkpt lat="45.00915543775192" lon="8.491544062311092"><ele>237.0</ele><time>2026-05-03T08:54:16.999Z</time></trkpt><trkpt lat="45.00905999481563" lon="8.491633512398705"><ele>238.0</ele><time>2026-05-03T08:54:17.999Z</time></trkpt><trkpt lat="45.008962753885406" lon="8.49171469936482"><ele>239.0</ele><time>2026-05-03T08:54:18.999Z</time></trkpt><trkpt lat="45.00886317825286" lon="8.491793562440021"><ele>239.0</ele><time>2026-05-03T08:54:19.999Z</time></trkpt><trkpt lat="45.008748619106136" lon="8.491864719752689"><ele>238.99999999999997</ele><time>2026-05-03T08:54:20.999Z</time></trkpt><trkpt lat="45.008645236807226" lon="8.491891059811525"><ele>238.99999999999997</ele><time>2026-05-03T08:54:22Z</time></trkpt><trkpt lat="45.008555226589664" lon="8.491928669343308"><ele>239.0</ele><time>2026-05-03T08:54:23Z</time></trkpt><trkpt lat="45.00845590465062" lon="8.491971540407889"><ele>239.0</ele><time>2026-05-03T08:54:24Z</time></trkpt><trkpt lat="45.00835748173898" lon="8.492034153977603"><ele>239.79999999999998</ele><time>2026-05-03T08:54:25Z</time></trkpt><trkpt lat="45.00827418457283" lon="8.492068305500286"><ele>240.59999999999997</ele><time>2026-05-03T08:54:26Z</time></trkpt><trkpt lat="45.00818878173295" lon="8.492138547617738"><ele>241.4</ele><time>2026-05-03T08:54:27Z</time></trkpt><trkpt lat="45.00810694806207" lon="8.492211294033666"><ele>242.2</ele><time>2026-05-03T08:54:28Z</time></trkpt><trkpt lat="45.00803081578129" lon="8.49227868676021"><ele>243.0</ele><time>2026-05-03T08:54:29Z</time></trkpt><trkpt lat="45.007952409968" lon="8.492346962470485"><ele>243.0</ele><time>2026-05-03T08:54:30Z</time></trkpt><trkpt lat="45.00788569533693" lon="8.492395082903972"><ele>243.0</ele><time>2026-05-03T08:54:31Z</time></trkpt><trkpt lat="45.00781940240895" lon="8.492464895021763"><ele>243.0</ele><time>2026-05-03T08:54:32Z</time></trkpt><trkpt lat="45.00774552260001" lon="8.492471516617886"><ele>243.0</ele><time>2026-05-03T08:54:33Z</time></trkpt><trkpt lat="45.007668380635714" lon="8.492487765505238"><ele>243.0</ele><time>2026-05-03T08:54:34Z</time></trkpt><trkpt lat="45.00759180570835" lon="8.492502165821946"><ele>243.0</ele><time>2026-05-03T08:54:35Z</time></trkpt><trkpt lat="45.007524574838186" lon="8.492503726601491"><ele>244.33333333333334</ele><time>2026-05-03T08:54:36Z</time></trkpt><trkpt lat="45.00745625496758" lon="8.492502364645816"><ele>245.66666666666669</ele><time>2026-05-03T08:54:37Z</time></trkpt><trkpt lat="45.007386378091375" lon="8.492490096098154"><ele>247.0</ele><time>2026-05-03T08:54:38Z</time></trkpt><trkpt lat="45.00732386150909" lon="8.492472369921911"><ele>248.33333333333334</ele><time>2026-05-03T08:54:39Z</time></trkpt><trkpt lat="45.007219785794625" lon="8.492435754469533"><ele>249.66666666666669</ele><time>2026-05-03T08:54:41Z</time></trkpt><trkpt lat="45.00714583630921" lon="8.492417051688463"><ele>251.0</ele><time>2026-05-03T08:54:43Z</time></trkpt><trkpt lat="45.007081692020016" lon="8.492403288987848"><ele>251.0</ele><time>2026-05-03T08:54:46Z</time></trkpt><trkpt lat="45.006926367731694" lon="8.492347064594162"><ele>251.0</ele><time>2026-05-03T08:55:19Z</time></trkpt><trkpt lat="45.00678629119643" lon="8.492278076023403"><ele>251.0</ele><time>2026-05-03T08:55:21Z</time></trkpt><trkpt lat="45.00667256945023" lon="8.492238035652885"><ele>251.0</ele><time>2026-05-03T08:55:22Z</time></trkpt><trkpt lat="45.006545096508844" lon="8.49225575435633"><ele>251.0</ele><time>2026-05-03T08:55:23Z</time></trkpt><trkpt lat="45.00642269955111" lon="8.49219764926207"><ele>251.00000000000003</ele><time>2026-05-03T08:55:24Z</time></trkpt><trkpt lat="45.00634095106305" lon="8.492159503386684"><ele>251.00000000000003</ele><time>2026-05-03T08:55:25Z</time></trkpt><trkpt lat="45.00623220683367" lon="8.49214010028911"><ele>251.0</ele><time>2026-05-03T08:55:26Z</time></trkpt><trkpt lat="45.006133757633606" lon="8.492122534121407"><ele>251.0</ele><time>2026-05-03T08:55:27Z</time></trkpt><trkpt lat="45.00602549389365" lon="8.492103216755126"><ele>252.16666666666669</ele><time>2026-05-03T08:55:28Z</time></trkpt><trkpt lat="45.005941684115115" lon="8.492085378620988"><ele>253.33333333333334</ele><time>2026-05-03T08:55:29Z</time></trkpt><trkpt lat="45.00584912056768" lon="8.492060966795865"><ele>254.5</ele><time>2026-05-03T08:55:30Z</time></trkpt><trkpt lat="45.0057656636832" lon="8.49202989630353"><ele>255.66666666666669</ele><time>2026-05-03T08:55:31Z</time></trkpt><trkpt lat="45.00569232471826" lon="8.49197363135654"><ele>256.8333333333333</ele><time>2026-05-03T08:55:32Z</time></trkpt><trkpt lat="45.00563076351172" lon="8.491877007581962"><ele>258.0</ele><time>2026-05-03T08:55:33Z</time></trkpt><trkpt lat="45.00556582078984" lon="8.491756537979656"><ele>258.0</ele><time>2026-05-03T08:55:34Z</time></trkpt><trkpt lat="45.005524132096625" lon="8.491619701106169"><ele>258.0</ele><time>2026-05-03T08:55:35Z</time></trkpt><trkpt lat="45.00548361942091" lon="8.491491861727955"><ele>258.0</ele><time>2026-05-03T08:55:35.999Z</time></trkpt><trkpt lat="45.00546168391481" lon="8.491348523784328"><ele>258.0</ele><time>2026-05-03T08:55:36.999Z</time></trkpt><trkpt lat="45.00545666110638" lon="8.49119834804782"><ele>258.0</ele><time>2026-05-03T08:55:37.999Z</time></trkpt><trkpt lat="45.00545283905225" lon="8.491056207062071"><ele>258.2</ele><time>2026-05-03T08:55:38.999Z</time></trkpt><trkpt lat="45.00543176125563" lon="8.49090598789147"><ele>258.4</ele><time>2026-05-03T08:55:39.999Z</time></trkpt><trkpt lat="45.00542796105279" lon="8.490750101612283"><ele>258.59999999999997</ele><time>2026-05-03T08:55:40.999Z</time></trkpt><trkpt lat="45.005400761259175" lon="8.490604005447246"><ele>258.8</ele><time>2026-05-03T08:55:41.999Z</time></trkpt><trkpt lat="45.00536597867549" lon="8.490465574207313"><ele>259.0</ele><time>2026-05-03T08:55:42.999Z</time></trkpt><trkpt lat="45.005345887814066" lon="8.490326628162277"><ele>259.0</ele><time>2026-05-03T08:55:43.999Z</time></trkpt><trkpt lat="45.00532711892419" lon="8.490205705223792"><ele>259.0</ele><time>2026-05-03T08:55:44.999Z</time></trkpt><trkpt lat="45.00529600299842" lon="8.49008904385677"><ele>259.0</ele><time>2026-05-03T08:55:45.999Z</time></trkpt><trkpt lat="45.005262807742916" lon="8.489970867208934"><ele>259.0</ele><time>2026-05-03T08:55:46.999Z</time></trkpt><trkpt lat="45.005228219723556" lon="8.489859147585948"><ele>259.0</ele><time>2026-05-03T08:55:47.999Z</time></trkpt><trkpt lat="45.00517342443819" lon="8.489734544722873"><ele>259.0</ele><time>2026-05-03T08:55:48.999Z</time></trkpt><trkpt lat="45.00508631629653" lon="8.489607442631975"><ele>259.0</ele><time>2026-05-03T08:55:49.999Z</time></trkpt><trkpt lat="45.0050150647122" lon="8.489506064234089"><ele>259.0</ele><time>2026-05-03T08:55:50.999Z</time></trkpt><trkpt lat="45.00493923687543" lon="8.489402577145388"><ele>259.0</ele><time>2026-05-03T08:55:51.999Z</time></trkpt><trkpt lat="45.00484755067729" lon="8.48928193393152"><ele>259.4</ele><time>2026-05-03T08:55:52.999Z</time></trkpt><trkpt lat="45.00476419295708" lon="8.489192834800432"><ele>259.79999999999995</ele><time>2026-05-03T08:55:53.999Z</time></trkpt><trkpt lat="45.00466229237474" lon="8.489117031116363"><ele>260.20000000000005</ele><time>2026-05-03T08:55:54.999Z</time></trkpt><trkpt lat="45.00456887702895" lon="8.489051552117"><ele>260.6</ele><time>2026-05-03T08:55:55.999Z</time></trkpt><trkpt lat="45.004487577174956" lon="8.488996681838367"><ele>261.0</ele><time>2026-05-03T08:55:56.999Z</time></trkpt><trkpt lat="45.00439143712394" lon="8.488962418878014"><ele>261.0</ele><time>2026-05-03T08:55:57.999Z</time></trkpt><trkpt lat="45.00432834982027" lon="8.48888838512384"><ele>261.0</ele><time>2026-05-03T08:55:58.999Z</time></trkpt><trkpt lat="45.004247292039665" lon="8.488814967570685"><ele>261.0</ele><time>2026-05-03T08:55:59.999Z</time></trkpt><trkpt lat="45.004161843937545" lon="8.48873812977064"><ele>261.0</ele><time>2026-05-03T08:56:00.999Z</time></trkpt><trkpt lat="45.00407008263123" lon="8.488659273061078"><ele>261.0</ele><time>2026-05-03T08:56:01.999Z</time></trkpt><trkpt lat="45.003957300920625" lon="8.488584778626375"><ele>261.2</ele><time>2026-05-03T08:56:02.999Z</time></trkpt><trkpt lat="45.003861232685516" lon="8.48850739962269"><ele>261.40000000000003</ele><time>2026-05-03T08:56:03.999Z</time></trkpt><trkpt lat="45.00375392099992" lon="8.488426514104104"><ele>261.6</ele><time>2026-05-03T08:56:04.999Z</time></trkpt><trkpt lat="45.00365667178782" lon="8.48835045282037"><ele>261.8</ele><time>2026-05-03T08:56:05.999Z</time></trkpt><trkpt lat="45.00357989338483" lon="8.488270057417775"><ele>262.0</ele><time>2026-05-03T08:56:06.999Z</time></trkpt><trkpt lat="45.00350223276" lon="8.488192071472943"><ele>262.0</ele><time>2026-05-03T08:56:07.999Z</time></trkpt><trkpt lat="45.0034163503485" lon="8.488125409783052"><ele>262.0</ele><time>2026-05-03T08:56:08.999Z</time></trkpt><trkpt lat="45.00334100322462" lon="8.488078594305607"><ele>262.0</ele><time>2026-05-03T08:56:09.999Z</time></trkpt><trkpt lat="45.00322337311475" lon="8.488033283590468"><ele>262.0</ele><time>2026-05-03T08:56:11.999Z</time></trkpt><trkpt lat="45.00311472637703" lon="8.487988466875514"><ele>262.0</ele><time>2026-05-03T08:56:13.999Z</time></trkpt><trkpt lat="45.00300820131329" lon="8.48799145777877"><ele>262.0</ele><time>2026-05-03T08:56:15.999Z</time></trkpt><trkpt lat="45.00290920061828" lon="8.48795096265003"><ele>262.0</ele><time>2026-05-03T08:56:24.999Z</time></trkpt><trkpt lat="45.00293933588455" lon="8.487810496767462"><ele>262.0</ele><time>2026-05-03T08:56:26.999Z</time></trkpt><trkpt lat="45.002915776028225" lon="8.487643894951194"><ele>262.0</ele><time>2026-05-03T08:56:29Z</time></trkpt><trkpt lat="45.00291028983558" lon="8.487523933948099"><ele>262.0</ele><time>2026-05-03T08:56:31Z</time></trkpt><trkpt lat="45.00272254434092" lon="8.48751025580546"><ele>262.0</ele><time>2026-05-03T08:56:35Z</time></trkpt><trkpt lat="45.002644738414865" lon="8.487492964317271"><ele>262.0</ele><time>2026-05-03T08:56:37Z</time></trkpt><trkpt lat="45.00255922342644" lon="8.487373556087269"><ele>262.0</ele><time>2026-05-03T08:56:39Z</time></trkpt><trkpt lat="45.00247744781612" lon="8.487322291601476"><ele>262.0</ele><time>2026-05-03T08:56:40Z</time></trkpt><trkpt lat="45.00239481365325" lon="8.487254808603641"><ele>262.0</ele><time>2026-05-03T08:56:41Z</time></trkpt><trkpt lat="45.002303979235194" lon="8.487189140882407"><ele>262.0</ele><time>2026-05-03T08:56:42Z</time></trkpt><trkpt lat="45.00222618998119" lon="8.487134606348024"><ele>262.0</ele><time>2026-05-03T08:56:43Z</time></trkpt><trkpt lat="45.002152953871914" lon="8.487083853042506"><ele>262.0</ele><time>2026-05-03T08:56:44Z</time></trkpt><trkpt lat="45.002098583595696" lon="8.486999712510393"><ele>262.0</ele><time>2026-05-03T08:56:45Z</time></trkpt><trkpt lat="45.00201848015737" lon="8.486931787526437"><ele>262.0</ele><time>2026-05-03T08:56:46Z</time></trkpt><trkpt lat="45.00195171902562" lon="8.486880096653415"><ele>262.0</ele><time>2026-05-03T08:56:47Z</time></trkpt><trkpt lat="45.00185121620329" lon="8.486826369803461"><ele>262.0</ele><time>2026-05-03T08:56:48Z</time></trkpt><trkpt lat="45.00180196820629" lon="8.48675627477505"><ele>262.0</ele><time>2026-05-03T08:56:49Z</time></trkpt><trkpt lat="45.001726518668626" lon="8.48667783589674"><ele>262.0</ele><time>2026-05-03T08:56:50Z</time></trkpt><trkpt lat="45.001636520059016" lon="8.486602461891152"><ele>262.0</ele><time>2026-05-03T08:56:51Z</time></trkpt><trkpt lat="45.001563588760035" lon="8.486499295280705"><ele>262.0</ele><time>2026-05-03T08:56:52Z</time></trkpt><trkpt lat="45.001488474204095" lon="8.486353478131782"><ele>261.25</ele><time>2026-05-03T08:56:53Z</time></trkpt><trkpt lat="45.00142146535719" lon="8.486221169684937"><ele>260.5</ele><time>2026-05-03T08:56:54Z</time></trkpt><trkpt lat="45.00136202784167" lon="8.486093628710725"><ele>259.75</ele><time>2026-05-03T08:56:55Z</time></trkpt><trkpt lat="45.00129623007403" lon="8.48594965762204"><ele>259.0</ele><time>2026-05-03T08:56:56Z</time></trkpt><trkpt lat="45.00123750866069" lon="8.485821170199115"><ele>259.0</ele><time>2026-05-03T08:56:57Z</time></trkpt><trkpt lat="45.001176765263324" lon="8.485688258504931"><ele>259.0</ele><time>2026-05-03T08:56:58Z</time></trkpt><trkpt lat="45.00111488852736" lon="8.485540599379274"><ele>259.0</ele><time>2026-05-03T08:56:59Z</time></trkpt><trkpt lat="45.00104546108628" lon="8.485404035279611"><ele>259.0</ele><time>2026-05-03T08:57:00Z</time></trkpt><trkpt lat="45.00095772862155" lon="8.48524168275182"><ele>261.0</ele><time>2026-05-03T08:57:01Z</time></trkpt><trkpt lat="45.00088804653823" lon="8.485096091506646"><ele>263.0</ele><time>2026-05-03T08:57:02Z</time></trkpt><trkpt lat="45.00082869727018" lon="8.48497539903842"><ele>265.0</ele><time>2026-05-03T08:57:03Z</time></trkpt><trkpt lat="45.00076243343822" lon="8.484837922283097"><ele>267.0</ele><time>2026-05-03T08:57:04Z</time></trkpt><trkpt lat="45.00069137314025" lon="8.484715130892582"><ele>269.25</ele><time>2026-05-03T08:57:05Z</time></trkpt><trkpt lat="45.00062109806886" lon="8.484579188492472"><ele>271.5</ele><time>2026-05-03T08:57:06Z</time></trkpt><trkpt lat="45.00054232204885" lon="8.484444955503685"><ele>273.75</ele><time>2026-05-03T08:57:07Z</time></trkpt><trkpt lat="45.00045381435405" lon="8.484315809321073"><ele>276.0</ele><time>2026-05-03T08:57:08Z</time></trkpt><trkpt lat="45.00035789178924" lon="8.484231205423285"><ele>276.0</ele><time>2026-05-03T08:57:09Z</time></trkpt><trkpt lat="45.00025816249342" lon="8.484196916517421"><ele>276.0</ele><time>2026-05-03T08:57:10Z</time></trkpt><trkpt lat="45.000164608306676" lon="8.484158630389588"><ele>276.0</ele><time>2026-05-03T08:57:11Z</time></trkpt><trkpt lat="45.000050393833774" lon="8.484175900332492"><ele>276.0</ele><time>2026-05-03T08:57:12Z</time></trkpt><trkpt lat="44.99992395018279" lon="8.484213934497278"><ele>276.0</ele><time>2026-05-03T08:57:13Z</time></trkpt><trkpt lat="44.999821868701595" lon="8.48424620045924"><ele>276.0</ele><time>2026-05-03T08:57:14Z</time></trkpt><trkpt lat="44.99970691500359" lon="8.48428318330609"><ele>276.0</ele><time>2026-05-03T08:57:15Z</time></trkpt><trkpt lat="44.999602288311124" lon="8.4843158352993"><ele>276.0</ele><time>2026-05-03T08:57:16Z</time></trkpt><trkpt lat="44.999512170981895" lon="8.484329853845288"><ele>276.0</ele><time>2026-05-03T08:57:17Z</time></trkpt><trkpt lat="44.999407853121426" lon="8.484350187386744"><ele>276.0</ele><time>2026-05-03T08:57:18Z</time></trkpt><trkpt lat="44.99932030401678" lon="8.48436805732726"><ele>276.0</ele><time>2026-05-03T08:57:19Z</time></trkpt><trkpt lat="44.99923358071355" lon="8.48438203329014"><ele>276.0</ele><time>2026-05-03T08:57:20Z</time></trkpt><trkpt lat="44.99914954154985" lon="8.48439107773793"><ele>276.0</ele><time>2026-05-03T08:57:21Z</time></trkpt><trkpt lat="44.99906296860699" lon="8.484390696597968"><ele>276.0</ele><time>2026-05-03T08:57:22Z</time></trkpt><trkpt lat="44.998983582500045" lon="8.484368779159396"><ele>276.0</ele><time>2026-05-03T08:57:23Z</time></trkpt><trkpt lat="44.9988967656427" lon="8.484324591623944"><ele>276.0</ele><time>2026-05-03T08:57:24Z</time></trkpt><trkpt lat="44.99882819564854" lon="8.484275951468575"><ele>276.5</ele><time>2026-05-03T08:57:25Z</time></trkpt><trkpt lat="44.99874409091819" lon="8.484223077409347"><ele>277.0</ele><time>2026-05-03T08:57:26Z</time></trkpt><trkpt lat="44.998673029134984" lon="8.484161103896657"><ele>277.5</ele><time>2026-05-03T08:57:27Z</time></trkpt><trkpt lat="44.9985871678069" lon="8.484101763435326"><ele>278.0</ele><time>2026-05-03T08:57:28Z</time></trkpt><trkpt lat="44.998515073174055" lon="8.484033762754493"><ele>278.5</ele><time>2026-05-03T08:57:29Z</time></trkpt><trkpt lat="44.9984532454238" lon="8.483951507505816"><ele>279.0</ele><time>2026-05-03T08:57:30Z</time></trkpt><trkpt lat="44.99839731093211" lon="8.483852187471193"><ele>276.6666666666667</ele><time>2026-05-03T08:57:31Z</time></trkpt><trkpt lat="44.9982531618893" lon="8.4837821806358"><ele>274.33333333333337</ele><time>2026-05-03T08:57:32Z</time></trkpt><trkpt lat="44.998125982450894" lon="8.484003648150278"><ele>272.0</ele><time>2026-05-03T08:57:33Z</time></trkpt><trkpt lat="44.997978770556166" lon="8.484080223717104"><ele>272.0</ele><time>2026-05-03T08:57:34Z</time></trkpt><trkpt lat="44.99785164650454" lon="8.484147142804904"><ele>272.0</ele><time>2026-05-03T08:57:35Z</time></trkpt><trkpt lat="44.99773099911053" lon="8.484158609063908"><ele>272.0</ele><time>2026-05-03T08:57:35.999Z</time></trkpt><trkpt lat="44.99758412245532" lon="8.484193957366257"><ele>272.0</ele><time>2026-05-03T08:57:36.999Z</time></trkpt><trkpt lat="44.99744877041921" lon="8.484249775346266"><ele>270.75</ele><time>2026-05-03T08:57:37.999Z</time></trkpt><trkpt lat="44.997311060694216" lon="8.48430859914116"><ele>269.5</ele><time>2026-05-03T08:57:38.999Z</time></trkpt><trkpt lat="44.997175602969534" lon="8.484349486907202"><ele>268.25</ele><time>2026-05-03T08:57:39.999Z</time></trkpt><trkpt lat="44.99703913443238" lon="8.484370694443081"><ele>267.0</ele><time>2026-05-03T08:57:40.999Z</time></trkpt><trkpt lat="44.99689693653538" lon="8.484394173497426"><ele>267.0</ele><time>2026-05-03T08:57:41.999Z</time></trkpt><trkpt lat="44.99676768720566" lon="8.484442554446522"><ele>267.0</ele><time>2026-05-03T08:57:42.999Z</time></trkpt><trkpt lat="44.99662759692304" lon="8.484450234671234"><ele>267.0</ele><time>2026-05-03T08:57:43.999Z</time></trkpt><trkpt lat="44.996504794121186" lon="8.48449798203508"><ele>267.0</ele><time>2026-05-03T08:57:44.999Z</time></trkpt><trkpt lat="44.996378701422785" lon="8.484498182666309"><ele>267.25</ele><time>2026-05-03T08:57:45.999Z</time></trkpt><trkpt lat="44.99624567748837" lon="8.484472553928208"><ele>267.5</ele><time>2026-05-03T08:57:46.999Z</time></trkpt><trkpt lat="44.996108080343866" lon="8.484422389072318"><ele>267.75</ele><time>2026-05-03T08:57:47.999Z</time></trkpt><trkpt lat="44.995981534642674" lon="8.484324087998722"><ele>268.0</ele><time>2026-05-03T08:57:48.999Z</time></trkpt><trkpt lat="44.99588115935903" lon="8.484190954964724"><ele>265.75</ele><time>2026-05-03T08:57:49.999Z</time></trkpt><trkpt lat="44.99579895585029" lon="8.484018117411956"><ele>263.5</ele><time>2026-05-03T08:57:50.999Z</time></trkpt><trkpt lat="44.99573762672341" lon="8.483825451513091"><ele>261.25</ele><time>2026-05-03T08:57:51.999Z</time></trkpt><trkpt lat="44.995684455089624" lon="8.483637661376685"><ele>259.0</ele><time>2026-05-03T08:57:52.999Z</time></trkpt><trkpt lat="44.995606957738374" lon="8.483478609876995"><ele>259.0</ele><time>2026-05-03T08:57:53.999Z</time></trkpt><trkpt lat="44.995481618630095" lon="8.483349498574176"><ele>259.0</ele><time>2026-05-03T08:57:54.999Z</time></trkpt><trkpt lat="44.995345203548844" lon="8.483259105016453"><ele>259.0</ele><time>2026-05-03T08:57:55.999Z</time></trkpt><trkpt lat="44.99520096158721" lon="8.483187926980417"><ele>259.0</ele><time>2026-05-03T08:57:56.999Z</time></trkpt><trkpt lat="44.99504920636752" lon="8.48311593976085"><ele>259.0</ele><time>2026-05-03T08:57:57.999Z</time></trkpt><trkpt lat="44.99490082825248" lon="8.483040462008322"><ele>259.0</ele><time>2026-05-03T08:57:58.999Z</time></trkpt><trkpt lat="44.99476248760308" lon="8.482964518596338"><ele>258.75</ele><time>2026-05-03T08:57:59.999Z</time></trkpt><trkpt lat="44.99462238159961" lon="8.48289328426937"><ele>258.5</ele><time>2026-05-03T08:58:00.999Z</time></trkpt><trkpt lat="44.99448888502953" lon="8.482835654623296"><ele>258.25</ele><time>2026-05-03T08:58:01.999Z</time></trkpt><trkpt lat="44.9943466865208" lon="8.482792764038525"><ele>258.0</ele><time>2026-05-03T08:58:02.999Z</time></trkpt><trkpt lat="44.99419579796508" lon="8.482758449727877"><ele>256.0</ele><time>2026-05-03T08:58:03.999Z</time></trkpt><trkpt lat="44.99405254681636" lon="8.482728145890146"><ele>254.0</ele><time>2026-05-03T08:58:04.999Z</time></trkpt><trkpt lat="44.99391011143688" lon="8.48270141391784"><ele>252.0</ele><time>2026-05-03T08:58:05.999Z</time></trkpt><trkpt lat="44.993770967970875" lon="8.482673060886299"><ele>250.0</ele><time>2026-05-03T08:58:06.999Z</time></trkpt><trkpt lat="44.99363447259076" lon="8.482653589020092"><ele>250.0</ele><time>2026-05-03T08:58:07.999Z</time></trkpt><trkpt lat="44.99349557319434" lon="8.482669755200927"><ele>250.0</ele><time>2026-05-03T08:58:08.999Z</time></trkpt><trkpt lat="44.993371275785634" lon="8.482714435284953"><ele>250.0</ele><time>2026-05-03T08:58:09.999Z</time></trkpt><trkpt lat="44.99325794730159" lon="8.482749860011843"><ele>250.0</ele><time>2026-05-03T08:58:10.999Z</time></trkpt><trkpt lat="44.99312908047954" lon="8.482736687009051"><ele>248.0</ele><time>2026-05-03T08:58:11.999Z</time></trkpt><trkpt lat="44.992985650525775" lon="8.48267634600103"><ele>246.0</ele><time>2026-05-03T08:58:12.999Z</time></trkpt><trkpt lat="44.99285706321458" lon="8.482595428084664"><ele>244.0</ele><time>2026-05-03T08:58:13.999Z</time></trkpt><trkpt lat="44.99273901965344" lon="8.482498656068884"><ele>242.0</ele><time>2026-05-03T08:58:14.999Z</time></trkpt><trkpt lat="44.992623710151875" lon="8.482362158008213"><ele>242.0</ele><time>2026-05-03T08:58:15.999Z</time></trkpt><trkpt lat="44.992521121557836" lon="8.482214424273405"><ele>242.0</ele><time>2026-05-03T08:58:16.999Z</time></trkpt><trkpt lat="44.99242813421656" lon="8.482067235335983"><ele>242.0</ele><time>2026-05-03T08:58:17.999Z</time></trkpt><trkpt lat="44.99234552259569" lon="8.481910605572983"><ele>242.0</ele><time>2026-05-03T08:58:18.999Z</time></trkpt><trkpt lat="44.99226724830236" lon="8.481731527742872"><ele>241.25</ele><time>2026-05-03T08:58:19.999Z</time></trkpt><trkpt lat="44.99220131984873" lon="8.48154044059283"><ele>240.5</ele><time>2026-05-03T08:58:20.999Z</time></trkpt><trkpt lat="44.99214717951396" lon="8.481349032414519"><ele>239.75</ele><time>2026-05-03T08:58:21.999Z</time></trkpt><trkpt lat="44.99208968349977" lon="8.481164937450293"><ele>239.0</ele><time>2026-05-03T08:58:22.999Z</time></trkpt><trkpt lat="44.99203341668317" lon="8.48099062046563"><ele>238.0</ele><time>2026-05-03T08:58:23.999Z</time></trkpt><trkpt lat="44.991983375946944" lon="8.480824363003174"><ele>237.0</ele><time>2026-05-03T08:58:24.999Z</time></trkpt><trkpt lat="44.99195523797766" lon="8.480666747238425"><ele>236.0</ele><time>2026-05-03T08:58:25.999Z</time></trkpt><trkpt lat="44.991967342473046" lon="8.480501855249816"><ele>235.0</ele><time>2026-05-03T08:58:26.999Z</time></trkpt><trkpt lat="44.99202997857312" lon="8.480357620103163"><ele>234.0</ele><time>2026-05-03T08:58:27.999Z</time></trkpt><trkpt lat="44.99211374543531" lon="8.480255944934935"><ele>233.0</ele><time>2026-05-03T08:58:28.999Z</time></trkpt><trkpt lat="44.99222245892696" lon="8.480215562889091"><ele>232.0</ele><time>2026-05-03T08:58:29.999Z</time></trkpt><trkpt lat="44.99236005448239" lon="8.480208793574617"><ele>231.0</ele><time>2026-05-03T08:58:30.999Z</time></trkpt><trkpt lat="44.99251498014884" lon="8.480203811332798"><ele>231.0</ele><time>2026-05-03T08:58:31.999Z</time></trkpt><trkpt lat="44.992659806834645" lon="8.480196542377223"><ele>231.0</ele><time>2026-05-03T08:58:32.999Z</time></trkpt><trkpt lat="44.99278500949622" lon="8.480166787964842"><ele>231.0</ele><time>2026-05-03T08:58:34Z</time></trkpt><trkpt lat="44.9928969730876" lon="8.480096601234726"><ele>231.0</ele><time>2026-05-03T08:58:35Z</time></trkpt><trkpt lat="44.99299107304813" lon="8.479979709858377"><ele>231.0</ele><time>2026-05-03T08:58:36Z</time></trkpt><trkpt lat="44.993061109706936" lon="8.479825243805985"><ele>231.0</ele><time>2026-05-03T08:58:37Z</time></trkpt><trkpt lat="44.9931208369744" lon="8.47967272598851"><ele>231.0</ele><time>2026-05-03T08:58:38Z</time></trkpt><trkpt lat="44.99321681653683" lon="8.4795762025067"><ele>231.0</ele><time>2026-05-03T08:58:39Z</time></trkpt><trkpt lat="44.9933306551695" lon="8.4795074255013"><ele>227.5</ele><time>2026-05-03T08:58:40Z</time></trkpt><trkpt lat="44.99345181661739" lon="8.479456638824391"><ele>224.0</ele><time>2026-05-03T08:58:41Z</time></trkpt><trkpt lat="44.99358844115937" lon="8.479395285869264"><ele>220.5</ele><time>2026-05-03T08:58:42Z</time></trkpt><trkpt lat="44.99373220907925" lon="8.479319145769184"><ele>217.0</ele><time>2026-05-03T08:58:43Z</time></trkpt><trkpt lat="44.993862563314586" lon="8.47925862723736"><ele>217.0</ele><time>2026-05-03T08:58:44Z</time></trkpt><trkpt lat="44.993991882792685" lon="8.479203187168586"><ele>217.0</ele><time>2026-05-03T08:58:45Z</time></trkpt><trkpt lat="44.99410925523262" lon="8.479130045056193"><ele>217.0</ele><time>2026-05-03T08:58:46Z</time></trkpt><trkpt lat="44.99419929083561" lon="8.479000725945154"><ele>217.0</ele><time>2026-05-03T08:58:47Z</time></trkpt><trkpt lat="44.99426306956695" lon="8.47884188761467"><ele>218.75</ele><time>2026-05-03T08:58:48Z</time></trkpt><trkpt lat="44.994296590703875" lon="8.478660055250112"><ele>220.5</ele><time>2026-05-03T08:58:49Z</time></trkpt><trkpt lat="44.994279003836844" lon="8.47846125172814"><ele>222.25</ele><time>2026-05-03T08:58:50Z</time></trkpt><trkpt lat="44.994240855983534" lon="8.478267184496758"><ele>224.0</ele><time>2026-05-03T08:58:51Z</time></trkpt><trkpt lat="44.99420617343523" lon="8.478081113152125"><ele>224.0</ele><time>2026-05-03T08:58:52Z</time></trkpt><trkpt lat="44.99418122077429" lon="8.47787978616125"><ele>224.0</ele><time>2026-05-03T08:58:53Z</time></trkpt><trkpt lat="44.99414052696283" lon="8.477718375235439"><ele>224.0</ele><time>2026-05-03T08:58:54Z</time></trkpt><trkpt lat="44.99408027304884" lon="8.477561489724149"><ele>224.0</ele><time>2026-05-03T08:58:55Z</time></trkpt><trkpt lat="44.993972795417875" lon="8.477432712310813"><ele>221.5</ele><time>2026-05-03T08:58:56Z</time></trkpt><trkpt lat="44.993845673255144" lon="8.477357974168505"><ele>219.0</ele><time>2026-05-03T08:58:57Z</time></trkpt><trkpt lat="44.993704216268206" lon="8.477371999269815"><ele>216.5</ele><time>2026-05-03T08:58:58Z</time></trkpt><trkpt lat="44.993565840454735" lon="8.477394585666817"><ele>214.0</ele><time>2026-05-03T08:58:59Z</time></trkpt><trkpt lat="44.99342318864122" lon="8.477447507420862"><ele>213.33333333333331</ele><time>2026-05-03T08:59:00Z</time></trkpt><trkpt lat="44.99327386546801" lon="8.477465455862415"><ele>212.66666666666669</ele><time>2026-05-03T08:59:01Z</time></trkpt><trkpt lat="44.993122129305405" lon="8.477499572724327"><ele>212.0</ele><time>2026-05-03T08:59:02Z</time></trkpt><trkpt lat="44.99295507500958" lon="8.477537133767168"><ele>212.0</ele><time>2026-05-03T08:59:03Z</time></trkpt><trkpt lat="44.99279160109151" lon="8.477574251845565"><ele>212.0</ele><time>2026-05-03T08:59:04Z</time></trkpt><trkpt lat="44.992626659242795" lon="8.477616673248308"><ele>212.0</ele><time>2026-05-03T08:59:05Z</time></trkpt><trkpt lat="44.992462389752525" lon="8.477660345166242"><ele>210.33333333333334</ele><time>2026-05-03T08:59:06Z</time></trkpt><trkpt lat="44.99229104986288" lon="8.477725983800251"><ele>208.66666666666669</ele><time>2026-05-03T08:59:07Z</time></trkpt><trkpt lat="44.992127846411016" lon="8.477811218456468"><ele>207.0</ele><time>2026-05-03T08:59:08Z</time></trkpt><trkpt lat="44.991970415127305" lon="8.477890721222677"><ele>203.0</ele><time>2026-05-03T08:59:09Z</time></trkpt><trkpt lat="44.99181909637806" lon="8.477959249477053"><ele>199.0</ele><time>2026-05-03T08:59:10Z</time></trkpt><trkpt lat="44.9916629317447" lon="8.478010945370702"><ele>195.0</ele><time>2026-05-03T08:59:11Z</time></trkpt><trkpt lat="44.991498610044545" lon="8.478047382611875"><ele>193.33333333333334</ele><time>2026-05-03T08:59:12Z</time></trkpt><trkpt lat="44.99133177294805" lon="8.478058980772358"><ele>191.66666666666669</ele><time>2026-05-03T08:59:13Z</time></trkpt><trkpt lat="44.99116528494308" lon="8.478050621305135"><ele>190.0</ele><time>2026-05-03T08:59:14Z</time></trkpt><trkpt lat="44.990996148188806" lon="8.47802577978796"><ele>192.33333333333334</ele><time>2026-05-03T08:59:15Z</time></trkpt><trkpt lat="44.990826790186844" lon="8.47798306131283"><ele>194.66666666666669</ele><time>2026-05-03T08:59:16Z</time></trkpt><trkpt lat="44.99065947668232" lon="8.477919366877837"><ele>197.0</ele><time>2026-05-03T08:59:17Z</time></trkpt><trkpt lat="44.99049152044876" lon="8.477835187739924"><ele>197.0</ele><time>2026-05-03T08:59:18Z</time></trkpt><trkpt lat="44.99032074480236" lon="8.477738835310175"><ele>197.0</ele><time>2026-05-03T08:59:19Z</time></trkpt><trkpt lat="44.99013619273955" lon="8.477653247072668"><ele>197.0</ele><time>2026-05-03T08:59:20Z</time></trkpt><trkpt lat="44.98995016355454" lon="8.477541681877607"><ele>192.33333333333334</ele><time>2026-05-03T08:59:21Z</time></trkpt><trkpt lat="44.98977325477165" lon="8.477435388053909"><ele>187.66666666666669</ele><time>2026-05-03T08:59:22Z</time></trkpt><trkpt lat="44.98960343375799" lon="8.477336339508613"><ele>183.0</ele><time>2026-05-03T08:59:23Z</time></trkpt><trkpt lat="44.98944292084346" lon="8.477225661117325"><ele>183.0</ele><time>2026-05-03T08:59:24Z</time></trkpt><trkpt lat="44.98927573326794" lon="8.477176440590265"><ele>183.0</ele><time>2026-05-03T08:59:25Z</time></trkpt><trkpt lat="44.989114282880095" lon="8.4771764259184"><ele>183.0</ele><time>2026-05-03T08:59:26Z</time></trkpt><trkpt lat="44.98896270585035" lon="8.477219518443402"><ele>181.60000000000002</ele><time>2026-05-03T08:59:27Z</time></trkpt><trkpt lat="44.98883161760908" lon="8.477283792312239"><ele>180.20000000000002</ele><time>2026-05-03T08:59:28Z</time></trkpt><trkpt lat="44.988738730308796" lon="8.477353758227748"><ele>178.8</ele><time>2026-05-03T08:59:29Z</time></trkpt><trkpt lat="44.98865423863265" lon="8.477359891278544"><ele>177.4</ele><time>2026-05-03T08:59:30Z</time></trkpt><trkpt lat="44.988566378857605" lon="8.477326861258014"><ele>176.0</ele><time>2026-05-03T08:59:31Z</time></trkpt><trkpt lat="44.9884650671184" lon="8.477100877346764"><ele>176.0</ele><time>2026-05-03T08:59:33Z</time></trkpt><trkpt lat="44.98843832349217" lon="8.476921599848076"><ele>176.0</ele><time>2026-05-03T08:59:34Z</time></trkpt><trkpt lat="44.98841223786372" lon="8.476736375644371"><ele>176.0</ele><time>2026-05-03T08:59:35Z</time></trkpt><trkpt lat="44.98838729886728" lon="8.476518235581649"><ele>176.0</ele><time>2026-05-03T08:59:36Z</time></trkpt><trkpt lat="44.98835898097536" lon="8.476299535210893"><ele>174.0</ele><time>2026-05-03T08:59:37Z</time></trkpt><trkpt lat="44.98831954273428" lon="8.47605805488984"><ele>172.0</ele><time>2026-05-03T08:59:38Z</time></trkpt><trkpt lat="44.98827445246731" lon="8.47582150062506"><ele>170.0</ele><time>2026-05-03T08:59:39Z</time></trkpt><trkpt lat="44.988229124466095" lon="8.475569687352552"><ele>170.0</ele><time>2026-05-03T08:59:40Z</time></trkpt><trkpt lat="44.988182691391366" lon="8.475308427690752"><ele>170.0</ele><time>2026-05-03T08:59:41Z</time></trkpt><trkpt lat="44.988138113378355" lon="8.475038599177104"><ele>170.0</ele><time>2026-05-03T08:59:42Z</time></trkpt><trkpt lat="44.98808631237003" lon="8.474765294517"><ele>170.0</ele><time>2026-05-03T08:59:43Z</time></trkpt><trkpt lat="44.988043098196904" lon="8.474489281594224"><ele>170.0</ele><time>2026-05-03T08:59:44Z</time></trkpt><trkpt lat="44.988006589347776" lon="8.47421094157259"><ele>170.0</ele><time>2026-05-03T08:59:45Z</time></trkpt><trkpt lat="44.987966719253336" lon="8.473924820896778"><ele>170.66666666666666</ele><time>2026-05-03T08:59:46Z</time></trkpt><trkpt lat="44.98792433978952" lon="8.473643770440802"><ele>171.33333333333334</ele><time>2026-05-03T08:59:47Z</time></trkpt><trkpt lat="44.98787657984292" lon="8.47336125506031"><ele>172.0</ele><time>2026-05-03T08:59:48Z</time></trkpt><trkpt lat="44.98783554771677" lon="8.473078672761632"><ele>175.0</ele><time>2026-05-03T08:59:49Z</time></trkpt><trkpt lat="44.98779358623703" lon="8.47280013710549"><ele>178.0</ele><time>2026-05-03T08:59:50Z</time></trkpt><trkpt lat="44.98775299432228" lon="8.472527928191136"><ele>181.0</ele><time>2026-05-03T08:59:51Z</time></trkpt><trkpt lat="44.98771438687212" lon="8.47226771400789"><ele>181.66666666666669</ele><time>2026-05-03T08:59:52Z</time></trkpt><trkpt lat="44.98767230569512" lon="8.47201466027824"><ele>182.33333333333334</ele><time>2026-05-03T08:59:53Z</time></trkpt><trkpt lat="44.987627368720965" lon="8.471760683257068"><ele>183.0</ele><time>2026-05-03T08:59:53.999Z</time></trkpt><trkpt lat="44.98758017477956" lon="8.47148688183054"><ele>183.0</ele><time>2026-05-03T08:59:54.999Z</time></trkpt><trkpt lat="44.98753433167637" lon="8.471199733819276"><ele>183.0</ele><time>2026-05-03T08:59:55.999Z</time></trkpt><trkpt lat="44.98748635569442" lon="8.470894455012138"><ele>183.0</ele><time>2026-05-03T08:59:56.999Z</time></trkpt><trkpt lat="44.98742848630698" lon="8.470572937200608"><ele>177.5</ele><time>2026-05-03T08:59:57.999Z</time></trkpt><trkpt lat="44.987380353897635" lon="8.470257997554612"><ele>172.0</ele><time>2026-05-03T08:59:58.999Z</time></trkpt><trkpt lat="44.98733110560746" lon="8.469940532034647"><ele>172.0</ele><time>2026-05-03T08:59:59.999Z</time></trkpt><trkpt lat="44.98728652309776" lon="8.469637340520825"><ele>172.0</ele><time>2026-05-03T09:00:00.999Z</time></trkpt><trkpt lat="44.98724579325693" lon="8.469351553288144"><ele>172.0</ele><time>2026-05-03T09:00:01.999Z</time></trkpt><trkpt lat="44.98720196954958" lon="8.469069670699305"><ele>171.33333333333334</ele><time>2026-05-03T09:00:02.999Z</time></trkpt><trkpt lat="44.98715967052006" lon="8.468772490039576"><ele>170.66666666666666</ele><time>2026-05-03T09:00:03.999Z</time></trkpt><trkpt lat="44.98711181904526" lon="8.468473534200074"><ele>170.0</ele><time>2026-05-03T09:00:04.999Z</time></trkpt><trkpt lat="44.98706350897479" lon="8.468193226227246"><ele>169.66666666666666</ele><time>2026-05-03T09:00:05.999Z</time></trkpt><trkpt lat="44.98702115179908" lon="8.467931751308033"><ele>169.33333333333334</ele><time>2026-05-03T09:00:06.999Z</time></trkpt><trkpt lat="44.986988711308754" lon="8.467683944278415"><ele>169.0</ele><time>2026-05-03T09:00:07.999Z</time></trkpt><trkpt lat="44.98694818298731" lon="8.467451695285597"><ele>169.0</ele><time>2026-05-03T09:00:08.999Z</time></trkpt><trkpt lat="44.98692345849571" lon="8.467230228242194"><ele>169.0</ele><time>2026-05-03T09:00:09.999Z</time></trkpt><trkpt lat="44.98689483242506" lon="8.467031250670608"><ele>169.0</ele><time>2026-05-03T09:00:10.999Z</time></trkpt><trkpt lat="44.98689270612565" lon="8.46684648136713"><ele>169.0</ele><time>2026-05-03T09:00:11.999Z</time></trkpt><trkpt lat="44.98692608430993" lon="8.466670307549263"><ele>169.75</ele><time>2026-05-03T09:00:12.999Z</time></trkpt><trkpt lat="44.98701241727003" lon="8.466512596272306"><ele>170.5</ele><time>2026-05-03T09:00:13.999Z</time></trkpt><trkpt lat="44.987126851538946" lon="8.466377006852113"><ele>171.25</ele><time>2026-05-03T09:00:14.999Z</time></trkpt><trkpt lat="44.98725068900321" lon="8.466250294756277"><ele>172.0</ele><time>2026-05-03T09:00:15.999Z</time></trkpt><trkpt lat="44.98737913765206" lon="8.466108321907942"><ele>172.66666666666669</ele><time>2026-05-03T09:00:16.999Z</time></trkpt><trkpt lat="44.98749515049884" lon="8.46595786160636"><ele>173.33333333333334</ele><time>2026-05-03T09:00:17.999Z</time></trkpt><trkpt lat="44.98759851222654" lon="8.465810896721784"><ele>174.0</ele><time>2026-05-03T09:00:18.999Z</time></trkpt><trkpt lat="44.98768996318056" lon="8.465639110431006"><ele>175.0</ele><time>2026-05-03T09:00:19.999Z</time></trkpt><trkpt lat="44.98776142167816" lon="8.46544179270318"><ele>176.0</ele><time>2026-05-03T09:00:20.999Z</time></trkpt><trkpt lat="44.98779758226527" lon="8.465213586176851"><ele>177.0</ele><time>2026-05-03T09:00:21.999Z</time></trkpt><trkpt lat="44.98782430658104" lon="8.464976200929813"><ele>177.0</ele><time>2026-05-03T09:00:22.999Z</time></trkpt><trkpt lat="44.98785580599407" lon="8.464771954745807"><ele>177.0</ele><time>2026-05-03T09:00:23.999Z</time></trkpt><trkpt lat="44.98790288560148" lon="8.464577117284925"><ele>177.0</ele><time>2026-05-03T09:00:24.999Z</time></trkpt><trkpt lat="44.987989025522346" lon="8.464407085261794"><ele>177.0</ele><time>2026-05-03T09:00:25.999Z</time></trkpt><trkpt lat="44.988092667236685" lon="8.464282971400815"><ele>179.0</ele><time>2026-05-03T09:00:26.999Z</time></trkpt><trkpt lat="44.98819785449678" lon="8.464195955121765"><ele>181.0</ele><time>2026-05-03T09:00:27.999Z</time></trkpt><trkpt lat="44.98832770673545" lon="8.464175272728722"><ele>183.0</ele><time>2026-05-03T09:00:28.999Z</time></trkpt><trkpt lat="44.988469702897426" lon="8.464201036429841"><ele>185.0</ele><time>2026-05-03T09:00:29.999Z</time></trkpt><trkpt lat="44.98860581156054" lon="8.4642492992714"><ele>185.0</ele><time>2026-05-03T09:00:30.999Z</time></trkpt><trkpt lat="44.98873843319675" lon="8.464243163280821"><ele>185.0</ele><time>2026-05-03T09:00:31.999Z</time></trkpt><trkpt lat="44.988877587986465" lon="8.464169422462222"><ele>185.0</ele><time>2026-05-03T09:00:32.999Z</time></trkpt><trkpt lat="44.98901587585837" lon="8.464048630441019"><ele>185.0</ele><time>2026-05-03T09:00:33.999Z</time></trkpt><trkpt lat="44.989140166254266" lon="8.463929522385675"><ele>183.33333333333331</ele><time>2026-05-03T09:00:34.999Z</time></trkpt><trkpt lat="44.989279927988626" lon="8.463794810218523"><ele>181.66666666666666</ele><time>2026-05-03T09:00:35.999Z</time></trkpt><trkpt lat="44.989417944600746" lon="8.463664641853262"><ele>180.0</ele><time>2026-05-03T09:00:36.999Z</time></trkpt><trkpt lat="44.98954680603" lon="8.463572219939367"><ele>184.66666666666669</ele><time>2026-05-03T09:00:37.999Z</time></trkpt><trkpt lat="44.98968873593451" lon="8.46343924217078"><ele>189.33333333333334</ele><time>2026-05-03T09:00:38.999Z</time></trkpt><trkpt lat="44.98982448179444" lon="8.463287373815515"><ele>194.0</ele><time>2026-05-03T09:00:40Z</time></trkpt><trkpt lat="44.98996164458946" lon="8.463132279267864"><ele>195.66666666666669</ele><time>2026-05-03T09:00:41Z</time></trkpt><trkpt lat="44.99009558948656" lon="8.462977431594425"><ele>197.33333333333331</ele><time>2026-05-03T09:00:42Z</time></trkpt><trkpt lat="44.99023555807538" lon="8.462835831118324"><ele>199.0</ele><time>2026-05-03T09:00:43Z</time></trkpt><trkpt lat="44.99039594464895" lon="8.462707147220343"><ele>199.0</ele><time>2026-05-03T09:00:44Z</time></trkpt><trkpt lat="44.99055900356957" lon="8.462578660658856"><ele>199.0</ele><time>2026-05-03T09:00:45Z</time></trkpt><trkpt lat="44.99070775903618" lon="8.462437158522222"><ele>199.0</ele><time>2026-05-03T09:00:46Z</time></trkpt><trkpt lat="44.99086297499408" lon="8.462311578053013"><ele>196.66666666666666</ele><time>2026-05-03T09:00:47Z</time></trkpt><trkpt lat="44.99102123870664" lon="8.462247642225206"><ele>194.33333333333331</ele><time>2026-05-03T09:00:48Z</time></trkpt><trkpt lat="44.99118475202337" lon="8.462225952834572"><ele>192.0</ele><time>2026-05-03T09:00:49Z</time></trkpt><trkpt lat="44.99133796541775" lon="8.462251511582467"><ele>192.0</ele><time>2026-05-03T09:00:50Z</time></trkpt><trkpt lat="44.99146969414528" lon="8.462232122175935"><ele>192.0</ele><time>2026-05-03T09:00:51Z</time></trkpt><trkpt lat="44.991566063310245" lon="8.462166313945636"><ele>192.0</ele><time>2026-05-03T09:00:52Z</time></trkpt><trkpt lat="44.9916352171921" lon="8.46204644014058"><ele>192.0</ele><time>2026-05-03T09:00:53Z</time></trkpt><trkpt lat="44.991676199434814" lon="8.461868443948763"><ele>195.25</ele><time>2026-05-03T09:00:54Z</time></trkpt><trkpt lat="44.991662271090945" lon="8.461688620040643"><ele>198.5</ele><time>2026-05-03T09:00:55Z</time></trkpt><trkpt lat="44.99160326890912" lon="8.461511673975528"><ele>201.75</ele><time>2026-05-03T09:00:56Z</time></trkpt><trkpt lat="44.991501490343836" lon="8.461354067927925"><ele>205.0</ele><time>2026-05-03T09:00:57Z</time></trkpt><trkpt lat="44.99140470648154" lon="8.461196659748792"><ele>205.5</ele><time>2026-05-03T09:00:58Z</time></trkpt><trkpt lat="44.99133099111375" lon="8.461008186049272"><ele>206.0</ele><time>2026-05-03T09:00:59Z</time></trkpt><trkpt lat="44.99128928238301" lon="8.460807178667327"><ele>206.5</ele><time>2026-05-03T09:01:00Z</time></trkpt><trkpt lat="44.99128659892896" lon="8.460636959515654"><ele>207.0</ele><time>2026-05-03T09:01:01Z</time></trkpt><trkpt lat="44.99131122563551" lon="8.460422195115294"><ele>209.0</ele><time>2026-05-03T09:01:02Z</time></trkpt><trkpt lat="44.9913562177563" lon="8.460236415027861"><ele>211.0</ele><time>2026-05-03T09:01:03Z</time></trkpt><trkpt lat="44.99144924492654" lon="8.46006727781654"><ele>213.0</ele><time>2026-05-03T09:01:04Z</time></trkpt><trkpt lat="44.99154492844067" lon="8.459941786204977"><ele>215.0</ele><time>2026-05-03T09:01:05Z</time></trkpt><trkpt lat="44.9916637552086" lon="8.459838856734388"><ele>214.25</ele><time>2026-05-03T09:01:06Z</time></trkpt><trkpt lat="44.99179581774289" lon="8.459721543315332"><ele>213.5</ele><time>2026-05-03T09:01:07Z</time></trkpt><trkpt lat="44.99191346286407" lon="8.459599721904427"><ele>212.75</ele><time>2026-05-03T09:01:08Z</time></trkpt><trkpt lat="44.99199151121604" lon="8.459477655559189"><ele>212.0</ele><time>2026-05-03T09:01:09Z</time></trkpt><trkpt lat="44.99202598183492" lon="8.45931721823145"><ele>212.0</ele><time>2026-05-03T09:01:10Z</time></trkpt><trkpt lat="44.992035127997845" lon="8.459134759905082"><ele>212.0</ele><time>2026-05-03T09:01:11Z</time></trkpt><trkpt lat="44.99199931399272" lon="8.458967600244296"><ele>212.0</ele><time>2026-05-03T09:01:12Z</time></trkpt><trkpt lat="44.99192578966619" lon="8.458810153068992"><ele>212.0</ele><time>2026-05-03T09:01:13Z</time></trkpt><trkpt lat="44.99185599462427" lon="8.458685255597551"><ele>213.6</ele><time>2026-05-03T09:01:14Z</time></trkpt><trkpt lat="44.99183505612038" lon="8.458537766952782"><ele>215.2</ele><time>2026-05-03T09:01:15Z</time></trkpt><trkpt lat="44.99182788464078" lon="8.458403427123077"><ele>216.8</ele><time>2026-05-03T09:01:16Z</time></trkpt><trkpt lat="44.99183792032671" lon="8.458275676829924"><ele>218.4</ele><time>2026-05-03T09:01:17Z</time></trkpt><trkpt lat="44.991861219007994" lon="8.458136008901205"><ele>220.0</ele><time>2026-05-03T09:01:18Z</time></trkpt><trkpt lat="44.99195478059784" lon="8.457985656800059"><ele>222.75</ele><time>2026-05-03T09:01:19Z</time></trkpt><trkpt lat="44.99202448603916" lon="8.457854216060445"><ele>225.5</ele><time>2026-05-03T09:01:20Z</time></trkpt><trkpt lat="44.992104971244316" lon="8.457735595077216"><ele>228.25</ele><time>2026-05-03T09:01:21Z</time></trkpt><trkpt lat="44.99220332083867" lon="8.457642280182519"><ele>231.0</ele><time>2026-05-03T09:01:22Z</time></trkpt><trkpt lat="44.99230196268932" lon="8.457602119431707"><ele>231.0</ele><time>2026-05-03T09:01:23Z</time></trkpt><trkpt lat="44.992397461292285" lon="8.457570072988883"><ele>231.0</ele><time>2026-05-03T09:01:24Z</time></trkpt><trkpt lat="44.99250173069487" lon="8.457559027369195"><ele>231.0</ele><time>2026-05-03T09:01:25Z</time></trkpt><trkpt lat="44.99262950584431" lon="8.45754512728805"><ele>231.0</ele><time>2026-05-03T09:01:26Z</time></trkpt><trkpt lat="44.992748649808284" lon="8.457498336851375"><ele>229.4</ele><time>2026-05-03T09:01:27Z</time></trkpt><trkpt lat="44.99286634519385" lon="8.457476006872144"><ele>227.8</ele><time>2026-05-03T09:01:28Z</time></trkpt><trkpt lat="44.99297616228815" lon="8.457419375766872"><ele>226.20000000000002</ele><time>2026-05-03T09:01:29Z</time></trkpt><trkpt lat="44.993052265044575" lon="8.45735592619013"><ele>224.60000000000002</ele><time>2026-05-03T09:01:30Z</time></trkpt><trkpt lat="44.993100914430805" lon="8.457262549741067"><ele>223.0</ele><time>2026-05-03T09:01:31Z</time></trkpt><trkpt lat="44.99316065545526" lon="8.457129108855538"><ele>225.2</ele><time>2026-05-03T09:01:32Z</time></trkpt><trkpt lat="44.99320426410337" lon="8.457024695655704"><ele>227.4</ele><time>2026-05-03T09:01:33Z</time></trkpt><trkpt lat="44.993226813957136" lon="8.456917917089386"><ele>229.59999999999997</ele><time>2026-05-03T09:01:34Z</time></trkpt><trkpt lat="44.99326991790914" lon="8.456798713731235"><ele>231.79999999999998</ele><time>2026-05-03T09:01:36Z</time></trkpt><trkpt lat="44.99316833027488" lon="8.45669270666526"><ele>234.0</ele><time>2026-05-03T09:01:38Z</time></trkpt><trkpt lat="44.99310008430759" lon="8.456552992118754"><ele>234.0</ele><time>2026-05-03T09:01:40Z</time></trkpt><trkpt lat="44.993004104990895" lon="8.456451212336757"><ele>233.99999999999997</ele><time>2026-05-03T09:01:42Z</time></trkpt><trkpt lat="44.99287440581567" lon="8.45644066035572"><ele>233.99999999999997</ele><time>2026-05-03T09:01:44Z</time></trkpt><trkpt lat="44.99279738860869" lon="8.456467489927892"><ele>234.0</ele><time>2026-05-03T09:01:44.999Z</time></trkpt><trkpt lat="44.99272524337568" lon="8.456492636790822"><ele>234.0</ele><time>2026-05-03T09:01:45.999Z</time></trkpt><trkpt lat="44.992644620746944" lon="8.456524453945793"><ele>234.0</ele><time>2026-05-03T09:01:46.999Z</time></trkpt><trkpt lat="44.992572355917154" lon="8.45655377457355"><ele>234.0</ele><time>2026-05-03T09:01:47.999Z</time></trkpt><trkpt lat="44.992490921481604" lon="8.45658790587137"><ele>234.0</ele><time>2026-05-03T09:01:48.999Z</time></trkpt><trkpt lat="44.99240273190753" lon="8.456619303582602"><ele>234.0</ele><time>2026-05-03T09:01:49.999Z</time></trkpt><trkpt lat="44.99231987516319" lon="8.456636854461493"><ele>234.0</ele><time>2026-05-03T09:01:50.999Z</time></trkpt><trkpt lat="44.99223948931347" lon="8.45664121132448"><ele>234.0</ele><time>2026-05-03T09:01:51.999Z</time></trkpt><trkpt lat="44.99216344824975" lon="8.4566518525885"><ele>234.66666666666666</ele><time>2026-05-03T09:01:52.999Z</time></trkpt><trkpt lat="44.99208706610912" lon="8.456636678021754"><ele>235.33333333333331</ele><time>2026-05-03T09:01:53.999Z</time></trkpt><trkpt lat="44.992016101985094" lon="8.456601485817956"><ele>236.0</ele><time>2026-05-03T09:01:54.999Z</time></trkpt><trkpt lat="44.991944055686346" lon="8.456577931171838"><ele>236.66666666666666</ele><time>2026-05-03T09:01:55.999Z</time></trkpt><trkpt lat="44.99187375532401" lon="8.456552286053476"><ele>237.33333333333331</ele><time>2026-05-03T09:01:56.999Z</time></trkpt><trkpt lat="44.991818286186856" lon="8.456460998241571"><ele>238.0</ele><time>2026-05-03T09:01:57.999Z</time></trkpt><trkpt lat="44.991759649054266" lon="8.456347130780212"><ele>238.0</ele><time>2026-05-03T09:01:58.999Z</time></trkpt><trkpt lat="44.99169373211083" lon="8.456211783456347"><ele>238.0</ele><time>2026-05-03T09:01:59.999Z</time></trkpt><trkpt lat="44.99163573993234" lon="8.456100268592872"><ele>238.0</ele><time>2026-05-03T09:02:00.999Z</time></trkpt><trkpt lat="44.99157422741985" lon="8.455993954978862"><ele>238.0</ele><time>2026-05-03T09:02:01.999Z</time></trkpt><trkpt lat="44.99148967788498" lon="8.455870215266945"><ele>238.0</ele><time>2026-05-03T09:02:02.999Z</time></trkpt><trkpt lat="44.99135998399918" lon="8.45576460755126"><ele>238.0</ele><time>2026-05-03T09:02:03.999Z</time></trkpt><trkpt lat="44.99122795795359" lon="8.455700262495707"><ele>238.0</ele><time>2026-05-03T09:02:04.999Z</time></trkpt><trkpt lat="44.99111161582419" lon="8.455669082045818"><ele>238.0</ele><time>2026-05-03T09:02:05.999Z</time></trkpt><trkpt lat="44.99099601567594" lon="8.45566345862684"><ele>238.0</ele><time>2026-05-03T09:02:06.999Z</time></trkpt><trkpt lat="44.990886154820814" lon="8.455640154680692"><ele>238.4</ele><time>2026-05-03T09:02:07.999Z</time></trkpt><trkpt lat="44.990788496211195" lon="8.455601081475471"><ele>238.8</ele><time>2026-05-03T09:02:08.999Z</time></trkpt><trkpt lat="44.99069876568511" lon="8.45558206342222"><ele>239.2</ele><time>2026-05-03T09:02:09.999Z</time></trkpt><trkpt lat="44.990597676311076" lon="8.455576331093955"><ele>239.6</ele><time>2026-05-03T09:02:10.999Z</time></trkpt><trkpt lat="44.99054056127715" lon="8.455424342830735"><ele>240.0</ele><time>2026-05-03T09:02:12.999Z</time></trkpt><trkpt lat="44.990554247451655" lon="8.455303041651417"><ele>240.0</ele><time>2026-05-03T09:02:13.999Z</time></trkpt><trkpt lat="44.99054421559227" lon="8.455172400824774"><ele>240.0</ele><time>2026-05-03T09:02:14.999Z</time></trkpt><trkpt lat="44.990531275315014" lon="8.455012385511452"><ele>240.0</ele><time>2026-05-03T09:02:15.999Z</time></trkpt><trkpt lat="44.99053106603673" lon="8.454866361569389"><ele>240.0</ele><time>2026-05-03T09:02:16.999Z</time></trkpt><trkpt lat="44.99051749005752" lon="8.454725962846348"><ele>240.0</ele><time>2026-05-03T09:02:17.999Z</time></trkpt><trkpt lat="44.99052375013555" lon="8.454590596733427"><ele>238.5</ele><time>2026-05-03T09:02:18.999Z</time></trkpt><trkpt lat="44.990503068931254" lon="8.454421371874108"><ele>237.0</ele><time>2026-05-03T09:02:19.999Z</time></trkpt><trkpt lat="44.99051539856" lon="8.454238901644503"><ele>235.5</ele><time>2026-05-03T09:02:20.999Z</time></trkpt><trkpt lat="44.99051728571135" lon="8.454039842887234"><ele>234.0</ele><time>2026-05-03T09:02:21.999Z</time></trkpt><trkpt lat="44.9904908478849" lon="8.453831349775431"><ele>234.33333333333331</ele><time>2026-05-03T09:02:22.999Z</time></trkpt><trkpt lat="44.9904837109888" lon="8.453618196170464"><ele>234.66666666666666</ele><time>2026-05-03T09:02:23.999Z</time></trkpt><trkpt lat="44.990475066980814" lon="8.45341047305758"><ele>235.0</ele><time>2026-05-03T09:02:24.999Z</time></trkpt><trkpt lat="44.990453621940475" lon="8.453186602892794"><ele>235.0</ele><time>2026-05-03T09:02:25.999Z</time></trkpt><trkpt lat="44.990427703777996" lon="8.452966252506672"><ele>235.0</ele><time>2026-05-03T09:02:26.999Z</time></trkpt><trkpt lat="44.9904444849137" lon="8.452758308863318"><ele>235.0</ele><time>2026-05-03T09:02:27.999Z</time></trkpt><trkpt lat="44.99043248912652" lon="8.452549719189944"><ele>234.5</ele><time>2026-05-03T09:02:28.999Z</time></trkpt><trkpt lat="44.99042053983946" lon="8.452353580179675"><ele>234.0</ele><time>2026-05-03T09:02:29.999Z</time></trkpt><trkpt lat="44.99040708579978" lon="8.452143239254333"><ele>233.5</ele><time>2026-05-03T09:02:30.999Z</time></trkpt><trkpt lat="44.99038911384062" lon="8.451926070969689"><ele>233.0</ele><time>2026-05-03T09:02:31.999Z</time></trkpt><trkpt lat="44.990363021649436" lon="8.45169609760245"><ele>233.0</ele><time>2026-05-03T09:02:32.999Z</time></trkpt><trkpt lat="44.99033463404112" lon="8.45148323015999"><ele>233.0</ele><time>2026-05-03T09:02:33.999Z</time></trkpt><trkpt lat="44.99030665011319" lon="8.45127238371301"><ele>233.0</ele><time>2026-05-03T09:02:34.999Z</time></trkpt><trkpt lat="44.990269640867915" lon="8.45105930233639"><ele>230.75</ele><time>2026-05-03T09:02:35.999Z</time></trkpt><trkpt lat="44.99022390306317" lon="8.450848309908762"><ele>228.5</ele><time>2026-05-03T09:02:36.999Z</time></trkpt><trkpt lat="44.99017067696655" lon="8.450639983837293"><ele>226.25</ele><time>2026-05-03T09:02:37.999Z</time></trkpt><trkpt lat="44.99011836337655" lon="8.450483927875517"><ele>224.0</ele><time>2026-05-03T09:02:38.999Z</time></trkpt><trkpt lat="44.990050913992754" lon="8.450334715899103"><ele>224.0</ele><time>2026-05-03T09:02:39.999Z</time></trkpt><trkpt lat="44.98995304390037" lon="8.45021447280514"><ele>224.0</ele><time>2026-05-03T09:02:40.999Z</time></trkpt><trkpt lat="44.989822135889725" lon="8.450139082003911"><ele>224.0</ele><time>2026-05-03T09:02:41.999Z</time></trkpt><trkpt lat="44.98968042643465" lon="8.450104709494308"><ele>224.0</ele><time>2026-05-03T09:02:42.999Z</time></trkpt><trkpt lat="44.98956121308654" lon="8.450068903147272"><ele>224.0</ele><time>2026-05-03T09:02:43.999Z</time></trkpt><trkpt lat="44.989459626196215" lon="8.45004369785459"><ele>223.99999999999997</ele><time>2026-05-03T09:02:44.999Z</time></trkpt><trkpt lat="44.989398370428496" lon="8.449960979614163"><ele>223.99999999999997</ele><time>2026-05-03T09:02:46Z</time></trkpt><trkpt lat="44.989335084381025" lon="8.449836480079883"><ele>224.0</ele><time>2026-05-03T09:02:47Z</time></trkpt><trkpt lat="44.989280950025794" lon="8.449707045473104"><ele>224.0</ele><time>2026-05-03T09:02:48Z</time></trkpt><trkpt lat="44.98922495290615" lon="8.449569559174705"><ele>223.0</ele><time>2026-05-03T09:02:49Z</time></trkpt><trkpt lat="44.98917290126649" lon="8.449428225010774"><ele>222.0</ele><time>2026-05-03T09:02:50Z</time></trkpt><trkpt lat="44.98911518588292" lon="8.44928297170612"><ele>221.0</ele><time>2026-05-03T09:02:51Z</time></trkpt><trkpt lat="44.9890555541275" lon="8.44913503329959"><ele>220.0</ele><time>2026-05-03T09:02:52Z</time></trkpt><trkpt lat="44.98899912745393" lon="8.448980197133686"><ele>220.0</ele><time>2026-05-03T09:02:53Z</time></trkpt><trkpt lat="44.988933428693926" lon="8.448835289151031"><ele>220.0</ele><time>2026-05-03T09:02:54Z</time></trkpt><trkpt lat="44.98886808458172" lon="8.448642396051854"><ele>220.0</ele><time>2026-05-03T09:02:55Z</time></trkpt><trkpt lat="44.988793167485674" lon="8.448465777723342"><ele>220.0</ele><time>2026-05-03T09:02:56Z</time></trkpt><trkpt lat="44.98872063856713" lon="8.448285653162896"><ele>218.0</ele><time>2026-05-03T09:02:57Z</time></trkpt><trkpt lat="44.98864814987666" lon="8.448104600601301"><ele>216.0</ele><time>2026-05-03T09:02:58Z</time></trkpt><trkpt lat="44.98857596058557" lon="8.447896507587954"><ele>214.0</ele><time>2026-05-03T09:02:59Z</time></trkpt><trkpt lat="44.98852796164869" lon="8.447671805188238"><ele>215.0</ele><time>2026-05-03T09:03:00Z</time></trkpt><trkpt lat="44.988496560297186" lon="8.447475010927535"><ele>216.0</ele><time>2026-05-03T09:03:01Z</time></trkpt><trkpt lat="44.98845211090373" lon="8.447303034211975"><ele>217.0</ele><time>2026-05-03T09:03:02Z</time></trkpt><trkpt lat="44.98839107789568" lon="8.447149815915374"><ele>218.0</ele><time>2026-05-03T09:03:03Z</time></trkpt><trkpt lat="44.98830699873068" lon="8.447011066441844"><ele>218.0</ele><time>2026-05-03T09:03:04Z</time></trkpt><trkpt lat="44.98819225090251" lon="8.446912490088707"><ele>218.0</ele><time>2026-05-03T09:03:05Z</time></trkpt><trkpt lat="44.98805947364046" lon="8.44680834848729"><ele>218.0</ele><time>2026-05-03T09:03:06Z</time></trkpt><trkpt lat="44.98792076466002" lon="8.446724573866717"><ele>218.0</ele><time>2026-05-03T09:03:07Z</time></trkpt><trkpt lat="44.987791397687246" lon="8.446643357659783"><ele>218.0</ele><time>2026-05-03T09:03:08Z</time></trkpt><trkpt lat="44.98764553972828" lon="8.446562232025194"><ele>218.0</ele><time>2026-05-03T09:03:09Z</time></trkpt><trkpt lat="44.9875151976924" lon="8.446432008866099"><ele>218.0</ele><time>2026-05-03T09:03:10Z</time></trkpt><trkpt lat="44.9873636291765" lon="8.446307722165814"><ele>217.66666666666669</ele><time>2026-05-03T09:03:11Z</time></trkpt><trkpt lat="44.987213095458806" lon="8.446163324085878"><ele>217.33333333333331</ele><time>2026-05-03T09:03:12Z</time></trkpt><trkpt lat="44.987073857139436" lon="8.446037782766874"><ele>217.0</ele><time>2026-05-03T09:03:13Z</time></trkpt><trkpt lat="44.98694811337592" lon="8.445917814314148"><ele>217.0</ele><time>2026-05-03T09:03:14Z</time></trkpt><trkpt lat="44.986822047806186" lon="8.445771534958325"><ele>217.0</ele><time>2026-05-03T09:03:15Z</time></trkpt><trkpt lat="44.986702307576785" lon="8.445631359156916"><ele>217.0</ele><time>2026-05-03T09:03:16Z</time></trkpt><trkpt lat="44.98662664211031" lon="8.44542997535633"><ele>217.0</ele><time>2026-05-03T09:03:17Z</time></trkpt><trkpt lat="44.98655975631882" lon="8.445243250923516"><ele>217.0</ele><time>2026-05-03T09:03:18Z</time></trkpt><trkpt lat="44.98650344997736" lon="8.445076082261428"><ele>217.0</ele><time>2026-05-03T09:03:19Z</time></trkpt><trkpt lat="44.98642878495645" lon="8.444943989852732"><ele>217.0</ele><time>2026-05-03T09:03:20Z</time></trkpt><trkpt lat="44.986316277186056" lon="8.444829389131309"><ele>217.0</ele><time>2026-05-03T09:03:21Z</time></trkpt><trkpt lat="44.98618238853137" lon="8.444704744360436"><ele>217.0</ele><time>2026-05-03T09:03:22Z</time></trkpt><trkpt lat="44.98603267452937" lon="8.444571409991088"><ele>217.0</ele><time>2026-05-03T09:03:23Z</time></trkpt><trkpt lat="44.98588884108199" lon="8.444440693949701"><ele>215.33333333333331</ele><time>2026-05-03T09:03:24Z</time></trkpt><trkpt lat="44.985725733648444" lon="8.44429199574764"><ele>213.66666666666669</ele><time>2026-05-03T09:03:25Z</time></trkpt><trkpt lat="44.98556064801288" lon="8.444141493942908"><ele>212.0</ele><time>2026-05-03T09:03:26Z</time></trkpt><trkpt lat="44.985394046789196" lon="8.443989656089284"><ele>212.0</ele><time>2026-05-03T09:03:27Z</time></trkpt><trkpt lat="44.98521695308638" lon="8.44382899989539"><ele>212.0</ele><time>2026-05-03T09:03:28Z</time></trkpt><trkpt lat="44.98503792633753" lon="8.443664455546976"><ele>212.0</ele><time>2026-05-03T09:03:29Z</time></trkpt><trkpt lat="44.984862332270886" lon="8.443502003824682"><ele>208.33333333333334</ele><time>2026-05-03T09:03:30Z</time></trkpt><trkpt lat="44.984693632541706" lon="8.443343760452288"><ele>204.66666666666669</ele><time>2026-05-03T09:03:31Z</time></trkpt><trkpt lat="44.98453105853028" lon="8.44319029730285"><ele>201.0</ele><time>2026-05-03T09:03:32Z</time></trkpt><trkpt lat="44.984372480046886" lon="8.443038228236619"><ele>199.0</ele><time>2026-05-03T09:03:33Z</time></trkpt><trkpt lat="44.98422459262257" lon="8.44289641133148"><ele>197.0</ele><time>2026-05-03T09:03:34Z</time></trkpt><trkpt lat="44.984078912455786" lon="8.442784760698698"><ele>195.0</ele><time>2026-05-03T09:03:35Z</time></trkpt><trkpt lat="44.9839535816656" lon="8.442628091310135"><ele>195.0</ele><time>2026-05-03T09:03:36Z</time></trkpt><trkpt lat="44.983844947858785" lon="8.4424455736336"><ele>195.0</ele><time>2026-05-03T09:03:37Z</time></trkpt><trkpt lat="44.983751298035514" lon="8.44223273964885"><ele>195.0</ele><time>2026-05-03T09:03:38Z</time></trkpt><trkpt lat="44.983663311938635" lon="8.441999154205627"><ele>191.0</ele><time>2026-05-03T09:03:39Z</time></trkpt><trkpt lat="44.98357166023494" lon="8.441758793235907"><ele>187.0</ele><time>2026-05-03T09:03:40Z</time></trkpt><trkpt lat="44.98348622183109" lon="8.441500067877213"><ele>183.0</ele><time>2026-05-03T09:03:41Z</time></trkpt><trkpt lat="44.98340591469105" lon="8.441257140793718"><ele>184.33333333333334</ele><time>2026-05-03T09:03:42Z</time></trkpt><trkpt lat="44.98333440993901" lon="8.441026801841321"><ele>185.66666666666669</ele><time>2026-05-03T09:03:43Z</time></trkpt><trkpt lat="44.983263467563965" lon="8.440797921713488"><ele>187.0</ele><time>2026-05-03T09:03:44Z</time></trkpt><trkpt lat="44.983217402741175" lon="8.440567958060667"><ele>184.33333333333334</ele><time>2026-05-03T09:03:45Z</time></trkpt><trkpt lat="44.983177134367104" lon="8.440348514536414"><ele>181.66666666666666</ele><time>2026-05-03T09:03:46Z</time></trkpt><trkpt lat="44.983129750773614" lon="8.440126297365705"><ele>179.0</ele><time>2026-05-03T09:03:47Z</time></trkpt><trkpt lat="44.98306498390351" lon="8.439893026594591"><ele>179.0</ele><time>2026-05-03T09:03:48Z</time></trkpt><trkpt lat="44.982991025473" lon="8.43968724889664"><ele>179.0</ele><time>2026-05-03T09:03:49Z</time></trkpt><trkpt lat="44.98290266549229" lon="8.439472198111902"><ele>179.0</ele><time>2026-05-03T09:03:50Z</time></trkpt><trkpt lat="44.98286160275916" lon="8.439237580428802"><ele>177.33333333333331</ele><time>2026-05-03T09:03:51Z</time></trkpt><trkpt lat="44.98282799064375" lon="8.438992091537711"><ele>175.66666666666666</ele><time>2026-05-03T09:03:52Z</time></trkpt><trkpt lat="44.98279408075903" lon="8.438757769210874"><ele>174.0</ele><time>2026-05-03T09:03:53Z</time></trkpt><trkpt lat="44.9827526706048" lon="8.43853810730702"><ele>174.5</ele><time>2026-05-03T09:03:54Z</time></trkpt><trkpt lat="44.98269712667211" lon="8.43834195675075"><ele>175.0</ele><time>2026-05-03T09:03:55Z</time></trkpt><trkpt lat="44.98261799610426" lon="8.438174633360967"><ele>175.5</ele><time>2026-05-03T09:03:56Z</time></trkpt><trkpt lat="44.982494728637235" lon="8.438042166626776"><ele>176.0</ele><time>2026-05-03T09:03:56.999Z</time></trkpt><trkpt lat="44.98233872232252" lon="8.4379488818221"><ele>176.66666666666666</ele><time>2026-05-03T09:03:57.999Z</time></trkpt><trkpt lat="44.982172890808" lon="8.437898097719803"><ele>177.33333333333334</ele><time>2026-05-03T09:03:58.999Z</time></trkpt><trkpt lat="44.98201071668825" lon="8.43786037949929"><ele>178.0</ele><time>2026-05-03T09:03:59.999Z</time></trkpt><trkpt lat="44.98183886680777" lon="8.437773425556705"><ele>178.0</ele><time>2026-05-03T09:04:00.999Z</time></trkpt><trkpt lat="44.981688222221166" lon="8.437677680397584"><ele>178.0</ele><time>2026-05-03T09:04:01.999Z</time></trkpt><trkpt lat="44.98153095439519" lon="8.437551789423697"><ele>178.0</ele><time>2026-05-03T09:04:02.999Z</time></trkpt><trkpt lat="44.98138420461236" lon="8.437417581670163"><ele>179.0</ele><time>2026-05-03T09:04:03.999Z</time></trkpt><trkpt lat="44.98124956621651" lon="8.43727943645883"><ele>180.0</ele><time>2026-05-03T09:04:04.999Z</time></trkpt><trkpt lat="44.98113817830184" lon="8.437112452098138"><ele>181.0</ele><time>2026-05-03T09:04:05.999Z</time></trkpt><trkpt lat="44.98103735063827" lon="8.43690707071419"><ele>181.33333333333334</ele><time>2026-05-03T09:04:06.999Z</time></trkpt><trkpt lat="44.98093096229602" lon="8.436687878904849"><ele>181.66666666666666</ele><time>2026-05-03T09:04:07.999Z</time></trkpt><trkpt lat="44.98083631001381" lon="8.436457182639149"><ele>182.0</ele><time>2026-05-03T09:04:08.999Z</time></trkpt><trkpt lat="44.98074394931636" lon="8.436241632348176"><ele>184.66666666666666</ele><time>2026-05-03T09:04:09.999Z</time></trkpt><trkpt lat="44.98066457200944" lon="8.436045349386086"><ele>187.33333333333334</ele><time>2026-05-03T09:04:10.999Z</time></trkpt><trkpt lat="44.98058207971724" lon="8.43586694167033"><ele>190.0</ele><time>2026-05-03T09:04:11.999Z</time></trkpt><trkpt lat="44.980481266320055" lon="8.43572062118427"><ele>190.0</ele><time>2026-05-03T09:04:12.999Z</time></trkpt><trkpt lat="44.98034607581352" lon="8.435614225674632"><ele>190.0</ele><time>2026-05-03T09:04:13.999Z</time></trkpt><trkpt lat="44.98019301414913" lon="8.435556589221566"><ele>190.0</ele><time>2026-05-03T09:04:14.999Z</time></trkpt><trkpt lat="44.980034735607056" lon="8.435562221213496"><ele>189.0</ele><time>2026-05-03T09:04:15.999Z</time></trkpt><trkpt lat="44.97987039502467" lon="8.43557704641182"><ele>188.0</ele><time>2026-05-03T09:04:16.999Z</time></trkpt><trkpt lat="44.97970024735751" lon="8.435605475930716"><ele>187.0</ele><time>2026-05-03T09:04:17.999Z</time></trkpt><trkpt lat="44.97953326710884" lon="8.435648244265197"><ele>187.0</ele><time>2026-05-03T09:04:18.999Z</time></trkpt><trkpt lat="44.97937157958073" lon="8.435669422753845"><ele>187.0</ele><time>2026-05-03T09:04:19.999Z</time></trkpt><trkpt lat="44.97921933772112" lon="8.435692839441039"><ele>187.0</ele><time>2026-05-03T09:04:20.999Z</time></trkpt><trkpt lat="44.97907257766435" lon="8.435690072510864"><ele>188.5</ele><time>2026-05-03T09:04:21.999Z</time></trkpt><trkpt lat="44.97891906406077" lon="8.435699317315526"><ele>190.0</ele><time>2026-05-03T09:04:22.999Z</time></trkpt><trkpt lat="44.97877004419761" lon="8.435694825860411"><ele>191.5</ele><time>2026-05-03T09:04:23.999Z</time></trkpt><trkpt lat="44.97862978352817" lon="8.435665868196166"><ele>193.0</ele><time>2026-05-03T09:04:24.999Z</time></trkpt><trkpt lat="44.97849252085356" lon="8.435592228809437"><ele>193.0</ele><time>2026-05-03T09:04:25.999Z</time></trkpt><trkpt lat="44.97835738338871" lon="8.435503528972811"><ele>193.0</ele><time>2026-05-03T09:04:26.999Z</time></trkpt><trkpt lat="44.97823597678288" lon="8.435403513486024"><ele>193.0</ele><time>2026-05-03T09:04:27.999Z</time></trkpt><trkpt lat="44.97811258441349" lon="8.435300890258452"><ele>193.0</ele><time>2026-05-03T09:04:28.999Z</time></trkpt><trkpt lat="44.97797398495356" lon="8.435195488305345"><ele>197.66666666666666</ele><time>2026-05-03T09:04:29.999Z</time></trkpt><trkpt lat="44.97784700414302" lon="8.435080424286843"><ele>202.33333333333331</ele><time>2026-05-03T09:04:30.999Z</time></trkpt><trkpt lat="44.97771275025441" lon="8.434960772723901"><ele>207.0</ele><time>2026-05-03T09:04:31.999Z</time></trkpt><trkpt lat="44.97757067150034" lon="8.43483980627153"><ele>206.66666666666669</ele><time>2026-05-03T09:04:32.999Z</time></trkpt><trkpt lat="44.97743269497173" lon="8.434715946126211"><ele>206.33333333333334</ele><time>2026-05-03T09:04:33.999Z</time></trkpt><trkpt lat="44.97728860082753" lon="8.434613548015259"><ele>206.0</ele><time>2026-05-03T09:04:34.999Z</time></trkpt><trkpt lat="44.97713667556655" lon="8.434548097523505"><ele>206.0</ele><time>2026-05-03T09:04:35.999Z</time></trkpt><trkpt lat="44.9769816490294" lon="8.434510745771371"><ele>206.0</ele><time>2026-05-03T09:04:36.999Z</time></trkpt><trkpt lat="44.97682682120433" lon="8.434485516983438"><ele>206.0</ele><time>2026-05-03T09:04:37.999Z</time></trkpt><trkpt lat="44.97668156321588" lon="8.434462762673283"><ele>204.75</ele><time>2026-05-03T09:04:38.999Z</time></trkpt><trkpt lat="44.976553565815365" lon="8.434434883894161"><ele>203.5</ele><time>2026-05-03T09:04:39.999Z</time></trkpt><trkpt lat="44.9764262002228" lon="8.43441694271492"><ele>202.25</ele><time>2026-05-03T09:04:40.999Z</time></trkpt><trkpt lat="44.97629372169256" lon="8.434430487519533"><ele>201.0</ele><time>2026-05-03T09:04:41.999Z</time></trkpt><trkpt lat="44.97616633819281" lon="8.434499494543633"><ele>201.0</ele><time>2026-05-03T09:04:42.999Z</time></trkpt><trkpt lat="44.976035511267106" lon="8.434608364943912"><ele>201.0</ele><time>2026-05-03T09:04:43.999Z</time></trkpt><trkpt lat="44.9759073477353" lon="8.43472846321094"><ele>201.0</ele><time>2026-05-03T09:04:44.999Z</time></trkpt><trkpt lat="44.97576962664222" lon="8.434855343440468"><ele>202.66666666666669</ele><time>2026-05-03T09:04:45.999Z</time></trkpt><trkpt lat="44.97562486357434" lon="8.434946339607988"><ele>204.33333333333334</ele><time>2026-05-03T09:04:46.999Z</time></trkpt><trkpt lat="44.975471481904464" lon="8.435022439342136"><ele>206.0</ele><time>2026-05-03T09:04:47.999Z</time></trkpt><trkpt lat="44.97531671928287" lon="8.435074576829242"><ele>206.0</ele><time>2026-05-03T09:04:48.999Z</time></trkpt><trkpt lat="44.97515782166458" lon="8.435097083926157"><ele>206.0</ele><time>2026-05-03T09:04:49.999Z</time></trkpt><trkpt lat="44.97499462485656" lon="8.435135754407971"><ele>206.0</ele><time>2026-05-03T09:04:50.999Z</time></trkpt><trkpt lat="44.97482821331146" lon="8.435178932504432"><ele>206.33333333333334</ele><time>2026-05-03T09:04:52Z</time></trkpt><trkpt lat="44.97466351066761" lon="8.435214647091609"><ele>206.66666666666669</ele><time>2026-05-03T09:04:53Z</time></trkpt><trkpt lat="44.97448813237337" lon="8.435247025912387"><ele>207.0</ele><time>2026-05-03T09:04:54Z</time></trkpt><trkpt lat="44.97430976377458" lon="8.435290935450068"><ele>205.33333333333331</ele><time>2026-05-03T09:04:55Z</time></trkpt><trkpt lat="44.974141437492605" lon="8.435323329344383"><ele>203.66666666666666</ele><time>2026-05-03T09:04:56Z</time></trkpt><trkpt lat="44.97398040430536" lon="8.435348930069974"><ele>202.0</ele><time>2026-05-03T09:04:57Z</time></trkpt><trkpt lat="44.97381976892027" lon="8.435375181382748"><ele>202.0</ele><time>2026-05-03T09:04:58Z</time></trkpt><trkpt lat="44.973657490499214" lon="8.435378352879177"><ele>202.0</ele><time>2026-05-03T09:04:59Z</time></trkpt><trkpt lat="44.97350566050185" lon="8.435347598053303"><ele>202.0</ele><time>2026-05-03T09:05:00Z</time></trkpt><trkpt lat="44.97336417216983" lon="8.435295689213845"><ele>201.5</ele><time>2026-05-03T09:05:01Z</time></trkpt><trkpt lat="44.97323362635135" lon="8.43523083825038"><ele>201.0</ele><time>2026-05-03T09:05:02Z</time></trkpt><trkpt lat="44.97312184603883" lon="8.435130638134273"><ele>200.5</ele><time>2026-05-03T09:05:03Z</time></trkpt><trkpt lat="44.973026176859506" lon="8.435015951373058"><ele>200.0</ele><time>2026-05-03T09:05:04Z</time></trkpt><trkpt lat="44.97294618772814" lon="8.434873851061646"><ele>200.0</ele><time>2026-05-03T09:05:05Z</time></trkpt><trkpt lat="44.97287270167242" lon="8.434710020341777"><ele>200.0</ele><time>2026-05-03T09:05:06Z</time></trkpt><trkpt lat="44.97279644113754" lon="8.434539522647945"><ele>200.0</ele><time>2026-05-03T09:05:07Z</time></trkpt><trkpt lat="44.972706000150055" lon="8.434365795518305"><ele>200.0</ele><time>2026-05-03T09:05:08Z</time></trkpt><trkpt lat="44.972605786998514" lon="8.434199606373474"><ele>200.0</ele><time>2026-05-03T09:05:09Z</time></trkpt><trkpt lat="44.97250254902891" lon="8.434048626262305"><ele>200.0</ele><time>2026-05-03T09:05:10Z</time></trkpt><trkpt lat="44.97241250770297" lon="8.433875799407673"><ele>200.0</ele><time>2026-05-03T09:05:11Z</time></trkpt><trkpt lat="44.97230920021133" lon="8.43372194662198"><ele>198.0</ele><time>2026-05-03T09:05:12Z</time></trkpt><trkpt lat="44.97218975779333" lon="8.433560667532683"><ele>196.0</ele><time>2026-05-03T09:05:13Z</time></trkpt><trkpt lat="44.97206664586007" lon="8.433411328448503"><ele>194.0</ele><time>2026-05-03T09:05:14Z</time></trkpt><trkpt lat="44.971960403396466" lon="8.433257261387386"><ele>194.0</ele><time>2026-05-03T09:05:15Z</time></trkpt><trkpt lat="44.971835505790125" lon="8.433120460486501"><ele>194.0</ele><time>2026-05-03T09:05:16Z</time></trkpt><trkpt lat="44.971718852967925" lon="8.432973374605972"><ele>194.0</ele><time>2026-05-03T09:05:17Z</time></trkpt><trkpt lat="44.971605504392926" lon="8.43283277931137"><ele>192.5</ele><time>2026-05-03T09:05:18Z</time></trkpt><trkpt lat="44.97149276143429" lon="8.432693555662386"><ele>191.0</ele><time>2026-05-03T09:05:19Z</time></trkpt><trkpt lat="44.97138307202089" lon="8.43255675017372"><ele>189.5</ele><time>2026-05-03T09:05:20Z</time></trkpt><trkpt lat="44.97127926912623" lon="8.432427309121076"><ele>188.0</ele><time>2026-05-03T09:05:21Z</time></trkpt><trkpt lat="44.9711642437482" lon="8.432316257165397"><ele>188.0</ele><time>2026-05-03T09:05:22Z</time></trkpt><trkpt lat="44.97104860189015" lon="8.432229622846913"><ele>188.0</ele><time>2026-05-03T09:05:23Z</time></trkpt><trkpt lat="44.97092160286827" lon="8.432178099165222"><ele>188.0</ele><time>2026-05-03T09:05:24Z</time></trkpt><trkpt lat="44.97079151829336" lon="8.432147603894666"><ele>188.0</ele><time>2026-05-03T09:05:25Z</time></trkpt><trkpt lat="44.9706686910001" lon="8.432122777734744"><ele>186.25</ele><time>2026-05-03T09:05:26Z</time></trkpt><trkpt lat="44.9705435592836" lon="8.432049826560812"><ele>184.5</ele><time>2026-05-03T09:05:27Z</time></trkpt><trkpt lat="44.97042309664568" lon="8.431922831383417"><ele>182.75</ele><time>2026-05-03T09:05:28Z</time></trkpt><trkpt lat="44.970313480646894" lon="8.431773645506201"><ele>181.0</ele><time>2026-05-03T09:05:29Z</time></trkpt><trkpt lat="44.970204924913986" lon="8.43162190160406"><ele>181.0</ele><time>2026-05-03T09:05:30Z</time></trkpt><trkpt lat="44.97008026971796" lon="8.431473576246976"><ele>181.0</ele><time>2026-05-03T09:05:31Z</time></trkpt><trkpt lat="44.969951548528456" lon="8.431351098338846"><ele>181.0</ele><time>2026-05-03T09:05:32Z</time></trkpt><trkpt lat="44.969818590074794" lon="8.431249412574568"><ele>180.0</ele><time>2026-05-03T09:05:33Z</time></trkpt><trkpt lat="44.96966856041407" lon="8.431177374508673"><ele>179.0</ele><time>2026-05-03T09:05:34Z</time></trkpt><trkpt lat="44.969509642974785" lon="8.43111605005351"><ele>178.0</ele><time>2026-05-03T09:05:35Z</time></trkpt><trkpt lat="44.96934090940792" lon="8.431053590859126"><ele>175.33333333333334</ele><time>2026-05-03T09:05:36Z</time></trkpt><trkpt lat="44.969161908829605" lon="8.43098274863449"><ele>172.66666666666666</ele><time>2026-05-03T09:05:37Z</time></trkpt><trkpt lat="44.96898364503836" lon="8.430917161590198"><ele>170.0</ele><time>2026-05-03T09:05:38Z</time></trkpt><trkpt lat="44.96881353010597" lon="8.430857618964314"><ele>170.0</ele><time>2026-05-03T09:05:39Z</time></trkpt><trkpt lat="44.96864509423698" lon="8.430796598062496"><ele>170.0</ele><time>2026-05-03T09:05:40Z</time></trkpt><trkpt lat="44.96848596031546" lon="8.43071623344975"><ele>170.0</ele><time>2026-05-03T09:05:41Z</time></trkpt><trkpt lat="44.96832965090899" lon="8.430654070725247"><ele>168.0</ele><time>2026-05-03T09:05:42Z</time></trkpt><trkpt lat="44.96817673126915" lon="8.430588475672744"><ele>166.0</ele><time>2026-05-03T09:05:43Z</time></trkpt><trkpt lat="44.968030592113614" lon="8.430489943328364"><ele>164.0</ele><time>2026-05-03T09:05:44Z</time></trkpt><trkpt lat="44.967883233066765" lon="8.430372776441112"><ele>164.0</ele><time>2026-05-03T09:05:45Z</time></trkpt><trkpt lat="44.96774260278209" lon="8.430254269963227"><ele>164.0</ele><time>2026-05-03T09:05:46Z</time></trkpt><trkpt lat="44.96758700657533" lon="8.430120698563922"><ele>164.0</ele><time>2026-05-03T09:05:47Z</time></trkpt><trkpt lat="44.967439861962994" lon="8.429996220899712"><ele>161.0</ele><time>2026-05-03T09:05:48Z</time></trkpt><trkpt lat="44.967300584806935" lon="8.429878398816644"><ele>158.0</ele><time>2026-05-03T09:05:49Z</time></trkpt><trkpt lat="44.96716334686294" lon="8.429761007338845"><ele>155.0</ele><time>2026-05-03T09:05:50Z</time></trkpt><trkpt lat="44.967037573177336" lon="8.429652669883346"><ele>155.25</ele><time>2026-05-03T09:05:51Z</time></trkpt><trkpt lat="44.96692047728477" lon="8.42954657675572"><ele>155.5</ele><time>2026-05-03T09:05:52Z</time></trkpt><trkpt lat="44.966800183424425" lon="8.429461531893486"><ele>155.75</ele><time>2026-05-03T09:05:53Z</time></trkpt><trkpt lat="44.96671132593235" lon="8.429345896490583"><ele>156.0</ele><time>2026-05-03T09:05:54Z</time></trkpt><trkpt lat="44.96662797893478" lon="8.42921645771929"><ele>154.75</ele><time>2026-05-03T09:05:55Z</time></trkpt><trkpt lat="44.96654589986391" lon="8.429074203888547"><ele>153.5</ele><time>2026-05-03T09:05:56Z</time></trkpt><trkpt lat="44.96647237735015" lon="8.428921920020043"><ele>152.25</ele><time>2026-05-03T09:05:57Z</time></trkpt><trkpt lat="44.96641349458141" lon="8.428757907046858"><ele>151.0</ele><time>2026-05-03T09:05:58Z</time></trkpt><trkpt lat="44.96634783863258" lon="8.428593873236688"><ele>151.0</ele><time>2026-05-03T09:05:59Z</time></trkpt><trkpt lat="44.96629076403957" lon="8.428444428260118"><ele>151.0</ele><time>2026-05-03T09:06:00Z</time></trkpt><trkpt lat="44.96624446265424" lon="8.428311239865435"><ele>151.0</ele><time>2026-05-03T09:06:01Z</time></trkpt><trkpt lat="44.966202619287444" lon="8.428183787917392"><ele>151.0</ele><time>2026-05-03T09:06:02Z</time></trkpt><trkpt lat="44.9661608508614" lon="8.428069877173215"><ele>151.0</ele><time>2026-05-03T09:06:03Z</time></trkpt><trkpt lat="44.96612230397802" lon="8.427967739803151"><ele>151.0</ele><time>2026-05-03T09:06:04Z</time></trkpt><trkpt lat="44.966071594876944" lon="8.427826325668365"><ele>151.0</ele><time>2026-05-03T09:06:06Z</time></trkpt><trkpt lat="44.966046582435425" lon="8.427720534358352"><ele>151.0</ele><time>2026-05-03T09:06:15.999Z</time></trkpt><trkpt lat="44.96590809027527" lon="8.427736939108957"><ele>151.0</ele><time>2026-05-03T09:06:17.999Z</time></trkpt><trkpt lat="44.96583656468821" lon="8.427778683408238"><ele>151.0</ele><time>2026-05-03T09:06:18.999Z</time></trkpt><trkpt lat="44.96576121594283" lon="8.42784507597087"><ele>151.4</ele><time>2026-05-03T09:06:19.999Z</time></trkpt><trkpt lat="44.96567749888169" lon="8.427893243934038"><ele>151.8</ele><time>2026-05-03T09:06:20.999Z</time></trkpt><trkpt lat="44.96558115895175" lon="8.427951951512592"><ele>152.20000000000002</ele><time>2026-05-03T09:06:21.999Z</time></trkpt><trkpt lat="44.96547820409385" lon="8.42797676298398"><ele>152.6</ele><time>2026-05-03T09:06:22.999Z</time></trkpt><trkpt lat="44.96537107672301" lon="8.42803773554101"><ele>153.0</ele><time>2026-05-03T09:06:23.999Z</time></trkpt><trkpt lat="44.96526803280648" lon="8.428111423416118"><ele>152.6</ele><time>2026-05-03T09:06:24.999Z</time></trkpt><trkpt lat="44.965162046533585" lon="8.4281836487543"><ele>152.20000000000002</ele><time>2026-05-03T09:06:25.999Z</time></trkpt><trkpt lat="44.96506114238055" lon="8.42824785438212"><ele>151.8</ele><time>2026-05-03T09:06:26.999Z</time></trkpt><trkpt lat="44.96496457793061" lon="8.428312170756469"><ele>151.4</ele><time>2026-05-03T09:06:27.999Z</time></trkpt><trkpt lat="44.964857219032275" lon="8.428367191970231"><ele>151.0</ele><time>2026-05-03T09:06:28.999Z</time></trkpt><trkpt lat="44.96475024141563" lon="8.428432860733324"><ele>151.0</ele><time>2026-05-03T09:06:29.999Z</time></trkpt><trkpt lat="44.96464196500918" lon="8.428475124794605"><ele>151.0</ele><time>2026-05-03T09:06:30.999Z</time></trkpt><trkpt lat="44.96453815748188" lon="8.42853612561975"><ele>151.0</ele><time>2026-05-03T09:06:31.999Z</time></trkpt><trkpt lat="44.96442684829822" lon="8.428601534760546"><ele>151.0</ele><time>2026-05-03T09:06:32.999Z</time></trkpt><trkpt lat="44.96431030918148" lon="8.428669005445359"><ele>151.0</ele><time>2026-05-03T09:06:33.999Z</time></trkpt><trkpt lat="44.964202718418576" lon="8.428729571950832"><ele>151.0</ele><time>2026-05-03T09:06:34.999Z</time></trkpt><trkpt lat="44.964094720972035" lon="8.428790371519773"><ele>151.0</ele><time>2026-05-03T09:06:35.999Z</time></trkpt><trkpt lat="44.963980268467" lon="8.428853832778406"><ele>151.0</ele><time>2026-05-03T09:06:36.999Z</time></trkpt><trkpt lat="44.96387191360314" lon="8.42891319946353"><ele>150.5</ele><time>2026-05-03T09:06:37.999Z</time></trkpt><trkpt lat="44.96376278362416" lon="8.42896763763313"><ele>150.0</ele><time>2026-05-03T09:06:38.999Z</time></trkpt><trkpt lat="44.96365179543676" lon="8.429018528085182"><ele>149.5</ele><time>2026-05-03T09:06:39.999Z</time></trkpt><trkpt lat="44.963540906972" lon="8.429090784816436"><ele>149.0</ele><time>2026-05-03T09:06:40.999Z</time></trkpt><trkpt lat="44.9634342970083" lon="8.429113930572305"><ele>149.5</ele><time>2026-05-03T09:06:41.999Z</time></trkpt><trkpt lat="44.96332119007916" lon="8.429158595035151"><ele>150.0</ele><time>2026-05-03T09:06:42.999Z</time></trkpt><trkpt lat="44.96320791742213" lon="8.429199532773708"><ele>150.5</ele><time>2026-05-03T09:06:43.999Z</time></trkpt><trkpt lat="44.963093065306595" lon="8.42924314853205"><ele>151.0</ele><time>2026-05-03T09:06:44.999Z</time></trkpt><trkpt lat="44.96297591268514" lon="8.429286669322856"><ele>151.0</ele><time>2026-05-03T09:06:45.999Z</time></trkpt><trkpt lat="44.96286590646972" lon="8.42931841950409"><ele>151.0</ele><time>2026-05-03T09:06:46.999Z</time></trkpt><trkpt lat="44.96275978741252" lon="8.42933485654562"><ele>151.0</ele><time>2026-05-03T09:06:47.999Z</time></trkpt><trkpt lat="44.96267208260499" lon="8.429362631761617"><ele>151.0</ele><time>2026-05-03T09:06:48.999Z</time></trkpt><trkpt lat="44.962592071927965" lon="8.429378006180775"><ele>151.0</ele><time>2026-05-03T09:06:49.999Z</time></trkpt><trkpt lat="44.96251401560751" lon="8.429400164429968"><ele>151.4</ele><time>2026-05-03T09:06:50.999Z</time></trkpt><trkpt lat="44.96243210577716" lon="8.429422980509658"><ele>151.8</ele><time>2026-05-03T09:06:51.999Z</time></trkpt><trkpt lat="44.96234990579153" lon="8.429443431376965"><ele>152.20000000000002</ele><time>2026-05-03T09:06:52.999Z</time></trkpt><trkpt lat="44.962218026622054" lon="8.429438496452896"><ele>152.6</ele><time>2026-05-03T09:06:54.999Z</time></trkpt><trkpt lat="44.96208757752294" lon="8.429464943505065"><ele>153.0</ele><time>2026-05-03T09:06:56.999Z</time></trkpt><trkpt lat="44.96201098207982" lon="8.429479187783265"><ele>153.0</ele><time>2026-05-03T09:06:58Z</time></trkpt><trkpt lat="44.961927935366106" lon="8.429491537789739"><ele>153.0</ele><time>2026-05-03T09:06:59Z</time></trkpt><trkpt lat="44.961853559949624" lon="8.42950734113521"><ele>153.0</ele><time>2026-05-03T09:07:00Z</time></trkpt><trkpt lat="44.96178815838193" lon="8.42950104502285"><ele>153.0</ele><time>2026-05-03T09:07:01Z</time></trkpt><trkpt lat="44.961681979350445" lon="8.429513552321996"><ele>153.0</ele><time>2026-05-03T09:07:03Z</time></trkpt><trkpt lat="44.96158452950861" lon="8.429527435921322"><ele>153.0</ele><time>2026-05-03T09:07:05Z</time></trkpt><trkpt lat="44.96148559714846" lon="8.429524964432426"><ele>153.33333333333334</ele><time>2026-05-03T09:07:07Z</time></trkpt><trkpt lat="44.96138292563364" lon="8.429531088862907"><ele>153.66666666666666</ele><time>2026-05-03T09:07:09Z</time></trkpt><trkpt lat="44.96125279489633" lon="8.429540683862028"><ele>154.0</ele><time>2026-05-03T09:07:11Z</time></trkpt><trkpt lat="44.961187317197705" lon="8.429547256928208"><ele>154.33333333333331</ele><time>2026-05-03T09:07:12Z</time></trkpt><trkpt lat="44.961123249853024" lon="8.429577630107508"><ele>154.66666666666666</ele><time>2026-05-03T09:07:13Z</time></trkpt><trkpt lat="44.961059300062715" lon="8.429586512541647"><ele>155.0</ele><time>2026-05-03T09:07:14Z</time></trkpt><trkpt lat="44.96096012476441" lon="8.429583928458593"><ele>155.0</ele><time>2026-05-03T09:07:16Z</time></trkpt><trkpt lat="44.9608804736713" lon="8.429612346346811"><ele>155.0</ele><time>2026-05-03T09:07:18Z</time></trkpt><trkpt lat="44.960820707392145" lon="8.42964102813876"><ele>155.0</ele><time>2026-05-03T09:07:19Z</time></trkpt><trkpt lat="44.96074515817547" lon="8.42967857429024"><ele>155.0</ele><time>2026-05-03T09:07:20Z</time></trkpt><trkpt lat="44.96065679056351" lon="8.429688113673267"><ele>155.0</ele><time>2026-05-03T09:07:21Z</time></trkpt><trkpt lat="44.96056639945439" lon="8.429719056882346"><ele>155.0</ele><time>2026-05-03T09:07:22Z</time></trkpt><trkpt lat="44.96046579319604" lon="8.429754412764373"><ele>153.5</ele><time>2026-05-03T09:07:23Z</time></trkpt><trkpt lat="44.96036012680919" lon="8.42979173697441"><ele>152.0</ele><time>2026-05-03T09:07:24Z</time></trkpt><trkpt lat="44.9602417541794" lon="8.429836702838708"><ele>150.5</ele><time>2026-05-03T09:07:25Z</time></trkpt><trkpt lat="44.9601359225817" lon="8.429875609063561"><ele>149.0</ele><time>2026-05-03T09:07:26Z</time></trkpt><trkpt lat="44.960021962395004" lon="8.429917503452064"><ele>149.0</ele><time>2026-05-03T09:07:27Z</time></trkpt><trkpt lat="44.95990241873586" lon="8.429961450545365"><ele>149.0</ele><time>2026-05-03T09:07:28Z</time></trkpt><trkpt lat="44.95977492208497" lon="8.43002537413669"><ele>149.0</ele><time>2026-05-03T09:07:29Z</time></trkpt><trkpt lat="44.95964492507269" lon="8.43004315448428"><ele>149.0</ele><time>2026-05-03T09:07:30Z</time></trkpt><trkpt lat="44.959514751434064" lon="8.430090866242267"><ele>149.0</ele><time>2026-05-03T09:07:31Z</time></trkpt><trkpt lat="44.9593873953254" lon="8.430138984780966"><ele>149.0</ele><time>2026-05-03T09:07:32Z</time></trkpt><trkpt lat="44.95925950067373" lon="8.43020823462922"><ele>149.0</ele><time>2026-05-03T09:07:33Z</time></trkpt><trkpt lat="44.95914405933322" lon="8.430225293714411"><ele>149.0</ele><time>2026-05-03T09:07:34Z</time></trkpt><trkpt lat="44.959025388979065" lon="8.430272046795402"><ele>148.5</ele><time>2026-05-03T09:07:35Z</time></trkpt><trkpt lat="44.95889904461484" lon="8.430320917277697"><ele>148.0</ele><time>2026-05-03T09:07:36Z</time></trkpt><trkpt lat="44.958767694027806" lon="8.430367718426174"><ele>147.5</ele><time>2026-05-03T09:07:37Z</time></trkpt><trkpt lat="44.958632672509076" lon="8.430421681470653"><ele>147.0</ele><time>2026-05-03T09:07:38Z</time></trkpt><trkpt lat="44.958498326318555" lon="8.430472587197556"><ele>147.0</ele><time>2026-05-03T09:07:39Z</time></trkpt><trkpt lat="44.95836596337403" lon="8.43052744134105"><ele>147.0</ele><time>2026-05-03T09:07:40Z</time></trkpt><trkpt lat="44.95822997208491" lon="8.430576708347251"><ele>147.0</ele><time>2026-05-03T09:07:41Z</time></trkpt><trkpt lat="44.95809213221135" lon="8.430631916631185"><ele>147.0</ele><time>2026-05-03T09:07:42Z</time></trkpt><trkpt lat="44.95795246212797" lon="8.430684385022422"><ele>147.0</ele><time>2026-05-03T09:07:43Z</time></trkpt><trkpt lat="44.95781448257682" lon="8.430731017305778"><ele>147.0</ele><time>2026-05-03T09:07:44Z</time></trkpt><trkpt lat="44.95767359653551" lon="8.430784882162506"><ele>147.0</ele><time>2026-05-03T09:07:45Z</time></trkpt><trkpt lat="44.95753408948396" lon="8.430844863833254"><ele>147.0</ele><time>2026-05-03T09:07:46Z</time></trkpt><trkpt lat="44.9573896922441" lon="8.430900748616493"><ele>146.5</ele><time>2026-05-03T09:07:47Z</time></trkpt><trkpt lat="44.95724515743392" lon="8.430960721707894"><ele>146.0</ele><time>2026-05-03T09:07:48Z</time></trkpt><trkpt lat="44.95710646256991" lon="8.43100507252153"><ele>145.5</ele><time>2026-05-03T09:07:49Z</time></trkpt><trkpt lat="44.95696891949793" lon="8.431055012465935"><ele>145.0</ele><time>2026-05-03T09:07:50Z</time></trkpt><trkpt lat="44.95683163840238" lon="8.431103568633848"><ele>144.66666666666669</ele><time>2026-05-03T09:07:51Z</time></trkpt><trkpt lat="44.95668876100678" lon="8.43116557760857"><ele>144.33333333333334</ele><time>2026-05-03T09:07:52Z</time></trkpt><trkpt lat="44.956544401896885" lon="8.431228691923087"><ele>144.0</ele><time>2026-05-03T09:07:53Z</time></trkpt><trkpt lat="44.95639732204245" lon="8.431288273288125"><ele>143.75</ele><time>2026-05-03T09:07:54Z</time></trkpt><trkpt lat="44.956253946458176" lon="8.43133959192388"><ele>143.5</ele><time>2026-05-03T09:07:55Z</time></trkpt><trkpt lat="44.956112556205774" lon="8.431420298846154"><ele>143.25</ele><time>2026-05-03T09:07:56Z</time></trkpt><trkpt lat="44.955977850117314" lon="8.431500579967762"><ele>143.0</ele><time>2026-05-03T09:07:57Z</time></trkpt><trkpt lat="44.955847387633966" lon="8.431580819432536"><ele>142.75</ele><time>2026-05-03T09:07:58Z</time></trkpt><trkpt lat="44.955717444230196" lon="8.431673197767802"><ele>142.5</ele><time>2026-05-03T09:07:59Z</time></trkpt><trkpt lat="44.955586893305856" lon="8.431779186633785"><ele>142.25</ele><time>2026-05-03T09:08:00Z</time></trkpt><trkpt lat="44.95546163259185" lon="8.431879622294268"><ele>142.0</ele><time>2026-05-03T09:08:01Z</time></trkpt><trkpt lat="44.95533068040095" lon="8.431992596470351"><ele>142.0</ele><time>2026-05-03T09:08:02Z</time></trkpt><trkpt lat="44.95519488817548" lon="8.43210933589944"><ele>142.0</ele><time>2026-05-03T09:08:03Z</time></trkpt><trkpt lat="44.95506098501639" lon="8.4322264520363"><ele>142.0</ele><time>2026-05-03T09:08:04Z</time></trkpt><trkpt lat="44.95492690692864" lon="8.432341948109231"><ele>141.33333333333334</ele><time>2026-05-03T09:08:05Z</time></trkpt><trkpt lat="44.954789686787485" lon="8.432472945103848"><ele>140.66666666666666</ele><time>2026-05-03T09:08:06Z</time></trkpt><trkpt lat="44.954652527836735" lon="8.432605867717186"><ele>140.0</ele><time>2026-05-03T09:08:07Z</time></trkpt><trkpt lat="44.954522880518205" lon="8.432727540582983"><ele>140.0</ele><time>2026-05-03T09:08:08Z</time></trkpt><trkpt lat="44.95438511451039" lon="8.432872758078476"><ele>140.0</ele><time>2026-05-03T09:08:09Z</time></trkpt><trkpt lat="44.954251391619" lon="8.432993480393838"><ele>140.0</ele><time>2026-05-03T09:08:10Z</time></trkpt><trkpt lat="44.95412247418943" lon="8.433107167483929"><ele>140.66666666666666</ele><time>2026-05-03T09:08:11Z</time></trkpt><trkpt lat="44.953994946923416" lon="8.433216760904386"><ele>141.33333333333334</ele><time>2026-05-03T09:08:12Z</time></trkpt><trkpt lat="44.95386624134387" lon="8.43333242606832"><ele>142.0</ele><time>2026-05-03T09:08:13Z</time></trkpt><trkpt lat="44.95373022939645" lon="8.433454116802034"><ele>142.0</ele><time>2026-05-03T09:08:14Z</time></trkpt><trkpt lat="44.95359932202438" lon="8.433563611666854"><ele>142.0</ele><time>2026-05-03T09:08:15Z</time></trkpt><trkpt lat="44.953465045072086" lon="8.43367183829487"><ele>142.0</ele><time>2026-05-03T09:08:16Z</time></trkpt><trkpt lat="44.9533324417999" lon="8.43378065582013"><ele>141.0</ele><time>2026-05-03T09:08:17Z</time></trkpt><trkpt lat="44.953199072255046" lon="8.433889478170368"><ele>140.0</ele><time>2026-05-03T09:08:17.999Z</time></trkpt><trkpt lat="44.95307160516515" lon="8.433988667912953"><ele>139.0</ele><time>2026-05-03T09:08:18.999Z</time></trkpt><trkpt lat="44.952942061763366" lon="8.434093944902363"><ele>138.0</ele><time>2026-05-03T09:08:19.999Z</time></trkpt><trkpt lat="44.952814619426206" lon="8.4342067286926"><ele>138.0</ele><time>2026-05-03T09:08:20.999Z</time></trkpt><trkpt lat="44.95268969635731" lon="8.434317474636305"><ele>138.0</ele><time>2026-05-03T09:08:21.999Z</time></trkpt><trkpt lat="44.9525623885818" lon="8.434423538173064"><ele>138.0</ele><time>2026-05-03T09:08:22.999Z</time></trkpt><trkpt lat="44.95243114666442" lon="8.434524618515209"><ele>138.0</ele><time>2026-05-03T09:08:23.999Z</time></trkpt><trkpt lat="44.95229533695642" lon="8.434624771841069"><ele>139.66666666666666</ele><time>2026-05-03T09:08:24.999Z</time></trkpt><trkpt lat="44.95215455854047" lon="8.434724002129865"><ele>141.33333333333331</ele><time>2026-05-03T09:08:25.999Z</time></trkpt><trkpt lat="44.952008232406946" lon="8.434823664623309"><ele>143.0</ele><time>2026-05-03T09:08:26.999Z</time></trkpt><trkpt lat="44.951863888200826" lon="8.434897731655383"><ele>143.0</ele><time>2026-05-03T09:08:27.999Z</time></trkpt><trkpt lat="44.9517146210245" lon="8.434970734910197"><ele>143.0</ele><time>2026-05-03T09:08:28.999Z</time></trkpt><trkpt lat="44.95156663371128" lon="8.4350286699154"><ele>143.0</ele><time>2026-05-03T09:08:29.999Z</time></trkpt><trkpt lat="44.951423630991776" lon="8.435066293890037"><ele>144.0</ele><time>2026-05-03T09:08:30.999Z</time></trkpt><trkpt lat="44.95127260069008" lon="8.435089157623132"><ele>145.0</ele><time>2026-05-03T09:08:31.999Z</time></trkpt><trkpt lat="44.951122414915915" lon="8.435083706868145"><ele>146.0</ele><time>2026-05-03T09:08:32.999Z</time></trkpt><trkpt lat="44.95096628179178" lon="8.435060325034708"><ele>145.66666666666666</ele><time>2026-05-03T09:08:33.999Z</time></trkpt><trkpt lat="44.950801636380014" lon="8.435023339075698"><ele>145.33333333333334</ele><time>2026-05-03T09:08:34.999Z</time></trkpt><trkpt lat="44.95063594284414" lon="8.434993375306306"><ele>145.0</ele><time>2026-05-03T09:08:35.999Z</time></trkpt><trkpt lat="44.950461214471815" lon="8.434961520320128"><ele>145.0</ele><time>2026-05-03T09:08:36.999Z</time></trkpt><trkpt lat="44.95028061368278" lon="8.434937092051761"><ele>145.0</ele><time>2026-05-03T09:08:37.999Z</time></trkpt><trkpt lat="44.95009076202385" lon="8.434913552952437"><ele>145.0</ele><time>2026-05-03T09:08:38.999Z</time></trkpt><trkpt lat="44.94990123304173" lon="8.434889843017002"><ele>144.33333333333334</ele><time>2026-05-03T09:08:39.999Z</time></trkpt><trkpt lat="44.94970238457826" lon="8.4348518979154"><ele>143.66666666666666</ele><time>2026-05-03T09:08:40.999Z</time></trkpt><trkpt lat="44.94951249191638" lon="8.434804514368608"><ele>143.0</ele><time>2026-05-03T09:08:41.999Z</time></trkpt><trkpt lat="44.94932112131379" lon="8.434761427772408"><ele>142.66666666666666</ele><time>2026-05-03T09:08:42.999Z</time></trkpt><trkpt lat="44.949134775745605" lon="8.434715588177715"><ele>142.33333333333334</ele><time>2026-05-03T09:08:43.999Z</time></trkpt><trkpt lat="44.948949716945286" lon="8.43467472660502"><ele>142.0</ele><time>2026-05-03T09:08:44.999Z</time></trkpt><trkpt lat="44.94876223344247" lon="8.434636321345058"><ele>141.33333333333334</ele><time>2026-05-03T09:08:45.999Z</time></trkpt><trkpt lat="44.9485679216246" lon="8.434603896571"><ele>140.66666666666666</ele><time>2026-05-03T09:08:46.999Z</time></trkpt><trkpt lat="44.948377078011845" lon="8.434565697716046"><ele>140.0</ele><time>2026-05-03T09:08:47.999Z</time></trkpt><trkpt lat="44.94819498414848" lon="8.434531751898367"><ele>139.0</ele><time>2026-05-03T09:08:48.999Z</time></trkpt><trkpt lat="44.94801339707085" lon="8.434496232829998"><ele>138.0</ele><time>2026-05-03T09:08:49.999Z</time></trkpt><trkpt lat="44.947830181296055" lon="8.434460276084238"><ele>137.0</ele><time>2026-05-03T09:08:50.999Z</time></trkpt><trkpt lat="44.947650500805636" lon="8.434421570329965"><ele>135.66666666666666</ele><time>2026-05-03T09:08:51.999Z</time></trkpt><trkpt lat="44.947472090081405" lon="8.43438675391004"><ele>134.33333333333334</ele><time>2026-05-03T09:08:52.999Z</time></trkpt><trkpt lat="44.94729730994627" lon="8.434351225339247"><ele>133.0</ele><time>2026-05-03T09:08:53.999Z</time></trkpt><trkpt lat="44.94711330220349" lon="8.434320609770344"><ele>133.0</ele><time>2026-05-03T09:08:54.999Z</time></trkpt><trkpt lat="44.9469142409887" lon="8.434283571954127"><ele>133.0</ele><time>2026-05-03T09:08:55.999Z</time></trkpt><trkpt lat="44.94671318322469" lon="8.434250848025593"><ele>133.0</ele><time>2026-05-03T09:08:56.999Z</time></trkpt><trkpt lat="44.9465079834675" lon="8.434213996321443"><ele>133.0</ele><time>2026-05-03T09:08:57.999Z</time></trkpt><trkpt lat="44.946298898261574" lon="8.434180214050013"><ele>133.0</ele><time>2026-05-03T09:08:58.999Z</time></trkpt><trkpt lat="44.94608933402427" lon="8.434139530465501"><ele>133.0</ele><time>2026-05-03T09:08:59.999Z</time></trkpt><trkpt lat="44.94587545941344" lon="8.434095690488016"><ele>132.66666666666669</ele><time>2026-05-03T09:09:00.999Z</time></trkpt><trkpt lat="44.94565885073784" lon="8.43404684507521"><ele>132.33333333333334</ele><time>2026-05-03T09:09:01.999Z</time></trkpt><trkpt lat="44.945455385242255" lon="8.4339977927473"><ele>132.0</ele><time>2026-05-03T09:09:02.999Z</time></trkpt><trkpt lat="44.94526168121484" lon="8.433957956476007"><ele>132.0</ele><time>2026-05-03T09:09:04Z</time></trkpt><trkpt lat="44.945072206185365" lon="8.433919663387178"><ele>132.0</ele><time>2026-05-03T09:09:05Z</time></trkpt><trkpt lat="44.94487790658642" lon="8.43391856222461"><ele>132.0</ele><time>2026-05-03T09:09:06Z</time></trkpt><trkpt lat="44.944688551900065" lon="8.433936921597539"><ele>132.0</ele><time>2026-05-03T09:09:07Z</time></trkpt><trkpt lat="44.94449553960826" lon="8.434008983629504"><ele>132.0</ele><time>2026-05-03T09:09:08Z</time></trkpt><trkpt lat="44.94431364434789" lon="8.434101094968865"><ele>132.0</ele><time>2026-05-03T09:09:09Z</time></trkpt><trkpt lat="44.944125668511674" lon="8.4342118075881"><ele>132.0</ele><time>2026-05-03T09:09:10Z</time></trkpt><trkpt lat="44.94394295243402" lon="8.434319079163107"><ele>132.0</ele><time>2026-05-03T09:09:11Z</time></trkpt><trkpt lat="44.943763968322706" lon="8.43443517017315"><ele>132.0</ele><time>2026-05-03T09:09:12Z</time></trkpt><trkpt lat="44.94359829938639" lon="8.434566928069858"><ele>131.33333333333334</ele><time>2026-05-03T09:09:13Z</time></trkpt><trkpt lat="44.94341606921099" lon="8.434731023667505"><ele>130.66666666666669</ele><time>2026-05-03T09:09:14Z</time></trkpt><trkpt lat="44.94323187893577" lon="8.434886538139095"><ele>130.0</ele><time>2026-05-03T09:09:15Z</time></trkpt><trkpt lat="44.943051608604335" lon="8.435047888363965"><ele>131.33333333333334</ele><time>2026-05-03T09:09:16Z</time></trkpt><trkpt lat="44.94285110767517" lon="8.43518484585733"><ele>132.66666666666666</ele><time>2026-05-03T09:09:17Z</time></trkpt><trkpt lat="44.94264970302074" lon="8.435302353210503"><ele>134.0</ele><time>2026-05-03T09:09:18Z</time></trkpt><trkpt lat="44.9424317378214" lon="8.435414280174873"><ele>134.5</ele><time>2026-05-03T09:09:19Z</time></trkpt><trkpt lat="44.94220303240493" lon="8.43552794684195"><ele>135.0</ele><time>2026-05-03T09:09:20Z</time></trkpt><trkpt lat="44.94198526102492" lon="8.435647036220725"><ele>135.0</ele><time>2026-05-03T09:09:21Z</time></trkpt><trkpt lat="44.94178157957658" lon="8.435761096410086"><ele>135.0</ele><time>2026-05-03T09:09:22Z</time></trkpt><trkpt lat="44.94159399956664" lon="8.435882258242374"><ele>135.0</ele><time>2026-05-03T09:09:23Z</time></trkpt><trkpt lat="44.94141030567648" lon="8.435980260900832"><ele>134.66666666666666</ele><time>2026-05-03T09:09:24Z</time></trkpt><trkpt lat="44.941222313201315" lon="8.436072028136474"><ele>134.33333333333331</ele><time>2026-05-03T09:09:25Z</time></trkpt><trkpt lat="44.94103616198284" lon="8.436162570867543"><ele>134.0</ele><time>2026-05-03T09:09:26Z</time></trkpt><trkpt lat="44.94085471335501" lon="8.436245804469428"><ele>133.66666666666666</ele><time>2026-05-03T09:09:27Z</time></trkpt><trkpt lat="44.94068031107619" lon="8.436328030567415"><ele>133.33333333333334</ele><time>2026-05-03T09:09:28Z</time></trkpt><trkpt lat="44.94050649140647" lon="8.436384390502196"><ele>133.0</ele><time>2026-05-03T09:09:29Z</time></trkpt><trkpt lat="44.94032633812338" lon="8.436438767045104"><ele>133.0</ele><time>2026-05-03T09:09:30Z</time></trkpt><trkpt lat="44.9401434520697" lon="8.436495441153498"><ele>133.0</ele><time>2026-05-03T09:09:31Z</time></trkpt><trkpt lat="44.939954363543805" lon="8.436552273174511"><ele>133.0</ele><time>2026-05-03T09:09:32Z</time></trkpt><trkpt lat="44.939761438011274" lon="8.436607673484032"><ele>132.66666666666669</ele><time>2026-05-03T09:09:33Z</time></trkpt><trkpt lat="44.93956564863854" lon="8.43666196131687"><ele>132.33333333333334</ele><time>2026-05-03T09:09:34Z</time></trkpt><trkpt lat="44.93936506353769" lon="8.436725201256857"><ele>132.0</ele><time>2026-05-03T09:09:35Z</time></trkpt><trkpt lat="44.93916782942476" lon="8.43677140251342"><ele>132.0</ele><time>2026-05-03T09:09:36Z</time></trkpt><trkpt lat="44.93896767135118" lon="8.436819705704512"><ele>132.0</ele><time>2026-05-03T09:09:37Z</time></trkpt><trkpt lat="44.9387688356002" lon="8.436867565135705"><ele>132.0</ele><time>2026-05-03T09:09:38Z</time></trkpt><trkpt lat="44.938578535417015" lon="8.436923786054697"><ele>132.33333333333334</ele><time>2026-05-03T09:09:39Z</time></trkpt><trkpt lat="44.938376215172845" lon="8.436987402230418"><ele>132.66666666666669</ele><time>2026-05-03T09:09:40Z</time></trkpt><trkpt lat="44.93817133339439" lon="8.43703205077223"><ele>133.0</ele><time>2026-05-03T09:09:41Z</time></trkpt><trkpt lat="44.93796454058693" lon="8.437048207534186"><ele>133.0</ele><time>2026-05-03T09:09:42Z</time></trkpt><trkpt lat="44.93775836596927" lon="8.437036748940802"><ele>133.0</ele><time>2026-05-03T09:09:43Z</time></trkpt><trkpt lat="44.93754851143797" lon="8.437009225558622"><ele>133.0</ele><time>2026-05-03T09:09:44Z</time></trkpt><trkpt lat="44.93734069949031" lon="8.436973412557068"><ele>132.66666666666669</ele><time>2026-05-03T09:09:45Z</time></trkpt><trkpt lat="44.937137090628575" lon="8.436924764836691"><ele>132.33333333333334</ele><time>2026-05-03T09:09:46Z</time></trkpt><trkpt lat="44.93693303595998" lon="8.43688125842385"><ele>132.0</ele><time>2026-05-03T09:09:47Z</time></trkpt><trkpt lat="44.936721025732844" lon="8.436834347548231"><ele>131.0</ele><time>2026-05-03T09:09:48Z</time></trkpt><trkpt lat="44.93651004282329" lon="8.436790876993625"><ele>130.0</ele><time>2026-05-03T09:09:49Z</time></trkpt><trkpt lat="44.936302352563516" lon="8.436731080593153"><ele>129.0</ele><time>2026-05-03T09:09:50Z</time></trkpt><trkpt lat="44.936093011853025" lon="8.436656294263262"><ele>129.33333333333334</ele><time>2026-05-03T09:09:51Z</time></trkpt><trkpt lat="44.93588420965411" lon="8.43656297624893"><ele>129.66666666666669</ele><time>2026-05-03T09:09:52Z</time></trkpt><trkpt lat="44.93567655167698" lon="8.436460946893673"><ele>130.0</ele><time>2026-05-03T09:09:53Z</time></trkpt><trkpt lat="44.93547797656666" lon="8.43632684440024"><ele>130.0</ele><time>2026-05-03T09:09:54Z</time></trkpt><trkpt lat="44.93527237958779" lon="8.436203725119356"><ele>130.0</ele><time>2026-05-03T09:09:55Z</time></trkpt><trkpt lat="44.93506956710218" lon="8.436078709160416"><ele>130.0</ele><time>2026-05-03T09:09:56Z</time></trkpt><trkpt lat="44.934858322033115" lon="8.435952888765412"><ele>130.0</ele><time>2026-05-03T09:09:57Z</time></trkpt><trkpt lat="44.934651132428215" lon="8.435829483918722"><ele>130.0</ele><time>2026-05-03T09:09:58Z</time></trkpt><trkpt lat="44.93444574588457" lon="8.435705947171552"><ele>130.0</ele><time>2026-05-03T09:09:59Z</time></trkpt><trkpt lat="44.934243848651064" lon="8.435582167438302"><ele>129.33333333333334</ele><time>2026-05-03T09:10:00Z</time></trkpt><trkpt lat="44.93405083714077" lon="8.435463833901718"><ele>128.66666666666666</ele><time>2026-05-03T09:10:01Z</time></trkpt><trkpt lat="44.93386473797889" lon="8.435349731315068"><ele>128.0</ele><time>2026-05-03T09:10:02Z</time></trkpt><trkpt lat="44.933688674166255" lon="8.435241781680741"><ele>128.0</ele><time>2026-05-03T09:10:03Z</time></trkpt><trkpt lat="44.9335053490932" lon="8.4351754334853"><ele>128.0</ele><time>2026-05-03T09:10:04Z</time></trkpt><trkpt lat="44.933331192067904" lon="8.435076581069708"><ele>128.0</ele><time>2026-05-03T09:10:05Z</time></trkpt><trkpt lat="44.933147304722155" lon="8.435001940377141"><ele>128.33333333333331</ele><time>2026-05-03T09:10:06Z</time></trkpt><trkpt lat="44.93296076407636" lon="8.434943969433029"><ele>128.66666666666666</ele><time>2026-05-03T09:10:07Z</time></trkpt><trkpt lat="44.932773649542064" lon="8.434907792066895"><ele>129.0</ele><time>2026-05-03T09:10:08Z</time></trkpt><trkpt lat="44.93259268239461" lon="8.43487522523742"><ele>129.33333333333334</ele><time>2026-05-03T09:10:09Z</time></trkpt><trkpt lat="44.932412515894505" lon="8.434869764548576"><ele>129.66666666666669</ele><time>2026-05-03T09:10:10Z</time></trkpt><trkpt lat="44.93224081308372" lon="8.43488331297004"><ele>130.0</ele><time>2026-05-03T09:10:11Z</time></trkpt><trkpt lat="44.93206547545467" lon="8.434908303061277"><ele>130.0</ele><time>2026-05-03T09:10:12Z</time></trkpt><trkpt lat="44.9318945847689" lon="8.434934436434194"><ele>130.0</ele><time>2026-05-03T09:10:13Z</time></trkpt><trkpt lat="44.931727436122834" lon="8.434966917172488"><ele>130.0</ele><time>2026-05-03T09:10:14Z</time></trkpt><trkpt lat="44.93155976495855" lon="8.43499768345802"><ele>130.66666666666669</ele><time>2026-05-03T09:10:15Z</time></trkpt><trkpt lat="44.931392092424105" lon="8.435024588991585"><ele>131.33333333333334</ele><time>2026-05-03T09:10:16Z</time></trkpt><trkpt lat="44.931227127776594" lon="8.435061399079244"><ele>132.0</ele><time>2026-05-03T09:10:17Z</time></trkpt><trkpt lat="44.931065121077225" lon="8.435101151087997"><ele>132.0</ele><time>2026-05-03T09:10:18Z</time></trkpt><trkpt lat="44.93091474329131" lon="8.435128619589712"><ele>132.0</ele><time>2026-05-03T09:10:19Z</time></trkpt><trkpt lat="44.93075916584539" lon="8.435168087342037"><ele>132.0</ele><time>2026-05-03T09:10:20Z</time></trkpt><trkpt lat="44.93060918267036" lon="8.435199663678052"><ele>131.75</ele><time>2026-05-03T09:10:21Z</time></trkpt><trkpt lat="44.93046448709704" lon="8.435235715150325"><ele>131.5</ele><time>2026-05-03T09:10:22Z</time></trkpt><trkpt lat="44.930323333007436" lon="8.435272234997669"><ele>131.25</ele><time>2026-05-03T09:10:22.999Z</time></trkpt><trkpt lat="44.93017941846331" lon="8.435305757101874"><ele>131.0</ele><time>2026-05-03T09:10:23.999Z</time></trkpt><trkpt lat="44.93003436344742" lon="8.4353359457712"><ele>131.0</ele><time>2026-05-03T09:10:24.999Z</time></trkpt><trkpt lat="44.929876360769065" lon="8.435362714563453"><ele>131.0</ele><time>2026-05-03T09:10:25.999Z</time></trkpt><trkpt lat="44.92970652487324" lon="8.435398447228067"><ele>131.0</ele><time>2026-05-03T09:10:26.999Z</time></trkpt><trkpt lat="44.92953187840282" lon="8.435435069087525"><ele>130.33333333333331</ele><time>2026-05-03T09:10:27.999Z</time></trkpt><trkpt lat="44.92935248846679" lon="8.435472757495054"><ele>129.66666666666666</ele><time>2026-05-03T09:10:28.999Z</time></trkpt><trkpt lat="44.929170480998295" lon="8.435514415525173"><ele>129.0</ele><time>2026-05-03T09:10:29.999Z</time></trkpt><trkpt lat="44.92898523226841" lon="8.43555917255165"><ele>129.0</ele><time>2026-05-03T09:10:30.999Z</time></trkpt><trkpt lat="44.928795932951324" lon="8.43560098635618"><ele>129.0</ele><time>2026-05-03T09:10:31.999Z</time></trkpt><trkpt lat="44.928602412769756" lon="8.435639199468316"><ele>129.0</ele><time>2026-05-03T09:10:32.999Z</time></trkpt><trkpt lat="44.9284021890865" lon="8.435687761845553"><ele>128.33333333333334</ele><time>2026-05-03T09:10:33.999Z</time></trkpt><trkpt lat="44.92820476022714" lon="8.435739753417815"><ele>127.66666666666667</ele><time>2026-05-03T09:10:34.999Z</time></trkpt><trkpt lat="44.928001094708236" lon="8.435785445214604"><ele>127.0</ele><time>2026-05-03T09:10:35.999Z</time></trkpt><trkpt lat="44.927798563425405" lon="8.435827476487818"><ele>127.0</ele><time>2026-05-03T09:10:36.999Z</time></trkpt><trkpt lat="44.92759897425458" lon="8.435869255108898"><ele>127.0</ele><time>2026-05-03T09:10:37.999Z</time></trkpt><trkpt lat="44.92741436656061" lon="8.435912052719848"><ele>127.0</ele><time>2026-05-03T09:10:38.999Z</time></trkpt><trkpt lat="44.927233712159946" lon="8.435954425241066"><ele>127.66666666666667</ele><time>2026-05-03T09:10:39.999Z</time></trkpt><trkpt lat="44.92705259660458" lon="8.435991880478992"><ele>128.33333333333334</ele><time>2026-05-03T09:10:40.999Z</time></trkpt><trkpt lat="44.926862764736164" lon="8.43601411773205"><ele>129.0</ele><time>2026-05-03T09:10:41.999Z</time></trkpt><trkpt lat="44.926670129943595" lon="8.435986321055763"><ele>127.66666666666666</ele><time>2026-05-03T09:10:42.999Z</time></trkpt><trkpt lat="44.92648806516954" lon="8.43592869569257"><ele>126.33333333333333</ele><time>2026-05-03T09:10:43.999Z</time></trkpt><trkpt lat="44.926310534857144" lon="8.43584093209278"><ele>125.0</ele><time>2026-05-03T09:10:44.999Z</time></trkpt><trkpt lat="44.92614994761068" lon="8.43574943746117"><ele>125.0</ele><time>2026-05-03T09:10:45.999Z</time></trkpt><trkpt lat="44.92600575101521" lon="8.435623579440003"><ele>125.0</ele><time>2026-05-03T09:10:46.999Z</time></trkpt><trkpt lat="44.925870972486564" lon="8.435503274013918"><ele>125.0</ele><time>2026-05-03T09:10:47.999Z</time></trkpt><trkpt lat="44.925739304931376" lon="8.435390159402436"><ele>125.0</ele><time>2026-05-03T09:10:48.999Z</time></trkpt><trkpt lat="44.925602098988705" lon="8.435283397251586"><ele>125.0</ele><time>2026-05-03T09:10:49.999Z</time></trkpt><trkpt lat="44.925467144013346" lon="8.435192328250052"><ele>125.0</ele><time>2026-05-03T09:10:50.999Z</time></trkpt><trkpt lat="44.92533112024496" lon="8.435110376735494"><ele>125.0</ele><time>2026-05-03T09:10:51.999Z</time></trkpt><trkpt lat="44.92518980079633" lon="8.435034017099378"><ele>125.0</ele><time>2026-05-03T09:10:52.999Z</time></trkpt><trkpt lat="44.925050107096666" lon="8.434973911434772"><ele>125.0</ele><time>2026-05-03T09:10:53.999Z</time></trkpt><trkpt lat="44.92492061309626" lon="8.434919070724536"><ele>125.0</ele><time>2026-05-03T09:10:54.999Z</time></trkpt><trkpt lat="44.92478541090178" lon="8.434873949299343"><ele>125.0</ele><time>2026-05-03T09:10:55.999Z</time></trkpt><trkpt lat="44.92464364392939" lon="8.434840805461828"><ele>125.0</ele><time>2026-05-03T09:10:56.999Z</time></trkpt><trkpt lat="44.924485294048246" lon="8.43483206782673"><ele>125.0</ele><time>2026-05-03T09:10:57.999Z</time></trkpt><trkpt lat="44.92431264350664" lon="8.43484641287778"><ele>125.0</ele><time>2026-05-03T09:10:58.999Z</time></trkpt><trkpt lat="44.924129109446696" lon="8.43485156869868"><ele>125.0</ele><time>2026-05-03T09:10:59.999Z</time></trkpt><trkpt lat="44.92393184937407" lon="8.434858040073529"><ele>125.0</ele><time>2026-05-03T09:11:00.999Z</time></trkpt><trkpt lat="44.923724875690816" lon="8.43486357838931"><ele>125.0</ele><time>2026-05-03T09:11:01.999Z</time></trkpt><trkpt lat="44.92352617819597" lon="8.434872827173775"><ele>125.0</ele><time>2026-05-03T09:11:02.999Z</time></trkpt><trkpt lat="44.923319061441845" lon="8.434866706025714"><ele>125.0</ele><time>2026-05-03T09:11:03.999Z</time></trkpt><trkpt lat="44.92309927099662" lon="8.43487346833481"><ele>124.0</ele><time>2026-05-03T09:11:04.999Z</time></trkpt><trkpt lat="44.922876163608564" lon="8.434873736184898"><ele>123.0</ele><time>2026-05-03T09:11:05.999Z</time></trkpt><trkpt lat="44.92264344864729" lon="8.434867806278328"><ele>121.5</ele><time>2026-05-03T09:11:06.999Z</time></trkpt><trkpt lat="44.92240340747166" lon="8.43485455751636"><ele>120.0</ele><time>2026-05-03T09:11:07.999Z</time></trkpt><trkpt lat="44.922171267470475" lon="8.434851932381186"><ele>120.0</ele><time>2026-05-03T09:11:08.999Z</time></trkpt><trkpt lat="44.9219336504916" lon="8.434856981639802"><ele>120.0</ele><time>2026-05-03T09:11:10Z</time></trkpt><trkpt lat="44.921696171150806" lon="8.434853202711869"><ele>118.0</ele><time>2026-05-03T09:11:11Z</time></trkpt><trkpt lat="44.92146326516834" lon="8.434853859188538"><ele>116.0</ele><time>2026-05-03T09:11:12Z</time></trkpt><trkpt lat="44.921232491376976" lon="8.434862852551905"><ele>116.0</ele><time>2026-05-03T09:11:13Z</time></trkpt><trkpt lat="44.92100508683399" lon="8.434849962829167"><ele>116.0</ele><time>2026-05-03T09:11:14Z</time></trkpt><trkpt lat="44.92076619432076" lon="8.43487419746077"><ele>116.5</ele><time>2026-05-03T09:11:15Z</time></trkpt><trkpt lat="44.92053510409035" lon="8.434856496104656"><ele>117.0</ele><time>2026-05-03T09:11:16Z</time></trkpt><trkpt lat="44.92030661482013" lon="8.434860808431184"><ele>117.0</ele><time>2026-05-03T09:11:17Z</time></trkpt><trkpt lat="44.920078044746155" lon="8.43486512228776"><ele>117.0</ele><time>2026-05-03T09:11:18Z</time></trkpt><trkpt lat="44.91985444143243" lon="8.43486934240248"><ele>117.5</ele><time>2026-05-03T09:11:19Z</time></trkpt><trkpt lat="44.91962516888522" lon="8.434874930057564"><ele>118.0</ele><time>2026-05-03T09:11:20Z</time></trkpt><trkpt lat="44.91940098042844" lon="8.434882128767956"><ele>116.66666666666667</ele><time>2026-05-03T09:11:21Z</time></trkpt><trkpt lat="44.91918198480085" lon="8.434890975045917"><ele>115.33333333333334</ele><time>2026-05-03T09:11:22Z</time></trkpt><trkpt lat="44.91896248136416" lon="8.434907462384398"><ele>114.0</ele><time>2026-05-03T09:11:23Z</time></trkpt><trkpt lat="44.91875224530485" lon="8.434957050240142"><ele>114.0</ele><time>2026-05-03T09:11:24Z</time></trkpt><trkpt lat="44.91854519808341" lon="8.43504318871304"><ele>114.0</ele><time>2026-05-03T09:11:25Z</time></trkpt><trkpt lat="44.91835842427393" lon="8.435164357165053"><ele>114.0</ele><time>2026-05-03T09:11:26Z</time></trkpt><trkpt lat="44.91816877872435" lon="8.435322700148733"><ele>112.0</ele><time>2026-05-03T09:11:27Z</time></trkpt><trkpt lat="44.91798029649245" lon="8.435484730534997"><ele>110.0</ele><time>2026-05-03T09:11:28Z</time></trkpt><trkpt lat="44.917785551105396" lon="8.435657337247509"><ele>110.0</ele><time>2026-05-03T09:11:29Z</time></trkpt><trkpt lat="44.91758835969668" lon="8.43583689683102"><ele>110.0</ele><time>2026-05-03T09:11:30Z</time></trkpt><trkpt lat="44.91739526757627" lon="8.436019600610866"><ele>111.5</ele><time>2026-05-03T09:11:31Z</time></trkpt><trkpt lat="44.917213305155656" lon="8.436202675411552"><ele>113.0</ele><time>2026-05-03T09:11:32Z</time></trkpt><trkpt lat="44.917034283959666" lon="8.436415784367316"><ele>113.0</ele><time>2026-05-03T09:11:33Z</time></trkpt><trkpt lat="44.91688419929233" lon="8.43667176478495"><ele>113.0</ele><time>2026-05-03T09:11:34Z</time></trkpt><trkpt lat="44.91671525480682" lon="8.436897015280964"><ele>113.33333333333333</ele><time>2026-05-03T09:11:35Z</time></trkpt><trkpt lat="44.9165692332074" lon="8.437104136835671"><ele>113.66666666666666</ele><time>2026-05-03T09:11:36Z</time></trkpt><trkpt lat="44.91641422562704" lon="8.437291155175853"><ele>114.0</ele><time>2026-05-03T09:11:37Z</time></trkpt><trkpt lat="44.91624582552725" lon="8.43744893446549"><ele>114.0</ele><time>2026-05-03T09:11:38Z</time></trkpt><trkpt lat="44.91604898978855" lon="8.437508768098608"><ele>114.0</ele><time>2026-05-03T09:11:39Z</time></trkpt><trkpt lat="44.91586322755481" lon="8.437590254690681"><ele>114.0</ele><time>2026-05-03T09:11:40Z</time></trkpt><trkpt lat="44.915672659198314" lon="8.437667744135963"><ele>115.0</ele><time>2026-05-03T09:11:41Z</time></trkpt><trkpt lat="44.915481742876594" lon="8.43774777048606"><ele>116.0</ele><time>2026-05-03T09:11:42Z</time></trkpt><trkpt lat="44.915294310491205" lon="8.437816952942276"><ele>117.0</ele><time>2026-05-03T09:11:43Z</time></trkpt><trkpt lat="44.915104187775476" lon="8.43787373977362"><ele>116.66666666666666</ele><time>2026-05-03T09:11:44Z</time></trkpt><trkpt lat="44.91490590501381" lon="8.437917869654255"><ele>116.33333333333333</ele><time>2026-05-03T09:11:45Z</time></trkpt><trkpt lat="44.91470394123582" lon="8.437946040787281"><ele>116.0</ele><time>2026-05-03T09:11:46Z</time></trkpt><trkpt lat="44.914498893181396" lon="8.437948912196898"><ele>116.0</ele><time>2026-05-03T09:11:47Z</time></trkpt><trkpt lat="44.9142883041749" lon="8.437936230164707"><ele>116.0</ele><time>2026-05-03T09:11:48Z</time></trkpt><trkpt lat="44.91407845738054" lon="8.437940660648145"><ele>116.0</ele><time>2026-05-03T09:11:49Z</time></trkpt><trkpt lat="44.91386455116832" lon="8.43791350180417"><ele>116.0</ele><time>2026-05-03T09:11:50Z</time></trkpt><trkpt lat="44.91364672891612" lon="8.437887409892415"><ele>116.0</ele><time>2026-05-03T09:11:51Z</time></trkpt><trkpt lat="44.913433865039316" lon="8.43787324816943"><ele>116.0</ele><time>2026-05-03T09:11:52Z</time></trkpt><trkpt lat="44.91322022052919" lon="8.437866954801361"><ele>115.66666666666666</ele><time>2026-05-03T09:11:53Z</time></trkpt><trkpt lat="44.91300457582268" lon="8.437873272867025"><ele>115.33333333333334</ele><time>2026-05-03T09:11:54Z</time></trkpt><trkpt lat="44.91278972960328" lon="8.437888378408106"><ele>115.0</ele><time>2026-05-03T09:11:55Z</time></trkpt><trkpt lat="44.91258000051762" lon="8.437906790004533"><ele>114.0</ele><time>2026-05-03T09:11:56Z</time></trkpt><trkpt lat="44.91236820517117" lon="8.437926368995482"><ele>113.0</ele><time>2026-05-03T09:11:57Z</time></trkpt><trkpt lat="44.91214797028606" lon="8.437943542485426"><ele>112.0</ele><time>2026-05-03T09:11:58Z</time></trkpt><trkpt lat="44.91192139069295" lon="8.437952290527766"><ele>112.5</ele><time>2026-05-03T09:11:59Z</time></trkpt><trkpt lat="44.91168553221399" lon="8.43796139664294"><ele>113.0</ele><time>2026-05-03T09:12:00Z</time></trkpt><trkpt lat="44.91145244919956" lon="8.437986321654714"><ele>113.0</ele><time>2026-05-03T09:12:01Z</time></trkpt><trkpt lat="44.911231756833175" lon="8.437969884827389"><ele>113.0</ele><time>2026-05-03T09:12:02Z</time></trkpt><trkpt lat="44.91101081483276" lon="8.43796976787249"><ele>113.0</ele><time>2026-05-03T09:12:03Z</time></trkpt><trkpt lat="44.91079681029991" lon="8.43798962017498"><ele>113.0</ele><time>2026-05-03T09:12:04Z</time></trkpt><trkpt lat="44.91058647197489" lon="8.438022250579545"><ele>113.0</ele><time>2026-05-03T09:12:05Z</time></trkpt><trkpt lat="44.91036982776495" lon="8.438101550036814"><ele>113.0</ele><time>2026-05-03T09:12:06Z</time></trkpt><trkpt lat="44.91016215393021" lon="8.438198297037534"><ele>113.0</ele><time>2026-05-03T09:12:07Z</time></trkpt><trkpt lat="44.90996031699029" lon="8.438298107320312"><ele>113.0</ele><time>2026-05-03T09:12:08Z</time></trkpt><trkpt lat="44.90975844288053" lon="8.438402923759893"><ele>113.0</ele><time>2026-05-03T09:12:09Z</time></trkpt><trkpt lat="44.9095589772556" lon="8.438499942578508"><ele>113.0</ele><time>2026-05-03T09:12:10Z</time></trkpt><trkpt lat="44.90935950219998" lon="8.438595806095588"><ele>113.0</ele><time>2026-05-03T09:12:11Z</time></trkpt><trkpt lat="44.909156421255" lon="8.438673956302322"><ele>113.0</ele><time>2026-05-03T09:12:12Z</time></trkpt><trkpt lat="44.90894591268141" lon="8.4387188874048"><ele>113.0</ele><time>2026-05-03T09:12:13Z</time></trkpt><trkpt lat="44.908735272313685" lon="8.438715193620315"><ele>113.0</ele><time>2026-05-03T09:12:14Z</time></trkpt><trkpt lat="44.908530533594" lon="8.438699629983724"><ele>113.0</ele><time>2026-05-03T09:12:15Z</time></trkpt><trkpt lat="44.90833387385629" lon="8.438706918290443"><ele>113.33333333333333</ele><time>2026-05-03T09:12:16Z</time></trkpt><trkpt lat="44.90813298521876" lon="8.438736788517133"><ele>113.66666666666666</ele><time>2026-05-03T09:12:17Z</time></trkpt><trkpt lat="44.907934960362546" lon="8.438788717077083"><ele>114.0</ele><time>2026-05-03T09:12:18Z</time></trkpt><trkpt lat="44.907735996223025" lon="8.438860053980031"><ele>113.33333333333334</ele><time>2026-05-03T09:12:19Z</time></trkpt><trkpt lat="44.90753117124653" lon="8.438930485541544"><ele>112.66666666666667</ele><time>2026-05-03T09:12:20Z</time></trkpt><trkpt lat="44.90733162375168" lon="8.439003822580997"><ele>112.0</ele><time>2026-05-03T09:12:21Z</time></trkpt><trkpt lat="44.90713575943931" lon="8.439068421598236"><ele>112.0</ele><time>2026-05-03T09:12:22Z</time></trkpt><trkpt lat="44.90693547460268" lon="8.439135438039191"><ele>112.0</ele><time>2026-05-03T09:12:23Z</time></trkpt><trkpt lat="44.90673334220633" lon="8.439203883401731"><ele>112.0</ele><time>2026-05-03T09:12:24Z</time></trkpt><trkpt lat="44.90652921360006" lon="8.43928116979644"><ele>112.33333333333334</ele><time>2026-05-03T09:12:25Z</time></trkpt><trkpt lat="44.906320036330634" lon="8.439355942501114"><ele>112.66666666666666</ele><time>2026-05-03T09:12:26Z</time></trkpt><trkpt lat="44.906113556400406" lon="8.439427780048062"><ele>113.0</ele><time>2026-05-03T09:12:27Z</time></trkpt><trkpt lat="44.90590146444671" lon="8.439478895408541"><ele>112.33333333333333</ele><time>2026-05-03T09:12:28Z</time></trkpt><trkpt lat="44.90568785981542" lon="8.43951448267183"><ele>111.66666666666666</ele><time>2026-05-03T09:12:28.999Z</time></trkpt><trkpt lat="44.90547315427461" lon="8.439514025971638"><ele>111.0</ele><time>2026-05-03T09:12:29.999Z</time></trkpt><trkpt lat="44.905259669430414" lon="8.439499297778312"><ele>109.66666666666666</ele><time>2026-05-03T09:12:30.999Z</time></trkpt><trkpt lat="44.90504538245868" lon="8.439483658994067"><ele>108.33333333333333</ele><time>2026-05-03T09:12:31.999Z</time></trkpt><trkpt lat="44.90483466452678" lon="8.439442217652422"><ele>107.0</ele><time>2026-05-03T09:12:32.999Z</time></trkpt><trkpt lat="44.904620509374325" lon="8.439418088821661"><ele>107.0</ele><time>2026-05-03T09:12:33.999Z</time></trkpt><trkpt lat="44.90440785699617" lon="8.439391187016323"><ele>107.0</ele><time>2026-05-03T09:12:34.999Z</time></trkpt><trkpt lat="44.90419557309072" lon="8.439363084325686"><ele>107.0</ele><time>2026-05-03T09:12:35.999Z</time></trkpt><trkpt lat="44.903974980800484" lon="8.439342049377277"><ele>108.33333333333333</ele><time>2026-05-03T09:12:36.999Z</time></trkpt><trkpt lat="44.903777842505576" lon="8.439324002838342"><ele>109.66666666666666</ele><time>2026-05-03T09:12:37.999Z</time></trkpt><trkpt lat="44.903585476309516" lon="8.439300965525586"><ele>111.0</ele><time>2026-05-03T09:12:38.999Z</time></trkpt><trkpt lat="44.90338611295739" lon="8.439291619960395"><ele>111.66666666666666</ele><time>2026-05-03T09:12:39.999Z</time></trkpt><trkpt lat="44.90319445505767" lon="8.439283517484942"><ele>112.33333333333333</ele><time>2026-05-03T09:12:40.999Z</time></trkpt><trkpt lat="44.90301605424564" lon="8.439271178341551"><ele>113.0</ele><time>2026-05-03T09:12:41.999Z</time></trkpt><trkpt lat="44.90284298785863" lon="8.439264270371407"><ele>113.0</ele><time>2026-05-03T09:12:42.999Z</time></trkpt><trkpt lat="44.902668660861075" lon="8.439250424982935"><ele>113.0</ele><time>2026-05-03T09:12:43.999Z</time></trkpt><trkpt lat="44.902492163799174" lon="8.439226736315906"><ele>113.0</ele><time>2026-05-03T09:12:44.999Z</time></trkpt><trkpt lat="44.90232994878777" lon="8.439195600079712"><ele>113.33333333333333</ele><time>2026-05-03T09:12:45.999Z</time></trkpt><trkpt lat="44.90216680022472" lon="8.43916278034302"><ele>113.66666666666666</ele><time>2026-05-03T09:12:46.999Z</time></trkpt><trkpt lat="44.90199826400558" lon="8.439129712165839"><ele>114.0</ele><time>2026-05-03T09:12:47.999Z</time></trkpt><trkpt lat="44.90181803617541" lon="8.43909629621889"><ele>113.66666666666666</ele><time>2026-05-03T09:12:48.999Z</time></trkpt><trkpt lat="44.901655137201296" lon="8.439049100455534"><ele>113.33333333333333</ele><time>2026-05-03T09:12:49.999Z</time></trkpt><trkpt lat="44.90149407985886" lon="8.438997285873436"><ele>113.0</ele><time>2026-05-03T09:12:50.999Z</time></trkpt><trkpt lat="44.90134593085667" lon="8.438943469289262"><ele>113.0</ele><time>2026-05-03T09:12:51.999Z</time></trkpt><trkpt lat="44.90121569184866" lon="8.438885632274456"><ele>113.00000000000001</ele><time>2026-05-03T09:12:52.999Z</time></trkpt><trkpt lat="44.90110656996423" lon="8.438835171307264"><ele>113.00000000000001</ele><time>2026-05-03T09:12:53.999Z</time></trkpt><trkpt lat="44.901034024870405" lon="8.43876602295182"><ele>113.0</ele><time>2026-05-03T09:12:54.999Z</time></trkpt><trkpt lat="44.90097422610673" lon="8.438683980726482"><ele>113.0</ele><time>2026-05-03T09:12:55.999Z</time></trkpt><trkpt lat="44.90093118532693" lon="8.438578901081394"><ele>112.66666666666666</ele><time>2026-05-03T09:12:56.999Z</time></trkpt><trkpt lat="44.90087850957436" lon="8.438485399059031"><ele>112.33333333333333</ele><time>2026-05-03T09:12:57.999Z</time></trkpt><trkpt lat="44.90080202168152" lon="8.438462608508631"><ele>112.0</ele><time>2026-05-03T09:12:58.999Z</time></trkpt><trkpt lat="44.900731204999616" lon="8.438504400555177"><ele>111.66666666666666</ele><time>2026-05-03T09:12:59.999Z</time></trkpt><trkpt lat="44.90068168577253" lon="8.438597968820547"><ele>111.33333333333333</ele><time>2026-05-03T09:13:00.999Z</time></trkpt><trkpt lat="44.90066515775081" lon="8.438727609039265"><ele>111.0</ele><time>2026-05-03T09:13:01.999Z</time></trkpt><trkpt lat="44.900693918998336" lon="8.43886955600463"><ele>111.0</ele><time>2026-05-03T09:13:02.999Z</time></trkpt><trkpt lat="44.900723651324164" lon="8.439043132122274"><ele>111.0</ele><time>2026-05-03T09:13:03.999Z</time></trkpt><trkpt lat="44.90069794539093" lon="8.439246979454735"><ele>111.0</ele><time>2026-05-03T09:13:04.999Z</time></trkpt><trkpt lat="44.90066541277657" lon="8.439462082952925"><ele>111.0</ele><time>2026-05-03T09:13:05.999Z</time></trkpt><trkpt lat="44.90063736209492" lon="8.439676839708662"><ele>110.33333333333334</ele><time>2026-05-03T09:13:06.999Z</time></trkpt><trkpt lat="44.90060922166965" lon="8.439906117258525"><ele>109.66666666666667</ele><time>2026-05-03T09:13:07.999Z</time></trkpt><trkpt lat="44.90057661498217" lon="8.44016641229656"><ele>109.0</ele><time>2026-05-03T09:13:08.999Z</time></trkpt><trkpt lat="44.90054764145885" lon="8.440410743516304"><ele>109.33333333333334</ele><time>2026-05-03T09:13:09.999Z</time></trkpt><trkpt lat="44.90051550859216" lon="8.440677941122319"><ele>109.66666666666666</ele><time>2026-05-03T09:13:10.999Z</time></trkpt><trkpt lat="44.90047637700679" lon="8.440953622034362"><ele>110.0</ele><time>2026-05-03T09:13:11.999Z</time></trkpt><trkpt lat="44.90044526801794" lon="8.441238390820692"><ele>110.0</ele><time>2026-05-03T09:13:12.999Z</time></trkpt><trkpt lat="44.9004110221293" lon="8.441518799763251"><ele>110.0</ele><time>2026-05-03T09:13:13.999Z</time></trkpt><trkpt lat="44.900376218337755" lon="8.441796927216929"><ele>110.0</ele><time>2026-05-03T09:13:14.999Z</time></trkpt><trkpt lat="44.900343507752154" lon="8.442063220871402"><ele>109.0</ele><time>2026-05-03T09:13:16Z</time></trkpt><trkpt lat="44.900306407541514" lon="8.442322751390058"><ele>108.0</ele><time>2026-05-03T09:13:17Z</time></trkpt><trkpt lat="44.90027725394123" lon="8.442577843037295"><ele>107.0</ele><time>2026-05-03T09:13:18Z</time></trkpt><trkpt lat="44.900241284943384" lon="8.442837222602334"><ele>107.33333333333333</ele><time>2026-05-03T09:13:19Z</time></trkpt><trkpt lat="44.90021418707026" lon="8.443092875100502"><ele>107.66666666666666</ele><time>2026-05-03T09:13:20Z</time></trkpt><trkpt lat="44.90018557127359" lon="8.443340523523513"><ele>108.0</ele><time>2026-05-03T09:13:21Z</time></trkpt><trkpt lat="44.90016281894056" lon="8.443587108573864"><ele>108.66666666666666</ele><time>2026-05-03T09:13:22Z</time></trkpt><trkpt lat="44.9001431662969" lon="8.44384140276873"><ele>109.33333333333333</ele><time>2026-05-03T09:13:23Z</time></trkpt><trkpt lat="44.90012384455203" lon="8.444096683895618"><ele>110.0</ele><time>2026-05-03T09:13:24Z</time></trkpt><trkpt lat="44.90010976546003" lon="8.444360989694195"><ele>108.66666666666666</ele><time>2026-05-03T09:13:25Z</time></trkpt><trkpt lat="44.90012550832383" lon="8.444632107518899"><ele>107.33333333333334</ele><time>2026-05-03T09:13:26Z</time></trkpt><trkpt lat="44.90015786100727" lon="8.444889011762783"><ele>106.0</ele><time>2026-05-03T09:13:27Z</time></trkpt><trkpt lat="44.90020239147065" lon="8.445145171209196"><ele>106.0</ele><time>2026-05-03T09:13:28Z</time></trkpt><trkpt lat="44.900260712250095" lon="8.44539995386345"><ele>106.0</ele><time>2026-05-03T09:13:29Z</time></trkpt><trkpt lat="44.9003345380731" lon="8.445644899583577"><ele>106.0</ele><time>2026-05-03T09:13:30Z</time></trkpt><trkpt lat="44.900411720693064" lon="8.445880020051595"><ele>106.0</ele><time>2026-05-03T09:13:31Z</time></trkpt><trkpt lat="44.90049013985447" lon="8.446118262167618"><ele>106.0</ele><time>2026-05-03T09:13:32Z</time></trkpt><trkpt lat="44.9005695014297" lon="8.446351549883126"><ele>106.0</ele><time>2026-05-03T09:13:33Z</time></trkpt><trkpt lat="44.9006456492594" lon="8.446584067938813"><ele>105.66666666666667</ele><time>2026-05-03T09:13:34Z</time></trkpt><trkpt lat="44.90071877104509" lon="8.446800964286723"><ele>105.33333333333334</ele><time>2026-05-03T09:13:35Z</time></trkpt><trkpt lat="44.90078482711606" lon="8.447012073935626"><ele>105.0</ele><time>2026-05-03T09:13:36Z</time></trkpt><trkpt lat="44.90085214167385" lon="8.447220243265757"><ele>104.0</ele><time>2026-05-03T09:13:37Z</time></trkpt><trkpt lat="44.900918339571334" lon="8.447430957354818"><ele>103.0</ele><time>2026-05-03T09:13:38Z</time></trkpt><trkpt lat="44.90098732575848" lon="8.447635441252634"><ele>102.0</ele><time>2026-05-03T09:13:39Z</time></trkpt><trkpt lat="44.901050226134906" lon="8.447825199040167"><ele>102.25</ele><time>2026-05-03T09:13:40Z</time></trkpt><trkpt lat="44.901111247097795" lon="8.448009290408327"><ele>102.5</ele><time>2026-05-03T09:13:41Z</time></trkpt><trkpt lat="44.90117076058152" lon="8.448189136111193"><ele>102.75</ele><time>2026-05-03T09:13:42Z</time></trkpt><trkpt lat="44.90123003873936" lon="8.448353481130848"><ele>103.0</ele><time>2026-05-03T09:13:43Z</time></trkpt><trkpt lat="44.9012890850676" lon="8.448512276793291"><ele>103.0</ele><time>2026-05-03T09:13:44Z</time></trkpt><trkpt lat="44.901324901202095" lon="8.448660980976662"><ele>103.0</ele><time>2026-05-03T09:13:45Z</time></trkpt><trkpt lat="44.90133512365721" lon="8.448800194105994"><ele>103.0</ele><time>2026-05-03T09:13:46Z</time></trkpt><trkpt lat="44.90129056914745" lon="8.448907075940909"><ele>103.0</ele><time>2026-05-03T09:13:47Z</time></trkpt><trkpt lat="44.90122935815028" lon="8.44901997511012"><ele>103.0</ele><time>2026-05-03T09:13:48Z</time></trkpt><trkpt lat="44.90112994186746" lon="8.449077960237922"><ele>103.0</ele><time>2026-05-03T09:13:49Z</time></trkpt><trkpt lat="44.9009986575565" lon="8.449108865199783"><ele>103.0</ele><time>2026-05-03T09:13:50Z</time></trkpt><trkpt lat="44.90084728221451" lon="8.44915917205566"><ele>103.0</ele><time>2026-05-03T09:13:51Z</time></trkpt><trkpt lat="44.90069049948027" lon="8.44921615043435"><ele>101.66666666666667</ele><time>2026-05-03T09:13:52Z</time></trkpt><trkpt lat="44.90052243970015" lon="8.449263372445207"><ele>100.33333333333334</ele><time>2026-05-03T09:13:53Z</time></trkpt><trkpt lat="44.90032945868795" lon="8.44929485973525"><ele>99.0</ele><time>2026-05-03T09:13:54Z</time></trkpt><trkpt lat="44.900128026679866" lon="8.449353244097033"><ele>99.33333333333334</ele><time>2026-05-03T09:13:55Z</time></trkpt><trkpt lat="44.899929568558015" lon="8.449411887465228"><ele>99.66666666666667</ele><time>2026-05-03T09:13:56Z</time></trkpt><trkpt lat="44.89971219837089" lon="8.449474526955992"><ele>100.0</ele><time>2026-05-03T09:13:57Z</time></trkpt><trkpt lat="44.899486718611705" lon="8.449534617871173"><ele>100.0</ele><time>2026-05-03T09:13:58Z</time></trkpt><trkpt lat="44.8992543517825" lon="8.449596544204645"><ele>100.0</ele><time>2026-05-03T09:13:59Z</time></trkpt><trkpt lat="44.89902690702131" lon="8.449657436620441"><ele>100.5</ele><time>2026-05-03T09:14:00Z</time></trkpt><trkpt lat="44.898804724682236" lon="8.44971753201257"><ele>101.0</ele><time>2026-05-03T09:14:01Z</time></trkpt><trkpt lat="44.89858314481584" lon="8.44978421551905"><ele>100.33333333333333</ele><time>2026-05-03T09:14:02Z</time></trkpt><trkpt lat="44.89836980944053" lon="8.44986808012479"><ele>99.66666666666666</ele><time>2026-05-03T09:14:03Z</time></trkpt><trkpt lat="44.89816202618407" lon="8.449973045713213"><ele>99.0</ele><time>2026-05-03T09:14:04Z</time></trkpt><trkpt lat="44.89795944098775" lon="8.450086255982589"><ele>99.0</ele><time>2026-05-03T09:14:05Z</time></trkpt><trkpt lat="44.89775782006787" lon="8.45020561792381"><ele>99.0</ele><time>2026-05-03T09:14:06Z</time></trkpt><trkpt lat="44.89756052264533" lon="8.450322420304675"><ele>99.0</ele><time>2026-05-03T09:14:07Z</time></trkpt><trkpt lat="44.897368294347956" lon="8.450435376308825"><ele>98.66666666666666</ele><time>2026-05-03T09:14:08Z</time></trkpt><trkpt lat="44.897181607621995" lon="8.450542681029109"><ele>98.33333333333333</ele><time>2026-05-03T09:14:09Z</time></trkpt><trkpt lat="44.89699917259199" lon="8.45062441419526"><ele>98.0</ele><time>2026-05-03T09:14:10Z</time></trkpt><trkpt lat="44.8968214740149" lon="8.450675016774422"><ele>97.66666666666666</ele><time>2026-05-03T09:14:11Z</time></trkpt><trkpt lat="44.896650133746284" lon="8.450684077531145"><ele>97.33333333333334</ele><time>2026-05-03T09:14:12Z</time></trkpt><trkpt lat="44.896488044086844" lon="8.450655031375632"><ele>97.0</ele><time>2026-05-03T09:14:13Z</time></trkpt><trkpt lat="44.89633739785824" lon="8.450591916919755"><ele>97.0</ele><time>2026-05-03T09:14:14Z</time></trkpt><trkpt lat="44.89619675026473" lon="8.450490111327252"><ele>97.0</ele><time>2026-05-03T09:14:15Z</time></trkpt><trkpt lat="44.89605695873278" lon="8.450336128813554"><ele>97.0</ele><time>2026-05-03T09:14:16Z</time></trkpt><trkpt lat="44.895932567033775" lon="8.450142272624468"><ele>97.0</ele><time>2026-05-03T09:14:17Z</time></trkpt><trkpt lat="44.89583885786767" lon="8.449928013313295"><ele>97.0</ele><time>2026-05-03T09:14:18Z</time></trkpt><trkpt lat="44.8957823571501" lon="8.449678794574183"><ele>97.0</ele><time>2026-05-03T09:14:19Z</time></trkpt><trkpt lat="44.895739315878366" lon="8.449410321483562"><ele>97.0</ele><time>2026-05-03T09:14:20Z</time></trkpt><trkpt lat="44.89569856279241" lon="8.449126524178284"><ele>97.0</ele><time>2026-05-03T09:14:21Z</time></trkpt><trkpt lat="44.89567396478334" lon="8.448829838827077"><ele>97.0</ele><time>2026-05-03T09:14:22Z</time></trkpt><trkpt lat="44.89564425237089" lon="8.44852739894314"><ele>97.0</ele><time>2026-05-03T09:14:23Z</time></trkpt><trkpt lat="44.895633725076756" lon="8.448215612589633"><ele>97.0</ele><time>2026-05-03T09:14:24Z</time></trkpt><trkpt lat="44.89559223159372" lon="8.447892127532496"><ele>97.0</ele><time>2026-05-03T09:14:25Z</time></trkpt><trkpt lat="44.895563995943455" lon="8.447563212879547"><ele>97.0</ele><time>2026-05-03T09:14:26Z</time></trkpt><trkpt lat="44.89553816770565" lon="8.44724803889483"><ele>97.33333333333334</ele><time>2026-05-03T09:14:27Z</time></trkpt><trkpt lat="44.89551528681027" lon="8.446940450132956"><ele>97.66666666666666</ele><time>2026-05-03T09:14:28Z</time></trkpt><trkpt lat="44.8954893445975" lon="8.446635534382697"><ele>98.0</ele><time>2026-05-03T09:14:29Z</time></trkpt><trkpt lat="44.895454823492074" lon="8.44633090339677"><ele>98.0</ele><time>2026-05-03T09:14:29.999Z</time></trkpt><trkpt lat="44.89539751053774" lon="8.446023074438559"><ele>98.0</ele><time>2026-05-03T09:14:30.999Z</time></trkpt><trkpt lat="44.8953333698246" lon="8.445703794641783"><ele>98.5</ele><time>2026-05-03T09:14:31.999Z</time></trkpt><trkpt lat="44.89522376112665" lon="8.445396138260296"><ele>99.0</ele><time>2026-05-03T09:14:32.999Z</time></trkpt><trkpt lat="44.89512209276612" lon="8.445064428221453"><ele>99.5</ele><time>2026-05-03T09:14:33.999Z</time></trkpt><trkpt lat="44.89502224791449" lon="8.444722491844383"><ele>100.0</ele><time>2026-05-03T09:14:34.999Z</time></trkpt><trkpt lat="44.89491766170085" lon="8.444384196687311"><ele>99.0</ele><time>2026-05-03T09:14:35.999Z</time></trkpt><trkpt lat="44.89481699279383" lon="8.444044077840879"><ele>98.0</ele><time>2026-05-03T09:14:36.999Z</time></trkpt><trkpt lat="44.894714258648726" lon="8.443700055435777"><ele>98.0</ele><time>2026-05-03T09:14:37.999Z</time></trkpt><trkpt lat="44.89460983493828" lon="8.44335396949991"><ele>98.0</ele><time>2026-05-03T09:14:38.999Z</time></trkpt><trkpt lat="44.89449404576362" lon="8.442997420004351"><ele>99.0</ele><time>2026-05-03T09:14:39.999Z</time></trkpt><trkpt lat="44.89439329061045" lon="8.442648820433076"><ele>100.0</ele><time>2026-05-03T09:14:40.999Z</time></trkpt><trkpt lat="44.894268895217266" lon="8.442288160756918"><ele>99.0</ele><time>2026-05-03T09:14:41.999Z</time></trkpt><trkpt lat="44.89414891571554" lon="8.441940053400865"><ele>98.0</ele><time>2026-05-03T09:14:42.999Z</time></trkpt><trkpt lat="44.89403450453845" lon="8.441604552257795"><ele>98.0</ele><time>2026-05-03T09:14:43.999Z</time></trkpt><trkpt lat="44.8939209108461" lon="8.441279603358751"><ele>98.0</ele><time>2026-05-03T09:14:44.999Z</time></trkpt><trkpt lat="44.89381266378483" lon="8.440970321264672"><ele>98.0</ele><time>2026-05-03T09:14:45.999Z</time></trkpt><trkpt lat="44.893712202301685" lon="8.440679481889713"><ele>98.0</ele><time>2026-05-03T09:14:46.999Z</time></trkpt><trkpt lat="44.893608339931056" lon="8.44040004715464"><ele>98.0</ele><time>2026-05-03T09:14:47.999Z</time></trkpt><trkpt lat="44.89351678411141" lon="8.440142874460575"><ele>98.0</ele><time>2026-05-03T09:14:48.999Z</time></trkpt><trkpt lat="44.89343322044046" lon="8.439904146362338"><ele>98.0</ele><time>2026-05-03T09:14:49.999Z</time></trkpt><trkpt lat="44.89335198909823" lon="8.439672185876082"><ele>98.25</ele><time>2026-05-03T09:14:50.999Z</time></trkpt><trkpt lat="44.89327418570689" lon="8.439456786846062"><ele>98.5</ele><time>2026-05-03T09:14:51.999Z</time></trkpt><trkpt lat="44.8932052440354" lon="8.439255181089656"><ele>98.75</ele><time>2026-05-03T09:14:52.999Z</time></trkpt><trkpt lat="44.893166847301224" lon="8.439121083391099"><ele>99.0</ele><time>2026-05-03T09:14:53.999Z</time></trkpt><trkpt lat="44.89312920692013" lon="8.43899929772174"><ele>99.0</ele><time>2026-05-03T09:14:54.999Z</time></trkpt><trkpt lat="44.89311540391399" lon="8.438868572439555"><ele>99.0</ele><time>2026-05-03T09:14:55.999Z</time></trkpt><trkpt lat="44.89312991964648" lon="8.438729442196202"><ele>99.0</ele><time>2026-05-03T09:14:56.999Z</time></trkpt><trkpt lat="44.893137936818405" lon="8.438599085772301"><ele>99.0</ele><time>2026-05-03T09:14:57.999Z</time></trkpt><trkpt lat="44.893083489606205" lon="8.438501721020096"><ele>99.0</ele><time>2026-05-03T09:14:58.999Z</time></trkpt><trkpt lat="44.893002163451776" lon="8.438441748910801"><ele>99.0</ele><time>2026-05-03T09:14:59.999Z</time></trkpt><trkpt lat="44.892906395562946" lon="8.438432404822606"><ele>99.0</ele><time>2026-05-03T09:15:00.999Z</time></trkpt><trkpt lat="44.89280271418882" lon="8.438456516990033"><ele>99.0</ele><time>2026-05-03T09:15:01.999Z</time></trkpt><trkpt lat="44.89268437808371" lon="8.438465272454838"><ele>99.0</ele><time>2026-05-03T09:15:02.999Z</time></trkpt><trkpt lat="44.892553658213245" lon="8.438420692227673"><ele>99.0</ele><time>2026-05-03T09:15:03.999Z</time></trkpt><trkpt lat="44.892423979858684" lon="8.43831862754832"><ele>99.0</ele><time>2026-05-03T09:15:04.999Z</time></trkpt><trkpt lat="44.892279082646645" lon="8.438244422246283"><ele>99.0</ele><time>2026-05-03T09:15:05.999Z</time></trkpt><trkpt lat="44.892115899099444" lon="8.43820785450644"><ele>99.0</ele><time>2026-05-03T09:15:06.999Z</time></trkpt><trkpt lat="44.89194279532706" lon="8.438199561115677"><ele>99.0</ele><time>2026-05-03T09:15:07.999Z</time></trkpt><trkpt lat="44.891758357609405" lon="8.438211532276693"><ele>99.0</ele><time>2026-05-03T09:15:08.999Z</time></trkpt><trkpt lat="44.89156243258077" lon="8.438278779912936"><ele>98.66666666666666</ele><time>2026-05-03T09:15:09.999Z</time></trkpt><trkpt lat="44.89138155809484" lon="8.43837896227625"><ele>98.33333333333333</ele><time>2026-05-03T09:15:10.999Z</time></trkpt><trkpt lat="44.89118985208508" lon="8.438529158325354"><ele>98.0</ele><time>2026-05-03T09:15:11.999Z</time></trkpt><trkpt lat="44.89099162696543" lon="8.438646910275496"><ele>96.5</ele><time>2026-05-03T09:15:12.999Z</time></trkpt><trkpt lat="44.89078363554749" lon="8.43877089981136"><ele>95.0</ele><time>2026-05-03T09:15:13.999Z</time></trkpt><trkpt lat="44.89057430738415" lon="8.438890538261168"><ele>93.5</ele><time>2026-05-03T09:15:14.999Z</time></trkpt><trkpt lat="44.89036421878885" lon="8.439006445872117"><ele>92.0</ele><time>2026-05-03T09:15:15.999Z</time></trkpt><trkpt lat="44.890155916106465" lon="8.439131669542377"><ele>92.0</ele><time>2026-05-03T09:15:16.999Z</time></trkpt><trkpt lat="44.889934945103846" lon="8.439249604030847"><ele>92.0</ele><time>2026-05-03T09:15:17.999Z</time></trkpt><trkpt lat="44.88971080090011" lon="8.439377249765732"><ele>92.0</ele><time>2026-05-03T09:15:18.999Z</time></trkpt><trkpt lat="44.88949489487666" lon="8.439504712316761"><ele>92.0</ele><time>2026-05-03T09:15:19.999Z</time></trkpt><trkpt lat="44.88926894223999" lon="8.439645118500273"><ele>94.5</ele><time>2026-05-03T09:15:20.999Z</time></trkpt><trkpt lat="44.88903567544372" lon="8.439786858746428"><ele>97.0</ele><time>2026-05-03T09:15:22Z</time></trkpt><trkpt lat="44.88880171489406" lon="8.439923069099871"><ele>97.0</ele><time>2026-05-03T09:15:23Z</time></trkpt><trkpt lat="44.888563318226694" lon="8.440062071152697"><ele>97.0</ele><time>2026-05-03T09:15:24Z</time></trkpt><trkpt lat="44.888321654411115" lon="8.44020034038832"><ele>97.5</ele><time>2026-05-03T09:15:25Z</time></trkpt><trkpt lat="44.888072696508694" lon="8.440333490033955"><ele>98.0</ele><time>2026-05-03T09:15:26Z</time></trkpt><trkpt lat="44.887815529561685" lon="8.440459830860014"><ele>98.0</ele><time>2026-05-03T09:15:27Z</time></trkpt><trkpt lat="44.887554198356526" lon="8.440570623549382"><ele>98.0</ele><time>2026-05-03T09:15:28Z</time></trkpt><trkpt lat="44.88728768253527" lon="8.440680349550025"><ele>98.0</ele><time>2026-05-03T09:15:29Z</time></trkpt><trkpt lat="44.887014850066926" lon="8.44079013468544"><ele>98.0</ele><time>2026-05-03T09:15:30Z</time></trkpt><trkpt lat="44.88673937995886" lon="8.440897040635141"><ele>98.0</ele><time>2026-05-03T09:15:31Z</time></trkpt><trkpt lat="44.88646150322424" lon="8.441005109367133"><ele>98.0</ele><time>2026-05-03T09:15:32Z</time></trkpt><trkpt lat="44.886181789643494" lon="8.441115318159227"><ele>98.0</ele><time>2026-05-03T09:15:33Z</time></trkpt><trkpt lat="44.885908379097266" lon="8.441223119269408"><ele>98.0</ele><time>2026-05-03T09:15:34Z</time></trkpt><trkpt lat="44.885632225956506" lon="8.441327229708097"><ele>98.0</ele><time>2026-05-03T09:15:35Z</time></trkpt><trkpt lat="44.88535585298307" lon="8.441429621805415"><ele>98.0</ele><time>2026-05-03T09:15:36Z</time></trkpt><trkpt lat="44.88508072239194" lon="8.441539446890804"><ele>98.0</ele><time>2026-05-03T09:15:37Z</time></trkpt><trkpt lat="44.88480846987105" lon="8.441647134262276"><ele>98.0</ele><time>2026-05-03T09:15:38Z</time></trkpt><trkpt lat="44.88453330567892" lon="8.441751527636125"><ele>98.0</ele><time>2026-05-03T09:15:39Z</time></trkpt><trkpt lat="44.88426645206782" lon="8.4418546693011"><ele>98.0</ele><time>2026-05-03T09:15:40Z</time></trkpt><trkpt lat="44.88400514374972" lon="8.441958099371307"><ele>98.0</ele><time>2026-05-03T09:15:41Z</time></trkpt><trkpt lat="44.8837445410665" lon="8.44205177733781"><ele>98.0</ele><time>2026-05-03T09:15:42Z</time></trkpt><trkpt lat="44.883487123621656" lon="8.442144273762052"><ele>97.0</ele><time>2026-05-03T09:15:43Z</time></trkpt><trkpt lat="44.88323382682884" lon="8.442238562631209"><ele>96.0</ele><time>2026-05-03T09:15:44Z</time></trkpt><trkpt lat="44.882979469730365" lon="8.44233954783938"><ele>96.0</ele><time>2026-05-03T09:15:45Z</time></trkpt><trkpt lat="44.882720723797625" lon="8.442440534952237"><ele>96.0</ele><time>2026-05-03T09:15:46Z</time></trkpt><trkpt lat="44.882469407972636" lon="8.442541864495027"><ele>97.0</ele><time>2026-05-03T09:15:47Z</time></trkpt><trkpt lat="44.8822185168573" lon="8.442635683719935"><ele>98.0</ele><time>2026-05-03T09:15:48Z</time></trkpt><trkpt lat="44.881971869248495" lon="8.442730768279398"><ele>98.0</ele><time>2026-05-03T09:15:49Z</time></trkpt><trkpt lat="44.881734608602514" lon="8.442826833668681"><ele>98.0</ele><time>2026-05-03T09:15:50Z</time></trkpt><trkpt lat="44.881494176279396" lon="8.442925707615245"><ele>99.0</ele><time>2026-05-03T09:15:51Z</time></trkpt><trkpt lat="44.88125105617725" lon="8.443014012735212"><ele>100.0</ele><time>2026-05-03T09:15:52Z</time></trkpt><trkpt lat="44.881007635968864" lon="8.443112728233235"><ele>100.0</ele><time>2026-05-03T09:15:53Z</time></trkpt><trkpt lat="44.880767031324055" lon="8.443217522616163"><ele>100.0</ele><time>2026-05-03T09:15:54Z</time></trkpt><trkpt lat="44.880525567896065" lon="8.443301085789233"><ele>100.0</ele><time>2026-05-03T09:15:55Z</time></trkpt><trkpt lat="44.88028415114092" lon="8.443403431645713"><ele>100.0</ele><time>2026-05-03T09:15:56Z</time></trkpt><trkpt lat="44.880037833296285" lon="8.443501295057866"><ele>100.0</ele><time>2026-05-03T09:15:57Z</time></trkpt><trkpt lat="44.87978863153022" lon="8.443605121859195"><ele>100.0</ele><time>2026-05-03T09:15:58Z</time></trkpt><trkpt lat="44.87954142524793" lon="8.443698130120664"><ele>100.0</ele><time>2026-05-03T09:15:59Z</time></trkpt><trkpt lat="44.8792941478169" lon="8.443758373994378"><ele>100.0</ele><time>2026-05-03T09:16:00Z</time></trkpt><trkpt lat="44.87905273543032" lon="8.443828131235232"><ele>98.5</ele><time>2026-05-03T09:16:01Z</time></trkpt><trkpt lat="44.87879259195303" lon="8.443899092659152"><ele>97.0</ele><time>2026-05-03T09:16:02Z</time></trkpt><trkpt lat="44.87855222200529" lon="8.443990767737342"><ele>98.0</ele><time>2026-05-03T09:16:03Z</time></trkpt><trkpt lat="44.878308904675954" lon="8.444082731327072"><ele>99.0</ele><time>2026-05-03T09:16:04Z</time></trkpt><trkpt lat="44.878057492639584" lon="8.444177754369706"><ele>99.0</ele><time>2026-05-03T09:16:05Z</time></trkpt><trkpt lat="44.87780925506162" lon="8.44427157761476"><ele>99.0</ele><time>2026-05-03T09:16:06Z</time></trkpt><trkpt lat="44.87756645920057" lon="8.444365561139557"><ele>100.5</ele><time>2026-05-03T09:16:07Z</time></trkpt><trkpt lat="44.87731670078144" lon="8.444463516777166"><ele>102.0</ele><time>2026-05-03T09:16:08Z</time></trkpt><trkpt lat="44.877065661368555" lon="8.444561974820028"><ele>101.5</ele><time>2026-05-03T09:16:09Z</time></trkpt><trkpt lat="44.87681420363644" lon="8.444659456919846"><ele>101.0</ele><time>2026-05-03T09:16:10Z</time></trkpt><trkpt lat="44.87656376401148" lon="8.444755259712483"><ele>100.5</ele><time>2026-05-03T09:16:11Z</time></trkpt><trkpt lat="44.8763121138762" lon="8.444850689651703"><ele>100.0</ele><time>2026-05-03T09:16:12Z</time></trkpt><trkpt lat="44.87605510856501" lon="8.444949026818511"><ele>100.0</ele><time>2026-05-03T09:16:13Z</time></trkpt><trkpt lat="44.875797829021565" lon="8.445047665792407"><ele>100.0</ele><time>2026-05-03T09:16:14Z</time></trkpt><trkpt lat="44.87552818789929" lon="8.445151044106666"><ele>100.0</ele><time>2026-05-03T09:16:15Z</time></trkpt><trkpt lat="44.8752478954765" lon="8.445259829364863"><ele>100.0</ele><time>2026-05-03T09:16:16Z</time></trkpt><trkpt lat="44.87499107842948" lon="8.44535958311066"><ele>100.5</ele><time>2026-05-03T09:16:17Z</time></trkpt><trkpt lat="44.87473894651705" lon="8.445457158186668"><ele>101.0</ele><time>2026-05-03T09:16:18Z</time></trkpt><trkpt lat="44.87450823962969" lon="8.445546257185198"><ele>101.0</ele><time>2026-05-03T09:16:19Z</time></trkpt><trkpt lat="44.87429548225083" lon="8.445628424084841"><ele>101.0</ele><time>2026-05-03T09:16:20Z</time></trkpt><trkpt lat="44.874089019372036" lon="8.445708160055357"><ele>101.0</ele><time>2026-05-03T09:16:21Z</time></trkpt><trkpt lat="44.87389821845234" lon="8.4457822561489"><ele>101.0</ele><time>2026-05-03T09:16:22Z</time></trkpt><trkpt lat="44.87371768541614" lon="8.445852723848004"><ele>101.0</ele><time>2026-05-03T09:16:23Z</time></trkpt><trkpt lat="44.87354427679539" lon="8.4459203405878"><ele>101.0</ele><time>2026-05-03T09:16:24Z</time></trkpt><trkpt lat="44.87338569848864" lon="8.445980426745754"><ele>101.0</ele><time>2026-05-03T09:16:25Z</time></trkpt><trkpt lat="44.87325187334435" lon="8.446031133810457"><ele>101.0</ele><time>2026-05-03T09:16:26Z</time></trkpt><trkpt lat="44.87314793675624" lon="8.4460705506719"><ele>101.0</ele><time>2026-05-03T09:16:27Z</time></trkpt><trkpt lat="44.87306829724877" lon="8.446100992664551"><ele>101.0</ele><time>2026-05-03T09:16:28Z</time></trkpt><trkpt lat="44.87296538679191" lon="8.446129263844533"><ele>101.0</ele><time>2026-05-03T09:16:30Z</time></trkpt><trkpt lat="44.87289191585428" lon="8.446183631731474"><ele>101.19999999999999</ele><time>2026-05-03T09:16:32Z</time></trkpt><trkpt lat="44.87292529013803" lon="8.446340033454058"><ele>101.39999999999999</ele><time>2026-05-03T09:16:33Z</time></trkpt><trkpt lat="44.87296264362437" lon="8.446453530844625"><ele>101.6</ele><time>2026-05-03T09:16:34Z</time></trkpt><trkpt lat="44.87300420213957" lon="8.446576065438952"><ele>101.8</ele><time>2026-05-03T09:16:35Z</time></trkpt><trkpt lat="44.87304294409376" lon="8.446710848619645"><ele>102.0</ele><time>2026-05-03T09:16:36Z</time></trkpt><trkpt lat="44.873090510970925" lon="8.446865422170626"><ele>102.0</ele><time>2026-05-03T09:16:37Z</time></trkpt><trkpt lat="44.87314037963918" lon="8.447023663445078"><ele>102.0</ele><time>2026-05-03T09:16:38Z</time></trkpt><trkpt lat="44.873213065375495" lon="8.447210955203113"><ele>102.0</ele><time>2026-05-03T09:16:38.999Z</time></trkpt><trkpt lat="44.87324676105594" lon="8.447418479087904"><ele>102.0</ele><time>2026-05-03T09:16:39.999Z</time></trkpt><trkpt lat="44.87330742954743" lon="8.447625574054571"><ele>102.0</ele><time>2026-05-03T09:16:40.999Z</time></trkpt><trkpt lat="44.87336390639678" lon="8.447864798319072"><ele>102.0</ele><time>2026-05-03T09:16:41.999Z</time></trkpt><trkpt lat="44.8734223725224" lon="8.44811341162673"><ele>102.0</ele><time>2026-05-03T09:16:42.999Z</time></trkpt><trkpt lat="44.873476090876586" lon="8.448367330632843"><ele>102.0</ele><time>2026-05-03T09:16:43.999Z</time></trkpt><trkpt lat="44.8735079870628" lon="8.448611940892736"><ele>102.0</ele><time>2026-05-03T09:16:44.999Z</time></trkpt><trkpt lat="44.87353591300325" lon="8.44885440600894"><ele>102.0</ele><time>2026-05-03T09:16:45.999Z</time></trkpt><trkpt lat="44.873553993440474" lon="8.44909568354321"><ele>102.33333333333334</ele><time>2026-05-03T09:16:46.999Z</time></trkpt><trkpt lat="44.873564583197904" lon="8.449337142063406"><ele>102.66666666666667</ele><time>2026-05-03T09:16:47.999Z</time></trkpt><trkpt lat="44.87356922014239" lon="8.449573485498806"><ele>103.0</ele><time>2026-05-03T09:16:48.999Z</time></trkpt><trkpt lat="44.873566507489464" lon="8.449807925501492"><ele>103.33333333333334</ele><time>2026-05-03T09:16:49.999Z</time></trkpt><trkpt lat="44.873560281164465" lon="8.450051104162126"><ele>103.66666666666666</ele><time>2026-05-03T09:16:50.999Z</time></trkpt><trkpt lat="44.87355328683316" lon="8.450298022493056"><ele>104.0</ele><time>2026-05-03T09:16:51.999Z</time></trkpt><trkpt lat="44.87354555822068" lon="8.450541193318235"><ele>104.0</ele><time>2026-05-03T09:16:52.999Z</time></trkpt><trkpt lat="44.87353722521356" lon="8.450786028114091"><ele>104.0</ele><time>2026-05-03T09:16:53.999Z</time></trkpt><trkpt lat="44.87352910806605" lon="8.451024520621525"><ele>104.0</ele><time>2026-05-03T09:16:54.999Z</time></trkpt><trkpt lat="44.87352097045681" lon="8.451263615070632"><ele>103.0</ele><time>2026-05-03T09:16:55.999Z</time></trkpt><trkpt lat="44.87351216059117" lon="8.451483462651055"><ele>102.0</ele><time>2026-05-03T09:16:56.999Z</time></trkpt><trkpt lat="44.87351420905428" lon="8.45171996146176"><ele>101.0</ele><time>2026-05-03T09:16:57.999Z</time></trkpt><trkpt lat="44.87350200482722" lon="8.451965154905896"><ele>100.66666666666666</ele><time>2026-05-03T09:16:58.999Z</time></trkpt><trkpt lat="44.873485675579296" lon="8.452203705564358"><ele>100.33333333333334</ele><time>2026-05-03T09:16:59.999Z</time></trkpt><trkpt lat="44.87345608723411" lon="8.452447443868468"><ele>100.0</ele><time>2026-05-03T09:17:00.999Z</time></trkpt><trkpt lat="44.87343556404355" lon="8.452686079421289"><ele>103.66666666666667</ele><time>2026-05-03T09:17:01.999Z</time></trkpt><trkpt lat="44.87343004517329" lon="8.452929180733507"><ele>107.33333333333334</ele><time>2026-05-03T09:17:02.999Z</time></trkpt><trkpt lat="44.87342478712054" lon="8.453156578138811"><ele>111.0</ele><time>2026-05-03T09:17:03.999Z</time></trkpt><trkpt lat="44.87341004888343" lon="8.453395785281584"><ele>111.0</ele><time>2026-05-03T09:17:04.999Z</time></trkpt><trkpt lat="44.87341730098087" lon="8.453644530257984"><ele>111.0</ele><time>2026-05-03T09:17:05.999Z</time></trkpt><trkpt lat="44.87342453521788" lon="8.45389202596205"><ele>111.0</ele><time>2026-05-03T09:17:06.999Z</time></trkpt><trkpt lat="44.8734067308815" lon="8.45415346250367"><ele>109.33333333333334</ele><time>2026-05-03T09:17:07.999Z</time></trkpt><trkpt lat="44.87339004961313" lon="8.454418287729153"><ele>107.66666666666667</ele><time>2026-05-03T09:17:08.999Z</time></trkpt><trkpt lat="44.87336005008214" lon="8.454692454336495"><ele>106.0</ele><time>2026-05-03T09:17:09.999Z</time></trkpt><trkpt lat="44.8733210298614" lon="8.454955220527546"><ele>105.33333333333334</ele><time>2026-05-03T09:17:10.999Z</time></trkpt><trkpt lat="44.873248919774255" lon="8.45524442183771"><ele>104.66666666666666</ele><time>2026-05-03T09:17:11.999Z</time></trkpt><trkpt lat="44.87316547009684" lon="8.455512659017396"><ele>104.0</ele><time>2026-05-03T09:17:12.999Z</time></trkpt><trkpt lat="44.87305289154531" lon="8.455759758299571"><ele>104.0</ele><time>2026-05-03T09:17:13.999Z</time></trkpt><trkpt lat="44.87292406131733" lon="8.455998139113124"><ele>104.0</ele><time>2026-05-03T09:17:14.999Z</time></trkpt><trkpt lat="44.87277242060408" lon="8.456197732618675"><ele>104.0</ele><time>2026-05-03T09:17:15.999Z</time></trkpt><trkpt lat="44.872611499073535" lon="8.456429694221168"><ele>105.0</ele><time>2026-05-03T09:17:16.999Z</time></trkpt><trkpt lat="44.8724633226759" lon="8.456678293978209"><ele>106.0</ele><time>2026-05-03T09:17:17.999Z</time></trkpt><trkpt lat="44.87232641951851" lon="8.456941401996238"><ele>106.0</ele><time>2026-05-03T09:17:18.999Z</time></trkpt><trkpt lat="44.87220484413477" lon="8.457211194097978"><ele>106.0</ele><time>2026-05-03T09:17:19.999Z</time></trkpt><trkpt lat="44.87206736495677" lon="8.457469614577326"><ele>106.0</ele><time>2026-05-03T09:17:20.999Z</time></trkpt><trkpt lat="44.87196696782982" lon="8.457733882656644"><ele>106.0</ele><time>2026-05-03T09:17:21.999Z</time></trkpt><trkpt lat="44.87184715490159" lon="8.458006747326529"><ele>106.0</ele><time>2026-05-03T09:17:22.999Z</time></trkpt><trkpt lat="44.871735625825394" lon="8.45827789499023"><ele>108.0</ele><time>2026-05-03T09:17:23.999Z</time></trkpt><trkpt lat="44.8716243565814" lon="8.458563513046021"><ele>110.0</ele><time>2026-05-03T09:17:24.999Z</time></trkpt><trkpt lat="44.871508917188144" lon="8.458863027278705"><ele>110.0</ele><time>2026-05-03T09:17:25.999Z</time></trkpt><trkpt lat="44.871398617891934" lon="8.459138987008835"><ele>110.0</ele><time>2026-05-03T09:17:26.999Z</time></trkpt><trkpt lat="44.87127691412722" lon="8.459415755482992"><ele>110.5</ele><time>2026-05-03T09:17:28Z</time></trkpt><trkpt lat="44.87116482351212" lon="8.45969952145179"><ele>111.0</ele><time>2026-05-03T09:17:29Z</time></trkpt><trkpt lat="44.87106138569835" lon="8.45999110675354"><ele>111.0</ele><time>2026-05-03T09:17:30Z</time></trkpt><trkpt lat="44.870949798555856" lon="8.460283641373662"><ele>111.0</ele><time>2026-05-03T09:17:31Z</time></trkpt><trkpt lat="44.87083758840505" lon="8.460565876533192"><ele>113.5</ele><time>2026-05-03T09:17:32Z</time></trkpt><trkpt lat="44.87071759358448" lon="8.4608511432346"><ele>116.0</ele><time>2026-05-03T09:17:33Z</time></trkpt><trkpt lat="44.87059841547018" lon="8.46113630667394"><ele>116.5</ele><time>2026-05-03T09:17:34Z</time></trkpt><trkpt lat="44.87048399172064" lon="8.461420611447874"><ele>117.0</ele><time>2026-05-03T09:17:35Z</time></trkpt><trkpt lat="44.87036834676287" lon="8.461704092123343"><ele>117.0</ele><time>2026-05-03T09:17:36Z</time></trkpt><trkpt lat="44.87026131019556" lon="8.46198205248743"><ele>117.0</ele><time>2026-05-03T09:17:37Z</time></trkpt><trkpt lat="44.87015992254682" lon="8.462256057604352"><ele>117.0</ele><time>2026-05-03T09:17:38Z</time></trkpt><trkpt lat="44.87006673111492" lon="8.46253818646602"><ele>118.0</ele><time>2026-05-03T09:17:39Z</time></trkpt><trkpt lat="44.869990658296224" lon="8.462834792600441"><ele>119.0</ele><time>2026-05-03T09:17:40Z</time></trkpt><trkpt lat="44.86993266259496" lon="8.463147642934656"><ele>119.0</ele><time>2026-05-03T09:17:41Z</time></trkpt><trkpt lat="44.86988762238608" lon="8.46347105267606"><ele>119.0</ele><time>2026-05-03T09:17:42Z</time></trkpt><trkpt lat="44.86984539804916" lon="8.463793542876884"><ele>118.0</ele><time>2026-05-03T09:17:43Z</time></trkpt><trkpt lat="44.869807657182236" lon="8.464118507337234"><ele>117.0</ele><time>2026-05-03T09:17:44Z</time></trkpt><trkpt lat="44.86976184656097" lon="8.46446266196034"><ele>117.0</ele><time>2026-05-03T09:17:45Z</time></trkpt><trkpt lat="44.86971892862221" lon="8.464815913657072"><ele>117.0</ele><time>2026-05-03T09:17:46Z</time></trkpt><trkpt lat="44.869673850194424" lon="8.465158665585083"><ele>117.0</ele><time>2026-05-03T09:17:47Z</time></trkpt><trkpt lat="44.86962170099423" lon="8.465511240780382"><ele>117.0</ele><time>2026-05-03T09:17:48Z</time></trkpt><trkpt lat="44.86956350331513" lon="8.46586332226755"><ele>117.0</ele><time>2026-05-03T09:17:49Z</time></trkpt><trkpt lat="44.869494566137725" lon="8.466196782757685"><ele>117.0</ele><time>2026-05-03T09:17:50Z</time></trkpt><trkpt lat="44.86943830980138" lon="8.466513248997904"><ele>117.0</ele><time>2026-05-03T09:17:51Z</time></trkpt><trkpt lat="44.869371238506545" lon="8.466800426809316"><ele>117.0</ele><time>2026-05-03T09:17:52Z</time></trkpt><trkpt lat="44.86930985221881" lon="8.467060756797697"><ele>117.0</ele><time>2026-05-03T09:17:53Z</time></trkpt><trkpt lat="44.86925086864834" lon="8.467310130759845"><ele>117.0</ele><time>2026-05-03T09:17:54Z</time></trkpt><trkpt lat="44.86919523138925" lon="8.4675417642224"><ele>117.0</ele><time>2026-05-03T09:17:55Z</time></trkpt><trkpt lat="44.86913886748543" lon="8.467761406891213"><ele>117.0</ele><time>2026-05-03T09:17:56Z</time></trkpt><trkpt lat="44.869072453402865" lon="8.467987085894837"><ele>117.0</ele><time>2026-05-03T09:17:57Z</time></trkpt><trkpt lat="44.86898160840774" lon="8.468227929688783"><ele>117.0</ele><time>2026-05-03T09:17:58Z</time></trkpt><trkpt lat="44.86886582588841" lon="8.468459595102578"><ele>117.0</ele><time>2026-05-03T09:17:59Z</time></trkpt><trkpt lat="44.86874097040369" lon="8.468700506693244"><ele>117.0</ele><time>2026-05-03T09:18:00Z</time></trkpt><trkpt lat="44.86860399226435" lon="8.468941403101596"><ele>117.0</ele><time>2026-05-03T09:18:01Z</time></trkpt><trkpt lat="44.86847140506058" lon="8.469178613667108"><ele>117.0</ele><time>2026-05-03T09:18:02Z</time></trkpt><trkpt lat="44.868339139089144" lon="8.469408712801382"><ele>116.66666666666666</ele><time>2026-05-03T09:18:03Z</time></trkpt><trkpt lat="44.86820994288129" lon="8.46964682121454"><ele>116.33333333333333</ele><time>2026-05-03T09:18:04Z</time></trkpt><trkpt lat="44.86808330930558" lon="8.469883430852507"><ele>116.0</ele><time>2026-05-03T09:18:05Z</time></trkpt><trkpt lat="44.86796426078013" lon="8.470136628011025"><ele>116.0</ele><time>2026-05-03T09:18:06Z</time></trkpt><trkpt lat="44.867846104488464" lon="8.470409250612986"><ele>116.0</ele><time>2026-05-03T09:18:07Z</time></trkpt><trkpt lat="44.867741947936125" lon="8.470710057404021"><ele>116.0</ele><time>2026-05-03T09:18:08Z</time></trkpt><trkpt lat="44.86761847036941" lon="8.471002282814792"><ele>116.0</ele><time>2026-05-03T09:18:09Z</time></trkpt><trkpt lat="44.86750453487558" lon="8.471322505402455"><ele>114.5</ele><time>2026-05-03T09:18:10Z</time></trkpt><trkpt lat="44.867497901150855" lon="8.471700146280517"><ele>113.0</ele><time>2026-05-03T09:18:11Z</time></trkpt><trkpt lat="44.86744256245301" lon="8.472052711491404"><ele>112.0</ele><time>2026-05-03T09:18:12Z</time></trkpt><trkpt lat="44.86739023893815" lon="8.472430173419129"><ele>111.0</ele><time>2026-05-03T09:18:13Z</time></trkpt><trkpt lat="44.867333629210435" lon="8.472809458480034"><ele>111.5</ele><time>2026-05-03T09:18:14Z</time></trkpt><trkpt lat="44.86727330808105" lon="8.473145310227576"><ele>112.0</ele><time>2026-05-03T09:18:15Z</time></trkpt><trkpt lat="44.867217979520724" lon="8.473490957718363"><ele>113.5</ele><time>2026-05-03T09:18:16Z</time></trkpt><trkpt lat="44.86716275981402" lon="8.473860465624492"><ele>115.0</ele><time>2026-05-03T09:18:17Z</time></trkpt><trkpt lat="44.867109410602325" lon="8.474253251632858"><ele>115.5</ele><time>2026-05-03T09:18:18Z</time></trkpt><trkpt lat="44.86705709784295" lon="8.474648586436759"><ele>116.0</ele><time>2026-05-03T09:18:19Z</time></trkpt><trkpt lat="44.8669934820023" lon="8.475037100581275"><ele>116.0</ele><time>2026-05-03T09:18:20Z</time></trkpt><trkpt lat="44.86693177730869" lon="8.475414314246622"><ele>116.0</ele><time>2026-05-03T09:18:21Z</time></trkpt><trkpt lat="44.866879134007085" lon="8.475778897720598"><ele>115.5</ele><time>2026-05-03T09:18:22Z</time></trkpt><trkpt lat="44.86681010773157" lon="8.476149012003644"><ele>115.0</ele><time>2026-05-03T09:18:23Z</time></trkpt><trkpt lat="44.86676073170439" lon="8.476490105306587"><ele>116.0</ele><time>2026-05-03T09:18:24Z</time></trkpt><trkpt lat="44.866708420707084" lon="8.476833652742942"><ele>117.0</ele><time>2026-05-03T09:18:25Z</time></trkpt><trkpt lat="44.866654160270606" lon="8.477182944384374"><ele>117.5</ele><time>2026-05-03T09:18:26Z</time></trkpt><trkpt lat="44.866608747823406" lon="8.477540450959424"><ele>118.0</ele><time>2026-05-03T09:18:27Z</time></trkpt><trkpt lat="44.86655802638145" lon="8.477896673262425"><ele>117.0</ele><time>2026-05-03T09:18:28Z</time></trkpt><trkpt lat="44.866503536928334" lon="8.478239460723868"><ele>116.0</ele><time>2026-05-03T09:18:29Z</time></trkpt><trkpt lat="44.866459779658406" lon="8.478576015747207"><ele>115.5</ele><time>2026-05-03T09:18:30Z</time></trkpt><trkpt lat="44.866411372863034" lon="8.478916130923217"><ele>115.0</ele><time>2026-05-03T09:18:31Z</time></trkpt><trkpt lat="44.866365620433605" lon="8.479245138661177"><ele>115.0</ele><time>2026-05-03T09:18:32Z</time></trkpt><trkpt lat="44.866319860414784" lon="8.479569964088789"><ele>115.0</ele><time>2026-05-03T09:18:33Z</time></trkpt><trkpt lat="44.86628021538251" lon="8.479881795447067"><ele>115.0</ele><time>2026-05-03T09:18:34Z</time></trkpt><trkpt lat="44.866244396246195" lon="8.480173202520783"><ele>115.0</ele><time>2026-05-03T09:18:35Z</time></trkpt><trkpt lat="44.8662040633566" lon="8.48045785577901"><ele>115.0</ele><time>2026-05-03T09:18:36Z</time></trkpt><trkpt lat="44.86616455695695" lon="8.480735092426919"><ele>115.0</ele><time>2026-05-03T09:18:37Z</time></trkpt><trkpt lat="44.8661348271519" lon="8.481016539109392"><ele>115.0</ele><time>2026-05-03T09:18:38Z</time></trkpt><trkpt lat="44.86610159361846" lon="8.481269829939068"><ele>115.0</ele><time>2026-05-03T09:18:39Z</time></trkpt><trkpt lat="44.866067666445645" lon="8.481515678341886"><ele>115.0</ele><time>2026-05-03T09:18:40Z</time></trkpt><trkpt lat="44.866039332451585" lon="8.481756467964956"><ele>115.0</ele><time>2026-05-03T09:18:41Z</time></trkpt><trkpt lat="44.865981621924604" lon="8.481989559496062"><ele>115.0</ele><time>2026-05-03T09:18:42Z</time></trkpt><trkpt lat="44.8659196054812" lon="8.482224669382095"><ele>115.0</ele><time>2026-05-03T09:18:43Z</time></trkpt><trkpt lat="44.86585137935828" lon="8.482451196496193"><ele>115.0</ele><time>2026-05-03T09:18:44Z</time></trkpt><trkpt lat="44.86577444942414" lon="8.482673392331073"><ele>115.0</ele><time>2026-05-03T09:18:44.999Z</time></trkpt><trkpt lat="44.865690621849325" lon="8.482902311306411"><ele>115.0</ele><time>2026-05-03T09:18:45.999Z</time></trkpt><trkpt lat="44.8655916658295" lon="8.483107562508854"><ele>115.0</ele><time>2026-05-03T09:18:46.999Z</time></trkpt><trkpt lat="44.865485745634174" lon="8.483327825638671"><ele>115.0</ele><time>2026-05-03T09:18:47.999Z</time></trkpt><trkpt lat="44.865369907195046" lon="8.483526870689937"><ele>115.0</ele><time>2026-05-03T09:18:48.999Z</time></trkpt><trkpt lat="44.86524629243487" lon="8.483706559347292"><ele>115.0</ele><time>2026-05-03T09:18:49.999Z</time></trkpt><trkpt lat="44.86512602844335" lon="8.483870115204896"><ele>115.0</ele><time>2026-05-03T09:18:50.999Z</time></trkpt><trkpt lat="44.86499625075176" lon="8.484021991954098"><ele>115.33333333333334</ele><time>2026-05-03T09:18:51.999Z</time></trkpt><trkpt lat="44.86486089483867" lon="8.484170072656068"><ele>115.66666666666666</ele><time>2026-05-03T09:18:52.999Z</time></trkpt><trkpt lat="44.864725219357474" lon="8.484322759120465"><ele>116.0</ele><time>2026-05-03T09:18:53.999Z</time></trkpt><trkpt lat="44.86459120173177" lon="8.484460360050008"><ele>116.0</ele><time>2026-05-03T09:18:54.999Z</time></trkpt><trkpt lat="44.86445179793877" lon="8.484583731943161"><ele>116.0</ele><time>2026-05-03T09:18:55.999Z</time></trkpt><trkpt lat="44.864312924578215" lon="8.484703298946918"><ele>116.0</ele><time>2026-05-03T09:18:56.999Z</time></trkpt><trkpt lat="44.864187000028274" lon="8.484826437650622"><ele>115.75</ele><time>2026-05-03T09:18:57.999Z</time></trkpt><trkpt lat="44.86406484490385" lon="8.484927640864056"><ele>115.5</ele><time>2026-05-03T09:18:58.999Z</time></trkpt><trkpt lat="44.86394530331756" lon="8.48503065674433"><ele>115.25</ele><time>2026-05-03T09:18:59.999Z</time></trkpt><trkpt lat="44.86382969400877" lon="8.485128826914426"><ele>115.0</ele><time>2026-05-03T09:19:00.999Z</time></trkpt><trkpt lat="44.863714401096054" lon="8.485232285117384"><ele>115.0</ele><time>2026-05-03T09:19:01.999Z</time></trkpt><trkpt lat="44.863604368190934" lon="8.485328394187954"><ele>115.0</ele><time>2026-05-03T09:19:02.999Z</time></trkpt><trkpt lat="44.8634975413688" lon="8.485428193270344"><ele>115.0</ele><time>2026-05-03T09:19:03.999Z</time></trkpt><trkpt lat="44.86339578238312" lon="8.485514242554563"><ele>115.0</ele><time>2026-05-03T09:19:04.999Z</time></trkpt><trkpt lat="44.86329454246031" lon="8.485604794823546"><ele>114.6</ele><time>2026-05-03T09:19:05.999Z</time></trkpt><trkpt lat="44.86319598420646" lon="8.485686190913249"><ele>114.2</ele><time>2026-05-03T09:19:06.999Z</time></trkpt><trkpt lat="44.86310024160235" lon="8.485760432152782"><ele>113.80000000000001</ele><time>2026-05-03T09:19:07.999Z</time></trkpt><trkpt lat="44.86302729664233" lon="8.485839090866683"><ele>113.4</ele><time>2026-05-03T09:19:08.999Z</time></trkpt><trkpt lat="44.862982445870074" lon="8.485933625294148"><ele>113.0</ele><time>2026-05-03T09:19:09.999Z</time></trkpt><trkpt lat="44.86298247105592" lon="8.486067381500849"><ele>113.0</ele><time>2026-05-03T09:19:10.999Z</time></trkpt><trkpt lat="44.86301139732977" lon="8.486226171581723"><ele>113.0</ele><time>2026-05-03T09:19:11.999Z</time></trkpt><trkpt lat="44.86306491541639" lon="8.486382807324594"><ele>113.0</ele><time>2026-05-03T09:19:12.999Z</time></trkpt><trkpt lat="44.8631111623" lon="8.486520612427586"><ele>113.0</ele><time>2026-05-03T09:19:13.999Z</time></trkpt><trkpt lat="44.86315618712454" lon="8.486690268421569"><ele>113.0</ele><time>2026-05-03T09:19:14.999Z</time></trkpt><trkpt lat="44.86321567826873" lon="8.486878044781427"><ele>113.0</ele><time>2026-05-03T09:19:15.999Z</time></trkpt><trkpt lat="44.8632738000325" lon="8.487060826633645"><ele>113.0</ele><time>2026-05-03T09:19:16.999Z</time></trkpt><trkpt lat="44.86331352679129" lon="8.48722470573624"><ele>113.0</ele><time>2026-05-03T09:19:17.999Z</time></trkpt><trkpt lat="44.86333004244439" lon="8.487373161571398"><ele>112.80000000000001</ele><time>2026-05-03T09:19:18.999Z</time></trkpt><trkpt lat="44.86334446535561" lon="8.487521192648293"><ele>112.60000000000001</ele><time>2026-05-03T09:19:19.999Z</time></trkpt><trkpt lat="44.86335853816817" lon="8.487669134733448"><ele>112.39999999999999</ele><time>2026-05-03T09:19:20.999Z</time></trkpt><trkpt lat="44.86336684542044" lon="8.487825155269569"><ele>112.19999999999999</ele><time>2026-05-03T09:19:21.999Z</time></trkpt><trkpt lat="44.863379146103334" lon="8.487981767483928"><ele>112.0</ele><time>2026-05-03T09:19:22.999Z</time></trkpt><trkpt lat="44.86336909447501" lon="8.488135949514442"><ele>111.25</ele><time>2026-05-03T09:19:23.999Z</time></trkpt><trkpt lat="44.86336270339401" lon="8.488300346245051"><ele>110.5</ele><time>2026-05-03T09:19:24.999Z</time></trkpt><trkpt lat="44.863347397618966" lon="8.488460031444262"><ele>109.75</ele><time>2026-05-03T09:19:25.999Z</time></trkpt><trkpt lat="44.863321046108844" lon="8.488619073309424"><ele>109.0</ele><time>2026-05-03T09:19:26.999Z</time></trkpt><trkpt lat="44.863304725497734" lon="8.48878570161972"><ele>108.5</ele><time>2026-05-03T09:19:27.999Z</time></trkpt><trkpt lat="44.86330367991187" lon="8.488948500342019"><ele>108.0</ele><time>2026-05-03T09:19:28.999Z</time></trkpt><trkpt lat="44.863282774371974" lon="8.48910859202602"><ele>107.5</ele><time>2026-05-03T09:19:29.999Z</time></trkpt><trkpt lat="44.86327402990834" lon="8.489272703979633"><ele>107.0</ele><time>2026-05-03T09:19:30.999Z</time></trkpt><trkpt lat="44.8632717875391" lon="8.489448849178407"><ele>106.5</ele><time>2026-05-03T09:19:31.999Z</time></trkpt><trkpt lat="44.863242547438894" lon="8.489640109302366"><ele>106.0</ele><time>2026-05-03T09:19:32.999Z</time></trkpt><trkpt lat="44.86321555672283" lon="8.489828935294815"><ele>105.5</ele><time>2026-05-03T09:19:34Z</time></trkpt><trkpt lat="44.863175522602" lon="8.49000926303327"><ele>105.0</ele><time>2026-05-03T09:19:35Z</time></trkpt><trkpt lat="44.86308111285753" lon="8.490157020035355"><ele>105.0</ele><time>2026-05-03T09:19:36Z</time></trkpt><trkpt lat="44.862961950415254" lon="8.490301527597623"><ele>105.0</ele><time>2026-05-03T09:19:37Z</time></trkpt><trkpt lat="44.86283658283674" lon="8.4904524891091"><ele>105.0</ele><time>2026-05-03T09:19:38Z</time></trkpt><trkpt lat="44.86271732647812" lon="8.490599711296321"><ele>104.0</ele><time>2026-05-03T09:19:39Z</time></trkpt><trkpt lat="44.862601924813376" lon="8.490747636004427"><ele>103.0</ele><time>2026-05-03T09:19:40Z</time></trkpt><trkpt lat="44.86248299050634" lon="8.490857398578804"><ele>102.0</ele><time>2026-05-03T09:19:41Z</time></trkpt><trkpt lat="44.862362089622245" lon="8.491004264760425"><ele>102.0</ele><time>2026-05-03T09:19:42Z</time></trkpt><trkpt lat="44.8622376168704" lon="8.491157441901931"><ele>102.0</ele><time>2026-05-03T09:19:43Z</time></trkpt><trkpt lat="44.862115126301056" lon="8.491304838285622"><ele>102.0</ele><time>2026-05-03T09:19:44Z</time></trkpt><trkpt lat="44.861984310528705" lon="8.491471398757682"><ele>101.66666666666666</ele><time>2026-05-03T09:19:45Z</time></trkpt><trkpt lat="44.86185676747615" lon="8.491622580994397"><ele>101.33333333333333</ele><time>2026-05-03T09:19:46Z</time></trkpt><trkpt lat="44.8617360160305" lon="8.49176378334249"><ele>101.0</ele><time>2026-05-03T09:19:47Z</time></trkpt><trkpt lat="44.86160894869378" lon="8.491921528339605"><ele>101.0</ele><time>2026-05-03T09:19:48Z</time></trkpt><trkpt lat="44.86148006484508" lon="8.492075471855502"><ele>101.0</ele><time>2026-05-03T09:19:49Z</time></trkpt><trkpt lat="44.861359888803904" lon="8.492225923186654"><ele>101.0</ele><time>2026-05-03T09:19:50Z</time></trkpt><trkpt lat="44.86123957575967" lon="8.492383682556431"><ele>101.25</ele><time>2026-05-03T09:19:51Z</time></trkpt><trkpt lat="44.86112563304707" lon="8.49252611112628"><ele>101.5</ele><time>2026-05-03T09:19:52Z</time></trkpt><trkpt lat="44.86101858627078" lon="8.492656048568989"><ele>101.75</ele><time>2026-05-03T09:19:53Z</time></trkpt><trkpt lat="44.86091280804525" lon="8.492786180981403"><ele>102.0</ele><time>2026-05-03T09:19:54Z</time></trkpt><trkpt lat="44.86081140378525" lon="8.492924371661676"><ele>102.0</ele><time>2026-05-03T09:19:55Z</time></trkpt><trkpt lat="44.86070358831435" lon="8.493031535191223"><ele>102.0</ele><time>2026-05-03T09:19:56Z</time></trkpt><trkpt lat="44.86058967564698" lon="8.49317709459743"><ele>102.0</ele><time>2026-05-03T09:19:57Z</time></trkpt><trkpt lat="44.8604761819604" lon="8.493322457241486"><ele>102.0</ele><time>2026-05-03T09:19:58Z</time></trkpt><trkpt lat="44.86036174952066" lon="8.493461205490668"><ele>102.0</ele><time>2026-05-03T09:19:59Z</time></trkpt><trkpt lat="44.860242010030994" lon="8.493599071088198"><ele>102.0</ele><time>2026-05-03T09:20:00Z</time></trkpt><trkpt lat="44.8601123218933" lon="8.493728309905238"><ele>102.0</ele><time>2026-05-03T09:20:01Z</time></trkpt><trkpt lat="44.859972760394655" lon="8.493849517839012"><ele>102.66666666666666</ele><time>2026-05-03T09:20:02Z</time></trkpt><trkpt lat="44.859826433295666" lon="8.493944391886112"><ele>103.33333333333333</ele><time>2026-05-03T09:20:03Z</time></trkpt><trkpt lat="44.85966918406033" lon="8.49402359263416"><ele>104.0</ele><time>2026-05-03T09:20:04Z</time></trkpt><trkpt lat="44.85954190294316" lon="8.494119565139158"><ele>104.0</ele><time>2026-05-03T09:20:05Z</time></trkpt><trkpt lat="44.859420449882165" lon="8.494210515283154"><ele>104.0</ele><time>2026-05-03T09:20:06Z</time></trkpt><trkpt lat="44.85930554059411" lon="8.494314376481665"><ele>104.0</ele><time>2026-05-03T09:20:07Z</time></trkpt><trkpt lat="44.85920269032479" lon="8.494435492855889"><ele>104.0</ele><time>2026-05-03T09:20:08Z</time></trkpt><trkpt lat="44.85910678269179" lon="8.494555856875653"><ele>103.5</ele><time>2026-05-03T09:20:09Z</time></trkpt><trkpt lat="44.85899881266586" lon="8.494713125468248"><ele>103.0</ele><time>2026-05-03T09:20:10Z</time></trkpt><trkpt lat="44.8589062320338" lon="8.494833661765366"><ele>102.5</ele><time>2026-05-03T09:20:11Z</time></trkpt><trkpt lat="44.85880323431202" lon="8.494937986491237"><ele>102.0</ele><time>2026-05-03T09:20:12Z</time></trkpt><trkpt lat="44.85871239616089" lon="8.495083177598914"><ele>102.0</ele><time>2026-05-03T09:20:13Z</time></trkpt><trkpt lat="44.85860945004262" lon="8.49521212343425"><ele>102.0</ele><time>2026-05-03T09:20:14Z</time></trkpt><trkpt lat="44.85850788001661" lon="8.495339927889601"><ele>102.0</ele><time>2026-05-03T09:20:15Z</time></trkpt><trkpt lat="44.85840894621255" lon="8.495473079120044"><ele>102.0</ele><time>2026-05-03T09:20:16Z</time></trkpt><trkpt lat="44.85829949202833" lon="8.495583968274717"><ele>102.0</ele><time>2026-05-03T09:20:17Z</time></trkpt><trkpt lat="44.858198112728864" lon="8.49571219609287"><ele>102.0</ele><time>2026-05-03T09:20:18Z</time></trkpt><trkpt lat="44.858086026006355" lon="8.49585396702886"><ele>102.0</ele><time>2026-05-03T09:20:19Z</time></trkpt><trkpt lat="44.85796360386953" lon="8.496009922988724"><ele>102.0</ele><time>2026-05-03T09:20:20Z</time></trkpt><trkpt lat="44.8578365242569" lon="8.496177392315902"><ele>102.0</ele><time>2026-05-03T09:20:21Z</time></trkpt><trkpt lat="44.85769643818809" lon="8.496358196443499"><ele>102.0</ele><time>2026-05-03T09:20:22Z</time></trkpt><trkpt lat="44.85755121759248" lon="8.496547311773398"><ele>101.66666666666666</ele><time>2026-05-03T09:20:23Z</time></trkpt><trkpt lat="44.8574139433357" lon="8.496728194206591"><ele>101.33333333333333</ele><time>2026-05-03T09:20:24Z</time></trkpt><trkpt lat="44.85727191537643" lon="8.496915340497052"><ele>101.0</ele><time>2026-05-03T09:20:25Z</time></trkpt><trkpt lat="44.857129455931606" lon="8.497102145915955"><ele>101.0</ele><time>2026-05-03T09:20:26Z</time></trkpt><trkpt lat="44.856974743985184" lon="8.49730400240759"><ele>101.0</ele><time>2026-05-03T09:20:27Z</time></trkpt><trkpt lat="44.85682487276159" lon="8.497497476349418"><ele>101.0</ele><time>2026-05-03T09:20:28Z</time></trkpt><trkpt lat="44.85667824498375" lon="8.497686763187431"><ele>101.0</ele><time>2026-05-03T09:20:29Z</time></trkpt><trkpt lat="44.85652316644373" lon="8.497889516165035"><ele>101.0</ele><time>2026-05-03T09:20:30Z</time></trkpt><trkpt lat="44.85637356881792" lon="8.498082976777235"><ele>101.0</ele><time>2026-05-03T09:20:31Z</time></trkpt><trkpt lat="44.85622416772617" lon="8.498271726303859"><ele>101.0</ele><time>2026-05-03T09:20:32Z</time></trkpt><trkpt lat="44.856078028628275" lon="8.498464780546483"><ele>101.0</ele><time>2026-05-03T09:20:33Z</time></trkpt><trkpt lat="44.855936914014734" lon="8.498664382280428"><ele>101.0</ele><time>2026-05-03T09:20:34Z</time></trkpt><trkpt lat="44.85582247433617" lon="8.498909234204554"><ele>101.0</ele><time>2026-05-03T09:20:35Z</time></trkpt><trkpt lat="44.855729908663534" lon="8.49916852199545"><ele>101.0</ele><time>2026-05-03T09:20:36Z</time></trkpt><trkpt lat="44.855639174551634" lon="8.499443926099826"><ele>101.0</ele><time>2026-05-03T09:20:37Z</time></trkpt><trkpt lat="44.85554866754308" lon="8.499710214864669"><ele>100.0</ele><time>2026-05-03T09:20:38Z</time></trkpt><trkpt lat="44.85545208450622" lon="8.500024879352193"><ele>99.0</ele><time>2026-05-03T09:20:39Z</time></trkpt><trkpt lat="44.85535231007373" lon="8.50032624602222"><ele>99.5</ele><time>2026-05-03T09:20:40Z</time></trkpt><trkpt lat="44.85524229292505" lon="8.500645565417994"><ele>100.0</ele><time>2026-05-03T09:20:41Z</time></trkpt><trkpt lat="44.85513307059321" lon="8.500977898154376"><ele>101.0</ele><time>2026-05-03T09:20:42Z</time></trkpt><trkpt lat="44.85502296070438" lon="8.501317557040187"><ele>102.0</ele><time>2026-05-03T09:20:43Z</time></trkpt><trkpt lat="44.85491219056791" lon="8.501641922762209"><ele>102.0</ele><time>2026-05-03T09:20:44Z</time></trkpt><trkpt lat="44.85478617826094" lon="8.50195586413168"><ele>102.0</ele><time>2026-05-03T09:20:45Z</time></trkpt><trkpt lat="44.85467902084672" lon="8.502272790622735"><ele>102.0</ele><time>2026-05-03T09:20:45.999Z</time></trkpt><trkpt lat="44.854568271382945" lon="8.502597757231056"><ele>102.0</ele><time>2026-05-03T09:20:46.999Z</time></trkpt><trkpt lat="44.854463008948855" lon="8.50291147385622"><ele>101.0</ele><time>2026-05-03T09:20:47.999Z</time></trkpt><trkpt lat="44.85436101759675" lon="8.50321559586815"><ele>100.0</ele><time>2026-05-03T09:20:48.999Z</time></trkpt><trkpt lat="44.85425882339477" lon="8.503516422185754"><ele>103.0</ele><time>2026-05-03T09:20:49.999Z</time></trkpt><trkpt lat="44.85415622212639" lon="8.503828805207421"><ele>106.0</ele><time>2026-05-03T09:20:50.999Z</time></trkpt><trkpt lat="44.854072474974195" lon="8.504130502643667"><ele>106.0</ele><time>2026-05-03T09:20:51.999Z</time></trkpt><trkpt lat="44.85397376600941" lon="8.504418520624442"><ele>106.0</ele><time>2026-05-03T09:20:52.999Z</time></trkpt><trkpt lat="44.85388415034652" lon="8.50468756385817"><ele>106.0</ele><time>2026-05-03T09:20:53.999Z</time></trkpt><trkpt lat="44.853801302614215" lon="8.504933713885222"><ele>107.0</ele><time>2026-05-03T09:20:54.999Z</time></trkpt><trkpt lat="44.8537198105556" lon="8.505174201432617"><ele>108.0</ele><time>2026-05-03T09:20:55.999Z</time></trkpt><trkpt lat="44.853629418774524" lon="8.505412323396966"><ele>109.0</ele><time>2026-05-03T09:20:56.999Z</time></trkpt><trkpt lat="44.853534222670014" lon="8.50563720412816"><ele>109.66666666666667</ele><time>2026-05-03T09:20:57.999Z</time></trkpt><trkpt lat="44.853428432929505" lon="8.505863721732114"><ele>110.33333333333334</ele><time>2026-05-03T09:20:58.999Z</time></trkpt><trkpt lat="44.85331107586038" lon="8.506101192099575"><ele>111.0</ele><time>2026-05-03T09:20:59.999Z</time></trkpt><trkpt lat="44.853192613939" lon="8.506354690120585"><ele>111.0</ele><time>2026-05-03T09:21:00.999Z</time></trkpt><trkpt lat="44.85308460952978" lon="8.506631191004676"><ele>111.0</ele><time>2026-05-03T09:21:01.999Z</time></trkpt><trkpt lat="44.852986991191976" lon="8.506928452982432"><ele>110.5</ele><time>2026-05-03T09:21:02.999Z</time></trkpt><trkpt lat="44.852888669463354" lon="8.50723090941532"><ele>110.0</ele><time>2026-05-03T09:21:03.999Z</time></trkpt><trkpt lat="44.85280333905198" lon="8.507551107103597"><ele>110.0</ele><time>2026-05-03T09:21:04.999Z</time></trkpt><trkpt lat="44.85273583227398" lon="8.507885992436888"><ele>110.0</ele><time>2026-05-03T09:21:05.999Z</time></trkpt><trkpt lat="44.85268361336877" lon="8.508234873286012"><ele>110.0</ele><time>2026-05-03T09:21:06.999Z</time></trkpt><trkpt lat="44.852624857227184" lon="8.508583776823347"><ele>110.0</ele><time>2026-05-03T09:21:07.999Z</time></trkpt><trkpt lat="44.85256565263442" lon="8.508937142616162"><ele>111.0</ele><time>2026-05-03T09:21:08.999Z</time></trkpt><trkpt lat="44.85249787764878" lon="8.509286438222606"><ele>112.0</ele><time>2026-05-03T09:21:09.999Z</time></trkpt><trkpt lat="44.85240679244639" lon="8.50962250043202"><ele>112.0</ele><time>2026-05-03T09:21:10.999Z</time></trkpt><trkpt lat="44.85230995719107" lon="8.509953148113977"><ele>112.0</ele><time>2026-05-03T09:21:11.999Z</time></trkpt><trkpt lat="44.85223102529765" lon="8.510279655530663"><ele>112.0</ele><time>2026-05-03T09:21:12.999Z</time></trkpt><trkpt lat="44.85216661078036" lon="8.51059272834297"><ele>112.0</ele><time>2026-05-03T09:21:13.999Z</time></trkpt><trkpt lat="44.85210565642039" lon="8.510928401766359"><ele>111.5</ele><time>2026-05-03T09:21:14.999Z</time></trkpt><trkpt lat="44.85205348455517" lon="8.511258938990997"><ele>111.0</ele><time>2026-05-03T09:21:15.999Z</time></trkpt><trkpt lat="44.851997616917316" lon="8.51155733269737"><ele>111.0</ele><time>2026-05-03T09:21:16.999Z</time></trkpt><trkpt lat="44.851937896228414" lon="8.511841794224205"><ele>111.0</ele><time>2026-05-03T09:21:17.999Z</time></trkpt><trkpt lat="44.85188496486728" lon="8.512106277112421"><ele>111.0</ele><time>2026-05-03T09:21:18.999Z</time></trkpt><trkpt lat="44.85183967868984" lon="8.512355704635688"><ele>111.0</ele><time>2026-05-03T09:21:19.999Z</time></trkpt><trkpt lat="44.85178454028536" lon="8.5125861374592"><ele>111.0</ele><time>2026-05-03T09:21:20.999Z</time></trkpt><trkpt lat="44.85173868015356" lon="8.512803486436447"><ele>111.0</ele><time>2026-05-03T09:21:21.999Z</time></trkpt><trkpt lat="44.8516980445412" lon="8.512994179041739"><ele>111.0</ele><time>2026-05-03T09:21:22.999Z</time></trkpt><trkpt lat="44.85164771659712" lon="8.513144068692892"><ele>111.0</ele><time>2026-05-03T09:21:23.999Z</time></trkpt><trkpt lat="44.85158920963621" lon="8.513245964474946"><ele>111.0</ele><time>2026-05-03T09:21:24.999Z</time></trkpt><trkpt lat="44.85153791830501" lon="8.513311134035137"><ele>111.0</ele><time>2026-05-03T09:21:25.999Z</time></trkpt><trkpt lat="44.85144621648009" lon="8.513410630081957"><ele>111.0</ele><time>2026-05-03T09:21:27.999Z</time></trkpt><trkpt lat="44.85136814100667" lon="8.51350398137199"><ele>111.0</ele><time>2026-05-03T09:21:29.999Z</time></trkpt><trkpt lat="44.85147175098923" lon="8.513958557063301"><ele>111.0</ele><time>2026-05-03T09:21:30.999Z</time></trkpt><trkpt lat="44.85145686232184" lon="8.514139038579161"><ele>111.0</ele><time>2026-05-03T09:21:31.999Z</time></trkpt><trkpt lat="44.85142141105127" lon="8.514364157573228"><ele>111.0</ele><time>2026-05-03T09:21:32.999Z</time></trkpt><trkpt lat="44.85137979540023" lon="8.514596969853349"><ele>111.0</ele><time>2026-05-03T09:21:33.999Z</time></trkpt><trkpt lat="44.851339413381496" lon="8.514815670451267"><ele>110.66666666666666</ele><time>2026-05-03T09:21:34.999Z</time></trkpt><trkpt lat="44.85128896339328" lon="8.515064396486492"><ele>110.33333333333333</ele><time>2026-05-03T09:21:35.999Z</time></trkpt><trkpt lat="44.851241785314734" lon="8.515311025323415"><ele>110.0</ele><time>2026-05-03T09:21:36.999Z</time></trkpt><trkpt lat="44.851189088018515" lon="8.515567353303089"><ele>110.0</ele><time>2026-05-03T09:21:37.999Z</time></trkpt><trkpt lat="44.85113236005682" lon="8.515845134420497"><ele>110.0</ele><time>2026-05-03T09:21:38.999Z</time></trkpt><trkpt lat="44.851078516137825" lon="8.516126799050925"><ele>110.0</ele><time>2026-05-03T09:21:40Z</time></trkpt><trkpt lat="44.85102593830958" lon="8.51641802094656"><ele>110.0</ele><time>2026-05-03T09:21:41Z</time></trkpt><trkpt lat="44.85097160036521" lon="8.516714659487796"><ele>110.0</ele><time>2026-05-03T09:21:42Z</time></trkpt><trkpt lat="44.850909174860746" lon="8.517009115580333"><ele>110.0</ele><time>2026-05-03T09:21:43Z</time></trkpt><trkpt lat="44.8508524170358" lon="8.517308433536778"><ele>110.0</ele><time>2026-05-03T09:21:44Z</time></trkpt><trkpt lat="44.850792612046845" lon="8.51761621320733"><ele>110.0</ele><time>2026-05-03T09:21:45Z</time></trkpt><trkpt lat="44.85072792207342" lon="8.517913962993195"><ele>110.0</ele><time>2026-05-03T09:21:46Z</time></trkpt><trkpt lat="44.85066421214312" lon="8.518214579269683"><ele>109.33333333333333</ele><time>2026-05-03T09:21:47Z</time></trkpt><trkpt lat="44.850607533617804" lon="8.518518416174519"><ele>108.66666666666666</ele><time>2026-05-03T09:21:48Z</time></trkpt><trkpt lat="44.850555423535084" lon="8.518827621609358"><ele>108.0</ele><time>2026-05-03T09:21:49Z</time></trkpt><trkpt lat="44.85050714659808" lon="8.519133451245892"><ele>108.0</ele><time>2026-05-03T09:21:50Z</time></trkpt><trkpt lat="44.850457458430405" lon="8.519425978073794"><ele>108.0</ele><time>2026-05-03T09:21:51Z</time></trkpt><trkpt lat="44.85042168880405" lon="8.51973688301633"><ele>108.0</ele><time>2026-05-03T09:21:52Z</time></trkpt><trkpt lat="44.85041085662369" lon="8.520038176735572"><ele>108.0</ele><time>2026-05-03T09:21:53Z</time></trkpt><trkpt lat="44.850435942923724" lon="8.52033953506653"><ele>108.0</ele><time>2026-05-03T09:21:54Z</time></trkpt><trkpt lat="44.850503537870395" lon="8.52062759573803"><ele>108.0</ele><time>2026-05-03T09:21:55Z</time></trkpt><trkpt lat="44.85059630426665" lon="8.520909333417737"><ele>108.0</ele><time>2026-05-03T09:21:56Z</time></trkpt><trkpt lat="44.850704207696396" lon="8.521182194476662"><ele>108.0</ele><time>2026-05-03T09:21:57Z</time></trkpt><trkpt lat="44.850811272868306" lon="8.521471136255267"><ele>108.0</ele><time>2026-05-03T09:21:58Z</time></trkpt><trkpt lat="44.850911556344265" lon="8.521765537708456"><ele>108.0</ele><time>2026-05-03T09:21:59Z</time></trkpt><trkpt lat="44.85101145962997" lon="8.522061477171144"><ele>108.0</ele><time>2026-05-03T09:22:00Z</time></trkpt><trkpt lat="44.851113901213424" lon="8.522365243978824"><ele>108.0</ele><time>2026-05-03T09:22:01Z</time></trkpt><trkpt lat="44.85120461922479" lon="8.522679458554956"><ele>108.5</ele><time>2026-05-03T09:22:02Z</time></trkpt><trkpt lat="44.85127470423613" lon="8.523002265824672"><ele>109.0</ele><time>2026-05-03T09:22:03Z</time></trkpt><trkpt lat="44.85132653404466" lon="8.523326046240864"><ele>109.0</ele><time>2026-05-03T09:22:04Z</time></trkpt><trkpt lat="44.851395078224435" lon="8.52365769158058"><ele>109.0</ele><time>2026-05-03T09:22:05Z</time></trkpt><trkpt lat="44.851458391437745" lon="8.523981653607285"><ele>109.0</ele><time>2026-05-03T09:22:06Z</time></trkpt><trkpt lat="44.851527066817646" lon="8.52430207786581"><ele>109.0</ele><time>2026-05-03T09:22:07Z</time></trkpt><trkpt lat="44.85159392134003" lon="8.524635770244291"><ele>109.0</ele><time>2026-05-03T09:22:08Z</time></trkpt><trkpt lat="44.85166190428738" lon="8.524973201042695"><ele>109.0</ele><time>2026-05-03T09:22:09Z</time></trkpt><trkpt lat="44.85172334018237" lon="8.525314659448744"><ele>109.0</ele><time>2026-05-03T09:22:10Z</time></trkpt><trkpt lat="44.851772124196984" lon="8.525666114327782"><ele>109.0</ele><time>2026-05-03T09:22:11Z</time></trkpt><trkpt lat="44.851808217034865" lon="8.526024519815884"><ele>108.0</ele><time>2026-05-03T09:22:12Z</time></trkpt><trkpt lat="44.851827696372965" lon="8.526382247866044"><ele>107.0</ele><time>2026-05-03T09:22:13Z</time></trkpt><trkpt lat="44.851854536187474" lon="8.52672175202422"><ele>107.0</ele><time>2026-05-03T09:22:14Z</time></trkpt><trkpt lat="44.8518809761" lon="8.52705036905174"><ele>107.0</ele><time>2026-05-03T09:22:15Z</time></trkpt><trkpt lat="44.85190067562979" lon="8.527372451732626"><ele>107.0</ele><time>2026-05-03T09:22:16Z</time></trkpt><trkpt lat="44.8519047190029" lon="8.527668717511892"><ele>107.0</ele><time>2026-05-03T09:22:17Z</time></trkpt><trkpt lat="44.851924737289835" lon="8.527951973973499"><ele>107.0</ele><time>2026-05-03T09:22:18Z</time></trkpt><trkpt lat="44.851942170920495" lon="8.528214150373431"><ele>106.66666666666666</ele><time>2026-05-03T09:22:19Z</time></trkpt><trkpt lat="44.85194799049195" lon="8.528466845213853"><ele>106.33333333333334</ele><time>2026-05-03T09:22:20Z</time></trkpt><trkpt lat="44.851951417019244" lon="8.52869971721476"><ele>106.0</ele><time>2026-05-03T09:22:21Z</time></trkpt><trkpt lat="44.8519492647711" lon="8.5289162660047"><ele>106.0</ele><time>2026-05-03T09:22:22Z</time></trkpt><trkpt lat="44.85195077580282" lon="8.529132962057389"><ele>106.0</ele><time>2026-05-03T09:22:23Z</time></trkpt><trkpt lat="44.85195367516604" lon="8.529350824054132"><ele>106.0</ele><time>2026-05-03T09:22:24Z</time></trkpt><trkpt lat="44.85196400706715" lon="8.529611457685293"><ele>106.0</ele><time>2026-05-03T09:22:25Z</time></trkpt><trkpt lat="44.851968160878045" lon="8.529895985696868"><ele>106.0</ele><time>2026-05-03T09:22:26Z</time></trkpt><trkpt lat="44.85195114911241" lon="8.530208868585252"><ele>106.0</ele><time>2026-05-03T09:22:27Z</time></trkpt><trkpt lat="44.851935298689924" lon="8.530533272266235"><ele>106.0</ele><time>2026-05-03T09:22:28Z</time></trkpt><trkpt lat="44.85193984916564" lon="8.530840840748013"><ele>106.0</ele><time>2026-05-03T09:22:29Z</time></trkpt><trkpt lat="44.85194235477427" lon="8.531158956059198"><ele>106.0</ele><time>2026-05-03T09:22:30Z</time></trkpt><trkpt lat="44.8519384504137" lon="8.531486220083021"><ele>106.0</ele><time>2026-05-03T09:22:31Z</time></trkpt><trkpt lat="44.85193228120652" lon="8.531834040792639"><ele>106.0</ele><time>2026-05-03T09:22:32Z</time></trkpt><trkpt lat="44.851930516873416" lon="8.532187545001811"><ele>106.0</ele><time>2026-05-03T09:22:33Z</time></trkpt><trkpt lat="44.85192830953768" lon="8.532565271782628"><ele>106.0</ele><time>2026-05-03T09:22:34Z</time></trkpt><trkpt lat="44.85192524502687" lon="8.532941048438259"><ele>105.5</ele><time>2026-05-03T09:22:35Z</time></trkpt><trkpt lat="44.85192531651691" lon="8.533305061997252"><ele>105.0</ele><time>2026-05-03T09:22:36Z</time></trkpt><trkpt lat="44.85192590749271" lon="8.533661198513283"><ele>106.0</ele><time>2026-05-03T09:22:37Z</time></trkpt><trkpt lat="44.851926889593294" lon="8.534020103105007"><ele>107.0</ele><time>2026-05-03T09:22:38Z</time></trkpt><trkpt lat="44.8519270290541" lon="8.534382664299644"><ele>108.0</ele><time>2026-05-03T09:22:39Z</time></trkpt><trkpt lat="44.85192903090363" lon="8.534748413130114"><ele>109.0</ele><time>2026-05-03T09:22:40Z</time></trkpt><trkpt lat="44.851925254781094" lon="8.535111007940698"><ele>108.5</ele><time>2026-05-03T09:22:41Z</time></trkpt><trkpt lat="44.85192098945731" lon="8.53546466412583"><ele>108.0</ele><time>2026-05-03T09:22:42Z</time></trkpt><trkpt lat="44.851914506186226" lon="8.535812356105458"><ele>108.0</ele><time>2026-05-03T09:22:43Z</time></trkpt><trkpt lat="44.851898789883734" lon="8.536169711149793"><ele>108.0</ele><time>2026-05-03T09:22:44Z</time></trkpt><trkpt lat="44.85186886522497" lon="8.536522948617986"><ele>107.5</ele><time>2026-05-03T09:22:45Z</time></trkpt><trkpt lat="44.85181539847248" lon="8.536855837740061"><ele>107.0</ele><time>2026-05-03T09:22:46Z</time></trkpt><trkpt lat="44.851750661390085" lon="8.53718292470053"><ele>106.5</ele><time>2026-05-03T09:22:47Z</time></trkpt><trkpt lat="44.85168575766469" lon="8.537513914969862"><ele>106.0</ele><time>2026-05-03T09:22:48Z</time></trkpt><trkpt lat="44.85162160634722" lon="8.537860155273604"><ele>105.0</ele><time>2026-05-03T09:22:49Z</time></trkpt><trkpt lat="44.85155773183957" lon="8.53822471329734"><ele>104.0</ele><time>2026-05-03T09:22:50Z</time></trkpt><trkpt lat="44.8514980046888" lon="8.538572003330355"><ele>105.0</ele><time>2026-05-03T09:22:51Z</time></trkpt><trkpt lat="44.85144046756375" lon="8.538897517466639"><ele>106.0</ele><time>2026-05-03T09:22:52Z</time></trkpt><trkpt lat="44.851389401925125" lon="8.539215354472143"><ele>106.0</ele><time>2026-05-03T09:22:53Z</time></trkpt><trkpt lat="44.85133799845346" lon="8.539502201761996"><ele>106.0</ele><time>2026-05-03T09:22:53.999Z</time></trkpt><trkpt lat="44.85129091969357" lon="8.539784151574791"><ele>106.0</ele><time>2026-05-03T09:22:54.999Z</time></trkpt><trkpt lat="44.851250856057355" lon="8.540021703541683"><ele>106.0</ele><time>2026-05-03T09:22:55.999Z</time></trkpt><trkpt lat="44.85121943649748" lon="8.54025956477714"><ele>106.0</ele><time>2026-05-03T09:22:56.999Z</time></trkpt><trkpt lat="44.85117984062949" lon="8.540461467377263"><ele>106.0</ele><time>2026-05-03T09:22:57.999Z</time></trkpt><trkpt lat="44.85114148194" lon="8.540667058496208"><ele>106.0</ele><time>2026-05-03T09:22:58.999Z</time></trkpt><trkpt lat="44.85110095292593" lon="8.540863767649972"><ele>106.0</ele><time>2026-05-03T09:22:59.999Z</time></trkpt><trkpt lat="44.851062701783526" lon="8.541063453136609"><ele>106.0</ele><time>2026-05-03T09:23:00.999Z</time></trkpt><trkpt lat="44.85101925326088" lon="8.54126069562954"><ele>106.0</ele><time>2026-05-03T09:23:01.999Z</time></trkpt><trkpt lat="44.85098295444502" lon="8.541458005064547"><ele>106.0</ele><time>2026-05-03T09:23:02.999Z</time></trkpt><trkpt lat="44.85095455485691" lon="8.541654506799107"><ele>106.0</ele><time>2026-05-03T09:23:03.999Z</time></trkpt><trkpt lat="44.850931632095396" lon="8.541832464757542"><ele>106.0</ele><time>2026-05-03T09:23:04.999Z</time></trkpt><trkpt lat="44.850918059943915" lon="8.541993817344261"><ele>106.0</ele><time>2026-05-03T09:23:05.999Z</time></trkpt><trkpt lat="44.850894542270495" lon="8.542125951861616"><ele>106.0</ele><time>2026-05-03T09:23:06.999Z</time></trkpt><trkpt lat="44.85083731749675" lon="8.542258433800493"><ele>106.0</ele><time>2026-05-03T09:23:07.999Z</time></trkpt><trkpt lat="44.850744696629725" lon="8.542361393279897"><ele>106.0</ele><time>2026-05-03T09:23:08.999Z</time></trkpt><trkpt lat="44.850649292162686" lon="8.542450006558065"><ele>106.0</ele><time>2026-05-03T09:23:09.999Z</time></trkpt><trkpt lat="44.85057905022132" lon="8.542563551830183"><ele>106.0</ele><time>2026-05-03T09:23:10.999Z</time></trkpt><trkpt lat="44.85054882404927" lon="8.542703564240723"><ele>106.0</ele><time>2026-05-03T09:23:11.999Z</time></trkpt><trkpt lat="44.85055006181915" lon="8.542838786298345"><ele>106.0</ele><time>2026-05-03T09:23:12.999Z</time></trkpt><trkpt lat="44.850572920358694" lon="8.542961426195522"><ele>106.0</ele><time>2026-05-03T09:23:13.999Z</time></trkpt><trkpt lat="44.850614388269584" lon="8.543070368902026"><ele>106.0</ele><time>2026-05-03T09:23:14.999Z</time></trkpt><trkpt lat="44.85067405589372" lon="8.543143941491978"><ele>106.0</ele><time>2026-05-03T09:23:15.999Z</time></trkpt><trkpt lat="44.85076668803609" lon="8.543192319136278"><ele>106.0</ele><time>2026-05-03T09:23:16.999Z</time></trkpt><trkpt lat="44.85087549282707" lon="8.5432082409139"><ele>106.0</ele><time>2026-05-03T09:23:17.999Z</time></trkpt><trkpt lat="44.851001412186434" lon="8.543205526855493"><ele>106.0</ele><time>2026-05-03T09:23:18.999Z</time></trkpt><trkpt lat="44.85113512889113" lon="8.54324302432396"><ele>106.0</ele><time>2026-05-03T09:23:19.999Z</time></trkpt><trkpt lat="44.85126767505199" lon="8.543278178622504"><ele>106.33333333333334</ele><time>2026-05-03T09:23:20.999Z</time></trkpt><trkpt lat="44.85136048635096" lon="8.543510675675336"><ele>106.66666666666666</ele><time>2026-05-03T09:23:21.999Z</time></trkpt><trkpt lat="44.85147712702439" lon="8.543665472008998"><ele>107.0</ele><time>2026-05-03T09:23:22.999Z</time></trkpt><trkpt lat="44.85160313593661" lon="8.543802224386459"><ele>107.0</ele><time>2026-05-03T09:23:23.999Z</time></trkpt><trkpt lat="44.851731230765346" lon="8.543921021978898"><ele>107.0</ele><time>2026-05-03T09:23:24.999Z</time></trkpt><trkpt lat="44.851868574231474" lon="8.544038942174247"><ele>107.0</ele><time>2026-05-03T09:23:25.999Z</time></trkpt><trkpt lat="44.851994300556655" lon="8.54413854967562"><ele>106.0</ele><time>2026-05-03T09:23:26.999Z</time></trkpt><trkpt lat="44.85212183707176" lon="8.54424168170805"><ele>105.0</ele><time>2026-05-03T09:23:27.999Z</time></trkpt><trkpt lat="44.85224893423467" lon="8.544354086454728"><ele>104.0</ele><time>2026-05-03T09:23:28.999Z</time></trkpt><trkpt lat="44.85236994495659" lon="8.544458640232818"><ele>103.0</ele><time>2026-05-03T09:23:29.999Z</time></trkpt><trkpt lat="44.852489418970634" lon="8.54455300417942"><ele>103.0</ele><time>2026-05-03T09:23:30.999Z</time></trkpt><trkpt lat="44.85260787563124" lon="8.54464592459861"><ele>103.0</ele><time>2026-05-03T09:23:31.999Z</time></trkpt><trkpt lat="44.85271312812783" lon="8.544729250424503"><ele>103.0</ele><time>2026-05-03T09:23:32.999Z</time></trkpt><trkpt lat="44.85277147714783" lon="8.544818165784669"><ele>103.0</ele><time>2026-05-03T09:23:33.999Z</time></trkpt><trkpt lat="44.85283196117327" lon="8.544902164707121"><ele>103.0</ele><time>2026-05-03T09:23:34.999Z</time></trkpt><trkpt lat="44.85289271464118" lon="8.544975136687604"><ele>103.0</ele><time>2026-05-03T09:23:35.999Z</time></trkpt><trkpt lat="44.85296419715626" lon="8.545035602055101"><ele>103.0</ele><time>2026-05-03T09:23:36.999Z</time></trkpt><trkpt lat="44.85304438648889" lon="8.545103432306776"><ele>103.0</ele><time>2026-05-03T09:23:37.999Z</time></trkpt><trkpt lat="44.85289219761799" lon="8.545455179533088"><ele>103.0</ele><time>2026-05-03T09:23:39.999Z</time></trkpt><trkpt lat="44.85283328720788" lon="8.54555641954441"><ele>103.0</ele><time>2026-05-03T09:23:40.999Z</time></trkpt><trkpt lat="44.85275845244707" lon="8.545660261095517"><ele>103.0</ele><time>2026-05-03T09:23:41.999Z</time></trkpt><trkpt lat="44.85268085929907" lon="8.54577688287603"><ele>103.0</ele><time>2026-05-03T09:23:42.999Z</time></trkpt><trkpt lat="44.852597441703836" lon="8.545926185588398"><ele>103.0</ele><time>2026-05-03T09:23:43.999Z</time></trkpt><trkpt lat="44.85249367596736" lon="8.546106963481627"><ele>102.75</ele><time>2026-05-03T09:23:44.999Z</time></trkpt><trkpt lat="44.85240157770142" lon="8.546258619310082"><ele>102.5</ele><time>2026-05-03T09:23:46Z</time></trkpt><trkpt lat="44.85230212559373" lon="8.546375796177456"><ele>102.25</ele><time>2026-05-03T09:23:47Z</time></trkpt><trkpt lat="44.852198539831676" lon="8.54646887707753"><ele>102.0</ele><time>2026-05-03T09:23:48Z</time></trkpt><trkpt lat="44.85208920002869" lon="8.546543377049066"><ele>102.0</ele><time>2026-05-03T09:23:49Z</time></trkpt><trkpt lat="44.851978360869914" lon="8.546566649961564"><ele>102.0</ele><time>2026-05-03T09:23:50Z</time></trkpt><trkpt lat="44.85187059465366" lon="8.546577095277375"><ele>102.0</ele><time>2026-05-03T09:23:51Z</time></trkpt><trkpt lat="44.8517652331584" lon="8.546561779768467"><ele>102.0</ele><time>2026-05-03T09:23:52Z</time></trkpt><trkpt lat="44.851659279178755" lon="8.546530271376374"><ele>102.0</ele><time>2026-05-03T09:23:53Z</time></trkpt><trkpt lat="44.8515606862943" lon="8.546439228384955"><ele>102.0</ele><time>2026-05-03T09:23:54Z</time></trkpt><trkpt lat="44.85145279388142" lon="8.546333063693195"><ele>102.0</ele><time>2026-05-03T09:23:55Z</time></trkpt><trkpt lat="44.851301816191686" lon="8.546197861243"><ele>102.0</ele><time>2026-05-03T09:23:56Z</time></trkpt><trkpt lat="44.85112208711895" lon="8.546051904133453"><ele>102.66666666666666</ele><time>2026-05-03T09:23:57Z</time></trkpt><trkpt lat="44.85093862391719" lon="8.545897175774284"><ele>103.33333333333333</ele><time>2026-05-03T09:23:58Z</time></trkpt><trkpt lat="44.85076841463695" lon="8.545717091212838"><ele>104.0</ele><time>2026-05-03T09:23:59Z</time></trkpt><trkpt lat="44.85059553779683" lon="8.545538385376773"><ele>104.5</ele><time>2026-05-03T09:24:00Z</time></trkpt><trkpt lat="44.850392665193105" lon="8.545356394447401"><ele>105.0</ele><time>2026-05-03T09:24:01Z</time></trkpt><trkpt lat="44.85019706813229" lon="8.545186754566984"><ele>104.66666666666666</ele><time>2026-05-03T09:24:02Z</time></trkpt><trkpt lat="44.85001592413288" lon="8.545034308028475"><ele>104.33333333333333</ele><time>2026-05-03T09:24:03Z</time></trkpt><trkpt lat="44.84984010764551" lon="8.544883758239036"><ele>104.0</ele><time>2026-05-03T09:24:04Z</time></trkpt><trkpt lat="44.849674617491914" lon="8.544740191472062"><ele>104.0</ele><time>2026-05-03T09:24:05Z</time></trkpt><trkpt lat="44.8495260670684" lon="8.544603390919495"><ele>104.0</ele><time>2026-05-03T09:24:06Z</time></trkpt><trkpt lat="44.84937167016639" lon="8.544476498855945"><ele>104.0</ele><time>2026-05-03T09:24:07Z</time></trkpt><trkpt lat="44.84921685160874" lon="8.5443408084723"><ele>104.0</ele><time>2026-05-03T09:24:08Z</time></trkpt><trkpt lat="44.849072927312896" lon="8.544205707762382"><ele>104.0</ele><time>2026-05-03T09:24:09Z</time></trkpt><trkpt lat="44.84892966905831" lon="8.544075308984894"><ele>104.0</ele><time>2026-05-03T09:24:10Z</time></trkpt><trkpt lat="44.848781306306016" lon="8.543953706768107"><ele>104.0</ele><time>2026-05-03T09:24:11Z</time></trkpt><trkpt lat="44.848629576045674" lon="8.543827057095687"><ele>104.0</ele><time>2026-05-03T09:24:12Z</time></trkpt><trkpt lat="44.84847540487039" lon="8.543710127088373"><ele>104.0</ele><time>2026-05-03T09:24:13Z</time></trkpt><trkpt lat="44.84831214793258" lon="8.543594278367461"><ele>103.33333333333333</ele><time>2026-05-03T09:24:14Z</time></trkpt><trkpt lat="44.84815020324789" lon="8.543484628204379"><ele>102.66666666666666</ele><time>2026-05-03T09:24:15Z</time></trkpt><trkpt lat="44.84798641475014" lon="8.543384910952811"><ele>102.0</ele><time>2026-05-03T09:24:16Z</time></trkpt><trkpt lat="44.84782354766132" lon="8.543292154655116"><ele>102.0</ele><time>2026-05-03T09:24:17Z</time></trkpt><trkpt lat="44.84767156751332" lon="8.543177243786381"><ele>102.0</ele><time>2026-05-03T09:24:18Z</time></trkpt><trkpt lat="44.847507696787176" lon="8.54309888499104"><ele>102.0</ele><time>2026-05-03T09:24:19Z</time></trkpt><trkpt lat="44.84734543923782" lon="8.543028495536975"><ele>102.0</ele><time>2026-05-03T09:24:20Z</time></trkpt><trkpt lat="44.84717075687776" lon="8.542960652536461"><ele>102.0</ele><time>2026-05-03T09:24:21Z</time></trkpt><trkpt lat="44.846991620176446" lon="8.542897591400605"><ele>102.0</ele><time>2026-05-03T09:24:22Z</time></trkpt><trkpt lat="44.84681119465789" lon="8.542840045950156"><ele>102.66666666666666</ele><time>2026-05-03T09:24:23Z</time></trkpt><trkpt lat="44.84662438313509" lon="8.542789259823847"><ele>103.33333333333333</ele><time>2026-05-03T09:24:24Z</time></trkpt><trkpt lat="44.84643568810773" lon="8.542749850397076"><ele>104.0</ele><time>2026-05-03T09:24:25Z</time></trkpt><trkpt lat="44.84624041631714" lon="8.542715659375428"><ele>104.0</ele><time>2026-05-03T09:24:26Z</time></trkpt><trkpt lat="44.84603655759999" lon="8.542688354755168"><ele>104.0</ele><time>2026-05-03T09:24:27Z</time></trkpt><trkpt lat="44.8458374548508" lon="8.542667320617216"><ele>104.0</ele><time>2026-05-03T09:24:28Z</time></trkpt><trkpt lat="44.845640879322744" lon="8.542657420352887"><ele>104.0</ele><time>2026-05-03T09:24:29Z</time></trkpt><trkpt lat="44.84543173057233" lon="8.542653589618054"><ele>104.0</ele><time>2026-05-03T09:24:30Z</time></trkpt><trkpt lat="44.845212767986226" lon="8.542660899219582"><ele>104.0</ele><time>2026-05-03T09:24:31Z</time></trkpt><trkpt lat="44.845000034071774" lon="8.542679133930548"><ele>104.0</ele><time>2026-05-03T09:24:32Z</time></trkpt><trkpt lat="44.844778210649096" lon="8.542710952515959"><ele>104.0</ele><time>2026-05-03T09:24:33Z</time></trkpt><trkpt lat="44.84456117180792" lon="8.54275402969074"><ele>104.0</ele><time>2026-05-03T09:24:34Z</time></trkpt><trkpt lat="44.84436077440169" lon="8.542799301698679"><ele>103.66666666666666</ele><time>2026-05-03T09:24:35Z</time></trkpt><trkpt lat="44.844153193836824" lon="8.54285688676865"><ele>103.33333333333334</ele><time>2026-05-03T09:24:36Z</time></trkpt><trkpt lat="44.84395528211667" lon="8.542929826999519"><ele>103.0</ele><time>2026-05-03T09:24:37Z</time></trkpt><trkpt lat="44.84375273312981" lon="8.543014192981012"><ele>103.0</ele><time>2026-05-03T09:24:38Z</time></trkpt><trkpt lat="44.84356974859689" lon="8.543105769508262"><ele>103.0</ele><time>2026-05-03T09:24:39Z</time></trkpt><trkpt lat="44.843375243771554" lon="8.543179797381406"><ele>103.0</ele><time>2026-05-03T09:24:40Z</time></trkpt><trkpt lat="44.84319473417365" lon="8.543244131103627"><ele>102.66666666666667</ele><time>2026-05-03T09:24:41Z</time></trkpt><trkpt lat="44.84301129561865" lon="8.543319443118886"><ele>102.33333333333334</ele><time>2026-05-03T09:24:42Z</time></trkpt><trkpt lat="44.84282090064769" lon="8.543382016097663"><ele>102.0</ele><time>2026-05-03T09:24:43Z</time></trkpt><trkpt lat="44.84262773784022" lon="8.54343524015678"><ele>102.66666666666666</ele><time>2026-05-03T09:24:44Z</time></trkpt><trkpt lat="44.84243370376786" lon="8.543492563378829"><ele>103.33333333333333</ele><time>2026-05-03T09:24:45Z</time></trkpt><trkpt lat="44.8422362579854" lon="8.543555603916905"><ele>104.0</ele><time>2026-05-03T09:24:46Z</time></trkpt><trkpt lat="44.84203927077958" lon="8.543611007293642"><ele>104.0</ele><time>2026-05-03T09:24:47Z</time></trkpt><trkpt lat="44.841839920355724" lon="8.54366551929779"><ele>104.0</ele><time>2026-05-03T09:24:48Z</time></trkpt><trkpt lat="44.84163928168777" lon="8.54371536196816"><ele>104.0</ele><time>2026-05-03T09:24:49Z</time></trkpt><trkpt lat="44.84143570921108" lon="8.543766359943934"><ele>103.66666666666666</ele><time>2026-05-03T09:24:50Z</time></trkpt><trkpt lat="44.84123070258529" lon="8.543825365116462"><ele>103.33333333333334</ele><time>2026-05-03T09:24:51Z</time></trkpt><trkpt lat="44.84102562445463" lon="8.543862982240038"><ele>103.0</ele><time>2026-05-03T09:24:52Z</time></trkpt><trkpt lat="44.84081285426125" lon="8.543906229097665"><ele>103.0</ele><time>2026-05-03T09:24:53Z</time></trkpt><trkpt lat="44.840588454972455" lon="8.543949023795351"><ele>103.0</ele><time>2026-05-03T09:24:54Z</time></trkpt><trkpt lat="44.840358935121365" lon="8.543988674400682"><ele>102.5</ele><time>2026-05-03T09:24:55Z</time></trkpt><trkpt lat="44.84012673489534" lon="8.544029496670055"><ele>102.0</ele><time>2026-05-03T09:24:55.999Z</time></trkpt><trkpt lat="44.83990390269388" lon="8.544051312726078"><ele>102.0</ele><time>2026-05-03T09:24:56.999Z</time></trkpt><trkpt lat="44.8396657463256" lon="8.544083680293909"><ele>102.0</ele><time>2026-05-03T09:24:57.999Z</time></trkpt><trkpt lat="44.83943832921364" lon="8.544090942388712"><ele>101.5</ele><time>2026-05-03T09:24:58.999Z</time></trkpt><trkpt lat="44.839207340199955" lon="8.54411401760223"><ele>101.0</ele><time>2026-05-03T09:24:59.999Z</time></trkpt><trkpt lat="44.838978910168734" lon="8.544131863327767"><ele>101.0</ele><time>2026-05-03T09:25:00.999Z</time></trkpt><trkpt lat="44.83875575363654" lon="8.544153628624057"><ele>101.0</ele><time>2026-05-03T09:25:01.999Z</time></trkpt><trkpt lat="44.8385389894581" lon="8.544167840166587"><ele>101.0</ele><time>2026-05-03T09:25:02.999Z</time></trkpt><trkpt lat="44.83832344904914" lon="8.544184277858372"><ele>101.0</ele><time>2026-05-03T09:25:03.999Z</time></trkpt><trkpt lat="44.83811327480965" lon="8.544187060448323"><ele>101.0</ele><time>2026-05-03T09:25:04.999Z</time></trkpt><trkpt lat="44.83790872381277" lon="8.544184938360226"><ele>101.0</ele><time>2026-05-03T09:25:05.999Z</time></trkpt><trkpt lat="44.837709006780045" lon="8.54416390976071"><ele>101.66666666666666</ele><time>2026-05-03T09:25:06.999Z</time></trkpt><trkpt lat="44.83750075836929" lon="8.544150016068635"><ele>102.33333333333334</ele><time>2026-05-03T09:25:07.999Z</time></trkpt><trkpt lat="44.83728677204538" lon="8.544139644720458"><ele>103.0</ele><time>2026-05-03T09:25:08.999Z</time></trkpt><trkpt lat="44.83707693596109" lon="8.54411694849771"><ele>103.0</ele><time>2026-05-03T09:25:09.999Z</time></trkpt><trkpt lat="44.83687544022174" lon="8.544110926930843"><ele>103.0</ele><time>2026-05-03T09:25:10.999Z</time></trkpt><trkpt lat="44.83667509123721" lon="8.544058940573189"><ele>103.0</ele><time>2026-05-03T09:25:11.999Z</time></trkpt><trkpt lat="44.83647025733501" lon="8.544015315681394"><ele>103.0</ele><time>2026-05-03T09:25:12.999Z</time></trkpt><trkpt lat="44.83626931161594" lon="8.543965322981117"><ele>103.0</ele><time>2026-05-03T09:25:13.999Z</time></trkpt><trkpt lat="44.83607103397178" lon="8.543908688846553"><ele>103.0</ele><time>2026-05-03T09:25:14.999Z</time></trkpt><trkpt lat="44.835872824298384" lon="8.543848971274208"><ele>103.66666666666667</ele><time>2026-05-03T09:25:15.999Z</time></trkpt><trkpt lat="44.83567616108949" lon="8.54379691530319"><ele>104.33333333333334</ele><time>2026-05-03T09:25:16.999Z</time></trkpt><trkpt lat="44.83547300995399" lon="8.543725684323492"><ele>105.0</ele><time>2026-05-03T09:25:17.999Z</time></trkpt><trkpt lat="44.83527092508233" lon="8.543654631103795"><ele>105.0</ele><time>2026-05-03T09:25:18.999Z</time></trkpt><trkpt lat="44.83507542338888" lon="8.54356543499159"><ele>105.0</ele><time>2026-05-03T09:25:19.999Z</time></trkpt><trkpt lat="44.834878234562375" lon="8.543483033025156"><ele>105.0</ele><time>2026-05-03T09:25:20.999Z</time></trkpt><trkpt lat="44.83467733655669" lon="8.54340151962502"><ele>105.0</ele><time>2026-05-03T09:25:21.999Z</time></trkpt><trkpt lat="44.83447195539233" lon="8.543312730937263"><ele>105.0</ele><time>2026-05-03T09:25:22.999Z</time></trkpt><trkpt lat="44.834271135475866" lon="8.543225424747579"><ele>105.0</ele><time>2026-05-03T09:25:23.999Z</time></trkpt><trkpt lat="44.834074655179634" lon="8.543133064872407"><ele>105.0</ele><time>2026-05-03T09:25:24.999Z</time></trkpt><trkpt lat="44.833875052051575" lon="8.54304547055696"><ele>105.0</ele><time>2026-05-03T09:25:25.999Z</time></trkpt><trkpt lat="44.833678450631396" lon="8.542958950431345"><ele>105.0</ele><time>2026-05-03T09:25:26.999Z</time></trkpt><trkpt lat="44.83348015548556" lon="8.542875325739617"><ele>104.33333333333334</ele><time>2026-05-03T09:25:27.999Z</time></trkpt><trkpt lat="44.83328346908573" lon="8.542791894926504"><ele>103.66666666666667</ele><time>2026-05-03T09:25:28.999Z</time></trkpt><trkpt lat="44.83308870305393" lon="8.54272465430471"><ele>103.0</ele><time>2026-05-03T09:25:29.999Z</time></trkpt><trkpt lat="44.832889371416435" lon="8.542660513464025"><ele>103.0</ele><time>2026-05-03T09:25:30.999Z</time></trkpt><trkpt lat="44.83269132116889" lon="8.54258761742253"><ele>103.0</ele><time>2026-05-03T09:25:31.999Z</time></trkpt><trkpt lat="44.8324999223115" lon="8.542530736133308"><ele>103.0</ele><time>2026-05-03T09:25:32.999Z</time></trkpt><trkpt lat="44.83231326340173" lon="8.542479823673965"><ele>103.66666666666667</ele><time>2026-05-03T09:25:33.999Z</time></trkpt><trkpt lat="44.83214045896834" lon="8.542435518892086"><ele>104.33333333333334</ele><time>2026-05-03T09:25:34.999Z</time></trkpt><trkpt lat="44.83197204933614" lon="8.542388958224088"><ele>105.0</ele><time>2026-05-03T09:25:35.999Z</time></trkpt><trkpt lat="44.831800259267204" lon="8.54235325426318"><ele>105.0</ele><time>2026-05-03T09:25:36.999Z</time></trkpt><trkpt lat="44.83162359017263" lon="8.542309519894435"><ele>105.0</ele><time>2026-05-03T09:25:37.999Z</time></trkpt><trkpt lat="44.83145109849354" lon="8.54226442447108"><ele>105.0</ele><time>2026-05-03T09:25:38.999Z</time></trkpt><trkpt lat="44.831279008955754" lon="8.542221078484648"><ele>105.0</ele><time>2026-05-03T09:25:39.999Z</time></trkpt><trkpt lat="44.83110818920415" lon="8.542177422337687"><ele>105.0</ele><time>2026-05-03T09:25:40.999Z</time></trkpt><trkpt lat="44.830934765316215" lon="8.542128157927587"><ele>105.0</ele><time>2026-05-03T09:25:41.999Z</time></trkpt><trkpt lat="44.83076177241326" lon="8.542081797328448"><ele>104.33333333333334</ele><time>2026-05-03T09:25:42.999Z</time></trkpt><trkpt lat="44.83058515336157" lon="8.542039131544321"><ele>103.66666666666667</ele><time>2026-05-03T09:25:43.999Z</time></trkpt><trkpt lat="44.83040353989345" lon="8.541998706296914"><ele>103.0</ele><time>2026-05-03T09:25:44.999Z</time></trkpt><trkpt lat="44.83022358498484" lon="8.541946776031839"><ele>103.0</ele><time>2026-05-03T09:25:45.999Z</time></trkpt><trkpt lat="44.830042855958574" lon="8.541897193098492"><ele>103.0</ele><time>2026-05-03T09:25:46.999Z</time></trkpt><trkpt lat="44.829863728076624" lon="8.541847368560344"><ele>103.0</ele><time>2026-05-03T09:25:47.999Z</time></trkpt><trkpt lat="44.82968571069312" lon="8.541801966048235"><ele>103.0</ele><time>2026-05-03T09:25:48.999Z</time></trkpt><trkpt lat="44.82949882205222" lon="8.541755761176429"><ele>103.0</ele><time>2026-05-03T09:25:49.999Z</time></trkpt><trkpt lat="44.82931264368528" lon="8.541701491654118"><ele>103.0</ele><time>2026-05-03T09:25:50.999Z</time></trkpt><trkpt lat="44.82914368155103" lon="8.541643960960426"><ele>103.66666666666667</ele><time>2026-05-03T09:25:52Z</time></trkpt><trkpt lat="44.82898011762873" lon="8.541587948470532"><ele>104.33333333333334</ele><time>2026-05-03T09:25:53Z</time></trkpt><trkpt lat="44.828834434878516" lon="8.541520942030914"><ele>105.0</ele><time>2026-05-03T09:25:54Z</time></trkpt><trkpt lat="44.828687453699764" lon="8.541460703905887"><ele>105.0</ele><time>2026-05-03T09:25:55Z</time></trkpt><trkpt lat="44.82854933062943" lon="8.541396701889251"><ele>105.0</ele><time>2026-05-03T09:25:56Z</time></trkpt><trkpt lat="44.828425970151855" lon="8.541333893438734"><ele>105.0</ele><time>2026-05-03T09:25:57Z</time></trkpt><trkpt lat="44.828318068339534" lon="8.541269606533005"><ele>105.0</ele><time>2026-05-03T09:25:58Z</time></trkpt><trkpt lat="44.828223777075344" lon="8.541178939970768"><ele>105.33333333333333</ele><time>2026-05-03T09:25:59Z</time></trkpt><trkpt lat="44.828194975613485" lon="8.541058551116675"><ele>105.66666666666666</ele><time>2026-05-03T09:26:00Z</time></trkpt><trkpt lat="44.82816644436529" lon="8.540944145821479"><ele>106.0</ele><time>2026-05-03T09:26:01Z</time></trkpt><trkpt lat="44.82815708301766" lon="8.540833867206004"><ele>106.33333333333333</ele><time>2026-05-03T09:26:02Z</time></trkpt><trkpt lat="44.828167776516445" lon="8.540728299971164"><ele>106.66666666666666</ele><time>2026-05-03T09:26:03Z</time></trkpt><trkpt lat="44.82819052737813" lon="8.54061452878929"><ele>107.0</ele><time>2026-05-03T09:26:04Z</time></trkpt><trkpt lat="44.828210554154126" lon="8.540522267687379"><ele>107.0</ele><time>2026-05-03T09:26:05Z</time></trkpt><trkpt lat="44.82823912251041" lon="8.54041271580114"><ele>107.0</ele><time>2026-05-03T09:26:07Z</time></trkpt><trkpt lat="44.828463575090176" lon="8.540413170853038"><ele>107.0</ele><time>2026-05-03T09:27:30.999Z</time></trkpt><trkpt lat="44.82855751604254" lon="8.540405308130003"><ele>107.0</ele><time>2026-05-03T09:27:31.999Z</time></trkpt><trkpt lat="44.82877541243278" lon="8.540396873771659"><ele>106.33333333333333</ele><time>2026-05-03T09:27:33.999Z</time></trkpt><trkpt lat="44.82888084947474" lon="8.540383710814858"><ele>105.66666666666666</ele><time>2026-05-03T09:27:34.999Z</time></trkpt><trkpt lat="44.82898204205092" lon="8.540359342746003"><ele>105.0</ele><time>2026-05-03T09:27:35.999Z</time></trkpt><trkpt lat="44.82925567309872" lon="8.540364106454547"><ele>105.0</ele><time>2026-05-03T09:27:38.999Z</time></trkpt><trkpt lat="44.829343030827" lon="8.540358740915202"><ele>105.0</ele><time>2026-05-03T09:27:39.999Z</time></trkpt><trkpt lat="44.82954000176074" lon="8.540346642889194"><ele>105.0</ele><time>2026-05-03T09:27:41.999Z</time></trkpt><trkpt lat="44.82963130053695" lon="8.540340715633958"><ele>105.0</ele><time>2026-05-03T09:27:42.999Z</time></trkpt><trkpt lat="44.829721521021874" lon="8.54033472395455"><ele>105.0</ele><time>2026-05-03T09:27:43.999Z</time></trkpt><trkpt lat="44.82981273291226" lon="8.54032866643294"><ele>105.0</ele><time>2026-05-03T09:27:44.999Z</time></trkpt><trkpt lat="44.82990809294814" lon="8.540322333425046"><ele>105.0</ele><time>2026-05-03T09:27:45.999Z</time></trkpt><trkpt lat="44.830024788615134" lon="8.54031460949938"><ele>105.0</ele><time>2026-05-03T09:27:46.999Z</time></trkpt><trkpt lat="44.83014732170613" lon="8.540315217911168"><ele>105.0</ele><time>2026-05-03T09:27:47.999Z</time></trkpt><trkpt lat="44.83027494289062" lon="8.540309031365696"><ele>105.0</ele><time>2026-05-03T09:27:48.999Z</time></trkpt><trkpt lat="44.830395972354985" lon="8.540294985860928"><ele>105.0</ele><time>2026-05-03T09:27:49.999Z</time></trkpt><trkpt lat="44.830518186361466" lon="8.540268752410622"><ele>105.0</ele><time>2026-05-03T09:27:50.999Z</time></trkpt><trkpt lat="44.83064932074917" lon="8.540257615368311"><ele>105.0</ele><time>2026-05-03T09:27:51.999Z</time></trkpt><trkpt lat="44.830779622510576" lon="8.540250647081644"><ele>105.0</ele><time>2026-05-03T09:27:52.999Z</time></trkpt><trkpt lat="44.830908897475844" lon="8.54024459293143"><ele>105.0</ele><time>2026-05-03T09:27:53.999Z</time></trkpt><trkpt lat="44.83103540860767" lon="8.54022936935614"><ele>105.0</ele><time>2026-05-03T09:27:54.999Z</time></trkpt><trkpt lat="44.83115906176311" lon="8.54022854647429"><ele>105.0</ele><time>2026-05-03T09:27:55.999Z</time></trkpt><trkpt lat="44.83128642520526" lon="8.54022711464261"><ele>105.75</ele><time>2026-05-03T09:27:56.999Z</time></trkpt><trkpt lat="44.83141688544676" lon="8.540216347123751"><ele>106.5</ele><time>2026-05-03T09:27:58Z</time></trkpt><trkpt lat="44.831548616170174" lon="8.540213118165639"><ele>107.25</ele><time>2026-05-03T09:27:59Z</time></trkpt><trkpt lat="44.83167874564433" lon="8.54020079258763"><ele>108.0</ele><time>2026-05-03T09:28:00Z</time></trkpt><trkpt lat="44.831784160109336" lon="8.540189511771057"><ele>108.33333333333333</ele><time>2026-05-03T09:28:01Z</time></trkpt><trkpt lat="44.831856968605805" lon="8.540201337543218"><ele>108.66666666666666</ele><time>2026-05-03T09:28:02Z</time></trkpt><trkpt lat="44.83192913018914" lon="8.540239042004332"><ele>109.0</ele><time>2026-05-03T09:28:04Z</time></trkpt><trkpt lat="44.8319187968273" lon="8.540366371096306"><ele>109.33333333333333</ele><time>2026-05-03T09:28:06Z</time></trkpt><trkpt lat="44.831900161941775" lon="8.540458630164576"><ele>109.66666666666666</ele><time>2026-05-03T09:28:09Z</time></trkpt><trkpt lat="44.831846508703514" lon="8.540515694095495"><ele>110.0</ele><time>2026-05-03T09:31:21.999Z</time></trkpt><trkpt lat="44.8317579852343" lon="8.540474434444905"><ele>108.66666666666666</ele><time>2026-05-03T09:31:36.999Z</time></trkpt><trkpt lat="44.831702481890446" lon="8.540607984626995"><ele>107.33333333333334</ele><time>2026-05-03T09:31:57.999Z</time></trkpt><trkpt lat="44.831628427790186" lon="8.540623803798384"><ele>106.0</ele><time>2026-05-03T09:32:05.999Z</time></trkpt><trkpt lat="44.831357575063684" lon="8.540672929965462"><ele>106.0</ele><time>2026-05-03T09:32:06.999Z</time></trkpt><trkpt lat="44.83150822940795" lon="8.540587412321752"><ele>106.0</ele><time>2026-05-03T09:32:09.999Z</time></trkpt><trkpt lat="44.831663613296506" lon="8.540517265875518"><ele>106.0</ele><time>2026-05-03T09:32:10.999Z</time></trkpt><trkpt lat="44.83182573925813" lon="8.54045281191485"><ele>105.83333333333334</ele><time>2026-05-03T09:32:30Z</time></trkpt><trkpt lat="44.83185921736637" lon="8.54037319471414"><ele>105.66666666666667</ele><time>2026-05-03T09:32:40Z</time></trkpt><trkpt lat="44.83187407104662" lon="8.540498099909597"><ele>105.5</ele><time>2026-05-03T09:33:06Z</time></trkpt><trkpt lat="44.831807961921605" lon="8.540485892923808"><ele>105.33333333333334</ele><time>2026-05-03T09:45:35Z</time></trkpt><trkpt lat="44.831832171068505" lon="8.540363881173779"><ele>105.16666666666667</ele><time>2026-05-03T09:45:37Z</time></trkpt><trkpt lat="44.83190331253993" lon="8.540277479274886"><ele>105.0</ele><time>2026-05-03T09:45:39Z</time></trkpt><trkpt lat="44.83192808122564" lon="8.540184683566007"><ele>105.6</ele><time>2026-05-03T09:45:44Z</time></trkpt><trkpt lat="44.83182817436488" lon="8.540154646649519"><ele>106.2</ele><time>2026-05-03T09:45:45Z</time></trkpt><trkpt lat="44.83174553118359" lon="8.540165271588794"><ele>106.80000000000001</ele><time>2026-05-03T09:45:46Z</time></trkpt><trkpt lat="44.831619357168826" lon="8.540179857918988"><ele>107.4</ele><time>2026-05-03T09:45:48Z</time></trkpt><trkpt lat="44.83154286689395" lon="8.540195055989482"><ele>108.0</ele><time>2026-05-03T09:45:49Z</time></trkpt><trkpt lat="44.83146193461093" lon="8.540192267009068"><ele>108.0</ele><time>2026-05-03T09:45:50Z</time></trkpt><trkpt lat="44.831370093409085" lon="8.540192769331176"><ele>108.00000000000001</ele><time>2026-05-03T09:45:51Z</time></trkpt><trkpt lat="44.831275405196806" lon="8.540190574369552"><ele>108.00000000000001</ele><time>2026-05-03T09:45:52Z</time></trkpt><trkpt lat="44.83118616774979" lon="8.540181212777027"><ele>108.0</ele><time>2026-05-03T09:45:53Z</time></trkpt><trkpt lat="44.83108791776621" lon="8.540199432583206"><ele>108.0</ele><time>2026-05-03T09:45:54Z</time></trkpt><trkpt lat="44.830972814446284" lon="8.540175597537143"><ele>107.4</ele><time>2026-05-03T09:45:55Z</time></trkpt><trkpt lat="44.830875422415374" lon="8.54018827311261"><ele>106.80000000000001</ele><time>2026-05-03T09:45:56Z</time></trkpt><trkpt lat="44.83076146692771" lon="8.54019380261162"><ele>106.2</ele><time>2026-05-03T09:45:57Z</time></trkpt><trkpt lat="44.83064908373755" lon="8.540211379797142"><ele>105.6</ele><time>2026-05-03T09:45:58Z</time></trkpt><trkpt lat="44.83053158888327" lon="8.540223635183013"><ele>105.0</ele><time>2026-05-03T09:45:59Z</time></trkpt><trkpt lat="44.83041752013872" lon="8.540225608186677"><ele>105.0</ele><time>2026-05-03T09:46:00Z</time></trkpt><trkpt lat="44.83029366802675" lon="8.540233563907087"><ele>105.0</ele><time>2026-05-03T09:46:01Z</time></trkpt><trkpt lat="44.830169711989456" lon="8.540241187255997"><ele>105.0</ele><time>2026-05-03T09:46:02Z</time></trkpt><trkpt lat="44.83004533531579" lon="8.540244999070856"><ele>105.0</ele><time>2026-05-03T09:46:03Z</time></trkpt><trkpt lat="44.82991675974785" lon="8.54025434712105"><ele>105.0</ele><time>2026-05-03T09:46:04Z</time></trkpt><trkpt lat="44.829780610363926" lon="8.54027211937385"><ele>105.0</ele><time>2026-05-03T09:46:05Z</time></trkpt><trkpt lat="44.82963488359184" lon="8.54031389029155"><ele>105.0</ele><time>2026-05-03T09:46:06Z</time></trkpt><trkpt lat="44.829504059184856" lon="8.540312169814614"><ele>105.0</ele><time>2026-05-03T09:46:07Z</time></trkpt><trkpt lat="44.82937162915459" lon="8.540320115977147"><ele>105.0</ele><time>2026-05-03T09:46:08Z</time></trkpt><trkpt lat="44.82924032493512" lon="8.54032779487833"><ele>105.0</ele><time>2026-05-03T09:46:09Z</time></trkpt><trkpt lat="44.82911317727429" lon="8.540341795423993"><ele>105.0</ele><time>2026-05-03T09:46:10Z</time></trkpt><trkpt lat="44.828983299931096" lon="8.540354781720715"><ele>105.0</ele><time>2026-05-03T09:46:11Z</time></trkpt><trkpt lat="44.82886204362625" lon="8.540335300218915"><ele>105.0</ele><time>2026-05-03T09:46:12Z</time></trkpt><trkpt lat="44.8287373914842" lon="8.540339903835141"><ele>105.0</ele><time>2026-05-03T09:46:13Z</time></trkpt><trkpt lat="44.828621034928794" lon="8.540346322222268"><ele>105.0</ele><time>2026-05-03T09:46:14Z</time></trkpt><trkpt lat="44.828514073108806" lon="8.540353122771736"><ele>105.0</ele><time>2026-05-03T09:46:15Z</time></trkpt><trkpt lat="44.82841542819828" lon="8.54034588190566"><ele>105.0</ele><time>2026-05-03T09:46:16Z</time></trkpt><trkpt lat="44.828335475969865" lon="8.54032776990723"><ele>105.0</ele><time>2026-05-03T09:46:17Z</time></trkpt><trkpt lat="44.828266264364764" lon="8.54034806121581"><ele>105.0</ele><time>2026-05-03T09:46:18Z</time></trkpt><trkpt lat="44.82821964020277" lon="8.540221199680765"><ele>105.0</ele><time>2026-05-03T09:46:19Z</time></trkpt><trkpt lat="44.82819068075908" lon="8.540123548434185"><ele>105.0</ele><time>2026-05-03T09:46:20Z</time></trkpt><trkpt lat="44.82818793766532" lon="8.54000849226569"><ele>105.0</ele><time>2026-05-03T09:46:21Z</time></trkpt><trkpt lat="44.82822227742663" lon="8.539873206990523"><ele>105.0</ele><time>2026-05-03T09:46:22Z</time></trkpt><trkpt lat="44.828255373004694" lon="8.539733674452197"><ele>105.0</ele><time>2026-05-03T09:46:23Z</time></trkpt><trkpt lat="44.8282565832652" lon="8.539587472476784"><ele>105.0</ele><time>2026-05-03T09:46:24Z</time></trkpt><trkpt lat="44.828239425127066" lon="8.539419707841976"><ele>105.0</ele><time>2026-05-03T09:46:25Z</time></trkpt><trkpt lat="44.82822135914044" lon="8.53925200998524"><ele>105.0</ele><time>2026-05-03T09:46:26Z</time></trkpt><trkpt lat="44.82820123485589" lon="8.539086981973385"><ele>105.0</ele><time>2026-05-03T09:46:27Z</time></trkpt><trkpt lat="44.82818303897561" lon="8.53891404285023"><ele>105.0</ele><time>2026-05-03T09:46:28Z</time></trkpt><trkpt lat="44.8281706861667" lon="8.538736461595946"><ele>105.0</ele><time>2026-05-03T09:46:29Z</time></trkpt><trkpt lat="44.82815450106769" lon="8.538556494667535"><ele>105.0</ele><time>2026-05-03T09:46:30Z</time></trkpt><trkpt lat="44.82813824574095" lon="8.538373842482015"><ele>105.0</ele><time>2026-05-03T09:46:31Z</time></trkpt><trkpt lat="44.82812153393364" lon="8.538193005345567"><ele>105.0</ele><time>2026-05-03T09:46:32Z</time></trkpt><trkpt lat="44.828090767601594" lon="8.538002797029131"><ele>105.0</ele><time>2026-05-03T09:46:33Z</time></trkpt><trkpt lat="44.8280821259313" lon="8.537825785452501"><ele>105.0</ele><time>2026-05-03T09:46:34Z</time></trkpt><trkpt lat="44.82805947883693" lon="8.53765502646517"><ele>104.75</ele><time>2026-05-03T09:46:35Z</time></trkpt><trkpt lat="44.82804422922896" lon="8.537490642815"><ele>104.5</ele><time>2026-05-03T09:46:36Z</time></trkpt><trkpt lat="44.82802879734107" lon="8.537323989903596"><ele>104.25</ele><time>2026-05-03T09:46:37Z</time></trkpt><trkpt lat="44.828014816081925" lon="8.537154814637534"><ele>104.0</ele><time>2026-05-03T09:46:38Z</time></trkpt><trkpt lat="44.82799992894268" lon="8.53698475358224"><ele>104.75</ele><time>2026-05-03T09:46:39Z</time></trkpt><trkpt lat="44.82798006073932" lon="8.536806512557261"><ele>105.5</ele><time>2026-05-03T09:46:40Z</time></trkpt><trkpt lat="44.827958873946805" lon="8.536625756642922"><ele>106.25</ele><time>2026-05-03T09:46:41Z</time></trkpt><trkpt lat="44.827932966466804" lon="8.536446997045127"><ele>107.0</ele><time>2026-05-03T09:46:42Z</time></trkpt><trkpt lat="44.827928176741466" lon="8.536277146068405"><ele>107.5</ele><time>2026-05-03T09:46:43Z</time></trkpt><trkpt lat="44.82791022614272" lon="8.53609441456706"><ele>108.0</ele><time>2026-05-03T09:46:44Z</time></trkpt><trkpt lat="44.82789322667911" lon="8.535922981955887"><ele>108.5</ele><time>2026-05-03T09:46:45Z</time></trkpt><trkpt lat="44.82787508913923" lon="8.53574007242453"><ele>109.0</ele><time>2026-05-03T09:46:46Z</time></trkpt><trkpt lat="44.827855736511594" lon="8.535551979609355"><ele>109.0</ele><time>2026-05-03T09:46:47Z</time></trkpt><trkpt lat="44.827840663900886" lon="8.535406662492814"><ele>109.0</ele><time>2026-05-03T09:46:48Z</time></trkpt><trkpt lat="44.8278218037171" lon="8.535224828870646"><ele>109.0</ele><time>2026-05-03T09:46:49Z</time></trkpt><trkpt lat="44.82780412959639" lon="8.535054430161555"><ele>109.0</ele><time>2026-05-03T09:46:50Z</time></trkpt><trkpt lat="44.82778620618467" lon="8.534881628089943"><ele>109.25</ele><time>2026-05-03T09:46:51Z</time></trkpt><trkpt lat="44.82776903895639" lon="8.53470880323656"><ele>109.5</ele><time>2026-05-03T09:46:52Z</time></trkpt><trkpt lat="44.82775182351522" lon="8.534531630558055"><ele>109.75</ele><time>2026-05-03T09:46:53Z</time></trkpt><trkpt lat="44.82771677775986" lon="8.534349629940971"><ele>110.0</ele><time>2026-05-03T09:46:54Z</time></trkpt><trkpt lat="44.82770603416992" lon="8.534172596094718"><ele>109.5</ele><time>2026-05-03T09:46:55Z</time></trkpt><trkpt lat="44.827696858263295" lon="8.533992799177396"><ele>109.0</ele><time>2026-05-03T09:46:56Z</time></trkpt><trkpt lat="44.827683574990324" lon="8.533813322494042"><ele>108.5</ele><time>2026-05-03T09:46:57Z</time></trkpt><trkpt lat="44.827665958474135" lon="8.533641325585078"><ele>108.0</ele><time>2026-05-03T09:46:58Z</time></trkpt><trkpt lat="44.82764125252296" lon="8.533465458795819"><ele>108.80000000000001</ele><time>2026-05-03T09:46:59Z</time></trkpt><trkpt lat="44.82763508023489" lon="8.533296616045675"><ele>109.60000000000001</ele><time>2026-05-03T09:47:00Z</time></trkpt><trkpt lat="44.82761878990871" lon="8.533151482266831"><ele>110.39999999999999</ele><time>2026-05-03T09:47:01Z</time></trkpt><trkpt lat="44.82759609925086" lon="8.53301773257864"><ele>111.19999999999999</ele><time>2026-05-03T09:47:02Z</time></trkpt><trkpt lat="44.82756095685693" lon="8.532891534000278"><ele>112.0</ele><time>2026-05-03T09:47:03Z</time></trkpt><trkpt lat="44.82750122670114" lon="8.532791968718264"><ele>112.16666666666667</ele><time>2026-05-03T09:47:04Z</time></trkpt><trkpt lat="44.82741997756443" lon="8.53274134908563"><ele>112.33333333333334</ele><time>2026-05-03T09:47:05Z</time></trkpt><trkpt lat="44.82732530431569" lon="8.532741273453325"><ele>112.5</ele><time>2026-05-03T09:47:06Z</time></trkpt><trkpt lat="44.827247776939146" lon="8.5327578515088"><ele>112.66666666666666</ele><time>2026-05-03T09:47:07Z</time></trkpt><trkpt lat="44.82716271410066" lon="8.532777230563822"><ele>112.83333333333333</ele><time>2026-05-03T09:47:08Z</time></trkpt><trkpt lat="44.8270920600119" lon="8.532793098869217"><ele>113.0</ele><time>2026-05-03T09:47:09Z</time></trkpt><trkpt lat="44.82700595560085" lon="8.532808702646209"><ele>113.0</ele><time>2026-05-03T09:47:10Z</time></trkpt><trkpt lat="44.82689121873849" lon="8.532694908647503"><ele>113.00000000000001</ele><time>2026-05-03T09:47:11Z</time></trkpt><trkpt lat="44.82690240018012" lon="8.532534705336776"><ele>113.00000000000001</ele><time>2026-05-03T09:47:13Z</time></trkpt><trkpt lat="44.826897280827495" lon="8.53244529660521"><ele>113.0</ele><time>2026-05-03T09:47:14Z</time></trkpt><trkpt lat="44.82689840325554" lon="8.532334210240444"><ele>113.0</ele><time>2026-05-03T09:47:16Z</time></trkpt><trkpt lat="44.82676340695759" lon="8.532337529914273"><ele>114.49999999999999</ele><time>2026-05-03T09:47:17Z</time></trkpt><trkpt lat="44.82669056707384" lon="8.532343948054825"><ele>116.0</ele><time>2026-05-03T09:47:18Z</time></trkpt><trkpt lat="44.826622139258426" lon="8.532334005417782"><ele>117.5</ele><time>2026-05-03T09:47:19Z</time></trkpt><trkpt lat="44.826550671317534" lon="8.532302083667522"><ele>119.0</ele><time>2026-05-03T09:47:20Z</time></trkpt><trkpt lat="44.82647740111655" lon="8.53226994540158"><ele>120.49999999999999</ele><time>2026-05-03T09:47:21Z</time></trkpt><trkpt lat="44.826378695011925" lon="8.532216564367165"><ele>122.0</ele><time>2026-05-03T09:47:22Z</time></trkpt><trkpt lat="44.82638012196285" lon="8.532126534972697"><ele>122.19999999999999</ele><time>2026-05-03T09:47:23Z</time></trkpt><trkpt lat="44.826337461401714" lon="8.532024033370522"><ele>122.39999999999999</ele><time>2026-05-03T09:47:24Z</time></trkpt><trkpt lat="44.82630011459931" lon="8.531917948273964"><ele>122.60000000000001</ele><time>2026-05-03T09:47:25Z</time></trkpt><trkpt lat="44.82622410976301" lon="8.531842198971754"><ele>122.80000000000001</ele><time>2026-05-03T09:47:26Z</time></trkpt><trkpt lat="44.826127462224456" lon="8.53177877584819"><ele>123.0</ele><time>2026-05-03T09:47:27Z</time></trkpt><trkpt lat="44.82603956124496" lon="8.531703032279882"><ele>123.4</ele><time>2026-05-03T09:47:28Z</time></trkpt><trkpt lat="44.82594690837898" lon="8.531648984469285"><ele>123.80000000000001</ele><time>2026-05-03T09:47:29Z</time></trkpt><trkpt lat="44.82585240841586" lon="8.531591188400824"><ele>124.2</ele><time>2026-05-03T09:47:30Z</time></trkpt><trkpt lat="44.825765055720204" lon="8.53152998747394"><ele>124.6</ele><time>2026-05-03T09:47:31Z</time></trkpt><trkpt lat="44.825675646292794" lon="8.531459715945308"><ele>125.0</ele><time>2026-05-03T09:47:32Z</time></trkpt><trkpt lat="44.82559188727864" lon="8.531394537698178"><ele>125.0</ele><time>2026-05-03T09:47:33Z</time></trkpt><trkpt lat="44.82549621029214" lon="8.531337326174324"><ele>125.0</ele><time>2026-05-03T09:47:34Z</time></trkpt><trkpt lat="44.82541158407026" lon="8.531289696922034"><ele>125.0</ele><time>2026-05-03T09:47:35Z</time></trkpt><trkpt lat="44.82532798654282" lon="8.531245269463785"><ele>125.0</ele><time>2026-05-03T09:47:36Z</time></trkpt><trkpt lat="44.82523451666408" lon="8.531197671823232"><ele>125.0</ele><time>2026-05-03T09:47:37Z</time></trkpt><trkpt lat="44.82516429261911" lon="8.531162004938706"><ele>125.2</ele><time>2026-05-03T09:47:38Z</time></trkpt><trkpt lat="44.825077983079495" lon="8.531118168166728"><ele>125.4</ele><time>2026-05-03T09:47:39Z</time></trkpt><trkpt lat="44.82498814540879" lon="8.531070515544043"><ele>125.6</ele><time>2026-05-03T09:47:40Z</time></trkpt><trkpt lat="44.8249008102464" lon="8.531021786738403"><ele>125.8</ele><time>2026-05-03T09:47:41Z</time></trkpt><trkpt lat="44.824817824488065" lon="8.530971825432871"><ele>126.0</ele><time>2026-05-03T09:47:42Z</time></trkpt><trkpt lat="44.82473171964073" lon="8.53091390141358"><ele>126.0</ele><time>2026-05-03T09:47:43Z</time></trkpt><trkpt lat="44.82462739827283" lon="8.53083233284485"><ele>126.0</ele><time>2026-05-03T09:47:44Z</time></trkpt><trkpt lat="44.824532046169715" lon="8.530749149776371"><ele>126.0</ele><time>2026-05-03T09:47:45Z</time></trkpt><trkpt lat="44.824451908166" lon="8.530675949272384"><ele>126.0</ele><time>2026-05-03T09:47:46Z</time></trkpt><trkpt lat="44.824357020425346" lon="8.53058999525695"><ele>126.0</ele><time>2026-05-03T09:47:47Z</time></trkpt><trkpt lat="44.82426279899255" lon="8.530506886758854"><ele>126.0</ele><time>2026-05-03T09:47:48Z</time></trkpt><trkpt lat="44.82416502132339" lon="8.530420641436285"><ele>126.0</ele><time>2026-05-03T09:47:49Z</time></trkpt><trkpt lat="44.82406017386981" lon="8.530327504510858"><ele>126.0</ele><time>2026-05-03T09:47:50Z</time></trkpt><trkpt lat="44.82396128818946" lon="8.530239446449915"><ele>126.0</ele><time>2026-05-03T09:47:51Z</time></trkpt><trkpt lat="44.82384411250801" lon="8.53013915925803"><ele>126.0</ele><time>2026-05-03T09:47:52Z</time></trkpt><trkpt lat="44.823747825887054" lon="8.53005789993541"><ele>126.0</ele><time>2026-05-03T09:47:53Z</time></trkpt><trkpt lat="44.823647265266" lon="8.529976533788911"><ele>126.0</ele><time>2026-05-03T09:47:54Z</time></trkpt><trkpt lat="44.823544295771484" lon="8.52989091916272"><ele>126.0</ele><time>2026-05-03T09:47:55Z</time></trkpt><trkpt lat="44.82343909833515" lon="8.529794979386255"><ele>126.0</ele><time>2026-05-03T09:47:56Z</time></trkpt><trkpt lat="44.823341115199014" lon="8.52970333780038"><ele>126.0</ele><time>2026-05-03T09:47:57Z</time></trkpt><trkpt lat="44.82324919682611" lon="8.529613126220157"><ele>126.0</ele><time>2026-05-03T09:47:58Z</time></trkpt><trkpt lat="44.82316359152317" lon="8.529518236593216"><ele>126.0</ele><time>2026-05-03T09:47:59Z</time></trkpt><trkpt lat="44.823106540256454" lon="8.52941545148917"><ele>126.0</ele><time>2026-05-03T09:48:00Z</time></trkpt><trkpt lat="44.82306409174417" lon="8.529289850272306"><ele>126.0</ele><time>2026-05-03T09:48:01Z</time></trkpt><trkpt lat="44.82302724702705" lon="8.529141669808554"><ele>126.0</ele><time>2026-05-03T09:48:02Z</time></trkpt><trkpt lat="44.82299393995753" lon="8.52897728333161"><ele>126.0</ele><time>2026-05-03T09:48:03Z</time></trkpt><trkpt lat="44.822960308318095" lon="8.528804068020781"><ele>126.0</ele><time>2026-05-03T09:48:04Z</time></trkpt><trkpt lat="44.822926991639704" lon="8.528639761238663"><ele>125.75</ele><time>2026-05-03T09:48:05Z</time></trkpt><trkpt lat="44.82288641480869" lon="8.528460202656664"><ele>125.5</ele><time>2026-05-03T09:48:06Z</time></trkpt><trkpt lat="44.822833779095234" lon="8.528277235486195"><ele>125.25</ele><time>2026-05-03T09:48:07Z</time></trkpt><trkpt lat="44.82276180880636" lon="8.5280819842172"><ele>125.0</ele><time>2026-05-03T09:48:08Z</time></trkpt><trkpt lat="44.822665713289936" lon="8.5278842155247"><ele>125.33333333333333</ele><time>2026-05-03T09:48:09Z</time></trkpt><trkpt lat="44.822588701006595" lon="8.52768862853111"><ele>125.66666666666666</ele><time>2026-05-03T09:48:10Z</time></trkpt><trkpt lat="44.82251898388355" lon="8.52748675979581"><ele>126.0</ele><time>2026-05-03T09:48:11Z</time></trkpt><trkpt lat="44.82244357484999" lon="8.527264839964923"><ele>125.33333333333334</ele><time>2026-05-03T09:48:12Z</time></trkpt><trkpt lat="44.82237232831113" lon="8.527053844591714"><ele>124.66666666666667</ele><time>2026-05-03T09:48:13Z</time></trkpt><trkpt lat="44.822307726757735" lon="8.526859586663274"><ele>124.0</ele><time>2026-05-03T09:48:14Z</time></trkpt><trkpt lat="44.822248233120604" lon="8.52664622285541"><ele>124.0</ele><time>2026-05-03T09:48:15Z</time></trkpt><trkpt lat="44.822182049196826" lon="8.52642536156654"><ele>124.0</ele><time>2026-05-03T09:48:16Z</time></trkpt><trkpt lat="44.82211624856341" lon="8.52620611459112"><ele>124.0</ele><time>2026-05-03T09:48:17Z</time></trkpt><trkpt lat="44.82204200727147" lon="8.525986326840936"><ele>123.66666666666667</ele><time>2026-05-03T09:48:18Z</time></trkpt><trkpt lat="44.82197832293382" lon="8.525757484605734"><ele>123.33333333333334</ele><time>2026-05-03T09:48:19Z</time></trkpt><trkpt lat="44.82192617781175" lon="8.525534299476943"><ele>123.0</ele><time>2026-05-03T09:48:20Z</time></trkpt><trkpt lat="44.821876542371996" lon="8.525305982599475"><ele>124.0</ele><time>2026-05-03T09:48:21Z</time></trkpt><trkpt lat="44.8218119656441" lon="8.525083830204693"><ele>125.0</ele><time>2026-05-03T09:48:22Z</time></trkpt><trkpt lat="44.82173347682734" lon="8.5248647358227"><ele>126.0</ele><time>2026-05-03T09:48:23Z</time></trkpt><trkpt lat="44.82167159409172" lon="8.524645941835345"><ele>126.0</ele><time>2026-05-03T09:48:24Z</time></trkpt><trkpt lat="44.82160366905352" lon="8.524397456046088"><ele>126.0</ele><time>2026-05-03T09:48:25Z</time></trkpt><trkpt lat="44.82152162151953" lon="8.524164045231416"><ele>126.0</ele><time>2026-05-03T09:48:26Z</time></trkpt><trkpt lat="44.8214417104819" lon="8.523942102688153"><ele>126.66666666666666</ele><time>2026-05-03T09:48:27Z</time></trkpt><trkpt lat="44.82134702576381" lon="8.52370115316613"><ele>127.33333333333333</ele><time>2026-05-03T09:48:28Z</time></trkpt><trkpt lat="44.821235375205326" lon="8.523466585558591"><ele>128.0</ele><time>2026-05-03T09:48:29Z</time></trkpt><trkpt lat="44.82113695830484" lon="8.523237039518667"><ele>128.0</ele><time>2026-05-03T09:48:30Z</time></trkpt><trkpt lat="44.82103156827065" lon="8.523014994656613"><ele>128.0</ele><time>2026-05-03T09:48:31Z</time></trkpt><trkpt lat="44.820933981202515" lon="8.5227813635917"><ele>128.0</ele><time>2026-05-03T09:48:32Z</time></trkpt><trkpt lat="44.82082953162611" lon="8.522553337998213"><ele>128.66666666666666</ele><time>2026-05-03T09:48:33Z</time></trkpt><trkpt lat="44.82073461469533" lon="8.522318099831173"><ele>129.33333333333334</ele><time>2026-05-03T09:48:34Z</time></trkpt><trkpt lat="44.8206202994528" lon="8.522098647815978"><ele>130.0</ele><time>2026-05-03T09:48:35Z</time></trkpt><trkpt lat="44.82050758278748" lon="8.52188948354928"><ele>130.33333333333334</ele><time>2026-05-03T09:48:36Z</time></trkpt><trkpt lat="44.82039453251794" lon="8.521713350991522"><ele>130.66666666666666</ele><time>2026-05-03T09:48:37Z</time></trkpt><trkpt lat="44.82029282386609" lon="8.521519012821386"><ele>131.0</ele><time>2026-05-03T09:48:38Z</time></trkpt><trkpt lat="44.82020932055686" lon="8.521309235101212"><ele>131.66666666666666</ele><time>2026-05-03T09:48:39Z</time></trkpt><trkpt lat="44.82011678049459" lon="8.521095866671562"><ele>132.33333333333334</ele><time>2026-05-03T09:48:40Z</time></trkpt><trkpt lat="44.82002061608329" lon="8.520877688118192"><ele>133.0</ele><time>2026-05-03T09:48:41Z</time></trkpt><trkpt lat="44.819905331119145" lon="8.52067069818495"><ele>133.0</ele><time>2026-05-03T09:48:42Z</time></trkpt><trkpt lat="44.81976897134387" lon="8.520499153924142"><ele>133.0</ele><time>2026-05-03T09:48:43Z</time></trkpt><trkpt lat="44.819642400878855" lon="8.520306072314845"><ele>133.0</ele><time>2026-05-03T09:48:44Z</time></trkpt><trkpt lat="44.81951538966251" lon="8.520115220892084"><ele>133.0</ele><time>2026-05-03T09:48:45Z</time></trkpt><trkpt lat="44.81939573740329" lon="8.519921333836425"><ele>133.0</ele><time>2026-05-03T09:48:46Z</time></trkpt><trkpt lat="44.81927829863038" lon="8.519734062466853"><ele>133.0</ele><time>2026-05-03T09:48:47Z</time></trkpt><trkpt lat="44.81915744738951" lon="8.519555220334855"><ele>133.33333333333334</ele><time>2026-05-03T09:48:48Z</time></trkpt><trkpt lat="44.81901538973047" lon="8.51939328619751"><ele>133.66666666666666</ele><time>2026-05-03T09:48:49Z</time></trkpt><trkpt lat="44.81886301683571" lon="8.519235962460838"><ele>134.0</ele><time>2026-05-03T09:48:50Z</time></trkpt><trkpt lat="44.818709643240815" lon="8.51907238450867"><ele>134.0</ele><time>2026-05-03T09:48:51Z</time></trkpt><trkpt lat="44.81855570995844" lon="8.518920197941725"><ele>134.0</ele><time>2026-05-03T09:48:52Z</time></trkpt><trkpt lat="44.818415794664084" lon="8.51875572066062"><ele>134.0</ele><time>2026-05-03T09:48:52.999Z</time></trkpt><trkpt lat="44.81827219973791" lon="8.518613918666883"><ele>134.66666666666666</ele><time>2026-05-03T09:48:53.999Z</time></trkpt><trkpt lat="44.81812367384231" lon="8.518489893649468"><ele>135.33333333333334</ele><time>2026-05-03T09:48:54.999Z</time></trkpt><trkpt lat="44.817981313762076" lon="8.518361573197648"><ele>136.0</ele><time>2026-05-03T09:48:55.999Z</time></trkpt><trkpt lat="44.8178356454724" lon="8.51824221754442"><ele>136.0</ele><time>2026-05-03T09:48:56.999Z</time></trkpt><trkpt lat="44.81768185288824" lon="8.518129289406826"><ele>136.0</ele><time>2026-05-03T09:48:58Z</time></trkpt><trkpt lat="44.81753293531506" lon="8.51801071296653"><ele>136.0</ele><time>2026-05-03T09:48:59Z</time></trkpt><trkpt lat="44.81738262857738" lon="8.517880853455273"><ele>136.33333333333334</ele><time>2026-05-03T09:49:00Z</time></trkpt><trkpt lat="44.8172344665249" lon="8.517719790506677"><ele>136.66666666666666</ele><time>2026-05-03T09:49:01Z</time></trkpt><trkpt lat="44.81708912006366" lon="8.517584347668368"><ele>137.0</ele><time>2026-05-03T09:49:02Z</time></trkpt><trkpt lat="44.816945571865816" lon="8.517451775889157"><ele>138.0</ele><time>2026-05-03T09:49:03Z</time></trkpt><trkpt lat="44.816799290988655" lon="8.51733767827858"><ele>139.0</ele><time>2026-05-03T09:49:04Z</time></trkpt><trkpt lat="44.816648479594534" lon="8.517237781764557"><ele>140.0</ele><time>2026-05-03T09:49:05Z</time></trkpt><trkpt lat="44.8164999376002" lon="8.517152144182747"><ele>140.0</ele><time>2026-05-03T09:49:06Z</time></trkpt><trkpt lat="44.816350041217916" lon="8.517089906400097"><ele>140.0</ele><time>2026-05-03T09:49:07Z</time></trkpt><trkpt lat="44.8161953720399" lon="8.517051167683727"><ele>140.0</ele><time>2026-05-03T09:49:08Z</time></trkpt><trkpt lat="44.81601945099859" lon="8.517002076903239"><ele>141.0</ele><time>2026-05-03T09:49:09Z</time></trkpt><trkpt lat="44.81589015769767" lon="8.516949171607003"><ele>142.0</ele><time>2026-05-03T09:49:10Z</time></trkpt><trkpt lat="44.815767132627975" lon="8.516889006805872"><ele>143.0</ele><time>2026-05-03T09:49:11Z</time></trkpt><trkpt lat="44.8156217204348" lon="8.51679933431003"><ele>144.0</ele><time>2026-05-03T09:49:12Z</time></trkpt><trkpt lat="44.81547150161753" lon="8.5166878519684"><ele>144.0</ele><time>2026-05-03T09:49:13Z</time></trkpt><trkpt lat="44.815330624299314" lon="8.516564141060416"><ele>144.0</ele><time>2026-05-03T09:49:14Z</time></trkpt><trkpt lat="44.81520905383641" lon="8.51643470568925"><ele>144.0</ele><time>2026-05-03T09:49:15Z</time></trkpt><trkpt lat="44.81510348098083" lon="8.516282816008118"><ele>144.0</ele><time>2026-05-03T09:49:16Z</time></trkpt><trkpt lat="44.81502187037176" lon="8.516110674868525"><ele>144.0</ele><time>2026-05-03T09:49:17Z</time></trkpt><trkpt lat="44.81494986522953" lon="8.51591826418224"><ele>144.0</ele><time>2026-05-03T09:49:18Z</time></trkpt><trkpt lat="44.81488892014403" lon="8.515712691761085"><ele>144.0</ele><time>2026-05-03T09:49:19Z</time></trkpt><trkpt lat="44.814824562588974" lon="8.515495112878476"><ele>144.0</ele><time>2026-05-03T09:49:20Z</time></trkpt><trkpt lat="44.81475883081421" lon="8.51527470838796"><ele>144.0</ele><time>2026-05-03T09:49:21Z</time></trkpt><trkpt lat="44.8146910691316" lon="8.515047497662813"><ele>143.66666666666666</ele><time>2026-05-03T09:49:22Z</time></trkpt><trkpt lat="44.81462267434905" lon="8.514820487478966"><ele>143.33333333333331</ele><time>2026-05-03T09:49:23Z</time></trkpt><trkpt lat="44.81454117521708" lon="8.51460315853876"><ele>143.0</ele><time>2026-05-03T09:49:24Z</time></trkpt><trkpt lat="44.8144789871462" lon="8.514368920349773"><ele>143.0</ele><time>2026-05-03T09:49:25Z</time></trkpt><trkpt lat="44.81440763147259" lon="8.51413594169066"><ele>143.0</ele><time>2026-05-03T09:49:26Z</time></trkpt><trkpt lat="44.81433363916082" lon="8.513902894995198"><ele>143.0</ele><time>2026-05-03T09:49:27Z</time></trkpt><trkpt lat="44.81425853744391" lon="8.51367354178051"><ele>143.66666666666666</ele><time>2026-05-03T09:49:28Z</time></trkpt><trkpt lat="44.81418664913513" lon="8.513435574964273"><ele>144.33333333333334</ele><time>2026-05-03T09:49:29Z</time></trkpt><trkpt lat="44.81410877998304" lon="8.51319402317186"><ele>145.0</ele><time>2026-05-03T09:49:30Z</time></trkpt><trkpt lat="44.814048529931206" lon="8.51293382110826"><ele>145.66666666666669</ele><time>2026-05-03T09:49:31Z</time></trkpt><trkpt lat="44.81398256193261" lon="8.512706884987905"><ele>146.33333333333334</ele><time>2026-05-03T09:49:32Z</time></trkpt><trkpt lat="44.8139164456068" lon="8.512487391986797"><ele>147.0</ele><time>2026-05-03T09:49:33Z</time></trkpt><trkpt lat="44.813839007687925" lon="8.512258950362437"><ele>147.33333333333334</ele><time>2026-05-03T09:49:34Z</time></trkpt><trkpt lat="44.813746979753304" lon="8.512053195029562"><ele>147.66666666666669</ele><time>2026-05-03T09:49:35Z</time></trkpt><trkpt lat="44.81363835386437" lon="8.51187154717286"><ele>148.0</ele><time>2026-05-03T09:49:36Z</time></trkpt><trkpt lat="44.81350564829126" lon="8.511680858906447"><ele>148.0</ele><time>2026-05-03T09:49:37Z</time></trkpt><trkpt lat="44.81337573956134" lon="8.511507358280964"><ele>148.0</ele><time>2026-05-03T09:49:38Z</time></trkpt><trkpt lat="44.81324386427143" lon="8.511333676285643"><ele>148.0</ele><time>2026-05-03T09:49:39Z</time></trkpt><trkpt lat="44.81309796981632" lon="8.51114287065008"><ele>148.33333333333334</ele><time>2026-05-03T09:49:40Z</time></trkpt><trkpt lat="44.81295506049245" lon="8.510968302818663"><ele>148.66666666666666</ele><time>2026-05-03T09:49:41Z</time></trkpt><trkpt lat="44.81281472088168" lon="8.510800423450881"><ele>149.0</ele><time>2026-05-03T09:49:42Z</time></trkpt><trkpt lat="44.81266992118101" lon="8.51063783922714"><ele>149.0</ele><time>2026-05-03T09:49:43Z</time></trkpt><trkpt lat="44.81253068509937" lon="8.510483536157386"><ele>149.0</ele><time>2026-05-03T09:49:44Z</time></trkpt><trkpt lat="44.81240178147929" lon="8.510349962403204"><ele>149.0</ele><time>2026-05-03T09:49:45Z</time></trkpt><trkpt lat="44.8122506703856" lon="8.510235584073081"><ele>148.33333333333331</ele><time>2026-05-03T09:49:46Z</time></trkpt><trkpt lat="44.8120917466722" lon="8.51013821227391"><ele>147.66666666666666</ele><time>2026-05-03T09:49:47Z</time></trkpt><trkpt lat="44.81193492539155" lon="8.510041220167084"><ele>147.0</ele><time>2026-05-03T09:49:48Z</time></trkpt><trkpt lat="44.81177809398689" lon="8.5099489608845"><ele>148.33333333333334</ele><time>2026-05-03T09:49:49Z</time></trkpt><trkpt lat="44.811616792439274" lon="8.50986569833168"><ele>149.66666666666669</ele><time>2026-05-03T09:49:50Z</time></trkpt><trkpt lat="44.811446298848246" lon="8.50983256638992"><ele>151.0</ele><time>2026-05-03T09:49:51Z</time></trkpt><trkpt lat="44.811283696547726" lon="8.509761888292617"><ele>151.0</ele><time>2026-05-03T09:49:52Z</time></trkpt><trkpt lat="44.81111273285968" lon="8.509690183665608"><ele>151.0</ele><time>2026-05-03T09:49:53Z</time></trkpt><trkpt lat="44.81095301484193" lon="8.50958975262682"><ele>151.0</ele><time>2026-05-03T09:49:54Z</time></trkpt><trkpt lat="44.8107867421063" lon="8.509487500795247"><ele>151.66666666666669</ele><time>2026-05-03T09:49:55Z</time></trkpt><trkpt lat="44.81062901796502" lon="8.509359613164587"><ele>152.33333333333334</ele><time>2026-05-03T09:49:56Z</time></trkpt><trkpt lat="44.81047789234606" lon="8.5092417827392"><ele>153.0</ele><time>2026-05-03T09:49:57Z</time></trkpt><trkpt lat="44.81033137472295" lon="8.509095392214128"><ele>153.0</ele><time>2026-05-03T09:49:58Z</time></trkpt><trkpt lat="44.810181335235846" lon="8.508959142481183"><ele>153.0</ele><time>2026-05-03T09:49:59Z</time></trkpt><trkpt lat="44.81003905896256" lon="8.508826004446362"><ele>153.0</ele><time>2026-05-03T09:50:00Z</time></trkpt><trkpt lat="44.809902872791" lon="8.508706812818295"><ele>154.0</ele><time>2026-05-03T09:50:01Z</time></trkpt><trkpt lat="44.809799198100066" lon="8.508550188684197"><ele>155.0</ele><time>2026-05-03T09:50:02Z</time></trkpt><trkpt lat="44.80975066875536" lon="8.508342592899973"><ele>156.0</ele><time>2026-05-03T09:50:03Z</time></trkpt><trkpt lat="44.80970288098038" lon="8.508131322020017"><ele>156.0</ele><time>2026-05-03T09:50:04Z</time></trkpt><trkpt lat="44.80964537989234" lon="8.507921666489144"><ele>156.0</ele><time>2026-05-03T09:50:05Z</time></trkpt><trkpt lat="44.809590528428" lon="8.507698016062983"><ele>156.0</ele><time>2026-05-03T09:50:06Z</time></trkpt><trkpt lat="44.809537965092474" lon="8.507460641107839"><ele>156.33333333333334</ele><time>2026-05-03T09:50:07Z</time></trkpt><trkpt lat="44.809499768056845" lon="8.50722060330908"><ele>156.66666666666669</ele><time>2026-05-03T09:50:08Z</time></trkpt><trkpt lat="44.80944245723628" lon="8.506987048581038"><ele>157.0</ele><time>2026-05-03T09:50:09Z</time></trkpt><trkpt lat="44.80937741175572" lon="8.506758856816067"><ele>158.0</ele><time>2026-05-03T09:50:10Z</time></trkpt><trkpt lat="44.80931046523164" lon="8.50652870661322"><ele>159.0</ele><time>2026-05-03T09:50:11Z</time></trkpt><trkpt lat="44.80924277925257" lon="8.506293426430249"><ele>160.0</ele><time>2026-05-03T09:50:12Z</time></trkpt><trkpt lat="44.809164476856566" lon="8.506062648368001"><ele>160.66666666666669</ele><time>2026-05-03T09:50:13Z</time></trkpt><trkpt lat="44.80907469918911" lon="8.505835765734664"><ele>161.33333333333334</ele><time>2026-05-03T09:50:14Z</time></trkpt><trkpt lat="44.8089849572265" lon="8.50563190858058"><ele>162.0</ele><time>2026-05-03T09:50:15Z</time></trkpt><trkpt lat="44.80889085717866" lon="8.505425154505334"><ele>162.0</ele><time>2026-05-03T09:50:16Z</time></trkpt><trkpt lat="44.80879350559362" lon="8.505217722156841"><ele>162.0</ele><time>2026-05-03T09:50:17Z</time></trkpt><trkpt lat="44.808692219192295" lon="8.505001905499924"><ele>162.0</ele><time>2026-05-03T09:50:18Z</time></trkpt><trkpt lat="44.80860119253954" lon="8.504809106741057"><ele>162.0</ele><time>2026-05-03T09:50:19Z</time></trkpt><trkpt lat="44.80849697626195" lon="8.504594710650833"><ele>162.0</ele><time>2026-05-03T09:50:20Z</time></trkpt><trkpt lat="44.80839097255541" lon="8.50437663909682"><ele>162.0</ele><time>2026-05-03T09:50:21Z</time></trkpt><trkpt lat="44.80828031483208" lon="8.504155449540853"><ele>162.33333333333334</ele><time>2026-05-03T09:50:22Z</time></trkpt><trkpt lat="44.80818009740271" lon="8.503954940688578"><ele>162.66666666666669</ele><time>2026-05-03T09:50:23Z</time></trkpt><trkpt lat="44.8080727503976" lon="8.503742473242307"><ele>163.0</ele><time>2026-05-03T09:50:24Z</time></trkpt><trkpt lat="44.80796720506353" lon="8.50353357164618"><ele>163.0</ele><time>2026-05-03T09:50:25Z</time></trkpt><trkpt lat="44.80786006496175" lon="8.503322523489073"><ele>163.0</ele><time>2026-05-03T09:50:26Z</time></trkpt><trkpt lat="44.807761979542875" lon="8.503131070454318"><ele>163.0</ele><time>2026-05-03T09:50:27Z</time></trkpt><trkpt lat="44.80766666893531" lon="8.502932838586679"><ele>163.66666666666669</ele><time>2026-05-03T09:50:28Z</time></trkpt><trkpt lat="44.80757100914394" lon="8.502727896447276"><ele>164.33333333333334</ele><time>2026-05-03T09:50:29Z</time></trkpt><trkpt lat="44.80747635632459" lon="8.502525348662594"><ele>165.0</ele><time>2026-05-03T09:50:30Z</time></trkpt><trkpt lat="44.80737723009877" lon="8.502318306487913"><ele>165.0</ele><time>2026-05-03T09:50:31Z</time></trkpt><trkpt lat="44.80728674486649" lon="8.502121441722954"><ele>165.0</ele><time>2026-05-03T09:50:32Z</time></trkpt><trkpt lat="44.80721002197318" lon="8.501940582448752"><ele>165.0</ele><time>2026-05-03T09:50:33Z</time></trkpt><trkpt lat="44.80713612829056" lon="8.501771770486556"><ele>165.25</ele><time>2026-05-03T09:50:34Z</time></trkpt><trkpt lat="44.807056505144075" lon="8.501602707944404"><ele>165.5</ele><time>2026-05-03T09:50:35Z</time></trkpt><trkpt lat="44.80696013487739" lon="8.501430401196245"><ele>165.75</ele><time>2026-05-03T09:50:36Z</time></trkpt><trkpt lat="44.80686438287502" lon="8.50127191694659"><ele>166.0</ele><time>2026-05-03T09:50:37Z</time></trkpt><trkpt lat="44.806765158984504" lon="8.501124721630193"><ele>166.25</ele><time>2026-05-03T09:50:38Z</time></trkpt><trkpt lat="44.80666532226706" lon="8.50097766432123"><ele>166.5</ele><time>2026-05-03T09:50:39Z</time></trkpt><trkpt lat="44.80656669434096" lon="8.500823603121352"><ele>166.75</ele><time>2026-05-03T09:50:40Z</time></trkpt><trkpt lat="44.806462151876545" lon="8.50069030923614"><ele>167.0</ele><time>2026-05-03T09:50:41Z</time></trkpt><trkpt lat="44.8063533987457" lon="8.500595838022848"><ele>167.0</ele><time>2026-05-03T09:50:42Z</time></trkpt><trkpt lat="44.80624124971524" lon="8.500552605842115"><ele>167.0</ele><time>2026-05-03T09:50:43Z</time></trkpt><trkpt lat="44.806152484157636" lon="8.500499704098097"><ele>167.0</ele><time>2026-05-03T09:50:44Z</time></trkpt><trkpt lat="44.80606665790999" lon="8.500410867185966"><ele>167.0</ele><time>2026-05-03T09:50:45Z</time></trkpt><trkpt lat="44.805992744596224" lon="8.500288637847316"><ele>167.0</ele><time>2026-05-03T09:50:46Z</time></trkpt><trkpt lat="44.80591056249849" lon="8.50014715132238"><ele>167.5</ele><time>2026-05-03T09:50:47Z</time></trkpt><trkpt lat="44.80582460317748" lon="8.500019848593272"><ele>168.0</ele><time>2026-05-03T09:50:48Z</time></trkpt><trkpt lat="44.805737194755174" lon="8.499868134108896"><ele>168.5</ele><time>2026-05-03T09:50:49Z</time></trkpt><trkpt lat="44.80564032467301" lon="8.499696277428566"><ele>169.0</ele><time>2026-05-03T09:50:50Z</time></trkpt><trkpt lat="44.80554546162852" lon="8.499533814023273"><ele>169.0</ele><time>2026-05-03T09:50:51Z</time></trkpt><trkpt lat="44.8054581221776" lon="8.499383455595117"><ele>169.0</ele><time>2026-05-03T09:50:52Z</time></trkpt><trkpt lat="44.80538235871903" lon="8.499242444920268"><ele>169.0</ele><time>2026-05-03T09:50:53Z</time></trkpt><trkpt lat="44.805309780931296" lon="8.499125279381389"><ele>169.0</ele><time>2026-05-03T09:50:54Z</time></trkpt><trkpt lat="44.805237921902176" lon="8.49902383715421"><ele>169.5</ele><time>2026-05-03T09:50:55Z</time></trkpt><trkpt lat="44.805128288523896" lon="8.498949862571319"><ele>170.0</ele><time>2026-05-03T09:50:56Z</time></trkpt><trkpt lat="44.80501703123898" lon="8.498865244702873"><ele>170.5</ele><time>2026-05-03T09:50:57Z</time></trkpt><trkpt lat="44.804899284724094" lon="8.498777912131441"><ele>171.0</ele><time>2026-05-03T09:50:58Z</time></trkpt><trkpt lat="44.80479347174909" lon="8.498678348025356"><ele>171.0</ele><time>2026-05-03T09:50:59Z</time></trkpt><trkpt lat="44.80467824205214" lon="8.498561113293743"><ele>171.0</ele><time>2026-05-03T09:51:00Z</time></trkpt><trkpt lat="44.80455967564462" lon="8.49843997356254"><ele>171.0</ele><time>2026-05-03T09:51:01Z</time></trkpt><trkpt lat="44.80444323751653" lon="8.498323027922991"><ele>171.0</ele><time>2026-05-03T09:51:02Z</time></trkpt><trkpt lat="44.804333455318904" lon="8.49821556831859"><ele>171.4</ele><time>2026-05-03T09:51:02.999Z</time></trkpt><trkpt lat="44.80423852140669" lon="8.49812264273777"><ele>171.8</ele><time>2026-05-03T09:51:04Z</time></trkpt><trkpt lat="44.804146220205624" lon="8.498039384908788"><ele>172.20000000000002</ele><time>2026-05-03T09:51:05Z</time></trkpt><trkpt lat="44.804064222123365" lon="8.497944425637066"><ele>172.60000000000002</ele><time>2026-05-03T09:51:06Z</time></trkpt><trkpt lat="44.80399087888741" lon="8.497856743726956"><ele>173.0</ele><time>2026-05-03T09:51:07Z</time></trkpt><trkpt lat="44.80392768829456" lon="8.497783997801784"><ele>173.0</ele><time>2026-05-03T09:51:08Z</time></trkpt><trkpt lat="44.803868502919386" lon="8.497733642412966"><ele>173.0</ele><time>2026-05-03T09:51:09Z</time></trkpt><trkpt lat="44.803791252664496" lon="8.497686845057169"><ele>173.0</ele><time>2026-05-03T09:51:11Z</time></trkpt><trkpt lat="44.80373226294311" lon="8.49780690854344"><ele>173.0</ele><time>2026-05-03T09:51:14Z</time></trkpt><trkpt lat="44.803700876515805" lon="8.497909187001804"><ele>173.0</ele><time>2026-05-03T09:51:15Z</time></trkpt><trkpt lat="44.80369421659234" lon="8.498008629836281"><ele>173.0</ele><time>2026-05-03T09:51:16Z</time></trkpt><trkpt lat="44.80368369382528" lon="8.498135476616175"><ele>173.0</ele><time>2026-05-03T09:51:17Z</time></trkpt><trkpt lat="44.80367298751863" lon="8.49828699669972"><ele>173.0</ele><time>2026-05-03T09:51:18Z</time></trkpt><trkpt lat="44.803660376187764" lon="8.498435883248996"><ele>173.0</ele><time>2026-05-03T09:51:19Z</time></trkpt><trkpt lat="44.80363015593858" lon="8.498561148992025"><ele>173.0</ele><time>2026-05-03T09:51:20Z</time></trkpt><trkpt lat="44.803593035558364" lon="8.498663776427462"><ele>173.0</ele><time>2026-05-03T09:51:21Z</time></trkpt><trkpt lat="44.80355706626239" lon="8.498762383212338"><ele>173.0</ele><time>2026-05-03T09:51:22Z</time></trkpt><trkpt lat="44.80351549016995" lon="8.49884483753919"><ele>173.0</ele><time>2026-05-03T09:51:23Z</time></trkpt><trkpt lat="44.80347312018" lon="8.498925100572071"><ele>173.0</ele><time>2026-05-03T09:51:24Z</time></trkpt><trkpt lat="44.80340261113083" lon="8.498999566925823"><ele>173.0</ele><time>2026-05-03T09:51:25Z</time></trkpt><trkpt lat="44.80335170366377" lon="8.49906997002339"><ele>173.0</ele><time>2026-05-03T09:51:26Z</time></trkpt><trkpt lat="44.803278582415466" lon="8.499148686523075"><ele>173.0</ele><time>2026-05-03T09:51:27Z</time></trkpt><trkpt lat="44.803208374742105" lon="8.499230032326173"><ele>172.4</ele><time>2026-05-03T09:51:28Z</time></trkpt><trkpt lat="44.80315766106664" lon="8.49934501095153"><ele>171.8</ele><time>2026-05-03T09:51:29Z</time></trkpt><trkpt lat="44.803084089789024" lon="8.499414462111867"><ele>171.2</ele><time>2026-05-03T09:51:30Z</time></trkpt><trkpt lat="44.803019575206235" lon="8.499475059659478"><ele>170.6</ele><time>2026-05-03T09:51:31Z</time></trkpt><trkpt lat="44.80289561337992" lon="8.49954795373022"><ele>170.0</ele><time>2026-05-03T09:51:33Z</time></trkpt><trkpt lat="44.80282578129678" lon="8.499591355175006"><ele>170.2</ele><time>2026-05-03T09:51:34Z</time></trkpt><trkpt lat="44.80274308894788" lon="8.499664788017343"><ele>170.4</ele><time>2026-05-03T09:51:35Z</time></trkpt><trkpt lat="44.802663494371615" lon="8.499756998812227"><ele>170.60000000000002</ele><time>2026-05-03T09:51:36Z</time></trkpt><trkpt lat="44.80257297935492" lon="8.49979922194284"><ele>170.8</ele><time>2026-05-03T09:51:37Z</time></trkpt><trkpt lat="44.80247846881329" lon="8.499869108047664"><ele>171.0</ele><time>2026-05-03T09:51:38Z</time></trkpt><trkpt lat="44.802398173667434" lon="8.499933924170636"><ele>171.0</ele><time>2026-05-03T09:51:39Z</time></trkpt><trkpt lat="44.802308124185" lon="8.500006998252479"><ele>171.0</ele><time>2026-05-03T09:51:40Z</time></trkpt><trkpt lat="44.80222051367446" lon="8.500085835729076"><ele>171.0</ele><time>2026-05-03T09:51:41Z</time></trkpt><trkpt lat="44.80213268986098" lon="8.500173593977452"><ele>171.0</ele><time>2026-05-03T09:51:42Z</time></trkpt><trkpt lat="44.80204461006782" lon="8.500278389448289"><ele>171.0</ele><time>2026-05-03T09:51:43Z</time></trkpt><trkpt lat="44.80196657659993" lon="8.500379893023595"><ele>171.0</ele><time>2026-05-03T09:51:44Z</time></trkpt><trkpt lat="44.801885765362414" lon="8.500504317055668"><ele>171.0</ele><time>2026-05-03T09:51:45Z</time></trkpt><trkpt lat="44.80180447830491" lon="8.50063243420007"><ele>171.0</ele><time>2026-05-03T09:51:46Z</time></trkpt><trkpt lat="44.80172239451639" lon="8.500739938587381"><ele>171.0</ele><time>2026-05-03T09:51:47Z</time></trkpt><trkpt lat="44.80164000401208" lon="8.500837384106568"><ele>171.4</ele><time>2026-05-03T09:51:48Z</time></trkpt><trkpt lat="44.80154224691558" lon="8.500877949980724"><ele>171.8</ele><time>2026-05-03T09:51:49Z</time></trkpt><trkpt lat="44.80143416402613" lon="8.50090016240616"><ele>172.20000000000002</ele><time>2026-05-03T09:51:50Z</time></trkpt><trkpt lat="44.801324099992385" lon="8.50094367591844"><ele>172.60000000000002</ele><time>2026-05-03T09:51:51Z</time></trkpt><trkpt lat="44.801224180244816" lon="8.500943937834244"><ele>173.0</ele><time>2026-05-03T09:51:52Z</time></trkpt><trkpt lat="44.80112820459916" lon="8.50093166964528"><ele>173.0</ele><time>2026-05-03T09:51:53Z</time></trkpt><trkpt lat="44.80104236887943" lon="8.5008843512772"><ele>173.0</ele><time>2026-05-03T09:51:54Z</time></trkpt><trkpt lat="44.80096921023361" lon="8.50088710192719"><ele>173.0</ele><time>2026-05-03T09:51:55Z</time></trkpt><trkpt lat="44.8008999071623" lon="8.500870992103614"><ele>173.0</ele><time>2026-05-03T09:51:57Z</time></trkpt><trkpt lat="44.80087915265119" lon="8.50111908697231"><ele>173.0</ele><time>2026-05-03T09:52:02Z</time></trkpt><trkpt lat="44.80091185204643" lon="8.501241359711674"><ele>173.0</ele><time>2026-05-03T09:52:03Z</time></trkpt><trkpt lat="44.800953760105074" lon="8.501348376962154"><ele>173.0</ele><time>2026-05-03T09:52:04Z</time></trkpt><trkpt lat="44.80098073455568" lon="8.501489653451264"><ele>173.0</ele><time>2026-05-03T09:52:05Z</time></trkpt><trkpt lat="44.80101298513113" lon="8.501644530987631"><ele>173.0</ele><time>2026-05-03T09:52:06Z</time></trkpt><trkpt lat="44.80104113900353" lon="8.50179680564364"><ele>173.0</ele><time>2026-05-03T09:52:07Z</time></trkpt><trkpt lat="44.80106979256432" lon="8.501957977780968"><ele>172.8</ele><time>2026-05-03T09:52:08Z</time></trkpt><trkpt lat="44.8010715556007" lon="8.502084147561796"><ele>172.60000000000002</ele><time>2026-05-03T09:52:09Z</time></trkpt><trkpt lat="44.80107655161607" lon="8.502262173659677"><ele>172.39999999999998</ele><time>2026-05-03T09:52:11Z</time></trkpt><trkpt lat="44.80110206408657" lon="8.502384971823224"><ele>172.2</ele><time>2026-05-03T09:52:12Z</time></trkpt><trkpt lat="44.80111601435141" lon="8.502533098434665"><ele>172.0</ele><time>2026-05-03T09:52:13Z</time></trkpt><trkpt lat="44.80114530213774" lon="8.502705119911978"><ele>172.0</ele><time>2026-05-03T09:52:14Z</time></trkpt><trkpt lat="44.80116328748949" lon="8.50288914108045"><ele>172.0</ele><time>2026-05-03T09:52:15Z</time></trkpt><trkpt lat="44.801181224816425" lon="8.50308919774263"><ele>172.0</ele><time>2026-05-03T09:52:16Z</time></trkpt><trkpt lat="44.80121894016441" lon="8.503290275990915"><ele>172.0</ele><time>2026-05-03T09:52:17Z</time></trkpt><trkpt lat="44.801248241439794" lon="8.503498631291809"><ele>171.66666666666669</ele><time>2026-05-03T09:52:18Z</time></trkpt><trkpt lat="44.80127174155359" lon="8.503710979754489"><ele>171.33333333333334</ele><time>2026-05-03T09:52:19Z</time></trkpt><trkpt lat="44.801311696263355" lon="8.503930909680298"><ele>171.0</ele><time>2026-05-03T09:52:20Z</time></trkpt><trkpt lat="44.80135562531968" lon="8.504163889713398"><ele>171.0</ele><time>2026-05-03T09:52:21Z</time></trkpt><trkpt lat="44.801379357313465" lon="8.50438340892023"><ele>171.0</ele><time>2026-05-03T09:52:22Z</time></trkpt><trkpt lat="44.801424287734264" lon="8.504595915680483"><ele>171.0</ele><time>2026-05-03T09:52:23Z</time></trkpt><trkpt lat="44.801446534750916" lon="8.504835716281734"><ele>171.0</ele><time>2026-05-03T09:52:24Z</time></trkpt><trkpt lat="44.801469825116584" lon="8.505078382489417"><ele>171.0</ele><time>2026-05-03T09:52:25Z</time></trkpt><trkpt lat="44.80150110702024" lon="8.505288698175612"><ele>171.0</ele><time>2026-05-03T09:52:26Z</time></trkpt><trkpt lat="44.80152312175084" lon="8.505465228726166"><ele>171.20000000000002</ele><time>2026-05-03T09:52:27Z</time></trkpt><trkpt lat="44.801545037872856" lon="8.505626608614914"><ele>171.4</ele><time>2026-05-03T09:52:28Z</time></trkpt><trkpt lat="44.801559745707515" lon="8.505760468394262"><ele>171.6</ele><time>2026-05-03T09:52:29Z</time></trkpt><trkpt lat="44.80154943813672" lon="8.505862151006006"><ele>171.8</ele><time>2026-05-03T09:52:30Z</time></trkpt><trkpt lat="44.80155558541224" lon="8.506001799102565"><ele>172.0</ele><time>2026-05-03T09:52:32Z</time></trkpt><trkpt lat="44.801556803314725" lon="8.506167217231324"><ele>172.0</ele><time>2026-05-03T09:52:35Z</time></trkpt><trkpt lat="44.80156459203637" lon="8.506258223575655"><ele>172.0</ele><time>2026-05-03T09:52:36Z</time></trkpt><trkpt lat="44.801571848214046" lon="8.506391281178686"><ele>172.0</ele><time>2026-05-03T09:52:37Z</time></trkpt><trkpt lat="44.801566633496485" lon="8.506533918959184"><ele>172.0</ele><time>2026-05-03T09:52:38Z</time></trkpt><trkpt lat="44.80155297686111" lon="8.5067060056471"><ele>172.0</ele><time>2026-05-03T09:52:39Z</time></trkpt><trkpt lat="44.80153030960652" lon="8.506878701674799"><ele>172.0</ele><time>2026-05-03T09:52:40Z</time></trkpt><trkpt lat="44.801484628158875" lon="8.507069682185692"><ele>172.0</ele><time>2026-05-03T09:52:41Z</time></trkpt><trkpt lat="44.80145168566689" lon="8.507264844286354"><ele>172.0</ele><time>2026-05-03T09:52:42Z</time></trkpt><trkpt lat="44.80141586881904" lon="8.507471280604273"><ele>172.0</ele><time>2026-05-03T09:52:43Z</time></trkpt><trkpt lat="44.801378431462574" lon="8.507687600084546"><ele>171.66666666666669</ele><time>2026-05-03T09:52:44Z</time></trkpt><trkpt lat="44.80134283644018" lon="8.507902777044235"><ele>171.33333333333334</ele><time>2026-05-03T09:52:45Z</time></trkpt><trkpt lat="44.801306826237386" lon="8.508120695475052"><ele>171.0</ele><time>2026-05-03T09:52:46Z</time></trkpt><trkpt lat="44.80127136608378" lon="8.50834442626747"><ele>171.0</ele><time>2026-05-03T09:52:47Z</time></trkpt><trkpt lat="44.80122981865322" lon="8.508559459215059"><ele>171.0</ele><time>2026-05-03T09:52:48Z</time></trkpt><trkpt lat="44.80118626514851" lon="8.50877481325154"><ele>171.0</ele><time>2026-05-03T09:52:49Z</time></trkpt><trkpt lat="44.80113630081724" lon="8.508976973173237"><ele>171.0</ele><time>2026-05-03T09:52:50Z</time></trkpt><trkpt lat="44.8010888282084" lon="8.50918445976084"><ele>171.0</ele><time>2026-05-03T09:52:51Z</time></trkpt><trkpt lat="44.80102353572482" lon="8.509389358579076"><ele>171.0</ele><time>2026-05-03T09:52:52Z</time></trkpt><trkpt lat="44.80097528513806" lon="8.509608505870968"><ele>171.0</ele><time>2026-05-03T09:52:53Z</time></trkpt><trkpt lat="44.80093066866919" lon="8.509833620896622"><ele>171.0</ele><time>2026-05-03T09:52:53.999Z</time></trkpt><trkpt lat="44.80089172660071" lon="8.510063319213685"><ele>171.0</ele><time>2026-05-03T09:52:54.999Z</time></trkpt><trkpt lat="44.80086229591866" lon="8.510319085618464"><ele>170.66666666666666</ele><time>2026-05-03T09:52:55.999Z</time></trkpt><trkpt lat="44.800836215779256" lon="8.510584558315541"><ele>170.33333333333331</ele><time>2026-05-03T09:52:56.999Z</time></trkpt><trkpt lat="44.80082451561849" lon="8.510833457588415"><ele>170.0</ele><time>2026-05-03T09:52:57.999Z</time></trkpt><trkpt lat="44.800809512643994" lon="8.51110082565253"><ele>169.33333333333331</ele><time>2026-05-03T09:52:58.999Z</time></trkpt><trkpt lat="44.80078898317107" lon="8.511374442024477"><ele>168.66666666666666</ele><time>2026-05-03T09:52:59.999Z</time></trkpt><trkpt lat="44.80076614713592" lon="8.51165113987157"><ele>168.0</ele><time>2026-05-03T09:53:00.999Z</time></trkpt><trkpt lat="44.800738043844824" lon="8.511935949762732"><ele>168.0</ele><time>2026-05-03T09:53:01.999Z</time></trkpt><trkpt lat="44.80071103167808" lon="8.512201818334704"><ele>168.0</ele><time>2026-05-03T09:53:02.999Z</time></trkpt><trkpt lat="44.80068494521193" lon="8.512469468282422"><ele>168.0</ele><time>2026-05-03T09:53:03.999Z</time></trkpt><trkpt lat="44.8006607230632" lon="8.512735640942543"><ele>167.66666666666666</ele><time>2026-05-03T09:53:04.999Z</time></trkpt><trkpt lat="44.800644550529164" lon="8.513001316384058"><ele>167.33333333333331</ele><time>2026-05-03T09:53:05.999Z</time></trkpt><trkpt lat="44.800634868848114" lon="8.513270295303165"><ele>167.0</ele><time>2026-05-03T09:53:06.999Z</time></trkpt><trkpt lat="44.8006192674026" lon="8.513540217022893"><ele>166.66666666666666</ele><time>2026-05-03T09:53:07.999Z</time></trkpt><trkpt lat="44.80060779726264" lon="8.513809545678784"><ele>166.33333333333334</ele><time>2026-05-03T09:53:08.999Z</time></trkpt><trkpt lat="44.80059728734235" lon="8.514093027943757"><ele>166.0</ele><time>2026-05-03T09:53:10Z</time></trkpt><trkpt lat="44.800605245660186" lon="8.514354133497935"><ele>165.0</ele><time>2026-05-03T09:53:11Z</time></trkpt><trkpt lat="44.800611398782834" lon="8.514609908329355"><ele>164.0</ele><time>2026-05-03T09:53:12Z</time></trkpt><trkpt lat="44.80061972803177" lon="8.51486727011807"><ele>163.0</ele><time>2026-05-03T09:53:13Z</time></trkpt><trkpt lat="44.80063586021326" lon="8.515122171012809"><ele>163.0</ele><time>2026-05-03T09:53:14Z</time></trkpt><trkpt lat="44.80064177481158" lon="8.51540058694623"><ele>163.0</ele><time>2026-05-03T09:53:15Z</time></trkpt><trkpt lat="44.80064852074928" lon="8.515669801140849"><ele>163.0</ele><time>2026-05-03T09:53:16Z</time></trkpt><trkpt lat="44.80068236374127" lon="8.515949546514717"><ele>162.33333333333334</ele><time>2026-05-03T09:53:17Z</time></trkpt><trkpt lat="44.80074329823073" lon="8.516206977875772"><ele>161.66666666666666</ele><time>2026-05-03T09:53:18Z</time></trkpt><trkpt lat="44.800813409171475" lon="8.516507677105157"><ele>161.0</ele><time>2026-05-03T09:53:19Z</time></trkpt><trkpt lat="44.80087149738614" lon="8.516798157232463"><ele>160.66666666666666</ele><time>2026-05-03T09:53:20Z</time></trkpt><trkpt lat="44.800922156454114" lon="8.51706945521772"><ele>160.33333333333334</ele><time>2026-05-03T09:53:21Z</time></trkpt><trkpt lat="44.80096932076158" lon="8.517332002465162"><ele>160.0</ele><time>2026-05-03T09:53:22Z</time></trkpt><trkpt lat="44.80101922618267" lon="8.517590658381687"><ele>159.66666666666669</ele><time>2026-05-03T09:53:23Z</time></trkpt><trkpt lat="44.80104927067795" lon="8.517824692961618"><ele>159.33333333333334</ele><time>2026-05-03T09:53:24Z</time></trkpt><trkpt lat="44.80107509414576" lon="8.518055699445512"><ele>159.0</ele><time>2026-05-03T09:53:25Z</time></trkpt><trkpt lat="44.80111124503706" lon="8.518294788570056"><ele>159.0</ele><time>2026-05-03T09:53:26Z</time></trkpt><trkpt lat="44.8011650830867" lon="8.51853373813992"><ele>159.0</ele><time>2026-05-03T09:53:27Z</time></trkpt><trkpt lat="44.801230908290314" lon="8.518765496852955"><ele>159.0</ele><time>2026-05-03T09:53:28Z</time></trkpt><trkpt lat="44.8012965774093" lon="8.518986508577772"><ele>158.66666666666666</ele><time>2026-05-03T09:53:29Z</time></trkpt><trkpt lat="44.80137913730202" lon="8.519224259445243"><ele>158.33333333333331</ele><time>2026-05-03T09:53:30Z</time></trkpt><trkpt lat="44.80145351789261" lon="8.519456095787667"><ele>158.0</ele><time>2026-05-03T09:53:31Z</time></trkpt><trkpt lat="44.80152764848435" lon="8.519688416759765"><ele>158.0</ele><time>2026-05-03T09:53:32Z</time></trkpt><trkpt lat="44.80158220191151" lon="8.519924498481874"><ele>158.0</ele><time>2026-05-03T09:53:33Z</time></trkpt><trkpt lat="44.801655052772354" lon="8.52014548277159"><ele>158.0</ele><time>2026-05-03T09:53:34Z</time></trkpt><trkpt lat="44.80172562228711" lon="8.520378252586989"><ele>157.66666666666666</ele><time>2026-05-03T09:53:35Z</time></trkpt><trkpt lat="44.80179099302104" lon="8.52060677062169"><ele>157.33333333333334</ele><time>2026-05-03T09:53:36Z</time></trkpt><trkpt lat="44.80185128244427" lon="8.520830936200262"><ele>157.0</ele><time>2026-05-03T09:53:37Z</time></trkpt><trkpt lat="44.80192142475779" lon="8.521052297659773"><ele>156.66666666666669</ele><time>2026-05-03T09:53:38Z</time></trkpt><trkpt lat="44.80198657438456" lon="8.521280498004778"><ele>156.33333333333334</ele><time>2026-05-03T09:53:39Z</time></trkpt><trkpt lat="44.802054598322336" lon="8.52150321900829"><ele>156.0</ele><time>2026-05-03T09:53:40Z</time></trkpt><trkpt lat="44.80210193229284" lon="8.521740932076419"><ele>156.0</ele><time>2026-05-03T09:53:41Z</time></trkpt><trkpt lat="44.80216033841388" lon="8.521973798534173"><ele>156.0</ele><time>2026-05-03T09:53:42Z</time></trkpt><trkpt lat="44.80223273372905" lon="8.522185662796991"><ele>156.0</ele><time>2026-05-03T09:53:43Z</time></trkpt><trkpt lat="44.802291117739074" lon="8.522416080269565"><ele>156.0</ele><time>2026-05-03T09:53:44Z</time></trkpt><trkpt lat="44.80234970649032" lon="8.522647511961258"><ele>156.0</ele><time>2026-05-03T09:53:45Z</time></trkpt><trkpt lat="44.80241227696928" lon="8.522880784549391"><ele>156.0</ele><time>2026-05-03T09:53:46Z</time></trkpt><trkpt lat="44.80246566668207" lon="8.523110944858114"><ele>156.0</ele><time>2026-05-03T09:53:47Z</time></trkpt><trkpt lat="44.80250762838139" lon="8.523355822228353"><ele>156.0</ele><time>2026-05-03T09:53:48Z</time></trkpt><trkpt lat="44.802563080443974" lon="8.523594776396802"><ele>156.0</ele><time>2026-05-03T09:53:49Z</time></trkpt><trkpt lat="44.8026202760618" lon="8.523841243767025"><ele>155.0</ele><time>2026-05-03T09:53:50Z</time></trkpt><trkpt lat="44.80267625281594" lon="8.524073272091657"><ele>154.0</ele><time>2026-05-03T09:53:51Z</time></trkpt><trkpt lat="44.80272895374234" lon="8.524291128417753"><ele>153.0</ele><time>2026-05-03T09:53:52Z</time></trkpt><trkpt lat="44.80277173564784" lon="8.524484367396468"><ele>152.5</ele><time>2026-05-03T09:53:53Z</time></trkpt><trkpt lat="44.802791485780965" lon="8.524647665499762"><ele>152.0</ele><time>2026-05-03T09:53:54Z</time></trkpt><trkpt lat="44.802783841607265" lon="8.524798184578945"><ele>151.5</ele><time>2026-05-03T09:53:55Z</time></trkpt><trkpt lat="44.80274338650045" lon="8.524945177831121"><ele>151.0</ele><time>2026-05-03T09:53:56Z</time></trkpt><trkpt lat="44.80269526086729" lon="8.525097049024705"><ele>151.25</ele><time>2026-05-03T09:53:57Z</time></trkpt><trkpt lat="44.8026507430604" lon="8.525287785078413"><ele>151.5</ele><time>2026-05-03T09:53:58Z</time></trkpt><trkpt lat="44.80257987024652" lon="8.52547833460808"><ele>151.75</ele><time>2026-05-03T09:53:59Z</time></trkpt><trkpt lat="44.802528595766226" lon="8.525663738266198"><ele>152.0</ele><time>2026-05-03T09:54:00Z</time></trkpt><trkpt lat="44.80248825090947" lon="8.525860077455725"><ele>151.33333333333331</ele><time>2026-05-03T09:54:01Z</time></trkpt><trkpt lat="44.80246740878651" lon="8.526071291888657"><ele>150.66666666666666</ele><time>2026-05-03T09:54:02Z</time></trkpt><trkpt lat="44.802470671853285" lon="8.52630329369065"><ele>150.0</ele><time>2026-05-03T09:54:03Z</time></trkpt><trkpt lat="44.80249435026312" lon="8.526524801271256"><ele>150.0</ele><time>2026-05-03T09:54:04Z</time></trkpt><trkpt lat="44.80252939823914" lon="8.526763658914481"><ele>150.0</ele><time>2026-05-03T09:54:05Z</time></trkpt><trkpt lat="44.80257286993942" lon="8.527006716841337"><ele>150.0</ele><time>2026-05-03T09:54:06Z</time></trkpt><trkpt lat="44.80262705004557" lon="8.527233457257626"><ele>150.33333333333334</ele><time>2026-05-03T09:54:07Z</time></trkpt><trkpt lat="44.80269868830542" lon="8.527460314903633"><ele>150.66666666666669</ele><time>2026-05-03T09:54:08Z</time></trkpt><trkpt lat="44.802753807354016" lon="8.527696062883912"><ele>151.0</ele><time>2026-05-03T09:54:09Z</time></trkpt><trkpt lat="44.80281619509016" lon="8.527897543327288"><ele>150.0</ele><time>2026-05-03T09:54:10Z</time></trkpt><trkpt lat="44.80287811445936" lon="8.528093750329424"><ele>149.0</ele><time>2026-05-03T09:54:11Z</time></trkpt><trkpt lat="44.80294022054046" lon="8.528287019635695"><ele>148.0</ele><time>2026-05-03T09:54:12Z</time></trkpt><trkpt lat="44.803003602672305" lon="8.528482366190996"><ele>148.0</ele><time>2026-05-03T09:54:13Z</time></trkpt><trkpt lat="44.80306495705927" lon="8.52866725766625"><ele>148.0</ele><time>2026-05-03T09:54:14Z</time></trkpt><trkpt lat="44.80313969835557" lon="8.52886040734165"><ele>148.0</ele><time>2026-05-03T09:54:15Z</time></trkpt><trkpt lat="44.80319628429124" lon="8.529045190533726"><ele>148.0</ele><time>2026-05-03T09:54:16Z</time></trkpt><trkpt lat="44.80323577808091" lon="8.529239103720874"><ele>147.75</ele><time>2026-05-03T09:54:17Z</time></trkpt><trkpt lat="44.803283151267614" lon="8.529433478009588"><ele>147.5</ele><time>2026-05-03T09:54:18Z</time></trkpt><trkpt lat="44.803314677049535" lon="8.52961046398189"><ele>147.25</ele><time>2026-05-03T09:54:19Z</time></trkpt><trkpt lat="44.80334548027987" lon="8.529779573567161"><ele>147.0</ele><time>2026-05-03T09:54:20Z</time></trkpt><trkpt lat="44.80338725495801" lon="8.529923707704416"><ele>147.25</ele><time>2026-05-03T09:54:21Z</time></trkpt><trkpt lat="44.80343269236069" lon="8.530093214512213"><ele>147.5</ele><time>2026-05-03T09:54:22Z</time></trkpt><trkpt lat="44.803474557231084" lon="8.530243318809301"><ele>147.75</ele><time>2026-05-03T09:54:23Z</time></trkpt><trkpt lat="44.803519806898656" lon="8.53038930911059"><ele>148.0</ele><time>2026-05-03T09:54:24Z</time></trkpt><trkpt lat="44.80356462889263" lon="8.530524958737596"><ele>148.0</ele><time>2026-05-03T09:54:25Z</time></trkpt><trkpt lat="44.803609983117006" lon="8.53065992226243"><ele>148.0</ele><time>2026-05-03T09:54:26Z</time></trkpt><trkpt lat="44.80364973770864" lon="8.530772781717328"><ele>148.0</ele><time>2026-05-03T09:54:27Z</time></trkpt><trkpt lat="44.80373340079395" lon="8.530922310587842"><ele>148.0</ele><time>2026-05-03T09:54:29Z</time></trkpt><trkpt lat="44.80378434121163" lon="8.530994844736169"><ele>148.0</ele><time>2026-05-03T09:54:30Z</time></trkpt><trkpt lat="44.80384312949876" lon="8.53105460177601"><ele>148.0</ele><time>2026-05-03T09:54:31Z</time></trkpt><trkpt lat="44.80390019800774" lon="8.531144173718173"><ele>148.0</ele><time>2026-05-03T09:54:32Z</time></trkpt><trkpt lat="44.80396342084857" lon="8.531210840162144"><ele>148.0</ele><time>2026-05-03T09:54:33Z</time></trkpt><trkpt lat="44.8040283997449" lon="8.53128147686544"><ele>148.0</ele><time>2026-05-03T09:54:34Z</time></trkpt><trkpt lat="44.804084512606345" lon="8.531386813082708"><ele>148.0</ele><time>2026-05-03T09:54:36Z</time></trkpt><trkpt lat="44.804113068846625" lon="8.531473917766338"><ele>148.0</ele><time>2026-05-03T09:54:37Z</time></trkpt><trkpt lat="44.80412129844871" lon="8.531568711759821"><ele>147.16666666666669</ele><time>2026-05-03T09:54:38Z</time></trkpt><trkpt lat="44.8041132697189" lon="8.531679653681248"><ele>146.33333333333334</ele><time>2026-05-03T09:54:39Z</time></trkpt><trkpt lat="44.80407748500435" lon="8.531766876684715"><ele>145.5</ele><time>2026-05-03T09:54:40Z</time></trkpt><trkpt lat="44.804034655482184" lon="8.531861292004802"><ele>144.66666666666666</ele><time>2026-05-03T09:54:41Z</time></trkpt><trkpt lat="44.80400148361669" lon="8.53197691999064"><ele>143.83333333333331</ele><time>2026-05-03T09:54:42Z</time></trkpt><trkpt lat="44.80396390149862" lon="8.532084862754989"><ele>143.0</ele><time>2026-05-03T09:54:43Z</time></trkpt><trkpt lat="44.803933690605696" lon="8.532195206840635"><ele>142.0</ele><time>2026-05-03T09:54:44Z</time></trkpt><trkpt lat="44.80389901830681" lon="8.532298485682603"><ele>141.0</ele><time>2026-05-03T09:54:45Z</time></trkpt><trkpt lat="44.80385397236471" lon="8.532370311467485"><ele>140.0</ele><time>2026-05-03T09:54:46Z</time></trkpt><trkpt lat="44.80382065945949" lon="8.532499078691679"><ele>139.0</ele><time>2026-05-03T09:54:48Z</time></trkpt><trkpt lat="44.80381702893297" lon="8.53261041408464"><ele>138.0</ele><time>2026-05-03T09:54:50Z</time></trkpt><trkpt lat="44.80387974509795" lon="8.532703209054905"><ele>137.0</ele><time>2026-05-03T09:54:51.999Z</time></trkpt><trkpt lat="44.803959677122066" lon="8.532737018190879"><ele>137.0</ele><time>2026-05-03T09:54:52.999Z</time></trkpt><trkpt lat="44.80405287868498" lon="8.532809949306447"><ele>137.0</ele><time>2026-05-03T09:54:53.999Z</time></trkpt><trkpt lat="44.804165328759424" lon="8.532832959197808"><ele>137.0</ele><time>2026-05-03T09:54:54.999Z</time></trkpt><trkpt lat="44.80427052754937" lon="8.5328751153376"><ele>137.0</ele><time>2026-05-03T09:54:55.999Z</time></trkpt><trkpt lat="44.804369472916825" lon="8.532915097034408"><ele>137.0</ele><time>2026-05-03T09:54:56.999Z</time></trkpt><trkpt lat="44.804474619434934" lon="8.532991775098367"><ele>136.25</ele><time>2026-05-03T09:54:57.999Z</time></trkpt><trkpt lat="44.8045581894922" lon="8.533070346056503"><ele>135.5</ele><time>2026-05-03T09:54:58.999Z</time></trkpt><trkpt lat="44.80461186039883" lon="8.533220989661302"><ele>134.75</ele><time>2026-05-03T09:54:59.999Z</time></trkpt><trkpt lat="44.80465744696854" lon="8.533383563224712"><ele>134.0</ele><time>2026-05-03T09:55:00.999Z</time></trkpt><trkpt lat="44.804686224032885" lon="8.533562516738188"><ele>133.5</ele><time>2026-05-03T09:55:01.999Z</time></trkpt><trkpt lat="44.804694321278355" lon="8.53375433666462"><ele>133.0</ele><time>2026-05-03T09:55:02.999Z</time></trkpt><trkpt lat="44.80468459141709" lon="8.53396179800236"><ele>132.5</ele><time>2026-05-03T09:55:03.999Z</time></trkpt><trkpt lat="44.80468437361132" lon="8.534163536621893"><ele>132.0</ele><time>2026-05-03T09:55:04.999Z</time></trkpt><trkpt lat="44.804719601339535" lon="8.534352953310323"><ele>132.0</ele><time>2026-05-03T09:55:05.999Z</time></trkpt><trkpt lat="44.804782465168714" lon="8.534531541207068"><ele>132.0</ele><time>2026-05-03T09:55:06.999Z</time></trkpt><trkpt lat="44.80484203108729" lon="8.534685715336872"><ele>132.0</ele><time>2026-05-03T09:55:07.999Z</time></trkpt><trkpt lat="44.80489716157682" lon="8.534851166956491"><ele>132.0</ele><time>2026-05-03T09:55:08.999Z</time></trkpt><trkpt lat="44.80491427624065" lon="8.535042939502123"><ele>134.33333333333334</ele><time>2026-05-03T09:55:09.999Z</time></trkpt><trkpt lat="44.80491235756063" lon="8.535258520860157"><ele>136.66666666666669</ele><time>2026-05-03T09:55:10.999Z</time></trkpt><trkpt lat="44.80487153784203" lon="8.535496041473529"><ele>139.0</ele><time>2026-05-03T09:55:11.999Z</time></trkpt><trkpt lat="44.804850236209546" lon="8.53571545690029"><ele>140.5</ele><time>2026-05-03T09:55:12.999Z</time></trkpt><trkpt lat="44.80482092638604" lon="8.535923884267158"><ele>142.0</ele><time>2026-05-03T09:55:13.999Z</time></trkpt><trkpt lat="44.80480339221638" lon="8.536130694666914"><ele>143.5</ele><time>2026-05-03T09:55:14.999Z</time></trkpt><trkpt lat="44.804794805726445" lon="8.536329084564173"><ele>145.0</ele><time>2026-05-03T09:55:16Z</time></trkpt><trkpt lat="44.80479310298277" lon="8.536520178592191"><ele>145.2</ele><time>2026-05-03T09:55:17Z</time></trkpt><trkpt lat="44.804782483901164" lon="8.536693938279644"><ele>145.4</ele><time>2026-05-03T09:55:18Z</time></trkpt><trkpt lat="44.80476966856366" lon="8.536838175885492"><ele>145.6</ele><time>2026-05-03T09:55:19Z</time></trkpt><trkpt lat="44.804759531720386" lon="8.536971037467865"><ele>145.8</ele><time>2026-05-03T09:55:20Z</time></trkpt><trkpt lat="44.804754301794645" lon="8.537073383377873"><ele>146.0</ele><time>2026-05-03T09:55:21Z</time></trkpt><trkpt lat="44.80475112686454" lon="8.53717894456098"><ele>145.5</ele><time>2026-05-03T09:55:23Z</time></trkpt><trkpt lat="44.80471378775916" lon="8.537298713870024"><ele>145.0</ele><time>2026-05-03T09:55:26Z</time></trkpt><trkpt lat="44.80455380651816" lon="8.53716961018156"><ele>144.5</ele><time>2026-05-03T09:55:28Z</time></trkpt><trkpt lat="44.80445870086902" lon="8.537130079930675"><ele>144.0</ele><time>2026-05-03T09:55:29Z</time></trkpt><trkpt lat="44.804354865713265" lon="8.537061590859345"><ele>144.75</ele><time>2026-05-03T09:55:30Z</time></trkpt><trkpt lat="44.80423091118167" lon="8.537009142105319"><ele>145.5</ele><time>2026-05-03T09:55:31Z</time></trkpt><trkpt lat="44.80410573577469" lon="8.53695635289008"><ele>146.25</ele><time>2026-05-03T09:55:32Z</time></trkpt><trkpt lat="44.80397195133006" lon="8.536899932821832"><ele>147.0</ele><time>2026-05-03T09:55:33Z</time></trkpt><trkpt lat="44.80383614956631" lon="8.536842661985299"><ele>147.0</ele><time>2026-05-03T09:55:34Z</time></trkpt><trkpt lat="44.80369728500404" lon="8.536798571790905"><ele>147.0</ele><time>2026-05-03T09:55:35Z</time></trkpt><trkpt lat="44.80356625858936" lon="8.536743044342346"><ele>147.0</ele><time>2026-05-03T09:55:36Z</time></trkpt><trkpt lat="44.80344649768163" lon="8.536695200132998"><ele>147.0</ele><time>2026-05-03T09:55:37Z</time></trkpt><trkpt lat="44.803348975459905" lon="8.536634130849059"><ele>146.66666666666666</ele><time>2026-05-03T09:55:38Z</time></trkpt><trkpt lat="44.8032599273686" lon="8.536610864745313"><ele>146.33333333333334</ele><time>2026-05-03T09:55:39Z</time></trkpt><trkpt lat="44.80317694841663" lon="8.536573115363733"><ele>146.0</ele><time>2026-05-03T09:55:40Z</time></trkpt><trkpt lat="44.803100302641354" lon="8.536540138151228"><ele>145.66666666666669</ele><time>2026-05-03T09:55:41Z</time></trkpt><trkpt lat="44.8030244284492" lon="8.536531400165053"><ele>145.33333333333334</ele><time>2026-05-03T09:55:42Z</time></trkpt><trkpt lat="44.80297019345998" lon="8.536576470027773"><ele>145.0</ele><time>2026-05-03T09:55:43Z</time></trkpt><trkpt lat="44.80293664251252" lon="8.536669601865913"><ele>145.0</ele><time>2026-05-03T09:55:44Z</time></trkpt><trkpt lat="44.802952875695894" lon="8.536779116125839"><ele>145.0</ele><time>2026-05-03T09:55:45Z</time></trkpt><trkpt lat="44.80299671550957" lon="8.536912750202625"><ele>145.0</ele><time>2026-05-03T09:55:46Z</time></trkpt><trkpt lat="44.80304172619373" lon="8.537042055187744"><ele>145.0</ele><time>2026-05-03T09:55:47Z</time></trkpt><trkpt lat="44.80307693026921" lon="8.53720197116649"><ele>145.0</ele><time>2026-05-03T09:55:48Z</time></trkpt><trkpt lat="44.80308414611693" lon="8.53734777218681"><ele>144.8</ele><time>2026-05-03T09:55:49Z</time></trkpt><trkpt lat="44.803054303654996" lon="8.537479754862671"><ele>144.6</ele><time>2026-05-03T09:55:50Z</time></trkpt><trkpt lat="44.80298697118472" lon="8.537565432689284"><ele>144.4</ele><time>2026-05-03T09:55:51Z</time></trkpt><trkpt lat="44.80289387754687" lon="8.53761356831559"><ele>144.2</ele><time>2026-05-03T09:55:52Z</time></trkpt><trkpt lat="44.80277354117955" lon="8.53762390535962"><ele>144.0</ele><time>2026-05-03T09:55:53Z</time></trkpt><trkpt lat="44.80265475521126" lon="8.537697152735527"><ele>144.0</ele><time>2026-05-03T09:55:54Z</time></trkpt><trkpt lat="44.80248659931706" lon="8.53767258994424"><ele>144.0</ele><time>2026-05-03T09:55:55Z</time></trkpt><trkpt lat="44.80233523524187" lon="8.537675673343054"><ele>144.0</ele><time>2026-05-03T09:55:56Z</time></trkpt><trkpt lat="44.802164967007606" lon="8.537673979560646"><ele>144.0</ele><time>2026-05-03T09:55:57Z</time></trkpt><trkpt lat="44.801999645664864" lon="8.537671150599973"><ele>144.0</ele><time>2026-05-03T09:55:58Z</time></trkpt><trkpt lat="44.801819488943984" lon="8.537684279675142"><ele>144.0</ele><time>2026-05-03T09:55:59Z</time></trkpt><trkpt lat="44.801633319750145" lon="8.537693853595439"><ele>144.66666666666666</ele><time>2026-05-03T09:56:00Z</time></trkpt><trkpt lat="44.801445843943554" lon="8.537698664783148"><ele>145.33333333333331</ele><time>2026-05-03T09:56:01Z</time></trkpt><trkpt lat="44.801249457495615" lon="8.537690150069745"><ele>146.0</ele><time>2026-05-03T09:56:02Z</time></trkpt><trkpt lat="44.801042869037076" lon="8.537700739625008"><ele>147.0</ele><time>2026-05-03T09:56:03Z</time></trkpt><trkpt lat="44.80084663137042" lon="8.53770269357976"><ele>148.0</ele><time>2026-05-03T09:56:04Z</time></trkpt><trkpt lat="44.80064626491055" lon="8.537709088258739"><ele>149.0</ele><time>2026-05-03T09:56:05Z</time></trkpt><trkpt lat="44.800443018740104" lon="8.537713199275165"><ele>149.0</ele><time>2026-05-03T09:56:06Z</time></trkpt><trkpt lat="44.80024156052535" lon="8.537715691847936"><ele>149.0</ele><time>2026-05-03T09:56:07Z</time></trkpt><trkpt lat="44.80003750075733" lon="8.53772585667482"><ele>149.0</ele><time>2026-05-03T09:56:08Z</time></trkpt><trkpt lat="44.79983661686433" lon="8.537731685170534"><ele>149.66666666666666</ele><time>2026-05-03T09:56:09Z</time></trkpt><trkpt lat="44.7996343804457" lon="8.537739428812342"><ele>150.33333333333334</ele><time>2026-05-03T09:56:10Z</time></trkpt><trkpt lat="44.79943388814771" lon="8.53774668569546"><ele>151.0</ele><time>2026-05-03T09:56:11Z</time></trkpt><trkpt lat="44.799235764703404" lon="8.53773156501569"><ele>151.33333333333334</ele><time>2026-05-03T09:56:12Z</time></trkpt><trkpt lat="44.799041832333415" lon="8.537761057629835"><ele>151.66666666666666</ele><time>2026-05-03T09:56:13Z</time></trkpt><trkpt lat="44.79885157745584" lon="8.537777223552915"><ele>152.0</ele><time>2026-05-03T09:56:14Z</time></trkpt><trkpt lat="44.79866629085842" lon="8.537805032200705"><ele>151.33333333333331</ele><time>2026-05-03T09:56:15Z</time></trkpt><trkpt lat="44.79846896604787" lon="8.53785589711321"><ele>150.66666666666666</ele><time>2026-05-03T09:56:16Z</time></trkpt><trkpt lat="44.798289465130104" lon="8.537920674850982"><ele>150.0</ele><time>2026-05-03T09:56:17Z</time></trkpt><trkpt lat="44.79810288972762" lon="8.538000493977776"><ele>149.66666666666666</ele><time>2026-05-03T09:56:18Z</time></trkpt><trkpt lat="44.79790965932482" lon="8.538103527680095"><ele>149.33333333333331</ele><time>2026-05-03T09:56:19Z</time></trkpt><trkpt lat="44.79772837007886" lon="8.538216808283607"><ele>149.0</ele><time>2026-05-03T09:56:20Z</time></trkpt><trkpt lat="44.79755156203409" lon="8.538344653881897"><ele>147.0</ele><time>2026-05-03T09:56:21Z</time></trkpt><trkpt lat="44.797370387764424" lon="8.538461131019902"><ele>145.0</ele><time>2026-05-03T09:56:22Z</time></trkpt><trkpt lat="44.79718888549336" lon="8.538583056206784"><ele>143.0</ele><time>2026-05-03T09:56:23Z</time></trkpt><trkpt lat="44.79698801274271" lon="8.538726819345742"><ele>139.66666666666666</ele><time>2026-05-03T09:56:24Z</time></trkpt><trkpt lat="44.79680746524572" lon="8.538857530986954"><ele>136.33333333333334</ele><time>2026-05-03T09:56:25Z</time></trkpt><trkpt lat="44.79662232831673" lon="8.538991121928088"><ele>133.0</ele><time>2026-05-03T09:56:26Z</time></trkpt><trkpt lat="44.79644786959672" lon="8.53911691559807"><ele>133.0</ele><time>2026-05-03T09:56:27Z</time></trkpt><trkpt lat="44.796265577711935" lon="8.53924835765667"><ele>133.0</ele><time>2026-05-03T09:56:28Z</time></trkpt><trkpt lat="44.79607918288676" lon="8.53938275782891"><ele>133.0</ele><time>2026-05-03T09:56:29Z</time></trkpt><trkpt lat="44.79589925577641" lon="8.539512494521086"><ele>130.33333333333334</ele><time>2026-05-03T09:56:30Z</time></trkpt><trkpt lat="44.7957291109652" lon="8.539635177714576"><ele>127.66666666666666</ele><time>2026-05-03T09:56:31Z</time></trkpt><trkpt lat="44.79554728486237" lon="8.539766157381147"><ele>125.0</ele><time>2026-05-03T09:56:32Z</time></trkpt><trkpt lat="44.79536252837323" lon="8.5399000673759"><ele>125.0</ele><time>2026-05-03T09:56:33Z</time></trkpt><trkpt lat="44.795179519226494" lon="8.54003327181843"><ele>125.0</ele><time>2026-05-03T09:56:34Z</time></trkpt><trkpt lat="44.79500402202213" lon="8.54016165355127"><ele>125.0</ele><time>2026-05-03T09:56:35Z</time></trkpt><trkpt lat="44.79482396358367" lon="8.540292210163946"><ele>123.33333333333333</ele><time>2026-05-03T09:56:36Z</time></trkpt><trkpt lat="44.79464118416165" lon="8.540420196843128"><ele>121.66666666666666</ele><time>2026-05-03T09:56:37Z</time></trkpt><trkpt lat="44.794451108804175" lon="8.54053777030544"><ele>120.0</ele><time>2026-05-03T09:56:38Z</time></trkpt><trkpt lat="44.79427177186428" lon="8.540638312598954"><ele>120.0</ele><time>2026-05-03T09:56:39Z</time></trkpt><trkpt lat="44.79408453057873" lon="8.540727879168093"><ele>120.0</ele><time>2026-05-03T09:56:40Z</time></trkpt><trkpt lat="44.793893729458375" lon="8.540806179041368"><ele>120.0</ele><time>2026-05-03T09:56:41Z</time></trkpt><trkpt lat="44.79370125629951" lon="8.540874568417639"><ele>120.0</ele><time>2026-05-03T09:56:42Z</time></trkpt><trkpt lat="44.7935068081312" lon="8.540928132021724"><ele>120.0</ele><time>2026-05-03T09:56:43Z</time></trkpt><trkpt lat="44.793299099141606" lon="8.540970014908831"><ele>120.0</ele><time>2026-05-03T09:56:44Z</time></trkpt><trkpt lat="44.793090884955966" lon="8.540998571868396"><ele>119.0</ele><time>2026-05-03T09:56:45Z</time></trkpt><trkpt lat="44.79288286816993" lon="8.541017472068985"><ele>118.0</ele><time>2026-05-03T09:56:46Z</time></trkpt><trkpt lat="44.79267401238754" lon="8.541021634680225"><ele>117.0</ele><time>2026-05-03T09:56:47Z</time></trkpt><trkpt lat="44.79246101115219" lon="8.541031975141987"><ele>117.0</ele><time>2026-05-03T09:56:48Z</time></trkpt><trkpt lat="44.79224320475822" lon="8.541004069023238"><ele>117.0</ele><time>2026-05-03T09:56:49Z</time></trkpt><trkpt lat="44.792021613832176" lon="8.540947773418413"><ele>117.0</ele><time>2026-05-03T09:56:50Z</time></trkpt><trkpt lat="44.79180184297804" lon="8.540892743142194"><ele>118.0</ele><time>2026-05-03T09:56:51Z</time></trkpt><trkpt lat="44.791587926409505" lon="8.540814754155578"><ele>119.0</ele><time>2026-05-03T09:56:52Z</time></trkpt><trkpt lat="44.79137027170032" lon="8.540725329855496"><ele>120.0</ele><time>2026-05-03T09:56:53Z</time></trkpt><trkpt lat="44.791144481971834" lon="8.540639040831886"><ele>119.0</ele><time>2026-05-03T09:56:54Z</time></trkpt><trkpt lat="44.79091332048326" lon="8.540551824293225"><ele>118.0</ele><time>2026-05-03T09:56:55Z</time></trkpt><trkpt lat="44.790678300496474" lon="8.540463152257104"><ele>121.0</ele><time>2026-05-03T09:56:56Z</time></trkpt><trkpt lat="44.79044534186863" lon="8.540373456286517"><ele>124.0</ele><time>2026-05-03T09:56:57Z</time></trkpt><trkpt lat="44.79021147667851" lon="8.540282707895193"><ele>121.0</ele><time>2026-05-03T09:56:58Z</time></trkpt><trkpt lat="44.78997675975026" lon="8.540191629047493"><ele>118.0</ele><time>2026-05-03T09:56:59Z</time></trkpt><trkpt lat="44.789747836692776" lon="8.540102798430963"><ele>118.0</ele><time>2026-05-03T09:57:00Z</time></trkpt><trkpt lat="44.78951893885387" lon="8.540014829167417"><ele>118.0</ele><time>2026-05-03T09:57:01Z</time></trkpt><trkpt lat="44.789299119404475" lon="8.539930602649624"><ele>117.33333333333334</ele><time>2026-05-03T09:57:01.999Z</time></trkpt><trkpt lat="44.7890734731437" lon="8.53984414355463"><ele>116.66666666666666</ele><time>2026-05-03T09:57:02.999Z</time></trkpt><trkpt lat="44.788865081500546" lon="8.539769144290114"><ele>116.0</ele><time>2026-05-03T09:57:03.999Z</time></trkpt><trkpt lat="44.78865068811356" lon="8.539684984558974"><ele>115.66666666666666</ele><time>2026-05-03T09:57:04.999Z</time></trkpt><trkpt lat="44.788445362195134" lon="8.539620390943407"><ele>115.33333333333334</ele><time>2026-05-03T09:57:05.999Z</time></trkpt><trkpt lat="44.788241751284865" lon="8.539516717527086"><ele>115.0</ele><time>2026-05-03T09:57:06.999Z</time></trkpt><trkpt lat="44.788034836424075" lon="8.53945980495192"><ele>115.0</ele><time>2026-05-03T09:57:07.999Z</time></trkpt><trkpt lat="44.787839631469566" lon="8.539383765718883"><ele>115.0</ele><time>2026-05-03T09:57:08.999Z</time></trkpt><trkpt lat="44.78764972168364" lon="8.539301323620027"><ele>115.0</ele><time>2026-05-03T09:57:09.999Z</time></trkpt><trkpt lat="44.787455142571964" lon="8.539221871562148"><ele>115.0</ele><time>2026-05-03T09:57:10.999Z</time></trkpt><trkpt lat="44.78725112562979" lon="8.53915544106414"><ele>115.0</ele><time>2026-05-03T09:57:11.999Z</time></trkpt><trkpt lat="44.7870580520393" lon="8.539076188898452"><ele>115.0</ele><time>2026-05-03T09:57:12.999Z</time></trkpt><trkpt lat="44.786871029792955" lon="8.53900286054103"><ele>115.0</ele><time>2026-05-03T09:57:13.999Z</time></trkpt><trkpt lat="44.786691794442866" lon="8.53891774244651"><ele>115.0</ele><time>2026-05-03T09:57:14.999Z</time></trkpt><trkpt lat="44.78651424899194" lon="8.538852232087626"><ele>115.0</ele><time>2026-05-03T09:57:15.999Z</time></trkpt><trkpt lat="44.786332878780875" lon="8.538794556615391"><ele>115.0</ele><time>2026-05-03T09:57:16.999Z</time></trkpt><trkpt lat="44.786161196071674" lon="8.538726568053493"><ele>115.0</ele><time>2026-05-03T09:57:17.999Z</time></trkpt><trkpt lat="44.78598928751993" lon="8.538670695214753"><ele>115.0</ele><time>2026-05-03T09:57:18.999Z</time></trkpt><trkpt lat="44.78582106273964" lon="8.538603128340924"><ele>114.66666666666667</ele><time>2026-05-03T09:57:19.999Z</time></trkpt><trkpt lat="44.78566279592258" lon="8.538515732910653"><ele>114.33333333333334</ele><time>2026-05-03T09:57:20.999Z</time></trkpt><trkpt lat="44.78549903790097" lon="8.53847238249078"><ele>114.0</ele><time>2026-05-03T09:57:22Z</time></trkpt><trkpt lat="44.78534466699049" lon="8.538387981899826"><ele>114.0</ele><time>2026-05-03T09:57:23Z</time></trkpt><trkpt lat="44.78517812738967" lon="8.538346065277825"><ele>114.0</ele><time>2026-05-03T09:57:24Z</time></trkpt><trkpt lat="44.785015005529374" lon="8.538282616302668"><ele>114.0</ele><time>2026-05-03T09:57:25Z</time></trkpt><trkpt lat="44.78485135680767" lon="8.53822348768261"><ele>114.0</ele><time>2026-05-03T09:57:26Z</time></trkpt><trkpt lat="44.7846871398631" lon="8.538164220149602"><ele>114.0</ele><time>2026-05-03T09:57:27Z</time></trkpt><trkpt lat="44.78452600670432" lon="8.538100527635892"><ele>114.0</ele><time>2026-05-03T09:57:28Z</time></trkpt><trkpt lat="44.78436452502126" lon="8.538037579285678"><ele>115.0</ele><time>2026-05-03T09:57:29Z</time></trkpt><trkpt lat="44.784205516670994" lon="8.537966987365442"><ele>116.0</ele><time>2026-05-03T09:57:30Z</time></trkpt><trkpt lat="44.78404594676249" lon="8.537892769086179"><ele>117.0</ele><time>2026-05-03T09:57:31Z</time></trkpt><trkpt lat="44.783879803278374" lon="8.537835727011112"><ele>117.0</ele><time>2026-05-03T09:57:32Z</time></trkpt><trkpt lat="44.78372701608688" lon="8.537773604187967"><ele>117.0</ele><time>2026-05-03T09:57:33Z</time></trkpt><trkpt lat="44.78357071233569" lon="8.537723996356714"><ele>117.0</ele><time>2026-05-03T09:57:34Z</time></trkpt><trkpt lat="44.78341986787598" lon="8.53766597048357"><ele>117.0</ele><time>2026-05-03T09:57:35Z</time></trkpt><trkpt lat="44.783277621712784" lon="8.537604458771389"><ele>117.0</ele><time>2026-05-03T09:57:36Z</time></trkpt><trkpt lat="44.783128701781564" lon="8.537549743157165"><ele>117.0</ele><time>2026-05-03T09:57:37Z</time></trkpt><trkpt lat="44.78297812250639" lon="8.537490215081334"><ele>117.0</ele><time>2026-05-03T09:57:38Z</time></trkpt><trkpt lat="44.782834396066804" lon="8.537431660982083"><ele>117.0</ele><time>2026-05-03T09:57:39Z</time></trkpt><trkpt lat="44.78268483006544" lon="8.537372235925602"><ele>117.0</ele><time>2026-05-03T09:57:40Z</time></trkpt><trkpt lat="44.78253810164305" lon="8.537310369098643"><ele>116.66666666666666</ele><time>2026-05-03T09:57:41Z</time></trkpt><trkpt lat="44.78239044493557" lon="8.537258409432829"><ele>116.33333333333333</ele><time>2026-05-03T09:57:42Z</time></trkpt><trkpt lat="44.78224334875596" lon="8.537197263225778"><ele>116.0</ele><time>2026-05-03T09:57:43Z</time></trkpt><trkpt lat="44.78209533137532" lon="8.537147185684871"><ele>116.0</ele><time>2026-05-03T09:57:44Z</time></trkpt><trkpt lat="44.7819439086992" lon="8.537092611419219"><ele>116.0</ele><time>2026-05-03T09:57:45Z</time></trkpt><trkpt lat="44.781797547345974" lon="8.537039608689069"><ele>116.0</ele><time>2026-05-03T09:57:46Z</time></trkpt><trkpt lat="44.7816479802163" lon="8.536986931714265"><ele>117.0</ele><time>2026-05-03T09:57:47Z</time></trkpt><trkpt lat="44.78151094574606" lon="8.536928800901407"><ele>118.0</ele><time>2026-05-03T09:57:48Z</time></trkpt><trkpt lat="44.78137472658036" lon="8.536875006341171"><ele>119.0</ele><time>2026-05-03T09:57:49Z</time></trkpt><trkpt lat="44.78124042819458" lon="8.536830705361579"><ele>120.0</ele><time>2026-05-03T09:57:50Z</time></trkpt><trkpt lat="44.78112034062517" lon="8.53678288737963"><ele>120.25</ele><time>2026-05-03T09:57:51Z</time></trkpt><trkpt lat="44.78099488242011" lon="8.536737759985398"><ele>120.5</ele><time>2026-05-03T09:57:52Z</time></trkpt><trkpt lat="44.780864780701684" lon="8.536709110099146"><ele>120.75</ele><time>2026-05-03T09:57:53Z</time></trkpt><trkpt lat="44.78073120041982" lon="8.536699625930144"><ele>121.0</ele><time>2026-05-03T09:57:54Z</time></trkpt><trkpt lat="44.78059643611526" lon="8.536702119566328"><ele>121.0</ele><time>2026-05-03T09:57:55Z</time></trkpt><trkpt lat="44.7804548546269" lon="8.53672036402725"><ele>121.0</ele><time>2026-05-03T09:57:56Z</time></trkpt><trkpt lat="44.78031161406163" lon="8.53674293893786"><ele>121.0</ele><time>2026-05-03T09:57:57Z</time></trkpt><trkpt lat="44.780165441264415" lon="8.536777301383205"><ele>121.0</ele><time>2026-05-03T09:57:58Z</time></trkpt><trkpt lat="44.78002900456677" lon="8.536819367286569"><ele>120.75</ele><time>2026-05-03T09:57:59Z</time></trkpt><trkpt lat="44.779906991138176" lon="8.536835575924957"><ele>120.5</ele><time>2026-05-03T09:58:00Z</time></trkpt><trkpt lat="44.77978609033433" lon="8.53686372299817"><ele>120.25</ele><time>2026-05-03T09:58:01Z</time></trkpt><trkpt lat="44.779671188388335" lon="8.536896211355891"><ele>120.0</ele><time>2026-05-03T09:58:02Z</time></trkpt><trkpt lat="44.77955843062709" lon="8.536919904683298"><ele>120.0</ele><time>2026-05-03T09:58:03Z</time></trkpt><trkpt lat="44.7794453352655" lon="8.536946388466609"><ele>120.0</ele><time>2026-05-03T09:58:04Z</time></trkpt><trkpt lat="44.779334294086006" lon="8.536972424827205"><ele>120.0</ele><time>2026-05-03T09:58:05Z</time></trkpt><trkpt lat="44.7792170494292" lon="8.537004916171536"><ele>120.0</ele><time>2026-05-03T09:58:06Z</time></trkpt><trkpt lat="44.77910504145649" lon="8.537041170648237"><ele>119.5</ele><time>2026-05-03T09:58:07Z</time></trkpt><trkpt lat="44.77899230852448" lon="8.537081983865695"><ele>119.0</ele><time>2026-05-03T09:58:08Z</time></trkpt><trkpt lat="44.77887289002541" lon="8.537135531573918"><ele>118.5</ele><time>2026-05-03T09:58:09Z</time></trkpt><trkpt lat="44.77875749890611" lon="8.537176449358501"><ele>118.0</ele><time>2026-05-03T09:58:10Z</time></trkpt><trkpt lat="44.778646869330196" lon="8.5372133790667"><ele>118.0</ele><time>2026-05-03T09:58:11Z</time></trkpt><trkpt lat="44.77853645042862" lon="8.53725254991791"><ele>118.0</ele><time>2026-05-03T09:58:12Z</time></trkpt><trkpt lat="44.7784276486037" lon="8.537279159648806"><ele>118.0</ele><time>2026-05-03T09:58:13Z</time></trkpt><trkpt lat="44.778316276427425" lon="8.537320915773867"><ele>118.0</ele><time>2026-05-03T09:58:14Z</time></trkpt><trkpt lat="44.778196692037184" lon="8.537363492040907"><ele>118.0</ele><time>2026-05-03T09:58:15Z</time></trkpt><trkpt lat="44.77808210637293" lon="8.537404470620153"><ele>118.0</ele><time>2026-05-03T09:58:16Z</time></trkpt><trkpt lat="44.77796202753636" lon="8.53745158137925"><ele>118.0</ele><time>2026-05-03T09:58:17Z</time></trkpt><trkpt lat="44.77783868321549" lon="8.537505951179304"><ele>118.0</ele><time>2026-05-03T09:58:18Z</time></trkpt><trkpt lat="44.77771458533386" lon="8.537557876445682"><ele>118.5</ele><time>2026-05-03T09:58:19Z</time></trkpt><trkpt lat="44.77758821363819" lon="8.537606202038091"><ele>119.0</ele><time>2026-05-03T09:58:20Z</time></trkpt><trkpt lat="44.777453609163864" lon="8.537659463903694"><ele>119.5</ele><time>2026-05-03T09:58:21Z</time></trkpt><trkpt lat="44.777320724436024" lon="8.537704881689448"><ele>120.0</ele><time>2026-05-03T09:58:22Z</time></trkpt><trkpt lat="44.7771891362178" lon="8.537753322850504"><ele>120.0</ele><time>2026-05-03T09:58:23Z</time></trkpt><trkpt lat="44.77705544241652" lon="8.537798784162558"><ele>120.0</ele><time>2026-05-03T09:58:24Z</time></trkpt><trkpt lat="44.77691960073299" lon="8.537850883935924"><ele>120.0</ele><time>2026-05-03T09:58:25Z</time></trkpt><trkpt lat="44.7767803530125" lon="8.537898596883464"><ele>120.0</ele><time>2026-05-03T09:58:26Z</time></trkpt><trkpt lat="44.776637669615965" lon="8.537940497085346"><ele>119.75</ele><time>2026-05-03T09:58:27Z</time></trkpt><trkpt lat="44.77649625813087" lon="8.537960563116238"><ele>119.5</ele><time>2026-05-03T09:58:28Z</time></trkpt><trkpt lat="44.77634589277644" lon="8.537999930537943"><ele>119.25</ele><time>2026-05-03T09:58:29Z</time></trkpt><trkpt lat="44.77620544270289" lon="8.538009248443826"><ele>119.0</ele><time>2026-05-03T09:58:30Z</time></trkpt><trkpt lat="44.776049775059306" lon="8.538021654322092"><ele>118.75</ele><time>2026-05-03T09:58:31Z</time></trkpt><trkpt lat="44.77589164107905" lon="8.538033081823425"><ele>118.5</ele><time>2026-05-03T09:58:32Z</time></trkpt><trkpt lat="44.7757431167887" lon="8.538027463358892"><ele>118.25</ele><time>2026-05-03T09:58:33Z</time></trkpt><trkpt lat="44.77560292861006" lon="8.537991162825316"><ele>118.0</ele><time>2026-05-03T09:58:34Z</time></trkpt><trkpt lat="44.775451380155104" lon="8.538006819855374"><ele>118.0</ele><time>2026-05-03T09:58:35Z</time></trkpt><trkpt lat="44.77529995186754" lon="8.53797970010233"><ele>118.0</ele><time>2026-05-03T09:58:36Z</time></trkpt><trkpt lat="44.77515062397413" lon="8.53795172778795"><ele>118.0</ele><time>2026-05-03T09:58:37Z</time></trkpt><trkpt lat="44.77500316987641" lon="8.537918863971752"><ele>119.66666666666667</ele><time>2026-05-03T09:58:38Z</time></trkpt><trkpt lat="44.77485385201862" lon="8.53786923413644"><ele>121.33333333333334</ele><time>2026-05-03T09:58:39Z</time></trkpt><trkpt lat="44.774707024292866" lon="8.537806531582428"><ele>123.0</ele><time>2026-05-03T09:58:40Z</time></trkpt><trkpt lat="44.77455533397027" lon="8.537740549656572"><ele>123.0</ele><time>2026-05-03T09:58:41Z</time></trkpt><trkpt lat="44.77440884896852" lon="8.537670733598318"><ele>123.0</ele><time>2026-05-03T09:58:42Z</time></trkpt><trkpt lat="44.774265171996724" lon="8.537599091190753"><ele>123.0</ele><time>2026-05-03T09:58:43Z</time></trkpt><trkpt lat="44.77412640947044" lon="8.537514109186901"><ele>123.0</ele><time>2026-05-03T09:58:44Z</time></trkpt><trkpt lat="44.773989226681486" lon="8.537423311989086"><ele>123.0</ele><time>2026-05-03T09:58:45Z</time></trkpt><trkpt lat="44.77385188186863" lon="8.537325294316709"><ele>123.0</ele><time>2026-05-03T09:58:46Z</time></trkpt><trkpt lat="44.77371138116401" lon="8.537226485117328"><ele>123.0</ele><time>2026-05-03T09:58:47Z</time></trkpt><trkpt lat="44.77357183594086" lon="8.537124245235246"><ele>123.0</ele><time>2026-05-03T09:58:48Z</time></trkpt><trkpt lat="44.77343127587403" lon="8.537026293265109"><ele>123.0</ele><time>2026-05-03T09:58:49Z</time></trkpt><trkpt lat="44.773292765163916" lon="8.53692363453213"><ele>123.75</ele><time>2026-05-03T09:58:50Z</time></trkpt><trkpt lat="44.77315907606565" lon="8.53683568505888"><ele>124.5</ele><time>2026-05-03T09:58:51Z</time></trkpt><trkpt lat="44.77302910435263" lon="8.53673699117146"><ele>125.25</ele><time>2026-05-03T09:58:52Z</time></trkpt><trkpt lat="44.77290158992777" lon="8.53664182423799"><ele>126.0</ele><time>2026-05-03T09:58:53Z</time></trkpt><trkpt lat="44.772767269342886" lon="8.536550424807702"><ele>125.5</ele><time>2026-05-03T09:58:54Z</time></trkpt><trkpt lat="44.77263916681592" lon="8.536465316911938"><ele>125.0</ele><time>2026-05-03T09:58:55Z</time></trkpt><trkpt lat="44.772520087465985" lon="8.536368787944943"><ele>124.5</ele><time>2026-05-03T09:58:56Z</time></trkpt><trkpt lat="44.7724007401837" lon="8.536273858324085"><ele>124.0</ele><time>2026-05-03T09:58:57Z</time></trkpt><trkpt lat="44.77227381032396" lon="8.536182672573574"><ele>124.0</ele><time>2026-05-03T09:58:58Z</time></trkpt><trkpt lat="44.77215522188286" lon="8.536080818308225"><ele>124.0</ele><time>2026-05-03T09:58:59Z</time></trkpt><trkpt lat="44.77204851544421" lon="8.535977531302162"><ele>124.0</ele><time>2026-05-03T09:59:00Z</time></trkpt><trkpt lat="44.77193592641967" lon="8.535877764085557"><ele>124.0</ele><time>2026-05-03T09:59:01Z</time></trkpt><trkpt lat="44.77183571356535" lon="8.535767806635418"><ele>123.0</ele><time>2026-05-03T09:59:02Z</time></trkpt><trkpt lat="44.7717105730595" lon="8.535650135586295"><ele>122.0</ele><time>2026-05-03T09:59:03Z</time></trkpt><trkpt lat="44.77159427910542" lon="8.535537011575236"><ele>121.0</ele><time>2026-05-03T09:59:04Z</time></trkpt><trkpt lat="44.77148286785296" lon="8.535418679436862"><ele>120.0</ele><time>2026-05-03T09:59:05Z</time></trkpt><trkpt lat="44.771363335600626" lon="8.535299022387731"><ele>120.0</ele><time>2026-05-03T09:59:06Z</time></trkpt><trkpt lat="44.77124354527055" lon="8.535171105276422"><ele>120.0</ele><time>2026-05-03T09:59:06.999Z</time></trkpt><trkpt lat="44.77113000713867" lon="8.535045138522241"><ele>120.0</ele><time>2026-05-03T09:59:07.999Z</time></trkpt><trkpt lat="44.77102207425136" lon="8.534913150269562"><ele>120.0</ele><time>2026-05-03T09:59:08.999Z</time></trkpt><trkpt lat="44.77090131157915" lon="8.53477716783478"><ele>120.0</ele><time>2026-05-03T09:59:09.999Z</time></trkpt><trkpt lat="44.77077505216736" lon="8.534639414694954"><ele>120.0</ele><time>2026-05-03T09:59:10.999Z</time></trkpt><trkpt lat="44.770627018643964" lon="8.534502701479543"><ele>120.0</ele><time>2026-05-03T09:59:11.999Z</time></trkpt><trkpt lat="44.77046311961217" lon="8.534357014937173"><ele>120.0</ele><time>2026-05-03T09:59:12.999Z</time></trkpt><trkpt lat="44.77030218229106" lon="8.534197313636492"><ele>120.0</ele><time>2026-05-03T09:59:13.999Z</time></trkpt><trkpt lat="44.77012646519499" lon="8.534010945074959"><ele>120.0</ele><time>2026-05-03T09:59:14.999Z</time></trkpt><trkpt lat="44.769941200495126" lon="8.533834170487166"><ele>121.0</ele><time>2026-05-03T09:59:15.999Z</time></trkpt><trkpt lat="44.76976950372987" lon="8.53366817836063"><ele>122.0</ele><time>2026-05-03T09:59:16.999Z</time></trkpt><trkpt lat="44.76959724246463" lon="8.533503514514559"><ele>123.0</ele><time>2026-05-03T09:59:17.999Z</time></trkpt><trkpt lat="44.76942121501638" lon="8.533339888476988"><ele>123.0</ele><time>2026-05-03T09:59:18.999Z</time></trkpt><trkpt lat="44.76924824387507" lon="8.53317216196205"><ele>123.0</ele><time>2026-05-03T09:59:19.999Z</time></trkpt><trkpt lat="44.76907654087467" lon="8.533016944507553"><ele>123.0</ele><time>2026-05-03T09:59:20.999Z</time></trkpt><trkpt lat="44.76890046633771" lon="8.532853689060524"><ele>123.0</ele><time>2026-05-03T09:59:21.999Z</time></trkpt><trkpt lat="44.76873425909475" lon="8.532681085881423"><ele>123.0</ele><time>2026-05-03T09:59:22.999Z</time></trkpt><trkpt lat="44.76855600279671" lon="8.532524055024766"><ele>123.0</ele><time>2026-05-03T09:59:23.999Z</time></trkpt><trkpt lat="44.76839638143686" lon="8.532336545349331"><ele>123.33333333333334</ele><time>2026-05-03T09:59:24.999Z</time></trkpt><trkpt lat="44.76822214761903" lon="8.53218420883882"><ele>123.66666666666667</ele><time>2026-05-03T09:59:25.999Z</time></trkpt><trkpt lat="44.76805886575486" lon="8.532031003269783"><ele>124.0</ele><time>2026-05-03T09:59:26.999Z</time></trkpt><trkpt lat="44.767891065681525" lon="8.531861000559397"><ele>124.0</ele><time>2026-05-03T09:59:28Z</time></trkpt><trkpt lat="44.7677214602669" lon="8.53169740128019"><ele>124.0</ele><time>2026-05-03T09:59:29Z</time></trkpt><trkpt lat="44.767550851508226" lon="8.531523936476193"><ele>124.0</ele><time>2026-05-03T09:59:30Z</time></trkpt><trkpt lat="44.76737439344346" lon="8.531348520883517"><ele>123.66666666666667</ele><time>2026-05-03T09:59:31Z</time></trkpt><trkpt lat="44.767197550192236" lon="8.531188269017125"><ele>123.33333333333334</ele><time>2026-05-03T09:59:32Z</time></trkpt><trkpt lat="44.76702074690526" lon="8.531013338915743"><ele>123.0</ele><time>2026-05-03T09:59:33Z</time></trkpt><trkpt lat="44.76683915895307" lon="8.530829078279615"><ele>123.33333333333334</ele><time>2026-05-03T09:59:34Z</time></trkpt><trkpt lat="44.76666625561122" lon="8.530659268944795"><ele>123.66666666666667</ele><time>2026-05-03T09:59:35Z</time></trkpt><trkpt lat="44.766489487739825" lon="8.530485664218427"><ele>124.0</ele><time>2026-05-03T09:59:36Z</time></trkpt><trkpt lat="44.76631980208288" lon="8.530318482295757"><ele>124.0</ele><time>2026-05-03T09:59:37Z</time></trkpt><trkpt lat="44.76613946323457" lon="8.530157875927875"><ele>124.0</ele><time>2026-05-03T09:59:38Z</time></trkpt><trkpt lat="44.765969167567526" lon="8.529971538576023"><ele>124.0</ele><time>2026-05-03T09:59:39Z</time></trkpt><trkpt lat="44.76580468908358" lon="8.529790673876576"><ele>125.0</ele><time>2026-05-03T09:59:40Z</time></trkpt><trkpt lat="44.76562472676122" lon="8.529623368793956"><ele>126.0</ele><time>2026-05-03T09:59:41Z</time></trkpt><trkpt lat="44.76543978338343" lon="8.529465904907763"><ele>127.0</ele><time>2026-05-03T09:59:42Z</time></trkpt><trkpt lat="44.765265468616214" lon="8.529293679083993"><ele>127.0</ele><time>2026-05-03T09:59:43Z</time></trkpt><trkpt lat="44.7650989582877" lon="8.529121652706268"><ele>127.0</ele><time>2026-05-03T09:59:44Z</time></trkpt><trkpt lat="44.7649367587017" lon="8.528952217152357"><ele>127.0</ele><time>2026-05-03T09:59:45Z</time></trkpt><trkpt lat="44.76476951918783" lon="8.528790207093609"><ele>127.0</ele><time>2026-05-03T09:59:46Z</time></trkpt><trkpt lat="44.764608414169935" lon="8.528631891333646"><ele>127.0</ele><time>2026-05-03T09:59:47Z</time></trkpt><trkpt lat="44.764454492583255" lon="8.528477329695242"><ele>127.0</ele><time>2026-05-03T09:59:48Z</time></trkpt><trkpt lat="44.76432111256615" lon="8.528317264869832"><ele>127.33333333333334</ele><time>2026-05-03T09:59:49Z</time></trkpt><trkpt lat="44.76415917509331" lon="8.528184139392001"><ele>127.66666666666666</ele><time>2026-05-03T09:59:50Z</time></trkpt><trkpt lat="44.76401656533235" lon="8.5280541174883"><ele>128.0</ele><time>2026-05-03T09:59:51Z</time></trkpt><trkpt lat="44.76386891645955" lon="8.527927533263243"><ele>127.66666666666666</ele><time>2026-05-03T09:59:52Z</time></trkpt><trkpt lat="44.76370445424898" lon="8.527816073595018"><ele>127.33333333333334</ele><time>2026-05-03T09:59:53Z</time></trkpt><trkpt lat="44.76353621880449" lon="8.527720611738946"><ele>127.0</ele><time>2026-05-03T09:59:54Z</time></trkpt><trkpt lat="44.7633681672553" lon="8.527627285545602"><ele>127.66666666666667</ele><time>2026-05-03T09:59:55Z</time></trkpt><trkpt lat="44.76319396800006" lon="8.527555185462171"><ele>128.33333333333334</ele><time>2026-05-03T09:59:56Z</time></trkpt><trkpt lat="44.76302385204423" lon="8.527487715353264"><ele>129.0</ele><time>2026-05-03T09:59:57Z</time></trkpt><trkpt lat="44.76283912121125" lon="8.527441331193954"><ele>128.66666666666666</ele><time>2026-05-03T09:59:58Z</time></trkpt><trkpt lat="44.76265389988539" lon="8.5273956896803"><ele>128.33333333333331</ele><time>2026-05-03T09:59:59Z</time></trkpt><trkpt lat="44.76246869775307" lon="8.527350173954723"><ele>128.0</ele><time>2026-05-03T10:00:00Z</time></trkpt><trkpt lat="44.76227710422607" lon="8.527310932006753"><ele>128.0</ele><time>2026-05-03T10:00:01Z</time></trkpt><trkpt lat="44.762089909196696" lon="8.527266857917613"><ele>128.0</ele><time>2026-05-03T10:00:02Z</time></trkpt><trkpt lat="44.76188818957819" lon="8.527230993070201"><ele>128.0</ele><time>2026-05-03T10:00:03Z</time></trkpt><trkpt lat="44.76169961385771" lon="8.527196902323183"><ele>127.0</ele><time>2026-05-03T10:00:04Z</time></trkpt><trkpt lat="44.76151062435362" lon="8.52715683059719"><ele>126.0</ele><time>2026-05-03T10:00:05Z</time></trkpt><trkpt lat="44.76131797546321" lon="8.527120900930454"><ele>125.0</ele><time>2026-05-03T10:00:06Z</time></trkpt><trkpt lat="44.761129499566294" lon="8.527086646466133"><ele>125.66666666666666</ele><time>2026-05-03T10:00:07Z</time></trkpt><trkpt lat="44.76094574978204" lon="8.527048386783267"><ele>126.33333333333334</ele><time>2026-05-03T10:00:08Z</time></trkpt><trkpt lat="44.760753569878375" lon="8.527012243173317"><ele>127.0</ele><time>2026-05-03T10:00:09Z</time></trkpt><trkpt lat="44.760561903141856" lon="8.526974591287813"><ele>127.0</ele><time>2026-05-03T10:00:10Z</time></trkpt><trkpt lat="44.76037402298784" lon="8.526940954519366"><ele>127.0</ele><time>2026-05-03T10:00:11Z</time></trkpt><trkpt lat="44.76019044138798" lon="8.526901694198344"><ele>127.0</ele><time>2026-05-03T10:00:12Z</time></trkpt><trkpt lat="44.760007960673384" lon="8.526874733690867"><ele>126.66666666666667</ele><time>2026-05-03T10:00:13Z</time></trkpt><trkpt lat="44.75982405019109" lon="8.526850385104062"><ele>126.33333333333334</ele><time>2026-05-03T10:00:14Z</time></trkpt><trkpt lat="44.75963987792831" lon="8.526822408535947"><ele>126.0</ele><time>2026-05-03T10:00:15Z</time></trkpt><trkpt lat="44.7594605242377" lon="8.52680070108154"><ele>126.33333333333334</ele><time>2026-05-03T10:00:16Z</time></trkpt><trkpt lat="44.759280758672226" lon="8.526789268805066"><ele>126.66666666666667</ele><time>2026-05-03T10:00:17Z</time></trkpt><trkpt lat="44.759100912775644" lon="8.526793058661964"><ele>127.0</ele><time>2026-05-03T10:00:18Z</time></trkpt><trkpt lat="44.7589155242655" lon="8.526811329101664"><ele>127.0</ele><time>2026-05-03T10:00:19Z</time></trkpt><trkpt lat="44.75873807483079" lon="8.526830086152303"><ele>127.0</ele><time>2026-05-03T10:00:20Z</time></trkpt><trkpt lat="44.75855466484891" lon="8.526852093539564"><ele>127.0</ele><time>2026-05-03T10:00:21Z</time></trkpt><trkpt lat="44.75837252869332" lon="8.526855692631985"><ele>126.66666666666667</ele><time>2026-05-03T10:00:22Z</time></trkpt><trkpt lat="44.75819130833045" lon="8.526910417145288"><ele>126.33333333333334</ele><time>2026-05-03T10:00:23Z</time></trkpt><trkpt lat="44.758010904456235" lon="8.526932270632342"><ele>126.0</ele><time>2026-05-03T10:00:24Z</time></trkpt><trkpt lat="44.757836310995664" lon="8.526992344861881"><ele>126.33333333333334</ele><time>2026-05-03T10:00:25Z</time></trkpt><trkpt lat="44.75766063558172" lon="8.527042463345325"><ele>126.66666666666667</ele><time>2026-05-03T10:00:26Z</time></trkpt><trkpt lat="44.75749336840438" lon="8.527074943909751"><ele>127.0</ele><time>2026-05-03T10:00:27Z</time></trkpt><trkpt lat="44.757334015961376" lon="8.527119479606592"><ele>127.0</ele><time>2026-05-03T10:00:28Z</time></trkpt><trkpt lat="44.75717163645187" lon="8.52717742493494"><ele>127.0</ele><time>2026-05-03T10:00:29Z</time></trkpt><trkpt lat="44.75701390450774" lon="8.527224618355245"><ele>127.0</ele><time>2026-05-03T10:00:30Z</time></trkpt><trkpt lat="44.756857808414615" lon="8.52727052788191"><ele>127.66666666666667</ele><time>2026-05-03T10:00:31Z</time></trkpt><trkpt lat="44.75670236706831" lon="8.527320736752454"><ele>128.33333333333334</ele><time>2026-05-03T10:00:32Z</time></trkpt><trkpt lat="44.75654348231101" lon="8.52737040961391"><ele>129.0</ele><time>2026-05-03T10:00:33Z</time></trkpt><trkpt lat="44.75638492383324" lon="8.527416525214878"><ele>129.0</ele><time>2026-05-03T10:00:34Z</time></trkpt><trkpt lat="44.75622882304591" lon="8.527453276917417"><ele>129.0</ele><time>2026-05-03T10:00:35Z</time></trkpt><trkpt lat="44.75607220761639" lon="8.527499602728446"><ele>129.0</ele><time>2026-05-03T10:00:36Z</time></trkpt><trkpt lat="44.75591621787856" lon="8.52755137489067"><ele>129.66666666666666</ele><time>2026-05-03T10:00:37Z</time></trkpt><trkpt lat="44.75576046649836" lon="8.527610104630401"><ele>130.33333333333331</ele><time>2026-05-03T10:00:38Z</time></trkpt><trkpt lat="44.755618043131655" lon="8.52765929094281"><ele>131.0</ele><time>2026-05-03T10:00:39Z</time></trkpt><trkpt lat="44.7554708912574" lon="8.52770133833165"><ele>131.0</ele><time>2026-05-03T10:00:40Z</time></trkpt><trkpt lat="44.75532591907331" lon="8.527745477441957"><ele>131.0</ele><time>2026-05-03T10:00:41Z</time></trkpt><trkpt lat="44.75518204976692" lon="8.527790519267947"><ele>131.0</ele><time>2026-05-03T10:00:42Z</time></trkpt><trkpt lat="44.75503593661047" lon="8.527836265532608"><ele>131.0</ele><time>2026-05-03T10:00:43Z</time></trkpt><trkpt lat="44.75488781640041" lon="8.52786084430173"><ele>131.0</ele><time>2026-05-03T10:00:44Z</time></trkpt><trkpt lat="44.754747248023136" lon="8.527902609284022"><ele>131.0</ele><time>2026-05-03T10:00:45Z</time></trkpt><trkpt lat="44.75459915192058" lon="8.527946510766686"><ele>131.0</ele><time>2026-05-03T10:00:46Z</time></trkpt><trkpt lat="44.75446313093748" lon="8.527988181015774"><ele>131.0</ele><time>2026-05-03T10:00:47Z</time></trkpt><trkpt lat="44.75432562702674" lon="8.528030155897396"><ele>131.25</ele><time>2026-05-03T10:00:48Z</time></trkpt><trkpt lat="44.75419019510911" lon="8.52807149827171"><ele>131.5</ele><time>2026-05-03T10:00:49Z</time></trkpt><trkpt lat="44.754060813307376" lon="8.528113181371005"><ele>131.75</ele><time>2026-05-03T10:00:50Z</time></trkpt><trkpt lat="44.75394150600533" lon="8.528151784702402"><ele>132.0</ele><time>2026-05-03T10:00:51Z</time></trkpt><trkpt lat="44.75380865193208" lon="8.528195823636443"><ele>132.0</ele><time>2026-05-03T10:00:52Z</time></trkpt><trkpt lat="44.753690231559645" lon="8.528235357893303"><ele>132.0</ele><time>2026-05-03T10:00:53Z</time></trkpt><trkpt lat="44.75356816841122" lon="8.528276100389522"><ele>132.0</ele><time>2026-05-03T10:00:54Z</time></trkpt><trkpt lat="44.75343924433645" lon="8.528321934537075"><ele>132.0</ele><time>2026-05-03T10:00:55Z</time></trkpt><trkpt lat="44.75331849026123" lon="8.528368943392966"><ele>132.0</ele><time>2026-05-03T10:00:56Z</time></trkpt><trkpt lat="44.75320536241121" lon="8.528413880051671"><ele>132.0</ele><time>2026-05-03T10:00:57Z</time></trkpt><trkpt lat="44.75309686655721" lon="8.52845697681126"><ele>132.0</ele><time>2026-05-03T10:00:58Z</time></trkpt><trkpt lat="44.75299684169213" lon="8.528488962539942"><ele>132.0</ele><time>2026-05-03T10:00:59Z</time></trkpt><trkpt lat="44.75288603179092" lon="8.528530549800124"><ele>132.0</ele><time>2026-05-03T10:01:00Z</time></trkpt><trkpt lat="44.75277308538476" lon="8.528589220235967"><ele>132.25</ele><time>2026-05-03T10:01:01Z</time></trkpt><trkpt lat="44.752663356900044" lon="8.528627699132185"><ele>132.5</ele><time>2026-05-03T10:01:02Z</time></trkpt><trkpt lat="44.7525563655733" lon="8.528671535053117"><ele>132.75</ele><time>2026-05-03T10:01:03Z</time></trkpt><trkpt lat="44.752446994361314" lon="8.528714871936488"><ele>133.0</ele><time>2026-05-03T10:01:04Z</time></trkpt><trkpt lat="44.75233616685045" lon="8.52876060582549"><ele>133.0</ele><time>2026-05-03T10:01:05Z</time></trkpt><trkpt lat="44.7522248830593" lon="8.528806939695897"><ele>133.0</ele><time>2026-05-03T10:01:06Z</time></trkpt><trkpt lat="44.75211408403876" lon="8.528842274236917"><ele>133.0</ele><time>2026-05-03T10:01:07Z</time></trkpt><trkpt lat="44.752008586029504" lon="8.528892424656787"><ele>133.0</ele><time>2026-05-03T10:01:08Z</time></trkpt><trkpt lat="44.751904388242416" lon="8.528933176907023"><ele>133.0</ele><time>2026-05-03T10:01:09Z</time></trkpt><trkpt lat="44.7517961383972" lon="8.528978775784678"><ele>133.6</ele><time>2026-05-03T10:01:10Z</time></trkpt><trkpt lat="44.75169528499717" lon="8.52901429869916"><ele>134.20000000000002</ele><time>2026-05-03T10:01:10.999Z</time></trkpt><trkpt lat="44.75158732755333" lon="8.529053248552161"><ele>134.8</ele><time>2026-05-03T10:01:11.999Z</time></trkpt><trkpt lat="44.75149232287565" lon="8.529100336042372"><ele>135.4</ele><time>2026-05-03T10:01:12.999Z</time></trkpt><trkpt lat="44.75140224195531" lon="8.529144957013871"><ele>136.0</ele><time>2026-05-03T10:01:13.999Z</time></trkpt><trkpt lat="44.751303370019556" lon="8.529162465160404"><ele>136.0</ele><time>2026-05-03T10:01:14.999Z</time></trkpt><trkpt lat="44.751197072326015" lon="8.529204197522326"><ele>136.0</ele><time>2026-05-03T10:01:15.999Z</time></trkpt><trkpt lat="44.75108999996408" lon="8.529246234016291"><ele>136.0</ele><time>2026-05-03T10:01:16.999Z</time></trkpt><trkpt lat="44.75097559217717" lon="8.529291150400601"><ele>136.0</ele><time>2026-05-03T10:01:17.999Z</time></trkpt><trkpt lat="44.75086045755243" lon="8.529336352125299"><ele>136.0</ele><time>2026-05-03T10:01:18.999Z</time></trkpt><trkpt lat="44.75074603857202" lon="8.529403649325191"><ele>136.0</ele><time>2026-05-03T10:01:19.999Z</time></trkpt><trkpt lat="44.75061777317605" lon="8.529447909788507"><ele>136.0</ele><time>2026-05-03T10:01:20.999Z</time></trkpt><trkpt lat="44.75048549809024" lon="8.529494094720725"><ele>136.0</ele><time>2026-05-03T10:01:21.999Z</time></trkpt><trkpt lat="44.750357590018126" lon="8.529534488439747"><ele>136.25</ele><time>2026-05-03T10:01:22.999Z</time></trkpt><trkpt lat="44.750228709474015" lon="8.529577099227655"><ele>136.5</ele><time>2026-05-03T10:01:23.999Z</time></trkpt><trkpt lat="44.75010001712452" lon="8.52961271330176"><ele>136.75</ele><time>2026-05-03T10:01:24.999Z</time></trkpt><trkpt lat="44.74996627571776" lon="8.529647797887144"><ele>137.0</ele><time>2026-05-03T10:01:25.999Z</time></trkpt><trkpt lat="44.749827242640855" lon="8.529697169108632"><ele>136.25</ele><time>2026-05-03T10:01:26.999Z</time></trkpt><trkpt lat="44.74969018985038" lon="8.529735757446733"><ele>135.5</ele><time>2026-05-03T10:01:27.999Z</time></trkpt><trkpt lat="44.74955271434401" lon="8.52979813038737"><ele>134.75</ele><time>2026-05-03T10:01:28.999Z</time></trkpt><trkpt lat="44.749416067903404" lon="8.529863137160568"><ele>134.0</ele><time>2026-05-03T10:01:29.999Z</time></trkpt><trkpt lat="44.74927699826265" lon="8.529933514606428"><ele>134.0</ele><time>2026-05-03T10:01:30.999Z</time></trkpt><trkpt lat="44.749152143924825" lon="8.530004315551919"><ele>134.0</ele><time>2026-05-03T10:01:31.999Z</time></trkpt><trkpt lat="44.74902489083373" lon="8.530099315324588"><ele>134.0</ele><time>2026-05-03T10:01:32.999Z</time></trkpt><trkpt lat="44.74891292402512" lon="8.530205855499354"><ele>134.0</ele><time>2026-05-03T10:01:34Z</time></trkpt><trkpt lat="44.74879524677957" lon="8.530288570836305"><ele>134.0</ele><time>2026-05-03T10:01:35Z</time></trkpt><trkpt lat="44.74870147612589" lon="8.530385266120748"><ele>134.0</ele><time>2026-05-03T10:01:36Z</time></trkpt><trkpt lat="44.748598370140925" lon="8.530446598095375"><ele>134.0</ele><time>2026-05-03T10:01:37Z</time></trkpt><trkpt lat="44.748484707918166" lon="8.530474910105454"><ele>134.0</ele><time>2026-05-03T10:01:38Z</time></trkpt><trkpt lat="44.74835927639251" lon="8.530470516007895"><ele>134.25</ele><time>2026-05-03T10:01:39Z</time></trkpt><trkpt lat="44.748242459033534" lon="8.530429101371345"><ele>134.5</ele><time>2026-05-03T10:01:40Z</time></trkpt><trkpt lat="44.74812587948224" lon="8.530342357401171"><ele>134.75</ele><time>2026-05-03T10:01:41Z</time></trkpt><trkpt lat="44.74800972552025" lon="8.530230576954487"><ele>135.0</ele><time>2026-05-03T10:01:42Z</time></trkpt><trkpt lat="44.747904484757726" lon="8.530084709070632"><ele>135.0</ele><time>2026-05-03T10:01:43Z</time></trkpt><trkpt lat="44.74780391340553" lon="8.52992101144483"><ele>135.0</ele><time>2026-05-03T10:01:44Z</time></trkpt><trkpt lat="44.74768660469199" lon="8.529769134991932"><ele>135.0</ele><time>2026-05-03T10:01:45Z</time></trkpt><trkpt lat="44.747587730850285" lon="8.52961770843312"><ele>135.33333333333334</ele><time>2026-05-03T10:01:46Z</time></trkpt><trkpt lat="44.74748534212274" lon="8.529440112203133"><ele>135.66666666666669</ele><time>2026-05-03T10:01:47Z</time></trkpt><trkpt lat="44.74739415944197" lon="8.52923924609478"><ele>136.0</ele><time>2026-05-03T10:01:48Z</time></trkpt><trkpt lat="44.74731960438991" lon="8.529036374699457"><ele>136.0</ele><time>2026-05-03T10:01:49Z</time></trkpt><trkpt lat="44.74725496856258" lon="8.528806570532423"><ele>136.0</ele><time>2026-05-03T10:01:50Z</time></trkpt><trkpt lat="44.747205754670865" lon="8.528570030532382"><ele>136.0</ele><time>2026-05-03T10:01:51Z</time></trkpt><trkpt lat="44.7471722743857" lon="8.528315287407203"><ele>138.0</ele><time>2026-05-03T10:01:52Z</time></trkpt><trkpt lat="44.74712261681794" lon="8.52804876393572"><ele>140.0</ele><time>2026-05-03T10:01:53Z</time></trkpt><trkpt lat="44.7470717698883" lon="8.527790804626411"><ele>142.0</ele><time>2026-05-03T10:01:54Z</time></trkpt><trkpt lat="44.74701809652185" lon="8.527526082733026"><ele>142.33333333333334</ele><time>2026-05-03T10:01:55Z</time></trkpt><trkpt lat="44.74696254915319" lon="8.527259351348267"><ele>142.66666666666666</ele><time>2026-05-03T10:01:56Z</time></trkpt><trkpt lat="44.746898891561344" lon="8.52697252354283"><ele>143.0</ele><time>2026-05-03T10:01:57Z</time></trkpt><trkpt lat="44.74684279298156" lon="8.526701545760682"><ele>138.0</ele><time>2026-05-03T10:01:58Z</time></trkpt><trkpt lat="44.74678564029153" lon="8.52642883883292"><ele>133.0</ele><time>2026-05-03T10:01:59Z</time></trkpt><trkpt lat="44.74672676046662" lon="8.526153984708689"><ele>128.0</ele><time>2026-05-03T10:02:00Z</time></trkpt><trkpt lat="44.74667231420767" lon="8.525878167154252"><ele>128.0</ele><time>2026-05-03T10:02:01Z</time></trkpt><trkpt lat="44.74662682312191" lon="8.525608904448415"><ele>128.0</ele><time>2026-05-03T10:02:02Z</time></trkpt><trkpt lat="44.7465672683792" lon="8.52533217169132"><ele>128.0</ele><time>2026-05-03T10:02:03Z</time></trkpt><trkpt lat="44.74651330794675" lon="8.525060766379335"><ele>131.0</ele><time>2026-05-03T10:02:04Z</time></trkpt><trkpt lat="44.7464374507142" lon="8.524790616032385"><ele>134.0</ele><time>2026-05-03T10:02:05Z</time></trkpt><trkpt lat="44.746354190762275" lon="8.524522641559782"><ele>137.0</ele><time>2026-05-03T10:02:06Z</time></trkpt><trkpt lat="44.74626690729148" lon="8.524263357905253"><ele>134.0</ele><time>2026-05-03T10:02:07Z</time></trkpt><trkpt lat="44.74617300044153" lon="8.524005417076133"><ele>131.0</ele><time>2026-05-03T10:02:08Z</time></trkpt><trkpt lat="44.74607315264058" lon="8.523757133519833"><ele>128.0</ele><time>2026-05-03T10:02:09Z</time></trkpt><trkpt lat="44.74596339312991" lon="8.523509717561414"><ele>128.0</ele><time>2026-05-03T10:02:10Z</time></trkpt><trkpt lat="44.745849196415364" lon="8.523265186407901"><ele>128.0</ele><time>2026-05-03T10:02:11Z</time></trkpt><trkpt lat="44.74572661676623" lon="8.523030616158085"><ele>128.0</ele><time>2026-05-03T10:02:12Z</time></trkpt><trkpt lat="44.74559732014267" lon="8.522774998396784"><ele>129.66666666666666</ele><time>2026-05-03T10:02:13Z</time></trkpt><trkpt lat="44.74545676861483" lon="8.522555567997596"><ele>131.33333333333334</ele><time>2026-05-03T10:02:14Z</time></trkpt><trkpt lat="44.74530573679197" lon="8.522336263218879"><ele>133.0</ele><time>2026-05-03T10:02:15Z</time></trkpt><trkpt lat="44.745152519964705" lon="8.522141339474263"><ele>131.66666666666669</ele><time>2026-05-03T10:02:16Z</time></trkpt><trkpt lat="44.74499566157082" lon="8.52198645235154"><ele>130.33333333333334</ele><time>2026-05-03T10:02:17Z</time></trkpt><trkpt lat="44.744851273751365" lon="8.52181755450254"><ele>129.0</ele><time>2026-05-03T10:02:18Z</time></trkpt><trkpt lat="44.74464379239753" lon="8.52166148838404"><ele>129.0</ele><time>2026-05-03T10:02:19Z</time></trkpt><trkpt lat="44.744442723727765" lon="8.521528094568136"><ele>129.0</ele><time>2026-05-03T10:02:20Z</time></trkpt><trkpt lat="44.74424162713654" lon="8.521409599944834"><ele>129.0</ele><time>2026-05-03T10:02:21Z</time></trkpt><trkpt lat="44.74404432805693" lon="8.521309312637973"><ele>128.0</ele><time>2026-05-03T10:02:22Z</time></trkpt><trkpt lat="44.743837477460545" lon="8.52121212347541"><ele>127.0</ele><time>2026-05-03T10:02:23Z</time></trkpt><trkpt lat="44.74365306924166" lon="8.521107843981987"><ele>126.0</ele><time>2026-05-03T10:02:24Z</time></trkpt><trkpt lat="44.743453753153716" lon="8.521013554033402"><ele>126.0</ele><time>2026-05-03T10:02:25Z</time></trkpt><trkpt lat="44.74325337149065" lon="8.520900750698434"><ele>126.0</ele><time>2026-05-03T10:02:26Z</time></trkpt><trkpt lat="44.743037096740494" lon="8.520808911867935"><ele>126.0</ele><time>2026-05-03T10:02:27Z</time></trkpt><trkpt lat="44.74283949290556" lon="8.520715013758466"><ele>125.33333333333334</ele><time>2026-05-03T10:02:28Z</time></trkpt><trkpt lat="44.74263600043348" lon="8.520616700180033"><ele>124.66666666666667</ele><time>2026-05-03T10:02:29Z</time></trkpt><trkpt lat="44.74243278518367" lon="8.52051981752875"><ele>124.0</ele><time>2026-05-03T10:02:30Z</time></trkpt><trkpt lat="44.74222346751267" lon="8.520419892721641"><ele>124.66666666666667</ele><time>2026-05-03T10:02:31Z</time></trkpt><trkpt lat="44.74201499001407" lon="8.520317472921612"><ele>125.33333333333334</ele><time>2026-05-03T10:02:32Z</time></trkpt><trkpt lat="44.74180504224567" lon="8.520214100542658"><ele>126.0</ele><time>2026-05-03T10:02:33Z</time></trkpt><trkpt lat="44.74159858049589" lon="8.520105376669148"><ele>126.0</ele><time>2026-05-03T10:02:34Z</time></trkpt><trkpt lat="44.74137745539814" lon="8.520003186105203"><ele>126.0</ele><time>2026-05-03T10:02:35Z</time></trkpt><trkpt lat="44.74115759111564" lon="8.519894816406174"><ele>125.0</ele><time>2026-05-03T10:02:36Z</time></trkpt><trkpt lat="44.740934336291964" lon="8.519801040711522"><ele>124.0</ele><time>2026-05-03T10:02:37Z</time></trkpt><trkpt lat="44.740714998013296" lon="8.519695742605926"><ele>124.0</ele><time>2026-05-03T10:02:38Z</time></trkpt><trkpt lat="44.74049742759145" lon="8.51959234120837"><ele>124.0</ele><time>2026-05-03T10:02:39Z</time></trkpt><trkpt lat="44.7402768865464" lon="8.519485060017766"><ele>125.5</ele><time>2026-05-03T10:02:40Z</time></trkpt><trkpt lat="44.74005673521898" lon="8.519379040901955"><ele>127.0</ele><time>2026-05-03T10:02:41Z</time></trkpt><trkpt lat="44.739837191208665" lon="8.51926569490963"><ele>127.0</ele><time>2026-05-03T10:02:42Z</time></trkpt><trkpt lat="44.7396201381126" lon="8.519156005258672"><ele>127.0</ele><time>2026-05-03T10:02:43Z</time></trkpt><trkpt lat="44.739402510342536" lon="8.519044759325814"><ele>126.0</ele><time>2026-05-03T10:02:44Z</time></trkpt><trkpt lat="44.73918434411511" lon="8.51894356731549"><ele>125.0</ele><time>2026-05-03T10:02:45Z</time></trkpt><trkpt lat="44.73896626566842" lon="8.518832322848795"><ele>125.0</ele><time>2026-05-03T10:02:46Z</time></trkpt><trkpt lat="44.738738539542666" lon="8.518738824958527"><ele>125.0</ele><time>2026-05-03T10:02:47Z</time></trkpt><trkpt lat="44.73851153938817" lon="8.518633995491214"><ele>126.0</ele><time>2026-05-03T10:02:48Z</time></trkpt><trkpt lat="44.738282704998625" lon="8.518534671904941"><ele>127.0</ele><time>2026-05-03T10:02:49Z</time></trkpt><trkpt lat="44.73805656909391" lon="8.518437057397223"><ele>127.0</ele><time>2026-05-03T10:02:50Z</time></trkpt><trkpt lat="44.73782800302492" lon="8.518357226206614"><ele>127.0</ele><time>2026-05-03T10:02:51Z</time></trkpt><trkpt lat="44.737600312697175" lon="8.51827759637437"><ele>128.0</ele><time>2026-05-03T10:02:52Z</time></trkpt><trkpt lat="44.737367635009726" lon="8.51821565751875"><ele>129.0</ele><time>2026-05-03T10:02:53Z</time></trkpt><trkpt lat="44.737134285110386" lon="8.518177280285927"><ele>129.0</ele><time>2026-05-03T10:02:54Z</time></trkpt><trkpt lat="44.73690225137135" lon="8.518156507174004"><ele>129.0</ele><time>2026-05-03T10:02:55Z</time></trkpt><trkpt lat="44.73667261471435" lon="8.518150370464838"><ele>126.0</ele><time>2026-05-03T10:02:56Z</time></trkpt><trkpt lat="44.73644619591292" lon="8.518151018611206"><ele>123.0</ele><time>2026-05-03T10:02:57Z</time></trkpt><trkpt lat="44.73620861000315" lon="8.518185959928848"><ele>123.0</ele><time>2026-05-03T10:02:58Z</time></trkpt><trkpt lat="44.735985342535564" lon="8.518226835414909"><ele>123.0</ele><time>2026-05-03T10:02:59Z</time></trkpt><trkpt lat="44.73576829973445" lon="8.518282424257672"><ele>123.0</ele><time>2026-05-03T10:03:00Z</time></trkpt><trkpt lat="44.73555370592574" lon="8.51835807954419"><ele>123.0</ele><time>2026-05-03T10:03:01Z</time></trkpt><trkpt lat="44.73534081766496" lon="8.518451212811017"><ele>123.0</ele><time>2026-05-03T10:03:02Z</time></trkpt><trkpt lat="44.73511797492282" lon="8.518566786471865"><ele>123.33333333333334</ele><time>2026-05-03T10:03:03Z</time></trkpt><trkpt lat="44.734905209324296" lon="8.518692889165568"><ele>123.66666666666667</ele><time>2026-05-03T10:03:04Z</time></trkpt><trkpt lat="44.73471288873739" lon="8.51883146245856"><ele>124.0</ele><time>2026-05-03T10:03:05Z</time></trkpt><trkpt lat="44.73451270175411" lon="8.518991936035524"><ele>124.0</ele><time>2026-05-03T10:03:06Z</time></trkpt><trkpt lat="44.7343085794196" lon="8.519164271745764"><ele>124.0</ele><time>2026-05-03T10:03:07Z</time></trkpt><trkpt lat="44.734104657804004" lon="8.51936611887354"><ele>124.0</ele><time>2026-05-03T10:03:08Z</time></trkpt><trkpt lat="44.73389738250956" lon="8.519549281430137"><ele>124.0</ele><time>2026-05-03T10:03:09Z</time></trkpt><trkpt lat="44.733690495466526" lon="8.519725082814617"><ele>124.0</ele><time>2026-05-03T10:03:10Z</time></trkpt><trkpt lat="44.733490317881255" lon="8.519903244314838"><ele>124.0</ele><time>2026-05-03T10:03:11Z</time></trkpt><trkpt lat="44.733293951872966" lon="8.520067649883865"><ele>124.0</ele><time>2026-05-03T10:03:12Z</time></trkpt><trkpt lat="44.73309508296102" lon="8.520243464055556"><ele>124.0</ele><time>2026-05-03T10:03:12.999Z</time></trkpt><trkpt lat="44.73289362162509" lon="8.520424358429537"><ele>123.5</ele><time>2026-05-03T10:03:13.999Z</time></trkpt><trkpt lat="44.73269238488264" lon="8.520594963046559"><ele>123.0</ele><time>2026-05-03T10:03:14.999Z</time></trkpt><trkpt lat="44.73249039169376" lon="8.520761086538098"><ele>123.0</ele><time>2026-05-03T10:03:15.999Z</time></trkpt><trkpt lat="44.73228681176589" lon="8.52093673205619"><ele>123.0</ele><time>2026-05-03T10:03:16.999Z</time></trkpt><trkpt lat="44.73208300812413" lon="8.521124926342601"><ele>123.0</ele><time>2026-05-03T10:03:17.999Z</time></trkpt><trkpt lat="44.731884195311046" lon="8.521296626341199"><ele>123.0</ele><time>2026-05-03T10:03:18.999Z</time></trkpt><trkpt lat="44.73167977509571" lon="8.521483002432555"><ele>123.0</ele><time>2026-05-03T10:03:19.999Z</time></trkpt><trkpt lat="44.73148217300486" lon="8.521658296068505"><ele>123.0</ele><time>2026-05-03T10:03:20.999Z</time></trkpt><trkpt lat="44.731276270679075" lon="8.521811855716615"><ele>123.0</ele><time>2026-05-03T10:03:21.999Z</time></trkpt><trkpt lat="44.731068885716" lon="8.52198318745282"><ele>123.0</ele><time>2026-05-03T10:03:22.999Z</time></trkpt><trkpt lat="44.73086327090728" lon="8.522169538104713"><ele>122.5</ele><time>2026-05-03T10:03:23.999Z</time></trkpt><trkpt lat="44.730655648230595" lon="8.522348623858942"><ele>122.0</ele><time>2026-05-03T10:03:24.999Z</time></trkpt><trkpt lat="44.73044939887361" lon="8.522531460260025"><ele>122.0</ele><time>2026-05-03T10:03:25.999Z</time></trkpt><trkpt lat="44.730241677183166" lon="8.522712381828045"><ele>122.0</ele><time>2026-05-03T10:03:26.999Z</time></trkpt><trkpt lat="44.73003692261421" lon="8.522890068974343"><ele>122.0</ele><time>2026-05-03T10:03:27.999Z</time></trkpt><trkpt lat="44.729830927097936" lon="8.52306283375471"><ele>122.0</ele><time>2026-05-03T10:03:28.999Z</time></trkpt><trkpt lat="44.72961843471499" lon="8.523251020975133"><ele>122.0</ele><time>2026-05-03T10:03:29.999Z</time></trkpt><trkpt lat="44.72940960634755" lon="8.523435345896264"><ele>122.0</ele><time>2026-05-03T10:03:30.999Z</time></trkpt><trkpt lat="44.729197212237544" lon="8.523626865000326"><ele>121.0</ele><time>2026-05-03T10:03:31.999Z</time></trkpt><trkpt lat="44.728983631314" lon="8.523812782106864"><ele>120.0</ele><time>2026-05-03T10:03:32.999Z</time></trkpt><trkpt lat="44.72877309392649" lon="8.524000782646272"><ele>120.0</ele><time>2026-05-03T10:03:33.999Z</time></trkpt><trkpt lat="44.72856581011902" lon="8.524181106346639"><ele>120.0</ele><time>2026-05-03T10:03:34.999Z</time></trkpt><trkpt lat="44.72836166128233" lon="8.524359818080933"><ele>120.5</ele><time>2026-05-03T10:03:35.999Z</time></trkpt><trkpt lat="44.7281577818773" lon="8.524541231212995"><ele>121.0</ele><time>2026-05-03T10:03:36.999Z</time></trkpt><trkpt lat="44.727955764156924" lon="8.524721051236636"><ele>121.0</ele><time>2026-05-03T10:03:37.999Z</time></trkpt><trkpt lat="44.7277575434083" lon="8.524909016765516"><ele>121.0</ele><time>2026-05-03T10:03:38.999Z</time></trkpt><trkpt lat="44.72756164418702" lon="8.525076063694724"><ele>122.0</ele><time>2026-05-03T10:03:40Z</time></trkpt><trkpt lat="44.727368354202746" lon="8.525253133742519"><ele>123.0</ele><time>2026-05-03T10:03:41Z</time></trkpt><trkpt lat="44.72717919373871" lon="8.525423977024989"><ele>123.66666666666666</ele><time>2026-05-03T10:03:42Z</time></trkpt><trkpt lat="44.726988804474566" lon="8.525596141418978"><ele>124.33333333333333</ele><time>2026-05-03T10:03:43Z</time></trkpt><trkpt lat="44.72680317415323" lon="8.525758351180796"><ele>125.0</ele><time>2026-05-03T10:03:44Z</time></trkpt><trkpt lat="44.72662750583308" lon="8.525910292173934"><ele>126.0</ele><time>2026-05-03T10:03:45Z</time></trkpt><trkpt lat="44.72645944874534" lon="8.52605161698917"><ele>127.0</ele><time>2026-05-03T10:03:46Z</time></trkpt><trkpt lat="44.726280853310875" lon="8.526174884071699"><ele>128.0</ele><time>2026-05-03T10:03:47Z</time></trkpt><trkpt lat="44.72611597556843" lon="8.526313251091533"><ele>127.33333333333333</ele><time>2026-05-03T10:03:48Z</time></trkpt><trkpt lat="44.725962265826205" lon="8.526465776974783"><ele>126.66666666666666</ele><time>2026-05-03T10:03:49Z</time></trkpt><trkpt lat="44.72580574822361" lon="8.526591972706408"><ele>126.0</ele><time>2026-05-03T10:03:50Z</time></trkpt><trkpt lat="44.7256486938557" lon="8.52671867884333"><ele>126.0</ele><time>2026-05-03T10:03:51Z</time></trkpt><trkpt lat="44.72548777687447" lon="8.526830350962324"><ele>126.0</ele><time>2026-05-03T10:03:52Z</time></trkpt><trkpt lat="44.72531416406683" lon="8.526940675802393"><ele>126.0</ele><time>2026-05-03T10:03:53Z</time></trkpt><trkpt lat="44.72513785635999" lon="8.52703276782797"><ele>125.66666666666666</ele><time>2026-05-03T10:03:54Z</time></trkpt><trkpt lat="44.72495933782815" lon="8.527120935659571"><ele>125.33333333333333</ele><time>2026-05-03T10:03:55Z</time></trkpt><trkpt lat="44.7247691103045" lon="8.527215472167184"><ele>125.0</ele><time>2026-05-03T10:03:56Z</time></trkpt><trkpt lat="44.724575850116345" lon="8.527310596346833"><ele>125.0</ele><time>2026-05-03T10:03:57Z</time></trkpt><trkpt lat="44.724372342499855" lon="8.527434310873591"><ele>125.0</ele><time>2026-05-03T10:03:58Z</time></trkpt><trkpt lat="44.7241751767633" lon="8.52751319755325"><ele>125.0</ele><time>2026-05-03T10:03:59Z</time></trkpt><trkpt lat="44.72398251797784" lon="8.527612819600053"><ele>125.0</ele><time>2026-05-03T10:04:00Z</time></trkpt><trkpt lat="44.72380850670978" lon="8.527702215884286"><ele>125.0</ele><time>2026-05-03T10:04:01Z</time></trkpt><trkpt lat="44.72362332546735" lon="8.52779733302947"><ele>125.0</ele><time>2026-05-03T10:04:02Z</time></trkpt><trkpt lat="44.723430479506355" lon="8.527896387287091"><ele>125.66666666666666</ele><time>2026-05-03T10:04:03Z</time></trkpt><trkpt lat="44.7232394414963" lon="8.527994537065037"><ele>126.33333333333334</ele><time>2026-05-03T10:04:04Z</time></trkpt><trkpt lat="44.72304704727835" lon="8.528093421702192"><ele>127.0</ele><time>2026-05-03T10:04:05Z</time></trkpt><trkpt lat="44.72286279242866" lon="8.528188302356465"><ele>127.33333333333334</ele><time>2026-05-03T10:04:06Z</time></trkpt><trkpt lat="44.7226657964092" lon="8.528289757214969"><ele>127.66666666666666</ele><time>2026-05-03T10:04:07Z</time></trkpt><trkpt lat="44.722468272518945" lon="8.528391485866274"><ele>128.0</ele><time>2026-05-03T10:04:08Z</time></trkpt><trkpt lat="44.72226855097937" lon="8.528494344403022"><ele>128.0</ele><time>2026-05-03T10:04:09Z</time></trkpt><trkpt lat="44.7220657074266" lon="8.528598810826358"><ele>128.0</ele><time>2026-05-03T10:04:10Z</time></trkpt><trkpt lat="44.7218499847935" lon="8.528709910053012"><ele>128.0</ele><time>2026-05-03T10:04:11Z</time></trkpt><trkpt lat="44.72163962009885" lon="8.52881824994101"><ele>127.66666666666666</ele><time>2026-05-03T10:04:12Z</time></trkpt><trkpt lat="44.7214320337262" lon="8.528926353436193"><ele>127.33333333333334</ele><time>2026-05-03T10:04:13Z</time></trkpt><trkpt lat="44.72123102566727" lon="8.529031280320453"><ele>127.0</ele><time>2026-05-03T10:04:14Z</time></trkpt><trkpt lat="44.72101942637927" lon="8.529141735816319"><ele>127.0</ele><time>2026-05-03T10:04:15Z</time></trkpt><trkpt lat="44.72080951053796" lon="8.529251312546709"><ele>127.0</ele><time>2026-05-03T10:04:16Z</time></trkpt><trkpt lat="44.72059469289575" lon="8.529363448117628"><ele>127.0</ele><time>2026-05-03T10:04:17Z</time></trkpt><trkpt lat="44.72038914676102" lon="8.529483991473386"><ele>127.0</ele><time>2026-05-03T10:04:18Z</time></trkpt><trkpt lat="44.72017989367568" lon="8.529583336300165"><ele>127.0</ele><time>2026-05-03T10:04:19Z</time></trkpt><trkpt lat="44.719981696470136" lon="8.529676677624579"><ele>127.33333333333334</ele><time>2026-05-03T10:04:20Z</time></trkpt><trkpt lat="44.71977839916037" lon="8.5297878656619"><ele>127.66666666666666</ele><time>2026-05-03T10:04:21Z</time></trkpt><trkpt lat="44.71956800157781" lon="8.52989716277109"><ele>128.0</ele><time>2026-05-03T10:04:22Z</time></trkpt><trkpt lat="44.71936397039163" lon="8.530005589884402"><ele>128.0</ele><time>2026-05-03T10:04:23Z</time></trkpt><trkpt lat="44.71917095462558" lon="8.530098107636107"><ele>128.0</ele><time>2026-05-03T10:04:24Z</time></trkpt><trkpt lat="44.718979893032966" lon="8.530168389979455"><ele>128.0</ele><time>2026-05-03T10:04:25Z</time></trkpt><trkpt lat="44.71879131713985" lon="8.530248201841445"><ele>128.0</ele><time>2026-05-03T10:04:26Z</time></trkpt><trkpt lat="44.71859976153217" lon="8.530301833346408"><ele>128.0</ele><time>2026-05-03T10:04:27Z</time></trkpt><trkpt lat="44.718405747244674" lon="8.530344896118363"><ele>128.0</ele><time>2026-05-03T10:04:28Z</time></trkpt><trkpt lat="44.71820702165522" lon="8.530369757299123"><ele>128.0</ele><time>2026-05-03T10:04:29Z</time></trkpt><trkpt lat="44.71801099007667" lon="8.530401338274178"><ele>128.0</ele><time>2026-05-03T10:04:30Z</time></trkpt><trkpt lat="44.7178172338871" lon="8.530432907857422"><ele>128.0</ele><time>2026-05-03T10:04:31Z</time></trkpt><trkpt lat="44.717626715511955" lon="8.53045932107094"><ele>128.66666666666666</ele><time>2026-05-03T10:04:32Z</time></trkpt><trkpt lat="44.71744469636952" lon="8.530491466772462"><ele>129.33333333333334</ele><time>2026-05-03T10:04:33Z</time></trkpt><trkpt lat="44.71727254912964" lon="8.530526192056069"><ele>130.0</ele><time>2026-05-03T10:04:34Z</time></trkpt><trkpt lat="44.717112458558915" lon="8.53053384966199"><ele>130.0</ele><time>2026-05-03T10:04:35Z</time></trkpt><trkpt lat="44.71696951611061" lon="8.530555898419912"><ele>130.0</ele><time>2026-05-03T10:04:36Z</time></trkpt><trkpt lat="44.71683174534122" lon="8.530577149447923"><ele>130.0</ele><time>2026-05-03T10:04:37Z</time></trkpt><trkpt lat="44.71671174352347" lon="8.530596625619857"><ele>130.0</ele><time>2026-05-03T10:04:38Z</time></trkpt><trkpt lat="44.71660430373109" lon="8.530629104298788"><ele>130.0</ele><time>2026-05-03T10:04:39Z</time></trkpt><trkpt lat="44.716503962748" lon="8.530600084077754"><ele>130.0</ele><time>2026-05-03T10:04:40Z</time></trkpt><trkpt lat="44.716423054330086" lon="8.530518536410444"><ele>130.0</ele><time>2026-05-03T10:04:41Z</time></trkpt><trkpt lat="44.716346564754254" lon="8.53042436869956"><ele>130.0</ele><time>2026-05-03T10:04:42Z</time></trkpt><trkpt lat="44.716252343838256" lon="8.530386340086539"><ele>130.0</ele><time>2026-05-03T10:04:43Z</time></trkpt><trkpt lat="44.716149827931005" lon="8.530412717245165"><ele>130.0</ele><time>2026-05-03T10:04:44Z</time></trkpt><trkpt lat="44.71605280966385" lon="8.530493924739355"><ele>130.0</ele><time>2026-05-03T10:04:45Z</time></trkpt><trkpt lat="44.71598941599583" lon="8.530622245357529"><ele>130.0</ele><time>2026-05-03T10:04:46Z</time></trkpt><trkpt lat="44.71593832022473" lon="8.530777412052103"><ele>130.0</ele><time>2026-05-03T10:04:47Z</time></trkpt><trkpt lat="44.71584964275713" lon="8.530884358445453"><ele>130.0</ele><time>2026-05-03T10:04:48Z</time></trkpt><trkpt lat="44.71570462802217" lon="8.530906227079251"><ele>130.0</ele><time>2026-05-03T10:04:49Z</time></trkpt><trkpt lat="44.71556946036234" lon="8.530981871083632"><ele>130.0</ele><time>2026-05-03T10:04:50Z</time></trkpt><trkpt lat="44.71542548916162" lon="8.531013053575407"><ele>130.0</ele><time>2026-05-03T10:04:51Z</time></trkpt><trkpt lat="44.71527016887061" lon="8.53109459651455"><ele>130.0</ele><time>2026-05-03T10:04:52Z</time></trkpt><trkpt lat="44.715114832949226" lon="8.531170989062106"><ele>130.0</ele><time>2026-05-03T10:04:53Z</time></trkpt><trkpt lat="44.71496579930289" lon="8.531238934895105"><ele>130.0</ele><time>2026-05-03T10:04:54Z</time></trkpt><trkpt lat="44.71481175002045" lon="8.531315292307795"><ele>129.66666666666669</ele><time>2026-05-03T10:04:55Z</time></trkpt><trkpt lat="44.71465509560442" lon="8.531384008683036"><ele>129.33333333333334</ele><time>2026-05-03T10:04:56Z</time></trkpt><trkpt lat="44.71450711010028" lon="8.531450370740055"><ele>129.0</ele><time>2026-05-03T10:04:57Z</time></trkpt><trkpt lat="44.71436035666628" lon="8.531514201975162"><ele>128.66666666666666</ele><time>2026-05-03T10:04:58Z</time></trkpt><trkpt lat="44.71420908739288" lon="8.531580095878773"><ele>128.33333333333331</ele><time>2026-05-03T10:04:59Z</time></trkpt><trkpt lat="44.71405648949426" lon="8.531645175530564"><ele>128.0</ele><time>2026-05-03T10:05:00Z</time></trkpt><trkpt lat="44.71389985961387" lon="8.531710879228507"><ele>128.0</ele><time>2026-05-03T10:05:01Z</time></trkpt><trkpt lat="44.71374370757585" lon="8.531778432950237"><ele>128.0</ele><time>2026-05-03T10:05:02Z</time></trkpt><trkpt lat="44.71358572567295" lon="8.531845828652457"><ele>128.0</ele><time>2026-05-03T10:05:03Z</time></trkpt><trkpt lat="44.71342209279707" lon="8.531914391468096"><ele>127.66666666666666</ele><time>2026-05-03T10:05:04Z</time></trkpt><trkpt lat="44.713254460644826" lon="8.53198493235836"><ele>127.33333333333334</ele><time>2026-05-03T10:05:05Z</time></trkpt><trkpt lat="44.71308203777847" lon="8.53204628687792"><ele>127.0</ele><time>2026-05-03T10:05:06Z</time></trkpt><trkpt lat="44.71290603749625" lon="8.532098020314631"><ele>128.33333333333334</ele><time>2026-05-03T10:05:06.999Z</time></trkpt><trkpt lat="44.71272963276982" lon="8.532149292286256"><ele>129.66666666666666</ele><time>2026-05-03T10:05:07.999Z</time></trkpt><trkpt lat="44.71254756303727" lon="8.532193096987907"><ele>131.0</ele><time>2026-05-03T10:05:08.999Z</time></trkpt><trkpt lat="44.712358080019364" lon="8.532228489093933"><ele>131.0</ele><time>2026-05-03T10:05:09.999Z</time></trkpt><trkpt lat="44.71216876701565" lon="8.532267907126881"><ele>131.0</ele><time>2026-05-03T10:05:10.999Z</time></trkpt><trkpt lat="44.711967111614435" lon="8.532302653760514"><ele>131.0</ele><time>2026-05-03T10:05:11.999Z</time></trkpt><trkpt lat="44.71176382687234" lon="8.532338052949141"><ele>130.33333333333331</ele><time>2026-05-03T10:05:12.999Z</time></trkpt><trkpt lat="44.71155921277107" lon="8.532374456820593"><ele>129.66666666666666</ele><time>2026-05-03T10:05:13.999Z</time></trkpt><trkpt lat="44.71133881767771" lon="8.53240834934195"><ele>129.0</ele><time>2026-05-03T10:05:14.999Z</time></trkpt><trkpt lat="44.711122198754296" lon="8.53243678444051"><ele>129.66666666666666</ele><time>2026-05-03T10:05:15.999Z</time></trkpt><trkpt lat="44.71090582061395" lon="8.532470884602054"><ele>130.33333333333331</ele><time>2026-05-03T10:05:16.999Z</time></trkpt><trkpt lat="44.71067834877192" lon="8.532507955008633"><ele>131.0</ele><time>2026-05-03T10:05:17.999Z</time></trkpt><trkpt lat="44.710445483681696" lon="8.532536927006063"><ele>131.0</ele><time>2026-05-03T10:05:18.999Z</time></trkpt><trkpt lat="44.71021002001059" lon="8.532573199749631"><ele>131.0</ele><time>2026-05-03T10:05:19.999Z</time></trkpt><trkpt lat="44.709976632439854" lon="8.532610030769439"><ele>131.0</ele><time>2026-05-03T10:05:20.999Z</time></trkpt><trkpt lat="44.70974406972582" lon="8.532643576056339"><ele>131.0</ele><time>2026-05-03T10:05:21.999Z</time></trkpt><trkpt lat="44.70950455982003" lon="8.532683171602834"><ele>133.0</ele><time>2026-05-03T10:05:22.999Z</time></trkpt><trkpt lat="44.70926470263109" lon="8.53271666808259"><ele>135.0</ele><time>2026-05-03T10:05:23.999Z</time></trkpt><trkpt lat="44.70902317784861" lon="8.532755331015343"><ele>135.0</ele><time>2026-05-03T10:05:24.999Z</time></trkpt><trkpt lat="44.70878978752863" lon="8.532791031965168"><ele>135.0</ele><time>2026-05-03T10:05:25.999Z</time></trkpt><trkpt lat="44.70856516546669" lon="8.532829051718922"><ele>135.0</ele><time>2026-05-03T10:05:26.999Z</time></trkpt><trkpt lat="44.70834420854278" lon="8.53287546146799"><ele>135.0</ele><time>2026-05-03T10:05:27.999Z</time></trkpt><trkpt lat="44.70812121047527" lon="8.532943168335615"><ele>133.5</ele><time>2026-05-03T10:05:28.999Z</time></trkpt><trkpt lat="44.70790014714117" lon="8.533028293196445"><ele>132.0</ele><time>2026-05-03T10:05:29.999Z</time></trkpt><trkpt lat="44.70768734874141" lon="8.533123004101776"><ele>131.5</ele><time>2026-05-03T10:05:30.999Z</time></trkpt><trkpt lat="44.70747607562464" lon="8.533237470367276"><ele>131.0</ele><time>2026-05-03T10:05:31.999Z</time></trkpt><trkpt lat="44.70726858165361" lon="8.533368591197855"><ele>131.0</ele><time>2026-05-03T10:05:32.999Z</time></trkpt><trkpt lat="44.70707084775706" lon="8.533495524097944"><ele>131.0</ele><time>2026-05-03T10:05:33.999Z</time></trkpt><trkpt lat="44.706871434634415" lon="8.533634065008382"><ele>131.0</ele><time>2026-05-03T10:05:34.999Z</time></trkpt><trkpt lat="44.70667059154914" lon="8.533775247801684"><ele>129.0</ele><time>2026-05-03T10:05:35.999Z</time></trkpt><trkpt lat="44.706464446598005" lon="8.533912483464732"><ele>127.0</ele><time>2026-05-03T10:05:36.999Z</time></trkpt><trkpt lat="44.706259232615665" lon="8.534043213956886"><ele>131.0</ele><time>2026-05-03T10:05:37.999Z</time></trkpt><trkpt lat="44.70605434128726" lon="8.534174661380403"><ele>135.0</ele><time>2026-05-03T10:05:38.999Z</time></trkpt><trkpt lat="44.705849095812404" lon="8.534304483393475"><ele>135.0</ele><time>2026-05-03T10:05:39.999Z</time></trkpt><trkpt lat="44.7056476053645" lon="8.534438467587162"><ele>135.0</ele><time>2026-05-03T10:05:40.999Z</time></trkpt><trkpt lat="44.70544931277206" lon="8.534574145798729"><ele>135.0</ele><time>2026-05-03T10:05:41.999Z</time></trkpt><trkpt lat="44.70525391775439" lon="8.534712861502463"><ele>134.66666666666666</ele><time>2026-05-03T10:05:42.999Z</time></trkpt><trkpt lat="44.705059258584114" lon="8.53484158326377"><ele>134.33333333333331</ele><time>2026-05-03T10:05:43.999Z</time></trkpt><trkpt lat="44.70485982214278" lon="8.53496584180174"><ele>134.0</ele><time>2026-05-03T10:05:44.999Z</time></trkpt><trkpt lat="44.704655859433686" lon="8.535094577565316"><ele>134.0</ele><time>2026-05-03T10:05:46Z</time></trkpt><trkpt lat="44.70444828308721" lon="8.53521815154126"><ele>134.0</ele><time>2026-05-03T10:05:47Z</time></trkpt><trkpt lat="44.70424434433935" lon="8.535296612254553"><ele>134.0</ele><time>2026-05-03T10:05:48Z</time></trkpt><trkpt lat="44.7040360548757" lon="8.535365648294654"><ele>133.33333333333331</ele><time>2026-05-03T10:05:49Z</time></trkpt><trkpt lat="44.70381962133635" lon="8.535424976979705"><ele>132.66666666666666</ele><time>2026-05-03T10:05:50Z</time></trkpt><trkpt lat="44.70360304574261" lon="8.535472005631886"><ele>132.0</ele><time>2026-05-03T10:05:51Z</time></trkpt><trkpt lat="44.70337890434775" lon="8.535502493433716"><ele>131.5</ele><time>2026-05-03T10:05:52Z</time></trkpt><trkpt lat="44.70315410659381" lon="8.535512137297975"><ele>131.0</ele><time>2026-05-03T10:05:53Z</time></trkpt><trkpt lat="44.702921954718136" lon="8.535503346447173"><ele>129.0</ele><time>2026-05-03T10:05:54Z</time></trkpt><trkpt lat="44.702687258643614" lon="8.53547861651316"><ele>127.0</ele><time>2026-05-03T10:05:55Z</time></trkpt><trkpt lat="44.702454430344645" lon="8.535439600278215"><ele>126.0</ele><time>2026-05-03T10:05:56Z</time></trkpt><trkpt lat="44.702222870069335" lon="8.535380796122668"><ele>125.0</ele><time>2026-05-03T10:05:57Z</time></trkpt><trkpt lat="44.70199222363913" lon="8.535341851788004"><ele>125.5</ele><time>2026-05-03T10:05:58Z</time></trkpt><trkpt lat="44.70176502397838" lon="8.535303862019775"><ele>126.0</ele><time>2026-05-03T10:05:59Z</time></trkpt><trkpt lat="44.7015446739971" lon="8.535267799065844"><ele>126.0</ele><time>2026-05-03T10:06:00Z</time></trkpt><trkpt lat="44.70132671129028" lon="8.535232126815576"><ele>126.0</ele><time>2026-05-03T10:06:01Z</time></trkpt><trkpt lat="44.70110967459535" lon="8.535196241706394"><ele>126.0</ele><time>2026-05-03T10:06:02Z</time></trkpt><trkpt lat="44.70089766741775" lon="8.535158149774894"><ele>126.33333333333334</ele><time>2026-05-03T10:06:03Z</time></trkpt><trkpt lat="44.7006882636665" lon="8.535119831534006"><ele>126.66666666666667</ele><time>2026-05-03T10:06:04Z</time></trkpt><trkpt lat="44.700485161386226" lon="8.535073342491167"><ele>127.0</ele><time>2026-05-03T10:06:05Z</time></trkpt><trkpt lat="44.7002868757401" lon="8.535009490410815"><ele>127.0</ele><time>2026-05-03T10:06:06Z</time></trkpt><trkpt lat="44.70009414170575" lon="8.534937655696542"><ele>127.0</ele><time>2026-05-03T10:06:07Z</time></trkpt><trkpt lat="44.69990613084403" lon="8.534854055619371"><ele>127.0</ele><time>2026-05-03T10:06:08Z</time></trkpt><trkpt lat="44.699715939575405" lon="8.53476005332492"><ele>127.0</ele><time>2026-05-03T10:06:09Z</time></trkpt><trkpt lat="44.6995421240179" lon="8.534656448133598"><ele>127.0</ele><time>2026-05-03T10:06:10Z</time></trkpt><trkpt lat="44.69938063681135" lon="8.534551510345613"><ele>127.0</ele><time>2026-05-03T10:06:11Z</time></trkpt><trkpt lat="44.69923356289869" lon="8.534444427629523"><ele>126.0</ele><time>2026-05-03T10:06:12Z</time></trkpt><trkpt lat="44.69908570810318" lon="8.534324661943579"><ele>125.0</ele><time>2026-05-03T10:06:13Z</time></trkpt><trkpt lat="44.69893432510734" lon="8.534188411295384"><ele>124.0</ele><time>2026-05-03T10:06:14Z</time></trkpt><trkpt lat="44.698790750312206" lon="8.534048577713085"><ele>124.0</ele><time>2026-05-03T10:06:15Z</time></trkpt><trkpt lat="44.69865459721527" lon="8.533903982255586"><ele>124.0</ele><time>2026-05-03T10:06:16Z</time></trkpt><trkpt lat="44.69852480089731" lon="8.533759155339634"><ele>124.0</ele><time>2026-05-03T10:06:17Z</time></trkpt><trkpt lat="44.69839235355697" lon="8.533598975156618"><ele>125.0</ele><time>2026-05-03T10:06:18Z</time></trkpt><trkpt lat="44.698271930988945" lon="8.533435919420873"><ele>126.0</ele><time>2026-05-03T10:06:19Z</time></trkpt><trkpt lat="44.69815505010216" lon="8.533262115296436"><ele>127.0</ele><time>2026-05-03T10:06:20Z</time></trkpt><trkpt lat="44.69803797464657" lon="8.533080006584182"><ele>127.0</ele><time>2026-05-03T10:06:21Z</time></trkpt><trkpt lat="44.697923649963506" lon="8.532889742022961"><ele>127.0</ele><time>2026-05-03T10:06:22Z</time></trkpt><trkpt lat="44.69781443731748" lon="8.53268848365685"><ele>127.0</ele><time>2026-05-03T10:06:23Z</time></trkpt><trkpt lat="44.697715180141635" lon="8.532480506786502"><ele>127.0</ele><time>2026-05-03T10:06:24Z</time></trkpt><trkpt lat="44.697619216386435" lon="8.53226530526456"><ele>127.0</ele><time>2026-05-03T10:06:25Z</time></trkpt><trkpt lat="44.69751141612363" lon="8.532052931971549"><ele>127.0</ele><time>2026-05-03T10:06:26Z</time></trkpt><trkpt lat="44.69741902034576" lon="8.531815218751435"><ele>127.0</ele><time>2026-05-03T10:06:27Z</time></trkpt><trkpt lat="44.69732046518417" lon="8.53157691715096"><ele>127.0</ele><time>2026-05-03T10:06:28Z</time></trkpt><trkpt lat="44.69721626776793" lon="8.531329542404151"><ele>127.0</ele><time>2026-05-03T10:06:29Z</time></trkpt><trkpt lat="44.69711900230526" lon="8.531067751143443"><ele>127.0</ele><time>2026-05-03T10:06:30Z</time></trkpt><trkpt lat="44.69699293554401" lon="8.530822761378971"><ele>127.0</ele><time>2026-05-03T10:06:31Z</time></trkpt><trkpt lat="44.696860565482154" lon="8.530589396788132"><ele>127.0</ele><time>2026-05-03T10:06:32Z</time></trkpt><trkpt lat="44.69671964201592" lon="8.5303627004088"><ele>127.0</ele><time>2026-05-03T10:06:33Z</time></trkpt><trkpt lat="44.69657225741362" lon="8.53014898808589"><ele>127.0</ele><time>2026-05-03T10:06:34Z</time></trkpt><trkpt lat="44.69641752555296" lon="8.529943264081725"><ele>127.0</ele><time>2026-05-03T10:06:35Z</time></trkpt><trkpt lat="44.69625593010521" lon="8.529754226610516"><ele>127.0</ele><time>2026-05-03T10:06:36Z</time></trkpt><trkpt lat="44.69609104953284" lon="8.529583810931275"><ele>127.0</ele><time>2026-05-03T10:06:37Z</time></trkpt><trkpt lat="44.69592336728774" lon="8.529425575513777"><ele>127.0</ele><time>2026-05-03T10:06:38Z</time></trkpt><trkpt lat="44.69574303444251" lon="8.529273153359803"><ele>127.33333333333334</ele><time>2026-05-03T10:06:39Z</time></trkpt><trkpt lat="44.695558164651885" lon="8.529138092969454"><ele>127.66666666666666</ele><time>2026-05-03T10:06:40Z</time></trkpt><trkpt lat="44.69537516946554" lon="8.529008827292587"><ele>128.0</ele><time>2026-05-03T10:06:41Z</time></trkpt><trkpt lat="44.695183141099236" lon="8.528878034749187"><ele>128.0</ele><time>2026-05-03T10:06:42Z</time></trkpt><trkpt lat="44.69498986703919" lon="8.528746394166875"><ele>128.0</ele><time>2026-05-03T10:06:43Z</time></trkpt><trkpt lat="44.69479496432504" lon="8.52861364410155"><ele>128.0</ele><time>2026-05-03T10:06:44Z</time></trkpt><trkpt lat="44.69460367879041" lon="8.528483357641147"><ele>128.0</ele><time>2026-05-03T10:06:45Z</time></trkpt><trkpt lat="44.69440609515331" lon="8.528350589745443"><ele>128.0</ele><time>2026-05-03T10:06:46Z</time></trkpt><trkpt lat="44.694207343321274" lon="8.528217561606601"><ele>128.0</ele><time>2026-05-03T10:06:47Z</time></trkpt><trkpt lat="44.69400416446144" lon="8.528079561633126"><ele>128.0</ele><time>2026-05-03T10:06:48Z</time></trkpt><trkpt lat="44.69380502884976" lon="8.527940099407154"><ele>128.0</ele><time>2026-05-03T10:06:49Z</time></trkpt><trkpt lat="44.69360900658765" lon="8.527795517959541"><ele>128.0</ele><time>2026-05-03T10:06:50Z</time></trkpt><trkpt lat="44.69341833531716" lon="8.527636877982898"><ele>128.66666666666666</ele><time>2026-05-03T10:06:51Z</time></trkpt><trkpt lat="44.693236145543175" lon="8.527479506442862"><ele>129.33333333333334</ele><time>2026-05-03T10:06:52Z</time></trkpt><trkpt lat="44.693057805384186" lon="8.527322707366324"><ele>130.0</ele><time>2026-05-03T10:06:53Z</time></trkpt><trkpt lat="44.69288246325982" lon="8.527165953564307"><ele>130.66666666666669</ele><time>2026-05-03T10:06:54Z</time></trkpt><trkpt lat="44.692706816721326" lon="8.527004210338557"><ele>131.33333333333334</ele><time>2026-05-03T10:06:55Z</time></trkpt><trkpt lat="44.69253271957216" lon="8.526843893903932"><ele>132.0</ele><time>2026-05-03T10:06:56Z</time></trkpt><trkpt lat="44.692358064304116" lon="8.526683063559144"><ele>132.0</ele><time>2026-05-03T10:06:57Z</time></trkpt><trkpt lat="44.69218564545728" lon="8.526524292588276"><ele>132.0</ele><time>2026-05-03T10:06:58Z</time></trkpt><trkpt lat="44.69201232910489" lon="8.526364750063603"><ele>132.0</ele><time>2026-05-03T10:06:59Z</time></trkpt><trkpt lat="44.69183590943551" lon="8.526204379177443"><ele>134.0</ele><time>2026-05-03T10:07:00Z</time></trkpt><trkpt lat="44.691666004031184" lon="8.526049929946202"><ele>136.0</ele><time>2026-05-03T10:07:01Z</time></trkpt><trkpt lat="44.69149179993152" lon="8.525891573097503"><ele>138.0</ele><time>2026-05-03T10:07:02Z</time></trkpt><trkpt lat="44.691327109862804" lon="8.525739854995892"><ele>138.0</ele><time>2026-05-03T10:07:03Z</time></trkpt><trkpt lat="44.69116001109838" lon="8.525585140372252"><ele>138.0</ele><time>2026-05-03T10:07:04Z</time></trkpt><trkpt lat="44.690979641515796" lon="8.525447223031932"><ele>138.0</ele><time>2026-05-03T10:07:04.999Z</time></trkpt><trkpt lat="44.69081212791002" lon="8.525290509906148"><ele>138.33333333333334</ele><time>2026-05-03T10:07:05.999Z</time></trkpt><trkpt lat="44.690645671781674" lon="8.525143591670172"><ele>138.66666666666669</ele><time>2026-05-03T10:07:06.999Z</time></trkpt><trkpt lat="44.6904784537503" lon="8.524996979037935"><ele>139.0</ele><time>2026-05-03T10:07:07.999Z</time></trkpt><trkpt lat="44.69029960671481" lon="8.524871313016341"><ele>137.66666666666669</ele><time>2026-05-03T10:07:08.999Z</time></trkpt><trkpt lat="44.69010679420799" lon="8.524758080694431"><ele>136.33333333333334</ele><time>2026-05-03T10:07:09.999Z</time></trkpt><trkpt lat="44.68991465370802" lon="8.524649635243136"><ele>135.0</ele><time>2026-05-03T10:07:10.999Z</time></trkpt><trkpt lat="44.689726764873555" lon="8.5245201573831"><ele>135.0</ele><time>2026-05-03T10:07:11.999Z</time></trkpt><trkpt lat="44.689524687302814" lon="8.524398570945765"><ele>135.0</ele><time>2026-05-03T10:07:12.999Z</time></trkpt><trkpt lat="44.689324533764136" lon="8.524279881418478"><ele>135.0</ele><time>2026-05-03T10:07:13.999Z</time></trkpt><trkpt lat="44.689126293173615" lon="8.5241646635815"><ele>133.33333333333334</ele><time>2026-05-03T10:07:14.999Z</time></trkpt><trkpt lat="44.68892973769136" lon="8.524049346209381"><ele>131.66666666666669</ele><time>2026-05-03T10:07:15.999Z</time></trkpt><trkpt lat="44.68873724580679" lon="8.523936412823115"><ele>130.0</ele><time>2026-05-03T10:07:16.999Z</time></trkpt><trkpt lat="44.688542086241846" lon="8.523821914391283"><ele>131.66666666666669</ele><time>2026-05-03T10:07:17.999Z</time></trkpt><trkpt lat="44.68834586375884" lon="8.523706767807504"><ele>133.33333333333334</ele><time>2026-05-03T10:07:18.999Z</time></trkpt><trkpt lat="44.68814813514896" lon="8.52359063258712"><ele>135.0</ele><time>2026-05-03T10:07:19.999Z</time></trkpt><trkpt lat="44.68795246597829" lon="8.523475706920967"><ele>137.0</ele><time>2026-05-03T10:07:20.999Z</time></trkpt><trkpt lat="44.68774779791328" lon="8.52335383135546"><ele>139.0</ele><time>2026-05-03T10:07:21.999Z</time></trkpt><trkpt lat="44.68754445768179" lon="8.523232597769226"><ele>141.0</ele><time>2026-05-03T10:07:22.999Z</time></trkpt><trkpt lat="44.68735104570018" lon="8.523116464836848"><ele>141.0</ele><time>2026-05-03T10:07:23.999Z</time></trkpt><trkpt lat="44.68717272800392" lon="8.523001719478785"><ele>141.0</ele><time>2026-05-03T10:07:24.999Z</time></trkpt><trkpt lat="44.68699197605381" lon="8.522870102209858"><ele>141.0</ele><time>2026-05-03T10:07:25.999Z</time></trkpt><trkpt lat="44.68682544290205" lon="8.522716891137893"><ele>139.0</ele><time>2026-05-03T10:07:26.999Z</time></trkpt><trkpt lat="44.686668895941864" lon="8.522551472903697"><ele>137.0</ele><time>2026-05-03T10:07:27.999Z</time></trkpt><trkpt lat="44.686521930927476" lon="8.522375251043806"><ele>135.0</ele><time>2026-05-03T10:07:28.999Z</time></trkpt><trkpt lat="44.68638588065191" lon="8.522184095533289"><ele>135.33333333333334</ele><time>2026-05-03T10:07:29.999Z</time></trkpt><trkpt lat="44.68626110438925" lon="8.521980991018156"><ele>135.66666666666669</ele><time>2026-05-03T10:07:30.999Z</time></trkpt><trkpt lat="44.68614263788617" lon="8.521764672661355"><ele>136.0</ele><time>2026-05-03T10:07:31.999Z</time></trkpt><trkpt lat="44.68603652140515" lon="8.521534716357602"><ele>136.0</ele><time>2026-05-03T10:07:32.999Z</time></trkpt><trkpt lat="44.68592715205057" lon="8.521304299333067"><ele>136.0</ele><time>2026-05-03T10:07:33.999Z</time></trkpt><trkpt lat="44.68584048419384" lon="8.521053595461497"><ele>136.0</ele><time>2026-05-03T10:07:34.999Z</time></trkpt><trkpt lat="44.68575432473829" lon="8.520790075728117"><ele>138.0</ele><time>2026-05-03T10:07:35.999Z</time></trkpt><trkpt lat="44.685660054058864" lon="8.520533275838417"><ele>140.0</ele><time>2026-05-03T10:07:36.999Z</time></trkpt><trkpt lat="44.685575743696006" lon="8.520289104710214"><ele>142.0</ele><time>2026-05-03T10:07:37.999Z</time></trkpt><trkpt lat="44.68549613670786" lon="8.520047921677255"><ele>144.33333333333334</ele><time>2026-05-03T10:07:38.999Z</time></trkpt><trkpt lat="44.685415176999356" lon="8.519795459611299"><ele>146.66666666666666</ele><time>2026-05-03T10:07:39.999Z</time></trkpt><trkpt lat="44.68533213828701" lon="8.51954367502282"><ele>149.0</ele><time>2026-05-03T10:07:40.999Z</time></trkpt><trkpt lat="44.68524806454184" lon="8.519294456179136"><ele>150.0</ele><time>2026-05-03T10:07:41.999Z</time></trkpt><trkpt lat="44.685166395255" lon="8.519046082287066"><ele>151.0</ele><time>2026-05-03T10:07:42.999Z</time></trkpt><trkpt lat="44.68507947392987" lon="8.518799857561062"><ele>152.0</ele><time>2026-05-03T10:07:43.999Z</time></trkpt><trkpt lat="44.68500212823369" lon="8.51855648370906"><ele>152.33333333333331</ele><time>2026-05-03T10:07:44.999Z</time></trkpt><trkpt lat="44.68491385444387" lon="8.518313219248409"><ele>152.66666666666666</ele><time>2026-05-03T10:07:45.999Z</time></trkpt><trkpt lat="44.68484220391614" lon="8.518064425361109"><ele>153.0</ele><time>2026-05-03T10:07:46.999Z</time></trkpt><trkpt lat="44.684762774425536" lon="8.517821826718935"><ele>153.0</ele><time>2026-05-03T10:07:47.999Z</time></trkpt><trkpt lat="44.684677874788704" lon="8.517581486815743"><ele>153.0</ele><time>2026-05-03T10:07:48.999Z</time></trkpt><trkpt lat="44.68459415162832" lon="8.517331479969005"><ele>153.0</ele><time>2026-05-03T10:07:49.999Z</time></trkpt><trkpt lat="44.6845152415404" lon="8.517098214993016"><ele>153.66666666666666</ele><time>2026-05-03T10:07:50.999Z</time></trkpt><trkpt lat="44.68444339523743" lon="8.516868113790608"><ele>154.33333333333331</ele><time>2026-05-03T10:07:52Z</time></trkpt><trkpt lat="44.68434839521327" lon="8.516644357286442"><ele>155.0</ele><time>2026-05-03T10:07:53Z</time></trkpt><trkpt lat="44.68426324014665" lon="8.516416276415203"><ele>156.33333333333331</ele><time>2026-05-03T10:07:54Z</time></trkpt><trkpt lat="44.68419530166976" lon="8.516198888605034"><ele>157.66666666666666</ele><time>2026-05-03T10:07:55Z</time></trkpt><trkpt lat="44.684113688595204" lon="8.515969821471764"><ele>159.0</ele><time>2026-05-03T10:07:56Z</time></trkpt><trkpt lat="44.68403551213219" lon="8.515743840394153"><ele>159.0</ele><time>2026-05-03T10:07:57Z</time></trkpt><trkpt lat="44.6839747055715" lon="8.515531014237563"><ele>159.0</ele><time>2026-05-03T10:07:58Z</time></trkpt><trkpt lat="44.6839277297295" lon="8.515325417791372"><ele>159.0</ele><time>2026-05-03T10:07:59Z</time></trkpt><trkpt lat="44.683883400506026" lon="8.515111823799707"><ele>159.25</ele><time>2026-05-03T10:08:00Z</time></trkpt><trkpt lat="44.68384808639179" lon="8.514914288275053"><ele>159.5</ele><time>2026-05-03T10:08:01Z</time></trkpt><trkpt lat="44.68381940299586" lon="8.514719819643227"><ele>159.75</ele><time>2026-05-03T10:08:02Z</time></trkpt><trkpt lat="44.683790063213806" lon="8.514518765214683"><ele>160.0</ele><time>2026-05-03T10:08:03Z</time></trkpt><trkpt lat="44.683764506424716" lon="8.514314307105195"><ele>160.5</ele><time>2026-05-03T10:08:04Z</time></trkpt><trkpt lat="44.683743274503264" lon="8.514119727832544"><ele>161.0</ele><time>2026-05-03T10:08:05Z</time></trkpt><trkpt lat="44.68371559035484" lon="8.513928052250202"><ele>161.5</ele><time>2026-05-03T10:08:06Z</time></trkpt><trkpt lat="44.68370534366886" lon="8.513739122440471"><ele>162.0</ele><time>2026-05-03T10:08:07Z</time></trkpt><trkpt lat="44.68369358169771" lon="8.513551113273952"><ele>161.0</ele><time>2026-05-03T10:08:08Z</time></trkpt><trkpt lat="44.68368954919232" lon="8.51337679866724"><ele>160.0</ele><time>2026-05-03T10:08:09Z</time></trkpt><trkpt lat="44.68368593541633" lon="8.51321089010453"><ele>159.0</ele><time>2026-05-03T10:08:10Z</time></trkpt><trkpt lat="44.683679028159666" lon="8.513058485678314"><ele>158.0</ele><time>2026-05-03T10:08:11Z</time></trkpt><trkpt lat="44.683686292006804" lon="8.512915358727856"><ele>157.0</ele><time>2026-05-03T10:08:12Z</time></trkpt><trkpt lat="44.683685367356766" lon="8.51278782114352"><ele>156.0</ele><time>2026-05-03T10:08:13Z</time></trkpt><trkpt lat="44.68370093704183" lon="8.512655682540142"><ele>155.0</ele><time>2026-05-03T10:08:14Z</time></trkpt><trkpt lat="44.68374596898442" lon="8.51254055110853"><ele>154.0</ele><time>2026-05-03T10:08:15Z</time></trkpt><trkpt lat="44.683818180192155" lon="8.512446259833446"><ele>153.0</ele><time>2026-05-03T10:08:16Z</time></trkpt><trkpt lat="44.68387892594723" lon="8.512355129589979"><ele>153.0</ele><time>2026-05-03T10:08:17Z</time></trkpt><trkpt lat="44.68390313920658" lon="8.512236813909428"><ele>153.0</ele><time>2026-05-03T10:08:18Z</time></trkpt><trkpt lat="44.68390147527927" lon="8.512120698822677"><ele>153.0</ele><time>2026-05-03T10:08:19Z</time></trkpt><trkpt lat="44.683869377783836" lon="8.512003667199453"><ele>153.0</ele><time>2026-05-03T10:08:20Z</time></trkpt><trkpt lat="44.683816523950725" lon="8.511906494802808"><ele>153.0</ele><time>2026-05-03T10:08:21Z</time></trkpt><trkpt lat="44.68375971328057" lon="8.511811320646233"><ele>153.0</ele><time>2026-05-03T10:08:22Z</time></trkpt><trkpt lat="44.683710338724005" lon="8.511692267798617"><ele>153.20000000000002</ele><time>2026-05-03T10:08:23Z</time></trkpt><trkpt lat="44.68369786889315" lon="8.511549976856129"><ele>153.4</ele><time>2026-05-03T10:08:24Z</time></trkpt><trkpt lat="44.683719138372936" lon="8.51140020814125"><ele>153.60000000000002</ele><time>2026-05-03T10:08:25Z</time></trkpt><trkpt lat="44.683741510079656" lon="8.511246736684523"><ele>153.8</ele><time>2026-05-03T10:08:26Z</time></trkpt><trkpt lat="44.68375629041833" lon="8.511074503531878"><ele>154.0</ele><time>2026-05-03T10:08:27Z</time></trkpt><trkpt lat="44.68376005620334" lon="8.510902520740679"><ele>154.25</ele><time>2026-05-03T10:08:28Z</time></trkpt><trkpt lat="44.68375742109935" lon="8.510721221408291"><ele>154.5</ele><time>2026-05-03T10:08:29Z</time></trkpt><trkpt lat="44.68374975402406" lon="8.510530614271776"><ele>154.75</ele><time>2026-05-03T10:08:30Z</time></trkpt><trkpt lat="44.68373312557596" lon="8.510341864520436"><ele>155.0</ele><time>2026-05-03T10:08:31Z</time></trkpt><trkpt lat="44.683694729831196" lon="8.51013677552353"><ele>154.5</ele><time>2026-05-03T10:08:32Z</time></trkpt><trkpt lat="44.68365469906749" lon="8.50994341780301"><ele>154.0</ele><time>2026-05-03T10:08:33Z</time></trkpt><trkpt lat="44.683569902774714" lon="8.50974490868467"><ele>153.5</ele><time>2026-05-03T10:08:34Z</time></trkpt><trkpt lat="44.683535329182284" lon="8.509566052102203"><ele>153.0</ele><time>2026-05-03T10:08:35Z</time></trkpt><trkpt lat="44.68348688180941" lon="8.509385836062306"><ele>152.25</ele><time>2026-05-03T10:08:36Z</time></trkpt><trkpt lat="44.68344747560188" lon="8.509213317103159"><ele>151.5</ele><time>2026-05-03T10:08:37Z</time></trkpt><trkpt lat="44.68342063760757" lon="8.509046971643858"><ele>150.75</ele><time>2026-05-03T10:08:38Z</time></trkpt><trkpt lat="44.683367727163855" lon="8.508862971055667"><ele>150.0</ele><time>2026-05-03T10:08:39Z</time></trkpt><trkpt lat="44.68332025221078" lon="8.508683537234035"><ele>150.0</ele><time>2026-05-03T10:08:40Z</time></trkpt><trkpt lat="44.68326650870035" lon="8.50849999356291"><ele>150.0</ele><time>2026-05-03T10:08:41Z</time></trkpt><trkpt lat="44.6832159097207" lon="8.508327874890135"><ele>150.0</ele><time>2026-05-03T10:08:42Z</time></trkpt><trkpt lat="44.683175076551485" lon="8.508176025585252"><ele>150.0</ele><time>2026-05-03T10:08:43Z</time></trkpt><trkpt lat="44.68313909625959" lon="8.508050693651969"><ele>150.0</ele><time>2026-05-03T10:08:44Z</time></trkpt><trkpt lat="44.68311179968521" lon="8.507943322266685"><ele>150.0</ele><time>2026-05-03T10:08:45Z</time></trkpt><trkpt lat="44.68308936642638" lon="8.507827832945878"><ele>150.0</ele><time>2026-05-03T10:08:46Z</time></trkpt><trkpt lat="44.683063261141704" lon="8.507712736071738"><ele>150.0</ele><time>2026-05-03T10:08:47Z</time></trkpt><trkpt lat="44.68303172829892" lon="8.507588587813974"><ele>150.0</ele><time>2026-05-03T10:08:48Z</time></trkpt><trkpt lat="44.68300597098403" lon="8.507459803741739"><ele>150.0</ele><time>2026-05-03T10:08:49Z</time></trkpt><trkpt lat="44.68296955080605" lon="8.507324066097139"><ele>150.2</ele><time>2026-05-03T10:08:50Z</time></trkpt><trkpt lat="44.68293834916798" lon="8.50718791633857"><ele>150.4</ele><time>2026-05-03T10:08:51Z</time></trkpt><trkpt lat="44.68290648199104" lon="8.507050377265816"><ele>150.6</ele><time>2026-05-03T10:08:52Z</time></trkpt><trkpt lat="44.68285723866498" lon="8.506906337803143"><ele>150.8</ele><time>2026-05-03T10:08:53Z</time></trkpt><trkpt lat="44.68282481258352" lon="8.506771316145455"><ele>151.0</ele><time>2026-05-03T10:08:54Z</time></trkpt><trkpt lat="44.68278898630138" lon="8.50663452516886"><ele>151.4</ele><time>2026-05-03T10:08:55Z</time></trkpt><trkpt lat="44.682752021858725" lon="8.506496024564827"><ele>151.8</ele><time>2026-05-03T10:08:56Z</time></trkpt><trkpt lat="44.682720208956944" lon="8.506359786970418"><ele>152.20000000000002</ele><time>2026-05-03T10:08:57Z</time></trkpt><trkpt lat="44.68269639852558" lon="8.50623733889445"><ele>152.6</ele><time>2026-05-03T10:08:58Z</time></trkpt><trkpt lat="44.682656360060314" lon="8.506116380112928"><ele>153.0</ele><time>2026-05-03T10:08:59Z</time></trkpt><trkpt lat="44.68262409248816" lon="8.506001394452216"><ele>153.0</ele><time>2026-05-03T10:09:00Z</time></trkpt><trkpt lat="44.68261083151726" lon="8.505907920021443"><ele>153.0</ele><time>2026-05-03T10:09:01Z</time></trkpt><trkpt lat="44.6825875179691" lon="8.505802167781166"><ele>153.0</ele><time>2026-05-03T10:09:02Z</time></trkpt><trkpt lat="44.68256340228147" lon="8.505702412252901"><ele>153.0</ele><time>2026-05-03T10:09:03Z</time></trkpt><trkpt lat="44.682535076426085" lon="8.505591627894265"><ele>153.0</ele><time>2026-05-03T10:09:04Z</time></trkpt><trkpt lat="44.68250713045008" lon="8.50547991022845"><ele>153.0</ele><time>2026-05-03T10:09:05Z</time></trkpt><trkpt lat="44.6824763609794" lon="8.505362536588997"><ele>153.20000000000002</ele><time>2026-05-03T10:09:06Z</time></trkpt><trkpt lat="44.682445659234276" lon="8.505248164541246"><ele>153.4</ele><time>2026-05-03T10:09:07Z</time></trkpt><trkpt lat="44.68240992943094" lon="8.505128602051746"><ele>153.60000000000002</ele><time>2026-05-03T10:09:08Z</time></trkpt><trkpt lat="44.682378650591794" lon="8.505003709725726"><ele>153.8</ele><time>2026-05-03T10:09:09Z</time></trkpt><trkpt lat="44.68234520427029" lon="8.50488379123829"><ele>154.0</ele><time>2026-05-03T10:09:10Z</time></trkpt><trkpt lat="44.68230752203413" lon="8.504770899101079"><ele>154.0</ele><time>2026-05-03T10:09:11Z</time></trkpt><trkpt lat="44.682267151851086" lon="8.504667124864493"><ele>154.0</ele><time>2026-05-03T10:09:12Z</time></trkpt><trkpt lat="44.68224414414539" lon="8.50458150899909"><ele>154.0</ele><time>2026-05-03T10:09:13Z</time></trkpt><trkpt lat="44.682224487584655" lon="8.504496612872728"><ele>154.0</ele><time>2026-05-03T10:09:14Z</time></trkpt><trkpt lat="44.682215550853925" lon="8.504401236817563"><ele>154.0</ele><time>2026-05-03T10:09:15Z</time></trkpt><trkpt lat="44.68219186060828" lon="8.504312244218964"><ele>154.0</ele><time>2026-05-03T10:09:16Z</time></trkpt><trkpt lat="44.68216857576999" lon="8.504224774486817"><ele>154.0</ele><time>2026-05-03T10:09:17Z</time></trkpt><trkpt lat="44.68213634280754" lon="8.504135089876259"><ele>154.0</ele><time>2026-05-03T10:09:18Z</time></trkpt><trkpt lat="44.68215816807091" lon="8.504046114103705"><ele>154.0</ele><time>2026-05-03T10:09:19Z</time></trkpt><trkpt lat="44.68219127232192" lon="8.503942875400615"><ele>154.0</ele><time>2026-05-03T10:09:20Z</time></trkpt><trkpt lat="44.68223532296691" lon="8.50384842955388"><ele>154.0</ele><time>2026-05-03T10:09:20.999Z</time></trkpt><trkpt lat="44.68225223107008" lon="8.503747958789836"><ele>154.0</ele><time>2026-05-03T10:09:21.999Z</time></trkpt><trkpt lat="44.68224035048003" lon="8.503635997204656"><ele>154.0</ele><time>2026-05-03T10:09:22.999Z</time></trkpt><trkpt lat="44.68220867333673" lon="8.503518319066778"><ele>154.0</ele><time>2026-05-03T10:09:23.999Z</time></trkpt><trkpt lat="44.682157233011104" lon="8.503436563539099"><ele>154.0</ele><time>2026-05-03T10:09:24.999Z</time></trkpt><trkpt lat="44.68209276366717" lon="8.503389928622678"><ele>154.0</ele><time>2026-05-03T10:09:25.999Z</time></trkpt><trkpt lat="44.682017028682445" lon="8.503306869415294"><ele>154.0</ele><time>2026-05-03T10:09:26.999Z</time></trkpt><trkpt lat="44.68194247930461" lon="8.503208617909086"><ele>154.0</ele><time>2026-05-03T10:09:27.999Z</time></trkpt><trkpt lat="44.681880941707966" lon="8.503092079764189"><ele>153.5</ele><time>2026-05-03T10:09:28.999Z</time></trkpt><trkpt lat="44.68183546020265" lon="8.502948272460351"><ele>153.0</ele><time>2026-05-03T10:09:29.999Z</time></trkpt><trkpt lat="44.681795883662915" lon="8.502795635924084"><ele>152.5</ele><time>2026-05-03T10:09:30.999Z</time></trkpt><trkpt lat="44.68175875678893" lon="8.502640248941484"><ele>152.0</ele><time>2026-05-03T10:09:31.999Z</time></trkpt><trkpt lat="44.68171911548142" lon="8.502487846111705"><ele>153.25</ele><time>2026-05-03T10:09:32.999Z</time></trkpt><trkpt lat="44.68167688091145" lon="8.502331329144418"><ele>154.5</ele><time>2026-05-03T10:09:33.999Z</time></trkpt><trkpt lat="44.6816312975623" lon="8.502160919884131"><ele>155.75</ele><time>2026-05-03T10:09:34.999Z</time></trkpt><trkpt lat="44.68158629159938" lon="8.501996605454085"><ele>157.0</ele><time>2026-05-03T10:09:35.999Z</time></trkpt><trkpt lat="44.6815407410926" lon="8.501830058326602"><ele>158.25</ele><time>2026-05-03T10:09:36.999Z</time></trkpt><trkpt lat="44.68149892737043" lon="8.501666019298439"><ele>159.5</ele><time>2026-05-03T10:09:37.999Z</time></trkpt><trkpt lat="44.68146524406767" lon="8.501513992569418"><ele>160.75</ele><time>2026-05-03T10:09:38.999Z</time></trkpt><trkpt lat="44.681425332252246" lon="8.501363331238661"><ele>162.0</ele><time>2026-05-03T10:09:39.999Z</time></trkpt><trkpt lat="44.681374322857934" lon="8.501202474150697"><ele>162.5</ele><time>2026-05-03T10:09:40.999Z</time></trkpt><trkpt lat="44.68133991229523" lon="8.501028679158686"><ele>163.0</ele><time>2026-05-03T10:09:41.999Z</time></trkpt><trkpt lat="44.681302873868965" lon="8.500886210133032"><ele>163.5</ele><time>2026-05-03T10:09:42.999Z</time></trkpt><trkpt lat="44.681262904325116" lon="8.500732466535629"><ele>164.0</ele><time>2026-05-03T10:09:43.999Z</time></trkpt><trkpt lat="44.681228232710446" lon="8.500599101386708"><ele>164.0</ele><time>2026-05-03T10:09:44.999Z</time></trkpt><trkpt lat="44.68118927513812" lon="8.500449250331645"><ele>164.0</ele><time>2026-05-03T10:09:45.999Z</time></trkpt><trkpt lat="44.68113726227274" lon="8.500309581002817"><ele>164.0</ele><time>2026-05-03T10:09:46.999Z</time></trkpt><trkpt lat="44.68111839157246" lon="8.500168329121825"><ele>164.0</ele><time>2026-05-03T10:09:47.999Z</time></trkpt><trkpt lat="44.68108035633057" lon="8.50001828165382"><ele>164.0</ele><time>2026-05-03T10:09:48.999Z</time></trkpt><trkpt lat="44.681030290442024" lon="8.499850155767563"><ele>162.66666666666666</ele><time>2026-05-03T10:09:49.999Z</time></trkpt><trkpt lat="44.68097245811387" lon="8.499652659716528"><ele>161.33333333333334</ele><time>2026-05-03T10:09:50.999Z</time></trkpt><trkpt lat="44.68092209133752" lon="8.499455722558716"><ele>160.0</ele><time>2026-05-03T10:09:51.999Z</time></trkpt><trkpt lat="44.68087328102624" lon="8.499254196384621"><ele>160.0</ele><time>2026-05-03T10:09:52.999Z</time></trkpt><trkpt lat="44.68083043975956" lon="8.499060821656492"><ele>160.0</ele><time>2026-05-03T10:09:53.999Z</time></trkpt><trkpt lat="44.680785934888206" lon="8.4988774371176"><ele>160.0</ele><time>2026-05-03T10:09:54.999Z</time></trkpt><trkpt lat="44.68073188656816" lon="8.49869569985754"><ele>160.0</ele><time>2026-05-03T10:09:55.999Z</time></trkpt><trkpt lat="44.68068530821235" lon="8.49851744406163"><ele>160.5</ele><time>2026-05-03T10:09:56.999Z</time></trkpt><trkpt lat="44.68063509223649" lon="8.498344815987013"><ele>161.0</ele><time>2026-05-03T10:09:58Z</time></trkpt><trkpt lat="44.680586744298026" lon="8.498168397523015"><ele>161.5</ele><time>2026-05-03T10:09:59Z</time></trkpt><trkpt lat="44.68055361389524" lon="8.498012605449091"><ele>162.0</ele><time>2026-05-03T10:10:00Z</time></trkpt><trkpt lat="44.680515843202244" lon="8.497854877891895"><ele>162.0</ele><time>2026-05-03T10:10:01Z</time></trkpt><trkpt lat="44.680482215072395" lon="8.497703775536182"><ele>162.0</ele><time>2026-05-03T10:10:02Z</time></trkpt><trkpt lat="44.68044666659908" lon="8.497556878138408"><ele>162.0</ele><time>2026-05-03T10:10:03Z</time></trkpt><trkpt lat="44.680414373154925" lon="8.497423140120645"><ele>162.0</ele><time>2026-05-03T10:10:04Z</time></trkpt><trkpt lat="44.68038419411494" lon="8.497299436703038"><ele>162.0</ele><time>2026-05-03T10:10:05Z</time></trkpt><trkpt lat="44.680382588517766" lon="8.497181397453431"><ele>162.16666666666666</ele><time>2026-05-03T10:10:06Z</time></trkpt><trkpt lat="44.68037383313476" lon="8.497076551205117"><ele>162.33333333333334</ele><time>2026-05-03T10:10:07Z</time></trkpt><trkpt lat="44.68036184075163" lon="8.496985377186135"><ele>162.5</ele><time>2026-05-03T10:10:08Z</time></trkpt><trkpt lat="44.68037933665053" lon="8.496888162356251"><ele>162.66666666666669</ele><time>2026-05-03T10:10:09Z</time></trkpt><trkpt lat="44.68041382861762" lon="8.496792096780307"><ele>162.83333333333334</ele><time>2026-05-03T10:10:10Z</time></trkpt><trkpt lat="44.68045370439274" lon="8.496700976167757"><ele>163.0</ele><time>2026-05-03T10:10:11Z</time></trkpt><trkpt lat="44.680527949119984" lon="8.49662769530091"><ele>163.0</ele><time>2026-05-03T10:10:12Z</time></trkpt><trkpt lat="44.68060236803519" lon="8.496566113862183"><ele>163.0</ele><time>2026-05-03T10:10:13Z</time></trkpt><trkpt lat="44.680666175915796" lon="8.496496459607483"><ele>163.0</ele><time>2026-05-03T10:10:14Z</time></trkpt><trkpt lat="44.68069942479784" lon="8.496408208428976"><ele>163.0</ele><time>2026-05-03T10:10:15Z</time></trkpt><trkpt lat="44.680705761965754" lon="8.496307552888544"><ele>163.0</ele><time>2026-05-03T10:10:16Z</time></trkpt><trkpt lat="44.68068709365658" lon="8.49619412334556"><ele>163.0</ele><time>2026-05-03T10:10:17Z</time></trkpt><trkpt lat="44.68064206705909" lon="8.496088502845206"><ele>163.2</ele><time>2026-05-03T10:10:18Z</time></trkpt><trkpt lat="44.68058543302363" lon="8.495987571667792"><ele>163.4</ele><time>2026-05-03T10:10:19Z</time></trkpt><trkpt lat="44.68052542200248" lon="8.495910804331778"><ele>163.6</ele><time>2026-05-03T10:10:20Z</time></trkpt><trkpt lat="44.68047265407995" lon="8.49581039321824"><ele>163.79999999999998</ele><time>2026-05-03T10:10:21Z</time></trkpt><trkpt lat="44.68044549477385" lon="8.495680400371032"><ele>164.0</ele><time>2026-05-03T10:10:22Z</time></trkpt><trkpt lat="44.6804354344094" lon="8.495535080644904"><ele>163.6</ele><time>2026-05-03T10:10:23Z</time></trkpt><trkpt lat="44.680441566362596" lon="8.49540476131275"><ele>163.2</ele><time>2026-05-03T10:10:24Z</time></trkpt><trkpt lat="44.680465361377244" lon="8.49527328840785"><ele>162.79999999999998</ele><time>2026-05-03T10:10:25Z</time></trkpt><trkpt lat="44.68048946992579" lon="8.4951366398306"><ele>162.39999999999998</ele><time>2026-05-03T10:10:26Z</time></trkpt><trkpt lat="44.68051451906506" lon="8.494983754006146"><ele>162.0</ele><time>2026-05-03T10:10:27Z</time></trkpt><trkpt lat="44.68054196709789" lon="8.494831660378436"><ele>162.0</ele><time>2026-05-03T10:10:28Z</time></trkpt><trkpt lat="44.680566236418805" lon="8.494653992466098"><ele>162.0</ele><time>2026-05-03T10:10:29Z</time></trkpt><trkpt lat="44.68058834229776" lon="8.494473656577002"><ele>162.0</ele><time>2026-05-03T10:10:30Z</time></trkpt><trkpt lat="44.68060257491259" lon="8.494303373200001"><ele>162.0</ele><time>2026-05-03T10:10:31Z</time></trkpt><trkpt lat="44.680616982308564" lon="8.494120375263844"><ele>162.0</ele><time>2026-05-03T10:10:32Z</time></trkpt><trkpt lat="44.68063816946508" lon="8.493951391012505"><ele>162.0</ele><time>2026-05-03T10:10:33Z</time></trkpt><trkpt lat="44.68064763492948" lon="8.493770948158234"><ele>162.0</ele><time>2026-05-03T10:10:34Z</time></trkpt><trkpt lat="44.68064731143979" lon="8.493593553464445"><ele>162.0</ele><time>2026-05-03T10:10:35Z</time></trkpt><trkpt lat="44.68064348175644" lon="8.493411146724737"><ele>163.0</ele><time>2026-05-03T10:10:36Z</time></trkpt><trkpt lat="44.680637232774636" lon="8.493226669272701"><ele>164.0</ele><time>2026-05-03T10:10:37Z</time></trkpt><trkpt lat="44.680619176829346" lon="8.493031769540965"><ele>165.0</ele><time>2026-05-03T10:10:38Z</time></trkpt><trkpt lat="44.68063936689071" lon="8.49285825992893"><ele>166.0</ele><time>2026-05-03T10:10:39Z</time></trkpt><trkpt lat="44.68061730938357" lon="8.492658962065653"><ele>166.5</ele><time>2026-05-03T10:10:40Z</time></trkpt><trkpt lat="44.68059573395873" lon="8.492465710328485"><ele>167.0</ele><time>2026-05-03T10:10:41Z</time></trkpt><trkpt lat="44.68057437267151" lon="8.492272405692624"><ele>167.5</ele><time>2026-05-03T10:10:42Z</time></trkpt><trkpt lat="44.68054050918406" lon="8.492109378359169"><ele>168.0</ele><time>2026-05-03T10:10:43Z</time></trkpt><trkpt lat="44.680508977406454" lon="8.491919060206"><ele>168.0</ele><time>2026-05-03T10:10:44Z</time></trkpt><trkpt lat="44.680487746073695" lon="8.491738325774119"><ele>168.0</ele><time>2026-05-03T10:10:45Z</time></trkpt><trkpt lat="44.68047372656682" lon="8.491554235150048"><ele>168.0</ele><time>2026-05-03T10:10:46Z</time></trkpt><trkpt lat="44.680477269568875" lon="8.49137645915311"><ele>168.0</ele><time>2026-05-03T10:10:47Z</time></trkpt><trkpt lat="44.680476020980024" lon="8.491203526884174"><ele>168.75</ele><time>2026-05-03T10:10:48Z</time></trkpt><trkpt lat="44.68047541383134" lon="8.49102829983631"><ele>169.5</ele><time>2026-05-03T10:10:49Z</time></trkpt><trkpt lat="44.68046803878168" lon="8.490860336553935"><ele>170.25</ele><time>2026-05-03T10:10:50Z</time></trkpt><trkpt lat="44.680467236216444" lon="8.490691316084119"><ele>171.0</ele><time>2026-05-03T10:10:51Z</time></trkpt><trkpt lat="44.68050389851535" lon="8.490524743639023"><ele>169.75</ele><time>2026-05-03T10:10:52Z</time></trkpt><trkpt lat="44.68054882241295" lon="8.49034885355884"><ele>168.5</ele><time>2026-05-03T10:10:53Z</time></trkpt><trkpt lat="44.680605214860805" lon="8.490158431123234"><ele>167.25</ele><time>2026-05-03T10:10:54Z</time></trkpt><trkpt lat="44.68067394190136" lon="8.489973333851061"><ele>166.0</ele><time>2026-05-03T10:10:55Z</time></trkpt><trkpt lat="44.6807379839461" lon="8.489792087802918"><ele>166.0</ele><time>2026-05-03T10:10:56Z</time></trkpt><trkpt lat="44.68080021670746" lon="8.489604745914654"><ele>166.0</ele><time>2026-05-03T10:10:57Z</time></trkpt><trkpt lat="44.680854134340095" lon="8.48939642543934"><ele>166.0</ele><time>2026-05-03T10:10:58Z</time></trkpt><trkpt lat="44.680887164184874" lon="8.489174470488935"><ele>163.33333333333334</ele><time>2026-05-03T10:10:59Z</time></trkpt><trkpt lat="44.68091352597949" lon="8.488946281127461"><ele>160.66666666666666</ele><time>2026-05-03T10:11:00Z</time></trkpt><trkpt lat="44.68093927158311" lon="8.4887205575955"><ele>158.0</ele><time>2026-05-03T10:11:01Z</time></trkpt><trkpt lat="44.680964988984904" lon="8.488492638766235"><ele>158.0</ele><time>2026-05-03T10:11:02Z</time></trkpt><trkpt lat="44.68099081269293" lon="8.488280819057794"><ele>158.0</ele><time>2026-05-03T10:11:03Z</time></trkpt><trkpt lat="44.681011898604346" lon="8.488064203342267"><ele>158.0</ele><time>2026-05-03T10:11:04Z</time></trkpt><trkpt lat="44.6810265707851" lon="8.487847006529535"><ele>158.33333333333331</ele><time>2026-05-03T10:11:05Z</time></trkpt><trkpt lat="44.68103442355794" lon="8.487623939094464"><ele>158.66666666666666</ele><time>2026-05-03T10:11:06Z</time></trkpt><trkpt lat="44.68102193063685" lon="8.487398605563415"><ele>159.0</ele><time>2026-05-03T10:11:07Z</time></trkpt><trkpt lat="44.68099407366475" lon="8.487169486974182"><ele>160.33333333333334</ele><time>2026-05-03T10:11:08Z</time></trkpt><trkpt lat="44.68094864272412" lon="8.486942378087086"><ele>161.66666666666669</ele><time>2026-05-03T10:11:09Z</time></trkpt><trkpt lat="44.680899119318646" lon="8.486717357283375"><ele>163.0</ele><time>2026-05-03T10:11:10Z</time></trkpt><trkpt lat="44.68084790280128" lon="8.486496826614687"><ele>163.0</ele><time>2026-05-03T10:11:11Z</time></trkpt><trkpt lat="44.68079498562244" lon="8.486281798366095"><ele>163.0</ele><time>2026-05-03T10:11:12Z</time></trkpt><trkpt lat="44.68074121201249" lon="8.486059813109279"><ele>163.0</ele><time>2026-05-03T10:11:13Z</time></trkpt><trkpt lat="44.68068693449368" lon="8.485841474917079"><ele>164.0</ele><time>2026-05-03T10:11:14Z</time></trkpt><trkpt lat="44.68061808537745" lon="8.485623724179396"><ele>165.0</ele><time>2026-05-03T10:11:15Z</time></trkpt><trkpt lat="44.6805469415805" lon="8.485427101173656"><ele>166.0</ele><time>2026-05-03T10:11:16Z</time></trkpt><trkpt lat="44.68045848280341" lon="8.48524424298488"><ele>162.66666666666669</ele><time>2026-05-03T10:11:17Z</time></trkpt><trkpt lat="44.680376362410875" lon="8.48507087046148"><ele>159.33333333333334</ele><time>2026-05-03T10:11:18Z</time></trkpt><trkpt lat="44.68028524169072" lon="8.484893865778572"><ele>156.0</ele><time>2026-05-03T10:11:19Z</time></trkpt><trkpt lat="44.6801919217426" lon="8.484716944284443"><ele>160.33333333333334</ele><time>2026-05-03T10:11:19.999Z</time></trkpt><trkpt lat="44.680092840597815" lon="8.484549624506244"><ele>164.66666666666669</ele><time>2026-05-03T10:11:20.999Z</time></trkpt><trkpt lat="44.67998472066499" lon="8.484385047880384"><ele>169.0</ele><time>2026-05-03T10:11:21.999Z</time></trkpt><trkpt lat="44.679871692929765" lon="8.484233014274064"><ele>169.0</ele><time>2026-05-03T10:11:22.999Z</time></trkpt><trkpt lat="44.6797424200864" lon="8.484088072757984"><ele>169.0</ele><time>2026-05-03T10:11:23.999Z</time></trkpt><trkpt lat="44.679598481735255" lon="8.483921853159075"><ele>169.0</ele><time>2026-05-03T10:11:24.999Z</time></trkpt><trkpt lat="44.67947220235031" lon="8.483793459211775"><ele>166.66666666666669</ele><time>2026-05-03T10:11:25.999Z</time></trkpt><trkpt lat="44.67932817156984" lon="8.483685214923343"><ele>164.33333333333334</ele><time>2026-05-03T10:11:26.999Z</time></trkpt><trkpt lat="44.679191972910864" lon="8.483566074875892"><ele>162.0</ele><time>2026-05-03T10:11:27.999Z</time></trkpt><trkpt lat="44.67905295790156" lon="8.483455674003874"><ele>162.0</ele><time>2026-05-03T10:11:28.999Z</time></trkpt><trkpt lat="44.678909462106255" lon="8.483344213627342"><ele>162.0</ele><time>2026-05-03T10:11:29.999Z</time></trkpt><trkpt lat="44.67877244552141" lon="8.483219849936766"><ele>162.0</ele><time>2026-05-03T10:11:30.999Z</time></trkpt><trkpt lat="44.67864591186558" lon="8.483125148992324"><ele>164.66666666666666</ele><time>2026-05-03T10:11:31.999Z</time></trkpt><trkpt lat="44.67848553769006" lon="8.48301269129185"><ele>167.33333333333331</ele><time>2026-05-03T10:11:32.999Z</time></trkpt><trkpt lat="44.67833613498138" lon="8.482919556979455"><ele>170.0</ele><time>2026-05-03T10:11:33.999Z</time></trkpt><trkpt lat="44.678172182591794" lon="8.482842755434321"><ele>170.0</ele><time>2026-05-03T10:11:34.999Z</time></trkpt><trkpt lat="44.678002429424076" lon="8.482787039010855"><ele>170.0</ele><time>2026-05-03T10:11:35.999Z</time></trkpt><trkpt lat="44.677829076457314" lon="8.482741569575206"><ele>170.0</ele><time>2026-05-03T10:11:36.999Z</time></trkpt><trkpt lat="44.6776606326131" lon="8.482708601534569"><ele>171.0</ele><time>2026-05-03T10:11:37.999Z</time></trkpt><trkpt lat="44.67749189826621" lon="8.48267687555141"><ele>172.0</ele><time>2026-05-03T10:11:38.999Z</time></trkpt><trkpt lat="44.677319459042415" lon="8.482644452979077"><ele>173.0</ele><time>2026-05-03T10:11:39.999Z</time></trkpt><trkpt lat="44.67714427430204" lon="8.482610473461566"><ele>173.0</ele><time>2026-05-03T10:11:40.999Z</time></trkpt><trkpt lat="44.67696806590662" lon="8.482575248986297"><ele>173.0</ele><time>2026-05-03T10:11:41.999Z</time></trkpt><trkpt lat="44.676794982302326" lon="8.482562668472083"><ele>173.0</ele><time>2026-05-03T10:11:42.999Z</time></trkpt><trkpt lat="44.676623158508434" lon="8.482520665079296"><ele>170.66666666666666</ele><time>2026-05-03T10:11:43.999Z</time></trkpt><trkpt lat="44.67645737981298" lon="8.482472217321106"><ele>168.33333333333334</ele><time>2026-05-03T10:11:44.999Z</time></trkpt><trkpt lat="44.676290965352884" lon="8.482410094318437"><ele>166.0</ele><time>2026-05-03T10:11:45.999Z</time></trkpt><trkpt lat="44.67612617804139" lon="8.482332223982274"><ele>163.0</ele><time>2026-05-03T10:11:46.999Z</time></trkpt><trkpt lat="44.67595843151581" lon="8.482255516780551"><ele>160.0</ele><time>2026-05-03T10:11:47.999Z</time></trkpt><trkpt lat="44.67578248640538" lon="8.482177960654422"><ele>157.0</ele><time>2026-05-03T10:11:48.999Z</time></trkpt><trkpt lat="44.675630217660235" lon="8.48206483133283"><ele>158.33333333333334</ele><time>2026-05-03T10:11:49.999Z</time></trkpt><trkpt lat="44.67546518467493" lon="8.481966705078877"><ele>159.66666666666666</ele><time>2026-05-03T10:11:50.999Z</time></trkpt><trkpt lat="44.6753137792859" lon="8.481866837695584"><ele>161.0</ele><time>2026-05-03T10:11:51.999Z</time></trkpt><trkpt lat="44.67515888193455" lon="8.481738457475263"><ele>161.0</ele><time>2026-05-03T10:11:52.999Z</time></trkpt><trkpt lat="44.67500553229502" lon="8.48160138144666"><ele>161.0</ele><time>2026-05-03T10:11:53.999Z</time></trkpt><trkpt lat="44.674857348066965" lon="8.481462870235102"><ele>161.0</ele><time>2026-05-03T10:11:54.999Z</time></trkpt><trkpt lat="44.674710899571906" lon="8.481324959856366"><ele>161.66666666666666</ele><time>2026-05-03T10:11:55.999Z</time></trkpt><trkpt lat="44.674560793725085" lon="8.481182844363016"><ele>162.33333333333334</ele><time>2026-05-03T10:11:56.999Z</time></trkpt><trkpt lat="44.674405835858074" lon="8.481062865153904"><ele>163.0</ele><time>2026-05-03T10:11:57.999Z</time></trkpt><trkpt lat="44.674261258772354" lon="8.480921782853938"><ele>163.0</ele><time>2026-05-03T10:11:58.999Z</time></trkpt><trkpt lat="44.67412007291347" lon="8.480771150449938"><ele>163.0</ele><time>2026-05-03T10:11:59.999Z</time></trkpt><trkpt lat="44.67397780926772" lon="8.480630240139757"><ele>163.0</ele><time>2026-05-03T10:12:00.999Z</time></trkpt><trkpt lat="44.673832510700414" lon="8.480497462348053"><ele>162.66666666666669</ele><time>2026-05-03T10:12:01.999Z</time></trkpt><trkpt lat="44.67371038488994" lon="8.480324983675086"><ele>162.33333333333334</ele><time>2026-05-03T10:12:02.999Z</time></trkpt><trkpt lat="44.67360218237683" lon="8.480147818821083"><ele>162.0</ele><time>2026-05-03T10:12:04Z</time></trkpt><trkpt lat="44.67349495049582" lon="8.479975931054078"><ele>162.0</ele><time>2026-05-03T10:12:05Z</time></trkpt><trkpt lat="44.673400832954954" lon="8.479816083095999"><ele>162.0</ele><time>2026-05-03T10:12:06Z</time></trkpt><trkpt lat="44.6733123226298" lon="8.479643014775847"><ele>162.0</ele><time>2026-05-03T10:12:07Z</time></trkpt><trkpt lat="44.67323822294585" lon="8.479468931548949"><ele>162.0</ele><time>2026-05-03T10:12:08Z</time></trkpt><trkpt lat="44.673165140753305" lon="8.479261499219918"><ele>164.0</ele><time>2026-05-03T10:12:09Z</time></trkpt><trkpt lat="44.6731044285571" lon="8.479054768550615"><ele>166.0</ele><time>2026-05-03T10:12:10Z</time></trkpt><trkpt lat="44.67306334387405" lon="8.478855871388925"><ele>168.0</ele><time>2026-05-03T10:12:11Z</time></trkpt><trkpt lat="44.673036764507074" lon="8.478657161196846"><ele>169.0</ele><time>2026-05-03T10:12:12Z</time></trkpt><trkpt lat="44.67300825976532" lon="8.478478257508241"><ele>170.0</ele><time>2026-05-03T10:12:13Z</time></trkpt><trkpt lat="44.673006276081956" lon="8.478299218566601"><ele>171.0</ele><time>2026-05-03T10:12:14Z</time></trkpt><trkpt lat="44.67300841995349" lon="8.478135719093777"><ele>172.0</ele><time>2026-05-03T10:12:15Z</time></trkpt><trkpt lat="44.67301255701952" lon="8.47797886278866"><ele>171.66666666666669</ele><time>2026-05-03T10:12:16Z</time></trkpt><trkpt lat="44.673012214699106" lon="8.477829055189417"><ele>171.33333333333334</ele><time>2026-05-03T10:12:17Z</time></trkpt><trkpt lat="44.673009184767025" lon="8.477707467656169"><ele>171.0</ele><time>2026-05-03T10:12:18Z</time></trkpt><trkpt lat="44.67301045202648" lon="8.477597120697235"><ele>170.66666666666666</ele><time>2026-05-03T10:12:19Z</time></trkpt><trkpt lat="44.67302427540136" lon="8.477456845784669"><ele>170.33333333333331</ele><time>2026-05-03T10:12:21Z</time></trkpt><trkpt lat="44.67305760425952" lon="8.477380580859394"><ele>170.0</ele><time>2026-05-03T10:12:23Z</time></trkpt><trkpt lat="44.67304842206991" lon="8.477276155539025"><ele>170.0</ele><time>2026-05-03T10:12:28Z</time></trkpt><trkpt lat="44.6731601537168" lon="8.47715315780794"><ele>170.0</ele><time>2026-05-03T10:12:31Z</time></trkpt><trkpt lat="44.67320521015582" lon="8.477033718797575"><ele>170.0</ele><time>2026-05-03T10:12:33Z</time></trkpt><trkpt lat="44.67324191756053" lon="8.476947579753574"><ele>170.0</ele><time>2026-05-03T10:12:34Z</time></trkpt><trkpt lat="44.673300856812546" lon="8.47676793224105"><ele>169.6</ele><time>2026-05-03T10:12:36Z</time></trkpt><trkpt lat="44.67334331953692" lon="8.476668951196434"><ele>169.2</ele><time>2026-05-03T10:12:37Z</time></trkpt><trkpt lat="44.6733985868632" lon="8.476567466863557"><ele>168.8</ele><time>2026-05-03T10:12:38Z</time></trkpt><trkpt lat="44.6734488500111" lon="8.476453484641114"><ele>168.4</ele><time>2026-05-03T10:12:39Z</time></trkpt><trkpt lat="44.67349708148029" lon="8.47633178441714"><ele>168.0</ele><time>2026-05-03T10:12:40Z</time></trkpt><trkpt lat="44.673546807127245" lon="8.476196344381757"><ele>168.0</ele><time>2026-05-03T10:12:41Z</time></trkpt><trkpt lat="44.6735882163653" lon="8.476062246293424"><ele>168.0</ele><time>2026-05-03T10:12:42Z</time></trkpt><trkpt lat="44.67364894567568" lon="8.475949171337284"><ele>168.0</ele><time>2026-05-03T10:12:43Z</time></trkpt><trkpt lat="44.67372510222699" lon="8.475833641080158"><ele>168.0</ele><time>2026-05-03T10:12:44Z</time></trkpt><trkpt lat="44.67380747101482" lon="8.475715461332468"><ele>168.0</ele><time>2026-05-03T10:12:45Z</time></trkpt><trkpt lat="44.67389785256882" lon="8.475607990861196"><ele>170.0</ele><time>2026-05-03T10:12:46Z</time></trkpt><trkpt lat="44.67399177411802" lon="8.475494971993687"><ele>172.0</ele><time>2026-05-03T10:12:47Z</time></trkpt><trkpt lat="44.67409090154405" lon="8.475381811273108"><ele>174.0</ele><time>2026-05-03T10:12:48Z</time></trkpt><trkpt lat="44.674190023932944" lon="8.475266187278505"><ele>176.0</ele><time>2026-05-03T10:12:49Z</time></trkpt><trkpt lat="44.67429165975202" lon="8.475145902841083"><ele>176.0</ele><time>2026-05-03T10:12:50Z</time></trkpt><trkpt lat="44.67439322608284" lon="8.475034377312554"><ele>176.0</ele><time>2026-05-03T10:12:51Z</time></trkpt><trkpt lat="44.6744901750375" lon="8.474918480557571"><ele>176.0</ele><time>2026-05-03T10:12:52Z</time></trkpt><trkpt lat="44.674585276852284" lon="8.47479903469118"><ele>176.0</ele><time>2026-05-03T10:12:53Z</time></trkpt><trkpt lat="44.67468282455786" lon="8.474691294029332"><ele>177.5</ele><time>2026-05-03T10:12:54Z</time></trkpt><trkpt lat="44.674776504663825" lon="8.474576139411411"><ele>179.0</ele><time>2026-05-03T10:12:55Z</time></trkpt><trkpt lat="44.67486541757846" lon="8.474430946305617"><ele>180.5</ele><time>2026-05-03T10:12:56Z</time></trkpt><trkpt lat="44.674963410654755" lon="8.47429492423326"><ele>182.0</ele><time>2026-05-03T10:12:57Z</time></trkpt><trkpt lat="44.675047431724884" lon="8.47414750249635"><ele>182.0</ele><time>2026-05-03T10:12:58Z</time></trkpt><trkpt lat="44.67511655298225" lon="8.474012571964948"><ele>182.0</ele><time>2026-05-03T10:12:59Z</time></trkpt><trkpt lat="44.6751743677511" lon="8.473866679564718"><ele>182.0</ele><time>2026-05-03T10:13:00Z</time></trkpt><trkpt lat="44.67519698574958" lon="8.473715009013343"><ele>182.0</ele><time>2026-05-03T10:13:01Z</time></trkpt><trkpt lat="44.67525013027178" lon="8.473615858215855"><ele>182.0</ele><time>2026-05-03T10:13:02Z</time></trkpt><trkpt lat="44.675272825067175" lon="8.473527762779208"><ele>182.0</ele><time>2026-05-03T10:13:03Z</time></trkpt><trkpt lat="44.67526043850637" lon="8.473409437187371"><ele>182.0</ele><time>2026-05-03T10:13:04Z</time></trkpt><trkpt lat="44.675269687007294" lon="8.473312105567915"><ele>182.0</ele><time>2026-05-03T10:13:05Z</time></trkpt><trkpt lat="44.675308919673505" lon="8.473177451892337"><ele>182.0</ele><time>2026-05-03T10:13:06Z</time></trkpt><trkpt lat="44.67534748624898" lon="8.473060376594361"><ele>182.0</ele><time>2026-05-03T10:13:07Z</time></trkpt><trkpt lat="44.675419017131055" lon="8.472957542006869"><ele>179.75</ele><time>2026-05-03T10:13:08Z</time></trkpt><trkpt lat="44.67548723456498" lon="8.472822408165358"><ele>177.5</ele><time>2026-05-03T10:13:09Z</time></trkpt><trkpt lat="44.67555183478578" lon="8.472692095502723"><ele>175.25</ele><time>2026-05-03T10:13:10Z</time></trkpt><trkpt lat="44.67562641992536" lon="8.472566832056224"><ele>173.0</ele><time>2026-05-03T10:13:11Z</time></trkpt><trkpt lat="44.67569450014312" lon="8.47244237327682"><ele>173.0</ele><time>2026-05-03T10:13:12Z</time></trkpt><trkpt lat="44.67575815672647" lon="8.472320505415963"><ele>173.0</ele><time>2026-05-03T10:13:13Z</time></trkpt><trkpt lat="44.67582237004186" lon="8.472198595615723"><ele>173.0</ele><time>2026-05-03T10:13:14Z</time></trkpt><trkpt lat="44.67589432794222" lon="8.47208389340045"><ele>173.0</ele><time>2026-05-03T10:13:15Z</time></trkpt><trkpt lat="44.67596992140288" lon="8.471968476004182"><ele>173.0</ele><time>2026-05-03T10:13:16Z</time></trkpt><trkpt lat="44.67605046834424" lon="8.471860266609182"><ele>172.0</ele><time>2026-05-03T10:13:17Z</time></trkpt><trkpt lat="44.67612693674534" lon="8.471699583889702"><ele>171.0</ele><time>2026-05-03T10:13:18Z</time></trkpt><trkpt lat="44.67620237121535" lon="8.471565583213966"><ele>170.0</ele><time>2026-05-03T10:13:19Z</time></trkpt><trkpt lat="44.67626801550671" lon="8.471457022504335"><ele>169.0</ele><time>2026-05-03T10:13:20Z</time></trkpt><trkpt lat="44.676305621056294" lon="8.471367317170259"><ele>168.0</ele><time>2026-05-03T10:13:21Z</time></trkpt><trkpt lat="44.67635139637541" lon="8.471306115011474"><ele>167.83333333333334</ele><time>2026-05-03T10:13:22Z</time></trkpt><trkpt lat="44.67639695604889" lon="8.471226999797784"><ele>167.66666666666666</ele><time>2026-05-03T10:13:23.999Z</time></trkpt><trkpt lat="44.67644100987007" lon="8.471154180139857"><ele>167.5</ele><time>2026-05-03T10:13:25.999Z</time></trkpt><trkpt lat="44.67648013784843" lon="8.471068597976982"><ele>167.33333333333331</ele><time>2026-05-03T10:13:27.999Z</time></trkpt><trkpt lat="44.67653724251747" lon="8.470951854093428"><ele>167.16666666666666</ele><time>2026-05-03T10:13:30.999Z</time></trkpt><trkpt lat="44.67663254396543" lon="8.470861230539269"><ele>167.0</ele><time>2026-05-03T10:13:32.999Z</time></trkpt><trkpt lat="44.67666933129074" lon="8.470742683816201"><ele>167.0</ele><time>2026-05-03T10:13:34.999Z</time></trkpt><trkpt lat="44.67669557148801" lon="8.470601180838536"><ele>167.0</ele><time>2026-05-03T10:13:36.999Z</time></trkpt><trkpt lat="44.67672398185016" lon="8.470444970899258"><ele>167.0</ele><time>2026-05-03T10:13:38.999Z</time></trkpt><trkpt lat="44.676745104051015" lon="8.47026471987439"><ele>167.0</ele><time>2026-05-03T10:13:40.999Z</time></trkpt><trkpt lat="44.67676872244979" lon="8.470170188342857"><ele>167.0</ele><time>2026-05-03T10:13:41.999Z</time></trkpt><trkpt lat="44.67678387457877" lon="8.47007018728801"><ele>167.0</ele><time>2026-05-03T10:13:42.999Z</time></trkpt><trkpt lat="44.67680838719041" lon="8.469965120798525"><ele>167.0</ele><time>2026-05-03T10:13:43.999Z</time></trkpt><trkpt lat="44.67682990300638" lon="8.469861997351753"><ele>167.0</ele><time>2026-05-03T10:13:44.999Z</time></trkpt><trkpt lat="44.67684687192951" lon="8.469750979157093"><ele>167.0</ele><time>2026-05-03T10:13:45.999Z</time></trkpt><trkpt lat="44.67686224894255" lon="8.469644436551262"><ele>167.0</ele><time>2026-05-03T10:13:46.999Z</time></trkpt><trkpt lat="44.676875847793326" lon="8.469556285934113"><ele>167.0</ele><time>2026-05-03T10:13:47.999Z</time></trkpt><trkpt lat="44.67688648811111" lon="8.469459160504785"><ele>167.0</ele><time>2026-05-03T10:13:48.999Z</time></trkpt><trkpt lat="44.676906387098114" lon="8.46936692232401"><ele>166.6</ele><time>2026-05-03T10:13:49.999Z</time></trkpt><trkpt lat="44.67691931494358" lon="8.469279046013073"><ele>166.2</ele><time>2026-05-03T10:13:50.999Z</time></trkpt><trkpt lat="44.676937673569135" lon="8.469122350616885"><ele>165.8</ele><time>2026-05-03T10:13:52.999Z</time></trkpt><trkpt lat="44.67697870635814" lon="8.468970291487032"><ele>165.4</ele><time>2026-05-03T10:13:54.999Z</time></trkpt><trkpt lat="44.676982809540945" lon="8.468812962656163"><ele>165.0</ele><time>2026-05-03T10:13:56.999Z</time></trkpt><trkpt lat="44.677017832084246" lon="8.46872613272907"><ele>165.0</ele><time>2026-05-03T10:13:57.999Z</time></trkpt><trkpt lat="44.67703865946527" lon="8.468565134979018"><ele>165.0</ele><time>2026-05-03T10:13:59.999Z</time></trkpt><trkpt lat="44.67705080929995" lon="8.468469287501962"><ele>165.0</ele><time>2026-05-03T10:14:00.999Z</time></trkpt><trkpt lat="44.677071859163995" lon="8.468334289738957"><ele>165.0</ele><time>2026-05-03T10:14:02.999Z</time></trkpt><trkpt lat="44.67712206328588" lon="8.468167132587956"><ele>165.0</ele><time>2026-05-03T10:14:04.999Z</time></trkpt><trkpt lat="44.67714970557099" lon="8.468050497134799"><ele>165.0</ele><time>2026-05-03T10:14:05.999Z</time></trkpt><trkpt lat="44.677171138533055" lon="8.467928950043667"><ele>165.0</ele><time>2026-05-03T10:14:06.999Z</time></trkpt><trkpt lat="44.67719365484153" lon="8.467815198608598"><ele>165.0</ele><time>2026-05-03T10:14:07.999Z</time></trkpt><trkpt lat="44.677219385450954" lon="8.467629720560247"><ele>165.0</ele><time>2026-05-03T10:14:10Z</time></trkpt><trkpt lat="44.67724988698722" lon="8.467459936511084"><ele>165.0</ele><time>2026-05-03T10:14:12Z</time></trkpt><trkpt lat="44.67726059167571" lon="8.467358949539248"><ele>165.0</ele><time>2026-05-03T10:14:13Z</time></trkpt><trkpt lat="44.67726388551738" lon="8.467218668707979"><ele>165.0</ele><time>2026-05-03T10:14:15Z</time></trkpt><trkpt lat="44.67715758000328" lon="8.467171563642843"><ele>165.0</ele><time>2026-05-03T10:14:17Z</time></trkpt><trkpt lat="44.67705079543048" lon="8.467160702320697"><ele>165.0</ele><time>2026-05-03T10:14:18Z</time></trkpt><trkpt lat="44.67697739571578" lon="8.467123925466074"><ele>165.0</ele><time>2026-05-03T10:14:19Z</time></trkpt><trkpt lat="44.67691294439218" lon="8.46710413403036"><ele>165.0</ele><time>2026-05-03T10:14:20Z</time></trkpt><trkpt lat="44.67681112598939" lon="8.467073217711647"><ele>165.0</ele><time>2026-05-03T10:14:22Z</time></trkpt><trkpt lat="44.67673391114605" lon="8.467061703915567"><ele>165.0</ele><time>2026-05-03T10:14:24Z</time></trkpt><trkpt lat="44.67666376812564" lon="8.467065602773456"><ele>165.0</ele><time>2026-05-03T10:14:25Z</time></trkpt><trkpt lat="44.676595686948964" lon="8.467005993335423"><ele>165.0</ele><time>2026-05-03T10:14:29Z</time></trkpt><trkpt lat="44.67651523163537" lon="8.466963556464414"><ele>165.0</ele><time>2026-05-03T10:14:31Z</time></trkpt><trkpt lat="44.67644842515413" lon="8.46693300106098"><ele>165.0</ele><time>2026-05-03T10:14:32Z</time></trkpt><trkpt lat="44.67642456024476" lon="8.466807186862978"><ele>165.0</ele><time>2026-05-03T10:14:34Z</time></trkpt><trkpt lat="44.67645467328121" lon="8.466715921463521"><ele>165.0</ele><time>2026-05-03T10:14:35Z</time></trkpt><trkpt lat="44.676477364944944" lon="8.466567508864442"><ele>165.0</ele><time>2026-05-03T10:14:37Z</time></trkpt><trkpt lat="44.67648268946668" lon="8.466476408311472"><ele>165.0</ele><time>2026-05-03T10:14:38Z</time></trkpt><trkpt lat="44.67648387650027" lon="8.4662583365831"><ele>164.6</ele><time>2026-05-03T10:14:40Z</time></trkpt><trkpt lat="44.676501309844916" lon="8.466154478922606"><ele>164.2</ele><time>2026-05-03T10:14:41Z</time></trkpt><trkpt lat="44.67653447709952" lon="8.465986092986594"><ele>163.8</ele><time>2026-05-03T10:14:43Z</time></trkpt><trkpt lat="44.67653703991777" lon="8.465879699640178"><ele>163.4</ele><time>2026-05-03T10:14:44Z</time></trkpt><trkpt lat="44.676543562075224" lon="8.465757140408185"><ele>163.0</ele><time>2026-05-03T10:14:45Z</time></trkpt><trkpt lat="44.67653620954296" lon="8.465635390964305"><ele>163.0</ele><time>2026-05-03T10:14:46Z</time></trkpt><trkpt lat="44.67652941551537" lon="8.465510745141042"><ele>163.0</ele><time>2026-05-03T10:14:47Z</time></trkpt><trkpt lat="44.67651822935878" lon="8.465405594943237"><ele>163.0</ele><time>2026-05-03T10:14:48Z</time></trkpt><trkpt lat="44.67653538878211" lon="8.465278034219423"><ele>163.0</ele><time>2026-05-03T10:14:49Z</time></trkpt><trkpt lat="44.6765302289684" lon="8.465152851036622"><ele>163.0</ele><time>2026-05-03T10:14:50Z</time></trkpt><trkpt lat="44.67652071105033" lon="8.46505784874949"><ele>163.0</ele><time>2026-05-03T10:14:51Z</time></trkpt><trkpt lat="44.676514775738355" lon="8.464937236337079"><ele>163.0</ele><time>2026-05-03T10:14:52Z</time></trkpt><trkpt lat="44.676489265073236" lon="8.464829265549378"><ele>163.0</ele><time>2026-05-03T10:14:53Z</time></trkpt><trkpt lat="44.676493504705064" lon="8.464725285133513"><ele>163.0</ele><time>2026-05-03T10:14:54Z</time></trkpt><trkpt lat="44.67648728394273" lon="8.46461066508536"><ele>163.0</ele><time>2026-05-03T10:14:55Z</time></trkpt><trkpt lat="44.67648489649725" lon="8.464501601295288"><ele>163.0</ele><time>2026-05-03T10:14:56Z</time></trkpt><trkpt lat="44.67648291910945" lon="8.464406012720902"><ele>163.0</ele><time>2026-05-03T10:14:57Z</time></trkpt><trkpt lat="44.67647563441693" lon="8.464309941168151"><ele>162.5</ele><time>2026-05-03T10:14:58Z</time></trkpt><trkpt lat="44.676471216118976" lon="8.464193077699651"><ele>162.0</ele><time>2026-05-03T10:14:59Z</time></trkpt><trkpt lat="44.67646380870406" lon="8.464071255369667"><ele>161.5</ele><time>2026-05-03T10:15:00Z</time></trkpt><trkpt lat="44.67646658663657" lon="8.463950132075102"><ele>161.0</ele><time>2026-05-03T10:15:01Z</time></trkpt><trkpt lat="44.676461672151085" lon="8.463815624793082"><ele>160.5</ele><time>2026-05-03T10:15:02Z</time></trkpt><trkpt lat="44.676439462073674" lon="8.463698764148383"><ele>160.0</ele><time>2026-05-03T10:15:03Z</time></trkpt><trkpt lat="44.676429116869386" lon="8.463570502578968"><ele>159.83333333333334</ele><time>2026-05-03T10:15:04Z</time></trkpt><trkpt lat="44.676422199955944" lon="8.463443130183347"><ele>159.66666666666669</ele><time>2026-05-03T10:15:05Z</time></trkpt><trkpt lat="44.676413863615544" lon="8.463341272279175"><ele>159.5</ele><time>2026-05-03T10:15:06Z</time></trkpt><trkpt lat="44.67641061603522" lon="8.46324410717379"><ele>159.33333333333334</ele><time>2026-05-03T10:15:07Z</time></trkpt><trkpt lat="44.6764060903412" lon="8.463134881046729"><ele>159.16666666666666</ele><time>2026-05-03T10:15:08Z</time></trkpt><trkpt lat="44.67640931393957" lon="8.462991124397336"><ele>159.0</ele><time>2026-05-03T10:15:10Z</time></trkpt><trkpt lat="44.67640170984305" lon="8.462882244312084"><ele>158.8</ele><time>2026-05-03T10:15:12Z</time></trkpt><trkpt lat="44.67639342661504" lon="8.462695164380374"><ele>158.60000000000002</ele><time>2026-05-03T10:15:14Z</time></trkpt><trkpt lat="44.676389598059906" lon="8.46258423045794"><ele>158.4</ele><time>2026-05-03T10:15:15Z</time></trkpt><trkpt lat="44.676377451610726" lon="8.462469122890347"><ele>158.20000000000002</ele><time>2026-05-03T10:15:16Z</time></trkpt><trkpt lat="44.6763686821542" lon="8.462341763739982"><ele>158.0</ele><time>2026-05-03T10:15:17Z</time></trkpt><trkpt lat="44.67636033192784" lon="8.462206835589123"><ele>159.0</ele><time>2026-05-03T10:15:18Z</time></trkpt><trkpt lat="44.676352736073646" lon="8.462080885676388"><ele>160.0</ele><time>2026-05-03T10:15:19Z</time></trkpt><trkpt lat="44.67634312239615" lon="8.461946894367122"><ele>161.0</ele><time>2026-05-03T10:15:20Z</time></trkpt><trkpt lat="44.67633323439684" lon="8.461808203069538"><ele>162.0</ele><time>2026-05-03T10:15:21Z</time></trkpt><trkpt lat="44.67632569079811" lon="8.461659927686812"><ele>163.0</ele><time>2026-05-03T10:15:22Z</time></trkpt><trkpt lat="44.67633230032138" lon="8.461501695347822"><ele>163.0</ele><time>2026-05-03T10:15:23Z</time></trkpt><trkpt lat="44.676305837629464" lon="8.461371615059072"><ele>163.0</ele><time>2026-05-03T10:15:24Z</time></trkpt><trkpt lat="44.676302554854054" lon="8.4612469007585"><ele>163.0</ele><time>2026-05-03T10:15:25Z</time></trkpt><trkpt lat="44.67629773110025" lon="8.461142969665735"><ele>163.0</ele><time>2026-05-03T10:15:26Z</time></trkpt><trkpt lat="44.67636597056663" lon="8.46098472642982"><ele>163.0</ele><time>2026-05-03T10:15:28Z</time></trkpt><trkpt lat="44.676444382818836" lon="8.460863799696286"><ele>162.25</ele><time>2026-05-03T10:15:30Z</time></trkpt><trkpt lat="44.67650628918724" lon="8.460699466135404"><ele>161.5</ele><time>2026-05-03T10:15:32Z</time></trkpt><trkpt lat="44.67650842064148" lon="8.460553754037965"><ele>160.75</ele><time>2026-05-03T10:15:34Z</time></trkpt><trkpt lat="44.67636877120769" lon="8.460464304936677"><ele>160.0</ele><time>2026-05-03T10:15:35Z</time></trkpt><trkpt lat="44.67632347467067" lon="8.460389198571889"><ele>159.66666666666669</ele><time>2026-05-03T10:15:36Z</time></trkpt><trkpt lat="44.676290763591695" lon="8.460301913396483"><ele>159.33333333333334</ele><time>2026-05-03T10:15:36.999Z</time></trkpt><trkpt lat="44.67626640125096" lon="8.460201113775318"><ele>159.0</ele><time>2026-05-03T10:15:37.999Z</time></trkpt><trkpt lat="44.67625856837529" lon="8.460081855287514"><ele>158.66666666666666</ele><time>2026-05-03T10:15:38.999Z</time></trkpt><trkpt lat="44.67625596175055" lon="8.459946083279213"><ele>158.33333333333331</ele><time>2026-05-03T10:15:39.999Z</time></trkpt><trkpt lat="44.676250401259026" lon="8.459805748672474"><ele>158.0</ele><time>2026-05-03T10:15:40.999Z</time></trkpt><trkpt lat="44.676242523071835" lon="8.459665248871293"><ele>158.16666666666666</ele><time>2026-05-03T10:15:41.999Z</time></trkpt><trkpt lat="44.67623671042224" lon="8.459524973174323"><ele>158.33333333333331</ele><time>2026-05-03T10:15:42.999Z</time></trkpt><trkpt lat="44.67623670070263" lon="8.45939432552622"><ele>158.5</ele><time>2026-05-03T10:15:43.999Z</time></trkpt><trkpt lat="44.67623603831177" lon="8.459280244842017"><ele>158.66666666666666</ele><time>2026-05-03T10:15:44.999Z</time></trkpt><trkpt lat="44.67622960962744" lon="8.459176619056581"><ele>158.83333333333334</ele><time>2026-05-03T10:15:45.999Z</time></trkpt><trkpt lat="44.67622629853297" lon="8.459068686275517"><ele>159.0</ele><time>2026-05-03T10:15:46.999Z</time></trkpt><trkpt lat="44.67623097490931" lon="8.45896958166858"><ele>159.0</ele><time>2026-05-03T10:15:47.999Z</time></trkpt><trkpt lat="44.67623658425116" lon="8.458866597879053"><ele>159.0</ele><time>2026-05-03T10:15:48.999Z</time></trkpt><trkpt lat="44.67622548128987" lon="8.458767564282388"><ele>159.0</ele><time>2026-05-03T10:15:49.999Z</time></trkpt><trkpt lat="44.67622119147172" lon="8.458654581387226"><ele>159.0</ele><time>2026-05-03T10:15:50.999Z</time></trkpt><trkpt lat="44.67621588754549" lon="8.458539161200383"><ele>159.0</ele><time>2026-05-03T10:15:51.999Z</time></trkpt><trkpt lat="44.676212224580006" lon="8.458419836870174"><ele>159.0</ele><time>2026-05-03T10:15:52.999Z</time></trkpt><trkpt lat="44.67621005574234" lon="8.458299963847367"><ele>158.8</ele><time>2026-05-03T10:15:53.999Z</time></trkpt><trkpt lat="44.67621862160827" lon="8.458152494004665"><ele>158.60000000000002</ele><time>2026-05-03T10:15:54.999Z</time></trkpt><trkpt lat="44.676186283377504" lon="8.45800784017074"><ele>158.4</ele><time>2026-05-03T10:15:55.999Z</time></trkpt><trkpt lat="44.67617051646585" lon="8.457858235946446"><ele>158.20000000000002</ele><time>2026-05-03T10:15:56.999Z</time></trkpt><trkpt lat="44.67617279331645" lon="8.457704607563342"><ele>158.0</ele><time>2026-05-03T10:15:57.999Z</time></trkpt><trkpt lat="44.67617137928565" lon="8.457550559630437"><ele>157.75</ele><time>2026-05-03T10:15:58.999Z</time></trkpt><trkpt lat="44.676165876186666" lon="8.457394466877357"><ele>157.5</ele><time>2026-05-03T10:15:59.999Z</time></trkpt><trkpt lat="44.676144982606836" lon="8.45721656857103"><ele>157.25</ele><time>2026-05-03T10:16:00.999Z</time></trkpt><trkpt lat="44.676146692039175" lon="8.457047686855754"><ele>157.0</ele><time>2026-05-03T10:16:01.999Z</time></trkpt><trkpt lat="44.676139024049306" lon="8.456881722039487"><ele>156.75</ele><time>2026-05-03T10:16:02.999Z</time></trkpt><trkpt lat="44.67612695525177" lon="8.456718756237183"><ele>156.5</ele><time>2026-05-03T10:16:03.999Z</time></trkpt><trkpt lat="44.67612431045546" lon="8.456556733101102"><ele>156.25</ele><time>2026-05-03T10:16:04.999Z</time></trkpt><trkpt lat="44.67612121579568" lon="8.45640154568844"><ele>156.0</ele><time>2026-05-03T10:16:05.999Z</time></trkpt><trkpt lat="44.67609775243701" lon="8.456201660531944"><ele>156.0</ele><time>2026-05-03T10:16:06.999Z</time></trkpt><trkpt lat="44.676077667778756" lon="8.455980210924759"><ele>156.0</ele><time>2026-05-03T10:16:07.999Z</time></trkpt><trkpt lat="44.676066877136776" lon="8.455790220927385"><ele>156.0</ele><time>2026-05-03T10:16:08.999Z</time></trkpt><trkpt lat="44.67605855985611" lon="8.455599396777938"><ele>156.0</ele><time>2026-05-03T10:16:09.999Z</time></trkpt><trkpt lat="44.67605715953672" lon="8.455410282976498"><ele>156.25</ele><time>2026-05-03T10:16:10.999Z</time></trkpt><trkpt lat="44.67604846921651" lon="8.455223144288238"><ele>156.5</ele><time>2026-05-03T10:16:11.999Z</time></trkpt><trkpt lat="44.676040024933464" lon="8.455040319489246"><ele>156.75</ele><time>2026-05-03T10:16:12.999Z</time></trkpt><trkpt lat="44.67603220240384" lon="8.454871951473788"><ele>157.0</ele><time>2026-05-03T10:16:13.999Z</time></trkpt><trkpt lat="44.67602488378652" lon="8.454700439695275"><ele>157.0</ele><time>2026-05-03T10:16:14.999Z</time></trkpt><trkpt lat="44.67598773261845" lon="8.454536572626905"><ele>157.0</ele><time>2026-05-03T10:16:16Z</time></trkpt><trkpt lat="44.67597755116395" lon="8.454367715357659"><ele>157.0</ele><time>2026-05-03T10:16:17Z</time></trkpt><trkpt lat="44.67596804029006" lon="8.454195116943723"><ele>157.0</ele><time>2026-05-03T10:16:18Z</time></trkpt><trkpt lat="44.67596464879882" lon="8.454014015554765"><ele>157.0</ele><time>2026-05-03T10:16:19Z</time></trkpt><trkpt lat="44.67595782689458" lon="8.453834482324108"><ele>157.0</ele><time>2026-05-03T10:16:20Z</time></trkpt><trkpt lat="44.67597694887291" lon="8.45365812062918"><ele>157.0</ele><time>2026-05-03T10:16:21Z</time></trkpt><trkpt lat="44.6759695391697" lon="8.453492766263611"><ele>157.0</ele><time>2026-05-03T10:16:22Z</time></trkpt><trkpt lat="44.675947206560274" lon="8.453332969323538"><ele>157.0</ele><time>2026-05-03T10:16:23Z</time></trkpt><trkpt lat="44.67594482170172" lon="8.453148323060702"><ele>157.0</ele><time>2026-05-03T10:16:24Z</time></trkpt><trkpt lat="44.67593113308819" lon="8.45295406636371"><ele>157.0</ele><time>2026-05-03T10:16:25Z</time></trkpt><trkpt lat="44.67593229210995" lon="8.452769364520215"><ele>157.0</ele><time>2026-05-03T10:16:26Z</time></trkpt><trkpt lat="44.67593974586981" lon="8.452595786011816"><ele>156.75</ele><time>2026-05-03T10:16:27Z</time></trkpt><trkpt lat="44.67592250165365" lon="8.452409464487902"><ele>156.5</ele><time>2026-05-03T10:16:28Z</time></trkpt><trkpt lat="44.675925969929246" lon="8.452203875344129"><ele>156.25</ele><time>2026-05-03T10:16:29Z</time></trkpt><trkpt lat="44.67591617286996" lon="8.451998557451937"><ele>156.0</ele><time>2026-05-03T10:16:30Z</time></trkpt><trkpt lat="44.67590614585946" lon="8.451805836750367"><ele>155.75</ele><time>2026-05-03T10:16:31Z</time></trkpt><trkpt lat="44.67589736061427" lon="8.451612186593481"><ele>155.5</ele><time>2026-05-03T10:16:32Z</time></trkpt><trkpt lat="44.67588682543823" lon="8.451423169188816"><ele>155.25</ele><time>2026-05-03T10:16:33Z</time></trkpt><trkpt lat="44.67588014646826" lon="8.451243301819956"><ele>155.0</ele><time>2026-05-03T10:16:34Z</time></trkpt><trkpt lat="44.675871016063034" lon="8.451062796005713"><ele>155.5</ele><time>2026-05-03T10:16:35Z</time></trkpt><trkpt lat="44.675864405772685" lon="8.450889587865646"><ele>156.0</ele><time>2026-05-03T10:16:36Z</time></trkpt><trkpt lat="44.67585098627632" lon="8.450712301935987"><ele>156.5</ele><time>2026-05-03T10:16:37Z</time></trkpt><trkpt lat="44.67584526735738" lon="8.450539615927358"><ele>157.0</ele><time>2026-05-03T10:16:38Z</time></trkpt><trkpt lat="44.675839002036696" lon="8.450375998941626"><ele>157.0</ele><time>2026-05-03T10:16:39Z</time></trkpt><trkpt lat="44.6758445136227" lon="8.45021929905262"><ele>157.0</ele><time>2026-05-03T10:16:40Z</time></trkpt><trkpt lat="44.67584408260478" lon="8.450057385237049"><ele>157.0</ele><time>2026-05-03T10:16:41Z</time></trkpt><trkpt lat="44.675825618675766" lon="8.449882235253973"><ele>157.0</ele><time>2026-05-03T10:16:42Z</time></trkpt><trkpt lat="44.67581761642741" lon="8.449696784181622"><ele>157.0</ele><time>2026-05-03T10:16:43Z</time></trkpt><trkpt lat="44.67581530255787" lon="8.449516034008864"><ele>157.0</ele><time>2026-05-03T10:16:44Z</time></trkpt><trkpt lat="44.6758112197817" lon="8.449329053751807"><ele>157.0</ele><time>2026-05-03T10:16:45Z</time></trkpt><trkpt lat="44.67579652547914" lon="8.449123136018363"><ele>157.0</ele><time>2026-05-03T10:16:46Z</time></trkpt><trkpt lat="44.6757890458943" lon="8.448930629817403"><ele>156.75</ele><time>2026-05-03T10:16:47Z</time></trkpt><trkpt lat="44.67577325823388" lon="8.448738590640259"><ele>156.5</ele><time>2026-05-03T10:16:48Z</time></trkpt><trkpt lat="44.67576715966288" lon="8.448538402654433"><ele>156.25</ele><time>2026-05-03T10:16:49Z</time></trkpt><trkpt lat="44.675749702399926" lon="8.44833827162394"><ele>156.0</ele><time>2026-05-03T10:16:50Z</time></trkpt><trkpt lat="44.67574776039853" lon="8.448136962213681"><ele>156.5</ele><time>2026-05-03T10:16:51Z</time></trkpt><trkpt lat="44.675725773678884" lon="8.447931123875508"><ele>157.0</ele><time>2026-05-03T10:16:52Z</time></trkpt><trkpt lat="44.67571092236539" lon="8.447722484037811"><ele>157.5</ele><time>2026-05-03T10:16:53Z</time></trkpt><trkpt lat="44.67570374227856" lon="8.447513048609574"><ele>158.0</ele><time>2026-05-03T10:16:54Z</time></trkpt><trkpt lat="44.675683093395214" lon="8.447304252196496"><ele>158.0</ele><time>2026-05-03T10:16:55Z</time></trkpt><trkpt lat="44.67567493652235" lon="8.44711027743159"><ele>158.0</ele><time>2026-05-03T10:16:56Z</time></trkpt><trkpt lat="44.67566493251804" lon="8.446915226491893"><ele>158.0</ele><time>2026-05-03T10:16:57Z</time></trkpt><trkpt lat="44.67564616635468" lon="8.446723234355806"><ele>158.0</ele><time>2026-05-03T10:16:58Z</time></trkpt><trkpt lat="44.67564095460772" lon="8.44653722732315"><ele>158.0</ele><time>2026-05-03T10:16:59Z</time></trkpt><trkpt lat="44.6756325062882" lon="8.446363146018085"><ele>158.0</ele><time>2026-05-03T10:17:00Z</time></trkpt><trkpt lat="44.675632677013084" lon="8.446213991972819"><ele>158.0</ele><time>2026-05-03T10:17:01Z</time></trkpt><trkpt lat="44.675619023127965" lon="8.446064559040844"><ele>158.0</ele><time>2026-05-03T10:17:02Z</time></trkpt><trkpt lat="44.67562446559804" lon="8.445929547588358"><ele>158.0</ele><time>2026-05-03T10:17:03Z</time></trkpt><trkpt lat="44.6756348008492" lon="8.445801778026976"><ele>158.33333333333331</ele><time>2026-05-03T10:17:04Z</time></trkpt><trkpt lat="44.67567501517125" lon="8.445700865843838"><ele>158.66666666666666</ele><time>2026-05-03T10:17:05Z</time></trkpt><trkpt lat="44.67569451087116" lon="8.445581687836002"><ele>159.0</ele><time>2026-05-03T10:17:06Z</time></trkpt><trkpt lat="44.67566734714437" lon="8.445471324174308"><ele>159.33333333333334</ele><time>2026-05-03T10:17:07Z</time></trkpt><trkpt lat="44.67562177339502" lon="8.445362561783211"><ele>159.66666666666669</ele><time>2026-05-03T10:17:08Z</time></trkpt><trkpt lat="44.67560976360896" lon="8.445233361393646"><ele>160.0</ele><time>2026-05-03T10:17:09Z</time></trkpt><trkpt lat="44.67561456209726" lon="8.445079790523423"><ele>160.25</ele><time>2026-05-03T10:17:10Z</time></trkpt><trkpt lat="44.67561270136905" lon="8.44491041904605"><ele>160.5</ele><time>2026-05-03T10:17:11Z</time></trkpt><trkpt lat="44.67559660619672" lon="8.444720689923846"><ele>160.75</ele><time>2026-05-03T10:17:12Z</time></trkpt><trkpt lat="44.67557806739965" lon="8.444528073509682"><ele>161.0</ele><time>2026-05-03T10:17:13Z</time></trkpt><trkpt lat="44.67556153851911" lon="8.444334410799325"><ele>161.0</ele><time>2026-05-03T10:17:14Z</time></trkpt><trkpt lat="44.67556128073176" lon="8.444129998620657"><ele>161.0</ele><time>2026-05-03T10:17:15Z</time></trkpt><trkpt lat="44.67555477742263" lon="8.44392162533972"><ele>161.0</ele><time>2026-05-03T10:17:16Z</time></trkpt><trkpt lat="44.675537155934364" lon="8.443716016634133"><ele>161.0</ele><time>2026-05-03T10:17:17Z</time></trkpt><trkpt lat="44.675524026378135" lon="8.443519664280945"><ele>161.25</ele><time>2026-05-03T10:17:18Z</time></trkpt><trkpt lat="44.675507447278775" lon="8.443325323689388"><ele>161.5</ele><time>2026-05-03T10:17:19Z</time></trkpt><trkpt lat="44.67549610086477" lon="8.443137412052373"><ele>161.75</ele><time>2026-05-03T10:17:20Z</time></trkpt><trkpt lat="44.675482539413565" lon="8.442946025079067"><ele>162.0</ele><time>2026-05-03T10:17:21Z</time></trkpt><trkpt lat="44.675466677403" lon="8.442754872137646"><ele>162.75</ele><time>2026-05-03T10:17:22Z</time></trkpt><trkpt lat="44.67547510978934" lon="8.442564318065052"><ele>163.5</ele><time>2026-05-03T10:17:23Z</time></trkpt><trkpt lat="44.67546113623605" lon="8.442351319821595"><ele>164.25</ele><time>2026-05-03T10:17:24Z</time></trkpt><trkpt lat="44.675453138420146" lon="8.44213423473962"><ele>165.0</ele><time>2026-05-03T10:17:25Z</time></trkpt><trkpt lat="44.67543490404807" lon="8.441897235879555"><ele>165.66666666666666</ele><time>2026-05-03T10:17:26Z</time></trkpt><trkpt lat="44.67542652008098" lon="8.441688639045664"><ele>166.33333333333331</ele><time>2026-05-03T10:17:27Z</time></trkpt><trkpt lat="44.67540867320232" lon="8.441453669231828"><ele>167.0</ele><time>2026-05-03T10:17:27.999Z</time></trkpt><trkpt lat="44.67540355349267" lon="8.44120920613762"><ele>167.0</ele><time>2026-05-03T10:17:28.999Z</time></trkpt><trkpt lat="44.67539188678666" lon="8.440970599702752"><ele>167.0</ele><time>2026-05-03T10:17:29.999Z</time></trkpt><trkpt lat="44.675370164358405" lon="8.440717227061553"><ele>167.0</ele><time>2026-05-03T10:17:30.999Z</time></trkpt><trkpt lat="44.675356839993626" lon="8.440465806235007"><ele>166.66666666666666</ele><time>2026-05-03T10:17:31.999Z</time></trkpt><trkpt lat="44.67534443641204" lon="8.44021703538527"><ele>166.33333333333334</ele><time>2026-05-03T10:17:32.999Z</time></trkpt><trkpt lat="44.675336334754505" lon="8.43996635953523"><ele>166.0</ele><time>2026-05-03T10:17:33.999Z</time></trkpt><trkpt lat="44.67532206221511" lon="8.439721975550151"><ele>166.66666666666669</ele><time>2026-05-03T10:17:34.999Z</time></trkpt><trkpt lat="44.67532622315724" lon="8.439475948136806"><ele>167.33333333333334</ele><time>2026-05-03T10:17:35.999Z</time></trkpt><trkpt lat="44.675316350679566" lon="8.439254988335486"><ele>168.0</ele><time>2026-05-03T10:17:36.999Z</time></trkpt><trkpt lat="44.67530600406764" lon="8.439023416498992"><ele>168.66666666666666</ele><time>2026-05-03T10:17:37.999Z</time></trkpt><trkpt lat="44.67529584565011" lon="8.4387931728152"><ele>169.33333333333331</ele><time>2026-05-03T10:17:38.999Z</time></trkpt><trkpt lat="44.67528602851167" lon="8.438568457928437"><ele>170.0</ele><time>2026-05-03T10:17:39.999Z</time></trkpt><trkpt lat="44.675278689398155" lon="8.438373496427596"><ele>170.0</ele><time>2026-05-03T10:17:40.999Z</time></trkpt><trkpt lat="44.675272411131346" lon="8.438184445846948"><ele>170.0</ele><time>2026-05-03T10:17:41.999Z</time></trkpt><trkpt lat="44.675242712208274" lon="8.438037950534595"><ele>170.0</ele><time>2026-05-03T10:17:42.999Z</time></trkpt><trkpt lat="44.67522158599388" lon="8.437918310226975"><ele>170.0</ele><time>2026-05-03T10:17:43.999Z</time></trkpt><trkpt lat="44.6752356521894" lon="8.437758900159684"><ele>170.0</ele><time>2026-05-03T10:17:45.999Z</time></trkpt><trkpt lat="44.67525456315096" lon="8.437616323283896"><ele>170.0</ele><time>2026-05-03T10:17:47.999Z</time></trkpt><trkpt lat="44.67525646563402" lon="8.437526454632067"><ele>170.0</ele><time>2026-05-03T10:17:48.999Z</time></trkpt><trkpt lat="44.67526959367333" lon="8.437400647936771"><ele>170.0</ele><time>2026-05-03T10:17:49.999Z</time></trkpt><trkpt lat="44.67530210774849" lon="8.437270860590909"><ele>170.0</ele><time>2026-05-03T10:17:50.999Z</time></trkpt><trkpt lat="44.67533341063085" lon="8.437117748039219"><ele>170.0</ele><time>2026-05-03T10:17:51.999Z</time></trkpt><trkpt lat="44.67537399733155" lon="8.436951530470274"><ele>170.0</ele><time>2026-05-03T10:17:52.999Z</time></trkpt><trkpt lat="44.67541526168478" lon="8.436783340102165"><ele>170.0</ele><time>2026-05-03T10:17:53.999Z</time></trkpt><trkpt lat="44.67546960606021" lon="8.436610240813833"><ele>170.0</ele><time>2026-05-03T10:17:54.999Z</time></trkpt><trkpt lat="44.6755180215463" lon="8.436426465042437"><ele>170.0</ele><time>2026-05-03T10:17:55.999Z</time></trkpt><trkpt lat="44.67556735823047" lon="8.436234837308103"><ele>168.66666666666666</ele><time>2026-05-03T10:17:56.999Z</time></trkpt><trkpt lat="44.67562063423745" lon="8.436017185709943"><ele>167.33333333333334</ele><time>2026-05-03T10:17:57.999Z</time></trkpt><trkpt lat="44.675669059425545" lon="8.435804549474453"><ele>166.0</ele><time>2026-05-03T10:17:58.999Z</time></trkpt><trkpt lat="44.67572297263321" lon="8.43557438716672"><ele>164.66666666666669</ele><time>2026-05-03T10:17:59.999Z</time></trkpt><trkpt lat="44.67577519416128" lon="8.435334926554606"><ele>163.33333333333334</ele><time>2026-05-03T10:18:00.999Z</time></trkpt><trkpt lat="44.67581656314875" lon="8.43509466921787"><ele>162.0</ele><time>2026-05-03T10:18:01.999Z</time></trkpt><trkpt lat="44.67584737493705" lon="8.434855770522852"><ele>161.66666666666666</ele><time>2026-05-03T10:18:02.999Z</time></trkpt><trkpt lat="44.67586531929371" lon="8.434625412094551"><ele>161.33333333333331</ele><time>2026-05-03T10:18:03.999Z</time></trkpt><trkpt lat="44.67586912255909" lon="8.434392783950353"><ele>161.0</ele><time>2026-05-03T10:18:04.999Z</time></trkpt><trkpt lat="44.67586752032556" lon="8.434153872751974"><ele>161.0</ele><time>2026-05-03T10:18:05.999Z</time></trkpt><trkpt lat="44.67585613074058" lon="8.43391815220279"><ele>161.0</ele><time>2026-05-03T10:18:06.999Z</time></trkpt><trkpt lat="44.67583666817038" lon="8.433682121390987"><ele>161.0</ele><time>2026-05-03T10:18:07.999Z</time></trkpt><trkpt lat="44.675820343129544" lon="8.433447942431176"><ele>161.0</ele><time>2026-05-03T10:18:08.999Z</time></trkpt><trkpt lat="44.67579740343986" lon="8.433217873941388"><ele>161.0</ele><time>2026-05-03T10:18:09.999Z</time></trkpt><trkpt lat="44.6757680064581" lon="8.432984769763994"><ele>161.0</ele><time>2026-05-03T10:18:10.999Z</time></trkpt><trkpt lat="44.67573195678362" lon="8.432757534650284"><ele>162.33333333333331</ele><time>2026-05-03T10:18:11.999Z</time></trkpt><trkpt lat="44.67568584746443" lon="8.432533270905445"><ele>163.66666666666666</ele><time>2026-05-03T10:18:12.999Z</time></trkpt><trkpt lat="44.675633308658576" lon="8.432310626392736"><ele>165.0</ele><time>2026-05-03T10:18:13.999Z</time></trkpt><trkpt lat="44.6755695649412" lon="8.432089175939026"><ele>168.66666666666666</ele><time>2026-05-03T10:18:14.999Z</time></trkpt><trkpt lat="44.67549275047784" lon="8.431867296206939"><ele>172.33333333333331</ele><time>2026-05-03T10:18:15.999Z</time></trkpt><trkpt lat="44.67541979100452" lon="8.431665056378954"><ele>176.0</ele><time>2026-05-03T10:18:16.999Z</time></trkpt><trkpt lat="44.67532563832061" lon="8.431451711492544"><ele>171.33333333333331</ele><time>2026-05-03T10:18:17.999Z</time></trkpt><trkpt lat="44.675249601875215" lon="8.431253807998127"><ele>166.66666666666666</ele><time>2026-05-03T10:18:18.999Z</time></trkpt><trkpt lat="44.67514189339009" lon="8.431036897787312"><ele>162.0</ele><time>2026-05-03T10:18:19.999Z</time></trkpt><trkpt lat="44.675025558697726" lon="8.430834782909907"><ele>162.0</ele><time>2026-05-03T10:18:20.999Z</time></trkpt><trkpt lat="44.674908609802415" lon="8.43064289625858"><ele>162.0</ele><time>2026-05-03T10:18:22Z</time></trkpt><trkpt lat="44.674795621813296" lon="8.430467534695545"><ele>162.0</ele><time>2026-05-03T10:18:23Z</time></trkpt><trkpt lat="44.67467839689134" lon="8.430304162202354"><ele>162.66666666666666</ele><time>2026-05-03T10:18:24Z</time></trkpt><trkpt lat="44.67454994295674" lon="8.430145131996618"><ele>163.33333333333331</ele><time>2026-05-03T10:18:25Z</time></trkpt><trkpt lat="44.67440516547636" lon="8.429997135195274"><ele>164.0</ele><time>2026-05-03T10:18:26Z</time></trkpt><trkpt lat="44.674262819009776" lon="8.429863326441296"><ele>164.0</ele><time>2026-05-03T10:18:27Z</time></trkpt><trkpt lat="44.67411987526089" lon="8.429730040011593"><ele>164.0</ele><time>2026-05-03T10:18:28Z</time></trkpt><trkpt lat="44.673961317225" lon="8.429579867816438"><ele>164.0</ele><time>2026-05-03T10:18:29Z</time></trkpt><trkpt lat="44.6738082358429" lon="8.429439044871026"><ele>165.66666666666666</ele><time>2026-05-03T10:18:30Z</time></trkpt><trkpt lat="44.67365293822796" lon="8.429300372171344"><ele>167.33333333333334</ele><time>2026-05-03T10:18:31Z</time></trkpt><trkpt lat="44.67350276545941" lon="8.429168314296225"><ele>169.0</ele><time>2026-05-03T10:18:32Z</time></trkpt><trkpt lat="44.67334390306362" lon="8.429026029975159"><ele>169.0</ele><time>2026-05-03T10:18:33Z</time></trkpt><trkpt lat="44.67319524789248" lon="8.428883796088138"><ele>169.0</ele><time>2026-05-03T10:18:34Z</time></trkpt><trkpt lat="44.673043242722734" lon="8.42875634305321"><ele>169.0</ele><time>2026-05-03T10:18:35Z</time></trkpt><trkpt lat="44.672895810078806" lon="8.428629662009133"><ele>168.33333333333334</ele><time>2026-05-03T10:18:36Z</time></trkpt><trkpt lat="44.67274070906177" lon="8.42850605327559"><ele>167.66666666666666</ele><time>2026-05-03T10:18:37Z</time></trkpt><trkpt lat="44.672586825553736" lon="8.428379432898963"><ele>167.0</ele><time>2026-05-03T10:18:38Z</time></trkpt><trkpt lat="44.67242630351596" lon="8.428270319415958"><ele>167.0</ele><time>2026-05-03T10:18:39Z</time></trkpt><trkpt lat="44.67228057832425" lon="8.428135456945665"><ele>167.0</ele><time>2026-05-03T10:18:40Z</time></trkpt><trkpt lat="44.67211716380365" lon="8.428019912072605"><ele>167.0</ele><time>2026-05-03T10:18:41Z</time></trkpt><trkpt lat="44.67194905197236" lon="8.427900971927947"><ele>166.66666666666666</ele><time>2026-05-03T10:18:42Z</time></trkpt><trkpt lat="44.671781582123906" lon="8.427781466301793"><ele>166.33333333333334</ele><time>2026-05-03T10:18:43Z</time></trkpt><trkpt lat="44.671605354171824" lon="8.427655660111338"><ele>166.0</ele><time>2026-05-03T10:18:44Z</time></trkpt><trkpt lat="44.67142141015316" lon="8.427523594618151"><ele>166.0</ele><time>2026-05-03T10:18:45Z</time></trkpt><trkpt lat="44.67122564055306" lon="8.427384441553107"><ele>166.0</ele><time>2026-05-03T10:18:46Z</time></trkpt><trkpt lat="44.67102748753829" lon="8.427245478768349"><ele>166.0</ele><time>2026-05-03T10:18:47Z</time></trkpt><trkpt lat="44.670834869451966" lon="8.42710978561219"><ele>166.0</ele><time>2026-05-03T10:18:48Z</time></trkpt><trkpt lat="44.670648892816736" lon="8.426978034026963"><ele>166.0</ele><time>2026-05-03T10:18:49Z</time></trkpt><trkpt lat="44.67046500606764" lon="8.426847566057717"><ele>166.0</ele><time>2026-05-03T10:18:50Z</time></trkpt><trkpt lat="44.67029138488748" lon="8.426724152378796"><ele>165.66666666666669</ele><time>2026-05-03T10:18:51Z</time></trkpt><trkpt lat="44.67011396084298" lon="8.426599033194583"><ele>165.33333333333334</ele><time>2026-05-03T10:18:52Z</time></trkpt><trkpt lat="44.669941056366085" lon="8.426476963059365"><ele>165.0</ele><time>2026-05-03T10:18:53Z</time></trkpt><trkpt lat="44.669765662697365" lon="8.426353548752406"><ele>164.66666666666666</ele><time>2026-05-03T10:18:54Z</time></trkpt><trkpt lat="44.669599355485346" lon="8.426236560147473"><ele>164.33333333333331</ele><time>2026-05-03T10:18:55Z</time></trkpt><trkpt lat="44.66944180047651" lon="8.426123239655357"><ele>164.0</ele><time>2026-05-03T10:18:56Z</time></trkpt><trkpt lat="44.66929575633052" lon="8.426000850443552"><ele>164.0</ele><time>2026-05-03T10:18:57Z</time></trkpt><trkpt lat="44.66914000998985" lon="8.425849920104717"><ele>164.0</ele><time>2026-05-03T10:18:58Z</time></trkpt><trkpt lat="44.66900379259448" lon="8.425697138118506"><ele>164.0</ele><time>2026-05-03T10:18:59Z</time></trkpt><trkpt lat="44.66887303355931" lon="8.425534504328217"><ele>164.33333333333331</ele><time>2026-05-03T10:19:00Z</time></trkpt><trkpt lat="44.668746713099736" lon="8.425358669636061"><ele>164.66666666666666</ele><time>2026-05-03T10:19:01Z</time></trkpt><trkpt lat="44.66863527641705" lon="8.425180496549496"><ele>165.0</ele><time>2026-05-03T10:19:02Z</time></trkpt><trkpt lat="44.668538895518964" lon="8.425002874888781"><ele>165.0</ele><time>2026-05-03T10:19:03Z</time></trkpt><trkpt lat="44.668437762729894" lon="8.42483210941802"><ele>165.0</ele><time>2026-05-03T10:19:04Z</time></trkpt><trkpt lat="44.66836763205903" lon="8.42464272965372"><ele>165.0</ele><time>2026-05-03T10:19:05Z</time></trkpt><trkpt lat="44.668284488454184" lon="8.424463370147363"><ele>164.33333333333334</ele><time>2026-05-03T10:19:06Z</time></trkpt><trkpt lat="44.66819527315016" lon="8.424270913106355"><ele>163.66666666666669</ele><time>2026-05-03T10:19:07Z</time></trkpt><trkpt lat="44.66811268959426" lon="8.42409276183798"><ele>163.0</ele><time>2026-05-03T10:19:08Z</time></trkpt><trkpt lat="44.66803635970519" lon="8.423927738103567"><ele>162.8</ele><time>2026-05-03T10:19:09Z</time></trkpt><trkpt lat="44.66796602152683" lon="8.423775867704617"><ele>162.60000000000002</ele><time>2026-05-03T10:19:10Z</time></trkpt><trkpt lat="44.66790511599546" lon="8.423645849467299"><ele>162.39999999999998</ele><time>2026-05-03T10:19:11Z</time></trkpt><trkpt lat="44.66785211019931" lon="8.423532695265763"><ele>162.2</ele><time>2026-05-03T10:19:12Z</time></trkpt><trkpt lat="44.66780836336124" lon="8.423442170601929"><ele>162.0</ele><time>2026-05-03T10:19:13Z</time></trkpt><trkpt lat="44.66775795039416" lon="8.423372412175102"><ele>162.0</ele><time>2026-05-03T10:19:14Z</time></trkpt><trkpt lat="44.66774201462988" lon="8.423268398740442"><ele>162.0</ele><time>2026-05-03T10:19:15Z</time></trkpt><trkpt lat="44.667741263970456" lon="8.423162698363624"><ele>162.0</ele><time>2026-05-03T10:19:16Z</time></trkpt><trkpt lat="44.667727653052744" lon="8.42305171698396"><ele>162.0</ele><time>2026-05-03T10:19:17Z</time></trkpt><trkpt lat="44.66768871100088" lon="8.422958671925532"><ele>162.0</ele><time>2026-05-03T10:19:18Z</time></trkpt><trkpt lat="44.66763435539102" lon="8.422886781120365"><ele>162.0</ele><time>2026-05-03T10:19:19Z</time></trkpt><trkpt lat="44.66755044689787" lon="8.42285280299585"><ele>161.75</ele><time>2026-05-03T10:19:20Z</time></trkpt><trkpt lat="44.6674551894438" lon="8.42283802098499"><ele>161.5</ele><time>2026-05-03T10:19:21Z</time></trkpt><trkpt lat="44.66736594265918" lon="8.422758205306945"><ele>161.25</ele><time>2026-05-03T10:19:22Z</time></trkpt><trkpt lat="44.6672430825343" lon="8.422645940355215"><ele>161.0</ele><time>2026-05-03T10:19:23Z</time></trkpt><trkpt lat="44.667142559158236" lon="8.422526506395092"><ele>161.0</ele><time>2026-05-03T10:19:24Z</time></trkpt><trkpt lat="44.66701807029277" lon="8.422401315108937"><ele>161.0</ele><time>2026-05-03T10:19:25Z</time></trkpt><trkpt lat="44.66690160360644" lon="8.422268634161469"><ele>161.0</ele><time>2026-05-03T10:19:26Z</time></trkpt><trkpt lat="44.66677341408731" lon="8.42214369613066"><ele>158.66666666666666</ele><time>2026-05-03T10:19:27Z</time></trkpt><trkpt lat="44.666633947172315" lon="8.422003871297616"><ele>156.33333333333334</ele><time>2026-05-03T10:19:28Z</time></trkpt><trkpt lat="44.666501634506105" lon="8.421866627536595"><ele>154.0</ele><time>2026-05-03T10:19:29Z</time></trkpt><trkpt lat="44.66637087755746" lon="8.421735262691064"><ele>154.0</ele><time>2026-05-03T10:19:30Z</time></trkpt><trkpt lat="44.666226604723114" lon="8.421596647494946"><ele>154.0</ele><time>2026-05-03T10:19:31Z</time></trkpt><trkpt lat="44.666099849224885" lon="8.42143358597067"><ele>154.0</ele><time>2026-05-03T10:19:32Z</time></trkpt><trkpt lat="44.665960779959455" lon="8.421280036438501"><ele>156.0</ele><time>2026-05-03T10:19:33Z</time></trkpt><trkpt lat="44.665851295855575" lon="8.421070979062396"><ele>158.0</ele><time>2026-05-03T10:19:34Z</time></trkpt><trkpt lat="44.665735029967195" lon="8.420837439005512"><ele>160.0</ele><time>2026-05-03T10:19:35Z</time></trkpt><trkpt lat="44.66562276306367" lon="8.42058808391082"><ele>160.0</ele><time>2026-05-03T10:19:36Z</time></trkpt><trkpt lat="44.6655502085946" lon="8.420326299679557"><ele>160.0</ele><time>2026-05-03T10:19:37Z</time></trkpt><trkpt lat="44.66548799687205" lon="8.42005055946478"><ele>160.0</ele><time>2026-05-03T10:19:38Z</time></trkpt><trkpt lat="44.6654570701333" lon="8.41975842197556"><ele>161.0</ele><time>2026-05-03T10:19:39Z</time></trkpt><trkpt lat="44.665428802421836" lon="8.419460049659117"><ele>162.0</ele><time>2026-05-03T10:19:40Z</time></trkpt><trkpt lat="44.66540786307442" lon="8.419164936073972"><ele>163.0</ele><time>2026-05-03T10:19:41Z</time></trkpt><trkpt lat="44.66538481769515" lon="8.418870030894189"><ele>162.66666666666669</ele><time>2026-05-03T10:19:42Z</time></trkpt><trkpt lat="44.665365923679616" lon="8.418581078143646"><ele>162.33333333333334</ele><time>2026-05-03T10:19:43Z</time></trkpt><trkpt lat="44.66535395188075" lon="8.418296097941822"><ele>162.0</ele><time>2026-05-03T10:19:44Z</time></trkpt><trkpt lat="44.665333033044604" lon="8.418002254303113"><ele>162.0</ele><time>2026-05-03T10:19:45Z</time></trkpt><trkpt lat="44.66531731999238" lon="8.417726432454343"><ele>162.0</ele><time>2026-05-03T10:19:45.999Z</time></trkpt><trkpt lat="44.66529839703347" lon="8.41744700162443"><ele>162.0</ele><time>2026-05-03T10:19:46.999Z</time></trkpt><trkpt lat="44.66528376798452" lon="8.417167399390362"><ele>163.0</ele><time>2026-05-03T10:19:47.999Z</time></trkpt><trkpt lat="44.665259155931246" lon="8.416858154927297"><ele>164.0</ele><time>2026-05-03T10:19:48.999Z</time></trkpt><trkpt lat="44.665235897580075" lon="8.416576543861678"><ele>165.0</ele><time>2026-05-03T10:19:49.999Z</time></trkpt><trkpt lat="44.66520963732561" lon="8.416293712413442"><ele>165.0</ele><time>2026-05-03T10:19:50.999Z</time></trkpt><trkpt lat="44.66518615348326" lon="8.416014351153592"><ele>165.0</ele><time>2026-05-03T10:19:51.999Z</time></trkpt><trkpt lat="44.665168503299384" lon="8.415728753604219"><ele>165.0</ele><time>2026-05-03T10:19:52.999Z</time></trkpt><trkpt lat="44.66514810732472" lon="8.415424266633854"><ele>164.33333333333334</ele><time>2026-05-03T10:19:53.999Z</time></trkpt><trkpt lat="44.66513805340012" lon="8.415123680919635"><ele>163.66666666666669</ele><time>2026-05-03T10:19:54.999Z</time></trkpt><trkpt lat="44.66511665056961" lon="8.414809171105999"><ele>163.0</ele><time>2026-05-03T10:19:55.999Z</time></trkpt><trkpt lat="44.66509548340529" lon="8.414497838367645"><ele>162.66666666666669</ele><time>2026-05-03T10:19:56.999Z</time></trkpt><trkpt lat="44.66507470041619" lon="8.414192155991552"><ele>162.33333333333334</ele><time>2026-05-03T10:19:57.999Z</time></trkpt><trkpt lat="44.66505372068976" lon="8.413883580006432"><ele>162.0</ele><time>2026-05-03T10:19:58.999Z</time></trkpt><trkpt lat="44.66502320433766" lon="8.413589715409543"><ele>162.0</ele><time>2026-05-03T10:19:59.999Z</time></trkpt><trkpt lat="44.66499882985733" lon="8.413285747398449"><ele>162.0</ele><time>2026-05-03T10:20:00.999Z</time></trkpt><trkpt lat="44.66499274797268" lon="8.412977215015715"><ele>162.0</ele><time>2026-05-03T10:20:01.999Z</time></trkpt><trkpt lat="44.664960169632906" lon="8.41268178716484"><ele>162.0</ele><time>2026-05-03T10:20:02.999Z</time></trkpt><trkpt lat="44.664944655827505" lon="8.412382125939383"><ele>162.0</ele><time>2026-05-03T10:20:03.999Z</time></trkpt><trkpt lat="44.664923675705" lon="8.412077390981848"><ele>162.0</ele><time>2026-05-03T10:20:04.999Z</time></trkpt><trkpt lat="44.66490834288649" lon="8.41179087759903"><ele>161.33333333333334</ele><time>2026-05-03T10:20:05.999Z</time></trkpt><trkpt lat="44.66488735672743" lon="8.411517338077466"><ele>160.66666666666669</ele><time>2026-05-03T10:20:06.999Z</time></trkpt><trkpt lat="44.66487516519913" lon="8.411247235729414"><ele>160.0</ele><time>2026-05-03T10:20:07.999Z</time></trkpt><trkpt lat="44.6648563124427" lon="8.410982240027108"><ele>160.0</ele><time>2026-05-03T10:20:08.999Z</time></trkpt><trkpt lat="44.664835487885874" lon="8.410690980924208"><ele>160.0</ele><time>2026-05-03T10:20:09.999Z</time></trkpt><trkpt lat="44.66481488648925" lon="8.410401203901985"><ele>160.0</ele><time>2026-05-03T10:20:10.999Z</time></trkpt><trkpt lat="44.66479431455242" lon="8.410120466634414"><ele>159.66666666666669</ele><time>2026-05-03T10:20:11.999Z</time></trkpt><trkpt lat="44.66477319493551" lon="8.409840267468445"><ele>159.33333333333334</ele><time>2026-05-03T10:20:12.999Z</time></trkpt><trkpt lat="44.66475361911808" lon="8.409559879018689"><ele>159.0</ele><time>2026-05-03T10:20:13.999Z</time></trkpt><trkpt lat="44.664739476263165" lon="8.409285819489478"><ele>159.0</ele><time>2026-05-03T10:20:14.999Z</time></trkpt><trkpt lat="44.664718273781624" lon="8.409000369571828"><ele>159.0</ele><time>2026-05-03T10:20:15.999Z</time></trkpt><trkpt lat="44.66469702989533" lon="8.408711552423764"><ele>159.0</ele><time>2026-05-03T10:20:16.999Z</time></trkpt><trkpt lat="44.66468726392137" lon="8.408408124625582"><ele>159.0</ele><time>2026-05-03T10:20:17.999Z</time></trkpt><trkpt lat="44.66466784919968" lon="8.408116516378481"><ele>159.0</ele><time>2026-05-03T10:20:18.999Z</time></trkpt><trkpt lat="44.66464718973935" lon="8.407832170676032"><ele>159.0</ele><time>2026-05-03T10:20:19.999Z</time></trkpt><trkpt lat="44.66462624363746" lon="8.407571646905607"><ele>160.0</ele><time>2026-05-03T10:20:20.999Z</time></trkpt><trkpt lat="44.66459287968105" lon="8.407292247580175"><ele>161.0</ele><time>2026-05-03T10:20:21.999Z</time></trkpt><trkpt lat="44.664544607750024" lon="8.407024076291016"><ele>162.0</ele><time>2026-05-03T10:20:22.999Z</time></trkpt><trkpt lat="44.66447352734289" lon="8.406764815578377"><ele>162.33333333333334</ele><time>2026-05-03T10:20:23.999Z</time></trkpt><trkpt lat="44.664399726827966" lon="8.406520982909578"><ele>162.66666666666669</ele><time>2026-05-03T10:20:24.999Z</time></trkpt><trkpt lat="44.66431177276028" lon="8.406289713572706"><ele>163.0</ele><time>2026-05-03T10:20:25.999Z</time></trkpt><trkpt lat="44.66421140566998" lon="8.40605929548402"><ele>163.33333333333334</ele><time>2026-05-03T10:20:26.999Z</time></trkpt><trkpt lat="44.66409154808761" lon="8.405840136729125"><ele>163.66666666666666</ele><time>2026-05-03T10:20:28Z</time></trkpt><trkpt lat="44.663971659953106" lon="8.405635963286096"><ele>164.0</ele><time>2026-05-03T10:20:29Z</time></trkpt><trkpt lat="44.66385301650649" lon="8.405419089993202"><ele>164.33333333333331</ele><time>2026-05-03T10:20:30Z</time></trkpt><trkpt lat="44.66373089271102" lon="8.40520531669438"><ele>164.66666666666666</ele><time>2026-05-03T10:20:31Z</time></trkpt><trkpt lat="44.66360528825416" lon="8.404988024903806"><ele>165.0</ele><time>2026-05-03T10:20:32Z</time></trkpt><trkpt lat="44.663489829582815" lon="8.40478253621537"><ele>165.33333333333334</ele><time>2026-05-03T10:20:33Z</time></trkpt><trkpt lat="44.66337164899943" lon="8.404579320055962"><ele>165.66666666666669</ele><time>2026-05-03T10:20:34Z</time></trkpt><trkpt lat="44.663254171350175" lon="8.40436619274479"><ele>166.0</ele><time>2026-05-03T10:20:35Z</time></trkpt><trkpt lat="44.663138697883916" lon="8.404148889424294"><ele>166.0</ele><time>2026-05-03T10:20:36Z</time></trkpt><trkpt lat="44.66302862049824" lon="8.403939622374768"><ele>166.0</ele><time>2026-05-03T10:20:37Z</time></trkpt><trkpt lat="44.66290840120166" lon="8.403730268950742"><ele>166.0</ele><time>2026-05-03T10:20:38Z</time></trkpt><trkpt lat="44.66279183732338" lon="8.403524583327743"><ele>165.66666666666669</ele><time>2026-05-03T10:20:39Z</time></trkpt><trkpt lat="44.66267699575019" lon="8.403320446749985"><ele>165.33333333333334</ele><time>2026-05-03T10:20:40Z</time></trkpt><trkpt lat="44.66255787859865" lon="8.403110165465577"><ele>165.0</ele><time>2026-05-03T10:20:41Z</time></trkpt><trkpt lat="44.66244327806277" lon="8.40289896084808"><ele>165.0</ele><time>2026-05-03T10:20:42Z</time></trkpt><trkpt lat="44.66232670231792" lon="8.402686209615178"><ele>165.0</ele><time>2026-05-03T10:20:43Z</time></trkpt><trkpt lat="44.66221073712654" lon="8.402471123798604"><ele>165.0</ele><time>2026-05-03T10:20:44Z</time></trkpt><trkpt lat="44.66209438202213" lon="8.402258097607797"><ele>165.66666666666666</ele><time>2026-05-03T10:20:45Z</time></trkpt><trkpt lat="44.661981970462776" lon="8.402047934286783"><ele>166.33333333333331</ele><time>2026-05-03T10:20:46Z</time></trkpt><trkpt lat="44.66186812908121" lon="8.401827594250431"><ele>167.0</ele><time>2026-05-03T10:20:47Z</time></trkpt><trkpt lat="44.661764762818585" lon="8.401627541058255"><ele>167.0</ele><time>2026-05-03T10:20:48Z</time></trkpt><trkpt lat="44.66165767666347" lon="8.4014033179942"><ele>167.0</ele><time>2026-05-03T10:20:49Z</time></trkpt><trkpt lat="44.6615470921464" lon="8.401177337405539"><ele>167.0</ele><time>2026-05-03T10:20:50Z</time></trkpt><trkpt lat="44.661436913310375" lon="8.40095734791331"><ele>167.0</ele><time>2026-05-03T10:20:51Z</time></trkpt><trkpt lat="44.661323640109586" lon="8.400737187039764"><ele>167.0</ele><time>2026-05-03T10:20:52Z</time></trkpt><trkpt lat="44.66121307276089" lon="8.40051862600032"><ele>167.0</ele><time>2026-05-03T10:20:53Z</time></trkpt><trkpt lat="44.66110452696847" lon="8.400298981981742"><ele>167.0</ele><time>2026-05-03T10:20:54Z</time></trkpt><trkpt lat="44.66099721941361" lon="8.40008364713014"><ele>167.0</ele><time>2026-05-03T10:20:55Z</time></trkpt><trkpt lat="44.66089164667492" lon="8.399870370881311"><ele>167.0</ele><time>2026-05-03T10:20:56Z</time></trkpt><trkpt lat="44.660784859148" lon="8.3996588582412"><ele>167.33333333333331</ele><time>2026-05-03T10:20:57Z</time></trkpt><trkpt lat="44.66068355340476" lon="8.39945004316624"><ele>167.66666666666666</ele><time>2026-05-03T10:20:58Z</time></trkpt><trkpt lat="44.66058089762278" lon="8.39924101729413"><ele>168.0</ele><time>2026-05-03T10:20:59Z</time></trkpt><trkpt lat="44.660476777863536" lon="8.399033450298267"><ele>168.33333333333334</ele><time>2026-05-03T10:21:00Z</time></trkpt><trkpt lat="44.66037368581187" lon="8.398825159430348"><ele>168.66666666666669</ele><time>2026-05-03T10:21:01Z</time></trkpt><trkpt lat="44.66026599680181" lon="8.398612155837544"><ele>169.0</ele><time>2026-05-03T10:21:02Z</time></trkpt><trkpt lat="44.66016271976567" lon="8.398398507633303"><ele>168.33333333333334</ele><time>2026-05-03T10:21:03Z</time></trkpt><trkpt lat="44.660063254339505" lon="8.398192283639167"><ele>167.66666666666666</ele><time>2026-05-03T10:21:04Z</time></trkpt><trkpt lat="44.65996035306644" lon="8.397974446891181"><ele>167.0</ele><time>2026-05-03T10:21:05Z</time></trkpt><trkpt lat="44.65985426780268" lon="8.397765307401267"><ele>167.0</ele><time>2026-05-03T10:21:06Z</time></trkpt><trkpt lat="44.65974851378814" lon="8.39754803905274"><ele>167.0</ele><time>2026-05-03T10:21:07Z</time></trkpt><trkpt lat="44.659646873276905" lon="8.397333034078454"><ele>167.0</ele><time>2026-05-03T10:21:08Z</time></trkpt><trkpt lat="44.659545052637675" lon="8.397123297827553"><ele>166.66666666666666</ele><time>2026-05-03T10:21:09Z</time></trkpt><trkpt lat="44.659445629795314" lon="8.396916201666087"><ele>166.33333333333334</ele><time>2026-05-03T10:21:10Z</time></trkpt><trkpt lat="44.65933847991611" lon="8.396708789945142"><ele>166.0</ele><time>2026-05-03T10:21:11Z</time></trkpt><trkpt lat="44.659234538612246" lon="8.396499376377994"><ele>166.33333333333334</ele><time>2026-05-03T10:21:12Z</time></trkpt><trkpt lat="44.659131612071675" lon="8.39629217638534"><ele>166.66666666666666</ele><time>2026-05-03T10:21:13Z</time></trkpt><trkpt lat="44.659031504414024" lon="8.39607742905692"><ele>167.0</ele><time>2026-05-03T10:21:14Z</time></trkpt><trkpt lat="44.65892626940425" lon="8.395866785742701"><ele>167.0</ele><time>2026-05-03T10:21:15Z</time></trkpt><trkpt lat="44.65882089019482" lon="8.395656228529429"><ele>167.0</ele><time>2026-05-03T10:21:16Z</time></trkpt><trkpt lat="44.65871323168819" lon="8.39544504522352"><ele>167.0</ele><time>2026-05-03T10:21:17Z</time></trkpt><trkpt lat="44.658612741854604" lon="8.39523888815807"><ele>167.33333333333331</ele><time>2026-05-03T10:21:18Z</time></trkpt><trkpt lat="44.65851571663036" lon="8.39503839530415"><ele>167.66666666666666</ele><time>2026-05-03T10:21:19Z</time></trkpt><trkpt lat="44.65842447459518" lon="8.394847931681296"><ele>168.0</ele><time>2026-05-03T10:21:20Z</time></trkpt><trkpt lat="44.65833791704395" lon="8.39466589089096"><ele>168.75</ele><time>2026-05-03T10:21:21Z</time></trkpt><trkpt lat="44.65825042866876" lon="8.394489418250311"><ele>169.5</ele><time>2026-05-03T10:21:22Z</time></trkpt><trkpt lat="44.65816926018618" lon="8.39432964561135"><ele>170.25</ele><time>2026-05-03T10:21:23Z</time></trkpt><trkpt lat="44.658090638958974" lon="8.394173405457602"><ele>171.0</ele><time>2026-05-03T10:21:24Z</time></trkpt><trkpt lat="44.65801118621796" lon="8.394023823510063"><ele>171.0</ele><time>2026-05-03T10:21:25Z</time></trkpt><trkpt lat="44.65792919430867" lon="8.393873256180546"><ele>171.0</ele><time>2026-05-03T10:21:26Z</time></trkpt><trkpt lat="44.65784744292371" lon="8.393735104263369"><ele>171.0</ele><time>2026-05-03T10:21:27Z</time></trkpt><trkpt lat="44.657765832392336" lon="8.393605764612923"><ele>171.0</ele><time>2026-05-03T10:21:28Z</time></trkpt><trkpt lat="44.65770479511466" lon="8.393481087902458"><ele>171.0</ele><time>2026-05-03T10:21:29Z</time></trkpt><trkpt lat="44.65766419942679" lon="8.393332240268876"><ele>171.0</ele><time>2026-05-03T10:21:30Z</time></trkpt><trkpt lat="44.657623024143334" lon="8.393178353683801"><ele>171.0</ele><time>2026-05-03T10:21:31Z</time></trkpt><trkpt lat="44.65756456280737" lon="8.393017080646702"><ele>171.0</ele><time>2026-05-03T10:21:32Z</time></trkpt><trkpt lat="44.657473066502746" lon="8.392877995095372"><ele>171.0</ele><time>2026-05-03T10:21:33Z</time></trkpt><trkpt lat="44.65739342925942" lon="8.392719036588964"><ele>171.0</ele><time>2026-05-03T10:21:34Z</time></trkpt><trkpt lat="44.657364465805905" lon="8.392509470769705"><ele>171.0</ele><time>2026-05-03T10:21:35Z</time></trkpt><trkpt lat="44.65733598275502" lon="8.39230803733402"><ele>171.0</ele><time>2026-05-03T10:21:36Z</time></trkpt><trkpt lat="44.657297090917375" lon="8.392108487583195"><ele>171.75</ele><time>2026-05-03T10:21:37Z</time></trkpt><trkpt lat="44.65725696816912" lon="8.391912584682473"><ele>172.5</ele><time>2026-05-03T10:21:38Z</time></trkpt><trkpt lat="44.657219131156346" lon="8.391717501159686"><ele>173.25</ele><time>2026-05-03T10:21:39Z</time></trkpt><trkpt lat="44.65719211220537" lon="8.391518790093738"><ele>174.0</ele><time>2026-05-03T10:21:40Z</time></trkpt><trkpt lat="44.65717347621928" lon="8.391308711881608"><ele>175.33333333333334</ele><time>2026-05-03T10:21:41Z</time></trkpt><trkpt lat="44.65715463682988" lon="8.391091937068701"><ele>176.66666666666669</ele><time>2026-05-03T10:21:42Z</time></trkpt><trkpt lat="44.65714368588545" lon="8.39086870590186"><ele>178.0</ele><time>2026-05-03T10:21:42.999Z</time></trkpt><trkpt lat="44.65714673933196" lon="8.390657029316671"><ele>177.33333333333334</ele><time>2026-05-03T10:21:43.999Z</time></trkpt><trkpt lat="44.657146835792744" lon="8.390418706132929"><ele>176.66666666666666</ele><time>2026-05-03T10:21:44.999Z</time></trkpt><trkpt lat="44.65715901939699" lon="8.39018377513295"><ele>176.0</ele><time>2026-05-03T10:21:45.999Z</time></trkpt><trkpt lat="44.657183339013805" lon="8.38994790583195"><ele>176.0</ele><time>2026-05-03T10:21:46.999Z</time></trkpt><trkpt lat="44.65720375095733" lon="8.389707081008206"><ele>176.0</ele><time>2026-05-03T10:21:47.999Z</time></trkpt><trkpt lat="44.6572331698055" lon="8.389469461624277"><ele>176.0</ele><time>2026-05-03T10:21:48.999Z</time></trkpt><trkpt lat="44.65724958200746" lon="8.389215082462297"><ele>174.33333333333331</ele><time>2026-05-03T10:21:49.999Z</time></trkpt><trkpt lat="44.65727383098435" lon="8.388971348145274"><ele>172.66666666666666</ele><time>2026-05-03T10:21:50.999Z</time></trkpt><trkpt lat="44.65728930365589" lon="8.38870579051442"><ele>171.0</ele><time>2026-05-03T10:21:51.999Z</time></trkpt><trkpt lat="44.65730377365815" lon="8.388449183764946"><ele>170.33333333333334</ele><time>2026-05-03T10:21:52.999Z</time></trkpt><trkpt lat="44.6573330218046" lon="8.388199471308768"><ele>169.66666666666669</ele><time>2026-05-03T10:21:53.999Z</time></trkpt><trkpt lat="44.65735182414104" lon="8.38794063944708"><ele>169.0</ele><time>2026-05-03T10:21:54.999Z</time></trkpt><trkpt lat="44.65738152289941" lon="8.38770434744953"><ele>169.0</ele><time>2026-05-03T10:21:55.999Z</time></trkpt><trkpt lat="44.657430170059" lon="8.3874697420593"><ele>169.0</ele><time>2026-05-03T10:21:56.999Z</time></trkpt><trkpt lat="44.65748900603193" lon="8.38723680009424"><ele>169.0</ele><time>2026-05-03T10:21:57.999Z</time></trkpt><trkpt lat="44.657561291484875" lon="8.386997378911147"><ele>169.33333333333334</ele><time>2026-05-03T10:21:58.999Z</time></trkpt><trkpt lat="44.65763181398511" lon="8.386758916654946"><ele>169.66666666666666</ele><time>2026-05-03T10:21:59.999Z</time></trkpt><trkpt lat="44.657704430952876" lon="8.386528076007714"><ele>170.0</ele><time>2026-05-03T10:22:00.999Z</time></trkpt><trkpt lat="44.6577775214728" lon="8.386292206984942"><ele>169.66666666666666</ele><time>2026-05-03T10:22:01.999Z</time></trkpt><trkpt lat="44.65785329869229" lon="8.38607967078606"><ele>169.33333333333334</ele><time>2026-05-03T10:22:02.999Z</time></trkpt><trkpt lat="44.65791524165029" lon="8.385843150419323"><ele>169.0</ele><time>2026-05-03T10:22:03.999Z</time></trkpt><trkpt lat="44.6579669546917" lon="8.38560936855451"><ele>169.33333333333334</ele><time>2026-05-03T10:22:04.999Z</time></trkpt><trkpt lat="44.65800872267191" lon="8.385378487325209"><ele>169.66666666666666</ele><time>2026-05-03T10:22:05.999Z</time></trkpt><trkpt lat="44.65804131107743" lon="8.385142729331646"><ele>170.0</ele><time>2026-05-03T10:22:06.999Z</time></trkpt><trkpt lat="44.65806478328596" lon="8.384893629723004"><ele>171.0</ele><time>2026-05-03T10:22:07.999Z</time></trkpt><trkpt lat="44.65808751668239" lon="8.384657181879588"><ele>172.0</ele><time>2026-05-03T10:22:08.999Z</time></trkpt><trkpt lat="44.658106316959795" lon="8.384421644915173"><ele>173.0</ele><time>2026-05-03T10:22:09.999Z</time></trkpt><trkpt lat="44.65813588437486" lon="8.384190287582456"><ele>173.0</ele><time>2026-05-03T10:22:10.999Z</time></trkpt><trkpt lat="44.658151904809046" lon="8.383939975566037"><ele>173.0</ele><time>2026-05-03T10:22:11.999Z</time></trkpt><trkpt lat="44.65815847726093" lon="8.383696235969692"><ele>173.0</ele><time>2026-05-03T10:22:12.999Z</time></trkpt><trkpt lat="44.65815793221449" lon="8.383446467889858"><ele>172.66666666666666</ele><time>2026-05-03T10:22:13.999Z</time></trkpt><trkpt lat="44.65815928561908" lon="8.383209265521518"><ele>172.33333333333334</ele><time>2026-05-03T10:22:14.999Z</time></trkpt><trkpt lat="44.65816636853085" lon="8.382969295879896"><ele>172.0</ele><time>2026-05-03T10:22:15.999Z</time></trkpt><trkpt lat="44.65816324193147" lon="8.382733409014461"><ele>172.0</ele><time>2026-05-03T10:22:16.999Z</time></trkpt><trkpt lat="44.65816020862581" lon="8.3825074985409"><ele>172.0</ele><time>2026-05-03T10:22:17.999Z</time></trkpt><trkpt lat="44.65815126046997" lon="8.382265971479008"><ele>172.0</ele><time>2026-05-03T10:22:18.999Z</time></trkpt><trkpt lat="44.65816090466531" lon="8.382043576621781"><ele>172.0</ele><time>2026-05-03T10:22:19.999Z</time></trkpt><trkpt lat="44.65816546692724" lon="8.381816428708024"><ele>172.0</ele><time>2026-05-03T10:22:20.999Z</time></trkpt><trkpt lat="44.65816484318314" lon="8.381589847033917"><ele>172.0</ele><time>2026-05-03T10:22:21.999Z</time></trkpt><trkpt lat="44.658153641908655" lon="8.381348670756468"><ele>172.0</ele><time>2026-05-03T10:22:22.999Z</time></trkpt><trkpt lat="44.65815666133103" lon="8.381130739069711"><ele>172.0</ele><time>2026-05-03T10:22:23.999Z</time></trkpt><trkpt lat="44.65816476442071" lon="8.38091066219376"><ele>172.0</ele><time>2026-05-03T10:22:24.999Z</time></trkpt><trkpt lat="44.65816273089046" lon="8.380689463791347"><ele>172.5</ele><time>2026-05-03T10:22:25.999Z</time></trkpt><trkpt lat="44.658167595282585" lon="8.380473590279852"><ele>173.0</ele><time>2026-05-03T10:22:26.999Z</time></trkpt><trkpt lat="44.658163360686025" lon="8.380263824486242"><ele>173.5</ele><time>2026-05-03T10:22:27.999Z</time></trkpt><trkpt lat="44.658163096006575" lon="8.380061935420628"><ele>174.0</ele><time>2026-05-03T10:22:28.999Z</time></trkpt><trkpt lat="44.65816145916263" lon="8.37986986954581"><ele>174.5</ele><time>2026-05-03T10:22:29.999Z</time></trkpt><trkpt lat="44.65815652120724" lon="8.37967624511435"><ele>175.0</ele><time>2026-05-03T10:22:30.999Z</time></trkpt><trkpt lat="44.658154765633995" lon="8.379482675408084"><ele>175.5</ele><time>2026-05-03T10:22:31.999Z</time></trkpt><trkpt lat="44.65815893971242" lon="8.379284102628972"><ele>176.0</ele><time>2026-05-03T10:22:32.999Z</time></trkpt><trkpt lat="44.65816419535934" lon="8.379079422033797"><ele>176.0</ele><time>2026-05-03T10:22:34Z</time></trkpt><trkpt lat="44.65818026530406" lon="8.378875658515412"><ele>176.0</ele><time>2026-05-03T10:22:35Z</time></trkpt><trkpt lat="44.658196171723084" lon="8.378674487897895"><ele>176.0</ele><time>2026-05-03T10:22:36Z</time></trkpt><trkpt lat="44.65821751031567" lon="8.378482761339523"><ele>176.0</ele><time>2026-05-03T10:22:37Z</time></trkpt><trkpt lat="44.6582484434897" lon="8.378284603903845"><ele>175.5</ele><time>2026-05-03T10:22:38Z</time></trkpt><trkpt lat="44.65827484405627" lon="8.378088626869088"><ele>175.0</ele><time>2026-05-03T10:22:39Z</time></trkpt><trkpt lat="44.65830456046711" lon="8.377895565801683"><ele>174.5</ele><time>2026-05-03T10:22:40Z</time></trkpt><trkpt lat="44.65832907416828" lon="8.37770657793434"><ele>174.0</ele><time>2026-05-03T10:22:41Z</time></trkpt><trkpt lat="44.65835386704517" lon="8.377531708985837"><ele>174.0</ele><time>2026-05-03T10:22:42Z</time></trkpt><trkpt lat="44.658379265730595" lon="8.377352279101673"><ele>174.0</ele><time>2026-05-03T10:22:43Z</time></trkpt><trkpt lat="44.65841017098131" lon="8.377171922979985"><ele>174.0</ele><time>2026-05-03T10:22:44Z</time></trkpt><trkpt lat="44.658437774632105" lon="8.376978977994465"><ele>174.0</ele><time>2026-05-03T10:22:45Z</time></trkpt><trkpt lat="44.65846976412614" lon="8.376804169564274"><ele>174.0</ele><time>2026-05-03T10:22:46Z</time></trkpt><trkpt lat="44.65849032697275" lon="8.376607458696284"><ele>174.0</ele><time>2026-05-03T10:22:47Z</time></trkpt><trkpt lat="44.658537810309404" lon="8.376420323046771"><ele>174.0</ele><time>2026-05-03T10:22:48Z</time></trkpt><trkpt lat="44.65855059282158" lon="8.376248833296858"><ele>174.0</ele><time>2026-05-03T10:22:49Z</time></trkpt><trkpt lat="44.65857921153764" lon="8.376077899350205"><ele>174.0</ele><time>2026-05-03T10:22:50Z</time></trkpt><trkpt lat="44.6586071173677" lon="8.375911852270209"><ele>174.0</ele><time>2026-05-03T10:22:51Z</time></trkpt><trkpt lat="44.65863491496428" lon="8.375735508996994"><ele>174.0</ele><time>2026-05-03T10:22:52Z</time></trkpt><trkpt lat="44.65865987131936" lon="8.375532529182621"><ele>174.0</ele><time>2026-05-03T10:22:53Z</time></trkpt><trkpt lat="44.65869204678571" lon="8.375339425964212"><ele>173.75</ele><time>2026-05-03T10:22:54Z</time></trkpt><trkpt lat="44.65872540108836" lon="8.375149113061331"><ele>173.5</ele><time>2026-05-03T10:22:55Z</time></trkpt><trkpt lat="44.65875582455228" lon="8.374952951643758"><ele>173.25</ele><time>2026-05-03T10:22:56Z</time></trkpt><trkpt lat="44.65880958839919" lon="8.37476330005113"><ele>173.0</ele><time>2026-05-03T10:22:57Z</time></trkpt><trkpt lat="44.65882828838574" lon="8.37456325499764"><ele>172.5</ele><time>2026-05-03T10:22:58Z</time></trkpt><trkpt lat="44.658858786697394" lon="8.374362717049834"><ele>172.0</ele><time>2026-05-03T10:22:59Z</time></trkpt><trkpt lat="44.658906286743324" lon="8.3741690652657"><ele>171.5</ele><time>2026-05-03T10:23:00Z</time></trkpt><trkpt lat="44.658923283423064" lon="8.373968276976928"><ele>171.0</ele><time>2026-05-03T10:23:01Z</time></trkpt><trkpt lat="44.65895725030494" lon="8.373778194143867"><ele>171.0</ele><time>2026-05-03T10:23:02Z</time></trkpt><trkpt lat="44.658990987752894" lon="8.373591440017092"><ele>171.0</ele><time>2026-05-03T10:23:03Z</time></trkpt><trkpt lat="44.65902322381353" lon="8.373410512092933"><ele>171.0</ele><time>2026-05-03T10:23:04Z</time></trkpt><trkpt lat="44.65904872644332" lon="8.373224630209593"><ele>171.0</ele><time>2026-05-03T10:23:05Z</time></trkpt><trkpt lat="44.65906979903914" lon="8.37303901792713"><ele>171.5</ele><time>2026-05-03T10:23:06Z</time></trkpt><trkpt lat="44.65908362091054" lon="8.372849953236557"><ele>172.0</ele><time>2026-05-03T10:23:07Z</time></trkpt><trkpt lat="44.659081787043974" lon="8.37265485626017"><ele>172.5</ele><time>2026-05-03T10:23:08Z</time></trkpt><trkpt lat="44.65907053395326" lon="8.372464169776878"><ele>173.0</ele><time>2026-05-03T10:23:09Z</time></trkpt><trkpt lat="44.65905458951111" lon="8.372269170211936"><ele>173.0</ele><time>2026-05-03T10:23:10Z</time></trkpt><trkpt lat="44.65903694638183" lon="8.372073772777318"><ele>173.0</ele><time>2026-05-03T10:23:11Z</time></trkpt><trkpt lat="44.65901616169008" lon="8.37188032742827"><ele>173.0</ele><time>2026-05-03T10:23:12Z</time></trkpt><trkpt lat="44.659023046657836" lon="8.371714471592158"><ele>173.0</ele><time>2026-05-03T10:23:13Z</time></trkpt><trkpt lat="44.6590097080567" lon="8.371537550358653"><ele>173.0</ele><time>2026-05-03T10:23:14Z</time></trkpt><trkpt lat="44.6589985708157" lon="8.371363036213745"><ele>173.0</ele><time>2026-05-03T10:23:15Z</time></trkpt><trkpt lat="44.65898250365819" lon="8.371194613088063"><ele>173.0</ele><time>2026-05-03T10:23:16Z</time></trkpt><trkpt lat="44.65896802698452" lon="8.371026285847455"><ele>173.0</ele><time>2026-05-03T10:23:17Z</time></trkpt><trkpt lat="44.658954275233484" lon="8.370878098249898"><ele>173.0</ele><time>2026-05-03T10:23:18Z</time></trkpt><trkpt lat="44.65893904311498" lon="8.370733069122206"><ele>173.0</ele><time>2026-05-03T10:23:19Z</time></trkpt><trkpt lat="44.658924366004264" lon="8.370588313656746"><ele>173.0</ele><time>2026-05-03T10:23:20Z</time></trkpt><trkpt lat="44.65890665442192" lon="8.370442190357418"><ele>173.0</ele><time>2026-05-03T10:23:21Z</time></trkpt><trkpt lat="44.658919957688155" lon="8.370304574307422"><ele>173.0</ele><time>2026-05-03T10:23:22Z</time></trkpt><trkpt lat="44.658903809556946" lon="8.370135011074057"><ele>172.5</ele><time>2026-05-03T10:23:23Z</time></trkpt><trkpt lat="44.658883750222095" lon="8.3699540173318"><ele>172.0</ele><time>2026-05-03T10:23:24Z</time></trkpt><trkpt lat="44.65885169954004" lon="8.369775475416803"><ele>171.5</ele><time>2026-05-03T10:23:25Z</time></trkpt><trkpt lat="44.65881081983732" lon="8.369588477801438"><ele>171.0</ele><time>2026-05-03T10:23:26Z</time></trkpt><trkpt lat="44.65875675697122" lon="8.369369130069133"><ele>169.66666666666666</ele><time>2026-05-03T10:23:27Z</time></trkpt><trkpt lat="44.65870987734357" lon="8.369149009979711"><ele>168.33333333333331</ele><time>2026-05-03T10:23:28Z</time></trkpt><trkpt lat="44.65865883779957" lon="8.368941757824683"><ele>167.0</ele><time>2026-05-03T10:23:29Z</time></trkpt><trkpt lat="44.658608924566565" lon="8.368723479306166"><ele>167.0</ele><time>2026-05-03T10:23:30Z</time></trkpt><trkpt lat="44.65856069724298" lon="8.36851136736438"><ele>167.0</ele><time>2026-05-03T10:23:31Z</time></trkpt><trkpt lat="44.658511269036424" lon="8.368290045862295"><ele>167.0</ele><time>2026-05-03T10:23:32Z</time></trkpt><trkpt lat="44.658450301211474" lon="8.368054152454734"><ele>167.0</ele><time>2026-05-03T10:23:33Z</time></trkpt><trkpt lat="44.65838247841804" lon="8.367813447470438"><ele>167.0</ele><time>2026-05-03T10:23:34Z</time></trkpt><trkpt lat="44.658311908418895" lon="8.367576489498836"><ele>167.0</ele><time>2026-05-03T10:23:35Z</time></trkpt><trkpt lat="44.65824568445441" lon="8.367351911766319"><ele>167.0</ele><time>2026-05-03T10:23:36Z</time></trkpt><trkpt lat="44.65818269777125" lon="8.36711816347805"><ele>167.0</ele><time>2026-05-03T10:23:37Z</time></trkpt><trkpt lat="44.65812394871366" lon="8.366896902883953"><ele>167.0</ele><time>2026-05-03T10:23:38Z</time></trkpt><trkpt lat="44.65805063105315" lon="8.366684809014268"><ele>167.0</ele><time>2026-05-03T10:23:39Z</time></trkpt><trkpt lat="44.65799704225903" lon="8.366475220267027"><ele>167.0</ele><time>2026-05-03T10:23:40Z</time></trkpt><trkpt lat="44.65791984564809" lon="8.366296911764508"><ele>167.0</ele><time>2026-05-03T10:23:41Z</time></trkpt><trkpt lat="44.65784462959994" lon="8.366110138119994"><ele>168.0</ele><time>2026-05-03T10:23:42Z</time></trkpt><trkpt lat="44.65775334626074" lon="8.365938072958595"><ele>169.0</ele><time>2026-05-03T10:23:43Z</time></trkpt><trkpt lat="44.65763592237563" lon="8.365775106300486"><ele>170.0</ele><time>2026-05-03T10:23:44Z</time></trkpt><trkpt lat="44.65750073416386" lon="8.365658650266226"><ele>170.0</ele><time>2026-05-03T10:23:45Z</time></trkpt><trkpt lat="44.65736036779826" lon="8.365562656666526"><ele>170.0</ele><time>2026-05-03T10:23:46Z</time></trkpt><trkpt lat="44.6572007230538" lon="8.365471015847842"><ele>170.0</ele><time>2026-05-03T10:23:47Z</time></trkpt><trkpt lat="44.65705000260802" lon="8.365384433051366"><ele>171.0</ele><time>2026-05-03T10:23:48Z</time></trkpt><trkpt lat="44.656896265038135" lon="8.365283287479066"><ele>172.0</ele><time>2026-05-03T10:23:49Z</time></trkpt><trkpt lat="44.65674749183108" lon="8.3651812784199"><ele>173.0</ele><time>2026-05-03T10:23:49.999Z</time></trkpt><trkpt lat="44.656578929732454" lon="8.365089405649448"><ele>173.0</ele><time>2026-05-03T10:23:50.999Z</time></trkpt><trkpt lat="44.65641729909974" lon="8.364991889615062"><ele>173.0</ele><time>2026-05-03T10:23:51.999Z</time></trkpt><trkpt lat="44.656257586076826" lon="8.364889718356226"><ele>173.0</ele><time>2026-05-03T10:23:52.999Z</time></trkpt><trkpt lat="44.65609325845648" lon="8.364793747846253"><ele>174.0</ele><time>2026-05-03T10:23:53.999Z</time></trkpt><trkpt lat="44.655934370619306" lon="8.364690869156561"><ele>175.0</ele><time>2026-05-03T10:23:54.999Z</time></trkpt><trkpt lat="44.65577496007875" lon="8.364605328811168"><ele>176.0</ele><time>2026-05-03T10:23:55.999Z</time></trkpt><trkpt lat="44.655622388140756" lon="8.364517866291209"><ele>176.0</ele><time>2026-05-03T10:23:56.999Z</time></trkpt><trkpt lat="44.65547438385133" lon="8.364428624417036"><ele>176.0</ele><time>2026-05-03T10:23:57.999Z</time></trkpt><trkpt lat="44.65533075822686" lon="8.364346679139524"><ele>176.0</ele><time>2026-05-03T10:23:58.999Z</time></trkpt><trkpt lat="44.655187392960656" lon="8.364260386573354"><ele>178.33333333333331</ele><time>2026-05-03T10:23:59.999Z</time></trkpt><trkpt lat="44.655050316635034" lon="8.364175051176286"><ele>180.66666666666666</ele><time>2026-05-03T10:24:00.999Z</time></trkpt><trkpt lat="44.65490767485835" lon="8.364089632279857"><ele>183.0</ele><time>2026-05-03T10:24:01.999Z</time></trkpt><trkpt lat="44.654763200662025" lon="8.364013888375252"><ele>183.0</ele><time>2026-05-03T10:24:02.999Z</time></trkpt><trkpt lat="44.65461931064661" lon="8.363923728798122"><ele>183.0</ele><time>2026-05-03T10:24:03.999Z</time></trkpt><trkpt lat="44.65446518257338" lon="8.363837093069396"><ele>183.0</ele><time>2026-05-03T10:24:04.999Z</time></trkpt><trkpt lat="44.65432256939368" lon="8.363756271147183"><ele>184.0</ele><time>2026-05-03T10:24:05.999Z</time></trkpt><trkpt lat="44.65416606952725" lon="8.363657314236317"><ele>185.0</ele><time>2026-05-03T10:24:06.999Z</time></trkpt><trkpt lat="44.65400508990798" lon="8.363578377056882"><ele>186.0</ele><time>2026-05-03T10:24:07.999Z</time></trkpt><trkpt lat="44.65384497195471" lon="8.36348684705791"><ele>186.0</ele><time>2026-05-03T10:24:08.999Z</time></trkpt><trkpt lat="44.65368864546176" lon="8.363396653500137"><ele>186.0</ele><time>2026-05-03T10:24:09.999Z</time></trkpt><trkpt lat="44.653537028838585" lon="8.363305186025599"><ele>186.0</ele><time>2026-05-03T10:24:10.999Z</time></trkpt><trkpt lat="44.65338742407147" lon="8.363214864640659"><ele>186.33333333333334</ele><time>2026-05-03T10:24:11.999Z</time></trkpt><trkpt lat="44.653240777637436" lon="8.363118493958797"><ele>186.66666666666669</ele><time>2026-05-03T10:24:12.999Z</time></trkpt><trkpt lat="44.653090944953206" lon="8.363025365023553"><ele>187.0</ele><time>2026-05-03T10:24:13.999Z</time></trkpt><trkpt lat="44.65293593325814" lon="8.362938428040541"><ele>188.33333333333334</ele><time>2026-05-03T10:24:14.999Z</time></trkpt><trkpt lat="44.65277565544571" lon="8.362848391486473"><ele>189.66666666666666</ele><time>2026-05-03T10:24:15.999Z</time></trkpt><trkpt lat="44.6526153473021" lon="8.362757797613373"><ele>191.0</ele><time>2026-05-03T10:24:16.999Z</time></trkpt><trkpt lat="44.65245717432226" lon="8.362663520929493"><ele>191.0</ele><time>2026-05-03T10:24:17.999Z</time></trkpt><trkpt lat="44.652300902531564" lon="8.362552610255094"><ele>191.0</ele><time>2026-05-03T10:24:18.999Z</time></trkpt><trkpt lat="44.65213531932353" lon="8.362454088246642"><ele>191.0</ele><time>2026-05-03T10:24:19.999Z</time></trkpt><trkpt lat="44.6519605061018" lon="8.36235007439083"><ele>191.66666666666666</ele><time>2026-05-03T10:24:20.999Z</time></trkpt><trkpt lat="44.65179833641619" lon="8.362274798893532"><ele>192.33333333333331</ele><time>2026-05-03T10:24:21.999Z</time></trkpt><trkpt lat="44.65164461257678" lon="8.362177169491751"><ele>193.0</ele><time>2026-05-03T10:24:22.999Z</time></trkpt><trkpt lat="44.651488843071725" lon="8.362082003459399"><ele>193.0</ele><time>2026-05-03T10:24:23.999Z</time></trkpt><trkpt lat="44.651334064599" lon="8.361984788926172"><ele>193.0</ele><time>2026-05-03T10:24:24.999Z</time></trkpt><trkpt lat="44.65117562247434" lon="8.361896191478841"><ele>193.0</ele><time>2026-05-03T10:24:25.999Z</time></trkpt><trkpt lat="44.65102345190743" lon="8.361794221214684"><ele>193.0</ele><time>2026-05-03T10:24:26.999Z</time></trkpt><trkpt lat="44.65086683818243" lon="8.361696116556285"><ele>193.0</ele><time>2026-05-03T10:24:27.999Z</time></trkpt><trkpt lat="44.65072024080786" lon="8.361573955044813"><ele>193.0</ele><time>2026-05-03T10:24:28.999Z</time></trkpt><trkpt lat="44.65058595344625" lon="8.361422168713448"><ele>192.0</ele><time>2026-05-03T10:24:29.999Z</time></trkpt><trkpt lat="44.650439567472176" lon="8.361278516837164"><ele>191.0</ele><time>2026-05-03T10:24:30.999Z</time></trkpt><trkpt lat="44.65027573483307" lon="8.361170528024777"><ele>190.0</ele><time>2026-05-03T10:24:31.999Z</time></trkpt><trkpt lat="44.65010799821205" lon="8.361073380737896"><ele>190.0</ele><time>2026-05-03T10:24:32.999Z</time></trkpt><trkpt lat="44.64993757649671" lon="8.360972831942375"><ele>190.0</ele><time>2026-05-03T10:24:33.999Z</time></trkpt><trkpt lat="44.64977241593584" lon="8.360848975878865"><ele>190.0</ele><time>2026-05-03T10:24:34.999Z</time></trkpt><trkpt lat="44.64961570823926" lon="8.360712481878393"><ele>190.0</ele><time>2026-05-03T10:24:35.999Z</time></trkpt><trkpt lat="44.64946776913357" lon="8.36055796106679"><ele>190.0</ele><time>2026-05-03T10:24:36.999Z</time></trkpt><trkpt lat="44.64933109697785" lon="8.36039700282814"><ele>190.0</ele><time>2026-05-03T10:24:37.999Z</time></trkpt><trkpt lat="44.64920410134935" lon="8.360232492353315"><ele>189.66666666666669</ele><time>2026-05-03T10:24:38.999Z</time></trkpt><trkpt lat="44.64908109320489" lon="8.360074363529467"><ele>189.33333333333334</ele><time>2026-05-03T10:24:40Z</time></trkpt><trkpt lat="44.64896368958904" lon="8.35991713617026"><ele>189.0</ele><time>2026-05-03T10:24:41Z</time></trkpt><trkpt lat="44.64884849886237" lon="8.359763857855965"><ele>189.0</ele><time>2026-05-03T10:24:42Z</time></trkpt><trkpt lat="44.64873504097775" lon="8.359616060368884"><ele>189.0</ele><time>2026-05-03T10:24:43Z</time></trkpt><trkpt lat="44.64862230587164" lon="8.359479850454138"><ele>189.0</ele><time>2026-05-03T10:24:44Z</time></trkpt><trkpt lat="44.64851358950463" lon="8.359343914339673"><ele>189.0</ele><time>2026-05-03T10:24:45Z</time></trkpt><trkpt lat="44.64840723783055" lon="8.359210795492244"><ele>189.0</ele><time>2026-05-03T10:24:46Z</time></trkpt><trkpt lat="44.64831155720795" lon="8.359047867387572"><ele>189.0</ele><time>2026-05-03T10:24:47Z</time></trkpt><trkpt lat="44.64819270408296" lon="8.358924472610791"><ele>189.0</ele><time>2026-05-03T10:24:48Z</time></trkpt><trkpt lat="44.64806433948177" lon="8.358801464107426"><ele>188.0</ele><time>2026-05-03T10:24:49Z</time></trkpt><trkpt lat="44.64793678467129" lon="8.358678618816674"><ele>187.0</ele><time>2026-05-03T10:24:50Z</time></trkpt><trkpt lat="44.64780813341823" lon="8.358567935668999"><ele>186.0</ele><time>2026-05-03T10:24:51Z</time></trkpt><trkpt lat="44.64767857085055" lon="8.358489393897745"><ele>185.0</ele><time>2026-05-03T10:24:52Z</time></trkpt><trkpt lat="44.64755833051804" lon="8.358424457703231"><ele>185.0</ele><time>2026-05-03T10:24:53Z</time></trkpt><trkpt lat="44.64743539421163" lon="8.358379452036113"><ele>185.0</ele><time>2026-05-03T10:24:54Z</time></trkpt><trkpt lat="44.64734107520105" lon="8.358288088880695"><ele>185.0</ele><time>2026-05-03T10:24:55Z</time></trkpt><trkpt lat="44.647238154413984" lon="8.358223566176173"><ele>185.0</ele><time>2026-05-03T10:24:56Z</time></trkpt><trkpt lat="44.64718995659904" lon="8.358071242430011"><ele>184.0</ele><time>2026-05-03T10:24:57Z</time></trkpt><trkpt lat="44.64716091936804" lon="8.35790283126831"><ele>183.0</ele><time>2026-05-03T10:24:58Z</time></trkpt><trkpt lat="44.64715910693968" lon="8.357736310198826"><ele>182.0</ele><time>2026-05-03T10:24:59Z</time></trkpt><trkpt lat="44.64713302495553" lon="8.357603361880386"><ele>181.0</ele><time>2026-05-03T10:25:00Z</time></trkpt><trkpt lat="44.647076174465234" lon="8.357477641509986"><ele>180.0</ele><time>2026-05-03T10:25:01Z</time></trkpt><trkpt lat="44.646972474054785" lon="8.357398640707475"><ele>180.5</ele><time>2026-05-03T10:25:02Z</time></trkpt><trkpt lat="44.64683464394835" lon="8.357382678215615"><ele>181.0</ele><time>2026-05-03T10:25:03Z</time></trkpt><trkpt lat="44.64670259404235" lon="8.357360468385775"><ele>181.5</ele><time>2026-05-03T10:25:04Z</time></trkpt><trkpt lat="44.646581663293205" lon="8.357362618755113"><ele>182.0</ele><time>2026-05-03T10:25:05Z</time></trkpt><trkpt lat="44.64646743691421" lon="8.357344224228648"><ele>182.0</ele><time>2026-05-03T10:25:06Z</time></trkpt><trkpt lat="44.64635321919697" lon="8.357301706106718"><ele>182.0</ele><time>2026-05-03T10:25:07Z</time></trkpt><trkpt lat="44.646221700364116" lon="8.357279585604795"><ele>182.0</ele><time>2026-05-03T10:25:08Z</time></trkpt><trkpt lat="44.64609931728704" lon="8.357265525637096"><ele>182.0</ele><time>2026-05-03T10:25:09Z</time></trkpt><trkpt lat="44.64598289292447" lon="8.357238801160431"><ele>183.25</ele><time>2026-05-03T10:25:10Z</time></trkpt><trkpt lat="44.645871849883946" lon="8.357219420807684"><ele>184.5</ele><time>2026-05-03T10:25:11Z</time></trkpt><trkpt lat="44.645755121781725" lon="8.357215560719238"><ele>185.75</ele><time>2026-05-03T10:25:12Z</time></trkpt><trkpt lat="44.64564171430362" lon="8.357250024104866"><ele>187.0</ele><time>2026-05-03T10:25:13Z</time></trkpt><trkpt lat="44.645528775987906" lon="8.357315309385601"><ele>187.0</ele><time>2026-05-03T10:25:14Z</time></trkpt><trkpt lat="44.64541228020289" lon="8.357386330215599"><ele>187.0</ele><time>2026-05-03T10:25:15Z</time></trkpt><trkpt lat="44.64528707098461" lon="8.357454889678053"><ele>187.0</ele><time>2026-05-03T10:25:16Z</time></trkpt><trkpt lat="44.64516054287155" lon="8.357513905222701"><ele>187.0</ele><time>2026-05-03T10:25:17Z</time></trkpt><trkpt lat="44.64502690543018" lon="8.357572617609437"><ele>187.0</ele><time>2026-05-03T10:25:18Z</time></trkpt><trkpt lat="44.644884265805544" lon="8.357635198947927"><ele>187.0</ele><time>2026-05-03T10:25:19Z</time></trkpt><trkpt lat="44.64474563555938" lon="8.357679179057651"><ele>187.0</ele><time>2026-05-03T10:25:20Z</time></trkpt><trkpt lat="44.644599956664074" lon="8.357718786310066"><ele>187.0</ele><time>2026-05-03T10:25:21Z</time></trkpt><trkpt lat="44.64446310338946" lon="8.357741151348371"><ele>186.5</ele><time>2026-05-03T10:25:22Z</time></trkpt><trkpt lat="44.644335306625614" lon="8.357753808901798"><ele>186.0</ele><time>2026-05-03T10:25:23Z</time></trkpt><trkpt lat="44.644198697796824" lon="8.357740799463532"><ele>185.5</ele><time>2026-05-03T10:25:24Z</time></trkpt><trkpt lat="44.64405314984795" lon="8.357760269254056"><ele>185.0</ele><time>2026-05-03T10:25:25Z</time></trkpt><trkpt lat="44.64391191765259" lon="8.357766703936658"><ele>185.0</ele><time>2026-05-03T10:25:26Z</time></trkpt><trkpt lat="44.64375497119022" lon="8.357792833016797"><ele>185.0</ele><time>2026-05-03T10:25:27Z</time></trkpt><trkpt lat="44.643605121928424" lon="8.35782341284444"><ele>185.0</ele><time>2026-05-03T10:25:28Z</time></trkpt><trkpt lat="44.643465515452505" lon="8.357845480878103"><ele>184.25</ele><time>2026-05-03T10:25:29Z</time></trkpt><trkpt lat="44.643318471432764" lon="8.35786719724915"><ele>183.5</ele><time>2026-05-03T10:25:30Z</time></trkpt><trkpt lat="44.64316343642051" lon="8.35786904452125"><ele>182.75</ele><time>2026-05-03T10:25:31Z</time></trkpt><trkpt lat="44.64302746416924" lon="8.35791384496687"><ele>182.0</ele><time>2026-05-03T10:25:32Z</time></trkpt><trkpt lat="44.6429093084162" lon="8.35794916336562"><ele>182.0</ele><time>2026-05-03T10:25:33Z</time></trkpt><trkpt lat="44.64280810284011" lon="8.357970386675497"><ele>182.0</ele><time>2026-05-03T10:25:34Z</time></trkpt><trkpt lat="44.642721375782" lon="8.357977030199953"><ele>182.0</ele><time>2026-05-03T10:25:35Z</time></trkpt><trkpt lat="44.642632709341605" lon="8.357976830471113"><ele>182.0</ele><time>2026-05-03T10:25:36Z</time></trkpt><trkpt lat="44.6425477023615" lon="8.357941124670846"><ele>182.0</ele><time>2026-05-03T10:25:37Z</time></trkpt><trkpt lat="44.64248717850858" lon="8.357862445758885"><ele>182.0</ele><time>2026-05-03T10:25:38Z</time></trkpt><trkpt lat="44.6424512858027" lon="8.357748242098985"><ele>181.8</ele><time>2026-05-03T10:25:39Z</time></trkpt><trkpt lat="44.642437631761155" lon="8.357618211927822"><ele>181.6</ele><time>2026-05-03T10:25:40Z</time></trkpt><trkpt lat="44.64244928331029" lon="8.357485119116726"><ele>181.4</ele><time>2026-05-03T10:25:41Z</time></trkpt><trkpt lat="44.642481631198564" lon="8.357368755297442"><ele>181.20000000000002</ele><time>2026-05-03T10:25:42Z</time></trkpt><trkpt lat="44.642481561778" lon="8.357271726210286"><ele>181.0</ele><time>2026-05-03T10:25:43Z</time></trkpt><trkpt lat="44.6425097155171" lon="8.357118417685035"><ele>180.83333333333334</ele><time>2026-05-03T10:25:45Z</time></trkpt><trkpt lat="44.64252477710403" lon="8.357028032555442"><ele>180.66666666666669</ele><time>2026-05-03T10:25:46Z</time></trkpt><trkpt lat="44.6425413592845" lon="8.356915492460411"><ele>180.5</ele><time>2026-05-03T10:25:47Z</time></trkpt><trkpt lat="44.642557275208745" lon="8.356801139348583"><ele>180.33333333333334</ele><time>2026-05-03T10:25:48Z</time></trkpt><trkpt lat="44.64257602416505" lon="8.35666811830747"><ele>180.16666666666666</ele><time>2026-05-03T10:25:49Z</time></trkpt><trkpt lat="44.642590982176124" lon="8.35651568200125"><ele>180.0</ele><time>2026-05-03T10:25:50Z</time></trkpt><trkpt lat="44.64261093807901" lon="8.356355135578694"><ele>179.75</ele><time>2026-05-03T10:25:51Z</time></trkpt><trkpt lat="44.642641035659544" lon="8.35616827456965"><ele>179.5</ele><time>2026-05-03T10:25:52Z</time></trkpt><trkpt lat="44.642674375844514" lon="8.355986431700291"><ele>179.25</ele><time>2026-05-03T10:25:53Z</time></trkpt><trkpt lat="44.64271682418747" lon="8.35577237947702"><ele>179.0</ele><time>2026-05-03T10:25:54Z</time></trkpt><trkpt lat="44.64278162922258" lon="8.355541519127023"><ele>177.66666666666666</ele><time>2026-05-03T10:25:55Z</time></trkpt><trkpt lat="44.642851710712364" lon="8.355334400431417"><ele>176.33333333333334</ele><time>2026-05-03T10:25:56Z</time></trkpt><trkpt lat="44.64292992528073" lon="8.355116243346055"><ele>175.0</ele><time>2026-05-03T10:25:57Z</time></trkpt><trkpt lat="44.643001502912306" lon="8.354902186997737"><ele>174.0</ele><time>2026-05-03T10:25:58Z</time></trkpt><trkpt lat="44.64305231722015" lon="8.354667865972448"><ele>173.0</ele><time>2026-05-03T10:25:59Z</time></trkpt><trkpt lat="44.64308235086865" lon="8.354425511927262"><ele>172.0</ele><time>2026-05-03T10:26:00Z</time></trkpt><trkpt lat="44.64311799734314" lon="8.35419682018595"><ele>172.0</ele><time>2026-05-03T10:26:01Z</time></trkpt><trkpt lat="44.6431570505854" lon="8.35397462219757"><ele>172.0</ele><time>2026-05-03T10:26:02Z</time></trkpt><trkpt lat="44.64319293700743" lon="8.353747101015177"><ele>172.0</ele><time>2026-05-03T10:26:03Z</time></trkpt><trkpt lat="44.643231906976965" lon="8.35351848289211"><ele>172.0</ele><time>2026-05-03T10:26:04Z</time></trkpt><trkpt lat="44.64326181999781" lon="8.353276473161944"><ele>172.0</ele><time>2026-05-03T10:26:05Z</time></trkpt><trkpt lat="44.64330190738056" lon="8.353028924272875"><ele>172.0</ele><time>2026-05-03T10:26:06Z</time></trkpt><trkpt lat="44.643339502966484" lon="8.35279392447115"><ele>174.0</ele><time>2026-05-03T10:26:07Z</time></trkpt><trkpt lat="44.64337307742968" lon="8.352548806142774"><ele>176.0</ele><time>2026-05-03T10:26:08Z</time></trkpt><trkpt lat="44.643408605331786" lon="8.352300195232848"><ele>178.0</ele><time>2026-05-03T10:26:09Z</time></trkpt><trkpt lat="44.64344034212825" lon="8.352048726028666"><ele>179.33333333333334</ele><time>2026-05-03T10:26:10Z</time></trkpt><trkpt lat="44.643460130233365" lon="8.351785678594272"><ele>180.66666666666666</ele><time>2026-05-03T10:26:10.999Z</time></trkpt><trkpt lat="44.64346619020162" lon="8.351539366530188"><ele>182.0</ele><time>2026-05-03T10:26:11.999Z</time></trkpt><trkpt lat="44.64346120026496" lon="8.35130048735861"><ele>182.0</ele><time>2026-05-03T10:26:12.999Z</time></trkpt><trkpt lat="44.6434374810814" lon="8.351062557503711"><ele>182.0</ele><time>2026-05-03T10:26:13.999Z</time></trkpt><trkpt lat="44.64340385287266" lon="8.350834711582225"><ele>182.0</ele><time>2026-05-03T10:26:14.999Z</time></trkpt><trkpt lat="44.64336587671831" lon="8.350626747967503"><ele>182.5</ele><time>2026-05-03T10:26:15.999Z</time></trkpt><trkpt lat="44.64332589397862" lon="8.350434519622238"><ele>183.0</ele><time>2026-05-03T10:26:16.999Z</time></trkpt><trkpt lat="44.64328886939687" lon="8.350250282740108"><ele>183.5</ele><time>2026-05-03T10:26:17.999Z</time></trkpt><trkpt lat="44.64324818562151" lon="8.350067187975892"><ele>184.0</ele><time>2026-05-03T10:26:18.999Z</time></trkpt><trkpt lat="44.643206644073814" lon="8.349876646163946"><ele>184.33333333333334</ele><time>2026-05-03T10:26:19.999Z</time></trkpt><trkpt lat="44.643169908713" lon="8.349677655150545"><ele>184.66666666666666</ele><time>2026-05-03T10:26:20.999Z</time></trkpt><trkpt lat="44.643135816907524" lon="8.349464447160118"><ele>185.0</ele><time>2026-05-03T10:26:21.999Z</time></trkpt><trkpt lat="44.64311349444704" lon="8.34923260376644"><ele>185.0</ele><time>2026-05-03T10:26:22.999Z</time></trkpt><trkpt lat="44.643109363894006" lon="8.348991198744676"><ele>185.0</ele><time>2026-05-03T10:26:23.999Z</time></trkpt><trkpt lat="44.6431137336262" lon="8.348741080469933"><ele>185.0</ele><time>2026-05-03T10:26:24.999Z</time></trkpt><trkpt lat="44.64310219415613" lon="8.348472371178962"><ele>185.0</ele><time>2026-05-03T10:26:25.999Z</time></trkpt><trkpt lat="44.643100646795" lon="8.348223600701036"><ele>185.0</ele><time>2026-05-03T10:26:26.999Z</time></trkpt><trkpt lat="44.64309997524437" lon="8.347957925915779"><ele>185.0</ele><time>2026-05-03T10:26:27.999Z</time></trkpt><trkpt lat="44.64310026272424" lon="8.347674428701046"><ele>185.33333333333331</ele><time>2026-05-03T10:26:28.999Z</time></trkpt><trkpt lat="44.64311813675988" lon="8.347369447336503"><ele>185.66666666666666</ele><time>2026-05-03T10:26:29.999Z</time></trkpt><trkpt lat="44.64312476677864" lon="8.347058407662189"><ele>186.0</ele><time>2026-05-03T10:26:30.999Z</time></trkpt><trkpt lat="44.64311627083301" lon="8.34674035398904"><ele>185.0</ele><time>2026-05-03T10:26:31.999Z</time></trkpt><trkpt lat="44.64313995677781" lon="8.346433057349731"><ele>184.0</ele><time>2026-05-03T10:26:32.999Z</time></trkpt><trkpt lat="44.64316087676214" lon="8.346134359529863"><ele>183.0</ele><time>2026-05-03T10:26:33.999Z</time></trkpt><trkpt lat="44.64317118778244" lon="8.345829926426381"><ele>183.0</ele><time>2026-05-03T10:26:34.999Z</time></trkpt><trkpt lat="44.64316872006471" lon="8.345524652203972"><ele>183.0</ele><time>2026-05-03T10:26:35.999Z</time></trkpt><trkpt lat="44.64317336565179" lon="8.345239492511833"><ele>183.0</ele><time>2026-05-03T10:26:36.999Z</time></trkpt><trkpt lat="44.643177474989685" lon="8.344952947897715"><ele>183.0</ele><time>2026-05-03T10:26:37.999Z</time></trkpt><trkpt lat="44.64319361811246" lon="8.344672573928763"><ele>183.0</ele><time>2026-05-03T10:26:38.999Z</time></trkpt><trkpt lat="44.64320309261398" lon="8.344390471409868"><ele>183.0</ele><time>2026-05-03T10:26:39.999Z</time></trkpt><trkpt lat="44.643201506085624" lon="8.344095020688727"><ele>183.33333333333334</ele><time>2026-05-03T10:26:40.999Z</time></trkpt><trkpt lat="44.64321014229046" lon="8.34380096011137"><ele>183.66666666666669</ele><time>2026-05-03T10:26:41.999Z</time></trkpt><trkpt lat="44.64323033400615" lon="8.343508573524415"><ele>184.0</ele><time>2026-05-03T10:26:42.999Z</time></trkpt><trkpt lat="44.64325415958391" lon="8.34323507978762"><ele>183.66666666666669</ele><time>2026-05-03T10:26:43.999Z</time></trkpt><trkpt lat="44.643273910406705" lon="8.342947163380623"><ele>183.33333333333334</ele><time>2026-05-03T10:26:44.999Z</time></trkpt><trkpt lat="44.6432940919558" lon="8.342666424496318"><ele>183.0</ele><time>2026-05-03T10:26:46Z</time></trkpt><trkpt lat="44.643319629490286" lon="8.342386854663632"><ele>183.0</ele><time>2026-05-03T10:26:47Z</time></trkpt><trkpt lat="44.64334738115682" lon="8.34212574108158"><ele>183.0</ele><time>2026-05-03T10:26:48Z</time></trkpt><trkpt lat="44.64336069594203" lon="8.3418787022032"><ele>183.0</ele><time>2026-05-03T10:26:49Z</time></trkpt><trkpt lat="44.643364022118575" lon="8.341644055488551"><ele>183.0</ele><time>2026-05-03T10:26:50Z</time></trkpt><trkpt lat="44.64335023476528" lon="8.341421697214626"><ele>183.0</ele><time>2026-05-03T10:26:51Z</time></trkpt><trkpt lat="44.643321855505626" lon="8.341206744664303"><ele>183.0</ele><time>2026-05-03T10:26:52Z</time></trkpt><trkpt lat="44.64329564760238" lon="8.340993495399491"><ele>183.25</ele><time>2026-05-03T10:26:53Z</time></trkpt><trkpt lat="44.64326471912347" lon="8.34079935887594"><ele>183.5</ele><time>2026-05-03T10:26:54Z</time></trkpt><trkpt lat="44.64323630673587" lon="8.3406143947797"><ele>183.75</ele><time>2026-05-03T10:26:55Z</time></trkpt><trkpt lat="44.64321302904325" lon="8.340436917463807"><ele>184.0</ele><time>2026-05-03T10:26:56Z</time></trkpt><trkpt lat="44.64318784114169" lon="8.340264316631078"><ele>184.0</ele><time>2026-05-03T10:26:57Z</time></trkpt><trkpt lat="44.643162729607816" lon="8.340088608453247"><ele>184.0</ele><time>2026-05-03T10:26:58Z</time></trkpt><trkpt lat="44.64314268750223" lon="8.339909848180977"><ele>184.0</ele><time>2026-05-03T10:26:59Z</time></trkpt><trkpt lat="44.64312884915311" lon="8.33972975977211"><ele>184.0</ele><time>2026-05-03T10:27:00Z</time></trkpt><trkpt lat="44.64312099730845" lon="8.339535615667057"><ele>184.0</ele><time>2026-05-03T10:27:01Z</time></trkpt><trkpt lat="44.64315678300953" lon="8.33933555387792"><ele>184.0</ele><time>2026-05-03T10:27:02Z</time></trkpt><trkpt lat="44.643189904542005" lon="8.339129548709332"><ele>184.0</ele><time>2026-05-03T10:27:03Z</time></trkpt><trkpt lat="44.64325136683568" lon="8.338918536278923"><ele>183.0</ele><time>2026-05-03T10:27:04Z</time></trkpt><trkpt lat="44.643304716943284" lon="8.338695537115257"><ele>182.0</ele><time>2026-05-03T10:27:05Z</time></trkpt><trkpt lat="44.64334733080505" lon="8.33845763351561"><ele>181.0</ele><time>2026-05-03T10:27:06Z</time></trkpt><trkpt lat="44.6433993626183" lon="8.338220512184689"><ele>181.33333333333334</ele><time>2026-05-03T10:27:07Z</time></trkpt><trkpt lat="44.64343143197957" lon="8.337975235299542"><ele>181.66666666666666</ele><time>2026-05-03T10:27:08Z</time></trkpt><trkpt lat="44.64344227875256" lon="8.337732090544751"><ele>182.0</ele><time>2026-05-03T10:27:09Z</time></trkpt><trkpt lat="44.64346362578008" lon="8.337498183824636"><ele>182.0</ele><time>2026-05-03T10:27:10Z</time></trkpt><trkpt lat="44.643481909325274" lon="8.337269233618505"><ele>182.0</ele><time>2026-05-03T10:27:11Z</time></trkpt><trkpt lat="44.64349336192303" lon="8.337033371354957"><ele>182.0</ele><time>2026-05-03T10:27:12Z</time></trkpt><trkpt lat="44.643505822642204" lon="8.336796961922632"><ele>183.33333333333331</ele><time>2026-05-03T10:27:13Z</time></trkpt><trkpt lat="44.64351888975424" lon="8.336565864735404"><ele>184.66666666666666</ele><time>2026-05-03T10:27:14Z</time></trkpt><trkpt lat="44.64354398162976" lon="8.336334054323688"><ele>186.0</ele><time>2026-05-03T10:27:15Z</time></trkpt><trkpt lat="44.64353855920796" lon="8.336106865473408"><ele>186.33333333333334</ele><time>2026-05-03T10:27:16Z</time></trkpt><trkpt lat="44.6435516150122" lon="8.335892316606758"><ele>186.66666666666669</ele><time>2026-05-03T10:27:17Z</time></trkpt><trkpt lat="44.643563957329654" lon="8.335684672908961"><ele>187.0</ele><time>2026-05-03T10:27:18Z</time></trkpt><trkpt lat="44.643577833602066" lon="8.335475642650625"><ele>188.33333333333334</ele><time>2026-05-03T10:27:19Z</time></trkpt><trkpt lat="44.64358636935985" lon="8.33526243294133"><ele>189.66666666666666</ele><time>2026-05-03T10:27:20Z</time></trkpt><trkpt lat="44.64359933834677" lon="8.335052783570223"><ele>191.0</ele><time>2026-05-03T10:27:21Z</time></trkpt><trkpt lat="44.64360876109573" lon="8.334841993997985"><ele>190.75</ele><time>2026-05-03T10:27:22Z</time></trkpt><trkpt lat="44.64361953516142" lon="8.33462850778359"><ele>190.5</ele><time>2026-05-03T10:27:23Z</time></trkpt><trkpt lat="44.64363167807181" lon="8.334412972094706"><ele>190.25</ele><time>2026-05-03T10:27:24Z</time></trkpt><trkpt lat="44.643628308811756" lon="8.334214194106115"><ele>190.0</ele><time>2026-05-03T10:27:25Z</time></trkpt><trkpt lat="44.643640950177904" lon="8.334032008082664"><ele>187.8</ele><time>2026-05-03T10:27:26Z</time></trkpt><trkpt lat="44.6436532337944" lon="8.333860095277508"><ele>185.6</ele><time>2026-05-03T10:27:27Z</time></trkpt><trkpt lat="44.64366111039337" lon="8.333706495745766"><ele>183.39999999999998</ele><time>2026-05-03T10:27:28Z</time></trkpt><trkpt lat="44.64368285542223" lon="8.33358115937867"><ele>181.2</ele><time>2026-05-03T10:27:29Z</time></trkpt><trkpt lat="44.64372614999397" lon="8.333481284666686"><ele>179.0</ele><time>2026-05-03T10:27:30Z</time></trkpt><trkpt lat="44.6437916234419" lon="8.333411423799593"><ele>179.0</ele><time>2026-05-03T10:27:31Z</time></trkpt><trkpt lat="44.64386870640295" lon="8.333377549240549"><ele>179.0</ele><time>2026-05-03T10:27:32Z</time></trkpt><trkpt lat="44.64394944255425" lon="8.333346055490109"><ele>179.0</ele><time>2026-05-03T10:27:33Z</time></trkpt><trkpt lat="44.644047251768264" lon="8.333443657145091"><ele>179.0</ele><time>2026-05-03T10:27:34Z</time></trkpt><trkpt lat="44.644128286011075" lon="8.333536004126925"><ele>179.0</ele><time>2026-05-03T10:27:35Z</time></trkpt><trkpt lat="44.6442107651656" lon="8.333625970533818"><ele>179.0</ele><time>2026-05-03T10:27:36Z</time></trkpt><trkpt lat="44.64430966105194" lon="8.333687580660326"><ele>179.0</ele><time>2026-05-03T10:27:37Z</time></trkpt><trkpt lat="44.64441974872446" lon="8.33372936742514"><ele>179.0</ele><time>2026-05-03T10:27:38Z</time></trkpt><trkpt lat="44.64453744417059" lon="8.33376121736111"><ele>179.0</ele><time>2026-05-03T10:27:39Z</time></trkpt><trkpt lat="44.64466039289089" lon="8.333763989532345"><ele>177.5</ele><time>2026-05-03T10:27:40Z</time></trkpt><trkpt lat="44.64478385071818" lon="8.333757747385237"><ele>176.0</ele><time>2026-05-03T10:27:41Z</time></trkpt><trkpt lat="44.644920261779056" lon="8.333772568199015"><ele>174.5</ele><time>2026-05-03T10:27:42Z</time></trkpt><trkpt lat="44.645060800520405" lon="8.333765520713625"><ele>173.0</ele><time>2026-05-03T10:27:43Z</time></trkpt><trkpt lat="44.64520712339771" lon="8.333758879307267"><ele>174.0</ele><time>2026-05-03T10:27:44Z</time></trkpt><trkpt lat="44.645381805149626" lon="8.333750769594516"><ele>175.0</ele><time>2026-05-03T10:27:45Z</time></trkpt><trkpt lat="44.645576702371514" lon="8.333741719477397"><ele>176.0</ele><time>2026-05-03T10:27:46Z</time></trkpt><trkpt lat="44.64577423010485" lon="8.333732547208731"><ele>176.0</ele><time>2026-05-03T10:27:47Z</time></trkpt><trkpt lat="44.64597314946149" lon="8.333708949682492"><ele>176.0</ele><time>2026-05-03T10:27:48Z</time></trkpt><trkpt lat="44.64618616353529" lon="8.3337101275243"><ele>176.0</ele><time>2026-05-03T10:27:49Z</time></trkpt><trkpt lat="44.646398291520995" lon="8.333698437773082"><ele>176.33333333333331</ele><time>2026-05-03T10:27:50Z</time></trkpt><trkpt lat="44.646622393084826" lon="8.333691043405414"><ele>176.66666666666666</ele><time>2026-05-03T10:27:51Z</time></trkpt><trkpt lat="44.64683522473283" lon="8.333686978622215"><ele>177.0</ele><time>2026-05-03T10:27:52Z</time></trkpt><trkpt lat="44.64703308700844" lon="8.33367204134039"><ele>178.33333333333334</ele><time>2026-05-03T10:27:53Z</time></trkpt><trkpt lat="44.64722649328481" lon="8.33366268570318"><ele>179.66666666666669</ele><time>2026-05-03T10:27:54Z</time></trkpt><trkpt lat="44.64741291330458" lon="8.333647686804651"><ele>181.0</ele><time>2026-05-03T10:27:55Z</time></trkpt><trkpt lat="44.647579455609176" lon="8.33363286089774"><ele>181.0</ele><time>2026-05-03T10:27:56Z</time></trkpt><trkpt lat="44.647737582409064" lon="8.333619017779546"><ele>181.0</ele><time>2026-05-03T10:27:57Z</time></trkpt><trkpt lat="44.64788498491105" lon="8.333616688861714"><ele>181.0</ele><time>2026-05-03T10:27:58Z</time></trkpt><trkpt lat="44.64801738097771" lon="8.333617853341325"><ele>181.0</ele><time>2026-05-03T10:27:59Z</time></trkpt><trkpt lat="44.64812660185951" lon="8.333619801629023"><ele>182.60000000000002</ele><time>2026-05-03T10:28:00Z</time></trkpt><trkpt lat="44.648196603793615" lon="8.333612717815042"><ele>184.2</ele><time>2026-05-03T10:28:01Z</time></trkpt><trkpt lat="44.648258258086784" lon="8.333574240061258"><ele>185.8</ele><time>2026-05-03T10:28:03Z</time></trkpt><trkpt lat="44.64833282485074" lon="8.33345262296473"><ele>187.39999999999998</ele><time>2026-05-03T10:28:06Z</time></trkpt><trkpt lat="44.64832534193888" lon="8.333314014054576"><ele>189.0</ele><time>2026-05-03T10:28:07Z</time></trkpt><trkpt lat="44.64830367538094" lon="8.333171741776203"><ele>189.5</ele><time>2026-05-03T10:28:08Z</time></trkpt><trkpt lat="44.64829153421582" lon="8.332998052221923"><ele>190.0</ele><time>2026-05-03T10:28:09Z</time></trkpt><trkpt lat="44.64828246114286" lon="8.332811170845487"><ele>190.5</ele><time>2026-05-03T10:28:10Z</time></trkpt><trkpt lat="44.648261041312104" lon="8.332600258363016"><ele>191.0</ele><time>2026-05-03T10:28:11Z</time></trkpt><trkpt lat="44.64824556879555" lon="8.332384041829833"><ele>190.66666666666666</ele><time>2026-05-03T10:28:12Z</time></trkpt><trkpt lat="44.648250917329044" lon="8.332158887830165"><ele>190.33333333333334</ele><time>2026-05-03T10:28:13Z</time></trkpt><trkpt lat="44.64825732268989" lon="8.331926112660758"><ele>190.0</ele><time>2026-05-03T10:28:14Z</time></trkpt><trkpt lat="44.64827403076439" lon="8.331696650657246"><ele>190.0</ele><time>2026-05-03T10:28:15Z</time></trkpt><trkpt lat="44.648288282527496" lon="8.331472610464099"><ele>190.0</ele><time>2026-05-03T10:28:15.999Z</time></trkpt><trkpt lat="44.6483028902176" lon="8.331243731982735"><ele>190.0</ele><time>2026-05-03T10:28:16.999Z</time></trkpt><trkpt lat="44.64831756159771" lon="8.331011511325823"><ele>190.0</ele><time>2026-05-03T10:28:17.999Z</time></trkpt><trkpt lat="44.64832988427351" lon="8.330784347980378"><ele>190.0</ele><time>2026-05-03T10:28:18.999Z</time></trkpt><trkpt lat="44.64834040453738" lon="8.330568769787364"><ele>190.0</ele><time>2026-05-03T10:28:19.999Z</time></trkpt><trkpt lat="44.64834310008173" lon="8.330372803207284"><ele>190.0</ele><time>2026-05-03T10:28:20.999Z</time></trkpt><trkpt lat="44.648353534884556" lon="8.330187230029752"><ele>190.0</ele><time>2026-05-03T10:28:21.999Z</time></trkpt><trkpt lat="44.64835613456309" lon="8.330010528720662"><ele>190.0</ele><time>2026-05-03T10:28:22.999Z</time></trkpt><trkpt lat="44.64836508062852" lon="8.329837822946805"><ele>190.0</ele><time>2026-05-03T10:28:23.999Z</time></trkpt><trkpt lat="44.64837376803702" lon="8.329668154003343"><ele>189.5</ele><time>2026-05-03T10:28:24.999Z</time></trkpt><trkpt lat="44.64837840851774" lon="8.329491451887407"><ele>189.0</ele><time>2026-05-03T10:28:25.999Z</time></trkpt><trkpt lat="44.64838758243056" lon="8.329325951169736"><ele>188.5</ele><time>2026-05-03T10:28:26.999Z</time></trkpt><trkpt lat="44.64838917171304" lon="8.329163960094908"><ele>188.0</ele><time>2026-05-03T10:28:27.999Z</time></trkpt><trkpt lat="44.64842208400092" lon="8.329020816968802"><ele>188.5</ele><time>2026-05-03T10:28:28.999Z</time></trkpt><trkpt lat="44.648432746655025" lon="8.328844550342605"><ele>189.0</ele><time>2026-05-03T10:28:29.999Z</time></trkpt><trkpt lat="44.64844387424618" lon="8.32866146636343"><ele>189.5</ele><time>2026-05-03T10:28:30.999Z</time></trkpt><trkpt lat="44.64845293015554" lon="8.328489656595174"><ele>190.0</ele><time>2026-05-03T10:28:31.999Z</time></trkpt><trkpt lat="44.64845382797926" lon="8.32831002152747"><ele>190.0</ele><time>2026-05-03T10:28:32.999Z</time></trkpt><trkpt lat="44.64843568098919" lon="8.328126732861522"><ele>190.0</ele><time>2026-05-03T10:28:33.999Z</time></trkpt><trkpt lat="44.64841194836503" lon="8.327962103158242"><ele>190.0</ele><time>2026-05-03T10:28:34.999Z</time></trkpt><trkpt lat="44.64837237706948" lon="8.327808525818702"><ele>190.0</ele><time>2026-05-03T10:28:35.999Z</time></trkpt><trkpt lat="44.648338407993705" lon="8.327646669162197"><ele>190.2</ele><time>2026-05-03T10:28:36.999Z</time></trkpt><trkpt lat="44.64830487239471" lon="8.327488607804213"><ele>190.4</ele><time>2026-05-03T10:28:37.999Z</time></trkpt><trkpt lat="44.64827069388689" lon="8.327338876747733"><ele>190.60000000000002</ele><time>2026-05-03T10:28:38.999Z</time></trkpt><trkpt lat="44.648240812665954" lon="8.32719616986378"><ele>190.8</ele><time>2026-05-03T10:28:39.999Z</time></trkpt><trkpt lat="44.648201718226545" lon="8.327049082685688"><ele>191.0</ele><time>2026-05-03T10:28:40.999Z</time></trkpt><trkpt lat="44.64818535461442" lon="8.32689831771049"><ele>191.66666666666666</ele><time>2026-05-03T10:28:41.999Z</time></trkpt><trkpt lat="44.648166346994465" lon="8.326764874756595"><ele>192.33333333333331</ele><time>2026-05-03T10:28:42.999Z</time></trkpt><trkpt lat="44.64815457836206" lon="8.32662748207737"><ele>193.0</ele><time>2026-05-03T10:28:43.999Z</time></trkpt><trkpt lat="44.64814386758182" lon="8.326505261969348"><ele>193.66666666666666</ele><time>2026-05-03T10:28:44.999Z</time></trkpt><trkpt lat="44.64813605147912" lon="8.326383983546764"><ele>194.33333333333334</ele><time>2026-05-03T10:28:45.999Z</time></trkpt><trkpt lat="44.648138125124646" lon="8.32627762007054"><ele>195.0</ele><time>2026-05-03T10:28:46.999Z</time></trkpt><trkpt lat="44.64815700023522" lon="8.326178724947617"><ele>195.33333333333334</ele><time>2026-05-03T10:28:47.999Z</time></trkpt><trkpt lat="44.64820516298918" lon="8.326101731369619"><ele>195.66666666666669</ele><time>2026-05-03T10:28:48.999Z</time></trkpt><trkpt lat="44.648262948694935" lon="8.326036921461496"><ele>196.0</ele><time>2026-05-03T10:28:49.999Z</time></trkpt><trkpt lat="44.648325054142234" lon="8.32597939605117"><ele>196.33333333333334</ele><time>2026-05-03T10:28:50.999Z</time></trkpt><trkpt lat="44.64837855401227" lon="8.325922703270804"><ele>196.66666666666669</ele><time>2026-05-03T10:28:52Z</time></trkpt><trkpt lat="44.648429737452936" lon="8.32583318170611"><ele>197.0</ele><time>2026-05-03T10:28:53Z</time></trkpt><trkpt lat="44.64847254193666" lon="8.32570610625045"><ele>197.00000000000003</ele><time>2026-05-03T10:28:54Z</time></trkpt><trkpt lat="44.64851528182055" lon="8.325599679130658"><ele>197.0</ele><time>2026-05-03T10:28:55Z</time></trkpt><trkpt lat="44.648561456389324" lon="8.32550784814138"><ele>197.0</ele><time>2026-05-03T10:28:56Z</time></trkpt><trkpt lat="44.64863285899734" lon="8.325442141218828"><ele>197.0</ele><time>2026-05-03T10:28:57Z</time></trkpt><trkpt lat="44.64868522287822" lon="8.325338585349257"><ele>197.00000000000003</ele><time>2026-05-03T10:28:58Z</time></trkpt><trkpt lat="44.64874150745261" lon="8.325230583611145"><ele>197.0</ele><time>2026-05-03T10:28:59Z</time></trkpt><trkpt lat="44.64879891822967" lon="8.325122080498232"><ele>197.39999999999998</ele><time>2026-05-03T10:29:00Z</time></trkpt><trkpt lat="44.64885652313791" lon="8.325013210517794"><ele>197.79999999999998</ele><time>2026-05-03T10:29:01Z</time></trkpt><trkpt lat="44.64889821995164" lon="8.324895842356403"><ele>198.2</ele><time>2026-05-03T10:29:02Z</time></trkpt><trkpt lat="44.648954200215464" lon="8.324792467472976"><ele>198.6</ele><time>2026-05-03T10:29:03Z</time></trkpt><trkpt lat="44.64902392271989" lon="8.32469524154417"><ele>199.0</ele><time>2026-05-03T10:29:04Z</time></trkpt><trkpt lat="44.64907673145658" lon="8.324598813447553"><ele>197.99999999999997</ele><time>2026-05-03T10:29:05Z</time></trkpt><trkpt lat="44.64913024512913" lon="8.324503402999156"><ele>197.0</ele><time>2026-05-03T10:29:06Z</time></trkpt><trkpt lat="44.649186618488834" lon="8.324418476694182"><ele>196.0</ele><time>2026-05-03T10:29:07Z</time></trkpt><trkpt lat="44.64923876564665" lon="8.324316685786718"><ele>195.0</ele><time>2026-05-03T10:29:08Z</time></trkpt><trkpt lat="44.64929756784105" lon="8.32423523999407"><ele>193.99999999999997</ele><time>2026-05-03T10:29:09Z</time></trkpt><trkpt lat="44.64935353544916" lon="8.324130985151344"><ele>193.0</ele><time>2026-05-03T10:29:10Z</time></trkpt><trkpt lat="44.649408002379054" lon="8.324029886660268"><ele>193.60000000000002</ele><time>2026-05-03T10:29:11Z</time></trkpt><trkpt lat="44.649465625781346" lon="8.323914253443093"><ele>194.20000000000002</ele><time>2026-05-03T10:29:12Z</time></trkpt><trkpt lat="44.649524533839426" lon="8.323777990314309"><ele>194.8</ele><time>2026-05-03T10:29:13Z</time></trkpt><trkpt lat="44.64958009847959" lon="8.323653287892098"><ele>195.4</ele><time>2026-05-03T10:29:14Z</time></trkpt><trkpt lat="44.64964433027866" lon="8.323519397704192"><ele>196.0</ele><time>2026-05-03T10:29:15Z</time></trkpt><trkpt lat="44.649719806512444" lon="8.323379408348503"><ele>196.0</ele><time>2026-05-03T10:29:16Z</time></trkpt><trkpt lat="44.64979930319685" lon="8.323234227368424"><ele>196.0</ele><time>2026-05-03T10:29:17Z</time></trkpt><trkpt lat="44.64987595503586" lon="8.323100927485028"><ele>196.0</ele><time>2026-05-03T10:29:18Z</time></trkpt><trkpt lat="44.64995006166029" lon="8.32295415030775"><ele>196.0</ele><time>2026-05-03T10:29:19Z</time></trkpt><trkpt lat="44.65002827742383" lon="8.322798017443052"><ele>197.25</ele><time>2026-05-03T10:29:20Z</time></trkpt><trkpt lat="44.650108123859894" lon="8.322640914944719"><ele>198.5</ele><time>2026-05-03T10:29:21Z</time></trkpt><trkpt lat="44.65018865472298" lon="8.32249048617008"><ele>199.75</ele><time>2026-05-03T10:29:22Z</time></trkpt><trkpt lat="44.65026576887838" lon="8.322333344844035"><ele>201.0</ele><time>2026-05-03T10:29:23Z</time></trkpt><trkpt lat="44.650337126126566" lon="8.322171532723978"><ele>201.0</ele><time>2026-05-03T10:29:24Z</time></trkpt><trkpt lat="44.65040372857076" lon="8.322001252858184"><ele>201.0</ele><time>2026-05-03T10:29:25Z</time></trkpt><trkpt lat="44.65046240446654" lon="8.321827938333945"><ele>201.0</ele><time>2026-05-03T10:29:26Z</time></trkpt><trkpt lat="44.6505246014792" lon="8.321660942796136"><ele>201.0</ele><time>2026-05-03T10:29:27Z</time></trkpt><trkpt lat="44.65059609959853" lon="8.32148446855994"><ele>197.66666666666666</ele><time>2026-05-03T10:29:28Z</time></trkpt><trkpt lat="44.6506781499527" lon="8.321293290388521"><ele>194.33333333333331</ele><time>2026-05-03T10:29:29Z</time></trkpt><trkpt lat="44.650758353684" lon="8.32110318263263"><ele>191.0</ele><time>2026-05-03T10:29:30Z</time></trkpt><trkpt lat="44.65084569234435" lon="8.320904853053541"><ele>191.0</ele><time>2026-05-03T10:29:31Z</time></trkpt><trkpt lat="44.65092922904311" lon="8.320694482788435"><ele>191.0</ele><time>2026-05-03T10:29:32Z</time></trkpt><trkpt lat="44.65101754131307" lon="8.320503018564287"><ele>191.0</ele><time>2026-05-03T10:29:33Z</time></trkpt><trkpt lat="44.65111988835839" lon="8.320318839243908"><ele>192.0</ele><time>2026-05-03T10:29:34Z</time></trkpt><trkpt lat="44.651221973099325" lon="8.320121055789274"><ele>193.0</ele><time>2026-05-03T10:29:35Z</time></trkpt><trkpt lat="44.6513236366093" lon="8.319902939913304"><ele>194.0</ele><time>2026-05-03T10:29:36Z</time></trkpt><trkpt lat="44.65141165901243" lon="8.319660931234504"><ele>194.0</ele><time>2026-05-03T10:29:37Z</time></trkpt><trkpt lat="44.651527931864116" lon="8.31943666277948"><ele>194.0</ele><time>2026-05-03T10:29:38Z</time></trkpt><trkpt lat="44.651651776604226" lon="8.319214449583669"><ele>194.0</ele><time>2026-05-03T10:29:39Z</time></trkpt><trkpt lat="44.651757507580385" lon="8.318990984502607"><ele>192.0</ele><time>2026-05-03T10:29:40Z</time></trkpt><trkpt lat="44.65186259399938" lon="8.318776281907228"><ele>190.0</ele><time>2026-05-03T10:29:41Z</time></trkpt><trkpt lat="44.651960643533094" lon="8.3185427439809"><ele>188.0</ele><time>2026-05-03T10:29:42Z</time></trkpt><trkpt lat="44.652050106790206" lon="8.318328639747612"><ele>192.66666666666666</ele><time>2026-05-03T10:29:43Z</time></trkpt><trkpt lat="44.65212940254107" lon="8.318119655703134"><ele>197.33333333333331</ele><time>2026-05-03T10:29:44Z</time></trkpt><trkpt lat="44.652200434914135" lon="8.317917124989817"><ele>202.0</ele><time>2026-05-03T10:29:45Z</time></trkpt><trkpt lat="44.652265739526136" lon="8.31771555042913"><ele>202.0</ele><time>2026-05-03T10:29:46Z</time></trkpt><trkpt lat="44.65232344625946" lon="8.317520581205816"><ele>202.0</ele><time>2026-05-03T10:29:47Z</time></trkpt><trkpt lat="44.6523703892666" lon="8.317317264483869"><ele>202.0</ele><time>2026-05-03T10:29:48Z</time></trkpt><trkpt lat="44.652419011922014" lon="8.317112165549613"><ele>200.0</ele><time>2026-05-03T10:29:49Z</time></trkpt><trkpt lat="44.65246901125163" lon="8.316922567790334"><ele>198.0</ele><time>2026-05-03T10:29:50Z</time></trkpt><trkpt lat="44.65252836311504" lon="8.316714800136882"><ele>196.0</ele><time>2026-05-03T10:29:51Z</time></trkpt><trkpt lat="44.65258395903641" lon="8.316512255612224"><ele>195.66666666666666</ele><time>2026-05-03T10:29:52Z</time></trkpt><trkpt lat="44.65262961306385" lon="8.316303716278439"><ele>195.33333333333331</ele><time>2026-05-03T10:29:53Z</time></trkpt><trkpt lat="44.65267973576004" lon="8.316090836938152"><ele>195.0</ele><time>2026-05-03T10:29:54Z</time></trkpt><trkpt lat="44.652730718610066" lon="8.315879711997118"><ele>195.0</ele><time>2026-05-03T10:29:55Z</time></trkpt><trkpt lat="44.65277823365668" lon="8.315635103316811"><ele>195.0</ele><time>2026-05-03T10:29:56Z</time></trkpt><trkpt lat="44.65282992468018" lon="8.31540876211176"><ele>195.0</ele><time>2026-05-03T10:29:57Z</time></trkpt><trkpt lat="44.65287394446998" lon="8.315199231856521"><ele>196.0</ele><time>2026-05-03T10:29:58Z</time></trkpt><trkpt lat="44.65292405027342" lon="8.315009400215"><ele>197.0</ele><time>2026-05-03T10:29:59Z</time></trkpt><trkpt lat="44.65297433560668" lon="8.314818811993135"><ele>198.0</ele><time>2026-05-03T10:30:00Z</time></trkpt><trkpt lat="44.65303844039439" lon="8.314630260987952"><ele>199.0</ele><time>2026-05-03T10:30:01Z</time></trkpt><trkpt lat="44.65311274934654" lon="8.314472282674425"><ele>199.0</ele><time>2026-05-03T10:30:02Z</time></trkpt><trkpt lat="44.653195880505635" lon="8.314316002455293"><ele>199.0</ele><time>2026-05-03T10:30:03Z</time></trkpt><trkpt lat="44.653295252726004" lon="8.314174252767192"><ele>199.0</ele><time>2026-05-03T10:30:04Z</time></trkpt><trkpt lat="44.65340180371929" lon="8.314033253781416"><ele>199.0</ele><time>2026-05-03T10:30:05Z</time></trkpt><trkpt lat="44.65352650652235" lon="8.313875775008"><ele>197.66666666666666</ele><time>2026-05-03T10:30:06Z</time></trkpt><trkpt lat="44.65368875587294" lon="8.313725672801386"><ele>196.33333333333331</ele><time>2026-05-03T10:30:06.999Z</time></trkpt><trkpt lat="44.6538505992111" lon="8.313545500420553"><ele>195.0</ele><time>2026-05-03T10:30:07.999Z</time></trkpt><trkpt lat="44.654006102289564" lon="8.313358167038063"><ele>195.0</ele><time>2026-05-03T10:30:08.999Z</time></trkpt><trkpt lat="44.654164635955766" lon="8.313158329631255"><ele>195.0</ele><time>2026-05-03T10:30:09.999Z</time></trkpt><trkpt lat="44.65433129884003" lon="8.312949157571458"><ele>195.0</ele><time>2026-05-03T10:30:10.999Z</time></trkpt><trkpt lat="44.65449824890144" lon="8.312757286504498"><ele>194.33333333333331</ele><time>2026-05-03T10:30:11.999Z</time></trkpt><trkpt lat="44.654666596757885" lon="8.312571202261227"><ele>193.66666666666666</ele><time>2026-05-03T10:30:12.999Z</time></trkpt><trkpt lat="44.65483469930701" lon="8.312375593057979"><ele>193.0</ele><time>2026-05-03T10:30:13.999Z</time></trkpt><trkpt lat="44.654996469757315" lon="8.312180246227614"><ele>193.0</ele><time>2026-05-03T10:30:14.999Z</time></trkpt><trkpt lat="44.65516522307659" lon="8.311977637190305"><ele>193.0</ele><time>2026-05-03T10:30:15.999Z</time></trkpt><trkpt lat="44.6553351367616" lon="8.311788985337365"><ele>193.0</ele><time>2026-05-03T10:30:16.999Z</time></trkpt><trkpt lat="44.65550904809241" lon="8.311586572962486"><ele>193.0</ele><time>2026-05-03T10:30:17.999Z</time></trkpt><trkpt lat="44.65568991156467" lon="8.311380185882387"><ele>193.0</ele><time>2026-05-03T10:30:18.999Z</time></trkpt><trkpt lat="44.65585179015561" lon="8.311167629443425"><ele>193.0</ele><time>2026-05-03T10:30:19.999Z</time></trkpt><trkpt lat="44.65602807319451" lon="8.310946896859612"><ele>193.0</ele><time>2026-05-03T10:30:20.999Z</time></trkpt><trkpt lat="44.656205245607076" lon="8.310744826703356"><ele>193.0</ele><time>2026-05-03T10:30:21.999Z</time></trkpt><trkpt lat="44.65635737233214" lon="8.310515421112461"><ele>193.0</ele><time>2026-05-03T10:30:22.999Z</time></trkpt><trkpt lat="44.65654138226256" lon="8.310298827884917"><ele>193.0</ele><time>2026-05-03T10:30:23.999Z</time></trkpt><trkpt lat="44.65669327030845" lon="8.310048801909327"><ele>193.0</ele><time>2026-05-03T10:30:24.999Z</time></trkpt><trkpt lat="44.65684877388771" lon="8.309816085827842"><ele>192.66666666666666</ele><time>2026-05-03T10:30:25.999Z</time></trkpt><trkpt lat="44.65700261223479" lon="8.30958763138004"><ele>192.33333333333331</ele><time>2026-05-03T10:30:26.999Z</time></trkpt><trkpt lat="44.65714456102446" lon="8.309370801766617"><ele>192.0</ele><time>2026-05-03T10:30:27.999Z</time></trkpt><trkpt lat="44.65728561199105" lon="8.3091481680013"><ele>192.0</ele><time>2026-05-03T10:30:28.999Z</time></trkpt><trkpt lat="44.65742642105782" lon="8.308943627348578"><ele>192.0</ele><time>2026-05-03T10:30:29.999Z</time></trkpt><trkpt lat="44.65756287687737" lon="8.308744778488633"><ele>192.0</ele><time>2026-05-03T10:30:30.999Z</time></trkpt><trkpt lat="44.65769375950135" lon="8.308540707415933"><ele>192.33333333333331</ele><time>2026-05-03T10:30:31.999Z</time></trkpt><trkpt lat="44.65782601380643" lon="8.308352353599206"><ele>192.66666666666666</ele><time>2026-05-03T10:30:32.999Z</time></trkpt><trkpt lat="44.65794831408003" lon="8.308153455472555"><ele>193.0</ele><time>2026-05-03T10:30:33.999Z</time></trkpt><trkpt lat="44.65807287315149" lon="8.307949926642404"><ele>192.33333333333331</ele><time>2026-05-03T10:30:34.999Z</time></trkpt><trkpt lat="44.65819994341806" lon="8.30775455441134"><ele>191.66666666666666</ele><time>2026-05-03T10:30:35.999Z</time></trkpt><trkpt lat="44.658317175254496" lon="8.307570543533066"><ele>191.0</ele><time>2026-05-03T10:30:36.999Z</time></trkpt><trkpt lat="44.65843460548037" lon="8.307383634300216"><ele>190.33333333333331</ele><time>2026-05-03T10:30:37.999Z</time></trkpt><trkpt lat="44.658547115453636" lon="8.307216415456399"><ele>189.66666666666666</ele><time>2026-05-03T10:30:38.999Z</time></trkpt><trkpt lat="44.65865178829518" lon="8.307042205051477"><ele>189.0</ele><time>2026-05-03T10:30:39.999Z</time></trkpt><trkpt lat="44.65875868772744" lon="8.306889814077637"><ele>189.0</ele><time>2026-05-03T10:30:40.999Z</time></trkpt><trkpt lat="44.65887192230494" lon="8.306733255867353"><ele>189.0</ele><time>2026-05-03T10:30:41.999Z</time></trkpt><trkpt lat="44.65899019584116" lon="8.306585796375199"><ele>189.0</ele><time>2026-05-03T10:30:42.999Z</time></trkpt><trkpt lat="44.659116457362735" lon="8.306450756692593"><ele>187.66666666666666</ele><time>2026-05-03T10:30:43.999Z</time></trkpt><trkpt lat="44.65924177967378" lon="8.306306495864241"><ele>186.33333333333331</ele><time>2026-05-03T10:30:44.999Z</time></trkpt><trkpt lat="44.65935706089029" lon="8.306135264360352"><ele>185.0</ele><time>2026-05-03T10:30:45.999Z</time></trkpt><trkpt lat="44.65946678161437" lon="8.30594910544081"><ele>185.0</ele><time>2026-05-03T10:30:46.999Z</time></trkpt><trkpt lat="44.65957212652586" lon="8.305741662534983"><ele>185.0</ele><time>2026-05-03T10:30:47.999Z</time></trkpt><trkpt lat="44.65967831679508" lon="8.305529218802551"><ele>185.0</ele><time>2026-05-03T10:30:48.999Z</time></trkpt><trkpt lat="44.659774723801405" lon="8.305319959989216"><ele>184.66666666666666</ele><time>2026-05-03T10:30:49.999Z</time></trkpt><trkpt lat="44.659887111774594" lon="8.305136282495178"><ele>184.33333333333334</ele><time>2026-05-03T10:30:50.999Z</time></trkpt><trkpt lat="44.659986746380156" lon="8.304937914242364"><ele>184.0</ele><time>2026-05-03T10:30:51.999Z</time></trkpt><trkpt lat="44.66004169484136" lon="8.304719489061823"><ele>183.66666666666669</ele><time>2026-05-03T10:30:52.999Z</time></trkpt><trkpt lat="44.66012347374282" lon="8.304521675819888"><ele>183.33333333333334</ele><time>2026-05-03T10:30:53.999Z</time></trkpt><trkpt lat="44.66020927038134" lon="8.30434118534565"><ele>183.0</ele><time>2026-05-03T10:30:54.999Z</time></trkpt><trkpt lat="44.66029485949315" lon="8.304152389258281"><ele>183.33333333333334</ele><time>2026-05-03T10:30:55.999Z</time></trkpt><trkpt lat="44.66037583591598" lon="8.30397603854538"><ele>183.66666666666669</ele><time>2026-05-03T10:30:56.999Z</time></trkpt><trkpt lat="44.66045851326706" lon="8.303792971922379"><ele>184.0</ele><time>2026-05-03T10:30:58Z</time></trkpt><trkpt lat="44.66053719426741" lon="8.303611100147668"><ele>184.0</ele><time>2026-05-03T10:30:59Z</time></trkpt><trkpt lat="44.66061977671654" lon="8.303430139162097"><ele>184.0</ele><time>2026-05-03T10:31:00Z</time></trkpt><trkpt lat="44.66070732390103" lon="8.303251176296246"><ele>184.0</ele><time>2026-05-03T10:31:01Z</time></trkpt><trkpt lat="44.66078224998242" lon="8.303065149097057"><ele>183.25</ele><time>2026-05-03T10:31:02Z</time></trkpt><trkpt lat="44.66086318657806" lon="8.302873904450854"><ele>182.5</ele><time>2026-05-03T10:31:03Z</time></trkpt><trkpt lat="44.660939080955934" lon="8.302699286409384"><ele>181.75</ele><time>2026-05-03T10:31:04Z</time></trkpt><trkpt lat="44.66101441176898" lon="8.30254058104262"><ele>181.0</ele><time>2026-05-03T10:31:05Z</time></trkpt><trkpt lat="44.66107009051416" lon="8.302411676278533"><ele>181.0</ele><time>2026-05-03T10:31:06Z</time></trkpt><trkpt lat="44.66110619634603" lon="8.302326293747427"><ele>181.0</ele><time>2026-05-03T10:31:07Z</time></trkpt><trkpt lat="44.66111040344513" lon="8.302229339905747"><ele>181.0</ele><time>2026-05-03T10:31:09Z</time></trkpt><trkpt lat="44.66104092133083" lon="8.302253874078916"><ele>181.0</ele><time>2026-05-03T10:31:13Z</time></trkpt><trkpt lat="44.661032541073205" lon="8.302374651673524"><ele>181.0</ele><time>2026-05-03T10:31:16Z</time></trkpt><trkpt lat="44.66098988630921" lon="8.302451871856741"><ele>181.0</ele><time>2026-05-03T10:31:19Z</time></trkpt><trkpt lat="44.66092205300712" lon="8.302478742826738"><ele>181.0</ele><time>2026-05-03T10:31:22Z</time></trkpt><trkpt lat="44.66093582561143" lon="8.302385058835624"><ele>181.0</ele><time>2026-05-03T10:31:30Z</time></trkpt><trkpt lat="44.66104426800807" lon="8.302288545769532"><ele>181.0</ele><time>2026-05-03T10:38:50.999Z</time></trkpt><trkpt lat="44.661077446037005" lon="8.3021761943285"><ele>181.0</ele><time>2026-05-03T10:38:51.999Z</time></trkpt><trkpt lat="44.66114120415437" lon="8.30210800536947"><ele>181.0</ele><time>2026-05-03T10:38:52.999Z</time></trkpt><trkpt lat="44.661197972617195" lon="8.302029696199044"><ele>181.0</ele><time>2026-05-03T10:38:53.999Z</time></trkpt><trkpt lat="44.66125359106525" lon="8.301942098999216"><ele>181.5</ele><time>2026-05-03T10:38:54.999Z</time></trkpt><trkpt lat="44.66133230565354" lon="8.301828576023928"><ele>182.0</ele><time>2026-05-03T10:38:55.999Z</time></trkpt><trkpt lat="44.661362472394366" lon="8.301656933452142"><ele>182.5</ele><time>2026-05-03T10:38:56.999Z</time></trkpt><trkpt lat="44.661421344601656" lon="8.301522979727775"><ele>183.0</ele><time>2026-05-03T10:38:57.999Z</time></trkpt><trkpt lat="44.66149177803968" lon="8.301366697999203"><ele>183.0</ele><time>2026-05-03T10:38:58.999Z</time></trkpt><trkpt lat="44.66154973342581" lon="8.30122284984254"><ele>183.0</ele><time>2026-05-03T10:38:59.999Z</time></trkpt><trkpt lat="44.661620970788405" lon="8.301074851464213"><ele>183.0</ele><time>2026-05-03T10:39:00.999Z</time></trkpt><trkpt lat="44.66168125945927" lon="8.300947912398165"><ele>183.0</ele><time>2026-05-03T10:39:01.999Z</time></trkpt><trkpt lat="44.66174222983668" lon="8.300815411858796"><ele>183.0</ele><time>2026-05-03T10:39:02.999Z</time></trkpt><trkpt lat="44.66182600645735" lon="8.300709658764346"><ele>183.0</ele><time>2026-05-03T10:39:03.999Z</time></trkpt><trkpt lat="44.66188702412831" lon="8.300571723865549"><ele>183.0</ele><time>2026-05-03T10:39:04.999Z</time></trkpt><trkpt lat="44.66194612650465" lon="8.300438202378794"><ele>183.0</ele><time>2026-05-03T10:39:05.999Z</time></trkpt><trkpt lat="44.66200904473732" lon="8.300296060536136"><ele>184.0</ele><time>2026-05-03T10:39:06.999Z</time></trkpt><trkpt lat="44.662071341324044" lon="8.300155223615803"><ele>185.0</ele><time>2026-05-03T10:39:07.999Z</time></trkpt><trkpt lat="44.66213451081627" lon="8.300012373648647"><ele>186.0</ele><time>2026-05-03T10:39:08.999Z</time></trkpt><trkpt lat="44.66220353676991" lon="8.299856280399592"><ele>187.0</ele><time>2026-05-03T10:39:09.999Z</time></trkpt><trkpt lat="44.6622709475797" lon="8.299703842894221"><ele>188.0</ele><time>2026-05-03T10:39:10.999Z</time></trkpt><trkpt lat="44.66233321367616" lon="8.29956312075278"><ele>189.0</ele><time>2026-05-03T10:39:11.999Z</time></trkpt><trkpt lat="44.66239836448534" lon="8.299419752017563"><ele>190.0</ele><time>2026-05-03T10:39:12.999Z</time></trkpt><trkpt lat="44.66246782128348" lon="8.299269385445278"><ele>191.0</ele><time>2026-05-03T10:39:13.999Z</time></trkpt><trkpt lat="44.66253823536781" lon="8.299116945114596"><ele>191.0</ele><time>2026-05-03T10:39:14.999Z</time></trkpt><trkpt lat="44.662606894350354" lon="8.29896246670124"><ele>191.0</ele><time>2026-05-03T10:39:15.999Z</time></trkpt><trkpt lat="44.66264056400757" lon="8.298799246508654"><ele>191.0</ele><time>2026-05-03T10:39:16.999Z</time></trkpt><trkpt lat="44.66266228977086" lon="8.29863437092405"><ele>191.0</ele><time>2026-05-03T10:39:17.999Z</time></trkpt><trkpt lat="44.6626651038367" lon="8.298491525906789"><ele>191.33333333333331</ele><time>2026-05-03T10:39:18.999Z</time></trkpt><trkpt lat="44.662653954941334" lon="8.298384360110335"><ele>191.66666666666666</ele><time>2026-05-03T10:39:19.999Z</time></trkpt><trkpt lat="44.662657159742956" lon="8.298263408952163"><ele>192.0</ele><time>2026-05-03T10:39:22Z</time></trkpt><trkpt lat="44.66256286968043" lon="8.298294923896314"><ele>192.33333333333331</ele><time>2026-05-03T10:39:23Z</time></trkpt><trkpt lat="44.66246534269689" lon="8.29828407004365"><ele>192.66666666666666</ele><time>2026-05-03T10:39:25Z</time></trkpt><trkpt lat="44.66238488051444" lon="8.298254487053965"><ele>193.0</ele><time>2026-05-03T10:39:26Z</time></trkpt><trkpt lat="44.66230536878488" lon="8.298209391286196"><ele>193.0</ele><time>2026-05-03T10:39:27Z</time></trkpt><trkpt lat="44.66222222458494" lon="8.29815686584659"><ele>193.0</ele><time>2026-05-03T10:39:28Z</time></trkpt><trkpt lat="44.66214946094178" lon="8.298088174997186"><ele>193.0</ele><time>2026-05-03T10:39:29Z</time></trkpt><trkpt lat="44.662078034974776" lon="8.298013719527265"><ele>193.0</ele><time>2026-05-03T10:39:30Z</time></trkpt><trkpt lat="44.66198853917163" lon="8.297920591514812"><ele>193.0</ele><time>2026-05-03T10:39:31Z</time></trkpt><trkpt lat="44.66190535266223" lon="8.297806594200487"><ele>192.75</ele><time>2026-05-03T10:39:32Z</time></trkpt><trkpt lat="44.66182148522703" lon="8.2976820917272"><ele>192.5</ele><time>2026-05-03T10:39:33Z</time></trkpt><trkpt lat="44.66174224305747" lon="8.297542649231465"><ele>192.25</ele><time>2026-05-03T10:39:34Z</time></trkpt><trkpt lat="44.66168136284053" lon="8.297393371405535"><ele>192.0</ele><time>2026-05-03T10:39:35Z</time></trkpt><trkpt lat="44.661626347015364" lon="8.297232550030833"><ele>192.0</ele><time>2026-05-03T10:39:36Z</time></trkpt><trkpt lat="44.66157552090961" lon="8.297066737995978"><ele>192.0</ele><time>2026-05-03T10:39:37Z</time></trkpt><trkpt lat="44.6615345874015" lon="8.296902185343685"><ele>192.0</ele><time>2026-05-03T10:39:38Z</time></trkpt><trkpt lat="44.661481696329915" lon="8.296755974093635"><ele>192.0</ele><time>2026-05-03T10:39:39Z</time></trkpt><trkpt lat="44.661433309958205" lon="8.296651195518244"><ele>192.0</ele><time>2026-05-03T10:39:40Z</time></trkpt><trkpt lat="44.66138355200374" lon="8.29656274627115"><ele>192.0</ele><time>2026-05-03T10:39:41Z</time></trkpt><trkpt lat="44.66117143573183" lon="8.296608114067132"><ele>192.0</ele><time>2026-05-03T10:39:43Z</time></trkpt><trkpt lat="44.661063261799974" lon="8.29665648859674"><ele>192.0</ele><time>2026-05-03T10:39:44Z</time></trkpt><trkpt lat="44.660960787504116" lon="8.296689927919845"><ele>190.0</ele><time>2026-05-03T10:39:45Z</time></trkpt><trkpt lat="44.66084725278999" lon="8.296740086683819"><ele>188.0</ele><time>2026-05-03T10:39:46Z</time></trkpt><trkpt lat="44.66073760601973" lon="8.2967847218702"><ele>186.0</ele><time>2026-05-03T10:39:47Z</time></trkpt><trkpt lat="44.66061302947341" lon="8.296814733058799"><ele>184.0</ele><time>2026-05-03T10:39:48Z</time></trkpt><trkpt lat="44.66048740610125" lon="8.296869103469941"><ele>184.0</ele><time>2026-05-03T10:39:49Z</time></trkpt><trkpt lat="44.66034943870261" lon="8.296929781591114"><ele>184.0</ele><time>2026-05-03T10:39:50Z</time></trkpt><trkpt lat="44.660209957650444" lon="8.296988193088474"><ele>184.0</ele><time>2026-05-03T10:39:51Z</time></trkpt><trkpt lat="44.66007835096894" lon="8.297035743126825"><ele>184.0</ele><time>2026-05-03T10:39:52Z</time></trkpt><trkpt lat="44.65994752595443" lon="8.297086643694183"><ele>184.25</ele><time>2026-05-03T10:39:53Z</time></trkpt><trkpt lat="44.65980686796654" lon="8.297088706986973"><ele>184.5</ele><time>2026-05-03T10:39:54Z</time></trkpt><trkpt lat="44.659666406606306" lon="8.297075532314354"><ele>184.75</ele><time>2026-05-03T10:39:55Z</time></trkpt><trkpt lat="44.65952856490454" lon="8.297014351868622"><ele>185.0</ele><time>2026-05-03T10:39:56Z</time></trkpt><trkpt lat="44.65939491853853" lon="8.296928292663818"><ele>185.33333333333331</ele><time>2026-05-03T10:39:57Z</time></trkpt><trkpt lat="44.659261652224565" lon="8.296830357663092"><ele>185.66666666666666</ele><time>2026-05-03T10:39:58Z</time></trkpt><trkpt lat="44.65911110187335" lon="8.296742322150653"><ele>186.0</ele><time>2026-05-03T10:39:59Z</time></trkpt><trkpt lat="44.65896605240599" lon="8.296637519277033"><ele>186.0</ele><time>2026-05-03T10:40:00Z</time></trkpt><trkpt lat="44.65881398824024" lon="8.29651307564205"><ele>186.0</ele><time>2026-05-03T10:40:01Z</time></trkpt><trkpt lat="44.65865698985786" lon="8.296401854709348"><ele>186.0</ele><time>2026-05-03T10:40:02Z</time></trkpt><trkpt lat="44.65850275311029" lon="8.296287682751656"><ele>186.0</ele><time>2026-05-03T10:40:03Z</time></trkpt><trkpt lat="44.65835242836602" lon="8.296156741978622"><ele>186.0</ele><time>2026-05-03T10:40:04Z</time></trkpt><trkpt lat="44.65819126420808" lon="8.296037247396704"><ele>186.0</ele><time>2026-05-03T10:40:05Z</time></trkpt><trkpt lat="44.65803620776525" lon="8.295922280686833"><ele>186.0</ele><time>2026-05-03T10:40:06Z</time></trkpt><trkpt lat="44.657871680479104" lon="8.295805154528258"><ele>186.0</ele><time>2026-05-03T10:40:07Z</time></trkpt><trkpt lat="44.657710268704655" lon="8.295699127475025"><ele>186.0</ele><time>2026-05-03T10:40:08Z</time></trkpt><trkpt lat="44.657552960219874" lon="8.295616716262174"><ele>185.66666666666666</ele><time>2026-05-03T10:40:09Z</time></trkpt><trkpt lat="44.65738811310879" lon="8.295540064461942"><ele>185.33333333333331</ele><time>2026-05-03T10:40:10Z</time></trkpt><trkpt lat="44.65722444867418" lon="8.29546516913795"><ele>185.0</ele><time>2026-05-03T10:40:11Z</time></trkpt><trkpt lat="44.65705461248985" lon="8.295389986483997"><ele>186.0</ele><time>2026-05-03T10:40:12Z</time></trkpt><trkpt lat="44.656882862203474" lon="8.295314030576888"><ele>187.0</ele><time>2026-05-03T10:40:13Z</time></trkpt><trkpt lat="44.6567212874204" lon="8.295241386953851"><ele>188.0</ele><time>2026-05-03T10:40:14Z</time></trkpt><trkpt lat="44.65657113212133" lon="8.295171939248965"><ele>188.0</ele><time>2026-05-03T10:40:15Z</time></trkpt><trkpt lat="44.656426857162245" lon="8.295100642799058"><ele>188.0</ele><time>2026-05-03T10:40:16Z</time></trkpt><trkpt lat="44.65629805021176" lon="8.295032790955057"><ele>188.0</ele><time>2026-05-03T10:40:17Z</time></trkpt><trkpt lat="44.65617542542039" lon="8.294980380975453"><ele>188.0</ele><time>2026-05-03T10:40:18Z</time></trkpt><trkpt lat="44.65608923971681" lon="8.294940883974924"><ele>189.0</ele><time>2026-05-03T10:40:19Z</time></trkpt><trkpt lat="44.65598217333395" lon="8.29491997666526"><ele>190.0</ele><time>2026-05-03T10:40:20Z</time></trkpt><trkpt lat="44.655873917101864" lon="8.294940799190458"><ele>191.0</ele><time>2026-05-03T10:40:21Z</time></trkpt><trkpt lat="44.65577192004343" lon="8.294971908077647"><ele>192.0</ele><time>2026-05-03T10:40:22Z</time></trkpt><trkpt lat="44.65565174291986" lon="8.295015488662804"><ele>193.0</ele><time>2026-05-03T10:40:23Z</time></trkpt><trkpt lat="44.65555370638067" lon="8.2950565416916"><ele>193.0</ele><time>2026-05-03T10:40:24Z</time></trkpt><trkpt lat="44.65544432667542" lon="8.29513089567685"><ele>193.0</ele><time>2026-05-03T10:40:25Z</time></trkpt><trkpt lat="44.655330243957216" lon="8.295164692656723"><ele>193.0</ele><time>2026-05-03T10:40:26Z</time></trkpt><trkpt lat="44.65523018008579" lon="8.295199840580858"><ele>193.0</ele><time>2026-05-03T10:40:27Z</time></trkpt><trkpt lat="44.65512265291174" lon="8.29520052611181"><ele>193.0</ele><time>2026-05-03T10:40:28Z</time></trkpt><trkpt lat="44.65500901529379" lon="8.295201032941835"><ele>194.75</ele><time>2026-05-03T10:40:29Z</time></trkpt><trkpt lat="44.654873794895394" lon="8.295201636028589"><ele>196.5</ele><time>2026-05-03T10:40:30Z</time></trkpt><trkpt lat="44.65472621384215" lon="8.29520321172909"><ele>198.25</ele><time>2026-05-03T10:40:31Z</time></trkpt><trkpt lat="44.65457191232269" lon="8.295204922862334"><ele>200.0</ele><time>2026-05-03T10:40:32Z</time></trkpt><trkpt lat="44.654418272657374" lon="8.295207044369116"><ele>201.33333333333334</ele><time>2026-05-03T10:40:33Z</time></trkpt><trkpt lat="44.654255362316924" lon="8.295209646256433"><ele>202.66666666666669</ele><time>2026-05-03T10:40:34Z</time></trkpt><trkpt lat="44.65407573807212" lon="8.295212515081666"><ele>204.0</ele><time>2026-05-03T10:40:35Z</time></trkpt><trkpt lat="44.65389637452742" lon="8.295212555311057"><ele>204.0</ele><time>2026-05-03T10:40:36Z</time></trkpt><trkpt lat="44.65372525683171" lon="8.295210758358703"><ele>204.0</ele><time>2026-05-03T10:40:37Z</time></trkpt><trkpt lat="44.65354003704486" lon="8.295208813314275"><ele>204.0</ele><time>2026-05-03T10:40:38Z</time></trkpt><trkpt lat="44.65334976857294" lon="8.295203479309212"><ele>204.33333333333331</ele><time>2026-05-03T10:40:39Z</time></trkpt><trkpt lat="44.653163116784725" lon="8.295194848604403"><ele>204.66666666666666</ele><time>2026-05-03T10:40:40Z</time></trkpt><trkpt lat="44.65297396110532" lon="8.295185673449872"><ele>205.0</ele><time>2026-05-03T10:40:41Z</time></trkpt><trkpt lat="44.652796087886784" lon="8.29517651221418"><ele>206.33333333333331</ele><time>2026-05-03T10:40:42Z</time></trkpt><trkpt lat="44.65263319748171" lon="8.295190171873948"><ele>207.66666666666669</ele><time>2026-05-03T10:40:43Z</time></trkpt><trkpt lat="44.65247511383371" lon="8.295160607822694"><ele>209.0</ele><time>2026-05-03T10:40:44Z</time></trkpt><trkpt lat="44.65231020183792" lon="8.295107896979275"><ele>209.0</ele><time>2026-05-03T10:40:45Z</time></trkpt><trkpt lat="44.65214174239131" lon="8.295073619566567"><ele>209.0</ele><time>2026-05-03T10:40:46Z</time></trkpt><trkpt lat="44.651980078893395" lon="8.295001182584167"><ele>209.0</ele><time>2026-05-03T10:40:47Z</time></trkpt><trkpt lat="44.65180717560016" lon="8.294952244304731"><ele>210.66666666666669</ele><time>2026-05-03T10:40:48Z</time></trkpt><trkpt lat="44.651638448558366" lon="8.294894917828499"><ele>212.33333333333331</ele><time>2026-05-03T10:40:49Z</time></trkpt><trkpt lat="44.651452716216916" lon="8.2948780070877"><ele>214.0</ele><time>2026-05-03T10:40:50Z</time></trkpt><trkpt lat="44.65127585588874" lon="8.29487191165128"><ele>217.66666666666666</ele><time>2026-05-03T10:40:51Z</time></trkpt><trkpt lat="44.65110995373844" lon="8.294870590721303"><ele>221.33333333333331</ele><time>2026-05-03T10:40:52Z</time></trkpt><trkpt lat="44.6509541631397" lon="8.294880037892243"><ele>225.0</ele><time>2026-05-03T10:40:53Z</time></trkpt><trkpt lat="44.65081742596095" lon="8.294897713481507"><ele>225.0</ele><time>2026-05-03T10:40:54Z</time></trkpt><trkpt lat="44.6506933461996" lon="8.294920559096122"><ele>225.0</ele><time>2026-05-03T10:40:55Z</time></trkpt><trkpt lat="44.65060113140932" lon="8.294974212177621"><ele>225.0</ele><time>2026-05-03T10:40:56Z</time></trkpt><trkpt lat="44.65054941585846" lon="8.295149278722835"><ele>225.0</ele><time>2026-05-03T10:40:57Z</time></trkpt><trkpt lat="44.65051319790026" lon="8.29524794185408"><ele>225.0</ele><time>2026-05-03T10:40:58Z</time></trkpt><trkpt lat="44.65045354504692" lon="8.295339871304941"><ele>225.0</ele><time>2026-05-03T10:40:59Z</time></trkpt><trkpt lat="44.65038104719553" lon="8.29536798222003"><ele>225.0</ele><time>2026-05-03T10:41:01Z</time></trkpt><trkpt lat="44.650348120473254" lon="8.295269413433763"><ele>225.0</ele><time>2026-05-03T10:41:02.999Z</time></trkpt><trkpt lat="44.650327751039974" lon="8.295173113348813"><ele>225.0</ele><time>2026-05-03T10:41:03.999Z</time></trkpt><trkpt lat="44.65029491306544" lon="8.295052739445168"><ele>225.0</ele><time>2026-05-03T10:41:04.999Z</time></trkpt><trkpt lat="44.65025315918945" lon="8.294930961358894"><ele>225.0</ele><time>2026-05-03T10:41:05.999Z</time></trkpt><trkpt lat="44.65019798218754" lon="8.294836787755857"><ele>228.2</ele><time>2026-05-03T10:41:06.999Z</time></trkpt><trkpt lat="44.650113705342996" lon="8.294795958802654"><ele>231.4</ele><time>2026-05-03T10:41:07.999Z</time></trkpt><trkpt lat="44.65002721838419" lon="8.294863066681103"><ele>234.60000000000002</ele><time>2026-05-03T10:41:08.999Z</time></trkpt><trkpt lat="44.650022336696715" lon="8.295028657290716"><ele>237.8</ele><time>2026-05-03T10:41:09.999Z</time></trkpt><trkpt lat="44.65002141143121" lon="8.295146106249208"><ele>241.0</ele><time>2026-05-03T10:41:10.999Z</time></trkpt><trkpt lat="44.64996809410829" lon="8.295194197548518"><ele>241.0</ele><time>2026-05-03T10:41:11.999Z</time></trkpt><trkpt lat="44.6498982289058" lon="8.295157420106504"><ele>241.00000000000003</ele><time>2026-05-03T10:41:13.999Z</time></trkpt><trkpt lat="44.64984888845885" lon="8.295082183473289"><ele>241.00000000000003</ele><time>2026-05-03T10:41:14.999Z</time></trkpt><trkpt lat="44.64976679312814" lon="8.294979284005146"><ele>241.0</ele><time>2026-05-03T10:41:15.999Z</time></trkpt><trkpt lat="44.64967591435183" lon="8.294891029711712"><ele>241.0</ele><time>2026-05-03T10:41:16.999Z</time></trkpt><trkpt lat="44.6495804623828" lon="8.294821712921205"><ele>241.0</ele><time>2026-05-03T10:41:17.999Z</time></trkpt><trkpt lat="44.64949902396473" lon="8.294787568921056"><ele>241.00000000000003</ele><time>2026-05-03T10:41:18.999Z</time></trkpt><trkpt lat="44.649422511599106" lon="8.29481072351667"><ele>241.00000000000003</ele><time>2026-05-03T10:41:19.999Z</time></trkpt><trkpt lat="44.6493692534409" lon="8.294913721417345"><ele>241.0</ele><time>2026-05-03T10:41:20.999Z</time></trkpt><trkpt lat="44.64939735890733" lon="8.295070567914202"><ele>241.0</ele><time>2026-05-03T10:41:21.999Z</time></trkpt><trkpt lat="44.64943408235787" lon="8.295204468930224"><ele>241.0</ele><time>2026-05-03T10:41:22.999Z</time></trkpt><trkpt lat="44.64946210580525" lon="8.295334533048853"><ele>241.00000000000003</ele><time>2026-05-03T10:41:23.999Z</time></trkpt><trkpt lat="44.64947344175766" lon="8.295492025968981"><ele>241.00000000000003</ele><time>2026-05-03T10:41:24.999Z</time></trkpt><trkpt lat="44.6494652857553" lon="8.295655888749243"><ele>241.0</ele><time>2026-05-03T10:41:25.999Z</time></trkpt><trkpt lat="44.649456267345165" lon="8.29581774463459"><ele>241.0</ele><time>2026-05-03T10:41:26.999Z</time></trkpt><trkpt lat="44.64944318939757" lon="8.295944355795342"><ele>245.4</ele><time>2026-05-03T10:41:28Z</time></trkpt><trkpt lat="44.64941652889098" lon="8.296035766058266"><ele>249.8</ele><time>2026-05-03T10:41:30Z</time></trkpt><trkpt lat="44.649332243755005" lon="8.295913477334475"><ele>254.20000000000002</ele><time>2026-05-03T10:41:33Z</time></trkpt><trkpt lat="44.64927984181512" lon="8.295786670767288"><ele>258.6</ele><time>2026-05-03T10:41:34Z</time></trkpt><trkpt lat="44.64923779815128" lon="8.295664275620105"><ele>263.0</ele><time>2026-05-03T10:41:35Z</time></trkpt><trkpt lat="44.64918098326088" lon="8.295545161675838"><ele>263.0</ele><time>2026-05-03T10:41:36Z</time></trkpt><trkpt lat="44.6490747713845" lon="8.295465456704871"><ele>263.0</ele><time>2026-05-03T10:41:37Z</time></trkpt><trkpt lat="44.64896637392161" lon="8.295390235900557"><ele>263.0</ele><time>2026-05-03T10:41:38Z</time></trkpt><trkpt lat="44.648857739268585" lon="8.295324897904043"><ele>263.0</ele><time>2026-05-03T10:41:39Z</time></trkpt><trkpt lat="44.64875337444532" lon="8.295238460644539"><ele>263.0</ele><time>2026-05-03T10:41:40Z</time></trkpt><trkpt lat="44.648636766866176" lon="8.2951785968422"><ele>263.0</ele><time>2026-05-03T10:41:41Z</time></trkpt><trkpt lat="44.64849258973836" lon="8.295135939405865"><ele>263.0</ele><time>2026-05-03T10:41:42Z</time></trkpt><trkpt lat="44.648364013527846" lon="8.295105231447009"><ele>263.0</ele><time>2026-05-03T10:41:43Z</time></trkpt><trkpt lat="44.6482276241506" lon="8.295071900970745"><ele>269.33333333333337</ele><time>2026-05-03T10:41:44Z</time></trkpt><trkpt lat="44.64808069241233" lon="8.295026299032997"><ele>275.6666666666667</ele><time>2026-05-03T10:41:45Z</time></trkpt><trkpt lat="44.64791718823272" lon="8.295010146528117"><ele>282.0</ele><time>2026-05-03T10:41:46Z</time></trkpt><trkpt lat="44.647777878626286" lon="8.294969803788614"><ele>282.5</ele><time>2026-05-03T10:41:47Z</time></trkpt><trkpt lat="44.647639671682654" lon="8.294931632858432"><ele>283.0</ele><time>2026-05-03T10:41:48Z</time></trkpt><trkpt lat="44.64751133565331" lon="8.294884835894793"><ele>283.5</ele><time>2026-05-03T10:41:49Z</time></trkpt><trkpt lat="44.647394273346166" lon="8.294801503032833"><ele>284.0</ele><time>2026-05-03T10:41:50Z</time></trkpt><trkpt lat="44.64729174187167" lon="8.294681983905654"><ele>284.0</ele><time>2026-05-03T10:41:51Z</time></trkpt><trkpt lat="44.64719715773741" lon="8.294552704694475"><ele>284.0</ele><time>2026-05-03T10:41:52Z</time></trkpt><trkpt lat="44.64710269933691" lon="8.294453769300993"><ele>284.0</ele><time>2026-05-03T10:41:53Z</time></trkpt><trkpt lat="44.647001983852356" lon="8.294388266277165"><ele>284.0</ele><time>2026-05-03T10:41:54Z</time></trkpt><trkpt lat="44.64688317514065" lon="8.294357431293601"><ele>287.25</ele><time>2026-05-03T10:41:55Z</time></trkpt><trkpt lat="44.6467619146341" lon="8.294365361494977"><ele>290.5</ele><time>2026-05-03T10:41:56Z</time></trkpt><trkpt lat="44.64662923904175" lon="8.294400969974104"><ele>293.75</ele><time>2026-05-03T10:41:57Z</time></trkpt><trkpt lat="44.646508492729815" lon="8.294454818039851"><ele>297.0</ele><time>2026-05-03T10:41:58Z</time></trkpt><trkpt lat="44.646388111082416" lon="8.2944892517209"><ele>297.0</ele><time>2026-05-03T10:41:59Z</time></trkpt><trkpt lat="44.64627628904449" lon="8.294475903437336"><ele>297.0</ele><time>2026-05-03T10:42:00Z</time></trkpt><trkpt lat="44.64618226715442" lon="8.294431423240678"><ele>297.0</ele><time>2026-05-03T10:42:01Z</time></trkpt><trkpt lat="44.646126138987746" lon="8.294344765424382"><ele>297.0</ele><time>2026-05-03T10:42:02Z</time></trkpt><trkpt lat="44.64608039532204" lon="8.294223965568682"><ele>297.0</ele><time>2026-05-03T10:42:03Z</time></trkpt><trkpt lat="44.64601687310274" lon="8.29411253965289"><ele>298.0</ele><time>2026-05-03T10:42:04Z</time></trkpt><trkpt lat="44.64592867808458" lon="8.294028547986581"><ele>299.0</ele><time>2026-05-03T10:42:05Z</time></trkpt><trkpt lat="44.64581776001231" lon="8.293954767992757"><ele>300.0</ele><time>2026-05-03T10:42:06Z</time></trkpt><trkpt lat="44.645686867381386" lon="8.293895279627627"><ele>301.0</ele><time>2026-05-03T10:42:07Z</time></trkpt><trkpt lat="44.64555103924306" lon="8.293827532998554"><ele>301.0</ele><time>2026-05-03T10:42:08Z</time></trkpt><trkpt lat="44.645409074084085" lon="8.293746050558376"><ele>301.0</ele><time>2026-05-03T10:42:09Z</time></trkpt><trkpt lat="44.645245400929994" lon="8.293654475564109"><ele>301.0</ele><time>2026-05-03T10:42:10Z</time></trkpt><trkpt lat="44.645117092447066" lon="8.29358779557217"><ele>306.0</ele><time>2026-05-03T10:42:11Z</time></trkpt><trkpt lat="44.64494666519855" lon="8.293483932383776"><ele>311.0</ele><time>2026-05-03T10:42:12Z</time></trkpt><trkpt lat="44.64480009521628" lon="8.293386064915737"><ele>316.0</ele><time>2026-05-03T10:42:13Z</time></trkpt><trkpt lat="44.644656611131275" lon="8.293286358463712"><ele>316.0</ele><time>2026-05-03T10:42:14Z</time></trkpt><trkpt lat="44.6445288492869" lon="8.29320394952642"><ele>316.0</ele><time>2026-05-03T10:42:15Z</time></trkpt><trkpt lat="44.64442233042661" lon="8.293101615146538"><ele>316.0</ele><time>2026-05-03T10:42:16Z</time></trkpt><trkpt lat="44.64430292721531" lon="8.292989561812346"><ele>316.0</ele><time>2026-05-03T10:42:17Z</time></trkpt><trkpt lat="44.644184377727946" lon="8.29289616877509"><ele>319.8</ele><time>2026-05-03T10:42:18Z</time></trkpt><trkpt lat="44.64408337533287" lon="8.29281202174668"><ele>323.6</ele><time>2026-05-03T10:42:19Z</time></trkpt><trkpt lat="44.64399878499621" lon="8.292740834184507"><ele>327.4</ele><time>2026-05-03T10:42:20Z</time></trkpt><trkpt lat="44.64392681985635" lon="8.292663697276732"><ele>331.2</ele><time>2026-05-03T10:42:21Z</time></trkpt><trkpt lat="44.64385658466715" lon="8.292551357308097"><ele>335.0</ele><time>2026-05-03T10:42:22Z</time></trkpt><trkpt lat="44.64382724451536" lon="8.292365611079289"><ele>335.75</ele><time>2026-05-03T10:42:23Z</time></trkpt><trkpt lat="44.6437813607184" lon="8.292207422303811"><ele>336.5</ele><time>2026-05-03T10:42:24Z</time></trkpt><trkpt lat="44.64370792886056" lon="8.292050373637547"><ele>337.25</ele><time>2026-05-03T10:42:25Z</time></trkpt><trkpt lat="44.64357970075654" lon="8.291936808356343"><ele>338.0</ele><time>2026-05-03T10:42:26Z</time></trkpt><trkpt lat="44.64345957380147" lon="8.291823018744333"><ele>338.75</ele><time>2026-05-03T10:42:27Z</time></trkpt><trkpt lat="44.64333415385618" lon="8.291722970021297"><ele>339.5</ele><time>2026-05-03T10:42:28Z</time></trkpt><trkpt lat="44.64320384389995" lon="8.29158243853923"><ele>340.25</ele><time>2026-05-03T10:42:29Z</time></trkpt><trkpt lat="44.64308937301193" lon="8.291479361286425"><ele>341.0</ele><time>2026-05-03T10:42:30Z</time></trkpt><trkpt lat="44.64295908201572" lon="8.291364923553783"><ele>341.5</ele><time>2026-05-03T10:42:31Z</time></trkpt><trkpt lat="44.64282410111637" lon="8.291246512291682"><ele>342.0</ele><time>2026-05-03T10:42:32Z</time></trkpt><trkpt lat="44.64270560904981" lon="8.291142438316127"><ele>342.5</ele><time>2026-05-03T10:42:33Z</time></trkpt><trkpt lat="44.642603697267305" lon="8.291049590620958"><ele>343.0</ele><time>2026-05-03T10:42:34Z</time></trkpt><trkpt lat="44.642509663223905" lon="8.290960717932903"><ele>344.2</ele><time>2026-05-03T10:42:35Z</time></trkpt><trkpt lat="44.64243961073479" lon="8.290898928011414"><ele>345.4</ele><time>2026-05-03T10:42:36Z</time></trkpt><trkpt lat="44.64237399229645" lon="8.290806399187957"><ele>346.59999999999997</ele><time>2026-05-03T10:42:38Z</time></trkpt><trkpt lat="44.642439573708096" lon="8.290629828815833"><ele>347.79999999999995</ele><time>2026-05-03T10:42:40Z</time></trkpt><trkpt lat="44.642472181816196" lon="8.290515481092811"><ele>349.0</ele><time>2026-05-03T10:42:41Z</time></trkpt><trkpt lat="44.642528599556314" lon="8.290409712412664"><ele>349.8333333333333</ele><time>2026-05-03T10:42:42Z</time></trkpt><trkpt lat="44.64257691400691" lon="8.290307278201867"><ele>350.66666666666663</ele><time>2026-05-03T10:42:43Z</time></trkpt><trkpt lat="44.64262926090785" lon="8.29020475878042"><ele>351.5</ele><time>2026-05-03T10:42:44Z</time></trkpt><trkpt lat="44.642673018400906" lon="8.290092967557953"><ele>352.3333333333333</ele><time>2026-05-03T10:42:45Z</time></trkpt><trkpt lat="44.64269960766084" lon="8.289987806893647"><ele>353.1666666666667</ele><time>2026-05-03T10:42:46Z</time></trkpt><trkpt lat="44.64271201689833" lon="8.289890172860405"><ele>354.0</ele><time>2026-05-03T10:42:47Z</time></trkpt><trkpt lat="44.642697301721874" lon="8.289761410366202"><ele>355.25</ele><time>2026-05-03T10:42:48Z</time></trkpt><trkpt lat="44.64267287761537" lon="8.28963319589924"><ele>356.5</ele><time>2026-05-03T10:42:49Z</time></trkpt><trkpt lat="44.642656103529134" lon="8.28946509542735"><ele>357.75</ele><time>2026-05-03T10:42:50Z</time></trkpt><trkpt lat="44.64261130634798" lon="8.28928150369198"><ele>359.0</ele><time>2026-05-03T10:42:51Z</time></trkpt><trkpt lat="44.642592551852935" lon="8.289129588084359"><ele>359.0</ele><time>2026-05-03T10:42:52Z</time></trkpt><trkpt lat="44.642582458822865" lon="8.288940544683447"><ele>359.0</ele><time>2026-05-03T10:42:53Z</time></trkpt><trkpt lat="44.642566709898695" lon="8.288767211328558"><ele>359.0</ele><time>2026-05-03T10:42:54Z</time></trkpt><trkpt lat="44.64254820736863" lon="8.288619007888428"><ele>359.0</ele><time>2026-05-03T10:42:55Z</time></trkpt><trkpt lat="44.64254318665039" lon="8.288453888785497"><ele>359.0</ele><time>2026-05-03T10:42:56Z</time></trkpt><trkpt lat="44.64253820401366" lon="8.288321353349799"><ele>359.0</ele><time>2026-05-03T10:42:56.999Z</time></trkpt><trkpt lat="44.64251159108717" lon="8.288211416984279"><ele>359.0</ele><time>2026-05-03T10:42:57.999Z</time></trkpt><trkpt lat="44.642481719129755" lon="8.288091793768269"><ele>359.0</ele><time>2026-05-03T10:42:58.999Z</time></trkpt><trkpt lat="44.64241512753471" lon="8.287967016198284"><ele>359.0</ele><time>2026-05-03T10:42:59.999Z</time></trkpt><trkpt lat="44.64233693782791" lon="8.287828920025623"><ele>359.0</ele><time>2026-05-03T10:43:00.999Z</time></trkpt><trkpt lat="44.6422635077147" lon="8.287695236770617"><ele>359.0</ele><time>2026-05-03T10:43:01.999Z</time></trkpt><trkpt lat="44.64218026922801" lon="8.287553646148613"><ele>359.0</ele><time>2026-05-03T10:43:02.999Z</time></trkpt><trkpt lat="44.642102494792255" lon="8.28738119720315"><ele>359.0</ele><time>2026-05-03T10:43:03.999Z</time></trkpt><trkpt lat="44.642022904733686" lon="8.287202128912668"><ele>360.6666666666667</ele><time>2026-05-03T10:43:04.999Z</time></trkpt><trkpt lat="44.6419419185539" lon="8.287028787157595"><ele>362.3333333333333</ele><time>2026-05-03T10:43:05.999Z</time></trkpt><trkpt lat="44.64186111443732" lon="8.286842429585835"><ele>364.0</ele><time>2026-05-03T10:43:06.999Z</time></trkpt><trkpt lat="44.64177347644207" lon="8.286641915681203"><ele>364.0</ele><time>2026-05-03T10:43:07.999Z</time></trkpt><trkpt lat="44.64168834137206" lon="8.286432198774078"><ele>364.0</ele><time>2026-05-03T10:43:08.999Z</time></trkpt><trkpt lat="44.64160507025111" lon="8.28622082821485"><ele>364.0</ele><time>2026-05-03T10:43:09.999Z</time></trkpt><trkpt lat="44.641520336584335" lon="8.286000441418455"><ele>364.66666666666663</ele><time>2026-05-03T10:43:10.999Z</time></trkpt><trkpt lat="44.641437793336465" lon="8.285793115548463"><ele>365.3333333333333</ele><time>2026-05-03T10:43:11.999Z</time></trkpt><trkpt lat="44.641365786637856" lon="8.285599829107248"><ele>366.0</ele><time>2026-05-03T10:43:12.999Z</time></trkpt><trkpt lat="44.641299286145184" lon="8.285411761776585"><ele>368.3333333333333</ele><time>2026-05-03T10:43:13.999Z</time></trkpt><trkpt lat="44.64123868219143" lon="8.285213738538502"><ele>370.66666666666663</ele><time>2026-05-03T10:43:14.999Z</time></trkpt><trkpt lat="44.641163557334345" lon="8.285021876398574"><ele>373.0</ele><time>2026-05-03T10:43:15.999Z</time></trkpt><trkpt lat="44.64109019600423" lon="8.284839645123327"><ele>376.75</ele><time>2026-05-03T10:43:16.999Z</time></trkpt><trkpt lat="44.64102303967041" lon="8.284672827199683"><ele>380.5</ele><time>2026-05-03T10:43:17.999Z</time></trkpt><trkpt lat="44.64096328971356" lon="8.284529704222907"><ele>384.25</ele><time>2026-05-03T10:43:18.999Z</time></trkpt><trkpt lat="44.64090448219447" lon="8.284395021382098"><ele>388.0</ele><time>2026-05-03T10:43:19.999Z</time></trkpt><trkpt lat="44.640846444245746" lon="8.284262584777643"><ele>388.00000000000006</ele><time>2026-05-03T10:43:20.999Z</time></trkpt><trkpt lat="44.64080163498126" lon="8.28414189516947"><ele>388.0</ele><time>2026-05-03T10:43:21.999Z</time></trkpt><trkpt lat="44.64075160326832" lon="8.284025020119069"><ele>388.0</ele><time>2026-05-03T10:43:22.999Z</time></trkpt><trkpt lat="44.64070510151973" lon="8.283936852963373"><ele>388.0</ele><time>2026-05-03T10:43:23.999Z</time></trkpt><trkpt lat="44.640645931099165" lon="8.283848775692682"><ele>388.00000000000006</ele><time>2026-05-03T10:43:24.999Z</time></trkpt><trkpt lat="44.64058846024064" lon="8.283784103155254"><ele>388.0</ele><time>2026-05-03T10:43:25.999Z</time></trkpt><trkpt lat="44.64051491540706" lon="8.283732320120803"><ele>387.6666666666667</ele><time>2026-05-03T10:43:26.999Z</time></trkpt><trkpt lat="44.64043857697315" lon="8.283677217719838"><ele>387.33333333333337</ele><time>2026-05-03T10:43:27.999Z</time></trkpt><trkpt lat="44.640377768149236" lon="8.283627372258893"><ele>387.0</ele><time>2026-05-03T10:43:28.999Z</time></trkpt><trkpt lat="44.640305446125986" lon="8.283562695859356"><ele>386.66666666666663</ele><time>2026-05-03T10:43:29.999Z</time></trkpt><trkpt lat="44.64023638091525" lon="8.283491465509476"><ele>386.3333333333333</ele><time>2026-05-03T10:43:30.999Z</time></trkpt><trkpt lat="44.640156461654364" lon="8.283402717518571"><ele>386.0</ele><time>2026-05-03T10:43:31.999Z</time></trkpt><trkpt lat="44.64007664299471" lon="8.283309655613149"><ele>386.0</ele><time>2026-05-03T10:43:32.999Z</time></trkpt><trkpt lat="44.63999613911782" lon="8.283216121881226"><ele>386.0</ele><time>2026-05-03T10:43:34Z</time></trkpt><trkpt lat="44.63990919672531" lon="8.283140131596882"><ele>386.0</ele><time>2026-05-03T10:43:35Z</time></trkpt><trkpt lat="44.63983230352341" lon="8.283015760499069"><ele>386.0</ele><time>2026-05-03T10:43:36Z</time></trkpt><trkpt lat="44.63974245528962" lon="8.282904895799517"><ele>386.0</ele><time>2026-05-03T10:43:37Z</time></trkpt><trkpt lat="44.639651654331026" lon="8.282792855500881"><ele>386.0</ele><time>2026-05-03T10:43:38Z</time></trkpt><trkpt lat="44.63956078552622" lon="8.282676865810743"><ele>386.0</ele><time>2026-05-03T10:43:39Z</time></trkpt><trkpt lat="44.63947102095194" lon="8.282551274037521"><ele>386.0</ele><time>2026-05-03T10:43:40Z</time></trkpt><trkpt lat="44.639389813676225" lon="8.28244333099727"><ele>386.0</ele><time>2026-05-03T10:43:41Z</time></trkpt><trkpt lat="44.639322934798024" lon="8.282343236476283"><ele>385.99999999999994</ele><time>2026-05-03T10:43:42Z</time></trkpt><trkpt lat="44.639260073035146" lon="8.282272384713272"><ele>386.0</ele><time>2026-05-03T10:43:43Z</time></trkpt><trkpt lat="44.63919948604676" lon="8.282232623637254"><ele>386.0</ele><time>2026-05-03T10:43:44Z</time></trkpt><trkpt lat="44.63913047189706" lon="8.282211066295801"><ele>386.0</ele><time>2026-05-03T10:43:45Z</time></trkpt><trkpt lat="44.639040894119454" lon="8.282198627316575"><ele>385.99999999999994</ele><time>2026-05-03T10:43:46Z</time></trkpt><trkpt lat="44.638944221581795" lon="8.282192635253086"><ele>386.0</ele><time>2026-05-03T10:43:47Z</time></trkpt><trkpt lat="44.63883778908113" lon="8.282178851418402"><ele>385.5</ele><time>2026-05-03T10:43:48Z</time></trkpt><trkpt lat="44.6387031566133" lon="8.282154045004258"><ele>385.0</ele><time>2026-05-03T10:43:49Z</time></trkpt><trkpt lat="44.63856415165594" lon="8.28212766176243"><ele>384.5</ele><time>2026-05-03T10:43:50Z</time></trkpt><trkpt lat="44.63839323622602" lon="8.282088067934232"><ele>384.0</ele><time>2026-05-03T10:43:51Z</time></trkpt><trkpt lat="44.638260310340044" lon="8.28207438306344"><ele>384.0</ele><time>2026-05-03T10:43:52Z</time></trkpt><trkpt lat="44.638127211981576" lon="8.28207304685982"><ele>384.0</ele><time>2026-05-03T10:43:53Z</time></trkpt><trkpt lat="44.63801772814753" lon="8.282026097301337"><ele>384.0</ele><time>2026-05-03T10:43:54Z</time></trkpt><trkpt lat="44.63791792120553" lon="8.28201623047532"><ele>384.0</ele><time>2026-05-03T10:43:55Z</time></trkpt><trkpt lat="44.63783565462354" lon="8.281995148456012"><ele>384.0</ele><time>2026-05-03T10:43:56Z</time></trkpt><trkpt lat="44.63776244127777" lon="8.281964106154382"><ele>384.79999999999995</ele><time>2026-05-03T10:43:58Z</time></trkpt><trkpt lat="44.637774841420594" lon="8.281779505613697"><ele>385.59999999999997</ele><time>2026-05-03T10:44:00Z</time></trkpt><trkpt lat="44.6377395223962" lon="8.281679701604402"><ele>386.4</ele><time>2026-05-03T10:44:01Z</time></trkpt><trkpt lat="44.63767347426491" lon="8.281566520536739"><ele>387.2</ele><time>2026-05-03T10:44:02Z</time></trkpt><trkpt lat="44.63758236799102" lon="8.28146726725842"><ele>388.0</ele><time>2026-05-03T10:44:03Z</time></trkpt><trkpt lat="44.63747534220568" lon="8.281357936672345"><ele>388.25</ele><time>2026-05-03T10:44:04Z</time></trkpt><trkpt lat="44.63738283545953" lon="8.281290184239705"><ele>388.5</ele><time>2026-05-03T10:44:05Z</time></trkpt><trkpt lat="44.63724460784247" lon="8.281135605170386"><ele>388.75</ele><time>2026-05-03T10:44:06Z</time></trkpt><trkpt lat="44.6371235425954" lon="8.281009569361636"><ele>389.0</ele><time>2026-05-03T10:44:07Z</time></trkpt><trkpt lat="44.637006388828254" lon="8.280896779375938"><ele>391.5</ele><time>2026-05-03T10:44:08Z</time></trkpt><trkpt lat="44.63691003340881" lon="8.28080209756259"><ele>394.0</ele><time>2026-05-03T10:44:09Z</time></trkpt><trkpt lat="44.63681173097083" lon="8.28070601210085"><ele>396.5</ele><time>2026-05-03T10:44:10Z</time></trkpt><trkpt lat="44.6367250400672" lon="8.280605756211301"><ele>399.0</ele><time>2026-05-03T10:44:11Z</time></trkpt><trkpt lat="44.63663268962712" lon="8.280504819346813"><ele>400.5</ele><time>2026-05-03T10:44:12Z</time></trkpt><trkpt lat="44.636551608627634" lon="8.280378132469687"><ele>402.0</ele><time>2026-05-03T10:44:13Z</time></trkpt><trkpt lat="44.63651204602162" lon="8.280214214918356"><ele>403.5</ele><time>2026-05-03T10:44:14Z</time></trkpt><trkpt lat="44.636496117610335" lon="8.280046742760714"><ele>405.0</ele><time>2026-05-03T10:44:15Z</time></trkpt><trkpt lat="44.63651813303633" lon="8.279884619868325"><ele>408.0</ele><time>2026-05-03T10:44:16Z</time></trkpt><trkpt lat="44.636567460081345" lon="8.279719042143943"><ele>411.0</ele><time>2026-05-03T10:44:17Z</time></trkpt><trkpt lat="44.636633076810035" lon="8.279553663045132"><ele>414.0</ele><time>2026-05-03T10:44:18Z</time></trkpt><trkpt lat="44.63669736188406" lon="8.279399949837863"><ele>417.0</ele><time>2026-05-03T10:44:19Z</time></trkpt><trkpt lat="44.63674131691238" lon="8.279264227755403"><ele>417.0</ele><time>2026-05-03T10:44:20Z</time></trkpt><trkpt lat="44.63682461362251" lon="8.279180522160544"><ele>417.0</ele><time>2026-05-03T10:44:21Z</time></trkpt><trkpt lat="44.63689960441861" lon="8.27908008084885"><ele>417.0</ele><time>2026-05-03T10:44:22Z</time></trkpt><trkpt lat="44.63696253893587" lon="8.278962394049772"><ele>417.0</ele><time>2026-05-03T10:44:23Z</time></trkpt><trkpt lat="44.637021204274255" lon="8.278860314077285"><ele>417.0</ele><time>2026-05-03T10:44:24Z</time></trkpt><trkpt lat="44.637072689536275" lon="8.278734368013218"><ele>412.40000000000003</ele><time>2026-05-03T10:44:25Z</time></trkpt><trkpt lat="44.63712719727516" lon="8.278600892486926"><ele>407.8</ele><time>2026-05-03T10:44:26Z</time></trkpt><trkpt lat="44.63713732554516" lon="8.278458214059807"><ele>403.2</ele><time>2026-05-03T10:44:27Z</time></trkpt><trkpt lat="44.63715980540661" lon="8.278311535682349"><ele>398.6</ele><time>2026-05-03T10:44:28Z</time></trkpt><trkpt lat="44.637203765887" lon="8.27818389918343"><ele>394.0</ele><time>2026-05-03T10:44:29Z</time></trkpt><trkpt lat="44.63725215694739" lon="8.278079574914818"><ele>393.4</ele><time>2026-05-03T10:44:30Z</time></trkpt><trkpt lat="44.637295803795645" lon="8.277955387363475"><ele>392.79999999999995</ele><time>2026-05-03T10:44:31Z</time></trkpt><trkpt lat="44.63730605621402" lon="8.277824517153585"><ele>392.20000000000005</ele><time>2026-05-03T10:44:32Z</time></trkpt><trkpt lat="44.637308870766844" lon="8.277670888185293"><ele>391.6</ele><time>2026-05-03T10:44:33Z</time></trkpt><trkpt lat="44.637331607021515" lon="8.277524465869726"><ele>391.0</ele><time>2026-05-03T10:44:34Z</time></trkpt><trkpt lat="44.63734793441524" lon="8.277367152244139"><ele>390.20000000000005</ele><time>2026-05-03T10:44:35Z</time></trkpt><trkpt lat="44.63735091176245" lon="8.277227655333194"><ele>389.40000000000003</ele><time>2026-05-03T10:44:36Z</time></trkpt><trkpt lat="44.6373970688277" lon="8.27708949797296"><ele>388.6</ele><time>2026-05-03T10:44:37Z</time></trkpt><trkpt lat="44.63741024231946" lon="8.276954296117557"><ele>387.8</ele><time>2026-05-03T10:44:38Z</time></trkpt><trkpt lat="44.63742262851291" lon="8.276833533591693"><ele>387.0</ele><time>2026-05-03T10:44:39Z</time></trkpt><trkpt lat="44.637449572625584" lon="8.276716961330523"><ele>387.0</ele><time>2026-05-03T10:44:40Z</time></trkpt><trkpt lat="44.63749633243704" lon="8.2766424453319"><ele>387.0</ele><time>2026-05-03T10:44:41Z</time></trkpt><trkpt lat="44.637549204676766" lon="8.276551431254997"><ele>387.0</ele><time>2026-05-03T10:44:42Z</time></trkpt><trkpt lat="44.637606512050205" lon="8.27646675247655"><ele>387.0</ele><time>2026-05-03T10:44:43Z</time></trkpt><trkpt lat="44.637671944452826" lon="8.27637333626316"><ele>387.0</ele><time>2026-05-03T10:44:44Z</time></trkpt><trkpt lat="44.63770533051995" lon="8.276253462690926"><ele>387.0</ele><time>2026-05-03T10:44:45Z</time></trkpt><trkpt lat="44.637777545493954" lon="8.276114319963794"><ele>383.8</ele><time>2026-05-03T10:44:46Z</time></trkpt><trkpt lat="44.63782913014005" lon="8.275993635896107"><ele>380.6</ele><time>2026-05-03T10:44:47Z</time></trkpt><trkpt lat="44.63787815239795" lon="8.27587333271441"><ele>377.40000000000003</ele><time>2026-05-03T10:44:48Z</time></trkpt><trkpt lat="44.63792733496137" lon="8.275766372470537"><ele>374.20000000000005</ele><time>2026-05-03T10:44:49Z</time></trkpt><trkpt lat="44.63797518919278" lon="8.275657378575604"><ele>371.0</ele><time>2026-05-03T10:44:50Z</time></trkpt><trkpt lat="44.63802133768454" lon="8.275532709551003"><ele>371.0</ele><time>2026-05-03T10:44:51Z</time></trkpt><trkpt lat="44.638073542016606" lon="8.275400382961937"><ele>371.0</ele><time>2026-05-03T10:44:52Z</time></trkpt><trkpt lat="44.638105562983576" lon="8.27525969221731"><ele>371.0</ele><time>2026-05-03T10:44:53Z</time></trkpt><trkpt lat="44.63814006018143" lon="8.27510965032489"><ele>371.0</ele><time>2026-05-03T10:44:54Z</time></trkpt><trkpt lat="44.63817536674668" lon="8.274957766193301"><ele>371.0</ele><time>2026-05-03T10:44:55Z</time></trkpt><trkpt lat="44.63821663593294" lon="8.274790194521838"><ele>371.0</ele><time>2026-05-03T10:44:56Z</time></trkpt><trkpt lat="44.63825953467135" lon="8.27463867675885"><ele>371.0</ele><time>2026-05-03T10:44:57Z</time></trkpt><trkpt lat="44.63828331498962" lon="8.274496171027561"><ele>371.0</ele><time>2026-05-03T10:44:58Z</time></trkpt><trkpt lat="44.63832287219397" lon="8.274369843262118"><ele>371.0</ele><time>2026-05-03T10:44:59Z</time></trkpt><trkpt lat="44.638388344705206" lon="8.27426710663963"><ele>371.0</ele><time>2026-05-03T10:45:00Z</time></trkpt><trkpt lat="44.63845133958906" lon="8.274173020871572"><ele>371.0</ele><time>2026-05-03T10:45:01Z</time></trkpt><trkpt lat="44.63851267856098" lon="8.27405948684383"><ele>371.0</ele><time>2026-05-03T10:45:02Z</time></trkpt><trkpt lat="44.63854836343231" lon="8.273952550304672"><ele>371.0</ele><time>2026-05-03T10:45:03Z</time></trkpt><trkpt lat="44.638586989656595" lon="8.273821213995081"><ele>371.0</ele><time>2026-05-03T10:45:04Z</time></trkpt><trkpt lat="44.638644487425026" lon="8.273685826787641"><ele>371.0</ele><time>2026-05-03T10:45:05Z</time></trkpt><trkpt lat="44.638676233875586" lon="8.273541801742892"><ele>367.20000000000005</ele><time>2026-05-03T10:45:06Z</time></trkpt><trkpt lat="44.638722994466406" lon="8.273410332178198"><ele>363.40000000000003</ele><time>2026-05-03T10:45:07Z</time></trkpt><trkpt lat="44.63875155683983" lon="8.2732499564976"><ele>359.6</ele><time>2026-05-03T10:45:08Z</time></trkpt><trkpt lat="44.63876499741737" lon="8.27308663358656"><ele>355.8</ele><time>2026-05-03T10:45:09Z</time></trkpt><trkpt lat="44.63876854488116" lon="8.27294976255114"><ele>352.0</ele><time>2026-05-03T10:45:10Z</time></trkpt><trkpt lat="44.63876883998127" lon="8.27281300711903"><ele>351.5</ele><time>2026-05-03T10:45:11Z</time></trkpt><trkpt lat="44.63875113624914" lon="8.272663803920016"><ele>351.0</ele><time>2026-05-03T10:45:12Z</time></trkpt><trkpt lat="44.63870391374179" lon="8.272503352779076"><ele>350.5</ele><time>2026-05-03T10:45:13Z</time></trkpt><trkpt lat="44.638659747195334" lon="8.272355623293755"><ele>350.0</ele><time>2026-05-03T10:45:13.999Z</time></trkpt><trkpt lat="44.638618786544896" lon="8.272182541697594"><ele>354.5</ele><time>2026-05-03T10:45:14.999Z</time></trkpt><trkpt lat="44.63858379901704" lon="8.271984792912535"><ele>359.0</ele><time>2026-05-03T10:45:15.999Z</time></trkpt><trkpt lat="44.63855261753817" lon="8.271791355747002"><ele>363.5</ele><time>2026-05-03T10:45:16.999Z</time></trkpt><trkpt lat="44.63852436494541" lon="8.271616088185496"><ele>368.0</ele><time>2026-05-03T10:45:17.999Z</time></trkpt><trkpt lat="44.638489760503916" lon="8.271437048402717"><ele>368.4</ele><time>2026-05-03T10:45:18.999Z</time></trkpt><trkpt lat="44.63844517507175" lon="8.27128694190973"><ele>368.79999999999995</ele><time>2026-05-03T10:45:19.999Z</time></trkpt><trkpt lat="44.63842679382981" lon="8.271124941819311"><ele>369.2</ele><time>2026-05-03T10:45:20.999Z</time></trkpt><trkpt lat="44.63840513858256" lon="8.27097967885473"><ele>369.6</ele><time>2026-05-03T10:45:21.999Z</time></trkpt><trkpt lat="44.63839249408172" lon="8.270854393865294"><ele>370.0</ele><time>2026-05-03T10:45:22.999Z</time></trkpt><trkpt lat="44.63840389741721" lon="8.270739906623355"><ele>370.0</ele><time>2026-05-03T10:45:23.999Z</time></trkpt><trkpt lat="44.638446295566936" lon="8.27063498058176"><ele>370.0</ele><time>2026-05-03T10:45:24.999Z</time></trkpt><trkpt lat="44.63851774380833" lon="8.270582524202826"><ele>370.0</ele><time>2026-05-03T10:45:25.999Z</time></trkpt><trkpt lat="44.638600650783204" lon="8.27055886328588"><ele>370.0</ele><time>2026-05-03T10:45:26.999Z</time></trkpt><trkpt lat="44.63867819498426" lon="8.270519952379288"><ele>370.0</ele><time>2026-05-03T10:45:27.999Z</time></trkpt><trkpt lat="44.638752416475675" lon="8.27044203345001"><ele>370.0</ele><time>2026-05-03T10:45:28.999Z</time></trkpt><trkpt lat="44.6388359455652" lon="8.270309485503994"><ele>367.5</ele><time>2026-05-03T10:45:29.999Z</time></trkpt><trkpt lat="44.63891258435844" lon="8.270185027220412"><ele>365.0</ele><time>2026-05-03T10:45:30.999Z</time></trkpt><trkpt lat="44.63899914538741" lon="8.270075826825805"><ele>362.5</ele><time>2026-05-03T10:45:31.999Z</time></trkpt><trkpt lat="44.639094096731185" lon="8.269929329372049"><ele>360.0</ele><time>2026-05-03T10:45:32.999Z</time></trkpt><trkpt lat="44.63918072233197" lon="8.269806312094602"><ele>364.0</ele><time>2026-05-03T10:45:33.999Z</time></trkpt><trkpt lat="44.63925214071393" lon="8.269696266647685"><ele>368.0</ele><time>2026-05-03T10:45:34.999Z</time></trkpt><trkpt lat="44.63932627215094" lon="8.26957606593318"><ele>372.0</ele><time>2026-05-03T10:45:35.999Z</time></trkpt><trkpt lat="44.63939072901599" lon="8.269439659675765"><ele>376.0</ele><time>2026-05-03T10:45:36.999Z</time></trkpt><trkpt lat="44.63946324878176" lon="8.26931169972504"><ele>370.5</ele><time>2026-05-03T10:45:37.999Z</time></trkpt><trkpt lat="44.6395181464297" lon="8.269138841379904"><ele>365.0</ele><time>2026-05-03T10:45:38.999Z</time></trkpt><trkpt lat="44.63957467688809" lon="8.268978898593575"><ele>359.5</ele><time>2026-05-03T10:45:40Z</time></trkpt><trkpt lat="44.63966116938695" lon="8.268799301385448"><ele>354.0</ele><time>2026-05-03T10:45:41Z</time></trkpt><trkpt lat="44.63972620620558" lon="8.268628928263603"><ele>354.0</ele><time>2026-05-03T10:45:42Z</time></trkpt><trkpt lat="44.639826710842314" lon="8.26845699426564"><ele>354.0</ele><time>2026-05-03T10:45:43Z</time></trkpt><trkpt lat="44.63990521938743" lon="8.268288740045444"><ele>354.0</ele><time>2026-05-03T10:45:44Z</time></trkpt><trkpt lat="44.63997893337201" lon="8.268161082231757"><ele>354.0</ele><time>2026-05-03T10:45:45Z</time></trkpt><trkpt lat="44.64005542611064" lon="8.268043180033553"><ele>357.2</ele><time>2026-05-03T10:45:46Z</time></trkpt><trkpt lat="44.640120751197784" lon="8.267922030940888"><ele>360.4</ele><time>2026-05-03T10:45:47Z</time></trkpt><trkpt lat="44.640179593365744" lon="8.267798728819375"><ele>363.6</ele><time>2026-05-03T10:45:48Z</time></trkpt><trkpt lat="44.64024184934403" lon="8.267704400803183"><ele>366.8</ele><time>2026-05-03T10:45:49Z</time></trkpt><trkpt lat="44.640303579724815" lon="8.267602878629258"><ele>370.0</ele><time>2026-05-03T10:45:50Z</time></trkpt><trkpt lat="44.640347730919856" lon="8.267507610090131"><ele>368.66666666666663</ele><time>2026-05-03T10:45:51Z</time></trkpt><trkpt lat="44.640360809931174" lon="8.267388795350614"><ele>367.3333333333333</ele><time>2026-05-03T10:45:52Z</time></trkpt><trkpt lat="44.64036687481229" lon="8.267274542497765"><ele>366.0</ele><time>2026-05-03T10:45:53Z</time></trkpt><trkpt lat="44.64035460511798" lon="8.267143222329382"><ele>364.6666666666667</ele><time>2026-05-03T10:45:54Z</time></trkpt><trkpt lat="44.640345760467994" lon="8.267036412475353"><ele>363.33333333333337</ele><time>2026-05-03T10:45:55Z</time></trkpt><trkpt lat="44.64030476622293" lon="8.266909451289738"><ele>362.0</ele><time>2026-05-03T10:45:56Z</time></trkpt><trkpt lat="44.64025624817882" lon="8.266763541181595"><ele>362.0</ele><time>2026-05-03T10:45:57Z</time></trkpt><trkpt lat="44.64019985130294" lon="8.266598955808664"><ele>362.0</ele><time>2026-05-03T10:45:58Z</time></trkpt><trkpt lat="44.640168795457164" lon="8.266431342772478"><ele>362.0</ele><time>2026-05-03T10:45:59Z</time></trkpt><trkpt lat="44.64012053329718" lon="8.266279206873563"><ele>362.0</ele><time>2026-05-03T10:46:00Z</time></trkpt><trkpt lat="44.64007070975485" lon="8.266152438903703"><ele>360.33333333333337</ele><time>2026-05-03T10:46:01Z</time></trkpt><trkpt lat="44.64002259773906" lon="8.26603995958581"><ele>358.6666666666667</ele><time>2026-05-03T10:46:02Z</time></trkpt><trkpt lat="44.64001098623739" lon="8.26594339440187"><ele>357.0</ele><time>2026-05-03T10:46:03Z</time></trkpt><trkpt lat="44.640014549045034" lon="8.265848717180212"><ele>355.3333333333333</ele><time>2026-05-03T10:46:04Z</time></trkpt><trkpt lat="44.64003917272999" lon="8.2657540450032"><ele>353.66666666666663</ele><time>2026-05-03T10:46:05Z</time></trkpt><trkpt lat="44.64005739557391" lon="8.265653126871157"><ele>352.0</ele><time>2026-05-03T10:46:06Z</time></trkpt><trkpt lat="44.64006354295141" lon="8.265527569296658"><ele>351.3333333333333</ele><time>2026-05-03T10:46:07Z</time></trkpt><trkpt lat="44.64008097050583" lon="8.265398972240746"><ele>350.66666666666663</ele><time>2026-05-03T10:46:08Z</time></trkpt><trkpt lat="44.64007865106258" lon="8.265269104891066"><ele>350.0</ele><time>2026-05-03T10:46:09Z</time></trkpt><trkpt lat="44.64005639098049" lon="8.265155689901293"><ele>349.3333333333333</ele><time>2026-05-03T10:46:10Z</time></trkpt><trkpt lat="44.64005175277798" lon="8.265065206298761"><ele>348.6666666666667</ele><time>2026-05-03T10:46:11Z</time></trkpt><trkpt lat="44.64003705514718" lon="8.264978652543956"><ele>348.0</ele><time>2026-05-03T10:46:12Z</time></trkpt><trkpt lat="44.640056477313145" lon="8.264856516020423"><ele>347.4</ele><time>2026-05-03T10:46:14Z</time></trkpt><trkpt lat="44.64012982939931" lon="8.264727917617392"><ele>346.79999999999995</ele><time>2026-05-03T10:46:16Z</time></trkpt><trkpt lat="44.640178423290116" lon="8.264665558047067"><ele>346.2</ele><time>2026-05-03T10:46:17Z</time></trkpt><trkpt lat="44.640269223227286" lon="8.264514626012236"><ele>345.6</ele><time>2026-05-03T10:46:19Z</time></trkpt><trkpt lat="44.640299026931366" lon="8.264414956222632"><ele>345.0</ele><time>2026-05-03T10:46:20Z</time></trkpt><trkpt lat="44.64037431676582" lon="8.264317047939569"><ele>342.1666666666667</ele><time>2026-05-03T10:46:22Z</time></trkpt><trkpt lat="44.64044803429232" lon="8.264156406985677"><ele>339.3333333333333</ele><time>2026-05-03T10:46:24Z</time></trkpt><trkpt lat="44.64048796932091" lon="8.264085976830552"><ele>336.5</ele><time>2026-05-03T10:46:25Z</time></trkpt><trkpt lat="44.64055054127328" lon="8.263977290152184"><ele>333.66666666666663</ele><time>2026-05-03T10:46:27Z</time></trkpt><trkpt lat="44.64061782456975" lon="8.26391717541509"><ele>330.8333333333333</ele><time>2026-05-03T10:46:29Z</time></trkpt><trkpt lat="44.64064962179028" lon="8.2638295731871"><ele>328.0</ele><time>2026-05-03T10:46:50Z</time></trkpt><trkpt lat="44.64061010427853" lon="8.26396386607196"><ele>327.99999999999994</ele><time>2026-05-03T10:46:54Z</time></trkpt><trkpt lat="44.64055538912415" lon="8.264040306532818"><ele>328.0</ele><time>2026-05-03T10:46:57Z</time></trkpt><trkpt lat="44.64059864735471" lon="8.26395850201356"><ele>328.0</ele><time>2026-05-03T10:48:05Z</time></trkpt><trkpt lat="44.64054562022555" lon="8.263896878247639"><ele>328.0</ele><time>2026-05-03T10:48:15Z</time></trkpt><trkpt lat="44.64046556145493" lon="8.263873253980075"><ele>328.0</ele><time>2026-05-03T10:52:13Z</time></trkpt><trkpt lat="44.640447176827955" lon="8.263785638399487"><ele>327.99999999999994</ele><time>2026-05-03T10:52:18Z</time></trkpt><trkpt lat="44.64038583765628" lon="8.263761832929415"><ele>328.0</ele><time>2026-05-03T10:52:23Z</time></trkpt><trkpt lat="44.64041923169722" lon="8.263675839615498"><ele>328.0</ele><time>2026-05-03T10:52:29Z</time></trkpt><trkpt lat="44.64045807064295" lon="8.263592933292047"><ele>328.0</ele><time>2026-05-03T10:52:34Z</time></trkpt><trkpt lat="44.6405037892453" lon="8.263514764259138"><ele>328.0</ele><time>2026-05-03T10:52:40Z</time></trkpt><trkpt lat="44.64065729081041" lon="8.263607888850528"><ele>328.0</ele><time>2026-05-03T10:54:00.015Z</time></trkpt><trkpt lat="44.64068754229109" lon="8.263690236210651"><ele>328.0</ele><time>2026-05-03T11:02:29.999Z</time></trkpt><trkpt lat="44.640648325065925" lon="8.263620986214752"><ele>328.0</ele><time>2026-05-03T11:06:46Z</time></trkpt><trkpt lat="44.640667495086475" lon="8.26351813288119"><ele>327.99999999999994</ele><time>2026-05-03T11:09:59Z</time></trkpt><trkpt lat="44.64067563102235" lon="8.263607527175676"><ele>328.0</ele><time>2026-05-03T11:19:01.999Z</time></trkpt><trkpt lat="44.640627913984176" lon="8.263669380690468"><ele>328.0</ele><time>2026-05-03T12:35:11Z</time></trkpt><trkpt lat="44.64060624203648" lon="8.263559963035744"><ele>328.0</ele><time>2026-05-03T12:38:43.999Z</time></trkpt><trkpt lat="44.64051133096048" lon="8.263541322487354"><ele>328.0</ele><time>2026-05-03T12:38:45.999Z</time></trkpt><trkpt lat="44.64044704513541" lon="8.26359473462577"><ele>327.99999999999994</ele><time>2026-05-03T12:38:52.999Z</time></trkpt><trkpt lat="44.640415803687794" lon="8.263675060619429"><ele>328.0</ele><time>2026-05-03T12:38:58.999Z</time></trkpt><trkpt lat="44.640426604871664" lon="8.26376247781839"><ele>327.99999999999994</ele><time>2026-05-03T12:39:08Z</time></trkpt><trkpt lat="44.64049657011177" lon="8.26380974326858"><ele>328.0</ele><time>2026-05-03T12:39:20Z</time></trkpt><trkpt lat="44.64055157202424" lon="8.263868563497956"><ele>328.0</ele><time>2026-05-03T12:39:28Z</time></trkpt><trkpt lat="44.6406242499519" lon="8.263875942997055"><ele>328.0</ele><time>2026-05-03T12:39:37Z</time></trkpt><trkpt lat="44.64066746753661" lon="8.263955797545764"><ele>328.0</ele><time>2026-05-03T12:39:45Z</time></trkpt><trkpt lat="44.64065964891118" lon="8.264049578023577"><ele>327.99999999999994</ele><time>2026-05-03T12:39:51Z</time></trkpt><trkpt lat="44.64059611336624" lon="8.264078722097405"><ele>328.0</ele><time>2026-05-03T12:39:57Z</time></trkpt><trkpt lat="44.640620043813406" lon="8.263990964417015"><ele>328.0</ele><time>2026-05-03T12:40:28.999Z</time></trkpt><trkpt lat="44.640725854215326" lon="8.263941616469804"><ele>328.0</ele><time>2026-05-03T12:40:41.999Z</time></trkpt><trkpt lat="44.640695137115614" lon="8.264031731630991"><ele>328.0</ele><time>2026-05-03T12:43:01.999Z</time></trkpt><trkpt lat="44.64063680686855" lon="8.264090843710202"><ele>328.0</ele><time>2026-05-03T12:43:08.999Z</time></trkpt><trkpt lat="44.64055303362857" lon="8.264102462082866"><ele>328.0</ele><time>2026-05-03T12:43:40Z</time></trkpt><trkpt lat="44.64056493550149" lon="8.264000401605536"><ele>328.0</ele><time>2026-05-03T12:45:11.999Z</time></trkpt><trkpt lat="44.64061873814872" lon="8.263942082363346"><ele>328.0</ele><time>2026-05-03T12:45:14.999Z</time></trkpt><trkpt lat="44.640630986256454" lon="8.263851550981759"><ele>328.0</ele><time>2026-05-03T12:45:20.999Z</time></trkpt><trkpt lat="44.64063907699768" lon="8.263740709734078"><ele>328.0</ele><time>2026-05-03T12:46:00Z</time></trkpt><trkpt lat="44.6406960240641" lon="8.263669947713678"><ele>328.0</ele><time>2026-05-03T12:46:03Z</time></trkpt><trkpt lat="44.640756153748896" lon="8.263564822458056"><ele>328.0</ele><time>2026-05-03T12:46:05Z</time></trkpt><trkpt lat="44.64082711168239" lon="8.26343604776714"><ele>328.0</ele><time>2026-05-03T12:46:07Z</time></trkpt><trkpt lat="44.640874918540426" lon="8.263269648055351"><ele>328.0</ele><time>2026-05-03T12:46:09Z</time></trkpt><trkpt lat="44.64087972035561" lon="8.263176885686827"><ele>328.0</ele><time>2026-05-03T12:46:10Z</time></trkpt><trkpt lat="44.6408977399185" lon="8.263053591603361"><ele>328.0</ele><time>2026-05-03T12:46:11Z</time></trkpt><trkpt lat="44.64089502667459" lon="8.262913860910333"><ele>328.0</ele><time>2026-05-03T12:46:12Z</time></trkpt><trkpt lat="44.640909518757425" lon="8.26280751179486"><ele>328.0</ele><time>2026-05-03T12:46:13Z</time></trkpt><trkpt lat="44.64089785367133" lon="8.262678072121522"><ele>328.0</ele><time>2026-05-03T12:46:14Z</time></trkpt><trkpt lat="44.64087760477248" lon="8.262557688513876"><ele>327.0</ele><time>2026-05-03T12:46:15Z</time></trkpt><trkpt lat="44.64084916574407" lon="8.262434414913042"><ele>326.0</ele><time>2026-05-03T12:46:16Z</time></trkpt><trkpt lat="44.64083794713113" lon="8.262310690035594"><ele>325.0</ele><time>2026-05-03T12:46:17Z</time></trkpt><trkpt lat="44.640843845967716" lon="8.26218072109323"><ele>324.0</ele><time>2026-05-03T12:46:18Z</time></trkpt><trkpt lat="44.640838510512665" lon="8.262050468504638"><ele>323.0</ele><time>2026-05-03T12:46:19Z</time></trkpt><trkpt lat="44.64083094321167" lon="8.26193391301794"><ele>321.5</ele><time>2026-05-03T12:46:20Z</time></trkpt><trkpt lat="44.64079663423956" lon="8.261814762539833"><ele>320.0</ele><time>2026-05-03T12:46:21Z</time></trkpt><trkpt lat="44.640759837852194" lon="8.261724571243619"><ele>318.5</ele><time>2026-05-03T12:46:22Z</time></trkpt><trkpt lat="44.64069252418433" lon="8.261614154737511"><ele>317.0</ele><time>2026-05-03T12:46:23Z</time></trkpt><trkpt lat="44.64062780523348" lon="8.26153423103314"><ele>315.5</ele><time>2026-05-03T12:46:24Z</time></trkpt><trkpt lat="44.64058513453447" lon="8.261419682083346"><ele>314.0</ele><time>2026-05-03T12:46:25Z</time></trkpt><trkpt lat="44.640541888177395" lon="8.261313254860957"><ele>311.4</ele><time>2026-05-03T12:46:26Z</time></trkpt><trkpt lat="44.64052768689862" lon="8.26121808838022"><ele>308.79999999999995</ele><time>2026-05-03T12:46:27Z</time></trkpt><trkpt lat="44.6405502290553" lon="8.261077494064363"><ele>306.20000000000005</ele><time>2026-05-03T12:46:28Z</time></trkpt><trkpt lat="44.64064102635842" lon="8.260988149516603"><ele>303.6</ele><time>2026-05-03T12:46:29Z</time></trkpt><trkpt lat="44.64071499669206" lon="8.260919597446502"><ele>301.0</ele><time>2026-05-03T12:46:30Z</time></trkpt><trkpt lat="44.64078574970802" lon="8.260807307118506"><ele>301.0</ele><time>2026-05-03T12:46:31Z</time></trkpt><trkpt lat="44.640865258471294" lon="8.260732505543212"><ele>301.0</ele><time>2026-05-03T12:46:32Z</time></trkpt><trkpt lat="44.640950326576494" lon="8.26062636394753"><ele>301.0</ele><time>2026-05-03T12:46:33Z</time></trkpt><trkpt lat="44.64102873557507" lon="8.26050438701851"><ele>301.0</ele><time>2026-05-03T12:46:34Z</time></trkpt><trkpt lat="44.641105770390105" lon="8.260362523024073"><ele>299.25</ele><time>2026-05-03T12:46:35Z</time></trkpt><trkpt lat="44.641177670482" lon="8.26021781532809"><ele>297.5</ele><time>2026-05-03T12:46:36Z</time></trkpt><trkpt lat="44.64124736287373" lon="8.260068850167546"><ele>295.75</ele><time>2026-05-03T12:46:37Z</time></trkpt><trkpt lat="44.64132034443272" lon="8.259928629388359"><ele>294.0</ele><time>2026-05-03T12:46:38Z</time></trkpt><trkpt lat="44.64139169676421" lon="8.259784664168007"><ele>294.0</ele><time>2026-05-03T12:46:39Z</time></trkpt><trkpt lat="44.64146455213571" lon="8.259654746142468"><ele>294.0</ele><time>2026-05-03T12:46:40Z</time></trkpt><trkpt lat="44.641539121176685" lon="8.259519771595041"><ele>294.0</ele><time>2026-05-03T12:46:41Z</time></trkpt><trkpt lat="44.641614679085954" lon="8.25938779445236"><ele>294.0</ele><time>2026-05-03T12:46:42Z</time></trkpt><trkpt lat="44.64169011466484" lon="8.25925749262325"><ele>294.0</ele><time>2026-05-03T12:46:43Z</time></trkpt><trkpt lat="44.64177315782659" lon="8.259138018885588"><ele>294.0</ele><time>2026-05-03T12:46:44Z</time></trkpt><trkpt lat="44.64185563255845" lon="8.259031558701162"><ele>294.0</ele><time>2026-05-03T12:46:45Z</time></trkpt><trkpt lat="44.641947277265" lon="8.258946457123164"><ele>294.0</ele><time>2026-05-03T12:46:46Z</time></trkpt><trkpt lat="44.64204016728728" lon="8.258851529767163"><ele>294.4</ele><time>2026-05-03T12:46:47Z</time></trkpt><trkpt lat="44.64212310469375" lon="8.258760941515385"><ele>294.79999999999995</ele><time>2026-05-03T12:46:48Z</time></trkpt><trkpt lat="44.642205138275585" lon="8.258683843603349"><ele>295.20000000000005</ele><time>2026-05-03T12:46:49Z</time></trkpt><trkpt lat="44.64228682385133" lon="8.258597547155775"><ele>295.6</ele><time>2026-05-03T12:46:50Z</time></trkpt><trkpt lat="44.64237268140038" lon="8.258519244166715"><ele>296.0</ele><time>2026-05-03T12:46:51Z</time></trkpt><trkpt lat="44.642460104695104" lon="8.25845441895736"><ele>296.0</ele><time>2026-05-03T12:46:52Z</time></trkpt><trkpt lat="44.64255003354571" lon="8.258412339986487"><ele>296.0</ele><time>2026-05-03T12:46:53Z</time></trkpt><trkpt lat="44.64263191150158" lon="8.25836070575469"><ele>296.0</ele><time>2026-05-03T12:46:54Z</time></trkpt><trkpt lat="44.64270497168074" lon="8.258284623862636"><ele>296.0</ele><time>2026-05-03T12:46:55Z</time></trkpt><trkpt lat="44.6427788435647" lon="8.258235967616189"><ele>296.0</ele><time>2026-05-03T12:46:56Z</time></trkpt><trkpt lat="44.642848460317964" lon="8.258191237753115"><ele>296.0</ele><time>2026-05-03T12:46:57Z</time></trkpt><trkpt lat="44.64291266636506" lon="8.258126310021355"><ele>295.0</ele><time>2026-05-03T12:46:58Z</time></trkpt><trkpt lat="44.642977069036334" lon="8.25805824512499"><ele>294.0</ele><time>2026-05-03T12:46:59Z</time></trkpt><trkpt lat="44.64303970409159" lon="8.257991194656105"><ele>293.0</ele><time>2026-05-03T12:47:00Z</time></trkpt><trkpt lat="44.64309856139161" lon="8.257920232927747"><ele>292.0</ele><time>2026-05-03T12:47:01Z</time></trkpt><trkpt lat="44.643154838078466" lon="8.257837307214809"><ele>291.0</ele><time>2026-05-03T12:47:02Z</time></trkpt><trkpt lat="44.64319549119483" lon="8.257751542920655"><ele>290.0</ele><time>2026-05-03T12:47:03Z</time></trkpt><trkpt lat="44.643240207421215" lon="8.257672306945793"><ele>290.0</ele><time>2026-05-03T12:47:03.999Z</time></trkpt><trkpt lat="44.64329111987655" lon="8.257568552638231"><ele>290.0</ele><time>2026-05-03T12:47:04.999Z</time></trkpt><trkpt lat="44.64334356672972" lon="8.257464160904403"><ele>290.0</ele><time>2026-05-03T12:47:05.999Z</time></trkpt><trkpt lat="44.6433915848757" lon="8.2573628782031"><ele>290.0</ele><time>2026-05-03T12:47:06.999Z</time></trkpt><trkpt lat="44.64345846219994" lon="8.257250069315822"><ele>290.0</ele><time>2026-05-03T12:47:07.999Z</time></trkpt><trkpt lat="44.64351025725289" lon="8.257142740646593"><ele>289.33333333333337</ele><time>2026-05-03T12:47:08.999Z</time></trkpt><trkpt lat="44.6435892512594" lon="8.257060744669868"><ele>288.6666666666667</ele><time>2026-05-03T12:47:09.999Z</time></trkpt><trkpt lat="44.64367777215631" lon="8.25698447485981"><ele>288.0</ele><time>2026-05-03T12:47:10.999Z</time></trkpt><trkpt lat="44.643754578607236" lon="8.25694402025875"><ele>287.3333333333333</ele><time>2026-05-03T12:47:11.999Z</time></trkpt><trkpt lat="44.643826394229635" lon="8.256929712105345"><ele>286.66666666666663</ele><time>2026-05-03T12:47:12.999Z</time></trkpt><trkpt lat="44.64388794094092" lon="8.256950087305741"><ele>286.0</ele><time>2026-05-03T12:47:13.999Z</time></trkpt><trkpt lat="44.64393547570315" lon="8.25703585974068"><ele>285.16666666666663</ele><time>2026-05-03T12:47:14.999Z</time></trkpt><trkpt lat="44.64396407121753" lon="8.257149611160658"><ele>284.3333333333333</ele><time>2026-05-03T12:47:15.999Z</time></trkpt><trkpt lat="44.64399550827395" lon="8.25726460545838"><ele>283.5</ele><time>2026-05-03T12:47:16.999Z</time></trkpt><trkpt lat="44.64404642466456" lon="8.257357747756268"><ele>282.6666666666667</ele><time>2026-05-03T12:47:17.999Z</time></trkpt><trkpt lat="44.64411295628312" lon="8.257388851401673"><ele>281.83333333333337</ele><time>2026-05-03T12:47:18.999Z</time></trkpt><trkpt lat="44.644183473778426" lon="8.257357733146108"><ele>281.0</ele><time>2026-05-03T12:47:19.999Z</time></trkpt><trkpt lat="44.64424085786074" lon="8.257273731572297"><ele>281.0</ele><time>2026-05-03T12:47:20.999Z</time></trkpt><trkpt lat="44.64427381730226" lon="8.25716080066982"><ele>281.0</ele><time>2026-05-03T12:47:21.999Z</time></trkpt><trkpt lat="44.644305713799696" lon="8.257045261024134"><ele>281.0</ele><time>2026-05-03T12:47:22.999Z</time></trkpt><trkpt lat="44.644331416757" lon="8.25694472966989"><ele>281.0</ele><time>2026-05-03T12:47:23.999Z</time></trkpt><trkpt lat="44.64437208959497" lon="8.25683313267439"><ele>281.0</ele><time>2026-05-03T12:47:24.999Z</time></trkpt><trkpt lat="44.64443297238817" lon="8.256716704635563"><ele>281.0</ele><time>2026-05-03T12:47:25.999Z</time></trkpt><trkpt lat="44.64450275435959" lon="8.25662083457597"><ele>277.6</ele><time>2026-05-03T12:47:26.999Z</time></trkpt><trkpt lat="44.644594922871256" lon="8.256558357179866"><ele>274.20000000000005</ele><time>2026-05-03T12:47:27.999Z</time></trkpt><trkpt lat="44.64467510389776" lon="8.256501650474378"><ele>270.79999999999995</ele><time>2026-05-03T12:47:28.999Z</time></trkpt><trkpt lat="44.64473034880504" lon="8.256392388315486"><ele>267.4</ele><time>2026-05-03T12:47:29.999Z</time></trkpt><trkpt lat="44.64474834307099" lon="8.2562596062216"><ele>264.0</ele><time>2026-05-03T12:47:30.999Z</time></trkpt><trkpt lat="44.64474783111126" lon="8.256099986836523"><ele>264.0</ele><time>2026-05-03T12:47:32Z</time></trkpt><trkpt lat="44.64475463901336" lon="8.255955702853498"><ele>264.0</ele><time>2026-05-03T12:47:33Z</time></trkpt><trkpt lat="44.64475404851646" lon="8.25580749095057"><ele>264.0</ele><time>2026-05-03T12:47:34Z</time></trkpt><trkpt lat="44.64475562072907" lon="8.255672794661924"><ele>264.0</ele><time>2026-05-03T12:47:35Z</time></trkpt><trkpt lat="44.64475918308801" lon="8.255528948230468"><ele>264.0</ele><time>2026-05-03T12:47:36Z</time></trkpt><trkpt lat="44.64475432938676" lon="8.255384273647891"><ele>264.0</ele><time>2026-05-03T12:47:37Z</time></trkpt><trkpt lat="44.64480147978345" lon="8.25525044527047"><ele>264.0</ele><time>2026-05-03T12:47:38Z</time></trkpt><trkpt lat="44.644848668211665" lon="8.255137145957795"><ele>264.0</ele><time>2026-05-03T12:47:39Z</time></trkpt><trkpt lat="44.6449151697386" lon="8.255043999884439"><ele>264.0</ele><time>2026-05-03T12:47:40Z</time></trkpt><trkpt lat="44.64499067922254" lon="8.254955429419102"><ele>264.0</ele><time>2026-05-03T12:47:41Z</time></trkpt><trkpt lat="44.645062284234726" lon="8.254864914995899"><ele>262.8</ele><time>2026-05-03T12:47:42Z</time></trkpt><trkpt lat="44.645130056026275" lon="8.254767964696784"><ele>261.59999999999997</ele><time>2026-05-03T12:47:43Z</time></trkpt><trkpt lat="44.64521785593822" lon="8.254696702381734"><ele>260.4</ele><time>2026-05-03T12:47:44Z</time></trkpt><trkpt lat="44.645297932524585" lon="8.254615589301919"><ele>259.2</ele><time>2026-05-03T12:47:45Z</time></trkpt><trkpt lat="44.64538255620077" lon="8.254551072853014"><ele>258.0</ele><time>2026-05-03T12:47:46Z</time></trkpt><trkpt lat="44.64548177266621" lon="8.254483906879367"><ele>258.0</ele><time>2026-05-03T12:47:47Z</time></trkpt><trkpt lat="44.64557750312766" lon="8.254422475700311"><ele>258.0</ele><time>2026-05-03T12:47:48Z</time></trkpt><trkpt lat="44.64567671788617" lon="8.254374659839423"><ele>258.0</ele><time>2026-05-03T12:47:49Z</time></trkpt><trkpt lat="44.64576365843726" lon="8.254344428701842"><ele>258.0</ele><time>2026-05-03T12:47:50Z</time></trkpt><trkpt lat="44.64585338849331" lon="8.254312608572809"><ele>258.0</ele><time>2026-05-03T12:47:51Z</time></trkpt><trkpt lat="44.64594232469118" lon="8.254272170882794"><ele>258.0</ele><time>2026-05-03T12:47:52Z</time></trkpt><trkpt lat="44.64603981541714" lon="8.254301999261363"><ele>258.0</ele><time>2026-05-03T12:47:53Z</time></trkpt><trkpt lat="44.64613410928152" lon="8.254360143335886"><ele>258.0</ele><time>2026-05-03T12:47:54Z</time></trkpt><trkpt lat="44.64622597344728" lon="8.254412161434237"><ele>258.0</ele><time>2026-05-03T12:47:55Z</time></trkpt><trkpt lat="44.646320453088435" lon="8.254492006661524"><ele>258.0</ele><time>2026-05-03T12:47:56Z</time></trkpt><trkpt lat="44.64642234590247" lon="8.254577102084133"><ele>257.4</ele><time>2026-05-03T12:47:57Z</time></trkpt><trkpt lat="44.64651838543795" lon="8.254652527740962"><ele>256.8</ele><time>2026-05-03T12:47:58Z</time></trkpt><trkpt lat="44.64660716013256" lon="8.254717295315055"><ele>256.2</ele><time>2026-05-03T12:47:59Z</time></trkpt><trkpt lat="44.6467044587374" lon="8.254800922137754"><ele>255.6</ele><time>2026-05-03T12:48:00Z</time></trkpt><trkpt lat="44.64679818394064" lon="8.254865961069587"><ele>255.0</ele><time>2026-05-03T12:48:01Z</time></trkpt><trkpt lat="44.64689796603038" lon="8.25490687925411"><ele>254.4</ele><time>2026-05-03T12:48:02Z</time></trkpt><trkpt lat="44.64699992442639" lon="8.2549039468037"><ele>253.8</ele><time>2026-05-03T12:48:03Z</time></trkpt><trkpt lat="44.647093174435376" lon="8.254859170233438"><ele>253.2</ele><time>2026-05-03T12:48:04Z</time></trkpt><trkpt lat="44.647189933055614" lon="8.254809079937386"><ele>252.6</ele><time>2026-05-03T12:48:05Z</time></trkpt><trkpt lat="44.64729880995361" lon="8.254740569069606"><ele>252.0</ele><time>2026-05-03T12:48:06Z</time></trkpt><trkpt lat="44.647375854909896" lon="8.254665912950763"><ele>251.39999999999998</ele><time>2026-05-03T12:48:07Z</time></trkpt><trkpt lat="44.64748146819381" lon="8.254611250631608"><ele>250.79999999999998</ele><time>2026-05-03T12:48:08Z</time></trkpt><trkpt lat="44.64758712348941" lon="8.25453226085022"><ele>250.2</ele><time>2026-05-03T12:48:09Z</time></trkpt><trkpt lat="44.64767566210824" lon="8.2544768936365"><ele>249.6</ele><time>2026-05-03T12:48:10Z</time></trkpt><trkpt lat="44.647761749403735" lon="8.254446164997285"><ele>249.0</ele><time>2026-05-03T12:48:11Z</time></trkpt><trkpt lat="44.647872441341434" lon="8.254470769600218"><ele>247.79999999999998</ele><time>2026-05-03T12:48:12Z</time></trkpt><trkpt lat="44.64795120713102" lon="8.25459308125403"><ele>246.59999999999997</ele><time>2026-05-03T12:48:13Z</time></trkpt><trkpt lat="44.64799255579004" lon="8.254674233622875"><ele>245.4</ele><time>2026-05-03T12:48:14Z</time></trkpt><trkpt lat="44.64803812699739" lon="8.254801195523784"><ele>244.2</ele><time>2026-05-03T12:48:15Z</time></trkpt><trkpt lat="44.648083163451616" lon="8.254929630351908"><ele>243.0</ele><time>2026-05-03T12:48:16Z</time></trkpt><trkpt lat="44.648141445869996" lon="8.25505908783553"><ele>242.75</ele><time>2026-05-03T12:48:17Z</time></trkpt><trkpt lat="44.6482103615613" lon="8.255195631614862"><ele>242.5</ele><time>2026-05-03T12:48:18Z</time></trkpt><trkpt lat="44.648279032533964" lon="8.25531423037619"><ele>242.25</ele><time>2026-05-03T12:48:19Z</time></trkpt><trkpt lat="44.6483576459128" lon="8.255424465776667"><ele>242.0</ele><time>2026-05-03T12:48:20Z</time></trkpt><trkpt lat="44.648440046744234" lon="8.255533481509113"><ele>242.39999999999998</ele><time>2026-05-03T12:48:21Z</time></trkpt><trkpt lat="44.648504932888805" lon="8.255637663975985"><ele>242.79999999999998</ele><time>2026-05-03T12:48:22Z</time></trkpt><trkpt lat="44.648567054495224" lon="8.255761153787832"><ele>243.2</ele><time>2026-05-03T12:48:23Z</time></trkpt><trkpt lat="44.64859739892751" lon="8.255902049895575"><ele>243.6</ele><time>2026-05-03T12:48:24Z</time></trkpt><trkpt lat="44.64860357274791" lon="8.256044618477068"><ele>244.0</ele><time>2026-05-03T12:48:25Z</time></trkpt><trkpt lat="44.648597007570444" lon="8.256188989923805"><ele>244.0</ele><time>2026-05-03T12:48:26Z</time></trkpt><trkpt lat="44.64858608860762" lon="8.256338910526496"><ele>243.99999999999997</ele><time>2026-05-03T12:48:27Z</time></trkpt><trkpt lat="44.64858009773598" lon="8.256485440498325"><ele>243.99999999999997</ele><time>2026-05-03T12:48:28Z</time></trkpt><trkpt lat="44.64856111362868" lon="8.256620618674411"><ele>244.0</ele><time>2026-05-03T12:48:29Z</time></trkpt><trkpt lat="44.648582713957644" lon="8.256732207681099"><ele>244.0</ele><time>2026-05-03T12:48:30Z</time></trkpt><trkpt lat="44.64866468002761" lon="8.256792523141241"><ele>240.83333333333331</ele><time>2026-05-03T12:48:31Z</time></trkpt><trkpt lat="44.6487277908795" lon="8.256796593343228"><ele>237.66666666666666</ele><time>2026-05-03T12:48:32Z</time></trkpt><trkpt lat="44.648793978650936" lon="8.256755437276567"><ele>234.5</ele><time>2026-05-03T12:48:33Z</time></trkpt><trkpt lat="44.64884091469793" lon="8.2566683499678"><ele>231.33333333333331</ele><time>2026-05-03T12:48:34Z</time></trkpt><trkpt lat="44.64886173449922" lon="8.256562352653557"><ele>228.16666666666666</ele><time>2026-05-03T12:48:35Z</time></trkpt><trkpt lat="44.648874294313764" lon="8.256453094082522"><ele>225.0</ele><time>2026-05-03T12:48:36Z</time></trkpt><trkpt lat="44.64890541862565" lon="8.256348075890346"><ele>224.8</ele><time>2026-05-03T12:48:37Z</time></trkpt><trkpt lat="44.64893410843393" lon="8.256227809431815"><ele>224.6</ele><time>2026-05-03T12:48:38Z</time></trkpt><trkpt lat="44.648959896101125" lon="8.256083047369785"><ele>224.39999999999998</ele><time>2026-05-03T12:48:39Z</time></trkpt><trkpt lat="44.648987844999866" lon="8.255934152216659"><ele>224.2</ele><time>2026-05-03T12:48:40Z</time></trkpt><trkpt lat="44.64900657221116" lon="8.255764373778826"><ele>224.0</ele><time>2026-05-03T12:48:41Z</time></trkpt><trkpt lat="44.64899588055332" lon="8.255617141886077"><ele>224.0</ele><time>2026-05-03T12:48:42Z</time></trkpt><trkpt lat="44.64895487783316" lon="8.25548146859687"><ele>223.99999999999997</ele><time>2026-05-03T12:48:43Z</time></trkpt><trkpt lat="44.648891682461695" lon="8.255362331695247"><ele>223.99999999999997</ele><time>2026-05-03T12:48:44Z</time></trkpt><trkpt lat="44.648858348151556" lon="8.25524920620823"><ele>224.0</ele><time>2026-05-03T12:48:45Z</time></trkpt><trkpt lat="44.64880468237167" lon="8.25510314807171"><ele>224.0</ele><time>2026-05-03T12:48:46Z</time></trkpt><trkpt lat="44.64877644079367" lon="8.254955285098076"><ele>224.0</ele><time>2026-05-03T12:48:47Z</time></trkpt><trkpt lat="44.648802574805885" lon="8.254815082400821"><ele>223.99999999999997</ele><time>2026-05-03T12:48:48Z</time></trkpt><trkpt lat="44.64882406109258" lon="8.254670247448574"><ele>223.99999999999997</ele><time>2026-05-03T12:48:49Z</time></trkpt><trkpt lat="44.648859166654596" lon="8.25451818466792"><ele>224.0</ele><time>2026-05-03T12:48:50Z</time></trkpt><trkpt lat="44.64886793582576" lon="8.254341957626275"><ele>224.0</ele><time>2026-05-03T12:48:51Z</time></trkpt><trkpt lat="44.64889869633154" lon="8.254179432054153"><ele>224.0</ele><time>2026-05-03T12:48:52Z</time></trkpt><trkpt lat="44.64893120669092" lon="8.25401428365655"><ele>224.0</ele><time>2026-05-03T12:48:53Z</time></trkpt><trkpt lat="44.64896101882982" lon="8.253835059071621"><ele>224.0</ele><time>2026-05-03T12:48:54Z</time></trkpt><trkpt lat="44.64899354984859" lon="8.253678702913094"><ele>224.0</ele><time>2026-05-03T12:48:55Z</time></trkpt><trkpt lat="44.64902301709401" lon="8.25349334340566"><ele>224.0</ele><time>2026-05-03T12:48:56Z</time></trkpt><trkpt lat="44.6490573812162" lon="8.253332016126457"><ele>224.0</ele><time>2026-05-03T12:48:57Z</time></trkpt><trkpt lat="44.6490918468337" lon="8.253158633141428"><ele>224.0</ele><time>2026-05-03T12:48:58Z</time></trkpt><trkpt lat="44.64913267285824" lon="8.253017835047789"><ele>224.0</ele><time>2026-05-03T12:48:59Z</time></trkpt><trkpt lat="44.64916158666731" lon="8.252859414731246"><ele>223.39999999999998</ele><time>2026-05-03T12:49:00Z</time></trkpt><trkpt lat="44.64918598878226" lon="8.252709287700208"><ele>222.79999999999998</ele><time>2026-05-03T12:49:01Z</time></trkpt><trkpt lat="44.64920590868422" lon="8.252553232827916"><ele>222.20000000000002</ele><time>2026-05-03T12:49:02Z</time></trkpt><trkpt lat="44.64921511715702" lon="8.252413806823807"><ele>221.60000000000002</ele><time>2026-05-03T12:49:03Z</time></trkpt><trkpt lat="44.64921501230436" lon="8.25229501731599"><ele>221.0</ele><time>2026-05-03T12:49:04Z</time></trkpt><trkpt lat="44.64921314021034" lon="8.252152000481336"><ele>220.00000000000003</ele><time>2026-05-03T12:49:05Z</time></trkpt><trkpt lat="44.64919801270466" lon="8.252055894866904"><ele>219.0</ele><time>2026-05-03T12:49:06Z</time></trkpt><trkpt lat="44.649153755448005" lon="8.251934277655346"><ele>218.0</ele><time>2026-05-03T12:49:08Z</time></trkpt><trkpt lat="44.64909957312721" lon="8.251874795286204"><ele>217.0</ele><time>2026-05-03T12:49:09Z</time></trkpt><trkpt lat="44.64904002397542" lon="8.25182194896536"><ele>216.00000000000003</ele><time>2026-05-03T12:49:10Z</time></trkpt><trkpt lat="44.64896283423553" lon="8.251777826014033"><ele>215.0</ele><time>2026-05-03T12:49:11Z</time></trkpt><trkpt lat="44.64888186962536" lon="8.25175643663114"><ele>215.0</ele><time>2026-05-03T12:49:12Z</time></trkpt><trkpt lat="44.64880957638516" lon="8.251602835502844"><ele>215.0</ele><time>2026-05-03T12:49:13Z</time></trkpt><trkpt lat="44.64879820562185" lon="8.251465606874067"><ele>215.0</ele><time>2026-05-03T12:49:14Z</time></trkpt><trkpt lat="44.64877349329422" lon="8.251324428607102"><ele>215.0</ele><time>2026-05-03T12:49:15Z</time></trkpt><trkpt lat="44.648756604518766" lon="8.251169341785783"><ele>215.0</ele><time>2026-05-03T12:49:16Z</time></trkpt><trkpt lat="44.64873639044289" lon="8.250982906736528"><ele>214.6</ele><time>2026-05-03T12:49:17Z</time></trkpt><trkpt lat="44.648722736863874" lon="8.250813489604102"><ele>214.2</ele><time>2026-05-03T12:49:18Z</time></trkpt><trkpt lat="44.64871096612366" lon="8.250664408247438"><ele>213.8</ele><time>2026-05-03T12:49:18.999Z</time></trkpt><trkpt lat="44.648693829551576" lon="8.25051973748246"><ele>213.4</ele><time>2026-05-03T12:49:19.999Z</time></trkpt><trkpt lat="44.64867446575149" lon="8.250364055470543"><ele>213.0</ele><time>2026-05-03T12:49:20.999Z</time></trkpt><trkpt lat="44.64866764921087" lon="8.250222213838269"><ele>212.33333333333334</ele><time>2026-05-03T12:49:21.999Z</time></trkpt><trkpt lat="44.648665099900214" lon="8.250096403350609"><ele>211.66666666666669</ele><time>2026-05-03T12:49:22.999Z</time></trkpt><trkpt lat="44.64869388682033" lon="8.250005333569723"><ele>211.0</ele><time>2026-05-03T12:49:23.999Z</time></trkpt><trkpt lat="44.64873599816872" lon="8.249925322935185"><ele>210.33333333333334</ele><time>2026-05-03T12:49:24.999Z</time></trkpt><trkpt lat="44.64879008593453" lon="8.249859043239681"><ele>209.66666666666669</ele><time>2026-05-03T12:49:25.999Z</time></trkpt><trkpt lat="44.64885182905442" lon="8.249782832103154"><ele>209.0</ele><time>2026-05-03T12:49:26.999Z</time></trkpt><trkpt lat="44.648899453965214" lon="8.249708518664328"><ele>208.0</ele><time>2026-05-03T12:49:27.999Z</time></trkpt><trkpt lat="44.64896255020583" lon="8.249668471590745"><ele>207.0</ele><time>2026-05-03T12:49:28.999Z</time></trkpt><trkpt lat="44.649079620513724" lon="8.249590103408847"><ele>206.0</ele><time>2026-05-03T12:49:30.999Z</time></trkpt><trkpt lat="44.64916709992905" lon="8.24958373953374"><ele>205.0</ele><time>2026-05-03T12:49:31.999Z</time></trkpt><trkpt lat="44.64923410519913" lon="8.249551712972018"><ele>204.0</ele><time>2026-05-03T12:49:32.999Z</time></trkpt><trkpt lat="44.6492588235746" lon="8.249382246250407"><ele>204.0</ele><time>2026-05-03T12:49:34.999Z</time></trkpt><trkpt lat="44.64925473367995" lon="8.249253491667005"><ele>204.0</ele><time>2026-05-03T12:49:35.999Z</time></trkpt><trkpt lat="44.649242816736255" lon="8.249162222772297"><ele>204.0</ele><time>2026-05-03T12:49:36.999Z</time></trkpt><trkpt lat="44.649236957263994" lon="8.248997859425195"><ele>204.0</ele><time>2026-05-03T12:49:38Z</time></trkpt><trkpt lat="44.64922938280465" lon="8.248857846678476"><ele>204.0</ele><time>2026-05-03T12:49:39Z</time></trkpt><trkpt lat="44.64921784158359" lon="8.248713728405754"><ele>204.0</ele><time>2026-05-03T12:49:40Z</time></trkpt><trkpt lat="44.64921129680407" lon="8.248563483283974"><ele>204.0</ele><time>2026-05-03T12:49:41Z</time></trkpt><trkpt lat="44.649202800497065" lon="8.248402316533001"><ele>204.0</ele><time>2026-05-03T12:49:42Z</time></trkpt><trkpt lat="44.64919655009226" lon="8.248245156565678"><ele>204.0</ele><time>2026-05-03T12:49:43Z</time></trkpt><trkpt lat="44.64919495071997" lon="8.248092529081559"><ele>204.0</ele><time>2026-05-03T12:49:44Z</time></trkpt><trkpt lat="44.64918843074123" lon="8.247935212912756"><ele>205.25</ele><time>2026-05-03T12:49:45Z</time></trkpt><trkpt lat="44.64917767418976" lon="8.247769897982392"><ele>206.5</ele><time>2026-05-03T12:49:46Z</time></trkpt><trkpt lat="44.64916880693821" lon="8.247590580398885"><ele>207.75</ele><time>2026-05-03T12:49:47Z</time></trkpt><trkpt lat="44.6491754548431" lon="8.247421727184427"><ele>209.0</ele><time>2026-05-03T12:49:48Z</time></trkpt><trkpt lat="44.64917027600413" lon="8.247256545457244"><ele>210.0</ele><time>2026-05-03T12:49:49Z</time></trkpt><trkpt lat="44.64914883849368" lon="8.247095771086212"><ele>211.0</ele><time>2026-05-03T12:49:50Z</time></trkpt><trkpt lat="44.64915528418059" lon="8.246932754389556"><ele>212.0</ele><time>2026-05-03T12:49:51Z</time></trkpt><trkpt lat="44.64915654233732" lon="8.246761952928448"><ele>213.0</ele><time>2026-05-03T12:49:52Z</time></trkpt><trkpt lat="44.649154119831934" lon="8.246611909430108"><ele>214.0</ele><time>2026-05-03T12:49:53Z</time></trkpt><trkpt lat="44.649144512796255" lon="8.246450316916944"><ele>215.0</ele><time>2026-05-03T12:49:54Z</time></trkpt><trkpt lat="44.64913619729648" lon="8.246295733416298"><ele>216.0</ele><time>2026-05-03T12:49:55Z</time></trkpt><trkpt lat="44.64912665295304" lon="8.246146843745429"><ele>217.0</ele><time>2026-05-03T12:49:56Z</time></trkpt><trkpt lat="44.64911668726825" lon="8.246010643094172"><ele>218.0</ele><time>2026-05-03T12:49:57Z</time></trkpt><trkpt lat="44.64910694731002" lon="8.245878084562058"><ele>218.0</ele><time>2026-05-03T12:49:58Z</time></trkpt><trkpt lat="44.64909334667974" lon="8.245762509638878"><ele>218.0</ele><time>2026-05-03T12:49:59Z</time></trkpt><trkpt lat="44.64908227956883" lon="8.245568811181963"><ele>218.0</ele><time>2026-05-03T12:50:01Z</time></trkpt><trkpt lat="44.64906965035517" lon="8.245435502063518"><ele>218.0</ele><time>2026-05-03T12:50:03Z</time></trkpt><trkpt lat="44.64907834920044" lon="8.245347661669989"><ele>218.0</ele><time>2026-05-03T12:50:05Z</time></trkpt><trkpt lat="44.64907902953921" lon="8.245237137484722"><ele>218.66666666666669</ele><time>2026-05-03T12:50:26Z</time></trkpt><trkpt lat="44.64907886431812" lon="8.245081902349323"><ele>219.33333333333334</ele><time>2026-05-03T12:50:28Z</time></trkpt><trkpt lat="44.64907459507682" lon="8.244976288901425"><ele>220.0</ele><time>2026-05-03T12:50:29Z</time></trkpt><trkpt lat="44.649068331316364" lon="8.24486083205992"><ele>220.66666666666669</ele><time>2026-05-03T12:50:30Z</time></trkpt><trkpt lat="44.64904941453965" lon="8.244744733791029"><ele>221.33333333333334</ele><time>2026-05-03T12:50:31Z</time></trkpt><trkpt lat="44.64906298353489" lon="8.244641157919919"><ele>222.0</ele><time>2026-05-03T12:50:32Z</time></trkpt><trkpt lat="44.64905998653207" lon="8.244505003076197"><ele>224.33333333333334</ele><time>2026-05-03T12:50:33Z</time></trkpt><trkpt lat="44.64905093147703" lon="8.244388066272467"><ele>226.66666666666669</ele><time>2026-05-03T12:50:34Z</time></trkpt><trkpt lat="44.6490433107759" lon="8.244270092823863"><ele>229.0</ele><time>2026-05-03T12:50:35Z</time></trkpt><trkpt lat="44.649027744706395" lon="8.244149302084635"><ele>231.33333333333334</ele><time>2026-05-03T12:50:36Z</time></trkpt><trkpt lat="44.648999269375786" lon="8.244031309103187"><ele>233.66666666666669</ele><time>2026-05-03T12:50:37Z</time></trkpt><trkpt lat="44.6489708730663" lon="8.243922758643652"><ele>236.0</ele><time>2026-05-03T12:50:38Z</time></trkpt><trkpt lat="44.648926480739654" lon="8.243815365505148"><ele>235.60000000000002</ele><time>2026-05-03T12:50:39Z</time></trkpt><trkpt lat="44.648868768154486" lon="8.243725144820731"><ele>235.20000000000002</ele><time>2026-05-03T12:50:40Z</time></trkpt><trkpt lat="44.6487978870476" lon="8.24363901897344"><ele>234.79999999999998</ele><time>2026-05-03T12:50:41Z</time></trkpt><trkpt lat="44.64873776802209" lon="8.24354157677634"><ele>234.39999999999998</ele><time>2026-05-03T12:50:42Z</time></trkpt><trkpt lat="44.64866411077922" lon="8.24343801939154"><ele>234.0</ele><time>2026-05-03T12:50:43Z</time></trkpt><trkpt lat="44.64858866352478" lon="8.243334935476781"><ele>234.0</ele><time>2026-05-03T12:50:44Z</time></trkpt><trkpt lat="44.64851596375523" lon="8.243238045031855"><ele>233.99999999999997</ele><time>2026-05-03T12:50:45Z</time></trkpt><trkpt lat="44.6484308781839" lon="8.243137151703595"><ele>233.99999999999997</ele><time>2026-05-03T12:50:47Z</time></trkpt><trkpt lat="44.64838756798287" lon="8.24306587799617"><ele>234.0</ele><time>2026-05-03T12:50:50Z</time></trkpt><trkpt lat="44.6485067487062" lon="8.243080133354425"><ele>234.0</ele><time>2026-05-03T12:50:54Z</time></trkpt><trkpt lat="44.64859870215399" lon="8.243115219140169"><ele>238.2</ele><time>2026-05-03T12:50:56Z</time></trkpt><trkpt lat="44.64867434920929" lon="8.243163944585952"><ele>242.39999999999998</ele><time>2026-05-03T12:50:57Z</time></trkpt><trkpt lat="44.64878714574757" lon="8.243219999708327"><ele>246.6</ele><time>2026-05-03T12:50:58Z</time></trkpt><trkpt lat="44.64888971565289" lon="8.243280694854473"><ele>250.8</ele><time>2026-05-03T12:50:59Z</time></trkpt><trkpt lat="44.64899331795659" lon="8.243325133376745"><ele>255.0</ele><time>2026-05-03T12:51:00Z</time></trkpt><trkpt lat="44.64909760598198" lon="8.243376226546411"><ele>255.0</ele><time>2026-05-03T12:51:01Z</time></trkpt><trkpt lat="44.649182117817844" lon="8.24343643756863"><ele>255.0</ele><time>2026-05-03T12:51:02Z</time></trkpt><trkpt lat="44.649297063411304" lon="8.243538402196258"><ele>255.0</ele><time>2026-05-03T12:51:03Z</time></trkpt><trkpt lat="44.64939568111147" lon="8.243653927784115"><ele>255.0</ele><time>2026-05-03T12:51:04Z</time></trkpt><trkpt lat="44.6494744468627" lon="8.24379112111113"><ele>255.5</ele><time>2026-05-03T12:51:05Z</time></trkpt><trkpt lat="44.64956481710787" lon="8.243952444940573"><ele>256.0</ele><time>2026-05-03T12:51:06Z</time></trkpt><trkpt lat="44.649653460123155" lon="8.244085896356818"><ele>256.5</ele><time>2026-05-03T12:51:06.999Z</time></trkpt><trkpt lat="44.64973756793421" lon="8.244215888817914"><ele>257.0</ele><time>2026-05-03T12:51:07.999Z</time></trkpt><trkpt lat="44.649808685504965" lon="8.244328409835399"><ele>257.0</ele><time>2026-05-03T12:51:08.999Z</time></trkpt><trkpt lat="44.64987317263236" lon="8.244402719727146"><ele>257.0</ele><time>2026-05-03T12:51:09.999Z</time></trkpt><trkpt lat="44.64996332213602" lon="8.24435660960218"><ele>257.0</ele><time>2026-05-03T12:51:11.999Z</time></trkpt><trkpt lat="44.6499576035149" lon="8.244254805817494"><ele>257.0</ele><time>2026-05-03T12:51:13.999Z</time></trkpt><trkpt lat="44.64987607203955" lon="8.244214672924496"><ele>257.0</ele><time>2026-05-03T12:51:14.999Z</time></trkpt><trkpt lat="44.64983221731323" lon="8.244076758348248"><ele>257.0</ele><time>2026-05-03T12:51:15.999Z</time></trkpt><trkpt lat="44.64977427831729" lon="8.243983505789059"><ele>262.0</ele><time>2026-05-03T12:51:16.999Z</time></trkpt><trkpt lat="44.649720175884106" lon="8.243870985824108"><ele>267.0</ele><time>2026-05-03T12:51:17.999Z</time></trkpt><trkpt lat="44.64965764028364" lon="8.24373308146889"><ele>272.0</ele><time>2026-05-03T12:51:18.999Z</time></trkpt><trkpt lat="44.64960257425849" lon="8.243594819794371"><ele>277.0</ele><time>2026-05-03T12:51:19.999Z</time></trkpt><trkpt lat="44.64955188552473" lon="8.243454521983061"><ele>282.0</ele><time>2026-05-03T12:51:20.999Z</time></trkpt><trkpt lat="44.649490262349715" lon="8.243311143002575"><ele>279.0</ele><time>2026-05-03T12:51:21.999Z</time></trkpt><trkpt lat="44.64942525886591" lon="8.243139838977001"><ele>276.0</ele><time>2026-05-03T12:51:22.999Z</time></trkpt><trkpt lat="44.64937092764145" lon="8.242973243218646"><ele>273.0</ele><time>2026-05-03T12:51:23.999Z</time></trkpt><trkpt lat="44.64930347913213" lon="8.24279798033777"><ele>270.0</ele><time>2026-05-03T12:51:24.999Z</time></trkpt><trkpt lat="44.6492250069583" lon="8.242632731660265"><ele>270.0</ele><time>2026-05-03T12:51:25.999Z</time></trkpt><trkpt lat="44.64913216090089" lon="8.242491508324413"><ele>270.0</ele><time>2026-05-03T12:51:26.999Z</time></trkpt><trkpt lat="44.64905906865891" lon="8.242344990360326"><ele>270.0</ele><time>2026-05-03T12:51:27.999Z</time></trkpt><trkpt lat="44.648990671353445" lon="8.242215451269367"><ele>270.0</ele><time>2026-05-03T12:51:28.999Z</time></trkpt><trkpt lat="44.64892283696128" lon="8.24212130417253"><ele>272.3333333333333</ele><time>2026-05-03T12:51:29.999Z</time></trkpt><trkpt lat="44.648855202793975" lon="8.24204178905193"><ele>274.6666666666667</ele><time>2026-05-03T12:51:30.999Z</time></trkpt><trkpt lat="44.64881924908651" lon="8.241966726387997"><ele>277.0</ele><time>2026-05-03T12:51:31.999Z</time></trkpt><trkpt lat="44.64881448477341" lon="8.241811783985888"><ele>279.33333333333337</ele><time>2026-05-03T12:51:33.999Z</time></trkpt><trkpt lat="44.648832551541176" lon="8.241724763975354"><ele>281.6666666666667</ele><time>2026-05-03T12:51:34.999Z</time></trkpt><trkpt lat="44.648906852060485" lon="8.241609089650098"><ele>284.0</ele><time>2026-05-03T12:51:36.999Z</time></trkpt><trkpt lat="44.64897646277433" lon="8.24155232866879"><ele>281.0</ele><time>2026-05-03T12:51:37.999Z</time></trkpt><trkpt lat="44.64904912370013" lon="8.241458499308006"><ele>278.0</ele><time>2026-05-03T12:51:38.999Z</time></trkpt><trkpt lat="44.64911211371422" lon="8.24136783344761"><ele>275.0</ele><time>2026-05-03T12:51:39.999Z</time></trkpt><trkpt lat="44.64919556302291" lon="8.241270655474503"><ele>272.0</ele><time>2026-05-03T12:51:40.999Z</time></trkpt><trkpt lat="44.64927480832287" lon="8.241148383932629"><ele>269.0</ele><time>2026-05-03T12:51:41.999Z</time></trkpt><trkpt lat="44.649351985802916" lon="8.24103328233823"><ele>269.0</ele><time>2026-05-03T12:51:42.999Z</time></trkpt><trkpt lat="44.64943168355933" lon="8.240929295428627"><ele>269.0</ele><time>2026-05-03T12:51:44Z</time></trkpt><trkpt lat="44.64951000324849" lon="8.240837405348206"><ele>269.0</ele><time>2026-05-03T12:51:45Z</time></trkpt><trkpt lat="44.64959642924797" lon="8.24074880626652"><ele>269.0</ele><time>2026-05-03T12:51:46Z</time></trkpt><trkpt lat="44.64970469478086" lon="8.240682127758541"><ele>269.0</ele><time>2026-05-03T12:51:47Z</time></trkpt><trkpt lat="44.649815332414676" lon="8.240578408964288"><ele>273.0</ele><time>2026-05-03T12:51:48Z</time></trkpt><trkpt lat="44.64992046292655" lon="8.240466728780358"><ele>277.0</ele><time>2026-05-03T12:51:49Z</time></trkpt><trkpt lat="44.65001255550847" lon="8.240343805424875"><ele>281.0</ele><time>2026-05-03T12:51:50Z</time></trkpt><trkpt lat="44.65010880587285" lon="8.240235228027815"><ele>285.0</ele><time>2026-05-03T12:51:51Z</time></trkpt><trkpt lat="44.65020454838765" lon="8.240120807782212"><ele>291.0</ele><time>2026-05-03T12:51:52Z</time></trkpt><trkpt lat="44.650309181728424" lon="8.240018631661219"><ele>297.0</ele><time>2026-05-03T12:51:53Z</time></trkpt><trkpt lat="44.65036913411502" lon="8.239896103545473"><ele>303.0</ele><time>2026-05-03T12:51:54Z</time></trkpt><trkpt lat="44.650427180494084" lon="8.239726769797585"><ele>309.0</ele><time>2026-05-03T12:51:55Z</time></trkpt><trkpt lat="44.65048012673928" lon="8.239570901961027"><ele>309.0</ele><time>2026-05-03T12:51:56Z</time></trkpt><trkpt lat="44.65052680182598" lon="8.239442975077438"><ele>309.0</ele><time>2026-05-03T12:51:57Z</time></trkpt><trkpt lat="44.65059675894348" lon="8.23932833575611"><ele>309.0</ele><time>2026-05-03T12:51:59Z</time></trkpt><trkpt lat="44.650613317555646" lon="8.239449036671715"><ele>309.0</ele><time>2026-05-03T12:52:02Z</time></trkpt><trkpt lat="44.650597588850616" lon="8.239563111757231"><ele>309.0</ele><time>2026-05-03T12:52:03Z</time></trkpt><trkpt lat="44.650597582958646" lon="8.239682927906777"><ele>313.75</ele><time>2026-05-03T12:52:04Z</time></trkpt><trkpt lat="44.65058919064944" lon="8.239825505243985"><ele>318.5</ele><time>2026-05-03T12:52:05Z</time></trkpt><trkpt lat="44.65055761108456" lon="8.23995780925306"><ele>323.25</ele><time>2026-05-03T12:52:06Z</time></trkpt><trkpt lat="44.65049229178641" lon="8.24010875721588"><ele>328.0</ele><time>2026-05-03T12:52:07Z</time></trkpt><trkpt lat="44.65040907273002" lon="8.240241303006687"><ele>328.0</ele><time>2026-05-03T12:52:08Z</time></trkpt><trkpt lat="44.65031550136365" lon="8.240342625030962"><ele>328.0</ele><time>2026-05-03T12:52:09Z</time></trkpt><trkpt lat="44.65024709915195" lon="8.240471505572476"><ele>328.0</ele><time>2026-05-03T12:52:10Z</time></trkpt><trkpt lat="44.65016834441903" lon="8.240630532375851"><ele>328.0</ele><time>2026-05-03T12:52:11Z</time></trkpt><trkpt lat="44.650088752352914" lon="8.240780486431072"><ele>324.2</ele><time>2026-05-03T12:52:12Z</time></trkpt><trkpt lat="44.650003373706056" lon="8.240922572695268"><ele>320.4</ele><time>2026-05-03T12:52:13Z</time></trkpt><trkpt lat="44.649918945697905" lon="8.241030229275887"><ele>316.59999999999997</ele><time>2026-05-03T12:52:14Z</time></trkpt><trkpt lat="44.64985678158691" lon="8.241144080759476"><ele>312.79999999999995</ele><time>2026-05-03T12:52:15Z</time></trkpt><trkpt lat="44.64983017842173" lon="8.241268644390136"><ele>309.0</ele><time>2026-05-03T12:52:16Z</time></trkpt><trkpt lat="44.64979494259359" lon="8.241422419101017"><ele>311.0</ele><time>2026-05-03T12:52:17Z</time></trkpt><trkpt lat="44.6497829568358" lon="8.241530986886081"><ele>313.0</ele><time>2026-05-03T12:52:18Z</time></trkpt><trkpt lat="44.649802617925836" lon="8.241631330335364"><ele>315.0</ele><time>2026-05-03T12:52:19Z</time></trkpt><trkpt lat="44.64987795108006" lon="8.241748674420963"><ele>317.0</ele><time>2026-05-03T12:52:20Z</time></trkpt><trkpt lat="44.64999226823571" lon="8.2418032892255"><ele>319.0</ele><time>2026-05-03T12:52:22Z</time></trkpt><trkpt lat="44.65008227750926" lon="8.241682993078626"><ele>319.0</ele><time>2026-05-03T12:52:24Z</time></trkpt><trkpt lat="44.65005474368876" lon="8.241489543437071"><ele>319.0</ele><time>2026-05-03T12:52:26Z</time></trkpt><trkpt lat="44.65003225990323" lon="8.241398582081962"><ele>319.0</ele><time>2026-05-03T12:52:27Z</time></trkpt><trkpt lat="44.6500540571183" lon="8.241274441733363"><ele>319.0</ele><time>2026-05-03T12:52:28Z</time></trkpt><trkpt lat="44.65009384114874" lon="8.241160635293229"><ele>319.0</ele><time>2026-05-03T12:52:29Z</time></trkpt><trkpt lat="44.65016832728791" lon="8.241119786427692"><ele>317.0</ele><time>2026-05-03T12:52:31Z</time></trkpt><trkpt lat="44.65018529743488" lon="8.241218759913739"><ele>315.0</ele><time>2026-05-03T12:52:33Z</time></trkpt><trkpt lat="44.650129591149785" lon="8.241317092373226"><ele>313.0</ele><time>2026-05-03T12:52:36Z</time></trkpt><trkpt lat="44.650221777640645" lon="8.241425456193735"><ele>311.0</ele><time>2026-05-03T12:52:38Z</time></trkpt><trkpt lat="44.650282765388894" lon="8.24130919503056"><ele>309.0</ele><time>2026-05-03T12:52:39Z</time></trkpt><trkpt lat="44.65030360187762" lon="8.241189827621735"><ele>314.79999999999995</ele><time>2026-05-03T12:52:40Z</time></trkpt><trkpt lat="44.65041674481264" lon="8.241047138857036"><ele>320.59999999999997</ele><time>2026-05-03T12:52:42Z</time></trkpt><trkpt lat="44.650470785474404" lon="8.24095655156583"><ele>326.4</ele><time>2026-05-03T12:52:43Z</time></trkpt><trkpt lat="44.65054880036277" lon="8.240882721698869"><ele>332.2</ele><time>2026-05-03T12:52:44Z</time></trkpt><trkpt lat="44.65062786430356" lon="8.240792625989606"><ele>338.0</ele><time>2026-05-03T12:52:45Z</time></trkpt><trkpt lat="44.65071243282003" lon="8.240724342952504"><ele>338.0</ele><time>2026-05-03T12:52:46Z</time></trkpt><trkpt lat="44.650783152346364" lon="8.240667646510301"><ele>338.0</ele><time>2026-05-03T12:52:47Z</time></trkpt><trkpt lat="44.650841165416665" lon="8.240626994891047"><ele>338.0</ele><time>2026-05-03T12:52:48Z</time></trkpt><trkpt lat="44.65090994191429" lon="8.24060172482185"><ele>338.0</ele><time>2026-05-03T12:52:49Z</time></trkpt><trkpt lat="44.65098119700587" lon="8.24060612329837"><ele>338.0</ele><time>2026-05-03T12:52:50Z</time></trkpt><trkpt lat="44.651060468811686" lon="8.240604730920156"><ele>338.0</ele><time>2026-05-03T12:52:51Z</time></trkpt><trkpt lat="44.65114836704661" lon="8.240607815851503"><ele>336.4</ele><time>2026-05-03T12:52:52Z</time></trkpt><trkpt lat="44.651240997769044" lon="8.24064410641169"><ele>334.79999999999995</ele><time>2026-05-03T12:52:53Z</time></trkpt><trkpt lat="44.65133691194616" lon="8.240651043593607"><ele>333.2</ele><time>2026-05-03T12:52:54Z</time></trkpt><trkpt lat="44.651423993501105" lon="8.240638255477625"><ele>331.6</ele><time>2026-05-03T12:52:55Z</time></trkpt><trkpt lat="44.65148629920913" lon="8.24060067031923"><ele>330.0</ele><time>2026-05-03T12:52:56Z</time></trkpt><trkpt lat="44.651526082959904" lon="8.24044395399488"><ele>333.8333333333333</ele><time>2026-05-03T12:52:58Z</time></trkpt><trkpt lat="44.65148809108157" lon="8.24034535771378"><ele>337.6666666666667</ele><time>2026-05-03T12:52:59Z</time></trkpt><trkpt lat="44.651463102558374" lon="8.240233504012432"><ele>341.5</ele><time>2026-05-03T12:53:00Z</time></trkpt><trkpt lat="44.65146310927581" lon="8.240116481043746"><ele>345.33333333333337</ele><time>2026-05-03T12:53:01Z</time></trkpt><trkpt lat="44.65149207116655" lon="8.239991850486804"><ele>349.1666666666667</ele><time>2026-05-03T12:53:02Z</time></trkpt><trkpt lat="44.651511319514796" lon="8.239886827665657"><ele>353.0</ele><time>2026-05-03T12:53:03Z</time></trkpt><trkpt lat="44.651525628831465" lon="8.23979006684473"><ele>353.0</ele><time>2026-05-03T12:53:04Z</time></trkpt><trkpt lat="44.65157311123596" lon="8.23970691764767"><ele>353.0</ele><time>2026-05-03T12:53:06Z</time></trkpt><trkpt lat="44.65166273576409" lon="8.239795293548026"><ele>353.0</ele><time>2026-05-03T12:53:09Z</time></trkpt><trkpt lat="44.651627943023755" lon="8.239896102518145"><ele>353.0</ele><time>2026-05-03T12:53:10Z</time></trkpt><trkpt lat="44.65172039984117" lon="8.23991510687585"><ele>353.0</ele><time>2026-05-03T12:53:12Z</time></trkpt><trkpt lat="44.65177250667695" lon="8.239840943070087"><ele>353.0</ele><time>2026-05-03T12:53:13Z</time></trkpt><trkpt lat="44.651813476883014" lon="8.23972080353837"><ele>353.5</ele><time>2026-05-03T12:53:14Z</time></trkpt><trkpt lat="44.65186853819715" lon="8.239659553592686"><ele>354.0</ele><time>2026-05-03T12:53:15Z</time></trkpt><trkpt lat="44.65192269673497" lon="8.239563826765451"><ele>354.5</ele><time>2026-05-03T12:53:16Z</time></trkpt><trkpt lat="44.651985422584914" lon="8.239483644905432"><ele>355.0</ele><time>2026-05-03T12:53:17Z</time></trkpt><trkpt lat="44.65205852679481" lon="8.239424481406006"><ele>355.5</ele><time>2026-05-03T12:53:17.999Z</time></trkpt><trkpt lat="44.6521321423659" lon="8.239302671965609"><ele>356.0</ele><time>2026-05-03T12:53:18.999Z</time></trkpt><trkpt lat="44.65218129527636" lon="8.239178824965125"><ele>358.20000000000005</ele><time>2026-05-03T12:53:19.999Z</time></trkpt><trkpt lat="44.652200881426026" lon="8.239069983718593"><ele>360.40000000000003</ele><time>2026-05-03T12:53:20.999Z</time></trkpt><trkpt lat="44.65225127364534" lon="8.238909482372708"><ele>362.6</ele><time>2026-05-03T12:53:21.999Z</time></trkpt><trkpt lat="44.65231070107251" lon="8.238800346262375"><ele>364.8</ele><time>2026-05-03T12:53:22.999Z</time></trkpt><trkpt lat="44.65236688318062" lon="8.238690803123983"><ele>367.0</ele><time>2026-05-03T12:53:23.999Z</time></trkpt><trkpt lat="44.65243765403005" lon="8.238575525984452"><ele>369.6</ele><time>2026-05-03T12:53:24.999Z</time></trkpt><trkpt lat="44.65255227787588" lon="8.238512788323485"><ele>372.20000000000005</ele><time>2026-05-03T12:53:25.999Z</time></trkpt><trkpt lat="44.65264521964099" lon="8.238430099780635"><ele>374.8</ele><time>2026-05-03T12:53:26.999Z</time></trkpt><trkpt lat="44.65271458980468" lon="8.238362505977827"><ele>377.4</ele><time>2026-05-03T12:53:27.999Z</time></trkpt><trkpt lat="44.652760322217176" lon="8.23826759635525"><ele>380.0</ele><time>2026-05-03T12:53:28.999Z</time></trkpt><trkpt lat="44.65278508847516" lon="8.238129331714141"><ele>380.0</ele><time>2026-05-03T12:53:29.999Z</time></trkpt><trkpt lat="44.65277136557854" lon="8.237965900657994"><ele>380.0</ele><time>2026-05-03T12:53:30.999Z</time></trkpt><trkpt lat="44.6527419323784" lon="8.237798828633219"><ele>380.0</ele><time>2026-05-03T12:53:31.999Z</time></trkpt><trkpt lat="44.65273743096763" lon="8.237620346039174"><ele>380.0</ele><time>2026-05-03T12:53:32.999Z</time></trkpt><trkpt lat="44.65272505454811" lon="8.2374058237798"><ele>378.5</ele><time>2026-05-03T12:53:33.999Z</time></trkpt><trkpt lat="44.65272878263105" lon="8.237196946528394"><ele>377.0</ele><time>2026-05-03T12:53:34.999Z</time></trkpt><trkpt lat="44.65271977137414" lon="8.237018306909969"><ele>375.5</ele><time>2026-05-03T12:53:35.999Z</time></trkpt><trkpt lat="44.6527278795613" lon="8.23687143920766"><ele>374.0</ele><time>2026-05-03T12:53:36.999Z</time></trkpt><trkpt lat="44.65273550226004" lon="8.236725408494983"><ele>374.0</ele><time>2026-05-03T12:53:37.999Z</time></trkpt><trkpt lat="44.65274833156349" lon="8.2365727605794"><ele>374.0</ele><time>2026-05-03T12:53:38.999Z</time></trkpt><trkpt lat="44.65278592135497" lon="8.236438104882426"><ele>374.0</ele><time>2026-05-03T12:53:39.999Z</time></trkpt><trkpt lat="44.65282722644529" lon="8.23632894710706"><ele>374.0</ele><time>2026-05-03T12:53:40.999Z</time></trkpt><trkpt lat="44.6528775434943" lon="8.2362303608559"><ele>374.0</ele><time>2026-05-03T12:53:41.999Z</time></trkpt><trkpt lat="44.65291277594346" lon="8.236139540935778"><ele>380.6666666666667</ele><time>2026-05-03T12:53:42.999Z</time></trkpt><trkpt lat="44.652978576944136" lon="8.236038038899617"><ele>387.33333333333337</ele><time>2026-05-03T12:53:44.999Z</time></trkpt><trkpt lat="44.653007982849125" lon="8.236152523639925"><ele>394.0</ele><time>2026-05-03T12:53:47.999Z</time></trkpt><trkpt lat="44.65294259118556" lon="8.236191298569263"><ele>400.6666666666667</ele><time>2026-05-03T12:53:48.999Z</time></trkpt><trkpt lat="44.65288154114472" lon="8.236257499150764"><ele>407.3333333333333</ele><time>2026-05-03T12:53:50Z</time></trkpt><trkpt lat="44.65283969725101" lon="8.23633312773202"><ele>414.0</ele><time>2026-05-03T12:53:51Z</time></trkpt><trkpt lat="44.65281149745268" lon="8.236476620662335"><ele>416.5</ele><time>2026-05-03T12:53:52Z</time></trkpt><trkpt lat="44.652805895402885" lon="8.236637417192833"><ele>419.0</ele><time>2026-05-03T12:53:53Z</time></trkpt><trkpt lat="44.65281386716211" lon="8.23678261794234"><ele>421.5</ele><time>2026-05-03T12:53:54Z</time></trkpt><trkpt lat="44.65284828889344" lon="8.236956964817892"><ele>424.0</ele><time>2026-05-03T12:53:55Z</time></trkpt><trkpt lat="44.65291050794009" lon="8.237155852824182"><ele>420.5</ele><time>2026-05-03T12:53:56Z</time></trkpt><trkpt lat="44.65293896461968" lon="8.237338289124873"><ele>417.0</ele><time>2026-05-03T12:53:57Z</time></trkpt><trkpt lat="44.65298021028086" lon="8.237541201368616"><ele>413.5</ele><time>2026-05-03T12:53:58Z</time></trkpt><trkpt lat="44.65299300395933" lon="8.237704206253106"><ele>410.0</ele><time>2026-05-03T12:53:59Z</time></trkpt><trkpt lat="44.652998861210826" lon="8.237829064522492"><ele>410.0</ele><time>2026-05-03T12:54:00Z</time></trkpt><trkpt lat="44.65303972439798" lon="8.237953327661396"><ele>410.0</ele><time>2026-05-03T12:54:02Z</time></trkpt><trkpt lat="44.65314752480058" lon="8.237842031096275"><ele>410.0</ele><time>2026-05-03T12:54:04Z</time></trkpt><trkpt lat="44.653158330103125" lon="8.237727170420085"><ele>410.0</ele><time>2026-05-03T12:54:05Z</time></trkpt><trkpt lat="44.65317461522497" lon="8.237630653133392"><ele>410.0</ele><time>2026-05-03T12:54:06Z</time></trkpt><trkpt lat="44.65318427591197" lon="8.237486472163505"><ele>410.0</ele><time>2026-05-03T12:54:07Z</time></trkpt><trkpt lat="44.653239494662145" lon="8.237364843114978"><ele>410.0</ele><time>2026-05-03T12:54:08Z</time></trkpt><trkpt lat="44.653293530814246" lon="8.237245648643622"><ele>410.0</ele><time>2026-05-03T12:54:09Z</time></trkpt><trkpt lat="44.653349336578486" lon="8.237114247727284"><ele>410.0</ele><time>2026-05-03T12:54:10Z</time></trkpt><trkpt lat="44.65343007609896" lon="8.236990209794422"><ele>410.0</ele><time>2026-05-03T12:54:11Z</time></trkpt><trkpt lat="44.65351709423874" lon="8.236850229116058"><ele>413.0</ele><time>2026-05-03T12:54:12Z</time></trkpt><trkpt lat="44.65358909737822" lon="8.236708084123977"><ele>416.0</ele><time>2026-05-03T12:54:13Z</time></trkpt><trkpt lat="44.653669720263984" lon="8.236567746629714"><ele>419.0</ele><time>2026-05-03T12:54:14Z</time></trkpt><trkpt lat="44.65375619815881" lon="8.2364283767966"><ele>422.0</ele><time>2026-05-03T12:54:15Z</time></trkpt><trkpt lat="44.65384016783031" lon="8.236288615633184"><ele>426.8</ele><time>2026-05-03T12:54:16Z</time></trkpt><trkpt lat="44.65394480033587" lon="8.236164315641718"><ele>431.6</ele><time>2026-05-03T12:54:17Z</time></trkpt><trkpt lat="44.654045849434965" lon="8.236074382949004"><ele>436.40000000000003</ele><time>2026-05-03T12:54:18Z</time></trkpt><trkpt lat="44.654134468825134" lon="8.23599994967953"><ele>441.20000000000005</ele><time>2026-05-03T12:54:19Z</time></trkpt><trkpt lat="44.65419926882668" lon="8.235952106824442"><ele>446.0</ele><time>2026-05-03T12:54:20Z</time></trkpt><trkpt lat="44.654258688751085" lon="8.235918419370808"><ele>446.0</ele><time>2026-05-03T12:54:22Z</time></trkpt><trkpt lat="44.65414078660651" lon="8.235796903348147"><ele>446.0</ele><time>2026-05-03T12:54:25Z</time></trkpt><trkpt lat="44.65406359013003" lon="8.235788640012565"><ele>446.0</ele><time>2026-05-03T12:54:26Z</time></trkpt><trkpt lat="44.65400662843124" lon="8.235637913917461"><ele>446.0</ele><time>2026-05-03T12:54:28Z</time></trkpt><trkpt lat="44.65400506778082" lon="8.235419295765034"><ele>445.5</ele><time>2026-05-03T12:54:30Z</time></trkpt><trkpt lat="44.65400284500662" lon="8.235272510566714"><ele>445.0</ele><time>2026-05-03T12:54:31Z</time></trkpt><trkpt lat="44.653989704731735" lon="8.235096574607672"><ele>444.5</ele><time>2026-05-03T12:54:32Z</time></trkpt><trkpt lat="44.6539952081963" lon="8.23493236715525"><ele>444.0</ele><time>2026-05-03T12:54:33Z</time></trkpt><trkpt lat="44.65399304094058" lon="8.234782862544517"><ele>444.0</ele><time>2026-05-03T12:54:34Z</time></trkpt><trkpt lat="44.65400429589475" lon="8.23460155727227"><ele>444.0</ele><time>2026-05-03T12:54:35Z</time></trkpt><trkpt lat="44.654014924122116" lon="8.234400833371065"><ele>444.0</ele><time>2026-05-03T12:54:36Z</time></trkpt><trkpt lat="44.65406830577235" lon="8.234244077614903"><ele>444.0</ele><time>2026-05-03T12:54:37Z</time></trkpt><trkpt lat="44.654118061606894" lon="8.234096840546362"><ele>444.0</ele><time>2026-05-03T12:54:38Z</time></trkpt><trkpt lat="44.6541659980852" lon="8.233980757726476"><ele>444.0</ele><time>2026-05-03T12:54:39Z</time></trkpt><trkpt lat="44.65419316262272" lon="8.233865675796194"><ele>444.0</ele><time>2026-05-03T12:54:40Z</time></trkpt><trkpt lat="44.65417453302723" lon="8.233746203356944"><ele>444.0</ele><time>2026-05-03T12:54:41Z</time></trkpt><trkpt lat="44.654110602734356" lon="8.233607915124962"><ele>444.0</ele><time>2026-05-03T12:54:42Z</time></trkpt><trkpt lat="44.65405494249441" lon="8.233499697275981"><ele>443.79999999999995</ele><time>2026-05-03T12:54:43Z</time></trkpt><trkpt lat="44.65402073827257" lon="8.233408057399545"><ele>443.59999999999997</ele><time>2026-05-03T12:54:44Z</time></trkpt><trkpt lat="44.65402589546705" lon="8.233242543643328"><ele>443.4</ele><time>2026-05-03T12:54:46Z</time></trkpt><trkpt lat="44.65407209979836" lon="8.233136349204072"><ele>443.2</ele><time>2026-05-03T12:54:47Z</time></trkpt><trkpt lat="44.654130863970785" lon="8.233041865598432"><ele>443.0</ele><time>2026-05-03T12:54:48Z</time></trkpt><trkpt lat="44.6541969282822" lon="8.232937518586573"><ele>442.25</ele><time>2026-05-03T12:54:49Z</time></trkpt><trkpt lat="44.654264586066645" lon="8.232820945696592"><ele>441.5</ele><time>2026-05-03T12:54:50Z</time></trkpt><trkpt lat="44.654336405741944" lon="8.23266997699751"><ele>440.75</ele><time>2026-05-03T12:54:51Z</time></trkpt><trkpt lat="44.65439130810019" lon="8.232528501250908"><ele>440.0</ele><time>2026-05-03T12:54:52Z</time></trkpt><trkpt lat="44.65444169170641" lon="8.232377524265946"><ele>441.2</ele><time>2026-05-03T12:54:53Z</time></trkpt><trkpt lat="44.654498765106155" lon="8.232231258045946"><ele>442.4</ele><time>2026-05-03T12:54:54Z</time></trkpt><trkpt lat="44.654559607230595" lon="8.232126525439199"><ele>443.6</ele><time>2026-05-03T12:54:55Z</time></trkpt><trkpt lat="44.65460591327452" lon="8.232022687910034"><ele>444.8</ele><time>2026-05-03T12:54:56Z</time></trkpt><trkpt lat="44.65466973848592" lon="8.23195497650162"><ele>446.0</ele><time>2026-05-03T12:54:57Z</time></trkpt><trkpt lat="44.65474850446809" lon="8.23195225487986"><ele>446.0</ele><time>2026-05-03T12:54:58Z</time></trkpt><trkpt lat="44.654814644969974" lon="8.231938190383412"><ele>446.0</ele><time>2026-05-03T12:54:59Z</time></trkpt><trkpt lat="44.65490327660209" lon="8.231965400048388"><ele>446.0</ele><time>2026-05-03T12:55:00Z</time></trkpt><trkpt lat="44.65500290056882" lon="8.231990009919866"><ele>446.0</ele><time>2026-05-03T12:55:01Z</time></trkpt><trkpt lat="44.65509767307445" lon="8.232002322811445"><ele>446.0</ele><time>2026-05-03T12:55:02Z</time></trkpt><trkpt lat="44.65520094211132" lon="8.232000432055859"><ele>452.25</ele><time>2026-05-03T12:55:03Z</time></trkpt><trkpt lat="44.655307320036584" lon="8.231973370964335"><ele>458.5</ele><time>2026-05-03T12:55:04Z</time></trkpt><trkpt lat="44.65541819784047" lon="8.231913434412949"><ele>464.75</ele><time>2026-05-03T12:55:05Z</time></trkpt><trkpt lat="44.65553974779527" lon="8.231823293936834"><ele>471.0</ele><time>2026-05-03T12:55:06Z</time></trkpt><trkpt lat="44.655645792267535" lon="8.231726377792974"><ele>471.0</ele><time>2026-05-03T12:55:07Z</time></trkpt><trkpt lat="44.65574732389419" lon="8.231585720830424"><ele>471.0</ele><time>2026-05-03T12:55:08Z</time></trkpt><trkpt lat="44.65586892039749" lon="8.231474379498227"><ele>471.0</ele><time>2026-05-03T12:55:09Z</time></trkpt><trkpt lat="44.65597300192419" lon="8.231370566041413"><ele>471.0</ele><time>2026-05-03T12:55:10Z</time></trkpt><trkpt lat="44.65606460144979" lon="8.23126122222123"><ele>471.5</ele><time>2026-05-03T12:55:11Z</time></trkpt><trkpt lat="44.65614930433664" lon="8.231103603154638"><ele>472.0</ele><time>2026-05-03T12:55:11.999Z</time></trkpt><trkpt lat="44.65625229250124" lon="8.230996149538209"><ele>472.5</ele><time>2026-05-03T12:55:12.999Z</time></trkpt><trkpt lat="44.6563322988709" lon="8.230930342814025"><ele>473.0</ele><time>2026-05-03T12:55:13.999Z</time></trkpt><trkpt lat="44.65643177071308" lon="8.230867203645849"><ele>473.0</ele><time>2026-05-03T12:55:14.999Z</time></trkpt><trkpt lat="44.656543304772384" lon="8.23083641726806"><ele>472.99999999999994</ele><time>2026-05-03T12:55:15.999Z</time></trkpt><trkpt lat="44.656632819266626" lon="8.230786139272457"><ele>472.99999999999994</ele><time>2026-05-03T12:55:16.999Z</time></trkpt><trkpt lat="44.656687009964585" lon="8.230706259115172"><ele>473.0</ele><time>2026-05-03T12:55:17.999Z</time></trkpt><trkpt lat="44.65672672329873" lon="8.230597261356795"><ele>473.0</ele><time>2026-05-03T12:55:18.999Z</time></trkpt><trkpt lat="44.6567433533897" lon="8.230495321205765"><ele>473.2</ele><time>2026-05-03T12:55:19.999Z</time></trkpt><trkpt lat="44.656854867204224" lon="8.230417527631221"><ele>473.4</ele><time>2026-05-03T12:55:21.999Z</time></trkpt><trkpt lat="44.65694793308265" lon="8.23039754499989"><ele>473.59999999999997</ele><time>2026-05-03T12:55:22.999Z</time></trkpt><trkpt lat="44.65705517196383" lon="8.230358254903345"><ele>473.79999999999995</ele><time>2026-05-03T12:55:23.999Z</time></trkpt><trkpt lat="44.6571468515713" lon="8.230282706786404"><ele>474.0</ele><time>2026-05-03T12:55:24.999Z</time></trkpt><trkpt lat="44.65722940255819" lon="8.230182426818157"><ele>474.0</ele><time>2026-05-03T12:55:25.999Z</time></trkpt><trkpt lat="44.65730263174587" lon="8.230124239542448"><ele>474.0</ele><time>2026-05-03T12:55:26.999Z</time></trkpt><trkpt lat="44.65740233073" lon="8.23010943632961"><ele>474.0</ele><time>2026-05-03T12:55:27.999Z</time></trkpt><trkpt lat="44.657498620162926" lon="8.230073690265268"><ele>474.0</ele><time>2026-05-03T12:55:28.999Z</time></trkpt><trkpt lat="44.657631318937014" lon="8.230033307362783"><ele>474.0</ele><time>2026-05-03T12:55:29.999Z</time></trkpt><trkpt lat="44.65774247485481" lon="8.229943679413845"><ele>473.5</ele><time>2026-05-03T12:55:30.999Z</time></trkpt><trkpt lat="44.65784268741051" lon="8.229876932419707"><ele>473.0</ele><time>2026-05-03T12:55:31.999Z</time></trkpt><trkpt lat="44.657958279887694" lon="8.22982647809877"><ele>472.5</ele><time>2026-05-03T12:55:32.999Z</time></trkpt><trkpt lat="44.65811077250209" lon="8.229792566577418"><ele>472.0</ele><time>2026-05-03T12:55:33.999Z</time></trkpt><trkpt lat="44.65826072332915" lon="8.229758582236691"><ele>472.0</ele><time>2026-05-03T12:55:34.999Z</time></trkpt><trkpt lat="44.65840988219807" lon="8.229719907260083"><ele>472.0</ele><time>2026-05-03T12:55:35.999Z</time></trkpt><trkpt lat="44.65855851249377" lon="8.229688093658186"><ele>472.0</ele><time>2026-05-03T12:55:36.999Z</time></trkpt><trkpt lat="44.65870401726253" lon="8.229692888060626"><ele>472.0</ele><time>2026-05-03T12:55:37.999Z</time></trkpt><trkpt lat="44.65883835242079" lon="8.229647754338366"><ele>476.75</ele><time>2026-05-03T12:55:38.999Z</time></trkpt><trkpt lat="44.65896834454733" lon="8.229568290377284"><ele>481.5</ele><time>2026-05-03T12:55:39.999Z</time></trkpt><trkpt lat="44.65907248046138" lon="8.229485112739878"><ele>486.25</ele><time>2026-05-03T12:55:40.999Z</time></trkpt><trkpt lat="44.659173445087305" lon="8.229425903802609"><ele>491.0</ele><time>2026-05-03T12:55:41.999Z</time></trkpt><trkpt lat="44.65929779394697" lon="8.229381295873939"><ele>491.0</ele><time>2026-05-03T12:55:42.999Z</time></trkpt><trkpt lat="44.65944243420165" lon="8.22934038500978"><ele>491.0</ele><time>2026-05-03T12:55:43.999Z</time></trkpt><trkpt lat="44.65959138677427" lon="8.229297405366328"><ele>491.0</ele><time>2026-05-03T12:55:44.999Z</time></trkpt><trkpt lat="44.65974485508777" lon="8.229240519087083"><ele>494.25</ele><time>2026-05-03T12:55:45.999Z</time></trkpt><trkpt lat="44.659902007305504" lon="8.229153320112145"><ele>497.5</ele><time>2026-05-03T12:55:46.999Z</time></trkpt><trkpt lat="44.66003817103357" lon="8.229116612591744"><ele>500.75</ele><time>2026-05-03T12:55:47.999Z</time></trkpt><trkpt lat="44.66015595679213" lon="8.229079163963409"><ele>504.0</ele><time>2026-05-03T12:55:48.999Z</time></trkpt><trkpt lat="44.66024532320679" lon="8.229045145283717"><ele>506.2</ele><time>2026-05-03T12:55:49.999Z</time></trkpt><trkpt lat="44.66032283849341" lon="8.228967844359987"><ele>508.4</ele><time>2026-05-03T12:55:51.999Z</time></trkpt><trkpt lat="44.66028613153906" lon="8.228804177067357"><ele>510.6</ele><time>2026-05-03T12:55:53.999Z</time></trkpt><trkpt lat="44.660235989926306" lon="8.228686085116387"><ele>512.8</ele><time>2026-05-03T12:55:54.999Z</time></trkpt><trkpt lat="44.660166202488014" lon="8.228608294430876"><ele>515.0</ele><time>2026-05-03T12:55:56Z</time></trkpt><trkpt lat="44.660062920076925" lon="8.228551035291584"><ele>515.0</ele><time>2026-05-03T12:55:57Z</time></trkpt><trkpt lat="44.659974032527145" lon="8.22849764625786"><ele>515.0</ele><time>2026-05-03T12:55:58Z</time></trkpt><trkpt lat="44.65985306677652" lon="8.228466020838386"><ele>515.0</ele><time>2026-05-03T12:55:59Z</time></trkpt><trkpt lat="44.65973471905606" lon="8.228379922127477"><ele>515.0</ele><time>2026-05-03T12:56:00Z</time></trkpt><trkpt lat="44.65961953380274" lon="8.228303722171749"><ele>515.0</ele><time>2026-05-03T12:56:01Z</time></trkpt><trkpt lat="44.65950122322532" lon="8.22821886245463"><ele>515.0</ele><time>2026-05-03T12:56:02Z</time></trkpt><trkpt lat="44.65937180542662" lon="8.228128218370586"><ele>515.0</ele><time>2026-05-03T12:56:03Z</time></trkpt><trkpt lat="44.65925396372184" lon="8.228072339964458"><ele>515.0</ele><time>2026-05-03T12:56:04Z</time></trkpt><trkpt lat="44.65912988618508" lon="8.228073139979992"><ele>521.25</ele><time>2026-05-03T12:56:05Z</time></trkpt><trkpt lat="44.65899527178152" lon="8.228062130767784"><ele>527.5</ele><time>2026-05-03T12:56:06Z</time></trkpt><trkpt lat="44.65887264305547" lon="8.228029364139985"><ele>533.75</ele><time>2026-05-03T12:56:07Z</time></trkpt><trkpt lat="44.65876843993176" lon="8.227976663469754"><ele>540.0</ele><time>2026-05-03T12:56:08Z</time></trkpt><trkpt lat="44.658673409491314" lon="8.227947077933855"><ele>536.5</ele><time>2026-05-03T12:56:09Z</time></trkpt><trkpt lat="44.65858103680752" lon="8.227880501762925"><ele>533.0</ele><time>2026-05-03T12:56:10Z</time></trkpt><trkpt lat="44.65848852635529" lon="8.227808912504944"><ele>529.5</ele><time>2026-05-03T12:56:11Z</time></trkpt><trkpt lat="44.658367775849875" lon="8.22774514547939"><ele>526.0</ele><time>2026-05-03T12:56:12Z</time></trkpt><trkpt lat="44.658232234494974" lon="8.227729009137526"><ele>526.0</ele><time>2026-05-03T12:56:13Z</time></trkpt><trkpt lat="44.658105473412846" lon="8.227658414448872"><ele>526.0</ele><time>2026-05-03T12:56:14Z</time></trkpt><trkpt lat="44.657995156822636" lon="8.227661192525458"><ele>526.0</ele><time>2026-05-03T12:56:15Z</time></trkpt><trkpt lat="44.657901914768004" lon="8.227624346651531"><ele>526.0</ele><time>2026-05-03T12:56:16Z</time></trkpt><trkpt lat="44.65784526332865" lon="8.227577898006473"><ele>526.0</ele><time>2026-05-03T12:56:17Z</time></trkpt><trkpt lat="44.657786648006905" lon="8.227455401076039"><ele>524.8</ele><time>2026-05-03T12:56:19Z</time></trkpt><trkpt lat="44.657808556083445" lon="8.227291718300503"><ele>523.6</ele><time>2026-05-03T12:56:21Z</time></trkpt><trkpt lat="44.657846619970314" lon="8.227190235964875"><ele>522.4</ele><time>2026-05-03T12:56:22Z</time></trkpt><trkpt lat="44.65791976254947" lon="8.227128682642121"><ele>521.2</ele><time>2026-05-03T12:56:23Z</time></trkpt><trkpt lat="44.657988114587944" lon="8.227059155307705"><ele>520.0</ele><time>2026-05-03T12:56:24Z</time></trkpt><trkpt lat="44.658073954812025" lon="8.227001178885814"><ele>520.0</ele><time>2026-05-03T12:56:25Z</time></trkpt><trkpt lat="44.65815960409296" lon="8.226949130518639"><ele>520.0</ele><time>2026-05-03T12:56:26Z</time></trkpt><trkpt lat="44.65825783493726" lon="8.226875396905628"><ele>520.0</ele><time>2026-05-03T12:56:27Z</time></trkpt><trkpt lat="44.65833920710694" lon="8.22678333601815"><ele>520.0</ele><time>2026-05-03T12:56:28Z</time></trkpt><trkpt lat="44.65842574258518" lon="8.226655127687351"><ele>520.0</ele><time>2026-05-03T12:56:29Z</time></trkpt><trkpt lat="44.65848286195158" lon="8.226490292572091"><ele>517.5</ele><time>2026-05-03T12:56:30Z</time></trkpt><trkpt lat="44.65854714488047" lon="8.226338580058457"><ele>515.0</ele><time>2026-05-03T12:56:31Z</time></trkpt><trkpt lat="44.65862857893901" lon="8.22616554958166"><ele>512.5</ele><time>2026-05-03T12:56:32Z</time></trkpt><trkpt lat="44.65873074875973" lon="8.226015667136688"><ele>510.0</ele><time>2026-05-03T12:56:33Z</time></trkpt><trkpt lat="44.65879437645586" lon="8.225838429458866"><ele>516.4</ele><time>2026-05-03T12:56:34Z</time></trkpt><trkpt lat="44.658852900432464" lon="8.225704077263869"><ele>522.8</ele><time>2026-05-03T12:56:35Z</time></trkpt><trkpt lat="44.65891742909949" lon="8.225598649071307"><ele>529.2</ele><time>2026-05-03T12:56:36Z</time></trkpt><trkpt lat="44.65896101810757" lon="8.225462083718146"><ele>535.6</ele><time>2026-05-03T12:56:37Z</time></trkpt><trkpt lat="44.65896699067927" lon="8.225320148348999"><ele>542.0</ele><time>2026-05-03T12:56:38Z</time></trkpt><trkpt lat="44.65893389494201" lon="8.225153030491464"><ele>542.0</ele><time>2026-05-03T12:56:39Z</time></trkpt><trkpt lat="44.65888705970696" lon="8.225018760961728"><ele>542.0</ele><time>2026-05-03T12:56:40Z</time></trkpt><trkpt lat="44.65883401551199" lon="8.224850113560823"><ele>542.0</ele><time>2026-05-03T12:56:41Z</time></trkpt><trkpt lat="44.658810200738095" lon="8.224720077161077"><ele>542.0</ele><time>2026-05-03T12:56:42Z</time></trkpt><trkpt lat="44.65879157151639" lon="8.224607616035359"><ele>542.0</ele><time>2026-05-03T12:56:43Z</time></trkpt><trkpt lat="44.65878834651099" lon="8.2244704862878"><ele>545.0</ele><time>2026-05-03T12:56:44Z</time></trkpt><trkpt lat="44.65879823576656" lon="8.22431235720714"><ele>548.0</ele><time>2026-05-03T12:56:45Z</time></trkpt><trkpt lat="44.658803477320774" lon="8.224167469258505"><ele>551.0</ele><time>2026-05-03T12:56:46Z</time></trkpt><trkpt lat="44.65877418617485" lon="8.22403479297427"><ele>554.0</ele><time>2026-05-03T12:56:47Z</time></trkpt><trkpt lat="44.6587381368442" lon="8.223933412319221"><ele>557.0</ele><time>2026-05-03T12:56:48Z</time></trkpt><trkpt lat="44.65868091940382" lon="8.22387062588531"><ele>556.7142857142858</ele><time>2026-05-03T12:56:49Z</time></trkpt><trkpt lat="44.6586154510147" lon="8.223868527206033"><ele>556.4285714285714</ele><time>2026-05-03T12:56:50Z</time></trkpt><trkpt lat="44.65854033914876" lon="8.22390291617395"><ele>556.1428571428571</ele><time>2026-05-03T12:56:51Z</time></trkpt><trkpt lat="44.65845235861522" lon="8.223922468711397"><ele>555.8571428571429</ele><time>2026-05-03T12:56:52Z</time></trkpt><trkpt lat="44.658384415608865" lon="8.223895619992454"><ele>555.5714285714286</ele><time>2026-05-03T12:56:53Z</time></trkpt><trkpt lat="44.658319705655494" lon="8.223865462692768"><ele>555.2857142857143</ele><time>2026-05-03T12:56:54Z</time></trkpt><trkpt lat="44.6582627939011" lon="8.223799635399455"><ele>555.0</ele><time>2026-05-03T12:56:55Z</time></trkpt><trkpt lat="44.658189130336076" lon="8.223726760054495"><ele>555.0</ele><time>2026-05-03T12:56:56Z</time></trkpt><trkpt lat="44.658084362066724" lon="8.223702212050284"><ele>555.0</ele><time>2026-05-03T12:56:57Z</time></trkpt><trkpt lat="44.65798823410563" lon="8.223706065236723"><ele>555.0</ele><time>2026-05-03T12:56:58Z</time></trkpt><trkpt lat="44.65789857035217" lon="8.223719909096669"><ele>555.0</ele><time>2026-05-03T12:56:59Z</time></trkpt><trkpt lat="44.65780107351604" lon="8.22371059827061"><ele>555.0</ele><time>2026-05-03T12:57:01Z</time></trkpt><trkpt lat="44.65775153162885" lon="8.223611195623588"><ele>554.1666666666666</ele><time>2026-05-03T12:57:02Z</time></trkpt><trkpt lat="44.657718041103784" lon="8.223507613013542"><ele>553.3333333333334</ele><time>2026-05-03T12:57:03Z</time></trkpt><trkpt lat="44.657666356446036" lon="8.223422011140219"><ele>552.5</ele><time>2026-05-03T12:57:04Z</time></trkpt><trkpt lat="44.65759622115009" lon="8.223408843001815"><ele>551.6666666666667</ele><time>2026-05-03T12:57:05Z</time></trkpt><trkpt lat="44.65749043969142" lon="8.22339809153061"><ele>550.8333333333334</ele><time>2026-05-03T12:57:05.999Z</time></trkpt><trkpt lat="44.65739266988892" lon="8.223384201331259"><ele>550.0</ele><time>2026-05-03T12:57:06.999Z</time></trkpt><trkpt lat="44.65730203682826" lon="8.223353735393813"><ele>550.0</ele><time>2026-05-03T12:57:07.999Z</time></trkpt><trkpt lat="44.657229096814795" lon="8.223351276336013"><ele>550.0</ele><time>2026-05-03T12:57:08.999Z</time></trkpt><trkpt lat="44.65713187442923" lon="8.223405155759005"><ele>550.0</ele><time>2026-05-03T12:57:09.999Z</time></trkpt><trkpt lat="44.657054105256826" lon="8.223445547013979"><ele>550.0</ele><time>2026-05-03T12:57:10.999Z</time></trkpt><trkpt lat="44.65693322486071" lon="8.22343392028867"><ele>550.0</ele><time>2026-05-03T12:57:12.999Z</time></trkpt><trkpt lat="44.65690229453356" lon="8.22329850415802"><ele>553.2</ele><time>2026-05-03T12:57:14.999Z</time></trkpt><trkpt lat="44.65694276023696" lon="8.22316608215925"><ele>556.4</ele><time>2026-05-03T12:57:15.999Z</time></trkpt><trkpt lat="44.65697516940197" lon="8.223022077574889"><ele>559.6</ele><time>2026-05-03T12:57:16.999Z</time></trkpt><trkpt lat="44.6570335016776" lon="8.222875636957683"><ele>562.8</ele><time>2026-05-03T12:57:17.999Z</time></trkpt><trkpt lat="44.65705437829295" lon="8.22271149194966"><ele>566.0</ele><time>2026-05-03T12:57:18.999Z</time></trkpt><trkpt lat="44.657065926987066" lon="8.22252030071886"><ele>567.0</ele><time>2026-05-03T12:57:19.999Z</time></trkpt><trkpt lat="44.65707953648491" lon="8.222306939931261"><ele>568.0</ele><time>2026-05-03T12:57:20.999Z</time></trkpt><trkpt lat="44.657068726169435" lon="8.222097953909737"><ele>569.0</ele><time>2026-05-03T12:57:21.999Z</time></trkpt><trkpt lat="44.657064106644164" lon="8.22191363203548"><ele>570.0</ele><time>2026-05-03T12:57:22.999Z</time></trkpt><trkpt lat="44.65705374147575" lon="8.22175756257547"><ele>570.0</ele><time>2026-05-03T12:57:23.999Z</time></trkpt><trkpt lat="44.657030043487914" lon="8.221625942709993"><ele>570.0</ele><time>2026-05-03T12:57:24.999Z</time></trkpt><trkpt lat="44.656996762413094" lon="8.221532214234678"><ele>570.0</ele><time>2026-05-03T12:57:25.999Z</time></trkpt><trkpt lat="44.65699589175184" lon="8.221405900802703"><ele>570.0</ele><time>2026-05-03T12:57:27.999Z</time></trkpt><trkpt lat="44.65707204621195" lon="8.221418016701222"><ele>570.0</ele><time>2026-05-03T12:57:29.999Z</time></trkpt><trkpt lat="44.65706188640647" lon="8.22159340360278"><ele>570.0</ele><time>2026-05-03T12:57:31.999Z</time></trkpt><trkpt lat="44.65709157850885" lon="8.22173608655037"><ele>570.0</ele><time>2026-05-03T12:57:32.999Z</time></trkpt><trkpt lat="44.65713127622139" lon="8.221854393961936"><ele>570.0</ele><time>2026-05-03T12:57:33.999Z</time></trkpt><trkpt lat="44.65716634567472" lon="8.222020081900128"><ele>570.0</ele><time>2026-05-03T12:57:34.999Z</time></trkpt><trkpt lat="44.65720063327682" lon="8.222197943417136"><ele>569.2</ele><time>2026-05-03T12:57:35.999Z</time></trkpt><trkpt lat="44.65722008118108" lon="8.222369844321243"><ele>568.4</ele><time>2026-05-03T12:57:36.999Z</time></trkpt><trkpt lat="44.65722922396493" lon="8.222581755349541"><ele>567.6</ele><time>2026-05-03T12:57:37.999Z</time></trkpt><trkpt lat="44.65722387419146" lon="8.222717854871737"><ele>566.8</ele><time>2026-05-03T12:57:38.999Z</time></trkpt><trkpt lat="44.657232297440636" lon="8.22282030257072"><ele>566.0</ele><time>2026-05-03T12:57:39.999Z</time></trkpt><trkpt lat="44.65731636461629" lon="8.222914242129074"><ele>566.0</ele><time>2026-05-03T12:57:41.999Z</time></trkpt><trkpt lat="44.65737931093521" lon="8.222919598636366"><ele>566.0</ele><time>2026-05-03T12:57:42.999Z</time></trkpt><trkpt lat="44.65742508104986" lon="8.222831481327896"><ele>566.0</ele><time>2026-05-03T12:57:43.999Z</time></trkpt><trkpt lat="44.657371771463055" lon="8.22269575694609"><ele>566.0</ele><time>2026-05-03T12:57:44.999Z</time></trkpt><trkpt lat="44.657355505746736" lon="8.222577990528038"><ele>566.0</ele><time>2026-05-03T12:57:45.999Z</time></trkpt><trkpt lat="44.65738326837744" lon="8.222450223492794"><ele>566.0</ele><time>2026-05-03T12:57:46.999Z</time></trkpt><trkpt lat="44.65742198314096" lon="8.222327562616778"><ele>567.0</ele><time>2026-05-03T12:57:47.999Z</time></trkpt><trkpt lat="44.65740699675711" lon="8.222191870734349"><ele>568.0</ele><time>2026-05-03T12:57:48.999Z</time></trkpt><trkpt lat="44.65739904141972" lon="8.22203317671459"><ele>569.0</ele><time>2026-05-03T12:57:49.999Z</time></trkpt><trkpt lat="44.65738009968142" lon="8.221851379939075"><ele>570.0</ele><time>2026-05-03T12:57:50.999Z</time></trkpt><trkpt lat="44.65736947458958" lon="8.221657486826249"><ele>570.0</ele><time>2026-05-03T12:57:51.999Z</time></trkpt><trkpt lat="44.657369451944525" lon="8.221493338500958"><ele>570.0</ele><time>2026-05-03T12:57:52.999Z</time></trkpt><trkpt lat="44.65735746166052" lon="8.221341981172971"><ele>570.0</ele><time>2026-05-03T12:57:53.999Z</time></trkpt><trkpt lat="44.657350651177005" lon="8.221217869433453"><ele>570.0</ele><time>2026-05-03T12:57:54.999Z</time></trkpt><trkpt lat="44.65735422320174" lon="8.221126051314211"><ele>570.0</ele><time>2026-05-03T12:57:55.999Z</time></trkpt><trkpt lat="44.657343898754895" lon="8.22102582740586"><ele>570.8</ele><time>2026-05-03T12:57:59.999Z</time></trkpt><trkpt lat="44.65741244684514" lon="8.221100898996518"><ele>571.6</ele><time>2026-05-03T12:58:00.999Z</time></trkpt><trkpt lat="44.657487838200815" lon="8.2211637300116"><ele>572.4</ele><time>2026-05-03T12:58:02Z</time></trkpt><trkpt lat="44.657556417194314" lon="8.221217230796777"><ele>573.2</ele><time>2026-05-03T12:58:03Z</time></trkpt><trkpt lat="44.65764076730158" lon="8.221283035144875"><ele>574.0</ele><time>2026-05-03T12:58:04Z</time></trkpt><trkpt lat="44.65775137889141" lon="8.221366244106186"><ele>573.0</ele><time>2026-05-03T12:58:05Z</time></trkpt><trkpt lat="44.65786232293877" lon="8.221452726680273"><ele>572.0</ele><time>2026-05-03T12:58:06Z</time></trkpt><trkpt lat="44.65798037069936" lon="8.221544941076626"><ele>571.0</ele><time>2026-05-03T12:58:07Z</time></trkpt><trkpt lat="44.65810954732186" lon="8.221657483300621"><ele>570.0</ele><time>2026-05-03T12:58:08Z</time></trkpt><trkpt lat="44.65821540046173" lon="8.221758264276815"><ele>570.0</ele><time>2026-05-03T12:58:09Z</time></trkpt><trkpt lat="44.65833038124442" lon="8.22188428313961"><ele>570.0</ele><time>2026-05-03T12:58:10Z</time></trkpt><trkpt lat="44.65842894154806" lon="8.222016505350132"><ele>570.0</ele><time>2026-05-03T12:58:11Z</time></trkpt><trkpt lat="44.658519035589606" lon="8.222157934088886"><ele>570.0</ele><time>2026-05-03T12:58:12Z</time></trkpt><trkpt lat="44.65862673519021" lon="8.22230217692042"><ele>568.0</ele><time>2026-05-03T12:58:13Z</time></trkpt><trkpt lat="44.65875017166191" lon="8.222415254363598"><ele>566.0</ele><time>2026-05-03T12:58:14Z</time></trkpt><trkpt lat="44.658881818627115" lon="8.222506122130804"><ele>564.0</ele><time>2026-05-03T12:58:15Z</time></trkpt><trkpt lat="44.658998553681464" lon="8.222590576653895"><ele>562.0</ele><time>2026-05-03T12:58:16Z</time></trkpt><trkpt lat="44.65914067607835" lon="8.222658508426004"><ele>562.0</ele><time>2026-05-03T12:58:17Z</time></trkpt><trkpt lat="44.6592891610749" lon="8.222751327965723"><ele>562.0</ele><time>2026-05-03T12:58:18Z</time></trkpt><trkpt lat="44.65949613876589" lon="8.222790078325819"><ele>562.0</ele><time>2026-05-03T12:58:19Z</time></trkpt><trkpt lat="44.659661549865376" lon="8.22283200743513"><ele>562.5</ele><time>2026-05-03T12:58:20Z</time></trkpt><trkpt lat="44.65981977507447" lon="8.222892451273935"><ele>563.0</ele><time>2026-05-03T12:58:21Z</time></trkpt><trkpt lat="44.659959887047464" lon="8.222983747524678"><ele>563.5</ele><time>2026-05-03T12:58:22Z</time></trkpt><trkpt lat="44.660062932079605" lon="8.223083924865957"><ele>564.0</ele><time>2026-05-03T12:58:23Z</time></trkpt><trkpt lat="44.660134368240506" lon="8.223231777394004"><ele>564.0</ele><time>2026-05-03T12:58:24Z</time></trkpt><trkpt lat="44.66020362946414" lon="8.223376450906798"><ele>564.0</ele><time>2026-05-03T12:58:25Z</time></trkpt><trkpt lat="44.6603120589458" lon="8.223496462369438"><ele>564.0</ele><time>2026-05-03T12:58:26Z</time></trkpt><trkpt lat="44.66044359794041" lon="8.22352378300851"><ele>564.0</ele><time>2026-05-03T12:58:27Z</time></trkpt><trkpt lat="44.66057880028324" lon="8.223574606592488"><ele>559.5</ele><time>2026-05-03T12:58:28Z</time></trkpt><trkpt lat="44.66070555464876" lon="8.2235753834186"><ele>555.0</ele><time>2026-05-03T12:58:29Z</time></trkpt><trkpt lat="44.66085142330264" lon="8.223595201250708"><ele>550.5</ele><time>2026-05-03T12:58:30Z</time></trkpt><trkpt lat="44.660994117479866" lon="8.223599024843963"><ele>546.0</ele><time>2026-05-03T12:58:31Z</time></trkpt><trkpt lat="44.66112571173658" lon="8.223604595515658"><ele>545.6666666666666</ele><time>2026-05-03T12:58:32Z</time></trkpt><trkpt lat="44.66126261284331" lon="8.22365228352635"><ele>545.3333333333333</ele><time>2026-05-03T12:58:33Z</time></trkpt><trkpt lat="44.66140933932615" lon="8.223708179882125"><ele>545.0</ele><time>2026-05-03T12:58:34Z</time></trkpt><trkpt lat="44.661560497318085" lon="8.223775313347796"><ele>545.0</ele><time>2026-05-03T12:58:35Z</time></trkpt><trkpt lat="44.661718773126815" lon="8.223848955082724"><ele>545.0</ele><time>2026-05-03T12:58:36Z</time></trkpt><trkpt lat="44.6618739892632" lon="8.223923656567404"><ele>545.0</ele><time>2026-05-03T12:58:37Z</time></trkpt><trkpt lat="44.66201534120848" lon="8.224001465467758"><ele>545.25</ele><time>2026-05-03T12:58:38Z</time></trkpt><trkpt lat="44.66214654704032" lon="8.224093739234569"><ele>545.5</ele><time>2026-05-03T12:58:39Z</time></trkpt><trkpt lat="44.66225865003305" lon="8.224214565639395"><ele>545.75</ele><time>2026-05-03T12:58:40Z</time></trkpt><trkpt lat="44.66237147518259" lon="8.224343140841226"><ele>546.0</ele><time>2026-05-03T12:58:41Z</time></trkpt><trkpt lat="44.6624902091913" lon="8.224445932031106"><ele>546.0</ele><time>2026-05-03T12:58:42Z</time></trkpt><trkpt lat="44.66258675581186" lon="8.224578695516847"><ele>546.0</ele><time>2026-05-03T12:58:43Z</time></trkpt><trkpt lat="44.6626899535478" lon="8.224655101525741"><ele>546.0</ele><time>2026-05-03T12:58:44Z</time></trkpt><trkpt lat="44.66279460597122" lon="8.224680403413158"><ele>546.0</ele><time>2026-05-03T12:58:45Z</time></trkpt><trkpt lat="44.66292211092646" lon="8.224645590481552"><ele>545.25</ele><time>2026-05-03T12:58:46Z</time></trkpt><trkpt lat="44.66303284548454" lon="8.2245957122076"><ele>544.5</ele><time>2026-05-03T12:58:47Z</time></trkpt><trkpt lat="44.6631323023852" lon="8.22450495888679"><ele>543.75</ele><time>2026-05-03T12:58:48Z</time></trkpt><trkpt lat="44.663252567871744" lon="8.224399874904993"><ele>543.0</ele><time>2026-05-03T12:58:49Z</time></trkpt><trkpt lat="44.66337850119088" lon="8.224276196334179"><ele>543.0</ele><time>2026-05-03T12:58:50Z</time></trkpt><trkpt lat="44.663485370351516" lon="8.224129418646543"><ele>543.0</ele><time>2026-05-03T12:58:51Z</time></trkpt><trkpt lat="44.66359333376401" lon="8.223954541951315"><ele>543.0</ele><time>2026-05-03T12:58:52Z</time></trkpt><trkpt lat="44.663698588690416" lon="8.223787563618849"><ele>543.0</ele><time>2026-05-03T12:58:53Z</time></trkpt><trkpt lat="44.66378570442001" lon="8.223601215597919"><ele>543.0</ele><time>2026-05-03T12:58:54Z</time></trkpt><trkpt lat="44.66386217850762" lon="8.22342345425995"><ele>543.0</ele><time>2026-05-03T12:58:55Z</time></trkpt><trkpt lat="44.66396343926527" lon="8.223265168594013"><ele>536.6666666666666</ele><time>2026-05-03T12:58:56Z</time></trkpt><trkpt lat="44.66408625024018" lon="8.223120968074129"><ele>530.3333333333333</ele><time>2026-05-03T12:58:57Z</time></trkpt><trkpt lat="44.66418967983393" lon="8.22295258156806"><ele>524.0</ele><time>2026-05-03T12:58:58Z</time></trkpt><trkpt lat="44.66426918301723" lon="8.222773959628014"><ele>524.0</ele><time>2026-05-03T12:58:59Z</time></trkpt><trkpt lat="44.664371831853245" lon="8.222583331378823"><ele>524.0</ele><time>2026-05-03T12:59:00Z</time></trkpt><trkpt lat="44.664488933375274" lon="8.22242521401075"><ele>524.0</ele><time>2026-05-03T12:59:01Z</time></trkpt><trkpt lat="44.66463302408548" lon="8.222268981905769"><ele>524.6666666666666</ele><time>2026-05-03T12:59:02Z</time></trkpt><trkpt lat="44.6647646417187" lon="8.222102912122326"><ele>525.3333333333334</ele><time>2026-05-03T12:59:03Z</time></trkpt><trkpt lat="44.66489580629196" lon="8.221954888911894"><ele>526.0</ele><time>2026-05-03T12:59:04Z</time></trkpt><trkpt lat="44.6650162209188" lon="8.221827156065062"><ele>526.0</ele><time>2026-05-03T12:59:05Z</time></trkpt><trkpt lat="44.66514946118707" lon="8.221733202771848"><ele>526.0</ele><time>2026-05-03T12:59:06Z</time></trkpt><trkpt lat="44.6652821251699" lon="8.221606180333678"><ele>526.0</ele><time>2026-05-03T12:59:07Z</time></trkpt><trkpt lat="44.66542555233336" lon="8.221482801266408"><ele>523.75</ele><time>2026-05-03T12:59:08Z</time></trkpt><trkpt lat="44.66555551100608" lon="8.221371819585837"><ele>521.5</ele><time>2026-05-03T12:59:09Z</time></trkpt><trkpt lat="44.665683211175285" lon="8.221298242131883"><ele>519.25</ele><time>2026-05-03T12:59:10Z</time></trkpt><trkpt lat="44.66580031890294" lon="8.22121909597334"><ele>517.0</ele><time>2026-05-03T12:59:11Z</time></trkpt><trkpt lat="44.66591429127198" lon="8.221176783841921"><ele>517.0</ele><time>2026-05-03T12:59:12Z</time></trkpt><trkpt lat="44.66601164681415" lon="8.22117327484476"><ele>517.0</ele><time>2026-05-03T12:59:12.999Z</time></trkpt><trkpt lat="44.66611365302092" lon="8.221201052774047"><ele>517.0</ele><time>2026-05-03T12:59:13.999Z</time></trkpt><trkpt lat="44.666214132673005" lon="8.221282680313454"><ele>517.0</ele><time>2026-05-03T12:59:14.999Z</time></trkpt><trkpt lat="44.666341997379654" lon="8.221370978947986"><ele>517.0</ele><time>2026-05-03T12:59:15.999Z</time></trkpt><trkpt lat="44.66649518269457" lon="8.22140901000915"><ele>517.0</ele><time>2026-05-03T12:59:16.999Z</time></trkpt><trkpt lat="44.66665584826999" lon="8.22143338247282"><ele>517.0</ele><time>2026-05-03T12:59:17.999Z</time></trkpt><trkpt lat="44.666806315291595" lon="8.221415936815243"><ele>517.6666666666667</ele><time>2026-05-03T12:59:18.999Z</time></trkpt><trkpt lat="44.66695856925012" lon="8.2213608453523"><ele>518.3333333333334</ele><time>2026-05-03T12:59:19.999Z</time></trkpt><trkpt lat="44.66709875743631" lon="8.22126638373752"><ele>519.0</ele><time>2026-05-03T12:59:20.999Z</time></trkpt><trkpt lat="44.66723870814576" lon="8.221138814822863"><ele>519.0</ele><time>2026-05-03T12:59:21.999Z</time></trkpt><trkpt lat="44.6673719544565" lon="8.220991222767347"><ele>519.0</ele><time>2026-05-03T12:59:22.999Z</time></trkpt><trkpt lat="44.66750949872722" lon="8.22084343259221"><ele>519.0</ele><time>2026-05-03T12:59:23.999Z</time></trkpt><trkpt lat="44.66764733252714" lon="8.220689236471863"><ele>518.3333333333334</ele><time>2026-05-03T12:59:24.999Z</time></trkpt><trkpt lat="44.66779089988986" lon="8.220532457381328"><ele>517.6666666666667</ele><time>2026-05-03T12:59:25.999Z</time></trkpt><trkpt lat="44.66792360626945" lon="8.220413522386744"><ele>517.0</ele><time>2026-05-03T12:59:26.999Z</time></trkpt><trkpt lat="44.6680282181391" lon="8.22031385996209"><ele>517.0</ele><time>2026-05-03T12:59:27.999Z</time></trkpt><trkpt lat="44.668108612353834" lon="8.220208607979444"><ele>517.0</ele><time>2026-05-03T12:59:28.999Z</time></trkpt><trkpt lat="44.66818344033528" lon="8.220112141737696"><ele>517.0</ele><time>2026-05-03T12:59:29.999Z</time></trkpt><trkpt lat="44.66824580009678" lon="8.220033325569073"><ele>517.0</ele><time>2026-05-03T12:59:30.999Z</time></trkpt><trkpt lat="44.66829589638255" lon="8.21995419337367"><ele>517.0</ele><time>2026-05-03T12:59:31.999Z</time></trkpt><trkpt lat="44.66835278091877" lon="8.219855420336303"><ele>515.2</ele><time>2026-05-03T12:59:32.999Z</time></trkpt><trkpt lat="44.668413571419016" lon="8.219733316997562"><ele>513.4000000000001</ele><time>2026-05-03T12:59:33.999Z</time></trkpt><trkpt lat="44.668465715331884" lon="8.219622121867904"><ele>511.59999999999997</ele><time>2026-05-03T12:59:34.999Z</time></trkpt><trkpt lat="44.66852088897112" lon="8.219504581347167"><ele>509.79999999999995</ele><time>2026-05-03T12:59:35.999Z</time></trkpt><trkpt lat="44.668585815689845" lon="8.219426004534395"><ele>508.0</ele><time>2026-05-03T12:59:36.999Z</time></trkpt><trkpt lat="44.668666659988006" lon="8.219367859663908"><ele>508.0</ele><time>2026-05-03T12:59:37.999Z</time></trkpt><trkpt lat="44.66875532782358" lon="8.219340020764145"><ele>507.99999999999994</ele><time>2026-05-03T12:59:38.999Z</time></trkpt><trkpt lat="44.66886466509756" lon="8.21936114284634"><ele>507.99999999999994</ele><time>2026-05-03T12:59:39.999Z</time></trkpt><trkpt lat="44.66897700627067" lon="8.219391702693192"><ele>508.0</ele><time>2026-05-03T12:59:40.999Z</time></trkpt><trkpt lat="44.66910725212226" lon="8.219407449497647"><ele>508.0</ele><time>2026-05-03T12:59:41.999Z</time></trkpt><trkpt lat="44.669243812890166" lon="8.219470215872615"><ele>508.0</ele><time>2026-05-03T12:59:42.999Z</time></trkpt><trkpt lat="44.66939819128627" lon="8.21952061912519"><ele>508.0</ele><time>2026-05-03T12:59:43.999Z</time></trkpt><trkpt lat="44.66956594523773" lon="8.219575389364197"><ele>508.0</ele><time>2026-05-03T12:59:44.999Z</time></trkpt><trkpt lat="44.66973939521742" lon="8.219607588227337"><ele>507.0</ele><time>2026-05-03T12:59:45.999Z</time></trkpt><trkpt lat="44.66991046242072" lon="8.21968594579365"><ele>506.0</ele><time>2026-05-03T12:59:46.999Z</time></trkpt><trkpt lat="44.67008549722278" lon="8.219695774166423"><ele>505.0</ele><time>2026-05-03T12:59:47.999Z</time></trkpt><trkpt lat="44.670244895818165" lon="8.219712716111923"><ele>505.0</ele><time>2026-05-03T12:59:48.999Z</time></trkpt><trkpt lat="44.67039300303646" lon="8.219717374595644"><ele>505.0</ele><time>2026-05-03T12:59:49.999Z</time></trkpt><trkpt lat="44.670528174036555" lon="8.219705938022885"><ele>505.0</ele><time>2026-05-03T12:59:50.999Z</time></trkpt><trkpt lat="44.67067535068956" lon="8.219661777642047"><ele>505.0</ele><time>2026-05-03T12:59:51.999Z</time></trkpt><trkpt lat="44.67083244962598" lon="8.21957854360325"><ele>505.0</ele><time>2026-05-03T12:59:52.999Z</time></trkpt><trkpt lat="44.6709961733343" lon="8.219473934991047"><ele>505.0</ele><time>2026-05-03T12:59:53.999Z</time></trkpt><trkpt lat="44.67116791035451" lon="8.219370320179559"><ele>505.0</ele><time>2026-05-03T12:59:54.999Z</time></trkpt><trkpt lat="44.67133349507796" lon="8.219296614700646"><ele>508.0</ele><time>2026-05-03T12:59:55.999Z</time></trkpt><trkpt lat="44.67149530676751" lon="8.219199541864807"><ele>511.0</ele><time>2026-05-03T12:59:56.999Z</time></trkpt><trkpt lat="44.67164503846115" lon="8.219070087730152"><ele>514.0</ele><time>2026-05-03T12:59:57.999Z</time></trkpt><trkpt lat="44.67179815362044" lon="8.218916452014966"><ele>512.0</ele><time>2026-05-03T12:59:58.999Z</time></trkpt><trkpt lat="44.67195760880313" lon="8.218782583399285"><ele>510.0</ele><time>2026-05-03T12:59:59.999Z</time></trkpt><trkpt lat="44.672119673611206" lon="8.218645119875957"><ele>508.0</ele><time>2026-05-03T13:00:00.999Z</time></trkpt><trkpt lat="44.67228565815919" lon="8.218516609114216"><ele>508.0</ele><time>2026-05-03T13:00:01.999Z</time></trkpt><trkpt lat="44.67244912262979" lon="8.218355293629601"><ele>508.0</ele><time>2026-05-03T13:00:02.999Z</time></trkpt><trkpt lat="44.6726016456752" lon="8.218214741803552"><ele>508.0</ele><time>2026-05-03T13:00:03.999Z</time></trkpt><trkpt lat="44.672745959077936" lon="8.218099776905907"><ele>510.5</ele><time>2026-05-03T13:00:04.999Z</time></trkpt><trkpt lat="44.67287862920248" lon="8.217987416180357"><ele>513.0</ele><time>2026-05-03T13:00:05.999Z</time></trkpt><trkpt lat="44.67298825702125" lon="8.217868051940325"><ele>515.5</ele><time>2026-05-03T13:00:06.999Z</time></trkpt><trkpt lat="44.67307144098727" lon="8.217726056423869"><ele>518.0</ele><time>2026-05-03T13:00:08Z</time></trkpt><trkpt lat="44.67313599853141" lon="8.217573537438629"><ele>518.0</ele><time>2026-05-03T13:00:09Z</time></trkpt><trkpt lat="44.67318642820064" lon="8.21741991643009"><ele>518.0</ele><time>2026-05-03T13:00:10Z</time></trkpt><trkpt lat="44.67322493000554" lon="8.217294003138223"><ele>518.0</ele><time>2026-05-03T13:00:11Z</time></trkpt><trkpt lat="44.67326994358998" lon="8.217205069577554"><ele>518.0</ele><time>2026-05-03T13:00:12Z</time></trkpt><trkpt lat="44.673320658295644" lon="8.21708815322843"><ele>518.0</ele><time>2026-05-03T13:00:13Z</time></trkpt><trkpt lat="44.67343171003238" lon="8.217012480387268"><ele>515.5</ele><time>2026-05-03T13:00:14Z</time></trkpt><trkpt lat="44.673553247721664" lon="8.21691834762045"><ele>513.0</ele><time>2026-05-03T13:00:15Z</time></trkpt><trkpt lat="44.673679584690895" lon="8.216822337698915"><ele>510.5</ele><time>2026-05-03T13:00:16Z</time></trkpt><trkpt lat="44.67382411810049" lon="8.216725203664964"><ele>508.0</ele><time>2026-05-03T13:00:17Z</time></trkpt><trkpt lat="44.67395846097505" lon="8.216621283857405"><ele>508.0</ele><time>2026-05-03T13:00:18Z</time></trkpt><trkpt lat="44.67407274382633" lon="8.21649002465879"><ele>508.0</ele><time>2026-05-03T13:00:19Z</time></trkpt><trkpt lat="44.67417528554742" lon="8.216329434458112"><ele>508.0</ele><time>2026-05-03T13:00:20Z</time></trkpt><trkpt lat="44.67426626930479" lon="8.216139883444717"><ele>502.0</ele><time>2026-05-03T13:00:21Z</time></trkpt><trkpt lat="44.674351252411846" lon="8.215950458265988"><ele>496.0</ele><time>2026-05-03T13:00:22Z</time></trkpt><trkpt lat="44.67440272922818" lon="8.21572625636627"><ele>490.0</ele><time>2026-05-03T13:00:23Z</time></trkpt><trkpt lat="44.67443311729338" lon="8.215514833434007"><ele>490.5</ele><time>2026-05-03T13:00:24Z</time></trkpt><trkpt lat="44.67444455661083" lon="8.215316068455456"><ele>491.0</ele><time>2026-05-03T13:00:25Z</time></trkpt><trkpt lat="44.67445156378944" lon="8.21511447699485"><ele>491.5</ele><time>2026-05-03T13:00:26Z</time></trkpt><trkpt lat="44.67445785671563" lon="8.214916371739866"><ele>492.0</ele><time>2026-05-03T13:00:27Z</time></trkpt><trkpt lat="44.67445381786725" lon="8.214732771137765"><ele>489.75</ele><time>2026-05-03T13:00:28Z</time></trkpt><trkpt lat="44.674474049042125" lon="8.21453918036256"><ele>487.5</ele><time>2026-05-03T13:00:29Z</time></trkpt><trkpt lat="44.67450540909799" lon="8.214357070380697"><ele>485.25</ele><time>2026-05-03T13:00:30Z</time></trkpt><trkpt lat="44.67453534346535" lon="8.214198279275449"><ele>483.0</ele><time>2026-05-03T13:00:31Z</time></trkpt><trkpt lat="44.674576625488505" lon="8.214038006198603"><ele>481.3333333333333</ele><time>2026-05-03T13:00:32Z</time></trkpt><trkpt lat="44.6746150471447" lon="8.213888081051968"><ele>479.66666666666663</ele><time>2026-05-03T13:00:33Z</time></trkpt><trkpt lat="44.67465207544714" lon="8.213785354853897"><ele>478.0</ele><time>2026-05-03T13:00:34Z</time></trkpt><trkpt lat="44.674703618936455" lon="8.21369416554479"><ele>476.3333333333333</ele><time>2026-05-03T13:00:35Z</time></trkpt><trkpt lat="44.674783537496545" lon="8.213669530026674"><ele>474.66666666666663</ele><time>2026-05-03T13:00:36Z</time></trkpt><trkpt lat="44.67486758602056" lon="8.213693586418318"><ele>473.0</ele><time>2026-05-03T13:00:37Z</time></trkpt><trkpt lat="44.674964717096024" lon="8.213750680280095"><ele>473.0</ele><time>2026-05-03T13:00:38Z</time></trkpt><trkpt lat="44.675047152158236" lon="8.21386957727342"><ele>473.0</ele><time>2026-05-03T13:00:39Z</time></trkpt><trkpt lat="44.67516441184329" lon="8.2139563722116"><ele>473.0</ele><time>2026-05-03T13:00:40Z</time></trkpt><trkpt lat="44.675271377814624" lon="8.214067471548292"><ele>473.0</ele><time>2026-05-03T13:00:41Z</time></trkpt><trkpt lat="44.67538022998738" lon="8.214207268741694"><ele>472.66666666666663</ele><time>2026-05-03T13:00:42Z</time></trkpt><trkpt lat="44.67546882456395" lon="8.214387207695726"><ele>472.33333333333337</ele><time>2026-05-03T13:00:43Z</time></trkpt><trkpt lat="44.6755512958318" lon="8.214574281774953"><ele>472.0</ele><time>2026-05-03T13:00:44Z</time></trkpt><trkpt lat="44.67563504007491" lon="8.214773695298842"><ele>476.6666666666667</ele><time>2026-05-03T13:00:45Z</time></trkpt><trkpt lat="44.67573147127384" lon="8.214969877856742"><ele>481.33333333333337</ele><time>2026-05-03T13:00:46Z</time></trkpt><trkpt lat="44.67582922402582" lon="8.215176320963991"><ele>486.0</ele><time>2026-05-03T13:00:47Z</time></trkpt><trkpt lat="44.67593094432587" lon="8.215371627892244"><ele>486.0</ele><time>2026-05-03T13:00:48Z</time></trkpt><trkpt lat="44.67602501310166" lon="8.215572856305995"><ele>486.0</ele><time>2026-05-03T13:00:49Z</time></trkpt><trkpt lat="44.676113010719945" lon="8.215779525018092"><ele>486.0</ele><time>2026-05-03T13:00:50Z</time></trkpt><trkpt lat="44.67620058517073" lon="8.216000218033379"><ele>486.33333333333337</ele><time>2026-05-03T13:00:51Z</time></trkpt><trkpt lat="44.676276662655354" lon="8.216211044973365"><ele>486.6666666666667</ele><time>2026-05-03T13:00:52Z</time></trkpt><trkpt lat="44.67634401818288" lon="8.216404941304898"><ele>487.0</ele><time>2026-05-03T13:00:53Z</time></trkpt><trkpt lat="44.67641261788481" lon="8.216580967463237"><ele>487.0</ele><time>2026-05-03T13:00:54Z</time></trkpt><trkpt lat="44.67647225266731" lon="8.216740236950953"><ele>487.0</ele><time>2026-05-03T13:00:55Z</time></trkpt><trkpt lat="44.67652321451906" lon="8.216904204327971"><ele>487.0</ele><time>2026-05-03T13:00:56Z</time></trkpt><trkpt lat="44.676556697698096" lon="8.217086030420722"><ele>487.0</ele><time>2026-05-03T13:00:57Z</time></trkpt><trkpt lat="44.67655100676134" lon="8.217279763749536"><ele>488.25</ele><time>2026-05-03T13:00:58Z</time></trkpt><trkpt lat="44.67654156579999" lon="8.217482061816996"><ele>489.5</ele><time>2026-05-03T13:00:59Z</time></trkpt><trkpt lat="44.67653243538227" lon="8.217692537476243"><ele>490.75</ele><time>2026-05-03T13:01:00Z</time></trkpt><trkpt lat="44.67650137652207" lon="8.217900466150649"><ele>492.0</ele><time>2026-05-03T13:01:01Z</time></trkpt><trkpt lat="44.6764410118876" lon="8.218100849419512"><ele>493.0</ele><time>2026-05-03T13:01:02Z</time></trkpt><trkpt lat="44.67638936613649" lon="8.21829176333689"><ele>494.0</ele><time>2026-05-03T13:01:03Z</time></trkpt><trkpt lat="44.67635332839848" lon="8.218474225332088"><ele>495.0</ele><time>2026-05-03T13:01:04Z</time></trkpt><trkpt lat="44.6763140847671" lon="8.218644194915354"><ele>496.0</ele><time>2026-05-03T13:01:05Z</time></trkpt><trkpt lat="44.67629421074586" lon="8.218792036947406"><ele>496.0</ele><time>2026-05-03T13:01:06Z</time></trkpt><trkpt lat="44.676319057630714" lon="8.218919041545082"><ele>496.0</ele><time>2026-05-03T13:01:07Z</time></trkpt><trkpt lat="44.676337329659624" lon="8.219018130081036"><ele>496.0</ele><time>2026-05-03T13:01:08Z</time></trkpt><trkpt lat="44.67640574798789" lon="8.219109588439137"><ele>496.0</ele><time>2026-05-03T13:01:09Z</time></trkpt><trkpt lat="44.67649091260026" lon="8.219168134243327"><ele>496.0</ele><time>2026-05-03T13:01:10Z</time></trkpt><trkpt lat="44.676588790075584" lon="8.219244567240231"><ele>497.75</ele><time>2026-05-03T13:01:11Z</time></trkpt><trkpt lat="44.676674829194326" lon="8.219366633443538"><ele>499.5</ele><time>2026-05-03T13:01:12Z</time></trkpt><trkpt lat="44.67675734367458" lon="8.219501311443041"><ele>501.25</ele><time>2026-05-03T13:01:13Z</time></trkpt><trkpt lat="44.676853220569505" lon="8.21963483536286"><ele>503.0</ele><time>2026-05-03T13:01:14Z</time></trkpt><trkpt lat="44.6769528404879" lon="8.219746005787282"><ele>501.75</ele><time>2026-05-03T13:01:15Z</time></trkpt><trkpt lat="44.67704474196979" lon="8.219845240484892"><ele>500.5</ele><time>2026-05-03T13:01:16Z</time></trkpt><trkpt lat="44.67714902819817" lon="8.21990629295839"><ele>499.25</ele><time>2026-05-03T13:01:17Z</time></trkpt><trkpt lat="44.67726683186863" lon="8.219922052769341"><ele>498.0</ele><time>2026-05-03T13:01:18Z</time></trkpt><trkpt lat="44.677388586870805" lon="8.219917348966355"><ele>498.0</ele><time>2026-05-03T13:01:19Z</time></trkpt><trkpt lat="44.677497749376364" lon="8.21991286387649"><ele>498.0</ele><time>2026-05-03T13:01:20Z</time></trkpt><trkpt lat="44.677616357853545" lon="8.21988868468334"><ele>498.0</ele><time>2026-05-03T13:01:21Z</time></trkpt><trkpt lat="44.67773833052548" lon="8.219839259280992"><ele>498.0</ele><time>2026-05-03T13:01:22Z</time></trkpt><trkpt lat="44.67785743317702" lon="8.21977317351432"><ele>494.2</ele><time>2026-05-03T13:01:23Z</time></trkpt><trkpt lat="44.67797302040239" lon="8.219710327052063"><ele>490.4</ele><time>2026-05-03T13:01:24Z</time></trkpt><trkpt lat="44.678072920734735" lon="8.2196667877802"><ele>486.59999999999997</ele><time>2026-05-03T13:01:24.999Z</time></trkpt><trkpt lat="44.67814445840855" lon="8.219628461065197"><ele>482.79999999999995</ele><time>2026-05-03T13:01:25.999Z</time></trkpt><trkpt lat="44.678206909501014" lon="8.219595384760735"><ele>479.0</ele><time>2026-05-03T13:01:26.999Z</time></trkpt><trkpt lat="44.67828291474595" lon="8.219570860769501"><ele>479.0</ele><time>2026-05-03T13:01:27.999Z</time></trkpt><trkpt lat="44.67835468672996" lon="8.21958508287892"><ele>479.0</ele><time>2026-05-03T13:01:28.999Z</time></trkpt><trkpt lat="44.678427250102345" lon="8.219672308614223"><ele>479.0</ele><time>2026-05-03T13:01:29.999Z</time></trkpt><trkpt lat="44.678497019555806" lon="8.219801160574676"><ele>479.0</ele><time>2026-05-03T13:01:30.999Z</time></trkpt><trkpt lat="44.678581615511014" lon="8.219945998860432"><ele>479.0</ele><time>2026-05-03T13:01:31.999Z</time></trkpt><trkpt lat="44.67867675145119" lon="8.220079004836485"><ele>478.66666666666663</ele><time>2026-05-03T13:01:32.999Z</time></trkpt><trkpt lat="44.67881560228425" lon="8.220179605413623"><ele>478.33333333333337</ele><time>2026-05-03T13:01:33.999Z</time></trkpt><trkpt lat="44.67897189954437" lon="8.22024003964223"><ele>478.0</ele><time>2026-05-03T13:01:34.999Z</time></trkpt><trkpt lat="44.679125844820206" lon="8.22026524125677"><ele>478.0</ele><time>2026-05-03T13:01:35.999Z</time></trkpt><trkpt lat="44.6792792930697" lon="8.220276269750407"><ele>478.0</ele><time>2026-05-03T13:01:36.999Z</time></trkpt><trkpt lat="44.67942095109196" lon="8.220312224392448"><ele>478.0</ele><time>2026-05-03T13:01:37.999Z</time></trkpt><trkpt lat="44.67955956891113" lon="8.22037304913144"><ele>478.0</ele><time>2026-05-03T13:01:38.999Z</time></trkpt><trkpt lat="44.679669663700814" lon="8.220484419523025"><ele>477.5</ele><time>2026-05-03T13:01:39.999Z</time></trkpt><trkpt lat="44.67976213678814" lon="8.220605721222935"><ele>477.0</ele><time>2026-05-03T13:01:40.999Z</time></trkpt><trkpt lat="44.679850978278154" lon="8.22074927466234"><ele>476.5</ele><time>2026-05-03T13:01:41.999Z</time></trkpt><trkpt lat="44.679963131588565" lon="8.220867412961438"><ele>476.0</ele><time>2026-05-03T13:01:42.999Z</time></trkpt><trkpt lat="44.680100775097785" lon="8.220979848081654"><ele>476.0</ele><time>2026-05-03T13:01:43.999Z</time></trkpt><trkpt lat="44.680253731916075" lon="8.221068831418556"><ele>476.0</ele><time>2026-05-03T13:01:44.999Z</time></trkpt><trkpt lat="44.68041565701326" lon="8.221175497764557"><ele>476.0</ele><time>2026-05-03T13:01:45.999Z</time></trkpt><trkpt lat="44.680596663936825" lon="8.221242412767854"><ele>471.3333333333333</ele><time>2026-05-03T13:01:46.999Z</time></trkpt><trkpt lat="44.68076936559415" lon="8.22125496586672"><ele>466.66666666666663</ele><time>2026-05-03T13:01:47.999Z</time></trkpt><trkpt lat="44.68093085912639" lon="8.221273306824234"><ele>462.0</ele><time>2026-05-03T13:01:48.999Z</time></trkpt><trkpt lat="44.6810922706116" lon="8.221302278022161"><ele>461.0</ele><time>2026-05-03T13:01:49.999Z</time></trkpt><trkpt lat="44.68125423440911" lon="8.221288337678535"><ele>460.0</ele><time>2026-05-03T13:01:50.999Z</time></trkpt><trkpt lat="44.68140521835296" lon="8.221279414212171"><ele>459.0</ele><time>2026-05-03T13:01:51.999Z</time></trkpt><trkpt lat="44.68155034366193" lon="8.221228985559925"><ele>459.0</ele><time>2026-05-03T13:01:52.999Z</time></trkpt><trkpt lat="44.68165186565458" lon="8.221168914037328"><ele>459.0</ele><time>2026-05-03T13:01:53.999Z</time></trkpt><trkpt lat="44.68174452295589" lon="8.221067613445948"><ele>459.0</ele><time>2026-05-03T13:01:54.999Z</time></trkpt><trkpt lat="44.68183849977196" lon="8.220941461185461"><ele>459.0</ele><time>2026-05-03T13:01:55.999Z</time></trkpt><trkpt lat="44.68191104775831" lon="8.220790345289451"><ele>455.75</ele><time>2026-05-03T13:01:56.999Z</time></trkpt><trkpt lat="44.68199592989788" lon="8.220637665876495"><ele>452.5</ele><time>2026-05-03T13:01:57.999Z</time></trkpt><trkpt lat="44.682074681467384" lon="8.220482352732912"><ele>449.25</ele><time>2026-05-03T13:01:58.999Z</time></trkpt><trkpt lat="44.68214945506426" lon="8.220358028165528"><ele>446.0</ele><time>2026-05-03T13:01:59.999Z</time></trkpt><trkpt lat="44.68221534937732" lon="8.220268567751432"><ele>446.0</ele><time>2026-05-03T13:02:00.999Z</time></trkpt><trkpt lat="44.68229241053945" lon="8.220238198159619"><ele>446.0</ele><time>2026-05-03T13:02:01.999Z</time></trkpt><trkpt lat="44.6823685712553" lon="8.220262664627343"><ele>446.0</ele><time>2026-05-03T13:02:02.999Z</time></trkpt><trkpt lat="44.68244635926118" lon="8.220335458779902"><ele>446.0</ele><time>2026-05-03T13:02:03.999Z</time></trkpt><trkpt lat="44.682521489746726" lon="8.220425243735516"><ele>446.0</ele><time>2026-05-03T13:02:04.999Z</time></trkpt><trkpt lat="44.682624583666154" lon="8.220503520064003"><ele>446.0</ele><time>2026-05-03T13:02:05.999Z</time></trkpt><trkpt lat="44.68274423282239" lon="8.220550281406748"><ele>446.0</ele><time>2026-05-03T13:02:06.999Z</time></trkpt><trkpt lat="44.68287919413703" lon="8.220567389747675"><ele>446.0</ele><time>2026-05-03T13:02:07.999Z</time></trkpt><trkpt lat="44.683015653500135" lon="8.220567910138264"><ele>446.0</ele><time>2026-05-03T13:02:08.999Z</time></trkpt><trkpt lat="44.68316239146222" lon="8.220503477108034"><ele>448.3333333333333</ele><time>2026-05-03T13:02:09.999Z</time></trkpt><trkpt lat="44.68331527219581" lon="8.220425766954516"><ele>450.66666666666663</ele><time>2026-05-03T13:02:10.999Z</time></trkpt><trkpt lat="44.68348320791896" lon="8.220403763256432"><ele>453.0</ele><time>2026-05-03T13:02:11.999Z</time></trkpt><trkpt lat="44.68367923828479" lon="8.22035339194083"><ele>453.0</ele><time>2026-05-03T13:02:12.999Z</time></trkpt><trkpt lat="44.683850660474604" lon="8.220319692080695"><ele>453.0</ele><time>2026-05-03T13:02:14Z</time></trkpt><trkpt lat="44.684007174038555" lon="8.22027934358004"><ele>453.0</ele><time>2026-05-03T13:02:15Z</time></trkpt><trkpt lat="44.68414384755877" lon="8.220235609884561"><ele>453.0</ele><time>2026-05-03T13:02:16Z</time></trkpt><trkpt lat="44.684258790147126" lon="8.220162466711862"><ele>453.0</ele><time>2026-05-03T13:02:17Z</time></trkpt><trkpt lat="44.68435161772712" lon="8.219998783861891"><ele>453.0</ele><time>2026-05-03T13:02:18Z</time></trkpt><trkpt lat="44.684443779262125" lon="8.21984917993061"><ele>453.0</ele><time>2026-05-03T13:02:19Z</time></trkpt><trkpt lat="44.68453541662881" lon="8.219719149067497"><ele>455.25</ele><time>2026-05-03T13:02:20Z</time></trkpt><trkpt lat="44.6846333902856" lon="8.219602189984302"><ele>457.5</ele><time>2026-05-03T13:02:21Z</time></trkpt><trkpt lat="44.684708821916" lon="8.219483345193732"><ele>459.75</ele><time>2026-05-03T13:02:22Z</time></trkpt><trkpt lat="44.68474514974786" lon="8.219330141703919"><ele>462.0</ele><time>2026-05-03T13:02:23Z</time></trkpt><trkpt lat="44.684714222764626" lon="8.219164709882117"><ele>460.5</ele><time>2026-05-03T13:02:24Z</time></trkpt><trkpt lat="44.684664410601414" lon="8.218982383487194"><ele>459.0</ele><time>2026-05-03T13:02:25Z</time></trkpt><trkpt lat="44.684595586007816" lon="8.218813035173287"><ele>457.5</ele><time>2026-05-03T13:02:26Z</time></trkpt><trkpt lat="44.68453391497219" lon="8.218658808406964"><ele>456.0</ele><time>2026-05-03T13:02:27Z</time></trkpt><trkpt lat="44.684488337205515" lon="8.218502820270825"><ele>456.0</ele><time>2026-05-03T13:02:28Z</time></trkpt><trkpt lat="44.68447911733794" lon="8.21835140104649"><ele>456.0</ele><time>2026-05-03T13:02:29Z</time></trkpt><trkpt lat="44.68447994667024" lon="8.218205032452097"><ele>456.0</ele><time>2026-05-03T13:02:30Z</time></trkpt><trkpt lat="44.6845254671573" lon="8.21808843917695"><ele>456.0</ele><time>2026-05-03T13:02:31Z</time></trkpt><trkpt lat="44.684574789109355" lon="8.217974905792603"><ele>456.0</ele><time>2026-05-03T13:02:32Z</time></trkpt><trkpt lat="44.684614527722815" lon="8.217818970591853"><ele>453.0</ele><time>2026-05-03T13:02:33Z</time></trkpt><trkpt lat="44.68463843775159" lon="8.217646988864331"><ele>450.0</ele><time>2026-05-03T13:02:34Z</time></trkpt><trkpt lat="44.68462495723458" lon="8.217472850434346"><ele>447.0</ele><time>2026-05-03T13:02:35Z</time></trkpt><trkpt lat="44.68460592090741" lon="8.217322773573615"><ele>444.0</ele><time>2026-05-03T13:02:36Z</time></trkpt><trkpt lat="44.68462525013853" lon="8.217187157598069"><ele>440.2</ele><time>2026-05-03T13:02:37Z</time></trkpt><trkpt lat="44.68465555952969" lon="8.217083717844167"><ele>436.4</ele><time>2026-05-03T13:02:38Z</time></trkpt><trkpt lat="44.68474408509988" lon="8.217010220075014"><ele>432.6</ele><time>2026-05-03T13:02:39Z</time></trkpt><trkpt lat="44.68486393656759" lon="8.216981153512519"><ele>428.8</ele><time>2026-05-03T13:02:40Z</time></trkpt><trkpt lat="44.68498597405697" lon="8.216909706940928"><ele>425.0</ele><time>2026-05-03T13:02:41Z</time></trkpt><trkpt lat="44.68509942184492" lon="8.216865886295661"><ele>425.0</ele><time>2026-05-03T13:02:42Z</time></trkpt><trkpt lat="44.68521282300361" lon="8.216888732705765"><ele>425.0</ele><time>2026-05-03T13:02:43Z</time></trkpt><trkpt lat="44.685338103977095" lon="8.21694624376387"><ele>425.0</ele><time>2026-05-03T13:02:44Z</time></trkpt><trkpt lat="44.68547270957463" lon="8.216978154143076"><ele>425.0</ele><time>2026-05-03T13:02:45Z</time></trkpt><trkpt lat="44.6856095567952" lon="8.216969182646793"><ele>423.0</ele><time>2026-05-03T13:02:46Z</time></trkpt><trkpt lat="44.68572957379831" lon="8.216969239534093"><ele>421.0</ele><time>2026-05-03T13:02:47Z</time></trkpt><trkpt lat="44.68583776059582" lon="8.21703652528684"><ele>419.0</ele><time>2026-05-03T13:02:48Z</time></trkpt><trkpt lat="44.685942965727016" lon="8.217156716927217"><ele>417.0</ele><time>2026-05-03T13:02:49Z</time></trkpt><trkpt lat="44.686069095065406" lon="8.217315915019071"><ele>416.0</ele><time>2026-05-03T13:02:50Z</time></trkpt><trkpt lat="44.68620108838607" lon="8.21746979151169"><ele>415.0</ele><time>2026-05-03T13:02:51Z</time></trkpt><trkpt lat="44.68634289923714" lon="8.217635881324286"><ele>414.0</ele><time>2026-05-03T13:02:52Z</time></trkpt><trkpt lat="44.68647608421331" lon="8.2177901523935"><ele>414.0</ele><time>2026-05-03T13:02:53Z</time></trkpt><trkpt lat="44.686617408388706" lon="8.217918046736692"><ele>414.0</ele><time>2026-05-03T13:02:54Z</time></trkpt><trkpt lat="44.68675774193208" lon="8.218012393162995"><ele>414.0</ele><time>2026-05-03T13:02:55Z</time></trkpt><trkpt lat="44.68687982746739" lon="8.218105696321375"><ele>411.66666666666663</ele><time>2026-05-03T13:02:56Z</time></trkpt><trkpt lat="44.68698756519829" lon="8.218238170711532"><ele>409.3333333333333</ele><time>2026-05-03T13:02:57Z</time></trkpt><trkpt lat="44.68708752926493" lon="8.21840890967441"><ele>407.0</ele><time>2026-05-03T13:02:58Z</time></trkpt><trkpt lat="44.687199928936145" lon="8.218588236681953"><ele>407.0</ele><time>2026-05-03T13:02:59Z</time></trkpt><trkpt lat="44.68733326108178" lon="8.218742063682088"><ele>407.0</ele><time>2026-05-03T13:03:00Z</time></trkpt><trkpt lat="44.68748195896369" lon="8.218898506409971"><ele>407.0</ele><time>2026-05-03T13:03:01Z</time></trkpt><trkpt lat="44.68760323593962" lon="8.21906920798352"><ele>404.3333333333333</ele><time>2026-05-03T13:03:02Z</time></trkpt><trkpt lat="44.6877055344899" lon="8.219247004045036"><ele>401.66666666666663</ele><time>2026-05-03T13:03:03Z</time></trkpt><trkpt lat="44.68780271217279" lon="8.219428359467758"><ele>399.0</ele><time>2026-05-03T13:03:04Z</time></trkpt><trkpt lat="44.68791958228381" lon="8.219586850962997"><ele>399.0</ele><time>2026-05-03T13:03:05Z</time></trkpt><trkpt lat="44.68805508320624" lon="8.21972049615096"><ele>399.0</ele><time>2026-05-03T13:03:06Z</time></trkpt><trkpt lat="44.688187075914826" lon="8.219843658967001"><ele>399.0</ele><time>2026-05-03T13:03:07Z</time></trkpt><trkpt lat="44.688332946965325" lon="8.219943848557568"><ele>401.66666666666663</ele><time>2026-05-03T13:03:08Z</time></trkpt><trkpt lat="44.6884974980943" lon="8.22002097349765"><ele>404.3333333333333</ele><time>2026-05-03T13:03:09Z</time></trkpt><trkpt lat="44.68867131748725" lon="8.220080861615296"><ele>407.0</ele><time>2026-05-03T13:03:10Z</time></trkpt><trkpt lat="44.688847747348355" lon="8.220117050136745"><ele>407.0</ele><time>2026-05-03T13:03:11Z</time></trkpt><trkpt lat="44.68900461637715" lon="8.220136500970279"><ele>407.0</ele><time>2026-05-03T13:03:12Z</time></trkpt><trkpt lat="44.6891565972628" lon="8.220116952225029"><ele>407.0</ele><time>2026-05-03T13:03:13Z</time></trkpt><trkpt lat="44.68928259729206" lon="8.22006032540798"><ele>407.0</ele><time>2026-05-03T13:03:14Z</time></trkpt><trkpt lat="44.689402780675934" lon="8.219963272843469"><ele>406.75</ele><time>2026-05-03T13:03:15Z</time></trkpt><trkpt lat="44.68953123112842" lon="8.219847029174845"><ele>406.5</ele><time>2026-05-03T13:03:16Z</time></trkpt><trkpt lat="44.68965589063781" lon="8.219753960060945"><ele>406.25</ele><time>2026-05-03T13:03:17Z</time></trkpt><trkpt lat="44.689747446430985" lon="8.219719931879148"><ele>406.0</ele><time>2026-05-03T13:03:18Z</time></trkpt><trkpt lat="44.68986298857133" lon="8.219743705966202"><ele>401.0</ele><time>2026-05-03T13:03:19Z</time></trkpt><trkpt lat="44.68999596555709" lon="8.219786107528536"><ele>396.0</ele><time>2026-05-03T13:03:20Z</time></trkpt><trkpt lat="44.690156878678664" lon="8.219798888617778"><ele>391.0</ele><time>2026-05-03T13:03:21Z</time></trkpt><trkpt lat="44.6903219303104" lon="8.21983471184207"><ele>391.0</ele><time>2026-05-03T13:03:22Z</time></trkpt><trkpt lat="44.69047392202531" lon="8.219835474737499"><ele>391.0</ele><time>2026-05-03T13:03:23Z</time></trkpt><trkpt lat="44.690626167344504" lon="8.219823526092497"><ele>391.0</ele><time>2026-05-03T13:03:24Z</time></trkpt><trkpt lat="44.69077856921796" lon="8.219813821830666"><ele>391.0</ele><time>2026-05-03T13:03:25Z</time></trkpt><trkpt lat="44.69092827378263" lon="8.219813851925885"><ele>391.0</ele><time>2026-05-03T13:03:26Z</time></trkpt><trkpt lat="44.69106599551301" lon="8.219834870052356"><ele>391.0</ele><time>2026-05-03T13:03:27Z</time></trkpt><trkpt lat="44.69119121190249" lon="8.219839085149026"><ele>391.0</ele><time>2026-05-03T13:03:28Z</time></trkpt><trkpt lat="44.691297133619614" lon="8.219828762651424"><ele>387.0</ele><time>2026-05-03T13:03:28.999Z</time></trkpt><trkpt lat="44.691393776809434" lon="8.219824096878499"><ele>383.0</ele><time>2026-05-03T13:03:29.999Z</time></trkpt><trkpt lat="44.69148010776018" lon="8.219852611451909"><ele>379.0</ele><time>2026-05-03T13:03:30.999Z</time></trkpt><trkpt lat="44.69153605473467" lon="8.219971885587366"><ele>375.0</ele><time>2026-05-03T13:03:31.999Z</time></trkpt><trkpt lat="44.69151843652781" lon="8.220101401990544"><ele>371.0</ele><time>2026-05-03T13:03:32.999Z</time></trkpt><trkpt lat="44.69150770987277" lon="8.220267518866276"><ele>371.0</ele><time>2026-05-03T13:03:33.999Z</time></trkpt><trkpt lat="44.691528141143166" lon="8.22047257622587"><ele>371.0</ele><time>2026-05-03T13:03:34.999Z</time></trkpt><trkpt lat="44.69154360828302" lon="8.220666992139165"><ele>371.0</ele><time>2026-05-03T13:03:35.999Z</time></trkpt><trkpt lat="44.69157213600971" lon="8.220852260652304"><ele>371.0</ele><time>2026-05-03T13:03:36.999Z</time></trkpt><trkpt lat="44.691582810486416" lon="8.221016110587561"><ele>371.25</ele><time>2026-05-03T13:03:37.999Z</time></trkpt><trkpt lat="44.69153666685677" lon="8.221174560455218"><ele>371.5</ele><time>2026-05-03T13:03:38.999Z</time></trkpt><trkpt lat="44.6914656318241" lon="8.221322267397614"><ele>371.75</ele><time>2026-05-03T13:03:39.999Z</time></trkpt><trkpt lat="44.691374742902184" lon="8.221437172982721"><ele>372.0</ele><time>2026-05-03T13:03:40.999Z</time></trkpt><trkpt lat="44.69128612590433" lon="8.221560493156412"><ele>371.25</ele><time>2026-05-03T13:03:41.999Z</time></trkpt><trkpt lat="44.69123485118166" lon="8.221712378887228"><ele>370.5</ele><time>2026-05-03T13:03:42.999Z</time></trkpt><trkpt lat="44.69123500015475" lon="8.221910984955704"><ele>369.75</ele><time>2026-05-03T13:03:43.999Z</time></trkpt><trkpt lat="44.69126140838435" lon="8.222131841267748"><ele>369.0</ele><time>2026-05-03T13:03:44.999Z</time></trkpt><trkpt lat="44.69126955365049" lon="8.222373386520752"><ele>368.3333333333333</ele><time>2026-05-03T13:03:45.999Z</time></trkpt><trkpt lat="44.691274375455755" lon="8.222624362041751"><ele>367.66666666666663</ele><time>2026-05-03T13:03:46.999Z</time></trkpt><trkpt lat="44.69128527717095" lon="8.222870322469335"><ele>367.0</ele><time>2026-05-03T13:03:47.999Z</time></trkpt><trkpt lat="44.69129373085602" lon="8.223097172104309"><ele>364.66666666666663</ele><time>2026-05-03T13:03:48.999Z</time></trkpt><trkpt lat="44.691305946856296" lon="8.223322695052667"><ele>362.3333333333333</ele><time>2026-05-03T13:03:49.999Z</time></trkpt><trkpt lat="44.69130792650407" lon="8.223532383236252"><ele>360.0</ele><time>2026-05-03T13:03:50.999Z</time></trkpt><trkpt lat="44.691292852015806" lon="8.223729754335634"><ele>360.0</ele><time>2026-05-03T13:03:51.999Z</time></trkpt><trkpt lat="44.691271861637134" lon="8.223907120660133"><ele>360.0</ele><time>2026-05-03T13:03:52.999Z</time></trkpt><trkpt lat="44.6912280108734" lon="8.224066486187155"><ele>360.0</ele><time>2026-05-03T13:03:53.999Z</time></trkpt><trkpt lat="44.69118982800533" lon="8.224180215248591"><ele>360.0</ele><time>2026-05-03T13:03:54.999Z</time></trkpt><trkpt lat="44.69117249770668" lon="8.224280132634087"><ele>360.0</ele><time>2026-05-03T13:03:55.999Z</time></trkpt><trkpt lat="44.69120052934957" lon="8.224382285753373"><ele>358.8</ele><time>2026-05-03T13:03:56.999Z</time></trkpt><trkpt lat="44.69126004801145" lon="8.224435368535307"><ele>357.6</ele><time>2026-05-03T13:03:57.999Z</time></trkpt><trkpt lat="44.691343904537" lon="8.224449488824396"><ele>356.4</ele><time>2026-05-03T13:03:58.999Z</time></trkpt><trkpt lat="44.691440814916085" lon="8.22443708657906"><ele>355.2</ele><time>2026-05-03T13:03:59.999Z</time></trkpt><trkpt lat="44.69153112420259" lon="8.224331674767402"><ele>354.0</ele><time>2026-05-03T13:04:00.999Z</time></trkpt><trkpt lat="44.69161706726099" lon="8.224211138791398"><ele>354.0</ele><time>2026-05-03T13:04:01.999Z</time></trkpt><trkpt lat="44.69170683953159" lon="8.224104295432209"><ele>354.0</ele><time>2026-05-03T13:04:02.999Z</time></trkpt><trkpt lat="44.691829851977275" lon="8.224050343640606"><ele>354.0</ele><time>2026-05-03T13:04:03.999Z</time></trkpt><trkpt lat="44.69195949296743" lon="8.223966969300903"><ele>354.0</ele><time>2026-05-03T13:04:04.999Z</time></trkpt><trkpt lat="44.692068691604966" lon="8.223840341502115"><ele>353.0</ele><time>2026-05-03T13:04:05.999Z</time></trkpt><trkpt lat="44.69215705141207" lon="8.223651506543192"><ele>352.0</ele><time>2026-05-03T13:04:06.999Z</time></trkpt><trkpt lat="44.692259494550036" lon="8.223462467615699"><ele>351.0</ele><time>2026-05-03T13:04:07.999Z</time></trkpt><trkpt lat="44.692370146096856" lon="8.223271013725542"><ele>351.3333333333333</ele><time>2026-05-03T13:04:08.999Z</time></trkpt><trkpt lat="44.69248364678369" lon="8.223074303530693"><ele>351.66666666666663</ele><time>2026-05-03T13:04:09.999Z</time></trkpt><trkpt lat="44.69258326733411" lon="8.222878385183476"><ele>352.0</ele><time>2026-05-03T13:04:10.999Z</time></trkpt><trkpt lat="44.69266304433594" lon="8.222683471857009"><ele>352.0</ele><time>2026-05-03T13:04:11.999Z</time></trkpt><trkpt lat="44.69273320701653" lon="8.222481356304593"><ele>352.0</ele><time>2026-05-03T13:04:12.999Z</time></trkpt><trkpt lat="44.692790141521705" lon="8.222244242970334"><ele>352.0</ele><time>2026-05-03T13:04:13.999Z</time></trkpt><trkpt lat="44.69286094644246" lon="8.222015137051812"><ele>344.3333333333333</ele><time>2026-05-03T13:04:14.999Z</time></trkpt><trkpt lat="44.69291333490777" lon="8.22179270487088"><ele>336.6666666666667</ele><time>2026-05-03T13:04:15.999Z</time></trkpt><trkpt lat="44.69295172589098" lon="8.221532410689518"><ele>329.0</ele><time>2026-05-03T13:04:16.999Z</time></trkpt><trkpt lat="44.69296917510248" lon="8.221273243406142"><ele>329.0</ele><time>2026-05-03T13:04:17.999Z</time></trkpt><trkpt lat="44.69297904003107" lon="8.221042831843429"><ele>329.0</ele><time>2026-05-03T13:04:18.999Z</time></trkpt><trkpt lat="44.692974034777" lon="8.220804214897491"><ele>329.0</ele><time>2026-05-03T13:04:20Z</time></trkpt><trkpt lat="44.69295285625654" lon="8.22056912509742"><ele>327.25</ele><time>2026-05-03T13:04:21Z</time></trkpt><trkpt lat="44.69290115397826" lon="8.220366234792664"><ele>325.5</ele><time>2026-05-03T13:04:22Z</time></trkpt><trkpt lat="44.692856180968775" lon="8.22018496302201"><ele>323.75</ele><time>2026-05-03T13:04:23Z</time></trkpt><trkpt lat="44.692785093465815" lon="8.220024185554173"><ele>322.0</ele><time>2026-05-03T13:04:24Z</time></trkpt><trkpt lat="44.69269108129348" lon="8.219884484087943"><ele>326.5</ele><time>2026-05-03T13:04:25Z</time></trkpt><trkpt lat="44.692589483350304" lon="8.219739429757631"><ele>331.0</ele><time>2026-05-03T13:04:26Z</time></trkpt><trkpt lat="44.692505784357515" lon="8.219595169449054"><ele>335.5</ele><time>2026-05-03T13:04:27Z</time></trkpt><trkpt lat="44.692472580144475" lon="8.219431417362973"><ele>340.0</ele><time>2026-05-03T13:04:28Z</time></trkpt><trkpt lat="44.6924752591582" lon="8.219262160592177"><ele>340.0</ele><time>2026-05-03T13:04:29Z</time></trkpt><trkpt lat="44.69252113495284" lon="8.219114078807356"><ele>340.0</ele><time>2026-05-03T13:04:30Z</time></trkpt><trkpt lat="44.69258067790034" lon="8.218971921681744"><ele>340.0</ele><time>2026-05-03T13:04:31Z</time></trkpt><trkpt lat="44.692634513255385" lon="8.218805662311635"><ele>340.0</ele><time>2026-05-03T13:04:32Z</time></trkpt><trkpt lat="44.692670553011034" lon="8.218637726210666"><ele>336.5</ele><time>2026-05-03T13:04:33Z</time></trkpt><trkpt lat="44.692689522024665" lon="8.218473991476623"><ele>333.0</ele><time>2026-05-03T13:04:34Z</time></trkpt><trkpt lat="44.69266137862113" lon="8.218331291250323"><ele>329.5</ele><time>2026-05-03T13:04:35Z</time></trkpt><trkpt lat="44.692630504342006" lon="8.218187993155963"><ele>326.0</ele><time>2026-05-03T13:04:36Z</time></trkpt><trkpt lat="44.692576850399114" lon="8.21802640372804"><ele>321.8</ele><time>2026-05-03T13:04:37Z</time></trkpt><trkpt lat="44.69253445401974" lon="8.217898764122216"><ele>317.6</ele><time>2026-05-03T13:04:38Z</time></trkpt><trkpt lat="44.69242524902478" lon="8.21779129161932"><ele>313.4</ele><time>2026-05-03T13:04:39Z</time></trkpt><trkpt lat="44.692355926815424" lon="8.217728397412415"><ele>309.2</ele><time>2026-05-03T13:04:40Z</time></trkpt><trkpt lat="44.69226141586928" lon="8.21767143327641"><ele>305.0</ele><time>2026-05-03T13:04:41Z</time></trkpt><trkpt lat="44.692159025393785" lon="8.217655768978153"><ele>305.0</ele><time>2026-05-03T13:04:42Z</time></trkpt><trkpt lat="44.692046442684976" lon="8.217656773451848"><ele>305.0</ele><time>2026-05-03T13:04:43Z</time></trkpt><trkpt lat="44.69193067435507" lon="8.217697881407748"><ele>305.0</ele><time>2026-05-03T13:04:44Z</time></trkpt><trkpt lat="44.69183585294636" lon="8.217734194255494"><ele>305.0</ele><time>2026-05-03T13:04:45Z</time></trkpt><trkpt lat="44.69175143074373" lon="8.21770972300757"><ele>305.0</ele><time>2026-05-03T13:04:46Z</time></trkpt><trkpt lat="44.69168111244947" lon="8.217594987027184"><ele>306.75</ele><time>2026-05-03T13:04:47Z</time></trkpt><trkpt lat="44.691707792017766" lon="8.217443146199258"><ele>308.5</ele><time>2026-05-03T13:04:48Z</time></trkpt><trkpt lat="44.691783767856634" lon="8.2172156856999"><ele>310.25</ele><time>2026-05-03T13:04:50Z</time></trkpt><trkpt lat="44.691821669144446" lon="8.217003121101142"><ele>312.0</ele><time>2026-05-03T13:04:51Z</time></trkpt><trkpt lat="44.6918216383675" lon="8.216804767292306"><ele>312.0</ele><time>2026-05-03T13:04:52Z</time></trkpt><trkpt lat="44.69178666917536" lon="8.21661882765256"><ele>312.0</ele><time>2026-05-03T13:04:53Z</time></trkpt><trkpt lat="44.69177836196312" lon="8.216432210726234"><ele>312.0</ele><time>2026-05-03T13:04:54Z</time></trkpt><trkpt lat="44.691762086961845" lon="8.216265824220589"><ele>312.0</ele><time>2026-05-03T13:04:55Z</time></trkpt><trkpt lat="44.69176120444896" lon="8.216126950777177"><ele>310.5</ele><time>2026-05-03T13:04:56Z</time></trkpt><trkpt lat="44.691792240370454" lon="8.215966106801037"><ele>309.0</ele><time>2026-05-03T13:04:57Z</time></trkpt><trkpt lat="44.691860187126316" lon="8.21578834773898"><ele>307.5</ele><time>2026-05-03T13:04:58Z</time></trkpt><trkpt lat="44.69193886432375" lon="8.215595443352667"><ele>306.0</ele><time>2026-05-03T13:04:59Z</time></trkpt><trkpt lat="44.69201247144442" lon="8.215414071948068"><ele>300.3333333333333</ele><time>2026-05-03T13:05:00Z</time></trkpt><trkpt lat="44.69208201720491" lon="8.215220883663223"><ele>294.66666666666663</ele><time>2026-05-03T13:05:01Z</time></trkpt><trkpt lat="44.69212417839854" lon="8.21500033164689"><ele>289.0</ele><time>2026-05-03T13:05:02Z</time></trkpt><trkpt lat="44.69216066448716" lon="8.214797860104788"><ele>287.75</ele><time>2026-05-03T13:05:03Z</time></trkpt><trkpt lat="44.692189957832795" lon="8.21459165447055"><ele>286.5</ele><time>2026-05-03T13:05:04Z</time></trkpt><trkpt lat="44.69219359926671" lon="8.2143931885334"><ele>285.25</ele><time>2026-05-03T13:05:05Z</time></trkpt><trkpt lat="44.69215793185531" lon="8.214224331887154"><ele>284.0</ele><time>2026-05-03T13:05:06Z</time></trkpt><trkpt lat="44.69210481516838" lon="8.214072311158414"><ele>281.2</ele><time>2026-05-03T13:05:07Z</time></trkpt><trkpt lat="44.692040597955604" lon="8.213966103203141"><ele>278.4</ele><time>2026-05-03T13:05:08Z</time></trkpt><trkpt lat="44.69200843550702" lon="8.213834295717618"><ele>275.6</ele><time>2026-05-03T13:05:09Z</time></trkpt><trkpt lat="44.691956080186" lon="8.21376181032692"><ele>272.8</ele><time>2026-05-03T13:05:10Z</time></trkpt><trkpt lat="44.69203046441906" lon="8.213630708086521"><ele>270.0</ele><time>2026-05-03T13:05:12Z</time></trkpt><trkpt lat="44.69209966796579" lon="8.213634860220411"><ele>270.0</ele><time>2026-05-03T13:05:13Z</time></trkpt><trkpt lat="44.69216742834106" lon="8.213720776443344"><ele>270.0</ele><time>2026-05-03T13:05:14Z</time></trkpt><trkpt lat="44.69223325730564" lon="8.21385165838565"><ele>270.0</ele><time>2026-05-03T13:05:15Z</time></trkpt><trkpt lat="44.692302361747515" lon="8.21397621670738"><ele>270.0</ele><time>2026-05-03T13:05:16Z</time></trkpt><trkpt lat="44.69238700406462" lon="8.214145490094797"><ele>274.6666666666667</ele><time>2026-05-03T13:05:17Z</time></trkpt><trkpt lat="44.692455368128726" lon="8.214328079807887"><ele>279.33333333333337</ele><time>2026-05-03T13:05:18Z</time></trkpt><trkpt lat="44.69253959408078" lon="8.214520904153314"><ele>284.0</ele><time>2026-05-03T13:05:19Z</time></trkpt><trkpt lat="44.692634528461646" lon="8.214711993730859"><ele>277.33333333333337</ele><time>2026-05-03T13:05:20Z</time></trkpt><trkpt lat="44.69275910441305" lon="8.214896254627925"><ele>270.6666666666667</ele><time>2026-05-03T13:05:21Z</time></trkpt><trkpt lat="44.69288178632642" lon="8.215011362676742"><ele>264.0</ele><time>2026-05-03T13:05:22Z</time></trkpt><trkpt lat="44.69302426715519" lon="8.21513064507517"><ele>264.0</ele><time>2026-05-03T13:05:23Z</time></trkpt><trkpt lat="44.6931690516077" lon="8.215266817523373"><ele>264.0</ele><time>2026-05-03T13:05:24Z</time></trkpt><trkpt lat="44.69331431597596" lon="8.215424976316982"><ele>264.0</ele><time>2026-05-03T13:05:25Z</time></trkpt><trkpt lat="44.69345994015746" lon="8.215593893183337"><ele>263.0</ele><time>2026-05-03T13:05:26Z</time></trkpt><trkpt lat="44.69359644744919" lon="8.21578211327522"><ele>262.0</ele><time>2026-05-03T13:05:27Z</time></trkpt><trkpt lat="44.69371513616888" lon="8.215975180774311"><ele>261.0</ele><time>2026-05-03T13:05:28Z</time></trkpt><trkpt lat="44.69383112900203" lon="8.216161111058206"><ele>261.0</ele><time>2026-05-03T13:05:29Z</time></trkpt><trkpt lat="44.69394864096602" lon="8.216343169679146"><ele>261.0</ele><time>2026-05-03T13:05:30Z</time></trkpt><trkpt lat="44.69405327868215" lon="8.21651866296916"><ele>261.0</ele><time>2026-05-03T13:05:31Z</time></trkpt><trkpt lat="44.69413008064278" lon="8.216684032994058"><ele>262.5</ele><time>2026-05-03T13:05:32Z</time></trkpt><trkpt lat="44.69417719305442" lon="8.216861022623588"><ele>264.0</ele><time>2026-05-03T13:05:33Z</time></trkpt><trkpt lat="44.69420105215693" lon="8.217004703701594"><ele>265.5</ele><time>2026-05-03T13:05:34Z</time></trkpt><trkpt lat="44.694259032512235" lon="8.217118518027645"><ele>267.0</ele><time>2026-05-03T13:05:35Z</time></trkpt><trkpt lat="44.69436262838123" lon="8.217186243950943"><ele>262.5</ele><time>2026-05-03T13:05:35.999Z</time></trkpt><trkpt lat="44.6944894495093" lon="8.21719125011483"><ele>258.0</ele><time>2026-05-03T13:05:36.999Z</time></trkpt><trkpt lat="44.694618333342014" lon="8.217184353132259"><ele>253.5</ele><time>2026-05-03T13:05:37.999Z</time></trkpt><trkpt lat="44.694750657822354" lon="8.217209603281507"><ele>249.0</ele><time>2026-05-03T13:05:38.999Z</time></trkpt><trkpt lat="44.694875046746326" lon="8.217275350313342"><ele>251.5</ele><time>2026-05-03T13:05:39.999Z</time></trkpt><trkpt lat="44.69497673435153" lon="8.217348147243579"><ele>254.0</ele><time>2026-05-03T13:05:40.999Z</time></trkpt><trkpt lat="44.695049978413174" lon="8.21748069489965"><ele>256.5</ele><time>2026-05-03T13:05:41.999Z</time></trkpt><trkpt lat="44.69507538040451" lon="8.217633637532808"><ele>259.0</ele><time>2026-05-03T13:05:42.999Z</time></trkpt><trkpt lat="44.69509827534894" lon="8.21780971082578"><ele>259.0</ele><time>2026-05-03T13:05:43.999Z</time></trkpt><trkpt lat="44.695168401918245" lon="8.217977798403108"><ele>259.0</ele><time>2026-05-03T13:05:44.999Z</time></trkpt><trkpt lat="44.69528933035285" lon="8.218127538842097"><ele>259.0</ele><time>2026-05-03T13:05:45.999Z</time></trkpt><trkpt lat="44.695404333672954" lon="8.218254393657936"><ele>259.0</ele><time>2026-05-03T13:05:46.999Z</time></trkpt><trkpt lat="44.69550648552249" lon="8.218382788086242"><ele>257.4</ele><time>2026-05-03T13:05:47.999Z</time></trkpt><trkpt lat="44.69560683171819" lon="8.218476447150035"><ele>255.79999999999998</ele><time>2026-05-03T13:05:48.999Z</time></trkpt><trkpt lat="44.69571294669032" lon="8.218502475753628"><ele>254.20000000000002</ele><time>2026-05-03T13:05:49.999Z</time></trkpt><trkpt lat="44.69581603294452" lon="8.218454494082728"><ele>252.60000000000002</ele><time>2026-05-03T13:05:50.999Z</time></trkpt><trkpt lat="44.69590818580736" lon="8.218380761629437"><ele>251.0</ele><time>2026-05-03T13:05:51.999Z</time></trkpt><trkpt lat="44.69600774966514" lon="8.218360958777813"><ele>247.75</ele><time>2026-05-03T13:05:52.999Z</time></trkpt><trkpt lat="44.696097758443834" lon="8.218415333956726"><ele>244.5</ele><time>2026-05-03T13:05:53.999Z</time></trkpt><trkpt lat="44.69616889056907" lon="8.218528243408128"><ele>241.25</ele><time>2026-05-03T13:05:54.999Z</time></trkpt><trkpt lat="44.69624239413781" lon="8.218662482198026"><ele>238.0</ele><time>2026-05-03T13:05:55.999Z</time></trkpt><trkpt lat="44.69635224873994" lon="8.218769750299325"><ele>238.0</ele><time>2026-05-03T13:05:56.999Z</time></trkpt><trkpt lat="44.696474657084686" lon="8.218838458886001"><ele>238.0</ele><time>2026-05-03T13:05:57.999Z</time></trkpt><trkpt lat="44.6966036065268" lon="8.218900751203467"><ele>238.0</ele><time>2026-05-03T13:05:58.999Z</time></trkpt><trkpt lat="44.69672726151322" lon="8.218991002554027"><ele>238.0</ele><time>2026-05-03T13:05:59.999Z</time></trkpt><trkpt lat="44.696835990839695" lon="8.219102109664771"><ele>234.5</ele><time>2026-05-03T13:06:00.999Z</time></trkpt><trkpt lat="44.69694568377281" lon="8.219224587431036"><ele>231.0</ele><time>2026-05-03T13:06:01.999Z</time></trkpt><trkpt lat="44.69705075466837" lon="8.219362149778238"><ele>227.5</ele><time>2026-05-03T13:06:02.999Z</time></trkpt><trkpt lat="44.69716051866825" lon="8.219504471831321"><ele>224.0</ele><time>2026-05-03T13:06:03.999Z</time></trkpt><trkpt lat="44.697256702753904" lon="8.219673730478409"><ele>226.33333333333334</ele><time>2026-05-03T13:06:04.999Z</time></trkpt><trkpt lat="44.697352225165126" lon="8.219857023865421"><ele>228.66666666666669</ele><time>2026-05-03T13:06:05.999Z</time></trkpt><trkpt lat="44.69743914706014" lon="8.220068568802704"><ele>231.0</ele><time>2026-05-03T13:06:06.999Z</time></trkpt><trkpt lat="44.69753425672959" lon="8.220276590593166"><ele>231.0</ele><time>2026-05-03T13:06:07.999Z</time></trkpt><trkpt lat="44.697624795272944" lon="8.220469274796114"><ele>231.0</ele><time>2026-05-03T13:06:08.999Z</time></trkpt><trkpt lat="44.6977260412587" lon="8.220658604706832"><ele>231.0</ele><time>2026-05-03T13:06:09.999Z</time></trkpt><trkpt lat="44.69782624461238" lon="8.220837165345518"><ele>226.66666666666669</ele><time>2026-05-03T13:06:10.999Z</time></trkpt><trkpt lat="44.69792309627273" lon="8.221000503805762"><ele>222.33333333333334</ele><time>2026-05-03T13:06:11.999Z</time></trkpt><trkpt lat="44.698026855364944" lon="8.221146275045069"><ele>218.0</ele><time>2026-05-03T13:06:12.999Z</time></trkpt><trkpt lat="44.69816177659167" lon="8.221261528974882"><ele>218.0</ele><time>2026-05-03T13:06:13.999Z</time></trkpt><trkpt lat="44.69829413581216" lon="8.221337678781305"><ele>218.0</ele><time>2026-05-03T13:06:14.999Z</time></trkpt><trkpt lat="44.69840120315618" lon="8.221444900849992"><ele>218.0</ele><time>2026-05-03T13:06:15.999Z</time></trkpt><trkpt lat="44.69848334518278" lon="8.221578566780709"><ele>218.0</ele><time>2026-05-03T13:06:16.999Z</time></trkpt><trkpt lat="44.69853367524039" lon="8.221746153912983"><ele>216.33333333333334</ele><time>2026-05-03T13:06:17.999Z</time></trkpt><trkpt lat="44.69858853755254" lon="8.2219429761757"><ele>214.66666666666669</ele><time>2026-05-03T13:06:18.999Z</time></trkpt><trkpt lat="44.698642576568396" lon="8.222146244393636"><ele>213.0</ele><time>2026-05-03T13:06:19.999Z</time></trkpt><trkpt lat="44.6987013878739" lon="8.22234953305671"><ele>213.0</ele><time>2026-05-03T13:06:20.999Z</time></trkpt><trkpt lat="44.698781587865" lon="8.222532765547346"><ele>213.0</ele><time>2026-05-03T13:06:21.999Z</time></trkpt><trkpt lat="44.69889633592765" lon="8.222674526022049"><ele>213.0</ele><time>2026-05-03T13:06:22.999Z</time></trkpt><trkpt lat="44.69898843039084" lon="8.222828507663419"><ele>213.0</ele><time>2026-05-03T13:06:23.999Z</time></trkpt><trkpt lat="44.69906438072805" lon="8.223015012394269"><ele>213.66666666666669</ele><time>2026-05-03T13:06:24.999Z</time></trkpt><trkpt lat="44.699121328383974" lon="8.223225495943572"><ele>214.33333333333334</ele><time>2026-05-03T13:06:26Z</time></trkpt><trkpt lat="44.699168648202615" lon="8.22345755626101"><ele>215.0</ele><time>2026-05-03T13:06:27Z</time></trkpt><trkpt lat="44.69922730680586" lon="8.223660062286129"><ele>215.0</ele><time>2026-05-03T13:06:28Z</time></trkpt><trkpt lat="44.69928803328111" lon="8.22386127934751"><ele>215.0</ele><time>2026-05-03T13:06:29Z</time></trkpt><trkpt lat="44.69936126135032" lon="8.224039721035917"><ele>215.0</ele><time>2026-05-03T13:06:30Z</time></trkpt><trkpt lat="44.69942616146252" lon="8.224201138083938"><ele>215.0</ele><time>2026-05-03T13:06:31Z</time></trkpt><trkpt lat="44.69950392904258" lon="8.224331871752872"><ele>213.2</ele><time>2026-05-03T13:06:32Z</time></trkpt><trkpt lat="44.699614057725164" lon="8.224426211604717"><ele>211.4</ele><time>2026-05-03T13:06:33Z</time></trkpt><trkpt lat="44.69971064661237" lon="8.224429740122387"><ele>209.60000000000002</ele><time>2026-05-03T13:06:34Z</time></trkpt><trkpt lat="44.69981231414483" lon="8.224387116808975"><ele>207.8</ele><time>2026-05-03T13:06:35Z</time></trkpt><trkpt lat="44.69989752428927" lon="8.224284038918752"><ele>206.0</ele><time>2026-05-03T13:06:36Z</time></trkpt><trkpt lat="44.700005296686584" lon="8.224142088336121"><ele>206.0</ele><time>2026-05-03T13:06:37Z</time></trkpt><trkpt lat="44.70007651456666" lon="8.224007179692206"><ele>206.0</ele><time>2026-05-03T13:06:38Z</time></trkpt><trkpt lat="44.70012765455763" lon="8.22386983097603"><ele>206.0</ele><time>2026-05-03T13:06:39Z</time></trkpt><trkpt lat="44.70012543852782" lon="8.223723380161575"><ele>206.0</ele><time>2026-05-03T13:06:40Z</time></trkpt><trkpt lat="44.70009756321156" lon="8.22355597411893"><ele>205.0</ele><time>2026-05-03T13:06:41Z</time></trkpt><trkpt lat="44.70009185868259" lon="8.223396910804867"><ele>204.0</ele><time>2026-05-03T13:06:42Z</time></trkpt><trkpt lat="44.700141869715324" lon="8.223276741335214"><ele>203.0</ele><time>2026-05-03T13:06:43Z</time></trkpt><trkpt lat="44.70018867998961" lon="8.223165099094183"><ele>202.0</ele><time>2026-05-03T13:06:44Z</time></trkpt><trkpt lat="44.700262075354104" lon="8.223021121662601"><ele>201.0</ele><time>2026-05-03T13:06:45Z</time></trkpt><trkpt lat="44.700343108974856" lon="8.22287482680236"><ele>198.5</ele><time>2026-05-03T13:06:46Z</time></trkpt><trkpt lat="44.700422309692144" lon="8.222749328897924"><ele>196.0</ele><time>2026-05-03T13:06:47Z</time></trkpt><trkpt lat="44.70052071382327" lon="8.222651185434556"><ele>193.5</ele><time>2026-05-03T13:06:48Z</time></trkpt><trkpt lat="44.700646816760255" lon="8.222594371624892"><ele>191.0</ele><time>2026-05-03T13:06:49Z</time></trkpt><trkpt lat="44.700779373016864" lon="8.222538592119438"><ele>191.0</ele><time>2026-05-03T13:06:50Z</time></trkpt><trkpt lat="44.700931632276266" lon="8.222471543363424"><ele>191.0</ele><time>2026-05-03T13:06:51Z</time></trkpt><trkpt lat="44.70108053610825" lon="8.222403992597728"><ele>191.0</ele><time>2026-05-03T13:06:52Z</time></trkpt><trkpt lat="44.70122174609068" lon="8.222331799323314"><ele>189.25</ele><time>2026-05-03T13:06:53Z</time></trkpt><trkpt lat="44.70136445191523" lon="8.222269993260909"><ele>187.5</ele><time>2026-05-03T13:06:54Z</time></trkpt><trkpt lat="44.7014891083757" lon="8.222220038641247"><ele>185.75</ele><time>2026-05-03T13:06:55Z</time></trkpt><trkpt lat="44.701615744492585" lon="8.22217077688878"><ele>184.0</ele><time>2026-05-03T13:06:56Z</time></trkpt><trkpt lat="44.70173711644782" lon="8.222138502828566"><ele>184.0</ele><time>2026-05-03T13:06:57Z</time></trkpt><trkpt lat="44.701854169755045" lon="8.222114182618848"><ele>184.0</ele><time>2026-05-03T13:06:58Z</time></trkpt><trkpt lat="44.70195525153584" lon="8.22214056824898"><ele>184.0</ele><time>2026-05-03T13:06:59Z</time></trkpt><trkpt lat="44.70206716542374" lon="8.222173845491511"><ele>184.0</ele><time>2026-05-03T13:07:00Z</time></trkpt><trkpt lat="44.7021874576456" lon="8.222223348973992"><ele>183.25</ele><time>2026-05-03T13:07:01Z</time></trkpt><trkpt lat="44.70233042134574" lon="8.22227243817639"><ele>182.5</ele><time>2026-05-03T13:07:02Z</time></trkpt><trkpt lat="44.70246744731898" lon="8.222311041357544"><ele>181.75</ele><time>2026-05-03T13:07:03Z</time></trkpt><trkpt lat="44.702602734769286" lon="8.222359886624243"><ele>181.0</ele><time>2026-05-03T13:07:04Z</time></trkpt><trkpt lat="44.70272160952623" lon="8.222402069623286"><ele>180.0</ele><time>2026-05-03T13:07:05Z</time></trkpt><trkpt lat="44.70284855682633" lon="8.222445536982026"><ele>179.0</ele><time>2026-05-03T13:07:06Z</time></trkpt><trkpt lat="44.70293968681053" lon="8.222466240061598"><ele>178.0</ele><time>2026-05-03T13:07:07Z</time></trkpt><trkpt lat="44.703010449720836" lon="8.222491903898495"><ele>177.0</ele><time>2026-05-03T13:07:08Z</time></trkpt><trkpt lat="44.70307362933892" lon="8.222470383983037"><ele>176.0</ele><time>2026-05-03T13:07:10Z</time></trkpt><trkpt lat="44.7032250509853" lon="8.222624034507108"><ele>176.0</ele><time>2026-05-03T13:07:13Z</time></trkpt><trkpt lat="44.70328355929038" lon="8.22270851758969"><ele>176.0</ele><time>2026-05-03T13:07:14Z</time></trkpt><trkpt lat="44.70335368760303" lon="8.222822594829788"><ele>176.0</ele><time>2026-05-03T13:07:15Z</time></trkpt><trkpt lat="44.703422551530686" lon="8.222945849993023"><ele>176.0</ele><time>2026-05-03T13:07:16Z</time></trkpt><trkpt lat="44.70350804429017" lon="8.223072569946472"><ele>176.0</ele><time>2026-05-03T13:07:17Z</time></trkpt><trkpt lat="44.703603927373834" lon="8.223210153490262"><ele>175.75</ele><time>2026-05-03T13:07:18Z</time></trkpt><trkpt lat="44.703691465286916" lon="8.223355113784914"><ele>175.5</ele><time>2026-05-03T13:07:19Z</time></trkpt><trkpt lat="44.70378390891823" lon="8.223485642993197"><ele>175.25</ele><time>2026-05-03T13:07:20Z</time></trkpt><trkpt lat="44.70386237661664" lon="8.223622719968391"><ele>175.0</ele><time>2026-05-03T13:07:21Z</time></trkpt><trkpt lat="44.70397307335543" lon="8.22374570024244"><ele>175.0</ele><time>2026-05-03T13:07:22Z</time></trkpt><trkpt lat="44.70404882404509" lon="8.223862528917675"><ele>175.0</ele><time>2026-05-03T13:07:23Z</time></trkpt><trkpt lat="44.70412473425888" lon="8.223987971042666"><ele>175.0</ele><time>2026-05-03T13:07:24Z</time></trkpt><trkpt lat="44.70421936451617" lon="8.22410047451401"><ele>175.0</ele><time>2026-05-03T13:07:25Z</time></trkpt><trkpt lat="44.70430566872556" lon="8.224229639840475"><ele>175.4</ele><time>2026-05-03T13:07:26Z</time></trkpt><trkpt lat="44.704389972361106" lon="8.224348545267171"><ele>175.8</ele><time>2026-05-03T13:07:27Z</time></trkpt><trkpt lat="44.704476507630176" lon="8.224469542269818"><ele>176.2</ele><time>2026-05-03T13:07:28Z</time></trkpt><trkpt lat="44.70454524757007" lon="8.224573990180035"><ele>176.6</ele><time>2026-05-03T13:07:29Z</time></trkpt><trkpt lat="44.704620963182315" lon="8.224678702781807"><ele>177.0</ele><time>2026-05-03T13:07:30Z</time></trkpt><trkpt lat="44.70465853781665" lon="8.224799521793226"><ele>176.8</ele><time>2026-05-03T13:07:31Z</time></trkpt><trkpt lat="44.704729024322184" lon="8.2249006905035"><ele>176.6</ele><time>2026-05-03T13:07:32Z</time></trkpt><trkpt lat="44.704806048296916" lon="8.22500605155355"><ele>176.4</ele><time>2026-05-03T13:07:33Z</time></trkpt><trkpt lat="44.70488074251849" lon="8.225114092981112"><ele>176.20000000000002</ele><time>2026-05-03T13:07:34Z</time></trkpt><trkpt lat="44.704952718723426" lon="8.225208704877607"><ele>176.0</ele><time>2026-05-03T13:07:35Z</time></trkpt><trkpt lat="44.705029997232565" lon="8.225321931049642"><ele>176.0</ele><time>2026-05-03T13:07:36Z</time></trkpt><trkpt lat="44.70510210542293" lon="8.225430853705026"><ele>176.0</ele><time>2026-05-03T13:07:37Z</time></trkpt><trkpt lat="44.70518299246938" lon="8.225533490175323"><ele>176.0</ele><time>2026-05-03T13:07:38Z</time></trkpt><trkpt lat="44.70526289545266" lon="8.225648148182254"><ele>176.0</ele><time>2026-05-03T13:07:39Z</time></trkpt><trkpt lat="44.70534345511958" lon="8.22577318313532"><ele>176.0</ele><time>2026-05-03T13:07:40Z</time></trkpt><trkpt lat="44.70543499999347" lon="8.225895832412803"><ele>175.75</ele><time>2026-05-03T13:07:41Z</time></trkpt><trkpt lat="44.70551320538093" lon="8.22601854843178"><ele>175.5</ele><time>2026-05-03T13:07:42Z</time></trkpt><trkpt lat="44.70560497390797" lon="8.22614202729286"><ele>175.25</ele><time>2026-05-03T13:07:43Z</time></trkpt><trkpt lat="44.70567635599848" lon="8.226271229393806"><ele>175.0</ele><time>2026-05-03T13:07:44Z</time></trkpt><trkpt lat="44.70575619730109" lon="8.226376477288609"><ele>175.4</ele><time>2026-05-03T13:07:45Z</time></trkpt><trkpt lat="44.705834267133405" lon="8.226480837675698"><ele>175.8</ele><time>2026-05-03T13:07:46Z</time></trkpt><trkpt lat="44.70591475308966" lon="8.226585823920969"><ele>176.2</ele><time>2026-05-03T13:07:47Z</time></trkpt><trkpt lat="44.70598456523862" lon="8.226701353518187"><ele>176.6</ele><time>2026-05-03T13:07:48Z</time></trkpt><trkpt lat="44.70606132775082" lon="8.22681217169165"><ele>177.0</ele><time>2026-05-03T13:07:49Z</time></trkpt><trkpt lat="44.706155728166344" lon="8.226923836149686"><ele>176.25</ele><time>2026-05-03T13:07:50Z</time></trkpt><trkpt lat="44.70623640027691" lon="8.2270425964294"><ele>175.5</ele><time>2026-05-03T13:07:51Z</time></trkpt><trkpt lat="44.706308422158" lon="8.227164675268531"><ele>174.75</ele><time>2026-05-03T13:07:52Z</time></trkpt><trkpt lat="44.70638851250696" lon="8.227277964424125"><ele>174.0</ele><time>2026-05-03T13:07:53Z</time></trkpt><trkpt lat="44.70647108955381" lon="8.227392579683878"><ele>174.0</ele><time>2026-05-03T13:07:54Z</time></trkpt><trkpt lat="44.70650938516333" lon="8.227503780672777"><ele>174.0</ele><time>2026-05-03T13:07:55Z</time></trkpt><trkpt lat="44.706561485447175" lon="8.227606897110544"><ele>174.0</ele><time>2026-05-03T13:07:56Z</time></trkpt><trkpt lat="44.70661803266591" lon="8.22770379444646"><ele>174.0</ele><time>2026-05-03T13:07:57Z</time></trkpt><trkpt lat="44.70668624832032" lon="8.227801029571314"><ele>174.0</ele><time>2026-05-03T13:07:57.999Z</time></trkpt><trkpt lat="44.706750533289274" lon="8.227903338961294"><ele>174.0</ele><time>2026-05-03T13:07:58.999Z</time></trkpt><trkpt lat="44.706848142447065" lon="8.22800372897584"><ele>174.0</ele><time>2026-05-03T13:07:59.999Z</time></trkpt><trkpt lat="44.706944096740905" lon="8.228102391273206"><ele>174.0</ele><time>2026-05-03T13:08:00.999Z</time></trkpt><trkpt lat="44.70701596688895" lon="8.228203776392377"><ele>174.0</ele><time>2026-05-03T13:08:01.999Z</time></trkpt><trkpt lat="44.70708385802585" lon="8.228309187149959"><ele>174.0</ele><time>2026-05-03T13:08:02.999Z</time></trkpt><trkpt lat="44.70715725933934" lon="8.22841586178036"><ele>173.75</ele><time>2026-05-03T13:08:03.999Z</time></trkpt><trkpt lat="44.70723761411372" lon="8.228525478278621"><ele>173.5</ele><time>2026-05-03T13:08:04.999Z</time></trkpt><trkpt lat="44.707317917204435" lon="8.228640435562573"><ele>173.25</ele><time>2026-05-03T13:08:05.999Z</time></trkpt><trkpt lat="44.7073995615409" lon="8.228769117145081"><ele>173.0</ele><time>2026-05-03T13:08:06.999Z</time></trkpt><trkpt lat="44.70746864915558" lon="8.228888428044508"><ele>173.0</ele><time>2026-05-03T13:08:07.999Z</time></trkpt><trkpt lat="44.70754502177556" lon="8.22900909761"><ele>173.0</ele><time>2026-05-03T13:08:08.999Z</time></trkpt><trkpt lat="44.7076333641178" lon="8.229137118191838"><ele>173.0</ele><time>2026-05-03T13:08:09.999Z</time></trkpt><trkpt lat="44.70772301254618" lon="8.229228951117328"><ele>173.0</ele><time>2026-05-03T13:08:10.999Z</time></trkpt><trkpt lat="44.707802179290724" lon="8.229334042571635"><ele>173.0</ele><time>2026-05-03T13:08:11.999Z</time></trkpt><trkpt lat="44.70787937223703" lon="8.229471487740117"><ele>173.0</ele><time>2026-05-03T13:08:12.999Z</time></trkpt><trkpt lat="44.707977847715455" lon="8.229597427045796"><ele>173.0</ele><time>2026-05-03T13:08:13.999Z</time></trkpt><trkpt lat="44.708047128937544" lon="8.229721345927745"><ele>173.0</ele><time>2026-05-03T13:08:14.999Z</time></trkpt><trkpt lat="44.70814776564101" lon="8.22984723138138"><ele>173.0</ele><time>2026-05-03T13:08:15.999Z</time></trkpt><trkpt lat="44.708246698075065" lon="8.229965543796121"><ele>173.0</ele><time>2026-05-03T13:08:16.999Z</time></trkpt><trkpt lat="44.70828201822676" lon="8.230105935988497"><ele>173.0</ele><time>2026-05-03T13:08:17.999Z</time></trkpt><trkpt lat="44.708365387105516" lon="8.23023122547198"><ele>173.0</ele><time>2026-05-03T13:08:18.999Z</time></trkpt><trkpt lat="44.70843087804595" lon="8.230329207151494"><ele>173.0</ele><time>2026-05-03T13:08:19.999Z</time></trkpt><trkpt lat="44.70849120585984" lon="8.230410736610635"><ele>173.0</ele><time>2026-05-03T13:08:20.999Z</time></trkpt><trkpt lat="44.708568913665765" lon="8.230460255502335"><ele>173.0</ele><time>2026-05-03T13:08:21.999Z</time></trkpt><trkpt lat="44.708682432759645" lon="8.230312700704177"><ele>173.0</ele><time>2026-05-03T13:08:23.999Z</time></trkpt><trkpt lat="44.70875952796878" lon="8.230233111555508"><ele>173.0</ele><time>2026-05-03T13:08:24.999Z</time></trkpt><trkpt lat="44.70883347289403" lon="8.230122077383891"><ele>172.5</ele><time>2026-05-03T13:08:25.999Z</time></trkpt><trkpt lat="44.7089244989818" lon="8.229934386980572"><ele>172.0</ele><time>2026-05-03T13:08:26.999Z</time></trkpt><trkpt lat="44.70901981861808" lon="8.229831338361208"><ele>171.5</ele><time>2026-05-03T13:08:27.999Z</time></trkpt><trkpt lat="44.709122661574035" lon="8.229688145651686"><ele>171.0</ele><time>2026-05-03T13:08:28.999Z</time></trkpt><trkpt lat="44.70923221569135" lon="8.229568465840025"><ele>171.0</ele><time>2026-05-03T13:08:29.999Z</time></trkpt><trkpt lat="44.70935816507917" lon="8.229457877889017"><ele>171.0</ele><time>2026-05-03T13:08:30.999Z</time></trkpt><trkpt lat="44.70947562332647" lon="8.229344499127295"><ele>171.0</ele><time>2026-05-03T13:08:32Z</time></trkpt><trkpt lat="44.709563568000775" lon="8.22918843338468"><ele>171.0</ele><time>2026-05-03T13:08:33Z</time></trkpt><trkpt lat="44.709655707332395" lon="8.229070837815113"><ele>171.0</ele><time>2026-05-03T13:08:34Z</time></trkpt><trkpt lat="44.709740976674574" lon="8.22894360125929"><ele>171.0</ele><time>2026-05-03T13:08:35Z</time></trkpt><trkpt lat="44.7098374169048" lon="8.228824368117962"><ele>171.0</ele><time>2026-05-03T13:08:36Z</time></trkpt><trkpt lat="44.709926997260894" lon="8.228704362852389"><ele>171.0</ele><time>2026-05-03T13:08:37Z</time></trkpt><trkpt lat="44.71001121573477" lon="8.228593687705311"><ele>171.0</ele><time>2026-05-03T13:08:38Z</time></trkpt><trkpt lat="44.71009447119453" lon="8.228476416162804"><ele>171.0</ele><time>2026-05-03T13:08:39Z</time></trkpt><trkpt lat="44.71018568340231" lon="8.22839999930882"><ele>171.0</ele><time>2026-05-03T13:08:40Z</time></trkpt><trkpt lat="44.71028715944438" lon="8.228357379194428"><ele>171.0</ele><time>2026-05-03T13:08:41Z</time></trkpt><trkpt lat="44.71041030651934" lon="8.228378287110939"><ele>172.75</ele><time>2026-05-03T13:08:42Z</time></trkpt><trkpt lat="44.710528449464626" lon="8.228437269744107"><ele>174.5</ele><time>2026-05-03T13:08:43Z</time></trkpt><trkpt lat="44.7106112114983" lon="8.228572014429963"><ele>176.25</ele><time>2026-05-03T13:08:44Z</time></trkpt><trkpt lat="44.71069895661557" lon="8.22871034948171"><ele>178.0</ele><time>2026-05-03T13:08:45Z</time></trkpt><trkpt lat="44.710773389349164" lon="8.228882776565683"><ele>176.66666666666669</ele><time>2026-05-03T13:08:46Z</time></trkpt><trkpt lat="44.710862202652436" lon="8.229053663483358"><ele>175.33333333333334</ele><time>2026-05-03T13:08:47Z</time></trkpt><trkpt lat="44.71092565499951" lon="8.229254758987423"><ele>174.0</ele><time>2026-05-03T13:08:48Z</time></trkpt><trkpt lat="44.71101706630111" lon="8.229436358473356"><ele>174.66666666666666</ele><time>2026-05-03T13:08:49Z</time></trkpt><trkpt lat="44.71111237028424" lon="8.229619390874907"><ele>175.33333333333331</ele><time>2026-05-03T13:08:50Z</time></trkpt><trkpt lat="44.71120767114868" lon="8.229821217349576"><ele>176.0</ele><time>2026-05-03T13:08:51Z</time></trkpt><trkpt lat="44.711308802106636" lon="8.230009490501233"><ele>176.0</ele><time>2026-05-03T13:08:52Z</time></trkpt><trkpt lat="44.711402307845105" lon="8.230194444646305"><ele>176.0</ele><time>2026-05-03T13:08:53Z</time></trkpt><trkpt lat="44.711503796632236" lon="8.230370083254076"><ele>176.0</ele><time>2026-05-03T13:08:54Z</time></trkpt><trkpt lat="44.711596770696524" lon="8.230536198451501"><ele>176.25</ele><time>2026-05-03T13:08:55Z</time></trkpt><trkpt lat="44.71170124117507" lon="8.230726594134476"><ele>176.5</ele><time>2026-05-03T13:08:56Z</time></trkpt><trkpt lat="44.71177571696044" lon="8.23087285665088"><ele>176.75</ele><time>2026-05-03T13:08:57Z</time></trkpt><trkpt lat="44.71184762752378" lon="8.231014081429521"><ele>177.0</ele><time>2026-05-03T13:08:58Z</time></trkpt><trkpt lat="44.711922260439536" lon="8.231160652707496"><ele>177.0</ele><time>2026-05-03T13:08:59Z</time></trkpt><trkpt lat="44.71199706696677" lon="8.23130756468225"><ele>177.0</ele><time>2026-05-03T13:09:00Z</time></trkpt><trkpt lat="44.71207803079892" lon="8.23146656915795"><ele>177.0</ele><time>2026-05-03T13:09:01Z</time></trkpt><trkpt lat="44.71215876782708" lon="8.231625065183323"><ele>177.0</ele><time>2026-05-03T13:09:02Z</time></trkpt><trkpt lat="44.71221949491529" lon="8.23174414719685"><ele>176.0</ele><time>2026-05-03T13:09:03Z</time></trkpt><trkpt lat="44.712289252215015" lon="8.231880936961934"><ele>175.0</ele><time>2026-05-03T13:09:04Z</time></trkpt><trkpt lat="44.712392071834294" lon="8.232017933479353"><ele>174.0</ele><time>2026-05-03T13:09:05Z</time></trkpt><trkpt lat="44.712464110957534" lon="8.232161318699951"><ele>173.0</ele><time>2026-05-03T13:09:06Z</time></trkpt><trkpt lat="44.71253542282829" lon="8.232300834857158"><ele>172.0</ele><time>2026-05-03T13:09:07Z</time></trkpt><trkpt lat="44.712605707835834" lon="8.232438818404031"><ele>171.0</ele><time>2026-05-03T13:09:08Z</time></trkpt><trkpt lat="44.712657324812234" lon="8.232601635091726"><ele>170.0</ele><time>2026-05-03T13:09:09Z</time></trkpt><trkpt lat="44.71274734774417" lon="8.232722563867231"><ele>169.0</ele><time>2026-05-03T13:09:10Z</time></trkpt><trkpt lat="44.712814404645506" lon="8.232847655618478"><ele>170.0</ele><time>2026-05-03T13:09:11Z</time></trkpt><trkpt lat="44.71289031601189" lon="8.23300306520735"><ele>171.0</ele><time>2026-05-03T13:09:12Z</time></trkpt><trkpt lat="44.71296607869523" lon="8.233149512980075"><ele>172.0</ele><time>2026-05-03T13:09:13Z</time></trkpt><trkpt lat="44.71302460207666" lon="8.233319755274566"><ele>173.0</ele><time>2026-05-03T13:09:14Z</time></trkpt><trkpt lat="44.71310129000915" lon="8.233469715314746"><ele>173.0</ele><time>2026-05-03T13:09:15Z</time></trkpt><trkpt lat="44.713133716602975" lon="8.2336117062947"><ele>173.0</ele><time>2026-05-03T13:09:16Z</time></trkpt><trkpt lat="44.7132014892556" lon="8.233764648296436"><ele>173.0</ele><time>2026-05-03T13:09:17Z</time></trkpt><trkpt lat="44.713274245486595" lon="8.233925724739489"><ele>173.0</ele><time>2026-05-03T13:09:18Z</time></trkpt><trkpt lat="44.713343954014334" lon="8.234081135683333"><ele>171.5</ele><time>2026-05-03T13:09:19Z</time></trkpt><trkpt lat="44.713413974663084" lon="8.234235421982357"><ele>170.0</ele><time>2026-05-03T13:09:20Z</time></trkpt><trkpt lat="44.7134896032301" lon="8.234391373613885"><ele>168.5</ele><time>2026-05-03T13:09:21Z</time></trkpt><trkpt lat="44.71358006649597" lon="8.23455429315682"><ele>167.0</ele><time>2026-05-03T13:09:22Z</time></trkpt><trkpt lat="44.71366311131473" lon="8.234711323300074"><ele>167.75</ele><time>2026-05-03T13:09:23Z</time></trkpt><trkpt lat="44.71375566302124" lon="8.234861702047628"><ele>168.5</ele><time>2026-05-03T13:09:24Z</time></trkpt><trkpt lat="44.71384489100493" lon="8.235033274159202"><ele>169.25</ele><time>2026-05-03T13:09:25Z</time></trkpt><trkpt lat="44.71393019594223" lon="8.2352036842962"><ele>170.0</ele><time>2026-05-03T13:09:26Z</time></trkpt><trkpt lat="44.71402065208448" lon="8.235368986953834"><ele>170.0</ele><time>2026-05-03T13:09:27Z</time></trkpt><trkpt lat="44.714116438849985" lon="8.235539647305353"><ele>170.0</ele><time>2026-05-03T13:09:28Z</time></trkpt><trkpt lat="44.714214113786305" lon="8.235719740343873"><ele>170.0</ele><time>2026-05-03T13:09:29Z</time></trkpt><trkpt lat="44.71431387567515" lon="8.23589587436994"><ele>170.33333333333331</ele><time>2026-05-03T13:09:30Z</time></trkpt><trkpt lat="44.71440555747629" lon="8.236074831549836"><ele>170.66666666666666</ele><time>2026-05-03T13:09:31Z</time></trkpt><trkpt lat="44.71450703395578" lon="8.236255911735487"><ele>171.0</ele><time>2026-05-03T13:09:32Z</time></trkpt><trkpt lat="44.714596581482404" lon="8.236420559745008"><ele>170.33333333333334</ele><time>2026-05-03T13:09:33Z</time></trkpt><trkpt lat="44.714678194450826" lon="8.236585744268906"><ele>169.66666666666669</ele><time>2026-05-03T13:09:34Z</time></trkpt><trkpt lat="44.71477804870845" lon="8.236753962745155"><ele>169.0</ele><time>2026-05-03T13:09:35Z</time></trkpt><trkpt lat="44.714866592769596" lon="8.23692678065203"><ele>169.0</ele><time>2026-05-03T13:09:36Z</time></trkpt><trkpt lat="44.714949636663974" lon="8.237087341174671"><ele>169.0</ele><time>2026-05-03T13:09:37Z</time></trkpt><trkpt lat="44.71503293437432" lon="8.237251730161768"><ele>169.0</ele><time>2026-05-03T13:09:38Z</time></trkpt><trkpt lat="44.7151246085436" lon="8.237426046221435"><ele>169.0</ele><time>2026-05-03T13:09:39Z</time></trkpt><trkpt lat="44.71520981561083" lon="8.23759668691387"><ele>169.5</ele><time>2026-05-03T13:09:40Z</time></trkpt><trkpt lat="44.715302265977634" lon="8.237756633727598"><ele>170.0</ele><time>2026-05-03T13:09:41Z</time></trkpt><trkpt lat="44.71540719270011" lon="8.237902350712732"><ele>170.5</ele><time>2026-05-03T13:09:42Z</time></trkpt><trkpt lat="44.715510065324246" lon="8.238023970236581"><ele>171.0</ele><time>2026-05-03T13:09:43Z</time></trkpt><trkpt lat="44.71561414504866" lon="8.238133181196245"><ele>170.0</ele><time>2026-05-03T13:09:44Z</time></trkpt><trkpt lat="44.71573884510427" lon="8.238222428523104"><ele>169.0</ele><time>2026-05-03T13:09:45Z</time></trkpt><trkpt lat="44.71588091276654" lon="8.238289886285774"><ele>168.0</ele><time>2026-05-03T13:09:46Z</time></trkpt><trkpt lat="44.7160149847542" lon="8.238333791653481"><ele>167.0</ele><time>2026-05-03T13:09:47Z</time></trkpt><trkpt lat="44.716162996670406" lon="8.238360392145045"><ele>167.0</ele><time>2026-05-03T13:09:48Z</time></trkpt><trkpt lat="44.71633319312955" lon="8.238359903616594"><ele>167.0</ele><time>2026-05-03T13:09:49Z</time></trkpt><trkpt lat="44.716480688429556" lon="8.238349091032493"><ele>167.0</ele><time>2026-05-03T13:09:50Z</time></trkpt><trkpt lat="44.71669519323839" lon="8.238317345532945"><ele>167.0</ele><time>2026-05-03T13:09:51Z</time></trkpt><trkpt lat="44.716846802259624" lon="8.238289175655282"><ele>167.0</ele><time>2026-05-03T13:09:52Z</time></trkpt><trkpt lat="44.71700315135488" lon="8.23827066427978"><ele>167.0</ele><time>2026-05-03T13:09:53Z</time></trkpt><trkpt lat="44.71715146742094" lon="8.238250521820076"><ele>166.5</ele><time>2026-05-03T13:09:54Z</time></trkpt><trkpt lat="44.717295051217285" lon="8.238225070377375"><ele>166.0</ele><time>2026-05-03T13:09:55Z</time></trkpt><trkpt lat="44.717431235046924" lon="8.238203960793703"><ele>165.5</ele><time>2026-05-03T13:09:56Z</time></trkpt><trkpt lat="44.717565291001954" lon="8.238175783614667"><ele>165.0</ele><time>2026-05-03T13:09:57Z</time></trkpt><trkpt lat="44.71768266193703" lon="8.238139077227201"><ele>164.8</ele><time>2026-05-03T13:09:57.999Z</time></trkpt><trkpt lat="44.71776027997346" lon="8.238112876124164"><ele>164.6</ele><time>2026-05-03T13:09:58.999Z</time></trkpt><trkpt lat="44.71782994670066" lon="8.238122427366683"><ele>164.39999999999998</ele><time>2026-05-03T13:09:59.999Z</time></trkpt><trkpt lat="44.71785021527542" lon="8.238261705241069"><ele>164.2</ele><time>2026-05-03T13:10:00.999Z</time></trkpt><trkpt lat="44.71791512035452" lon="8.238380258397244"><ele>164.0</ele><time>2026-05-03T13:10:01.999Z</time></trkpt><trkpt lat="44.717974988723995" lon="8.238489610366285"><ele>163.75</ele><time>2026-05-03T13:10:02.999Z</time></trkpt><trkpt lat="44.718031801154126" lon="8.23859497947129"><ele>163.5</ele><time>2026-05-03T13:10:03.999Z</time></trkpt><trkpt lat="44.718108858966936" lon="8.238747268486694"><ele>163.25</ele><time>2026-05-03T13:10:04.999Z</time></trkpt><trkpt lat="44.718171743199406" lon="8.238874136284226"><ele>163.0</ele><time>2026-05-03T13:10:05.999Z</time></trkpt><trkpt lat="44.71824390542493" lon="8.239010395560344"><ele>163.0</ele><time>2026-05-03T13:10:06.999Z</time></trkpt><trkpt lat="44.71832271695801" lon="8.239144171624602"><ele>163.0</ele><time>2026-05-03T13:10:07.999Z</time></trkpt><trkpt lat="44.71842987277148" lon="8.239244933157563"><ele>163.0</ele><time>2026-05-03T13:10:08.999Z</time></trkpt><trkpt lat="44.71853476724786" lon="8.239350613850112"><ele>163.0</ele><time>2026-05-03T13:10:09.999Z</time></trkpt><trkpt lat="44.718643940221504" lon="8.2394709876389"><ele>163.0</ele><time>2026-05-03T13:10:10.999Z</time></trkpt><trkpt lat="44.71875535869843" lon="8.239569691932356"><ele>163.0</ele><time>2026-05-03T13:10:11.999Z</time></trkpt><trkpt lat="44.718859566622115" lon="8.239661129895584"><ele>163.0</ele><time>2026-05-03T13:10:12.999Z</time></trkpt><trkpt lat="44.7189739784843" lon="8.239734353092977"><ele>163.0</ele><time>2026-05-03T13:10:13.999Z</time></trkpt><trkpt lat="44.719057712852724" lon="8.239846460188044"><ele>163.5</ele><time>2026-05-03T13:10:14.999Z</time></trkpt><trkpt lat="44.71917548128571" lon="8.23995415032437"><ele>164.0</ele><time>2026-05-03T13:10:15.999Z</time></trkpt><trkpt lat="44.7192997077942" lon="8.240050836961304"><ele>164.5</ele><time>2026-05-03T13:10:16.999Z</time></trkpt><trkpt lat="44.71941241188665" lon="8.240153100490511"><ele>165.0</ele><time>2026-05-03T13:10:17.999Z</time></trkpt><trkpt lat="44.71953685728533" lon="8.24027354499787"><ele>166.66666666666666</ele><time>2026-05-03T13:10:18.999Z</time></trkpt><trkpt lat="44.71964360981522" lon="8.240406788556577"><ele>168.33333333333331</ele><time>2026-05-03T13:10:19.999Z</time></trkpt><trkpt lat="44.71975202736975" lon="8.240561266527058"><ele>170.0</ele><time>2026-05-03T13:10:20.999Z</time></trkpt><trkpt lat="44.71988429925696" lon="8.240743715642667"><ele>170.66666666666666</ele><time>2026-05-03T13:10:21.999Z</time></trkpt><trkpt lat="44.71999539538926" lon="8.240941586883787"><ele>171.33333333333334</ele><time>2026-05-03T13:10:22.999Z</time></trkpt><trkpt lat="44.72013670553986" lon="8.24116778597713"><ele>172.0</ele><time>2026-05-03T13:10:23.999Z</time></trkpt><trkpt lat="44.72022958637269" lon="8.24138335448444"><ele>173.0</ele><time>2026-05-03T13:10:24.999Z</time></trkpt><trkpt lat="44.72035083322647" lon="8.241623841317384"><ele>174.0</ele><time>2026-05-03T13:10:25.999Z</time></trkpt><trkpt lat="44.72047484987689" lon="8.241874047717454"><ele>175.0</ele><time>2026-05-03T13:10:26.999Z</time></trkpt><trkpt lat="44.7205858003597" lon="8.242141308323566"><ele>174.0</ele><time>2026-05-03T13:10:27.999Z</time></trkpt><trkpt lat="44.720704892881315" lon="8.24239489527773"><ele>173.0</ele><time>2026-05-03T13:10:28.999Z</time></trkpt><trkpt lat="44.720818176525185" lon="8.242636113310866"><ele>172.0</ele><time>2026-05-03T13:10:29.999Z</time></trkpt><trkpt lat="44.720930985624534" lon="8.242877266789044"><ele>172.0</ele><time>2026-05-03T13:10:30.999Z</time></trkpt><trkpt lat="44.72104001114437" lon="8.243110493483988"><ele>172.0</ele><time>2026-05-03T13:10:31.999Z</time></trkpt><trkpt lat="44.721150610795725" lon="8.24333436016897"><ele>172.0</ele><time>2026-05-03T13:10:32.999Z</time></trkpt><trkpt lat="44.721271300037074" lon="8.243570638556246"><ele>173.33333333333334</ele><time>2026-05-03T13:10:33.999Z</time></trkpt><trkpt lat="44.72137409535826" lon="8.243797837544244"><ele>174.66666666666666</ele><time>2026-05-03T13:10:34.999Z</time></trkpt><trkpt lat="44.72147540585582" lon="8.244039236744909"><ele>176.0</ele><time>2026-05-03T13:10:35.999Z</time></trkpt><trkpt lat="44.721581400154236" lon="8.244264650297346"><ele>176.0</ele><time>2026-05-03T13:10:36.999Z</time></trkpt><trkpt lat="44.7216807340869" lon="8.244475899598138"><ele>176.0</ele><time>2026-05-03T13:10:38Z</time></trkpt><trkpt lat="44.721791823223505" lon="8.244688805856928"><ele>176.0</ele><time>2026-05-03T13:10:39Z</time></trkpt><trkpt lat="44.72187812407714" lon="8.244914070527464"><ele>177.66666666666666</ele><time>2026-05-03T13:10:40Z</time></trkpt><trkpt lat="44.72200546094631" lon="8.245131560318613"><ele>179.33333333333334</ele><time>2026-05-03T13:10:41Z</time></trkpt><trkpt lat="44.72209830454009" lon="8.245363002178813"><ele>181.0</ele><time>2026-05-03T13:10:42Z</time></trkpt><trkpt lat="44.72220229507785" lon="8.245588105582994"><ele>181.0</ele><time>2026-05-03T13:10:43Z</time></trkpt><trkpt lat="44.72230135804472" lon="8.245802876538223"><ele>181.0</ele><time>2026-05-03T13:10:44Z</time></trkpt><trkpt lat="44.72240306708893" lon="8.24602338442722"><ele>181.0</ele><time>2026-05-03T13:10:45Z</time></trkpt><trkpt lat="44.72251068590905" lon="8.246249477779697"><ele>181.0</ele><time>2026-05-03T13:10:46Z</time></trkpt><trkpt lat="44.72262177124065" lon="8.246453378190054"><ele>181.0</ele><time>2026-05-03T13:10:47Z</time></trkpt><trkpt lat="44.722749657293555" lon="8.246633926408716"><ele>181.0</ele><time>2026-05-03T13:10:48Z</time></trkpt><trkpt lat="44.72291692946054" lon="8.246785418934536"><ele>182.0</ele><time>2026-05-03T13:10:49Z</time></trkpt><trkpt lat="44.723110943463" lon="8.246896438294282"><ele>183.0</ele><time>2026-05-03T13:10:50Z</time></trkpt><trkpt lat="44.723317004901894" lon="8.246950307286573"><ele>184.0</ele><time>2026-05-03T13:10:51Z</time></trkpt><trkpt lat="44.72351926328494" lon="8.247037513335883"><ele>187.66666666666669</ele><time>2026-05-03T13:10:52Z</time></trkpt><trkpt lat="44.72370479967235" lon="8.247075807290033"><ele>191.33333333333334</ele><time>2026-05-03T13:10:53Z</time></trkpt><trkpt lat="44.723908398008525" lon="8.247175478059361"><ele>195.0</ele><time>2026-05-03T13:10:54Z</time></trkpt><trkpt lat="44.724132286396696" lon="8.247244269880856"><ele>191.0</ele><time>2026-05-03T13:10:55Z</time></trkpt><trkpt lat="44.72435776069613" lon="8.24730874911827"><ele>187.0</ele><time>2026-05-03T13:10:56Z</time></trkpt><trkpt lat="44.72457881439886" lon="8.247382104454163"><ele>187.0</ele><time>2026-05-03T13:10:57Z</time></trkpt><trkpt lat="44.72480894231742" lon="8.24746238442751"><ele>187.0</ele><time>2026-05-03T13:10:58Z</time></trkpt><trkpt lat="44.725046332693644" lon="8.247532696939002"><ele>189.5</ele><time>2026-05-03T13:10:59Z</time></trkpt><trkpt lat="44.725276351117515" lon="8.247624617189318"><ele>192.0</ele><time>2026-05-03T13:11:00Z</time></trkpt><trkpt lat="44.72550845848798" lon="8.247676662964974"><ele>192.0</ele><time>2026-05-03T13:11:01Z</time></trkpt><trkpt lat="44.72572840413949" lon="8.247745345279387"><ele>192.0</ele><time>2026-05-03T13:11:02Z</time></trkpt><trkpt lat="44.72595758418011" lon="8.247822008906823"><ele>191.5</ele><time>2026-05-03T13:11:03Z</time></trkpt><trkpt lat="44.72619620916375" lon="8.247907276311054"><ele>191.0</ele><time>2026-05-03T13:11:04Z</time></trkpt><trkpt lat="44.72635170937194" lon="8.247686978879102"><ele>191.0</ele><time>2026-05-03T13:11:05Z</time></trkpt><trkpt lat="44.72651476790998" lon="8.247602561302793"><ele>191.0</ele><time>2026-05-03T13:11:06Z</time></trkpt><trkpt lat="44.726681485872184" lon="8.247524591425083"><ele>191.0</ele><time>2026-05-03T13:11:07Z</time></trkpt><trkpt lat="44.727087242338406" lon="8.248169122323674"><ele>191.66666666666666</ele><time>2026-05-03T13:11:08Z</time></trkpt><trkpt lat="44.727289514522305" lon="8.248247001533562"><ele>192.33333333333331</ele><time>2026-05-03T13:11:09Z</time></trkpt><trkpt lat="44.72748022584474" lon="8.24834346214077"><ele>193.0</ele><time>2026-05-03T13:11:10Z</time></trkpt><trkpt lat="44.72763689854439" lon="8.248462267538477"><ele>194.0</ele><time>2026-05-03T13:11:11Z</time></trkpt><trkpt lat="44.72777154215405" lon="8.24863112637658"><ele>195.0</ele><time>2026-05-03T13:11:12Z</time></trkpt><trkpt lat="44.72788800395661" lon="8.248860734986199"><ele>196.0</ele><time>2026-05-03T13:11:13Z</time></trkpt><trkpt lat="44.72796071277492" lon="8.249101361363433"><ele>196.0</ele><time>2026-05-03T13:11:14Z</time></trkpt><trkpt lat="44.72806211920252" lon="8.249343555425003"><ele>196.0</ele><time>2026-05-03T13:11:15Z</time></trkpt><trkpt lat="44.72817294350009" lon="8.249580352862864"><ele>196.0</ele><time>2026-05-03T13:11:16Z</time></trkpt><trkpt lat="44.72829624269337" lon="8.249806020519"><ele>196.66666666666666</ele><time>2026-05-03T13:11:17Z</time></trkpt><trkpt lat="44.72843564304731" lon="8.25000894370163"><ele>197.33333333333331</ele><time>2026-05-03T13:11:18Z</time></trkpt><trkpt lat="44.728591535739284" lon="8.250193362926332"><ele>198.0</ele><time>2026-05-03T13:11:19Z</time></trkpt><trkpt lat="44.72877037053032" lon="8.250348543294612"><ele>198.0</ele><time>2026-05-03T13:11:20Z</time></trkpt><trkpt lat="44.72895964452066" lon="8.250498028014702"><ele>198.0</ele><time>2026-05-03T13:11:21Z</time></trkpt><trkpt lat="44.72914817560604" lon="8.250644538151246"><ele>198.0</ele><time>2026-05-03T13:11:22Z</time></trkpt><trkpt lat="44.72930976265236" lon="8.250801323162358"><ele>198.66666666666669</ele><time>2026-05-03T13:11:23Z</time></trkpt><trkpt lat="44.729479827457446" lon="8.250968051356974"><ele>199.33333333333334</ele><time>2026-05-03T13:11:24Z</time></trkpt><trkpt lat="44.72966795353942" lon="8.251124407078315"><ele>200.0</ele><time>2026-05-03T13:11:25Z</time></trkpt><trkpt lat="44.72981453519908" lon="8.251263434472754"><ele>200.0</ele><time>2026-05-03T13:11:26Z</time></trkpt><trkpt lat="44.72999555336331" lon="8.251423813023514"><ele>200.0</ele><time>2026-05-03T13:11:27Z</time></trkpt><trkpt lat="44.73014948989847" lon="8.251566613680202"><ele>200.0</ele><time>2026-05-03T13:11:28Z</time></trkpt><trkpt lat="44.730313036967004" lon="8.251690673919908"><ele>200.66666666666669</ele><time>2026-05-03T13:11:29Z</time></trkpt><trkpt lat="44.730495673756224" lon="8.251775425304146"><ele>201.33333333333331</ele><time>2026-05-03T13:11:30Z</time></trkpt><trkpt lat="44.73068045044651" lon="8.251828382636537"><ele>202.0</ele><time>2026-05-03T13:11:31Z</time></trkpt><trkpt lat="44.73084058887206" lon="8.251844180951988"><ele>202.0</ele><time>2026-05-03T13:11:32Z</time></trkpt><trkpt lat="44.73097742969687" lon="8.251822560976853"><ele>202.0</ele><time>2026-05-03T13:11:33Z</time></trkpt><trkpt lat="44.731099599619824" lon="8.251729679474115"><ele>202.0</ele><time>2026-05-03T13:11:34Z</time></trkpt><trkpt lat="44.7312848450181" lon="8.251611537069337"><ele>201.66666666666666</ele><time>2026-05-03T13:11:35Z</time></trkpt><trkpt lat="44.73143022635875" lon="8.251504867117841"><ele>201.33333333333331</ele><time>2026-05-03T13:11:36Z</time></trkpt><trkpt lat="44.73161211398628" lon="8.251467369755485"><ele>201.0</ele><time>2026-05-03T13:11:37Z</time></trkpt><trkpt lat="44.731800122066666" lon="8.25142033550174"><ele>207.33333333333331</ele><time>2026-05-03T13:11:38Z</time></trkpt><trkpt lat="44.73196912785129" lon="8.251403615899786"><ele>213.66666666666666</ele><time>2026-05-03T13:11:39Z</time></trkpt><trkpt lat="44.7321625058315" lon="8.251394794867508"><ele>220.0</ele><time>2026-05-03T13:11:40Z</time></trkpt><trkpt lat="44.73236265026265" lon="8.25141429152864"><ele>220.0</ele><time>2026-05-03T13:11:41Z</time></trkpt><trkpt lat="44.732553300325236" lon="8.251446169336175"><ele>220.0</ele><time>2026-05-03T13:11:42Z</time></trkpt><trkpt lat="44.73273423866036" lon="8.251466709987245"><ele>220.0</ele><time>2026-05-03T13:11:43Z</time></trkpt><trkpt lat="44.732912385589245" lon="8.251493381386242"><ele>216.0</ele><time>2026-05-03T13:11:44Z</time></trkpt><trkpt lat="44.73308232913479" lon="8.251554953408094"><ele>212.0</ele><time>2026-05-03T13:11:45Z</time></trkpt><trkpt lat="44.73324372982859" lon="8.2516528817176"><ele>208.0</ele><time>2026-05-03T13:11:46Z</time></trkpt><trkpt lat="44.73341516575066" lon="8.251795872898962"><ele>213.33333333333331</ele><time>2026-05-03T13:11:47Z</time></trkpt><trkpt lat="44.73359984096811" lon="8.251924694822154"><ele>218.66666666666669</ele><time>2026-05-03T13:11:48Z</time></trkpt><trkpt lat="44.733791565772734" lon="8.252042511310359"><ele>224.0</ele><time>2026-05-03T13:11:49Z</time></trkpt><trkpt lat="44.73398308542591" lon="8.252176542773578"><ele>221.33333333333334</ele><time>2026-05-03T13:11:50Z</time></trkpt><trkpt lat="44.73416260878201" lon="8.25230208315539"><ele>218.66666666666669</ele><time>2026-05-03T13:11:51Z</time></trkpt><trkpt lat="44.734341903293995" lon="8.252437769493058"><ele>216.0</ele><time>2026-05-03T13:11:52Z</time></trkpt><trkpt lat="44.734542233263475" lon="8.252570200207309"><ele>216.0</ele><time>2026-05-03T13:11:53Z</time></trkpt><trkpt lat="44.73473209310781" lon="8.252701888557331"><ele>216.0</ele><time>2026-05-03T13:11:54Z</time></trkpt><trkpt lat="44.734909465776134" lon="8.252822160766511"><ele>216.0</ele><time>2026-05-03T13:11:55Z</time></trkpt><trkpt lat="44.7351012818418" lon="8.25295414422303"><ele>214.33333333333331</ele><time>2026-05-03T13:11:56Z</time></trkpt><trkpt lat="44.73530214633145" lon="8.25305880968222"><ele>212.66666666666666</ele><time>2026-05-03T13:11:57Z</time></trkpt><trkpt lat="44.735518658318014" lon="8.253158404386491"><ele>211.0</ele><time>2026-05-03T13:11:58Z</time></trkpt><trkpt lat="44.73571985453902" lon="8.253251005338301"><ele>211.0</ele><time>2026-05-03T13:11:59Z</time></trkpt><trkpt lat="44.735917944201454" lon="8.253345991386716"><ele>211.0</ele><time>2026-05-03T13:12:00Z</time></trkpt><trkpt lat="44.73610033866958" lon="8.253438003520195"><ele>211.0</ele><time>2026-05-03T13:12:01Z</time></trkpt><trkpt lat="44.73626855190153" lon="8.25352685144555"><ele>210.66666666666666</ele><time>2026-05-03T13:12:02Z</time></trkpt><trkpt lat="44.736433570549885" lon="8.253599486374284"><ele>210.33333333333331</ele><time>2026-05-03T13:12:03Z</time></trkpt><trkpt lat="44.736585366197694" lon="8.253617944674797"><ele>210.0</ele><time>2026-05-03T13:12:04Z</time></trkpt><trkpt lat="44.73674339783794" lon="8.253569639442192"><ele>211.0</ele><time>2026-05-03T13:12:05Z</time></trkpt><trkpt lat="44.736923215676676" lon="8.253544743536988"><ele>212.0</ele><time>2026-05-03T13:12:06Z</time></trkpt><trkpt lat="44.73712973185335" lon="8.253605617258737"><ele>213.0</ele><time>2026-05-03T13:12:07Z</time></trkpt><trkpt lat="44.73732863987332" lon="8.253641464552572"><ele>213.0</ele><time>2026-05-03T13:12:07.999Z</time></trkpt><trkpt lat="44.73751274167451" lon="8.253685954828773"><ele>213.0</ele><time>2026-05-03T13:12:08.999Z</time></trkpt><trkpt lat="44.73768539213917" lon="8.25376604965154"><ele>213.0</ele><time>2026-05-03T13:12:09.999Z</time></trkpt><trkpt lat="44.73784759760302" lon="8.253834357755082"><ele>216.33333333333331</ele><time>2026-05-03T13:12:10.999Z</time></trkpt><trkpt lat="44.73803266923378" lon="8.25384924450769"><ele>219.66666666666666</ele><time>2026-05-03T13:12:11.999Z</time></trkpt><trkpt lat="44.73821963166003" lon="8.253841120940226"><ele>223.0</ele><time>2026-05-03T13:12:12.999Z</time></trkpt><trkpt lat="44.73840515175063" lon="8.253843684052306"><ele>222.66666666666666</ele><time>2026-05-03T13:12:13.999Z</time></trkpt><trkpt lat="44.73860114352433" lon="8.253857580799743"><ele>222.33333333333331</ele><time>2026-05-03T13:12:14.999Z</time></trkpt><trkpt lat="44.73879951783014" lon="8.253845320426475"><ele>222.0</ele><time>2026-05-03T13:12:15.999Z</time></trkpt><trkpt lat="44.739002953405105" lon="8.253808884460106"><ele>222.0</ele><time>2026-05-03T13:12:16.999Z</time></trkpt><trkpt lat="44.73920029265068" lon="8.253736390560425"><ele>222.0</ele><time>2026-05-03T13:12:17.999Z</time></trkpt><trkpt lat="44.73940097338068" lon="8.253670456990811"><ele>222.0</ele><time>2026-05-03T13:12:18.999Z</time></trkpt><trkpt lat="44.73960902021311" lon="8.253618104227463"><ele>221.0</ele><time>2026-05-03T13:12:19.999Z</time></trkpt><trkpt lat="44.739805568106966" lon="8.25357876190695"><ele>220.0</ele><time>2026-05-03T13:12:20.999Z</time></trkpt><trkpt lat="44.739994322451736" lon="8.2535397226076"><ele>219.0</ele><time>2026-05-03T13:12:21.999Z</time></trkpt><trkpt lat="44.7401669947456" lon="8.253493613503746"><ele>219.0</ele><time>2026-05-03T13:12:22.999Z</time></trkpt><trkpt lat="44.74034241777541" lon="8.253452906073768"><ele>219.0</ele><time>2026-05-03T13:12:23.999Z</time></trkpt><trkpt lat="44.7405209355774" lon="8.253438744447449"><ele>219.0</ele><time>2026-05-03T13:12:24.999Z</time></trkpt><trkpt lat="44.7407125531022" lon="8.253473182883777"><ele>219.0</ele><time>2026-05-03T13:12:25.999Z</time></trkpt><trkpt lat="44.74091175720237" lon="8.253481421093618"><ele>219.0</ele><time>2026-05-03T13:12:26.999Z</time></trkpt><trkpt lat="44.741114538465986" lon="8.253455303121234"><ele>219.0</ele><time>2026-05-03T13:12:27.999Z</time></trkpt><trkpt lat="44.74129977963271" lon="8.253398902615007"><ele>219.33333333333331</ele><time>2026-05-03T13:12:28.999Z</time></trkpt><trkpt lat="44.74147824392343" lon="8.253338758109251"><ele>219.66666666666666</ele><time>2026-05-03T13:12:29.999Z</time></trkpt><trkpt lat="44.741656590000616" lon="8.253265789483129"><ele>220.0</ele><time>2026-05-03T13:12:30.999Z</time></trkpt><trkpt lat="44.741831228436155" lon="8.253181267586749"><ele>221.33333333333331</ele><time>2026-05-03T13:12:31.999Z</time></trkpt><trkpt lat="44.742018273851535" lon="8.253100557386587"><ele>222.66666666666669</ele><time>2026-05-03T13:12:32.999Z</time></trkpt><trkpt lat="44.74219841170044" lon="8.253026068868534"><ele>224.0</ele><time>2026-05-03T13:12:33.999Z</time></trkpt><trkpt lat="44.74237112686627" lon="8.252961523791834"><ele>224.0</ele><time>2026-05-03T13:12:34.999Z</time></trkpt><trkpt lat="44.74252209109846" lon="8.252904063638569"><ele>224.0</ele><time>2026-05-03T13:12:35.999Z</time></trkpt><trkpt lat="44.74266220567376" lon="8.252853878514221"><ele>224.0</ele><time>2026-05-03T13:12:36.999Z</time></trkpt><trkpt lat="44.74280245257936" lon="8.252807931044403"><ele>224.0</ele><time>2026-05-03T13:12:37.999Z</time></trkpt><trkpt lat="44.7429351770388" lon="8.252768454664514"><ele>223.5</ele><time>2026-05-03T13:12:38.999Z</time></trkpt><trkpt lat="44.743073860653645" lon="8.252728353890395"><ele>223.0</ele><time>2026-05-03T13:12:39.999Z</time></trkpt><trkpt lat="44.74322219585687" lon="8.252698039515023"><ele>222.5</ele><time>2026-05-03T13:12:40.999Z</time></trkpt><trkpt lat="44.74335471203934" lon="8.252681881359027"><ele>222.0</ele><time>2026-05-03T13:12:41.999Z</time></trkpt><trkpt lat="44.74349233892995" lon="8.252670978069832"><ele>221.5</ele><time>2026-05-03T13:12:42.999Z</time></trkpt><trkpt lat="44.74363219437204" lon="8.25266090353535"><ele>221.0</ele><time>2026-05-03T13:12:44Z</time></trkpt><trkpt lat="44.74376991613803" lon="8.252654010949088"><ele>220.5</ele><time>2026-05-03T13:12:45Z</time></trkpt><trkpt lat="44.74392144094723" lon="8.252646124416033"><ele>220.0</ele><time>2026-05-03T13:12:46Z</time></trkpt><trkpt lat="44.74407058888444" lon="8.252619555382104"><ele>220.0</ele><time>2026-05-03T13:12:47Z</time></trkpt><trkpt lat="44.744219712368874" lon="8.252610130290032"><ele>220.0</ele><time>2026-05-03T13:12:48Z</time></trkpt><trkpt lat="44.744370853618875" lon="8.252601074724828"><ele>220.0</ele><time>2026-05-03T13:12:49Z</time></trkpt><trkpt lat="44.74451411824693" lon="8.252568840672359"><ele>220.0</ele><time>2026-05-03T13:12:50Z</time></trkpt><trkpt lat="44.744653856187064" lon="8.252548246484283"><ele>221.0</ele><time>2026-05-03T13:12:51Z</time></trkpt><trkpt lat="44.744812041117264" lon="8.252533623074024"><ele>222.0</ele><time>2026-05-03T13:12:52Z</time></trkpt><trkpt lat="44.74494639804117" lon="8.252528579614419"><ele>223.0</ele><time>2026-05-03T13:12:53Z</time></trkpt><trkpt lat="44.74508742743956" lon="8.25252282684754"><ele>224.0</ele><time>2026-05-03T13:12:54Z</time></trkpt><trkpt lat="44.745230141902844" lon="8.252515903525227"><ele>224.75</ele><time>2026-05-03T13:12:55Z</time></trkpt><trkpt lat="44.745374589012656" lon="8.252486649404666"><ele>225.5</ele><time>2026-05-03T13:12:56Z</time></trkpt><trkpt lat="44.74551873423554" lon="8.252453615516613"><ele>226.25</ele><time>2026-05-03T13:12:57Z</time></trkpt><trkpt lat="44.7456560001026" lon="8.252404977545707"><ele>227.0</ele><time>2026-05-03T13:12:58Z</time></trkpt><trkpt lat="44.74579642433998" lon="8.252364841929102"><ele>227.0</ele><time>2026-05-03T13:12:59Z</time></trkpt><trkpt lat="44.745933659349234" lon="8.252323402092411"><ele>227.0</ele><time>2026-05-03T13:13:00Z</time></trkpt><trkpt lat="44.74606860089099" lon="8.252281503193041"><ele>227.0</ele><time>2026-05-03T13:13:01Z</time></trkpt><trkpt lat="44.746210789203424" lon="8.25222026267388"><ele>227.0</ele><time>2026-05-03T13:13:02Z</time></trkpt><trkpt lat="44.74633712291339" lon="8.252180041295905"><ele>227.39999999999998</ele><time>2026-05-03T13:13:03Z</time></trkpt><trkpt lat="44.74644573397652" lon="8.252172189992523"><ele>227.79999999999998</ele><time>2026-05-03T13:13:04Z</time></trkpt><trkpt lat="44.74654576941452" lon="8.252153747589787"><ele>228.2</ele><time>2026-05-03T13:13:05Z</time></trkpt><trkpt lat="44.74662710928745" lon="8.252120584290843"><ele>228.6</ele><time>2026-05-03T13:13:06Z</time></trkpt><trkpt lat="44.74670071587621" lon="8.252130414800764"><ele>229.0</ele><time>2026-05-03T13:13:07Z</time></trkpt><trkpt lat="44.74678727153363" lon="8.25217784463961"><ele>229.25</ele><time>2026-05-03T13:13:10Z</time></trkpt><trkpt lat="44.74684450075233" lon="8.252349021351113"><ele>229.5</ele><time>2026-05-03T13:13:12Z</time></trkpt><trkpt lat="44.74688363076388" lon="8.252466828042143"><ele>229.75</ele><time>2026-05-03T13:13:13Z</time></trkpt><trkpt lat="44.746922437943184" lon="8.252602821099932"><ele>230.0</ele><time>2026-05-03T13:13:14Z</time></trkpt><trkpt lat="44.74699048328877" lon="8.252754605466874"><ele>229.0</ele><time>2026-05-03T13:13:15Z</time></trkpt><trkpt lat="44.747071275148535" lon="8.25289968173096"><ele>228.0</ele><time>2026-05-03T13:13:16Z</time></trkpt><trkpt lat="44.74716616604858" lon="8.253060672874406"><ele>227.0</ele><time>2026-05-03T13:13:17Z</time></trkpt><trkpt lat="44.74727800593665" lon="8.253207392767298"><ele>226.0</ele><time>2026-05-03T13:13:18Z</time></trkpt><trkpt lat="44.74739185733341" lon="8.25334589055536"><ele>228.66666666666666</ele><time>2026-05-03T13:13:19Z</time></trkpt><trkpt lat="44.74754648627125" lon="8.253481791787044"><ele>231.33333333333331</ele><time>2026-05-03T13:13:20Z</time></trkpt><trkpt lat="44.74769866047203" lon="8.25361511358447"><ele>234.0</ele><time>2026-05-03T13:13:21Z</time></trkpt><trkpt lat="44.74786652871079" lon="8.253731188878435"><ele>234.33333333333331</ele><time>2026-05-03T13:13:22Z</time></trkpt><trkpt lat="44.74802614637966" lon="8.253835796665875"><ele>234.66666666666666</ele><time>2026-05-03T13:13:23Z</time></trkpt><trkpt lat="44.748161737918636" lon="8.25391526037437"><ele>235.0</ele><time>2026-05-03T13:13:24Z</time></trkpt><trkpt lat="44.74831323540232" lon="8.25402284474314"><ele>235.25</ele><time>2026-05-03T13:13:25Z</time></trkpt><trkpt lat="44.74843586121454" lon="8.254127130162006"><ele>235.5</ele><time>2026-05-03T13:13:26Z</time></trkpt><trkpt lat="44.748538904973806" lon="8.254252738222997"><ele>235.75</ele><time>2026-05-03T13:13:27Z</time></trkpt><trkpt lat="44.74865046033059" lon="8.254376743430191"><ele>236.0</ele><time>2026-05-03T13:13:28Z</time></trkpt><trkpt lat="44.74879722644937" lon="8.254533910937958"><ele>236.0</ele><time>2026-05-03T13:13:29Z</time></trkpt><trkpt lat="44.74894296016469" lon="8.254717467506243"><ele>236.0</ele><time>2026-05-03T13:13:30Z</time></trkpt><trkpt lat="44.74907753063914" lon="8.254919875250774"><ele>236.0</ele><time>2026-05-03T13:13:31Z</time></trkpt><trkpt lat="44.74920807393159" lon="8.255159613649873"><ele>236.66666666666669</ele><time>2026-05-03T13:13:32Z</time></trkpt><trkpt lat="44.74933355501752" lon="8.255408941148639"><ele>237.33333333333331</ele><time>2026-05-03T13:13:33Z</time></trkpt><trkpt lat="44.749469412251166" lon="8.25563743034447"><ele>238.0</ele><time>2026-05-03T13:13:34Z</time></trkpt><trkpt lat="44.74961846172227" lon="8.255841635914242"><ele>238.0</ele><time>2026-05-03T13:13:35Z</time></trkpt><trkpt lat="44.74979498274981" lon="8.256003230056999"><ele>238.0</ele><time>2026-05-03T13:13:36Z</time></trkpt><trkpt lat="44.74998292996593" lon="8.256144639729975"><ele>238.0</ele><time>2026-05-03T13:13:37Z</time></trkpt><trkpt lat="44.75016280121111" lon="8.256309163768941"><ele>241.0</ele><time>2026-05-03T13:13:38Z</time></trkpt><trkpt lat="44.75032949828098" lon="8.256491685656426"><ele>244.0</ele><time>2026-05-03T13:13:39Z</time></trkpt><trkpt lat="44.75047937529651" lon="8.256679735286353"><ele>247.0</ele><time>2026-05-03T13:13:40Z</time></trkpt><trkpt lat="44.75061533645957" lon="8.256824921505306"><ele>247.0</ele><time>2026-05-03T13:13:41Z</time></trkpt><trkpt lat="44.750737052690916" lon="8.256930888787"><ele>247.0</ele><time>2026-05-03T13:13:42Z</time></trkpt><trkpt lat="44.750849000340764" lon="8.257044020669683"><ele>247.0</ele><time>2026-05-03T13:13:43Z</time></trkpt><trkpt lat="44.75092278890396" lon="8.257122629699206"><ele>247.0</ele><time>2026-05-03T13:13:44Z</time></trkpt><trkpt lat="44.75101009775773" lon="8.257235458513028"><ele>247.0</ele><time>2026-05-03T13:13:46Z</time></trkpt><trkpt lat="44.75105593552506" lon="8.257298984403745"><ele>247.0</ele><time>2026-05-03T13:13:47Z</time></trkpt><trkpt lat="44.75111531096723" lon="8.25736729751473"><ele>247.0</ele><time>2026-05-03T13:13:48Z</time></trkpt><trkpt lat="44.751195544124826" lon="8.257449905706526"><ele>247.0</ele><time>2026-05-03T13:13:49Z</time></trkpt><trkpt lat="44.751287388109866" lon="8.257550960936657"><ele>247.0</ele><time>2026-05-03T13:13:50Z</time></trkpt><trkpt lat="44.75138711014211" lon="8.257666915947565"><ele>247.0</ele><time>2026-05-03T13:13:51Z</time></trkpt><trkpt lat="44.75149512159773" lon="8.257786779573765"><ele>247.0</ele><time>2026-05-03T13:13:52Z</time></trkpt><trkpt lat="44.75160329966309" lon="8.257908502740783"><ele>247.0</ele><time>2026-05-03T13:13:53Z</time></trkpt><trkpt lat="44.751750200716636" lon="8.257971102428531"><ele>247.0</ele><time>2026-05-03T13:13:54Z</time></trkpt><trkpt lat="44.7519029188539" lon="8.258066806093318"><ele>244.33333333333331</ele><time>2026-05-03T13:13:55Z</time></trkpt><trkpt lat="44.75207972099938" lon="8.258156454485297"><ele>241.66666666666669</ele><time>2026-05-03T13:13:56Z</time></trkpt><trkpt lat="44.752246202291175" lon="8.25825204784603"><ele>239.0</ele><time>2026-05-03T13:13:57Z</time></trkpt><trkpt lat="44.75240560659277" lon="8.258357158246499"><ele>239.0</ele><time>2026-05-03T13:13:58Z</time></trkpt><trkpt lat="44.75255943156679" lon="8.258458589667377"><ele>239.0</ele><time>2026-05-03T13:13:59Z</time></trkpt><trkpt lat="44.75269691096288" lon="8.258527124353568"><ele>239.0</ele><time>2026-05-03T13:14:00Z</time></trkpt><trkpt lat="44.752797417755524" lon="8.258623825944785"><ele>239.0</ele><time>2026-05-03T13:14:01Z</time></trkpt><trkpt lat="44.752879909878125" lon="8.258764718455122"><ele>238.5</ele><time>2026-05-03T13:14:02Z</time></trkpt><trkpt lat="44.75295756593759" lon="8.258891698225433"><ele>238.0</ele><time>2026-05-03T13:14:03Z</time></trkpt><trkpt lat="44.75306180511767" lon="8.259050943528312"><ele>237.5</ele><time>2026-05-03T13:14:04Z</time></trkpt><trkpt lat="44.75318710991518" lon="8.259212254638811"><ele>237.0</ele><time>2026-05-03T13:14:05Z</time></trkpt><trkpt lat="44.75331658181948" lon="8.259368329933004"><ele>237.0</ele><time>2026-05-03T13:14:06Z</time></trkpt><trkpt lat="44.753437724654916" lon="8.259506074043188"><ele>237.0</ele><time>2026-05-03T13:14:07Z</time></trkpt><trkpt lat="44.75357858523111" lon="8.259638527014348"><ele>237.0</ele><time>2026-05-03T13:14:08Z</time></trkpt><trkpt lat="44.75373021154606" lon="8.25973467383758"><ele>236.33333333333331</ele><time>2026-05-03T13:14:09Z</time></trkpt><trkpt lat="44.753879867420295" lon="8.259808216112928"><ele>235.66666666666666</ele><time>2026-05-03T13:14:10Z</time></trkpt><trkpt lat="44.75401865497799" lon="8.259896498942181"><ele>235.0</ele><time>2026-05-03T13:14:10.999Z</time></trkpt><trkpt lat="44.754151560317034" lon="8.260010935477606"><ele>235.0</ele><time>2026-05-03T13:14:11.999Z</time></trkpt><trkpt lat="44.754282550872084" lon="8.260146635197186"><ele>235.0</ele><time>2026-05-03T13:14:12.999Z</time></trkpt><trkpt lat="44.75440758622342" lon="8.260325565650135"><ele>235.0</ele><time>2026-05-03T13:14:13.999Z</time></trkpt><trkpt lat="44.754525875909664" lon="8.260501012369819"><ele>234.25</ele><time>2026-05-03T13:14:14.999Z</time></trkpt><trkpt lat="44.754633944217225" lon="8.260670598001726"><ele>233.5</ele><time>2026-05-03T13:14:15.999Z</time></trkpt><trkpt lat="44.75472188520384" lon="8.260840751956486"><ele>232.75</ele><time>2026-05-03T13:14:16.999Z</time></trkpt><trkpt lat="44.754789891028096" lon="8.26100127547039"><ele>232.0</ele><time>2026-05-03T13:14:17.999Z</time></trkpt><trkpt lat="44.754842444601" lon="8.26117216074225"><ele>232.0</ele><time>2026-05-03T13:14:18.999Z</time></trkpt><trkpt lat="44.75487290897578" lon="8.261333767707967"><ele>232.0</ele><time>2026-05-03T13:14:19.999Z</time></trkpt><trkpt lat="44.75490465244652" lon="8.261490045394675"><ele>232.0</ele><time>2026-05-03T13:14:20.999Z</time></trkpt><trkpt lat="44.754929462776595" lon="8.26166652758876"><ele>232.0</ele><time>2026-05-03T13:14:21.999Z</time></trkpt><trkpt lat="44.75497943720498" lon="8.261854703447751"><ele>233.33333333333331</ele><time>2026-05-03T13:14:22.999Z</time></trkpt><trkpt lat="44.7550492143609" lon="8.262066410510792"><ele>234.66666666666669</ele><time>2026-05-03T13:14:23.999Z</time></trkpt><trkpt lat="44.75512053751636" lon="8.262280153276045"><ele>236.0</ele><time>2026-05-03T13:14:24.999Z</time></trkpt><trkpt lat="44.75517177219595" lon="8.262470236573694"><ele>238.33333333333334</ele><time>2026-05-03T13:14:25.999Z</time></trkpt><trkpt lat="44.755232401978176" lon="8.26267476619718"><ele>240.66666666666669</ele><time>2026-05-03T13:14:26.999Z</time></trkpt><trkpt lat="44.75530726853603" lon="8.262884012965545"><ele>243.0</ele><time>2026-05-03T13:14:27.999Z</time></trkpt><trkpt lat="44.75535106706381" lon="8.263079965962222"><ele>240.33333333333331</ele><time>2026-05-03T13:14:28.999Z</time></trkpt><trkpt lat="44.75545038254383" lon="8.263270888914604"><ele>237.66666666666666</ele><time>2026-05-03T13:14:29.999Z</time></trkpt><trkpt lat="44.7555624814431" lon="8.263456749071802"><ele>235.0</ele><time>2026-05-03T13:14:30.999Z</time></trkpt><trkpt lat="44.75566652243159" lon="8.263659685313135"><ele>235.0</ele><time>2026-05-03T13:14:31.999Z</time></trkpt><trkpt lat="44.755791946368134" lon="8.26384707305577"><ele>235.0</ele><time>2026-05-03T13:14:32.999Z</time></trkpt><trkpt lat="44.75591004493516" lon="8.26402257334874"><ele>235.0</ele><time>2026-05-03T13:14:33.999Z</time></trkpt><trkpt lat="44.756037287004204" lon="8.264172986807939"><ele>234.2</ele><time>2026-05-03T13:14:34.999Z</time></trkpt><trkpt lat="44.75613846231587" lon="8.264312538739802"><ele>233.4</ele><time>2026-05-03T13:14:35.999Z</time></trkpt><trkpt lat="44.75621644289667" lon="8.264452334285536"><ele>232.60000000000002</ele><time>2026-05-03T13:14:36.999Z</time></trkpt><trkpt lat="44.75625858731273" lon="8.264571410959736"><ele>231.8</ele><time>2026-05-03T13:14:37.999Z</time></trkpt><trkpt lat="44.75624907758319" lon="8.26467910144275"><ele>231.0</ele><time>2026-05-03T13:14:38.999Z</time></trkpt><trkpt lat="44.756258505974195" lon="8.264832542055672"><ele>231.0</ele><time>2026-05-03T13:14:39.999Z</time></trkpt><trkpt lat="44.75626189453457" lon="8.26500526050473"><ele>231.0</ele><time>2026-05-03T13:14:40.999Z</time></trkpt><trkpt lat="44.75625161291549" lon="8.265185244596879"><ele>231.0</ele><time>2026-05-03T13:14:41.999Z</time></trkpt><trkpt lat="44.75626524006312" lon="8.265349436472729"><ele>231.0</ele><time>2026-05-03T13:14:42.999Z</time></trkpt><trkpt lat="44.756253907374095" lon="8.265522542915082"><ele>229.75</ele><time>2026-05-03T13:14:43.999Z</time></trkpt><trkpt lat="44.75620607471314" lon="8.265717041145972"><ele>228.5</ele><time>2026-05-03T13:14:44.999Z</time></trkpt><trkpt lat="44.756150142632954" lon="8.265906194595427"><ele>227.25</ele><time>2026-05-03T13:14:45.999Z</time></trkpt><trkpt lat="44.75608369833101" lon="8.266083397500749"><ele>226.0</ele><time>2026-05-03T13:14:46.999Z</time></trkpt><trkpt lat="44.7560155129748" lon="8.266257409391574"><ele>225.66666666666666</ele><time>2026-05-03T13:14:47.999Z</time></trkpt><trkpt lat="44.755929343358034" lon="8.266421333923931"><ele>225.33333333333331</ele><time>2026-05-03T13:14:48.999Z</time></trkpt><trkpt lat="44.75584169431613" lon="8.266593556634943"><ele>225.0</ele><time>2026-05-03T13:14:50Z</time></trkpt><trkpt lat="44.75575596101124" lon="8.266781259935549"><ele>225.0</ele><time>2026-05-03T13:14:51Z</time></trkpt><trkpt lat="44.755658682824404" lon="8.26699018064515"><ele>225.0</ele><time>2026-05-03T13:14:52Z</time></trkpt><trkpt lat="44.75555620975455" lon="8.26719597480539"><ele>225.0</ele><time>2026-05-03T13:14:53Z</time></trkpt><trkpt lat="44.7554577674045" lon="8.26739192864045"><ele>225.0</ele><time>2026-05-03T13:14:54Z</time></trkpt><trkpt lat="44.7553682650162" lon="8.267559064546269"><ele>225.0</ele><time>2026-05-03T13:14:55Z</time></trkpt><trkpt lat="44.75529142261237" lon="8.267721381017832"><ele>225.0</ele><time>2026-05-03T13:14:56Z</time></trkpt><trkpt lat="44.75522258468622" lon="8.267860599501462"><ele>225.0</ele><time>2026-05-03T13:14:57Z</time></trkpt><trkpt lat="44.7552104894244" lon="8.268047182405216"><ele>224.25</ele><time>2026-05-03T13:14:58Z</time></trkpt><trkpt lat="44.75521059185334" lon="8.268233195708872"><ele>223.5</ele><time>2026-05-03T13:14:59Z</time></trkpt><trkpt lat="44.75522625700353" lon="8.268447908929659"><ele>222.75</ele><time>2026-05-03T13:15:00Z</time></trkpt><trkpt lat="44.75523844460912" lon="8.268651801813037"><ele>222.0</ele><time>2026-05-03T13:15:01Z</time></trkpt><trkpt lat="44.7552461011398" lon="8.268858976468598"><ele>221.33333333333331</ele><time>2026-05-03T13:15:02Z</time></trkpt><trkpt lat="44.75522957137054" lon="8.269078878193906"><ele>220.66666666666666</ele><time>2026-05-03T13:15:03Z</time></trkpt><trkpt lat="44.755167545045666" lon="8.269307192740694"><ele>220.0</ele><time>2026-05-03T13:15:04Z</time></trkpt><trkpt lat="44.75510404562594" lon="8.269521431985309"><ele>220.0</ele><time>2026-05-03T13:15:05Z</time></trkpt><trkpt lat="44.75503431853106" lon="8.269745054490702"><ele>220.0</ele><time>2026-05-03T13:15:06Z</time></trkpt><trkpt lat="44.75496250898392" lon="8.269973976353404"><ele>220.0</ele><time>2026-05-03T13:15:07Z</time></trkpt><trkpt lat="44.75488085270432" lon="8.2702374479236"><ele>221.0</ele><time>2026-05-03T13:15:08Z</time></trkpt><trkpt lat="44.754804214195076" lon="8.270482042131471"><ele>222.0</ele><time>2026-05-03T13:15:09Z</time></trkpt><trkpt lat="44.75473316498973" lon="8.27073471755911"><ele>223.0</ele><time>2026-05-03T13:15:10Z</time></trkpt><trkpt lat="44.75466613640415" lon="8.27100304291741"><ele>223.33333333333331</ele><time>2026-05-03T13:15:11Z</time></trkpt><trkpt lat="44.7546067302171" lon="8.271257581947197"><ele>223.66666666666669</ele><time>2026-05-03T13:15:12Z</time></trkpt><trkpt lat="44.754552201859795" lon="8.27149122080289"><ele>224.0</ele><time>2026-05-03T13:15:13Z</time></trkpt><trkpt lat="44.754507436580724" lon="8.27171573189329"><ele>224.0</ele><time>2026-05-03T13:15:14Z</time></trkpt><trkpt lat="44.75448593366203" lon="8.271946471577223"><ele>224.0</ele><time>2026-05-03T13:15:15Z</time></trkpt><trkpt lat="44.754502325828014" lon="8.272139296992282"><ele>224.0</ele><time>2026-05-03T13:15:16Z</time></trkpt><trkpt lat="44.754525878753" lon="8.272311210467057"><ele>224.0</ele><time>2026-05-03T13:15:17Z</time></trkpt><trkpt lat="44.75458911119789" lon="8.272445558704684"><ele>225.5</ele><time>2026-05-03T13:15:18Z</time></trkpt><trkpt lat="44.75469813367043" lon="8.272561403105765"><ele>227.0</ele><time>2026-05-03T13:15:19Z</time></trkpt><trkpt lat="44.75482565117105" lon="8.272664962814188"><ele>228.5</ele><time>2026-05-03T13:15:20Z</time></trkpt><trkpt lat="44.75497196112071" lon="8.272770467296663"><ele>230.0</ele><time>2026-05-03T13:15:21Z</time></trkpt><trkpt lat="44.755113704142666" lon="8.272878512076375"><ele>229.0</ele><time>2026-05-03T13:15:22Z</time></trkpt><trkpt lat="44.75525873707714" lon="8.273007156218693"><ele>228.0</ele><time>2026-05-03T13:15:23Z</time></trkpt><trkpt lat="44.7553877446631" lon="8.273173209232866"><ele>227.0</ele><time>2026-05-03T13:15:24Z</time></trkpt><trkpt lat="44.75550258558406" lon="8.27334093803278"><ele>227.0</ele><time>2026-05-03T13:15:25Z</time></trkpt><trkpt lat="44.75561009733704" lon="8.27351770228067"><ele>227.0</ele><time>2026-05-03T13:15:26Z</time></trkpt><trkpt lat="44.755707354222544" lon="8.273674662600028"><ele>227.0</ele><time>2026-05-03T13:15:27Z</time></trkpt><trkpt lat="44.75579974737366" lon="8.273832657757618"><ele>228.0</ele><time>2026-05-03T13:15:28Z</time></trkpt><trkpt lat="44.75588448347437" lon="8.273987776924074"><ele>229.0</ele><time>2026-05-03T13:15:29Z</time></trkpt><trkpt lat="44.75597266300038" lon="8.274125757708463"><ele>230.0</ele><time>2026-05-03T13:15:30Z</time></trkpt><trkpt lat="44.75607612656203" lon="8.274233880514942"><ele>231.0</ele><time>2026-05-03T13:15:31Z</time></trkpt><trkpt lat="44.75621476761882" lon="8.274292021085188"><ele>228.5</ele><time>2026-05-03T13:15:32Z</time></trkpt><trkpt lat="44.75635471885566" lon="8.274312437311007"><ele>226.0</ele><time>2026-05-03T13:15:33Z</time></trkpt><trkpt lat="44.756502600337406" lon="8.274317952615414"><ele>223.5</ele><time>2026-05-03T13:15:34Z</time></trkpt><trkpt lat="44.75665610853136" lon="8.274361833111342"><ele>221.0</ele><time>2026-05-03T13:15:35Z</time></trkpt><trkpt lat="44.756816273159636" lon="8.274392058479197"><ele>221.0</ele><time>2026-05-03T13:15:36Z</time></trkpt><trkpt lat="44.75698268005788" lon="8.274401488673545"><ele>221.0</ele><time>2026-05-03T13:15:37Z</time></trkpt><trkpt lat="44.75714248411538" lon="8.274440097121314"><ele>221.0</ele><time>2026-05-03T13:15:38Z</time></trkpt><trkpt lat="44.75731605148589" lon="8.274476382936072"><ele>221.0</ele><time>2026-05-03T13:15:39Z</time></trkpt><trkpt lat="44.75749159593545" lon="8.274502213470901"><ele>221.0</ele><time>2026-05-03T13:15:40Z</time></trkpt><trkpt lat="44.75765374659311" lon="8.274527285775635"><ele>221.0</ele><time>2026-05-03T13:15:41Z</time></trkpt><trkpt lat="44.757804064910815" lon="8.274538619413608"><ele>220.75</ele><time>2026-05-03T13:15:42Z</time></trkpt><trkpt lat="44.75795113067399" lon="8.274545143219923"><ele>220.5</ele><time>2026-05-03T13:15:43Z</time></trkpt><trkpt lat="44.75809080560622" lon="8.274575127830035"><ele>220.25</ele><time>2026-05-03T13:15:44Z</time></trkpt><trkpt lat="44.75822489466826" lon="8.274544752747632"><ele>220.0</ele><time>2026-05-03T13:15:45Z</time></trkpt><trkpt lat="44.7583715179701" lon="8.274493287625962"><ele>220.0</ele><time>2026-05-03T13:15:46Z</time></trkpt><trkpt lat="44.758508694652775" lon="8.274446053196133"><ele>220.0</ele><time>2026-05-03T13:15:47Z</time></trkpt><trkpt lat="44.75863240929775" lon="8.27439010187933"><ele>220.0</ele><time>2026-05-03T13:15:48Z</time></trkpt><trkpt lat="44.758771819459724" lon="8.274376719282722"><ele>220.0</ele><time>2026-05-03T13:15:49Z</time></trkpt><trkpt lat="44.75890230758711" lon="8.274350989807802"><ele>219.0</ele><time>2026-05-03T13:15:50Z</time></trkpt><trkpt lat="44.75902538036957" lon="8.274305634686428"><ele>218.0</ele><time>2026-05-03T13:15:51Z</time></trkpt><trkpt lat="44.75915493050796" lon="8.274261044610236"><ele>217.0</ele><time>2026-05-03T13:15:52Z</time></trkpt><trkpt lat="44.75927412993437" lon="8.274193209649075"><ele>216.0</ele><time>2026-05-03T13:15:53Z</time></trkpt><trkpt lat="44.75938008416835" lon="8.274148508334186"><ele>214.0</ele><time>2026-05-03T13:15:54Z</time></trkpt><trkpt lat="44.75949361460331" lon="8.27414267864522"><ele>212.00000000000003</ele><time>2026-05-03T13:15:55Z</time></trkpt><trkpt lat="44.7595968397594" lon="8.27417953673343"><ele>210.0</ele><time>2026-05-03T13:15:56Z</time></trkpt><trkpt lat="44.75968968987474" lon="8.274253738809206"><ele>208.0</ele><time>2026-05-03T13:15:57Z</time></trkpt><trkpt lat="44.759784509271405" lon="8.274341107212614"><ele>206.0</ele><time>2026-05-03T13:15:58Z</time></trkpt><trkpt lat="44.759875939641205" lon="8.274426460684081"><ele>206.0</ele><time>2026-05-03T13:15:59Z</time></trkpt><trkpt lat="44.759974426254786" lon="8.274520161801542"><ele>206.0</ele><time>2026-05-03T13:16:00Z</time></trkpt><trkpt lat="44.760060896667405" lon="8.274612375664898"><ele>206.0</ele><time>2026-05-03T13:16:01Z</time></trkpt><trkpt lat="44.76014995275476" lon="8.27468989495286"><ele>206.0</ele><time>2026-05-03T13:16:02Z</time></trkpt><trkpt lat="44.76021312680659" lon="8.27476345838332"><ele>206.0</ele><time>2026-05-03T13:16:03Z</time></trkpt><trkpt lat="44.760310845607805" lon="8.27484474745173"><ele>205.4</ele><time>2026-05-03T13:16:05Z</time></trkpt><trkpt lat="44.7603646250113" lon="8.274901410202785"><ele>204.8</ele><time>2026-05-03T13:16:09Z</time></trkpt><trkpt lat="44.760484555708935" lon="8.274758627780356"><ele>204.20000000000002</ele><time>2026-05-03T13:16:22.999Z</time></trkpt><trkpt lat="44.76048358357576" lon="8.274625820356434"><ele>203.60000000000002</ele><time>2026-05-03T13:16:24.999Z</time></trkpt><trkpt lat="44.760507854565844" lon="8.274469020479588"><ele>203.0</ele><time>2026-05-03T13:16:26.999Z</time></trkpt><trkpt lat="44.76052427656548" lon="8.274377951156016"><ele>202.0</ele><time>2026-05-03T13:16:27.999Z</time></trkpt><trkpt lat="44.76057471763712" lon="8.274261394462"><ele>201.0</ele><time>2026-05-03T13:16:29.999Z</time></trkpt><trkpt lat="44.76059730077287" lon="8.274102077941206"><ele>200.0</ele><time>2026-05-03T13:16:31.999Z</time></trkpt><trkpt lat="44.76062656996752" lon="8.273942100101445"><ele>199.0</ele><time>2026-05-03T13:16:33.999Z</time></trkpt><trkpt lat="44.760638518174844" lon="8.273851772052245"><ele>198.0</ele><time>2026-05-03T13:16:34.999Z</time></trkpt><trkpt lat="44.760663943400324" lon="8.27376669766106"><ele>197.0</ele><time>2026-05-03T13:16:35.999Z</time></trkpt><trkpt lat="44.76067923340814" lon="8.273664979827542"><ele>196.0</ele><time>2026-05-03T13:16:36.999Z</time></trkpt><trkpt lat="44.76070298804142" lon="8.273569828784952"><ele>195.0</ele><time>2026-05-03T13:16:37.999Z</time></trkpt><trkpt lat="44.760744718055186" lon="8.27341910303341"><ele>194.0</ele><time>2026-05-03T13:16:39.999Z</time></trkpt><trkpt lat="44.760783952270465" lon="8.273272452661045"><ele>193.0</ele><time>2026-05-03T13:16:41.999Z</time></trkpt><trkpt lat="44.760823932367416" lon="8.27313647185462"><ele>193.0</ele><time>2026-05-03T13:16:43.999Z</time></trkpt><trkpt lat="44.76085354379639" lon="8.273034212632412"><ele>193.0</ele><time>2026-05-03T13:16:45.999Z</time></trkpt><trkpt lat="44.76087915869362" lon="8.272944091064993"><ele>193.0</ele><time>2026-05-03T13:16:48.999Z</time></trkpt><trkpt lat="44.76075518472646" lon="8.27295032409277"><ele>193.0</ele><time>2026-05-03T13:16:53.999Z</time></trkpt><trkpt lat="44.760732083152554" lon="8.273052526464584"><ele>193.0</ele><time>2026-05-03T13:16:56Z</time></trkpt><trkpt lat="44.76069637538749" lon="8.273283433751773"><ele>193.0</ele><time>2026-05-03T13:16:57Z</time></trkpt><trkpt lat="44.76068571454888" lon="8.273423986236896"><ele>193.0</ele><time>2026-05-03T13:16:58Z</time></trkpt><trkpt lat="44.760667338049174" lon="8.273552631859738"><ele>193.0</ele><time>2026-05-03T13:16:59Z</time></trkpt><trkpt lat="44.76063050194703" lon="8.273705764871059"><ele>193.0</ele><time>2026-05-03T13:17:00Z</time></trkpt><trkpt lat="44.760597625149956" lon="8.273863432502583"><ele>193.0</ele><time>2026-05-03T13:17:01Z</time></trkpt><trkpt lat="44.76056463693805" lon="8.274015670602074"><ele>194.25</ele><time>2026-05-03T13:17:02Z</time></trkpt><trkpt lat="44.76053219306024" lon="8.27418451046252"><ele>195.5</ele><time>2026-05-03T13:17:03Z</time></trkpt><trkpt lat="44.76050057840996" lon="8.274387494066119"><ele>196.75</ele><time>2026-05-03T13:17:04Z</time></trkpt><trkpt lat="44.76046849071892" lon="8.274539326567842"><ele>198.0</ele><time>2026-05-03T13:17:05Z</time></trkpt><trkpt lat="44.76045072846086" lon="8.274676650991703"><ele>198.83333333333334</ele><time>2026-05-03T13:17:06Z</time></trkpt><trkpt lat="44.76043484585435" lon="8.274793611740954"><ele>199.66666666666669</ele><time>2026-05-03T13:17:07Z</time></trkpt><trkpt lat="44.76042833373939" lon="8.27488525653073"><ele>200.5</ele><time>2026-05-03T13:17:08Z</time></trkpt><trkpt lat="44.76043916238127" lon="8.274975773098793"><ele>201.33333333333334</ele><time>2026-05-03T13:17:09Z</time></trkpt><trkpt lat="44.760491350144086" lon="8.275051713380629"><ele>202.16666666666669</ele><time>2026-05-03T13:17:10Z</time></trkpt><trkpt lat="44.7605776561594" lon="8.275125661424967"><ele>203.0</ele><time>2026-05-03T13:17:11Z</time></trkpt><trkpt lat="44.760652021457176" lon="8.27523633502842"><ele>203.0</ele><time>2026-05-03T13:17:12Z</time></trkpt><trkpt lat="44.76073176206795" lon="8.27536209774577"><ele>203.0</ele><time>2026-05-03T13:17:13Z</time></trkpt><trkpt lat="44.760774262358254" lon="8.27553848237539"><ele>203.0</ele><time>2026-05-03T13:17:14Z</time></trkpt><trkpt lat="44.76084933326218" lon="8.275668261047567"><ele>203.0</ele><time>2026-05-03T13:17:15Z</time></trkpt><trkpt lat="44.760921043171095" lon="8.275800726741203"><ele>203.25</ele><time>2026-05-03T13:17:16Z</time></trkpt><trkpt lat="44.76099093008931" lon="8.275955120617724"><ele>203.5</ele><time>2026-05-03T13:17:17Z</time></trkpt><trkpt lat="44.76105722341977" lon="8.27608652748984"><ele>203.75</ele><time>2026-05-03T13:17:18Z</time></trkpt><trkpt lat="44.76109291801845" lon="8.276260867906222"><ele>204.0</ele><time>2026-05-03T13:17:19Z</time></trkpt><trkpt lat="44.76109877910654" lon="8.276445629813464"><ele>207.75</ele><time>2026-05-03T13:17:20Z</time></trkpt><trkpt lat="44.761111723052196" lon="8.276628496882893"><ele>211.5</ele><time>2026-05-03T13:17:21Z</time></trkpt><trkpt lat="44.761139525867456" lon="8.27683454676973"><ele>215.25</ele><time>2026-05-03T13:17:22Z</time></trkpt><trkpt lat="44.761133141014625" lon="8.27703953911261"><ele>219.0</ele><time>2026-05-03T13:17:23Z</time></trkpt><trkpt lat="44.76114351868161" lon="8.277242973401062"><ele>223.0</ele><time>2026-05-03T13:17:24Z</time></trkpt><trkpt lat="44.76116075921107" lon="8.277438784171263"><ele>227.0</ele><time>2026-05-03T13:17:25Z</time></trkpt><trkpt lat="44.76118855984591" lon="8.277638501120277"><ele>231.0</ele><time>2026-05-03T13:17:26Z</time></trkpt><trkpt lat="44.761198654503126" lon="8.277840676714748"><ele>235.0</ele><time>2026-05-03T13:17:27Z</time></trkpt><trkpt lat="44.76123581720671" lon="8.278049838196859"><ele>235.75</ele><time>2026-05-03T13:17:28Z</time></trkpt><trkpt lat="44.761291556844135" lon="8.278241643370603"><ele>236.5</ele><time>2026-05-03T13:17:29Z</time></trkpt><trkpt lat="44.76133450332886" lon="8.278437969704243"><ele>237.25</ele><time>2026-05-03T13:17:30Z</time></trkpt><trkpt lat="44.76137714302441" lon="8.278623550747854"><ele>238.0</ele><time>2026-05-03T13:17:31Z</time></trkpt><trkpt lat="44.761416410512176" lon="8.27882712399366"><ele>236.5</ele><time>2026-05-03T13:17:32Z</time></trkpt><trkpt lat="44.76144034680902" lon="8.279045010755688"><ele>235.0</ele><time>2026-05-03T13:17:33Z</time></trkpt><trkpt lat="44.7614484486114" lon="8.279247954394416"><ele>233.5</ele><time>2026-05-03T13:17:34Z</time></trkpt><trkpt lat="44.76145768498053" lon="8.279428327769153"><ele>232.0</ele><time>2026-05-03T13:17:35Z</time></trkpt><trkpt lat="44.761484067297914" lon="8.27959050680754"><ele>232.0</ele><time>2026-05-03T13:17:36Z</time></trkpt><trkpt lat="44.76151270376424" lon="8.279715516611432"><ele>232.0</ele><time>2026-05-03T13:17:37Z</time></trkpt><trkpt lat="44.76154462148901" lon="8.27984174891412"><ele>232.0</ele><time>2026-05-03T13:17:38Z</time></trkpt><trkpt lat="44.76159378095532" lon="8.279910552001184"><ele>232.0</ele><time>2026-05-03T13:17:39Z</time></trkpt><trkpt lat="44.7617154528127" lon="8.279911150559348"><ele>232.0</ele><time>2026-05-03T13:17:41Z</time></trkpt><trkpt lat="44.761831157339856" lon="8.279827014548937"><ele>234.25</ele><time>2026-05-03T13:17:43Z</time></trkpt><trkpt lat="44.76192029620805" lon="8.279764172658997"><ele>236.5</ele><time>2026-05-03T13:17:44Z</time></trkpt><trkpt lat="44.762008325236025" lon="8.279693089892444"><ele>238.75</ele><time>2026-05-03T13:17:45Z</time></trkpt><trkpt lat="44.76212478679673" lon="8.279640867956454"><ele>241.0</ele><time>2026-05-03T13:17:46Z</time></trkpt><trkpt lat="44.76224475210746" lon="8.279578663658567"><ele>241.0</ele><time>2026-05-03T13:17:47Z</time></trkpt><trkpt lat="44.76238500778623" lon="8.279509319607149"><ele>241.0</ele><time>2026-05-03T13:17:48Z</time></trkpt><trkpt lat="44.76251966666266" lon="8.279445326228105"><ele>241.0</ele><time>2026-05-03T13:17:49Z</time></trkpt><trkpt lat="44.76265225179153" lon="8.27939168506766"><ele>241.0</ele><time>2026-05-03T13:17:50Z</time></trkpt><trkpt lat="44.76277998736015" lon="8.27935512771794"><ele>241.0</ele><time>2026-05-03T13:17:51Z</time></trkpt><trkpt lat="44.76289779596534" lon="8.27934451889316"><ele>241.00000000000003</ele><time>2026-05-03T13:17:52Z</time></trkpt><trkpt lat="44.76299492879052" lon="8.279308344044217"><ele>241.00000000000003</ele><time>2026-05-03T13:17:53Z</time></trkpt><trkpt lat="44.7630729127703" lon="8.279240045537955"><ele>241.0</ele><time>2026-05-03T13:17:54Z</time></trkpt><trkpt lat="44.76313212366168" lon="8.279150292664552"><ele>241.0</ele><time>2026-05-03T13:17:55Z</time></trkpt><trkpt lat="44.76316861355697" lon="8.27904909332141"><ele>242.8</ele><time>2026-05-03T13:17:56Z</time></trkpt><trkpt lat="44.763185518085855" lon="8.278922047854316"><ele>244.60000000000002</ele><time>2026-05-03T13:17:57Z</time></trkpt><trkpt lat="44.76317693359355" lon="8.278780924170471"><ele>246.4</ele><time>2026-05-03T13:17:58Z</time></trkpt><trkpt lat="44.763158065798784" lon="8.278647012421361"><ele>248.2</ele><time>2026-05-03T13:17:59Z</time></trkpt><trkpt lat="44.763146497115216" lon="8.27850825773506"><ele>250.0</ele><time>2026-05-03T13:18:00Z</time></trkpt><trkpt lat="44.76313688329742" lon="8.278379240982348"><ele>249.99999999999997</ele><time>2026-05-03T13:18:01Z</time></trkpt><trkpt lat="44.763112659390615" lon="8.278279979322035"><ele>250.0</ele><time>2026-05-03T13:18:02Z</time></trkpt><trkpt lat="44.76309535955447" lon="8.27816074717723"><ele>250.0</ele><time>2026-05-03T13:18:04Z</time></trkpt><trkpt lat="44.76306668385934" lon="8.278074577442071"><ele>250.0</ele><time>2026-05-03T13:18:08Z</time></trkpt><trkpt lat="44.76294173168042" lon="8.278113094656867"><ele>249.99999999999997</ele><time>2026-05-03T13:18:11Z</time></trkpt><trkpt lat="44.76301666847104" lon="8.27807137180962"><ele>250.0</ele><time>2026-05-03T13:18:17Z</time></trkpt><trkpt lat="44.762899953939865" lon="8.278074273407562"><ele>250.28571428571428</ele><time>2026-05-03T13:18:23.999Z</time></trkpt><trkpt lat="44.762828628417516" lon="8.278037320886416"><ele>250.57142857142858</ele><time>2026-05-03T13:18:25.999Z</time></trkpt><trkpt lat="44.762781415267106" lon="8.277956765490334"><ele>250.85714285714286</ele><time>2026-05-03T13:18:27.999Z</time></trkpt><trkpt lat="44.762760267712196" lon="8.277853247926972"><ele>251.14285714285714</ele><time>2026-05-03T13:18:29.999Z</time></trkpt><trkpt lat="44.76273296699705" lon="8.277768210810631"><ele>251.42857142857144</ele><time>2026-05-03T13:18:31.999Z</time></trkpt><trkpt lat="44.76272903728077" lon="8.277862603591194"><ele>251.71428571428572</ele><time>2026-05-03T13:18:36.999Z</time></trkpt><trkpt lat="44.762797085954475" lon="8.277912263856319"><ele>252.0</ele><time>2026-05-03T13:18:39.999Z</time></trkpt><trkpt lat="44.76283777591945" lon="8.278027865266179"><ele>252.0</ele><time>2026-05-03T13:18:42.999Z</time></trkpt><trkpt lat="44.762921236083756" lon="8.27810127049024"><ele>252.0</ele><time>2026-05-03T13:18:45.999Z</time></trkpt><trkpt lat="44.76298388072577" lon="8.278084816935657"><ele>252.0</ele><time>2026-05-03T13:18:46.999Z</time></trkpt><trkpt lat="44.76309013566475" lon="8.278065786750277"><ele>252.0</ele><time>2026-05-03T13:18:48.999Z</time></trkpt><trkpt lat="44.763207775788125" lon="8.278046753049116"><ele>252.0</ele><time>2026-05-03T13:18:50.999Z</time></trkpt><trkpt lat="44.76308039223437" lon="8.277892736715032"><ele>252.0</ele><time>2026-05-03T13:18:52.999Z</time></trkpt><trkpt lat="44.76328322330292" lon="8.277799725052587"><ele>252.0</ele><time>2026-05-03T13:18:54.999Z</time></trkpt><trkpt lat="44.763306401954466" lon="8.27768290711982"><ele>252.0</ele><time>2026-05-03T13:19:10Z</time></trkpt><trkpt lat="44.763301511699744" lon="8.277550591889742"><ele>252.0</ele><time>2026-05-03T13:19:12Z</time></trkpt><trkpt lat="44.76329001193873" lon="8.277448660025856"><ele>252.0</ele><time>2026-05-03T13:19:14Z</time></trkpt><trkpt lat="44.76322796650684" lon="8.277346288221661"><ele>252.0</ele><time>2026-05-03T13:19:17Z</time></trkpt><trkpt lat="44.763167704459995" lon="8.277301359980171"><ele>252.0</ele><time>2026-05-03T13:19:20Z</time></trkpt><trkpt lat="44.76308839865336" lon="8.277299734047636"><ele>252.0</ele><time>2026-05-03T13:19:23Z</time></trkpt><trkpt lat="44.7630177102928" lon="8.27730690207777"><ele>252.0</ele><time>2026-05-03T13:19:24Z</time></trkpt><trkpt lat="44.762919042754305" lon="8.27732436679492"><ele>252.0</ele><time>2026-05-03T13:19:26Z</time></trkpt><trkpt lat="44.76284217620911" lon="8.277338858389237"><ele>252.0</ele><time>2026-05-03T13:19:28Z</time></trkpt><trkpt lat="44.76291512614545" lon="8.277325060070766"><ele>252.0</ele><time>2026-05-03T13:19:32Z</time></trkpt><trkpt lat="44.76299556263881" lon="8.277310822400217"><ele>252.0</ele><time>2026-05-03T13:19:34Z</time></trkpt><trkpt lat="44.763090328762424" lon="8.277309257934846"><ele>252.0</ele><time>2026-05-03T13:19:36Z</time></trkpt><trkpt lat="44.76319345612457" lon="8.277342023986733"><ele>252.0</ele><time>2026-05-03T13:19:38Z</time></trkpt><trkpt lat="44.76325859871004" lon="8.27728814837467"><ele>252.0</ele><time>2026-05-03T13:19:39Z</time></trkpt><trkpt lat="44.76331898635988" lon="8.277582450924369"><ele>252.0</ele><time>2026-05-03T13:19:41Z</time></trkpt><trkpt lat="44.76332662673913" lon="8.277686767499391"><ele>252.0</ele><time>2026-05-03T13:19:42Z</time></trkpt><trkpt lat="44.76334592601859" lon="8.277836124632593"><ele>252.0</ele><time>2026-05-03T13:19:44Z</time></trkpt><trkpt lat="44.763375623325054" lon="8.277917515054284"><ele>252.0</ele><time>2026-05-03T13:19:47Z</time></trkpt><trkpt lat="44.7634470127017" lon="8.277939029440303"><ele>252.0</ele><time>2026-05-03T13:19:51Z</time></trkpt><trkpt lat="44.76354687995717" lon="8.277843584649792"><ele>252.0</ele><time>2026-05-03T13:19:53Z</time></trkpt><trkpt lat="44.76362799504043" lon="8.27782011858056"><ele>251.0</ele><time>2026-05-03T13:19:54Z</time></trkpt><trkpt lat="44.76371712863462" lon="8.277729647160568"><ele>250.0</ele><time>2026-05-03T13:19:56Z</time></trkpt><trkpt lat="44.763868458746494" lon="8.277637591677895"><ele>249.0</ele><time>2026-05-03T13:19:58Z</time></trkpt><trkpt lat="44.76393451741532" lon="8.277608061298887"><ele>248.0</ele><time>2026-05-03T13:19:59Z</time></trkpt><trkpt lat="44.764057526976615" lon="8.277553071960023"><ele>248.0</ele><time>2026-05-03T13:20:01Z</time></trkpt><trkpt lat="44.76422831453115" lon="8.27750044543162"><ele>248.0</ele><time>2026-05-03T13:20:05Z</time></trkpt><trkpt lat="44.764371287735116" lon="8.277665034417165"><ele>248.0</ele><time>2026-05-03T13:20:06Z</time></trkpt><trkpt lat="44.764425140030674" lon="8.277769478931395"><ele>244.8</ele><time>2026-05-03T13:20:07Z</time></trkpt><trkpt lat="44.76449231612607" lon="8.277889681346712"><ele>241.60000000000002</ele><time>2026-05-03T13:20:08Z</time></trkpt><trkpt lat="44.76455703934556" lon="8.277990693404671"><ele>238.39999999999998</ele><time>2026-05-03T13:20:08.999Z</time></trkpt><trkpt lat="44.76462250401448" lon="8.27808342071373"><ele>235.2</ele><time>2026-05-03T13:20:09.999Z</time></trkpt><trkpt lat="44.76471892812241" lon="8.278188075048527"><ele>232.0</ele><time>2026-05-03T13:20:10.999Z</time></trkpt><trkpt lat="44.764816189043" lon="8.27828256679908"><ele>231.0</ele><time>2026-05-03T13:20:11.999Z</time></trkpt><trkpt lat="44.76491852739953" lon="8.278349131123274"><ele>230.0</ele><time>2026-05-03T13:20:12.999Z</time></trkpt><trkpt lat="44.765032832833676" lon="8.278429755663826"><ele>229.0</ele><time>2026-05-03T13:20:13.999Z</time></trkpt><trkpt lat="44.76515838880337" lon="8.27850712156354"><ele>228.0</ele><time>2026-05-03T13:20:14.999Z</time></trkpt><trkpt lat="44.76527925251025" lon="8.278584552589244"><ele>224.25</ele><time>2026-05-03T13:20:15.999Z</time></trkpt><trkpt lat="44.765394671353114" lon="8.278682485847424"><ele>220.5</ele><time>2026-05-03T13:20:16.999Z</time></trkpt><trkpt lat="44.76553013163127" lon="8.27876302387308"><ele>216.75</ele><time>2026-05-03T13:20:17.999Z</time></trkpt><trkpt lat="44.76563658840996" lon="8.278839891143843"><ele>213.0</ele><time>2026-05-03T13:20:18.999Z</time></trkpt><trkpt lat="44.76573002405349" lon="8.278910840355659"><ele>212.33333333333334</ele><time>2026-05-03T13:20:19.999Z</time></trkpt><trkpt lat="44.76582379223543" lon="8.278969568981372"><ele>211.66666666666669</ele><time>2026-05-03T13:20:20.999Z</time></trkpt><trkpt lat="44.76592223016448" lon="8.2790002104189"><ele>211.0</ele><time>2026-05-03T13:20:21.999Z</time></trkpt><trkpt lat="44.76600515278266" lon="8.278991249768534"><ele>210.33333333333334</ele><time>2026-05-03T13:20:22.999Z</time></trkpt><trkpt lat="44.76606067272634" lon="8.278938371212206"><ele>209.66666666666669</ele><time>2026-05-03T13:20:23.999Z</time></trkpt><trkpt lat="44.766100013135244" lon="8.278857469641581"><ele>209.0</ele><time>2026-05-03T13:20:24.999Z</time></trkpt><trkpt lat="44.76613518944972" lon="8.278753242143987"><ele>207.39999999999998</ele><time>2026-05-03T13:20:25.999Z</time></trkpt><trkpt lat="44.76618042384888" lon="8.27865881996997"><ele>205.8</ele><time>2026-05-03T13:20:26.999Z</time></trkpt><trkpt lat="44.76623067225037" lon="8.278556032849163"><ele>204.2</ele><time>2026-05-03T13:20:27.999Z</time></trkpt><trkpt lat="44.76630551481098" lon="8.278467123307577"><ele>202.60000000000002</ele><time>2026-05-03T13:20:28.999Z</time></trkpt><trkpt lat="44.766405614882935" lon="8.278383703607876"><ele>201.0</ele><time>2026-05-03T13:20:29.999Z</time></trkpt><trkpt lat="44.76648866189894" lon="8.278371500769245"><ele>201.0</ele><time>2026-05-03T13:20:30.999Z</time></trkpt><trkpt lat="44.766590320816505" lon="8.27839233654712"><ele>201.0</ele><time>2026-05-03T13:20:31.999Z</time></trkpt><trkpt lat="44.76671252802477" lon="8.278426058192498"><ele>201.0</ele><time>2026-05-03T13:20:32.999Z</time></trkpt><trkpt lat="44.766846660781226" lon="8.278485478914027"><ele>201.0</ele><time>2026-05-03T13:20:33.999Z</time></trkpt><trkpt lat="44.766977182206546" lon="8.278520903043495"><ele>197.75</ele><time>2026-05-03T13:20:34.999Z</time></trkpt><trkpt lat="44.7671110406095" lon="8.278576941767687"><ele>194.5</ele><time>2026-05-03T13:20:35.999Z</time></trkpt><trkpt lat="44.76725212580174" lon="8.278611720510925"><ele>191.25</ele><time>2026-05-03T13:20:36.999Z</time></trkpt><trkpt lat="44.76738896418798" lon="8.278680889121382"><ele>188.0</ele><time>2026-05-03T13:20:37.999Z</time></trkpt><trkpt lat="44.76752561991701" lon="8.27872445787408"><ele>188.0</ele><time>2026-05-03T13:20:38.999Z</time></trkpt><trkpt lat="44.767658503911136" lon="8.278765812289222"><ele>188.0</ele><time>2026-05-03T13:20:39.999Z</time></trkpt><trkpt lat="44.767787941699176" lon="8.27881213466036"><ele>188.0</ele><time>2026-05-03T13:20:40.999Z</time></trkpt><trkpt lat="44.767908057448174" lon="8.27884897693809"><ele>188.0</ele><time>2026-05-03T13:20:41.999Z</time></trkpt><trkpt lat="44.76803312842237" lon="8.27887450467996"><ele>185.25</ele><time>2026-05-03T13:20:42.999Z</time></trkpt><trkpt lat="44.76816047542652" lon="8.278887506295495"><ele>182.5</ele><time>2026-05-03T13:20:43.999Z</time></trkpt><trkpt lat="44.768283100003416" lon="8.2789139767549"><ele>179.75</ele><time>2026-05-03T13:20:44.999Z</time></trkpt><trkpt lat="44.768414718675416" lon="8.278940645753753"><ele>177.0</ele><time>2026-05-03T13:20:45.999Z</time></trkpt><trkpt lat="44.768532561460034" lon="8.278966590549748"><ele>174.25</ele><time>2026-05-03T13:20:46.999Z</time></trkpt><trkpt lat="44.768653293665466" lon="8.279006778407457"><ele>171.5</ele><time>2026-05-03T13:20:47.999Z</time></trkpt><trkpt lat="44.768767383958604" lon="8.279059481811526"><ele>168.75</ele><time>2026-05-03T13:20:48.999Z</time></trkpt><trkpt lat="44.76889838805028" lon="8.279125560324408"><ele>166.0</ele><time>2026-05-03T13:20:49.999Z</time></trkpt><trkpt lat="44.76903182703405" lon="8.279185729797602"><ele>166.0</ele><time>2026-05-03T13:20:50.999Z</time></trkpt><trkpt lat="44.76918362901053" lon="8.279252943551352"><ele>166.0</ele><time>2026-05-03T13:20:51.999Z</time></trkpt><trkpt lat="44.76933840446423" lon="8.279313707482343"><ele>166.0</ele><time>2026-05-03T13:20:52.999Z</time></trkpt><trkpt lat="44.76949946061811" lon="8.279376347599396"><ele>165.0</ele><time>2026-05-03T13:20:53.999Z</time></trkpt><trkpt lat="44.769668782486086" lon="8.279416893820358"><ele>164.0</ele><time>2026-05-03T13:20:54.999Z</time></trkpt><trkpt lat="44.76983488863889" lon="8.279439432313096"><ele>163.0</ele><time>2026-05-03T13:20:55.999Z</time></trkpt><trkpt lat="44.77000299652811" lon="8.27946636359496"><ele>163.0</ele><time>2026-05-03T13:20:56.999Z</time></trkpt><trkpt lat="44.77015774809167" lon="8.279516813118226"><ele>163.0</ele><time>2026-05-03T13:20:57.999Z</time></trkpt><trkpt lat="44.77032287833446" lon="8.279549677844907"><ele>163.0</ele><time>2026-05-03T13:20:58.999Z</time></trkpt><trkpt lat="44.77048126652086" lon="8.279571599791938"><ele>163.0</ele><time>2026-05-03T13:20:59.999Z</time></trkpt><trkpt lat="44.77063334993241" lon="8.279607634255326"><ele>163.0</ele><time>2026-05-03T13:21:00.999Z</time></trkpt><trkpt lat="44.77077451358894" lon="8.279623152007082"><ele>163.0</ele><time>2026-05-03T13:21:01.999Z</time></trkpt><trkpt lat="44.77090710643116" lon="8.27961730231601"><ele>163.0</ele><time>2026-05-03T13:21:02.999Z</time></trkpt><trkpt lat="44.77103992973928" lon="8.279568939603566"><ele>162.75</ele><time>2026-05-03T13:21:03.999Z</time></trkpt><trkpt lat="44.771157305044" lon="8.279489373229435"><ele>162.5</ele><time>2026-05-03T13:21:04.999Z</time></trkpt><trkpt lat="44.77128222714642" lon="8.27939033051232"><ele>162.25</ele><time>2026-05-03T13:21:05.999Z</time></trkpt><trkpt lat="44.771415424558" lon="8.279283044008427"><ele>162.0</ele><time>2026-05-03T13:21:06.999Z</time></trkpt><trkpt lat="44.77152729821856" lon="8.27917828651987"><ele>162.0</ele><time>2026-05-03T13:21:08Z</time></trkpt><trkpt lat="44.77163155901612" lon="8.279083821758613"><ele>162.0</ele><time>2026-05-03T13:21:09Z</time></trkpt><trkpt lat="44.771717130545326" lon="8.278983281683356"><ele>162.0</ele><time>2026-05-03T13:21:10Z</time></trkpt><trkpt lat="44.77179723102226" lon="8.278890647031462"><ele>162.0</ele><time>2026-05-03T13:21:11Z</time></trkpt><trkpt lat="44.77188454770136" lon="8.278799866067297"><ele>162.0</ele><time>2026-05-03T13:21:12Z</time></trkpt><trkpt lat="44.771983745426546" lon="8.278739954852998"><ele>159.5</ele><time>2026-05-03T13:21:13Z</time></trkpt><trkpt lat="44.77209168573213" lon="8.27869467575393"><ele>157.0</ele><time>2026-05-03T13:21:14Z</time></trkpt><trkpt lat="44.77220834480377" lon="8.278670509955143"><ele>154.5</ele><time>2026-05-03T13:21:15Z</time></trkpt><trkpt lat="44.772336872878405" lon="8.278646475905981"><ele>152.0</ele><time>2026-05-03T13:21:16Z</time></trkpt><trkpt lat="44.77247030660497" lon="8.278634727505247"><ele>152.0</ele><time>2026-05-03T13:21:17Z</time></trkpt><trkpt lat="44.772571897119946" lon="8.27869227980123"><ele>152.0</ele><time>2026-05-03T13:21:18Z</time></trkpt><trkpt lat="44.772702421069745" lon="8.278747509963786"><ele>152.0</ele><time>2026-05-03T13:21:19Z</time></trkpt><trkpt lat="44.77282034298346" lon="8.278757166457016"><ele>152.0</ele><time>2026-05-03T13:21:20Z</time></trkpt><trkpt lat="44.77293465920338" lon="8.27876042842506"><ele>151.0</ele><time>2026-05-03T13:21:21Z</time></trkpt><trkpt lat="44.77305483569081" lon="8.278726582252217"><ele>150.0</ele><time>2026-05-03T13:21:22Z</time></trkpt><trkpt lat="44.77317982456816" lon="8.278679465262899"><ele>149.0</ele><time>2026-05-03T13:21:23Z</time></trkpt><trkpt lat="44.773306129568546" lon="8.278626517943415"><ele>148.0</ele><time>2026-05-03T13:21:24Z</time></trkpt><trkpt lat="44.773436434072934" lon="8.278604586068294"><ele>147.75</ele><time>2026-05-03T13:21:25Z</time></trkpt><trkpt lat="44.773560317995326" lon="8.27855653630511"><ele>147.5</ele><time>2026-05-03T13:21:26Z</time></trkpt><trkpt lat="44.77369961394952" lon="8.27857507018886"><ele>147.25</ele><time>2026-05-03T13:21:27Z</time></trkpt><trkpt lat="44.77384310415026" lon="8.278590718185688"><ele>147.0</ele><time>2026-05-03T13:21:28Z</time></trkpt><trkpt lat="44.77397937396727" lon="8.278627065887159"><ele>147.0</ele><time>2026-05-03T13:21:29Z</time></trkpt><trkpt lat="44.77413393110286" lon="8.27867749578929"><ele>147.0</ele><time>2026-05-03T13:21:30Z</time></trkpt><trkpt lat="44.77429063770376" lon="8.278726753459175"><ele>147.0</ele><time>2026-05-03T13:21:31Z</time></trkpt><trkpt lat="44.77442885625294" lon="8.278768549612865"><ele>147.25</ele><time>2026-05-03T13:21:32Z</time></trkpt><trkpt lat="44.774568371551915" lon="8.278797322261227"><ele>147.5</ele><time>2026-05-03T13:21:33Z</time></trkpt><trkpt lat="44.77470792075639" lon="8.2787874956948"><ele>147.75</ele><time>2026-05-03T13:21:34Z</time></trkpt><trkpt lat="44.774853968570234" lon="8.278769958580028"><ele>148.0</ele><time>2026-05-03T13:21:35Z</time></trkpt><trkpt lat="44.77499367005095" lon="8.278739442436079"><ele>148.0</ele><time>2026-05-03T13:21:36Z</time></trkpt><trkpt lat="44.77513816236323" lon="8.278690038720752"><ele>148.0</ele><time>2026-05-03T13:21:37Z</time></trkpt><trkpt lat="44.775283579190216" lon="8.278632571466215"><ele>148.0</ele><time>2026-05-03T13:21:38Z</time></trkpt><trkpt lat="44.775439787409645" lon="8.278568753576744"><ele>148.5</ele><time>2026-05-03T13:21:39Z</time></trkpt><trkpt lat="44.775593164597964" lon="8.278505560415184"><ele>149.0</ele><time>2026-05-03T13:21:40Z</time></trkpt><trkpt lat="44.77574369017661" lon="8.278443542244618"><ele>149.5</ele><time>2026-05-03T13:21:41Z</time></trkpt><trkpt lat="44.775859487472495" lon="8.278395832398017"><ele>150.0</ele><time>2026-05-03T13:21:42Z</time></trkpt><trkpt lat="44.7759829262539" lon="8.278344974228606"><ele>149.5</ele><time>2026-05-03T13:21:43Z</time></trkpt><trkpt lat="44.776096647214644" lon="8.278299021318029"><ele>149.0</ele><time>2026-05-03T13:21:44Z</time></trkpt><trkpt lat="44.77622150511077" lon="8.27825050294976"><ele>148.5</ele><time>2026-05-03T13:21:45Z</time></trkpt><trkpt lat="44.77633182761419" lon="8.278186704839255"><ele>148.0</ele><time>2026-05-03T13:21:46Z</time></trkpt><trkpt lat="44.776443487550075" lon="8.27817132108708"><ele>148.0</ele><time>2026-05-03T13:21:47Z</time></trkpt><trkpt lat="44.77659541442275" lon="8.27811772210527"><ele>148.0</ele><time>2026-05-03T13:21:49Z</time></trkpt><trkpt lat="44.776654394221936" lon="8.278084686929262"><ele>148.0</ele><time>2026-05-03T13:21:52Z</time></trkpt><trkpt lat="44.776716357224494" lon="8.27818479367969"><ele>148.0</ele><time>2026-05-03T13:21:53Z</time></trkpt><trkpt lat="44.776818250497094" lon="8.278318907008735"><ele>148.4</ele><time>2026-05-03T13:21:55Z</time></trkpt><trkpt lat="44.77686895707615" lon="8.278380667359327"><ele>148.8</ele><time>2026-05-03T13:21:56Z</time></trkpt><trkpt lat="44.77693537631221" lon="8.27845808255886"><ele>149.2</ele><time>2026-05-03T13:21:57Z</time></trkpt><trkpt lat="44.777023749699936" lon="8.278545539564604"><ele>149.6</ele><time>2026-05-03T13:21:58Z</time></trkpt><trkpt lat="44.77711768211716" lon="8.278590639272867"><ele>150.0</ele><time>2026-05-03T13:21:59Z</time></trkpt><trkpt lat="44.77721593044355" lon="8.278580036480866"><ele>150.0</ele><time>2026-05-03T13:22:00Z</time></trkpt><trkpt lat="44.777318491619134" lon="8.278525453617055"><ele>150.0</ele><time>2026-05-03T13:22:01Z</time></trkpt><trkpt lat="44.77743251808138" lon="8.278460585414635"><ele>150.0</ele><time>2026-05-03T13:22:02Z</time></trkpt><trkpt lat="44.7775627490846" lon="8.278417988701506"><ele>150.0</ele><time>2026-05-03T13:22:03Z</time></trkpt><trkpt lat="44.777699543605934" lon="8.278403127451783"><ele>149.75</ele><time>2026-05-03T13:22:04Z</time></trkpt><trkpt lat="44.77783907550866" lon="8.278385525194144"><ele>149.5</ele><time>2026-05-03T13:22:05Z</time></trkpt><trkpt lat="44.77796668436942" lon="8.278357656179644"><ele>149.25</ele><time>2026-05-03T13:22:06Z</time></trkpt><trkpt lat="44.778104148598175" lon="8.278323057969745"><ele>149.0</ele><time>2026-05-03T13:22:07Z</time></trkpt><trkpt lat="44.77824825588913" lon="8.27830678884349"><ele>149.0</ele><time>2026-05-03T13:22:08Z</time></trkpt><trkpt lat="44.77838702640867" lon="8.27824263662212"><ele>149.0</ele><time>2026-05-03T13:22:09Z</time></trkpt><trkpt lat="44.778527429354824" lon="8.278202552611488"><ele>149.0</ele><time>2026-05-03T13:22:10Z</time></trkpt><trkpt lat="44.77867021264108" lon="8.2782002312648"><ele>149.0</ele><time>2026-05-03T13:22:11Z</time></trkpt><trkpt lat="44.778804468071776" lon="8.278224133223201"><ele>149.0</ele><time>2026-05-03T13:22:12Z</time></trkpt><trkpt lat="44.77892449431731" lon="8.278244573960166"><ele>149.0</ele><time>2026-05-03T13:22:13Z</time></trkpt><trkpt lat="44.77903912089847" lon="8.27825820235538"><ele>149.0</ele><time>2026-05-03T13:22:14Z</time></trkpt><trkpt lat="44.779147726557376" lon="8.278280910980689"><ele>149.0</ele><time>2026-05-03T13:22:15Z</time></trkpt><trkpt lat="44.77926920454095" lon="8.27828643266864"><ele>149.5</ele><time>2026-05-03T13:22:16Z</time></trkpt><trkpt lat="44.77938873128668" lon="8.278325409470169"><ele>150.0</ele><time>2026-05-03T13:22:17Z</time></trkpt><trkpt lat="44.77952707973524" lon="8.27832702793621"><ele>150.5</ele><time>2026-05-03T13:22:18Z</time></trkpt><trkpt lat="44.77967520731066" lon="8.278372582963486"><ele>151.0</ele><time>2026-05-03T13:22:19Z</time></trkpt><trkpt lat="44.77982045895181" lon="8.27839254986011"><ele>151.0</ele><time>2026-05-03T13:22:20Z</time></trkpt><trkpt lat="44.77998840311718" lon="8.278415511525884"><ele>151.0</ele><time>2026-05-03T13:22:21Z</time></trkpt><trkpt lat="44.78014757025996" lon="8.278437170933486"><ele>151.0</ele><time>2026-05-03T13:22:22Z</time></trkpt><trkpt lat="44.78031891917705" lon="8.27846048803181"><ele>152.66666666666669</ele><time>2026-05-03T13:22:22.999Z</time></trkpt><trkpt lat="44.780490951737455" lon="8.278487761646302"><ele>154.33333333333334</ele><time>2026-05-03T13:22:23.999Z</time></trkpt><trkpt lat="44.780646729173846" lon="8.278506596385864"><ele>156.0</ele><time>2026-05-03T13:22:24.999Z</time></trkpt><trkpt lat="44.78078877908914" lon="8.278518928052208"><ele>156.0</ele><time>2026-05-03T13:22:25.999Z</time></trkpt><trkpt lat="44.78092201949398" lon="8.278517042469517"><ele>156.0</ele><time>2026-05-03T13:22:26.999Z</time></trkpt><trkpt lat="44.781042315934975" lon="8.27848602534657"><ele>156.0</ele><time>2026-05-03T13:22:27.999Z</time></trkpt><trkpt lat="44.78114923505691" lon="8.278414610742633"><ele>156.0</ele><time>2026-05-03T13:22:28.999Z</time></trkpt><trkpt lat="44.78125446708109" lon="8.278307944312395"><ele>158.0</ele><time>2026-05-03T13:22:29.999Z</time></trkpt><trkpt lat="44.78133074797074" lon="8.278149907486"><ele>160.0</ele><time>2026-05-03T13:22:30.999Z</time></trkpt><trkpt lat="44.781381381198486" lon="8.277976960093438"><ele>162.0</ele><time>2026-05-03T13:22:31.999Z</time></trkpt><trkpt lat="44.78143074039699" lon="8.277812940622777"><ele>164.0</ele><time>2026-05-03T13:22:32.999Z</time></trkpt><trkpt lat="44.7815038036153" lon="8.27767419209539"><ele>164.0</ele><time>2026-05-03T13:22:33.999Z</time></trkpt><trkpt lat="44.78159546115493" lon="8.277571756076545"><ele>164.0</ele><time>2026-05-03T13:22:34.999Z</time></trkpt><trkpt lat="44.781689112258775" lon="8.277504586133524"><ele>164.0</ele><time>2026-05-03T13:22:35.999Z</time></trkpt><trkpt lat="44.78180129720109" lon="8.277514800308035"><ele>164.0</ele><time>2026-05-03T13:22:36.999Z</time></trkpt><trkpt lat="44.78190482272631" lon="8.277569104157115"><ele>164.0</ele><time>2026-05-03T13:22:37.999Z</time></trkpt><trkpt lat="44.78199066418298" lon="8.27768627147958"><ele>163.0</ele><time>2026-05-03T13:22:38.999Z</time></trkpt><trkpt lat="44.782069245712584" lon="8.277828327598918"><ele>162.0</ele><time>2026-05-03T13:22:39.999Z</time></trkpt><trkpt lat="44.782154548943254" lon="8.277976698656625"><ele>161.0</ele><time>2026-05-03T13:22:40.999Z</time></trkpt><trkpt lat="44.782253050075646" lon="8.27812718986637"><ele>160.0</ele><time>2026-05-03T13:22:41.999Z</time></trkpt><trkpt lat="44.78236254345328" lon="8.278309968142763"><ele>160.0</ele><time>2026-05-03T13:22:42.999Z</time></trkpt><trkpt lat="44.78247404087569" lon="8.278490066945459"><ele>160.0</ele><time>2026-05-03T13:22:43.999Z</time></trkpt><trkpt lat="44.782581105087395" lon="8.278663741623989"><ele>160.0</ele><time>2026-05-03T13:22:44.999Z</time></trkpt><trkpt lat="44.782684581812774" lon="8.278842765482185"><ele>164.66666666666669</ele><time>2026-05-03T13:22:45.999Z</time></trkpt><trkpt lat="44.7827712543414" lon="8.279036806967211"><ele>169.33333333333334</ele><time>2026-05-03T13:22:46.999Z</time></trkpt><trkpt lat="44.78286805415708" lon="8.279239924094359"><ele>174.0</ele><time>2026-05-03T13:22:47.999Z</time></trkpt><trkpt lat="44.782963908789036" lon="8.279426768968186"><ele>174.0</ele><time>2026-05-03T13:22:48.999Z</time></trkpt><trkpt lat="44.78304201768026" lon="8.279624654810723"><ele>174.0</ele><time>2026-05-03T13:22:49.999Z</time></trkpt><trkpt lat="44.78312292034789" lon="8.279827445434986"><ele>174.0</ele><time>2026-05-03T13:22:50.999Z</time></trkpt><trkpt lat="44.7832155846877" lon="8.280038829047097"><ele>179.0</ele><time>2026-05-03T13:22:51.999Z</time></trkpt><trkpt lat="44.78329060096719" lon="8.280260865236643"><ele>184.0</ele><time>2026-05-03T13:22:52.999Z</time></trkpt><trkpt lat="44.7833606091084" lon="8.28049102317954"><ele>189.0</ele><time>2026-05-03T13:22:53.999Z</time></trkpt><trkpt lat="44.78341620410853" lon="8.280722093893756"><ele>191.33333333333331</ele><time>2026-05-03T13:22:54.999Z</time></trkpt><trkpt lat="44.78345918272408" lon="8.280952628025252"><ele>193.66666666666666</ele><time>2026-05-03T13:22:55.999Z</time></trkpt><trkpt lat="44.78349587238922" lon="8.281184512189398"><ele>196.0</ele><time>2026-05-03T13:22:56.999Z</time></trkpt><trkpt lat="44.783527325431784" lon="8.281414423395777"><ele>193.66666666666666</ele><time>2026-05-03T13:22:57.999Z</time></trkpt><trkpt lat="44.78355873217399" lon="8.281641754943319"><ele>191.33333333333331</ele><time>2026-05-03T13:22:58.999Z</time></trkpt><trkpt lat="44.783592757717685" lon="8.281845352612654"><ele>189.0</ele><time>2026-05-03T13:22:59.999Z</time></trkpt><trkpt lat="44.78363565262916" lon="8.282043480149476"><ele>189.0</ele><time>2026-05-03T13:23:00.999Z</time></trkpt><trkpt lat="44.783709250644705" lon="8.28223570932168"><ele>189.0</ele><time>2026-05-03T13:23:01.999Z</time></trkpt><trkpt lat="44.78380644644786" lon="8.282402203389763"><ele>189.0</ele><time>2026-05-03T13:23:02.999Z</time></trkpt><trkpt lat="44.78391655714955" lon="8.282544879866075"><ele>192.0</ele><time>2026-05-03T13:23:03.999Z</time></trkpt><trkpt lat="44.78404272910155" lon="8.282660181460756"><ele>195.0</ele><time>2026-05-03T13:23:04.999Z</time></trkpt><trkpt lat="44.78417491301868" lon="8.282779446659495"><ele>198.0</ele><time>2026-05-03T13:23:05.999Z</time></trkpt><trkpt lat="44.78428704902925" lon="8.282888100606838"><ele>201.0</ele><time>2026-05-03T13:23:06.999Z</time></trkpt><trkpt lat="44.78440425868034" lon="8.282991467704479"><ele>201.0</ele><time>2026-05-03T13:23:07.999Z</time></trkpt><trkpt lat="44.78453157074259" lon="8.283079023046291"><ele>201.0</ele><time>2026-05-03T13:23:08.999Z</time></trkpt><trkpt lat="44.784663177557725" lon="8.283149503301008"><ele>201.0</ele><time>2026-05-03T13:23:09.999Z</time></trkpt><trkpt lat="44.78479327122754" lon="8.283210198745483"><ele>201.0</ele><time>2026-05-03T13:23:10.999Z</time></trkpt><trkpt lat="44.78491992893653" lon="8.28325973144322"><ele>203.5</ele><time>2026-05-03T13:23:11.999Z</time></trkpt><trkpt lat="44.785062953139736" lon="8.283296709192973"><ele>206.0</ele><time>2026-05-03T13:23:12.999Z</time></trkpt><trkpt lat="44.78517797046567" lon="8.283344487218287"><ele>208.5</ele><time>2026-05-03T13:23:14Z</time></trkpt><trkpt lat="44.78528566224619" lon="8.283380936688099"><ele>211.0</ele><time>2026-05-03T13:23:15Z</time></trkpt><trkpt lat="44.785402219303826" lon="8.28344003363874"><ele>212.20000000000002</ele><time>2026-05-03T13:23:16Z</time></trkpt><trkpt lat="44.78548218171791" lon="8.283469916712038"><ele>213.4</ele><time>2026-05-03T13:23:17Z</time></trkpt><trkpt lat="44.78558219162735" lon="8.283507291931922"><ele>214.6</ele><time>2026-05-03T13:23:18Z</time></trkpt><trkpt lat="44.78568402588918" lon="8.283545348905326"><ele>215.8</ele><time>2026-05-03T13:23:19Z</time></trkpt><trkpt lat="44.785803412759144" lon="8.283567276640799"><ele>217.0</ele><time>2026-05-03T13:23:20Z</time></trkpt><trkpt lat="44.78591296977171" lon="8.283633344562956"><ele>216.5</ele><time>2026-05-03T13:23:21Z</time></trkpt><trkpt lat="44.78602497203921" lon="8.283693456827155"><ele>216.0</ele><time>2026-05-03T13:23:22Z</time></trkpt><trkpt lat="44.78612949878782" lon="8.28375622582103"><ele>215.5</ele><time>2026-05-03T13:23:23Z</time></trkpt><trkpt lat="44.78622766888682" lon="8.283822619461198"><ele>215.0</ele><time>2026-05-03T13:23:24Z</time></trkpt><trkpt lat="44.78632559674479" lon="8.283897174371315"><ele>217.2</ele><time>2026-05-03T13:23:25Z</time></trkpt><trkpt lat="44.78641799634125" lon="8.283973874521822"><ele>219.4</ele><time>2026-05-03T13:23:26Z</time></trkpt><trkpt lat="44.78651123879786" lon="8.284049800844516"><ele>221.60000000000002</ele><time>2026-05-03T13:23:27Z</time></trkpt><trkpt lat="44.78658668643415" lon="8.28419015198629"><ele>223.8</ele><time>2026-05-03T13:23:29Z</time></trkpt><trkpt lat="44.78663355697828" lon="8.284265460536368"><ele>226.0</ele><time>2026-05-03T13:23:30Z</time></trkpt><trkpt lat="44.78669232064311" lon="8.28433143953386"><ele>226.0</ele><time>2026-05-03T13:23:31Z</time></trkpt><trkpt lat="44.78668243488667" lon="8.284492460576592"><ele>226.00000000000003</ele><time>2026-05-03T13:23:32Z</time></trkpt><trkpt lat="44.78666804772464" lon="8.284609519793841"><ele>226.00000000000003</ele><time>2026-05-03T13:23:33Z</time></trkpt><trkpt lat="44.78668093510177" lon="8.28473846287881"><ele>226.0</ele><time>2026-05-03T13:23:34Z</time></trkpt><trkpt lat="44.78675318774426" lon="8.284890743279748"><ele>226.0</ele><time>2026-05-03T13:23:35Z</time></trkpt><trkpt lat="44.786782228476426" lon="8.285037010206441"><ele>226.0</ele><time>2026-05-03T13:23:36Z</time></trkpt><trkpt lat="44.78681302597253" lon="8.285187406177876"><ele>226.0</ele><time>2026-05-03T13:23:37Z</time></trkpt><trkpt lat="44.78685883096733" lon="8.285347128137593"><ele>226.0</ele><time>2026-05-03T13:23:38Z</time></trkpt><trkpt lat="44.786896447847646" lon="8.285523786894812"><ele>226.0</ele><time>2026-05-03T13:23:39Z</time></trkpt><trkpt lat="44.78693925557771" lon="8.285708275353622"><ele>229.0</ele><time>2026-05-03T13:23:40Z</time></trkpt><trkpt lat="44.786989756317475" lon="8.285897643357547"><ele>232.0</ele><time>2026-05-03T13:23:41Z</time></trkpt><trkpt lat="44.78704116309925" lon="8.286057009342375"><ele>235.0</ele><time>2026-05-03T13:23:42Z</time></trkpt><trkpt lat="44.78708056704054" lon="8.286194609367145"><ele>238.0</ele><time>2026-05-03T13:23:43Z</time></trkpt><trkpt lat="44.787122676467554" lon="8.28633547215003"><ele>234.25</ele><time>2026-05-03T13:23:44Z</time></trkpt><trkpt lat="44.78714682855878" lon="8.286479864834984"><ele>230.5</ele><time>2026-05-03T13:23:45Z</time></trkpt><trkpt lat="44.787183405835734" lon="8.286640109202496"><ele>226.75</ele><time>2026-05-03T13:23:46Z</time></trkpt><trkpt lat="44.78721815920244" lon="8.286830328742589"><ele>223.0</ele><time>2026-05-03T13:23:47Z</time></trkpt><trkpt lat="44.78728144965432" lon="8.287020374213224"><ele>223.0</ele><time>2026-05-03T13:23:48Z</time></trkpt><trkpt lat="44.78738958691958" lon="8.28723068577103"><ele>223.0</ele><time>2026-05-03T13:23:49Z</time></trkpt><trkpt lat="44.78751320295407" lon="8.287372255630862"><ele>223.0</ele><time>2026-05-03T13:23:50Z</time></trkpt><trkpt lat="44.78763395060476" lon="8.287517073719618"><ele>220.0</ele><time>2026-05-03T13:23:51Z</time></trkpt><trkpt lat="44.78779149046193" lon="8.287648089851858"><ele>217.0</ele><time>2026-05-03T13:23:52Z</time></trkpt><trkpt lat="44.78794368931779" lon="8.287752059692819"><ele>214.0</ele><time>2026-05-03T13:23:53Z</time></trkpt><trkpt lat="44.78808178057194" lon="8.287860134629053"><ele>214.0</ele><time>2026-05-03T13:23:54Z</time></trkpt><trkpt lat="44.78821124005096" lon="8.288013973446926"><ele>214.0</ele><time>2026-05-03T13:23:55Z</time></trkpt><trkpt lat="44.78835818119619" lon="8.288156078915975"><ele>214.0</ele><time>2026-05-03T13:23:56Z</time></trkpt><trkpt lat="44.78851075921686" lon="8.28828749565625"><ele>209.66666666666666</ele><time>2026-05-03T13:23:57Z</time></trkpt><trkpt lat="44.788663448866075" lon="8.28839683040396"><ele>205.33333333333331</ele><time>2026-05-03T13:23:58Z</time></trkpt><trkpt lat="44.7888354203118" lon="8.28848306234067"><ele>201.0</ele><time>2026-05-03T13:23:59Z</time></trkpt><trkpt lat="44.78898794544844" lon="8.288520141025277"><ele>201.0</ele><time>2026-05-03T13:24:00Z</time></trkpt><trkpt lat="44.78915232161259" lon="8.288594350149134"><ele>201.0</ele><time>2026-05-03T13:24:01Z</time></trkpt><trkpt lat="44.78929644524815" lon="8.28866957746452"><ele>201.0</ele><time>2026-05-03T13:24:02Z</time></trkpt><trkpt lat="44.78943845211776" lon="8.288783810173182"><ele>196.0</ele><time>2026-05-03T13:24:03Z</time></trkpt><trkpt lat="44.789566668707145" lon="8.288938643099181"><ele>191.0</ele><time>2026-05-03T13:24:04Z</time></trkpt><trkpt lat="44.789691968441765" lon="8.289150182786093"><ele>186.0</ele><time>2026-05-03T13:24:05Z</time></trkpt><trkpt lat="44.78981050826459" lon="8.289335026451877"><ele>186.0</ele><time>2026-05-03T13:24:06Z</time></trkpt><trkpt lat="44.789958033021335" lon="8.289520846112858"><ele>186.0</ele><time>2026-05-03T13:24:07Z</time></trkpt><trkpt lat="44.79010895825301" lon="8.28970639952881"><ele>186.0</ele><time>2026-05-03T13:24:08Z</time></trkpt><trkpt lat="44.79027678850772" lon="8.289893637592298"><ele>187.33333333333334</ele><time>2026-05-03T13:24:09Z</time></trkpt><trkpt lat="44.7904510415116" lon="8.290042641043295"><ele>188.66666666666669</ele><time>2026-05-03T13:24:10Z</time></trkpt><trkpt lat="44.79063342369375" lon="8.290188041933606"><ele>190.0</ele><time>2026-05-03T13:24:11Z</time></trkpt><trkpt lat="44.790795187989644" lon="8.29036766747656"><ele>190.0</ele><time>2026-05-03T13:24:12Z</time></trkpt><trkpt lat="44.79096171073004" lon="8.290544121074687"><ele>190.0</ele><time>2026-05-03T13:24:13Z</time></trkpt><trkpt lat="44.79111489623334" lon="8.290711332788286"><ele>190.0</ele><time>2026-05-03T13:24:14Z</time></trkpt><trkpt lat="44.79126456315095" lon="8.290878127395384"><ele>189.33333333333334</ele><time>2026-05-03T13:24:15Z</time></trkpt><trkpt lat="44.79138156376386" lon="8.291058199764299"><ele>188.66666666666666</ele><time>2026-05-03T13:24:16Z</time></trkpt><trkpt lat="44.791535935995825" lon="8.291231411595604"><ele>188.0</ele><time>2026-05-03T13:24:17Z</time></trkpt><trkpt lat="44.791713854803334" lon="8.291392651243155"><ele>184.33333333333331</ele><time>2026-05-03T13:24:18Z</time></trkpt><trkpt lat="44.7919036428152" lon="8.291535621706021"><ele>180.66666666666666</ele><time>2026-05-03T13:24:19Z</time></trkpt><trkpt lat="44.79209907029311" lon="8.291670816893838"><ele>177.0</ele><time>2026-05-03T13:24:20Z</time></trkpt><trkpt lat="44.792296759756105" lon="8.291802059026587"><ele>177.0</ele><time>2026-05-03T13:24:21Z</time></trkpt><trkpt lat="44.79248466229552" lon="8.291935524327863"><ele>177.0</ele><time>2026-05-03T13:24:22Z</time></trkpt><trkpt lat="44.792653538930935" lon="8.292079028025592"><ele>177.0</ele><time>2026-05-03T13:24:23Z</time></trkpt><trkpt lat="44.79285713245451" lon="8.292213982222535"><ele>176.66666666666666</ele><time>2026-05-03T13:24:24Z</time></trkpt><trkpt lat="44.793049836872626" lon="8.292344160596286"><ele>176.33333333333331</ele><time>2026-05-03T13:24:25Z</time></trkpt><trkpt lat="44.79323655002986" lon="8.292461706593224"><ele>176.0</ele><time>2026-05-03T13:24:26Z</time></trkpt><trkpt lat="44.79343031041386" lon="8.2925631685457"><ele>177.0</ele><time>2026-05-03T13:24:27Z</time></trkpt><trkpt lat="44.79362447958716" lon="8.292655755776119"><ele>178.0</ele><time>2026-05-03T13:24:28Z</time></trkpt><trkpt lat="44.79381411973818" lon="8.29274098498976"><ele>179.0</ele><time>2026-05-03T13:24:29Z</time></trkpt><trkpt lat="44.79399996849323" lon="8.292843589818656"><ele>179.0</ele><time>2026-05-03T13:24:30Z</time></trkpt><trkpt lat="44.794179928888255" lon="8.29295037123328"><ele>179.0</ele><time>2026-05-03T13:24:31Z</time></trkpt><trkpt lat="44.79435050649753" lon="8.293071241802878"><ele>179.0</ele><time>2026-05-03T13:24:32Z</time></trkpt><trkpt lat="44.79452663564359" lon="8.293189154257188"><ele>178.0</ele><time>2026-05-03T13:24:33Z</time></trkpt><trkpt lat="44.79471250727435" lon="8.293289392299926"><ele>177.0</ele><time>2026-05-03T13:24:34Z</time></trkpt><trkpt lat="44.79490449525599" lon="8.293381313070146"><ele>176.0</ele><time>2026-05-03T13:24:35Z</time></trkpt><trkpt lat="44.795098177579874" lon="8.293477789553675"><ele>178.0</ele><time>2026-05-03T13:24:36Z</time></trkpt><trkpt lat="44.79528645417283" lon="8.293560011539698"><ele>180.0</ele><time>2026-05-03T13:24:37Z</time></trkpt><trkpt lat="44.79546721896614" lon="8.293631429048705"><ele>182.0</ele><time>2026-05-03T13:24:38Z</time></trkpt><trkpt lat="44.79565806252845" lon="8.293687141058877"><ele>182.0</ele><time>2026-05-03T13:24:39Z</time></trkpt><trkpt lat="44.795856959199845" lon="8.293718822599983"><ele>182.0</ele><time>2026-05-03T13:24:40Z</time></trkpt><trkpt lat="44.796063408757256" lon="8.29376078175228"><ele>182.0</ele><time>2026-05-03T13:24:41Z</time></trkpt><trkpt lat="44.79625974931149" lon="8.29378174055012"><ele>180.66666666666666</ele><time>2026-05-03T13:24:42Z</time></trkpt><trkpt lat="44.796470511893055" lon="8.293805989492846"><ele>179.33333333333334</ele><time>2026-05-03T13:24:43Z</time></trkpt><trkpt lat="44.79669699751646" lon="8.293835149401852"><ele>178.0</ele><time>2026-05-03T13:24:43.999Z</time></trkpt><trkpt lat="44.79687651684289" lon="8.293861063500207"><ele>174.66666666666669</ele><time>2026-05-03T13:24:44.999Z</time></trkpt><trkpt lat="44.79705148207315" lon="8.293854521937543"><ele>171.33333333333334</ele><time>2026-05-03T13:24:45.999Z</time></trkpt><trkpt lat="44.79724871706273" lon="8.293856831741106"><ele>168.0</ele><time>2026-05-03T13:24:46.999Z</time></trkpt><trkpt lat="44.797441526353936" lon="8.293889518380883"><ele>167.66666666666666</ele><time>2026-05-03T13:24:47.999Z</time></trkpt><trkpt lat="44.79762593973368" lon="8.293977528023518"><ele>167.33333333333331</ele><time>2026-05-03T13:24:48.999Z</time></trkpt><trkpt lat="44.79778768273627" lon="8.294074591292585"><ele>167.0</ele><time>2026-05-03T13:24:49.999Z</time></trkpt><trkpt lat="44.79794657809075" lon="8.294195442321984"><ele>167.0</ele><time>2026-05-03T13:24:50.999Z</time></trkpt><trkpt lat="44.79810334432736" lon="8.294301286607086"><ele>167.0</ele><time>2026-05-03T13:24:51.999Z</time></trkpt><trkpt lat="44.79822527002305" lon="8.294444652213269"><ele>167.0</ele><time>2026-05-03T13:24:52.999Z</time></trkpt><trkpt lat="44.79834906911267" lon="8.294634650869119"><ele>166.33333333333331</ele><time>2026-05-03T13:24:53.999Z</time></trkpt><trkpt lat="44.79846429592964" lon="8.294779417365215"><ele>165.66666666666666</ele><time>2026-05-03T13:24:54.999Z</time></trkpt><trkpt lat="44.79859518672891" lon="8.294884169781726"><ele>165.0</ele><time>2026-05-03T13:24:55.999Z</time></trkpt><trkpt lat="44.79873410836478" lon="8.29495062516107"><ele>164.66666666666666</ele><time>2026-05-03T13:24:56.999Z</time></trkpt><trkpt lat="44.798888651848046" lon="8.294962890953427"><ele>164.33333333333331</ele><time>2026-05-03T13:24:57.999Z</time></trkpt><trkpt lat="44.799057118380915" lon="8.294941403258738"><ele>164.0</ele><time>2026-05-03T13:24:58.999Z</time></trkpt><trkpt lat="44.799224332733424" lon="8.294936002158268"><ele>165.33333333333331</ele><time>2026-05-03T13:24:59.999Z</time></trkpt><trkpt lat="44.7993984494687" lon="8.294932988204012"><ele>166.66666666666666</ele><time>2026-05-03T13:25:00.999Z</time></trkpt><trkpt lat="44.799576389594705" lon="8.294951923165273"><ele>168.0</ele><time>2026-05-03T13:25:01.999Z</time></trkpt><trkpt lat="44.79974394348971" lon="8.295010281172047"><ele>168.0</ele><time>2026-05-03T13:25:02.999Z</time></trkpt><trkpt lat="44.79990681014168" lon="8.295089457743408"><ele>168.0</ele><time>2026-05-03T13:25:03.999Z</time></trkpt><trkpt lat="44.800081293344604" lon="8.295171155740944"><ele>168.0</ele><time>2026-05-03T13:25:04.999Z</time></trkpt><trkpt lat="44.80020908764833" lon="8.295271526983734"><ele>166.33333333333334</ele><time>2026-05-03T13:25:05.999Z</time></trkpt><trkpt lat="44.800367641210904" lon="8.295379332969572"><ele>164.66666666666669</ele><time>2026-05-03T13:25:06.999Z</time></trkpt><trkpt lat="44.80052721899845" lon="8.295495700855994"><ele>163.0</ele><time>2026-05-03T13:25:07.999Z</time></trkpt><trkpt lat="44.800706564346996" lon="8.295587409357692"><ele>162.0</ele><time>2026-05-03T13:25:08.999Z</time></trkpt><trkpt lat="44.80089213077139" lon="8.295675996424615"><ele>161.0</ele><time>2026-05-03T13:25:09.999Z</time></trkpt><trkpt lat="44.80107631336314" lon="8.295762017570324"><ele>160.0</ele><time>2026-05-03T13:25:10.999Z</time></trkpt><trkpt lat="44.80128000470281" lon="8.295872566062856"><ele>160.0</ele><time>2026-05-03T13:25:11.999Z</time></trkpt><trkpt lat="44.801479592478145" lon="8.2959518557034"><ele>160.0</ele><time>2026-05-03T13:25:12.999Z</time></trkpt><trkpt lat="44.80164986255394" lon="8.296057055038872"><ele>160.0</ele><time>2026-05-03T13:25:13.999Z</time></trkpt><trkpt lat="44.80185217083136" lon="8.296151439839903"><ele>161.66666666666669</ele><time>2026-05-03T13:25:14.999Z</time></trkpt><trkpt lat="44.80204796413999" lon="8.296261604531521"><ele>163.33333333333334</ele><time>2026-05-03T13:25:15.999Z</time></trkpt><trkpt lat="44.80224257357068" lon="8.296357127155073"><ele>165.0</ele><time>2026-05-03T13:25:16.999Z</time></trkpt><trkpt lat="44.80243071576458" lon="8.296451452151492"><ele>163.0</ele><time>2026-05-03T13:25:17.999Z</time></trkpt><trkpt lat="44.80262966434281" lon="8.296552631976088"><ele>161.0</ele><time>2026-05-03T13:25:18.999Z</time></trkpt><trkpt lat="44.802830763767695" lon="8.296660415396088"><ele>159.0</ele><time>2026-05-03T13:25:20Z</time></trkpt><trkpt lat="44.80301577341118" lon="8.296746983648383"><ele>159.0</ele><time>2026-05-03T13:25:21Z</time></trkpt><trkpt lat="44.803187219449484" lon="8.296858984128395"><ele>159.0</ele><time>2026-05-03T13:25:22Z</time></trkpt><trkpt lat="44.80336907727499" lon="8.296930397550586"><ele>159.0</ele><time>2026-05-03T13:25:23Z</time></trkpt><trkpt lat="44.80353477903198" lon="8.297029665337075"><ele>158.0</ele><time>2026-05-03T13:25:24Z</time></trkpt><trkpt lat="44.80371091462333" lon="8.297036144687365"><ele>157.0</ele><time>2026-05-03T13:25:25Z</time></trkpt><trkpt lat="44.803901339578374" lon="8.297030118787966"><ele>156.0</ele><time>2026-05-03T13:25:26Z</time></trkpt><trkpt lat="44.80408736269709" lon="8.296955981921899"><ele>156.0</ele><time>2026-05-03T13:25:27Z</time></trkpt><trkpt lat="44.80426780767613" lon="8.296847893880896"><ele>156.0</ele><time>2026-05-03T13:25:28Z</time></trkpt><trkpt lat="44.804460406192995" lon="8.296722175528856"><ele>156.0</ele><time>2026-05-03T13:25:29Z</time></trkpt><trkpt lat="44.80464119629864" lon="8.296601639102104"><ele>155.66666666666666</ele><time>2026-05-03T13:25:30Z</time></trkpt><trkpt lat="44.80482077061079" lon="8.296480982572499"><ele>155.33333333333331</ele><time>2026-05-03T13:25:31Z</time></trkpt><trkpt lat="44.80502319950079" lon="8.296344969952308"><ele>155.0</ele><time>2026-05-03T13:25:32Z</time></trkpt><trkpt lat="44.80523608757132" lon="8.296201929774979"><ele>155.0</ele><time>2026-05-03T13:25:33Z</time></trkpt><trkpt lat="44.80544390936331" lon="8.296064970948123"><ele>155.0</ele><time>2026-05-03T13:25:34Z</time></trkpt><trkpt lat="44.805644987912224" lon="8.295936481851802"><ele>155.0</ele><time>2026-05-03T13:25:35Z</time></trkpt><trkpt lat="44.80585807926415" lon="8.295801993928665"><ele>155.0</ele><time>2026-05-03T13:25:36Z</time></trkpt><trkpt lat="44.80605672992451" lon="8.295684911964386"><ele>155.0</ele><time>2026-05-03T13:25:37Z</time></trkpt><trkpt lat="44.806270628217064" lon="8.295584915179374"><ele>155.33333333333331</ele><time>2026-05-03T13:25:38Z</time></trkpt><trkpt lat="44.80645409121031" lon="8.295521079247377"><ele>155.66666666666666</ele><time>2026-05-03T13:25:39Z</time></trkpt><trkpt lat="44.80664980502549" lon="8.295486242319518"><ele>156.0</ele><time>2026-05-03T13:25:40Z</time></trkpt><trkpt lat="44.80683889026631" lon="8.29548035779792"><ele>155.0</ele><time>2026-05-03T13:25:41Z</time></trkpt><trkpt lat="44.80703628016337" lon="8.29546831221569"><ele>154.0</ele><time>2026-05-03T13:25:42Z</time></trkpt><trkpt lat="44.807239486960626" lon="8.295532030133757"><ele>153.0</ele><time>2026-05-03T13:25:43Z</time></trkpt><trkpt lat="44.80743658881513" lon="8.295589940553445"><ele>153.0</ele><time>2026-05-03T13:25:44Z</time></trkpt><trkpt lat="44.807627864012055" lon="8.295691766036553"><ele>153.0</ele><time>2026-05-03T13:25:45Z</time></trkpt><trkpt lat="44.807818797015145" lon="8.295794169908794"><ele>153.0</ele><time>2026-05-03T13:25:46Z</time></trkpt><trkpt lat="44.808017624722616" lon="8.295897427472392"><ele>154.0</ele><time>2026-05-03T13:25:47Z</time></trkpt><trkpt lat="44.80821696272402" lon="8.295998265216895"><ele>155.0</ele><time>2026-05-03T13:25:48Z</time></trkpt><trkpt lat="44.808409687749844" lon="8.29609843140972"><ele>156.0</ele><time>2026-05-03T13:25:49Z</time></trkpt><trkpt lat="44.808606915202745" lon="8.296199339284971"><ele>156.66666666666666</ele><time>2026-05-03T13:25:50Z</time></trkpt><trkpt lat="44.80878624075749" lon="8.296291916434129"><ele>157.33333333333331</ele><time>2026-05-03T13:25:51Z</time></trkpt><trkpt lat="44.808948342394764" lon="8.296400287573695"><ele>158.0</ele><time>2026-05-03T13:25:52Z</time></trkpt><trkpt lat="44.80910369046599" lon="8.296483636808277"><ele>156.33333333333331</ele><time>2026-05-03T13:25:53Z</time></trkpt><trkpt lat="44.80923545603669" lon="8.296621697278086"><ele>154.66666666666666</ele><time>2026-05-03T13:25:54Z</time></trkpt><trkpt lat="44.80936215717896" lon="8.296783478264459"><ele>153.0</ele><time>2026-05-03T13:25:55Z</time></trkpt><trkpt lat="44.80947806845377" lon="8.29695927150572"><ele>153.0</ele><time>2026-05-03T13:25:56Z</time></trkpt><trkpt lat="44.80959115963172" lon="8.297103015508169"><ele>153.0</ele><time>2026-05-03T13:25:57Z</time></trkpt><trkpt lat="44.80972989086476" lon="8.297223197890029"><ele>153.0</ele><time>2026-05-03T13:25:58Z</time></trkpt><trkpt lat="44.80989516578472" lon="8.297295255608438"><ele>153.0</ele><time>2026-05-03T13:25:59Z</time></trkpt><trkpt lat="44.81006888333665" lon="8.297364426907743"><ele>153.0</ele><time>2026-05-03T13:26:00Z</time></trkpt><trkpt lat="44.81023869242869" lon="8.297459523281578"><ele>153.0</ele><time>2026-05-03T13:26:01Z</time></trkpt><trkpt lat="44.81040782714951" lon="8.297562010794854"><ele>153.0</ele><time>2026-05-03T13:26:02Z</time></trkpt><trkpt lat="44.810582259199" lon="8.297660887149167"><ele>153.0</ele><time>2026-05-03T13:26:03Z</time></trkpt><trkpt lat="44.81074664185544" lon="8.297765566282212"><ele>153.0</ele><time>2026-05-03T13:26:04Z</time></trkpt><trkpt lat="44.81092110640581" lon="8.297872986353996"><ele>152.33333333333334</ele><time>2026-05-03T13:26:05Z</time></trkpt><trkpt lat="44.81112517432041" lon="8.298017649152627"><ele>151.66666666666669</ele><time>2026-05-03T13:26:06Z</time></trkpt><trkpt lat="44.81130049729468" lon="8.29814195945286"><ele>151.0</ele><time>2026-05-03T13:26:07Z</time></trkpt><trkpt lat="44.811481612992644" lon="8.29827605687281"><ele>151.0</ele><time>2026-05-03T13:26:08Z</time></trkpt><trkpt lat="44.81165341860873" lon="8.29839207007645"><ele>151.0</ele><time>2026-05-03T13:26:09Z</time></trkpt><trkpt lat="44.81181916984888" lon="8.298474255315925"><ele>151.0</ele><time>2026-05-03T13:26:10Z</time></trkpt><trkpt lat="44.811982457439385" lon="8.29854091969657"><ele>151.0</ele><time>2026-05-03T13:26:11Z</time></trkpt><trkpt lat="44.81213680468984" lon="8.298622530603746"><ele>151.0</ele><time>2026-05-03T13:26:12Z</time></trkpt><trkpt lat="44.8122843423002" lon="8.29867358613508"><ele>151.0</ele><time>2026-05-03T13:26:13Z</time></trkpt><trkpt lat="44.81242561720821" lon="8.298715385168723"><ele>151.0</ele><time>2026-05-03T13:26:14Z</time></trkpt><trkpt lat="44.812537741183164" lon="8.298750500926378"><ele>151.0</ele><time>2026-05-03T13:26:15Z</time></trkpt><trkpt lat="44.81263188839319" lon="8.298781330788612"><ele>151.0</ele><time>2026-05-03T13:26:16Z</time></trkpt><trkpt lat="44.81270419548741" lon="8.298838425884828"><ele>151.0</ele><time>2026-05-03T13:26:17Z</time></trkpt><trkpt lat="44.81276523314337" lon="8.298895523890403"><ele>151.0</ele><time>2026-05-03T13:26:18Z</time></trkpt><trkpt lat="44.812830853271514" lon="8.298991918548499"><ele>150.75</ele><time>2026-05-03T13:26:20Z</time></trkpt><trkpt lat="44.81276574314805" lon="8.299276453106826"><ele>150.5</ele><time>2026-05-03T13:26:22Z</time></trkpt><trkpt lat="44.812738584744494" lon="8.299410836793307"><ele>150.25</ele><time>2026-05-03T13:26:23Z</time></trkpt><trkpt lat="44.81269393372816" lon="8.299579083596008"><ele>150.0</ele><time>2026-05-03T13:26:24Z</time></trkpt><trkpt lat="44.81264790254226" lon="8.299756675654677"><ele>150.0</ele><time>2026-05-03T13:26:25Z</time></trkpt><trkpt lat="44.8125919983732" lon="8.299962190762024"><ele>150.0</ele><time>2026-05-03T13:26:26Z</time></trkpt><trkpt lat="44.812533498744656" lon="8.300168138551944"><ele>150.0</ele><time>2026-05-03T13:26:27Z</time></trkpt><trkpt lat="44.8124589060107" lon="8.300361178868947"><ele>150.0</ele><time>2026-05-03T13:26:28Z</time></trkpt><trkpt lat="44.81237236435944" lon="8.3005426912782"><ele>150.0</ele><time>2026-05-03T13:26:29Z</time></trkpt><trkpt lat="44.812304392720314" lon="8.300723211955017"><ele>150.0</ele><time>2026-05-03T13:26:30Z</time></trkpt><trkpt lat="44.81227060729833" lon="8.300924749618584"><ele>150.0</ele><time>2026-05-03T13:26:31Z</time></trkpt><trkpt lat="44.812281358969244" lon="8.30114816481471"><ele>150.0</ele><time>2026-05-03T13:26:32Z</time></trkpt><trkpt lat="44.812316415880076" lon="8.301369268847793"><ele>150.0</ele><time>2026-05-03T13:26:33Z</time></trkpt><trkpt lat="44.81234907440635" lon="8.301563580848285"><ele>150.0</ele><time>2026-05-03T13:26:34Z</time></trkpt><trkpt lat="44.8123697528151" lon="8.301747795329572"><ele>150.0</ele><time>2026-05-03T13:26:35Z</time></trkpt><trkpt lat="44.81236634973729" lon="8.3019358215037"><ele>150.75</ele><time>2026-05-03T13:26:36Z</time></trkpt><trkpt lat="44.812327495493555" lon="8.30212737467137"><ele>151.5</ele><time>2026-05-03T13:26:37Z</time></trkpt><trkpt lat="44.812247723273586" lon="8.302301272724216"><ele>152.25</ele><time>2026-05-03T13:26:38Z</time></trkpt><trkpt lat="44.812187463056816" lon="8.302494881757593"><ele>153.0</ele><time>2026-05-03T13:26:39Z</time></trkpt><trkpt lat="44.812175754966844" lon="8.302721354829389"><ele>153.66666666666666</ele><time>2026-05-03T13:26:40Z</time></trkpt><trkpt lat="44.812215719387176" lon="8.302962926322438"><ele>154.33333333333331</ele><time>2026-05-03T13:26:41Z</time></trkpt><trkpt lat="44.81225459343695" lon="8.30319565224811"><ele>155.0</ele><time>2026-05-03T13:26:42Z</time></trkpt><trkpt lat="44.812275881675404" lon="8.303418080216685"><ele>157.0</ele><time>2026-05-03T13:26:43Z</time></trkpt><trkpt lat="44.81226419133754" lon="8.303637855431429"><ele>159.0</ele><time>2026-05-03T13:26:44Z</time></trkpt><trkpt lat="44.81225950735841" lon="8.303843991594581"><ele>161.0</ele><time>2026-05-03T13:26:45Z</time></trkpt><trkpt lat="44.81228724566708" lon="8.304062370225934"><ele>163.5</ele><time>2026-05-03T13:26:46Z</time></trkpt><trkpt lat="44.81233148764548" lon="8.304261114266035"><ele>166.0</ele><time>2026-05-03T13:26:47Z</time></trkpt><trkpt lat="44.81238494568406" lon="8.30444205909807"><ele>168.5</ele><time>2026-05-03T13:26:48Z</time></trkpt><trkpt lat="44.8124518001434" lon="8.304591668937082"><ele>171.0</ele><time>2026-05-03T13:26:49Z</time></trkpt><trkpt lat="44.81253459435939" lon="8.304707982995449"><ele>174.8</ele><time>2026-05-03T13:26:49.999Z</time></trkpt><trkpt lat="44.81258893552438" lon="8.304794855088504"><ele>178.60000000000002</ele><time>2026-05-03T13:26:50.999Z</time></trkpt><trkpt lat="44.81260611834028" lon="8.304910970737787"><ele>182.4</ele><time>2026-05-03T13:26:52.999Z</time></trkpt><trkpt lat="44.81250846859663" lon="8.30496475019057"><ele>186.2</ele><time>2026-05-03T13:26:53.999Z</time></trkpt><trkpt lat="44.81242999827106" lon="8.304914196450266"><ele>190.0</ele><time>2026-05-03T13:26:54.999Z</time></trkpt><trkpt lat="44.81233315214734" lon="8.304802950807826"><ele>185.25</ele><time>2026-05-03T13:26:55.999Z</time></trkpt><trkpt lat="44.81224157998611" lon="8.304689891990423"><ele>180.5</ele><time>2026-05-03T13:26:56.999Z</time></trkpt><trkpt lat="44.81214741010061" lon="8.304535185806555"><ele>175.75</ele><time>2026-05-03T13:26:57.999Z</time></trkpt><trkpt lat="44.81206066868991" lon="8.304366210404897"><ele>171.0</ele><time>2026-05-03T13:26:58.999Z</time></trkpt><trkpt lat="44.81196697480768" lon="8.3041809589776"><ele>171.0</ele><time>2026-05-03T13:26:59.999Z</time></trkpt><trkpt lat="44.81188181831686" lon="8.304013355214451"><ele>171.0</ele><time>2026-05-03T13:27:00.999Z</time></trkpt><trkpt lat="44.81181291974358" lon="8.303866401560477"><ele>171.0</ele><time>2026-05-03T13:27:01.999Z</time></trkpt><trkpt lat="44.81175852325246" lon="8.303728593402296"><ele>171.0</ele><time>2026-05-03T13:27:02.999Z</time></trkpt><trkpt lat="44.81167651438321" lon="8.30362330565491"><ele>174.20000000000002</ele><time>2026-05-03T13:27:03.999Z</time></trkpt><trkpt lat="44.81158920334917" lon="8.30354739306328"><ele>177.4</ele><time>2026-05-03T13:27:04.999Z</time></trkpt><trkpt lat="44.81149290591513" lon="8.303552819562434"><ele>180.6</ele><time>2026-05-03T13:27:05.999Z</time></trkpt><trkpt lat="44.81140387079619" lon="8.303626782472893"><ele>183.8</ele><time>2026-05-03T13:27:06.999Z</time></trkpt><trkpt lat="44.81129790640502" lon="8.303719361305614"><ele>187.0</ele><time>2026-05-03T13:27:07.999Z</time></trkpt><trkpt lat="44.811197247484024" lon="8.303862947671403"><ele>190.25</ele><time>2026-05-03T13:27:08.999Z</time></trkpt><trkpt lat="44.811104308577775" lon="8.304035316725082"><ele>193.5</ele><time>2026-05-03T13:27:09.999Z</time></trkpt><trkpt lat="44.811023778311544" lon="8.304186956140525"><ele>196.75</ele><time>2026-05-03T13:27:10.999Z</time></trkpt><trkpt lat="44.810928444087" lon="8.304326015363687"><ele>200.0</ele><time>2026-05-03T13:27:11.999Z</time></trkpt><trkpt lat="44.81083878345227" lon="8.304438565653953"><ele>200.0</ele><time>2026-05-03T13:27:12.999Z</time></trkpt><trkpt lat="44.81074098895122" lon="8.304556515742583"><ele>200.0</ele><time>2026-05-03T13:27:13.999Z</time></trkpt><trkpt lat="44.810628807328186" lon="8.304640629942167"><ele>200.0</ele><time>2026-05-03T13:27:14.999Z</time></trkpt><trkpt lat="44.81050518376797" lon="8.304713114914783"><ele>200.0</ele><time>2026-05-03T13:27:15.999Z</time></trkpt><trkpt lat="44.81039329705931" lon="8.304804496072784"><ele>203.5</ele><time>2026-05-03T13:27:16.999Z</time></trkpt><trkpt lat="44.810271547401754" lon="8.304869382536172"><ele>207.0</ele><time>2026-05-03T13:27:17.999Z</time></trkpt><trkpt lat="44.810135587960644" lon="8.304954021831023"><ele>210.5</ele><time>2026-05-03T13:27:18.999Z</time></trkpt><trkpt lat="44.80999881510267" lon="8.30502167828439"><ele>214.0</ele><time>2026-05-03T13:27:19.999Z</time></trkpt><trkpt lat="44.809873812442156" lon="8.305130484582499"><ele>214.0</ele><time>2026-05-03T13:27:20.999Z</time></trkpt><trkpt lat="44.80975827542979" lon="8.305249123960374"><ele>214.0</ele><time>2026-05-03T13:27:21.999Z</time></trkpt><trkpt lat="44.80966238864459" lon="8.305348493797181"><ele>214.0</ele><time>2026-05-03T13:27:22.999Z</time></trkpt><trkpt lat="44.80955061909673" lon="8.305445110624015"><ele>214.0</ele><time>2026-05-03T13:27:23.999Z</time></trkpt><trkpt lat="44.80943112934364" lon="8.305571207112502"><ele>216.66666666666666</ele><time>2026-05-03T13:27:24.999Z</time></trkpt><trkpt lat="44.809291096669575" lon="8.30567705379044"><ele>219.33333333333331</ele><time>2026-05-03T13:27:26Z</time></trkpt><trkpt lat="44.8091394958528" lon="8.305759056391889"><ele>222.0</ele><time>2026-05-03T13:27:27Z</time></trkpt><trkpt lat="44.809004604856696" lon="8.305832870244513"><ele>222.0</ele><time>2026-05-03T13:27:28Z</time></trkpt><trkpt lat="44.808899358762545" lon="8.305921828364555"><ele>222.0</ele><time>2026-05-03T13:27:29Z</time></trkpt><trkpt lat="44.80882481390382" lon="8.306005509278181"><ele>222.0</ele><time>2026-05-03T13:27:30Z</time></trkpt><trkpt lat="44.80880480390654" lon="8.306146203510604"><ele>222.0</ele><time>2026-05-03T13:27:31Z</time></trkpt><trkpt lat="44.80888099457302" lon="8.30629508648303"><ele>223.25</ele><time>2026-05-03T13:27:32Z</time></trkpt><trkpt lat="44.808955229285736" lon="8.306411621141272"><ele>224.5</ele><time>2026-05-03T13:27:33Z</time></trkpt><trkpt lat="44.809067674411054" lon="8.306569758317536"><ele>225.75</ele><time>2026-05-03T13:27:34Z</time></trkpt><trkpt lat="44.80915118352565" lon="8.306693081785738"><ele>227.0</ele><time>2026-05-03T13:27:35Z</time></trkpt><trkpt lat="44.80922402834254" lon="8.306813808230157"><ele>227.0</ele><time>2026-05-03T13:27:36Z</time></trkpt><trkpt lat="44.80926505704881" lon="8.306947417820831"><ele>227.0</ele><time>2026-05-03T13:27:37Z</time></trkpt><trkpt lat="44.809263773701936" lon="8.307099835350972"><ele>227.0</ele><time>2026-05-03T13:27:38Z</time></trkpt><trkpt lat="44.80922025373743" lon="8.307251247562071"><ele>227.0</ele><time>2026-05-03T13:27:39Z</time></trkpt><trkpt lat="44.80916105090082" lon="8.307417130382643"><ele>228.75</ele><time>2026-05-03T13:27:40Z</time></trkpt><trkpt lat="44.80910113344325" lon="8.307607920851495"><ele>230.5</ele><time>2026-05-03T13:27:41Z</time></trkpt><trkpt lat="44.80901524901659" lon="8.307756862083563"><ele>232.25</ele><time>2026-05-03T13:27:42Z</time></trkpt><trkpt lat="44.80890659050276" lon="8.307912768531896"><ele>234.0</ele><time>2026-05-03T13:27:43Z</time></trkpt><trkpt lat="44.808799653639845" lon="8.308050407936141"><ele>233.75</ele><time>2026-05-03T13:27:44Z</time></trkpt><trkpt lat="44.80869104484001" lon="8.308172418358847"><ele>233.5</ele><time>2026-05-03T13:27:45Z</time></trkpt><trkpt lat="44.80860246333628" lon="8.30833168048836"><ele>233.25</ele><time>2026-05-03T13:27:46Z</time></trkpt><trkpt lat="44.808552370471226" lon="8.308534814657433"><ele>233.0</ele><time>2026-05-03T13:27:47Z</time></trkpt><trkpt lat="44.80850539603096" lon="8.30872986932227"><ele>238.5</ele><time>2026-05-03T13:27:48Z</time></trkpt><trkpt lat="44.80847614496999" lon="8.30891635039198"><ele>244.0</ele><time>2026-05-03T13:27:49Z</time></trkpt><trkpt lat="44.80842461443268" lon="8.30907941745895"><ele>249.5</ele><time>2026-05-03T13:27:50Z</time></trkpt><trkpt lat="44.80838258660302" lon="8.309229196281283"><ele>255.0</ele><time>2026-05-03T13:27:51Z</time></trkpt><trkpt lat="44.8083448010636" lon="8.309388208878698"><ele>255.0</ele><time>2026-05-03T13:27:52Z</time></trkpt><trkpt lat="44.80830795957552" lon="8.309528645175396"><ele>255.0</ele><time>2026-05-03T13:27:53Z</time></trkpt><trkpt lat="44.808279738982726" lon="8.309648403044688"><ele>255.0</ele><time>2026-05-03T13:27:54Z</time></trkpt><trkpt lat="44.80825415699246" lon="8.30975758126725"><ele>255.0</ele><time>2026-05-03T13:27:55Z</time></trkpt><trkpt lat="44.808237407772154" lon="8.309869701894002"><ele>255.0</ele><time>2026-05-03T13:27:56Z</time></trkpt><trkpt lat="44.8082334791558" lon="8.309998893069412"><ele>255.5</ele><time>2026-05-03T13:27:57Z</time></trkpt><trkpt lat="44.80824235258766" lon="8.310146459401299"><ele>256.0</ele><time>2026-05-03T13:27:58Z</time></trkpt><trkpt lat="44.80825863956396" lon="8.310298758100457"><ele>256.5</ele><time>2026-05-03T13:27:59Z</time></trkpt><trkpt lat="44.80828493779844" lon="8.310454681031429"><ele>257.0</ele><time>2026-05-03T13:28:00Z</time></trkpt><trkpt lat="44.80831533151671" lon="8.310623218911754"><ele>257.0</ele><time>2026-05-03T13:28:01Z</time></trkpt><trkpt lat="44.80833975513438" lon="8.310795485103569"><ele>257.0</ele><time>2026-05-03T13:28:02Z</time></trkpt><trkpt lat="44.80836386283398" lon="8.310982787773893"><ele>257.0</ele><time>2026-05-03T13:28:03Z</time></trkpt><trkpt lat="44.80837804924734" lon="8.31115746759424"><ele>257.0</ele><time>2026-05-03T13:28:04Z</time></trkpt><trkpt lat="44.808392171740174" lon="8.311343941871378"><ele>258.25</ele><time>2026-05-03T13:28:05Z</time></trkpt><trkpt lat="44.80841575713029" lon="8.31152507205979"><ele>259.5</ele><time>2026-05-03T13:28:06Z</time></trkpt><trkpt lat="44.80840731297825" lon="8.311706441305814"><ele>260.75</ele><time>2026-05-03T13:28:07Z</time></trkpt><trkpt lat="44.80836291859201" lon="8.311875362305035"><ele>262.0</ele><time>2026-05-03T13:28:08Z</time></trkpt><trkpt lat="44.80832467487312" lon="8.312046042263798"><ele>262.0</ele><time>2026-05-03T13:28:09Z</time></trkpt><trkpt lat="44.80828867667582" lon="8.312219830557504"><ele>262.0</ele><time>2026-05-03T13:28:10Z</time></trkpt><trkpt lat="44.8082768563672" lon="8.312406548014252"><ele>262.0</ele><time>2026-05-03T13:28:11Z</time></trkpt><trkpt lat="44.8082640704835" lon="8.312597232069763"><ele>262.0</ele><time>2026-05-03T13:28:12Z</time></trkpt><trkpt lat="44.808229928643684" lon="8.312784853093806"><ele>262.25</ele><time>2026-05-03T13:28:13Z</time></trkpt><trkpt lat="44.80821327763131" lon="8.31298075485937"><ele>262.5</ele><time>2026-05-03T13:28:14Z</time></trkpt><trkpt lat="44.808159432932605" lon="8.313163351712923"><ele>262.75</ele><time>2026-05-03T13:28:15Z</time></trkpt><trkpt lat="44.80809265246321" lon="8.313342910806162"><ele>263.0</ele><time>2026-05-03T13:28:16Z</time></trkpt><trkpt lat="44.80802055073218" lon="8.313525081244581"><ele>262.0</ele><time>2026-05-03T13:28:17Z</time></trkpt><trkpt lat="44.807936260909294" lon="8.313698618665303"><ele>261.0</ele><time>2026-05-03T13:28:18Z</time></trkpt><trkpt lat="44.807874507644264" lon="8.313892697549988"><ele>260.0</ele><time>2026-05-03T13:28:19Z</time></trkpt><trkpt lat="44.807811817982106" lon="8.31405537749144"><ele>259.0</ele><time>2026-05-03T13:28:20Z</time></trkpt><trkpt lat="44.807755178625854" lon="8.314187021022025"><ele>258.75</ele><time>2026-05-03T13:28:21Z</time></trkpt><trkpt lat="44.80770405613501" lon="8.314330113451069"><ele>258.5</ele><time>2026-05-03T13:28:22Z</time></trkpt><trkpt lat="44.807650607563154" lon="8.314484310078493"><ele>258.25</ele><time>2026-05-03T13:28:23Z</time></trkpt><trkpt lat="44.807600371812526" lon="8.314637351352994"><ele>258.0</ele><time>2026-05-03T13:28:24Z</time></trkpt><trkpt lat="44.80754086347585" lon="8.314780746842283"><ele>258.0</ele><time>2026-05-03T13:28:25Z</time></trkpt><trkpt lat="44.80748692806892" lon="8.314928063391905"><ele>258.0</ele><time>2026-05-03T13:28:26Z</time></trkpt><trkpt lat="44.80744129310961" lon="8.31506290714432"><ele>258.0</ele><time>2026-05-03T13:28:27Z</time></trkpt><trkpt lat="44.807410758452775" lon="8.315197388273857"><ele>258.0</ele><time>2026-05-03T13:28:28Z</time></trkpt><trkpt lat="44.80738896939101" lon="8.315299752788345"><ele>258.0</ele><time>2026-05-03T13:28:29Z</time></trkpt><trkpt lat="44.8073957669292" lon="8.315409416215653"><ele>258.0</ele><time>2026-05-03T13:28:30Z</time></trkpt><trkpt lat="44.80741076148943" lon="8.31552587205574"><ele>258.0</ele><time>2026-05-03T13:28:31Z</time></trkpt><trkpt lat="44.80744253836063" lon="8.315639676171973"><ele>258.0</ele><time>2026-05-03T13:28:32Z</time></trkpt><trkpt lat="44.807470532066226" lon="8.315751998039323"><ele>258.0</ele><time>2026-05-03T13:28:33Z</time></trkpt><trkpt lat="44.80749117552856" lon="8.31587486573751"><ele>258.0</ele><time>2026-05-03T13:28:34Z</time></trkpt><trkpt lat="44.807510821927636" lon="8.315998817542782"><ele>258.0</ele><time>2026-05-03T13:28:35Z</time></trkpt><trkpt lat="44.807542904312065" lon="8.316113963639479"><ele>257.8333333333333</ele><time>2026-05-03T13:28:36Z</time></trkpt><trkpt lat="44.807555101204464" lon="8.316223228640293"><ele>257.6666666666667</ele><time>2026-05-03T13:28:37Z</time></trkpt><trkpt lat="44.80759526589324" lon="8.316303737004741"><ele>257.5</ele><time>2026-05-03T13:28:38Z</time></trkpt><trkpt lat="44.807661428448306" lon="8.316352275899328"><ele>257.33333333333337</ele><time>2026-05-03T13:28:39Z</time></trkpt><trkpt lat="44.807741592655155" lon="8.316393458501448"><ele>257.1666666666667</ele><time>2026-05-03T13:28:40Z</time></trkpt><trkpt lat="44.80783305935408" lon="8.316425907611523"><ele>257.0</ele><time>2026-05-03T13:28:41Z</time></trkpt><trkpt lat="44.80792619784913" lon="8.31645505399903"><ele>256.75</ele><time>2026-05-03T13:28:42Z</time></trkpt><trkpt lat="44.80800674948603" lon="8.316549209630544"><ele>256.5</ele><time>2026-05-03T13:28:43Z</time></trkpt><trkpt lat="44.80810192408812" lon="8.316600396576874"><ele>256.25</ele><time>2026-05-03T13:28:44Z</time></trkpt><trkpt lat="44.80824516690197" lon="8.316682548657683"><ele>256.0</ele><time>2026-05-03T13:28:45Z</time></trkpt><trkpt lat="44.80833194948705" lon="8.316735196747697"><ele>256.0</ele><time>2026-05-03T13:28:46Z</time></trkpt><trkpt lat="44.808401442187915" lon="8.316779859292573"><ele>256.0</ele><time>2026-05-03T13:28:47Z</time></trkpt><trkpt lat="44.80848102457944" lon="8.316843203309528"><ele>256.0</ele><time>2026-05-03T13:28:48Z</time></trkpt><trkpt lat="44.80853942402781" lon="8.31695413139083"><ele>256.0</ele><time>2026-05-03T13:28:49Z</time></trkpt><trkpt lat="44.80860845404926" lon="8.31703969397722"><ele>256.0</ele><time>2026-05-03T13:28:50Z</time></trkpt><trkpt lat="44.80868234250629" lon="8.317119526435025"><ele>255.20000000000002</ele><time>2026-05-03T13:28:51Z</time></trkpt><trkpt lat="44.808770534601834" lon="8.317191657647324"><ele>254.40000000000003</ele><time>2026-05-03T13:28:52Z</time></trkpt><trkpt lat="44.80886860674263" lon="8.317254456679276"><ele>253.6</ele><time>2026-05-03T13:28:53Z</time></trkpt><trkpt lat="44.808957150189364" lon="8.317311127776776"><ele>252.8</ele><time>2026-05-03T13:28:54Z</time></trkpt><trkpt lat="44.80902564415054" lon="8.3173604414611"><ele>252.0</ele><time>2026-05-03T13:28:55Z</time></trkpt><trkpt lat="44.809155927359605" lon="8.317534627330579"><ele>252.0</ele><time>2026-05-03T13:28:57Z</time></trkpt><trkpt lat="44.80924989247299" lon="8.317692632926398"><ele>252.0</ele><time>2026-05-03T13:28:58Z</time></trkpt><trkpt lat="44.809307248512276" lon="8.317841416817348"><ele>252.0</ele><time>2026-05-03T13:28:59Z</time></trkpt><trkpt lat="44.80943016323173" lon="8.317914273533654"><ele>252.0</ele><time>2026-05-03T13:29:00Z</time></trkpt><trkpt lat="44.809508000171256" lon="8.318045760775773"><ele>251.25</ele><time>2026-05-03T13:29:01Z</time></trkpt><trkpt lat="44.809621625268285" lon="8.31817482639845"><ele>250.5</ele><time>2026-05-03T13:29:02Z</time></trkpt><trkpt lat="44.80970271932068" lon="8.31829361410027"><ele>249.75</ele><time>2026-05-03T13:29:03Z</time></trkpt><trkpt lat="44.80982824589616" lon="8.318397897580336"><ele>249.0</ele><time>2026-05-03T13:29:04Z</time></trkpt><trkpt lat="44.80992777377211" lon="8.3185157713608"><ele>249.0</ele><time>2026-05-03T13:29:05Z</time></trkpt><trkpt lat="44.81001908757885" lon="8.318614725203437"><ele>249.0</ele><time>2026-05-03T13:29:06Z</time></trkpt><trkpt lat="44.81011769694921" lon="8.318708882627696"><ele>249.0</ele><time>2026-05-03T13:29:06.999Z</time></trkpt><trkpt lat="44.81007924845687" lon="8.318950759640405"><ele>249.0</ele><time>2026-05-03T13:29:07.999Z</time></trkpt><trkpt lat="44.810097456961614" lon="8.319051713943049"><ele>247.0</ele><time>2026-05-03T13:29:08.999Z</time></trkpt><trkpt lat="44.81010199811396" lon="8.319141927937482"><ele>245.0</ele><time>2026-05-03T13:29:09.999Z</time></trkpt><trkpt lat="44.81012024049263" lon="8.319226887601495"><ele>243.0</ele><time>2026-05-03T13:29:10.999Z</time></trkpt><trkpt lat="44.81014153329427" lon="8.319325064406865"><ele>241.0</ele><time>2026-05-03T13:29:11.999Z</time></trkpt><trkpt lat="44.810162644879235" lon="8.319427482119705"><ele>239.0</ele><time>2026-05-03T13:29:12.999Z</time></trkpt><trkpt lat="44.81017709144963" lon="8.319523515503427"><ele>237.0</ele><time>2026-05-03T13:29:13.999Z</time></trkpt><trkpt lat="44.81018035313993" lon="8.319682848604346"><ele>234.99999999999997</ele><time>2026-05-03T13:29:15.999Z</time></trkpt><trkpt lat="44.81018035314603" lon="8.319773021461616"><ele>233.0</ele><time>2026-05-03T13:29:16.999Z</time></trkpt><trkpt lat="44.810252318913925" lon="8.319870082848508"><ele>231.0</ele><time>2026-05-03T13:29:17.999Z</time></trkpt><trkpt lat="44.81026894227714" lon="8.319970606430784"><ele>229.0</ele><time>2026-05-03T13:29:18.999Z</time></trkpt><trkpt lat="44.81028331134711" lon="8.320060735664331"><ele>227.0</ele><time>2026-05-03T13:29:19.999Z</time></trkpt><trkpt lat="44.81029831706377" lon="8.32015058974156"><ele>225.0</ele><time>2026-05-03T13:29:20.999Z</time></trkpt><trkpt lat="44.81033068264964" lon="8.320244693281346"><ele>223.0</ele><time>2026-05-03T13:29:21.999Z</time></trkpt><trkpt lat="44.81033351630144" lon="8.320342010219953"><ele>222.99999999999997</ele><time>2026-05-03T13:29:22.999Z</time></trkpt><trkpt lat="44.81034440770563" lon="8.320442540757641"><ele>223.0</ele><time>2026-05-03T13:29:23.999Z</time></trkpt><trkpt lat="44.81036656194861" lon="8.320556256116271"><ele>223.0</ele><time>2026-05-03T13:29:24.999Z</time></trkpt><trkpt lat="44.810387496812865" lon="8.3206516104166"><ele>223.0</ele><time>2026-05-03T13:29:25.999Z</time></trkpt><trkpt lat="44.81041269819628" lon="8.32074430571366"><ele>222.99999999999997</ele><time>2026-05-03T13:29:26.999Z</time></trkpt><trkpt lat="44.81044094275729" lon="8.32085212108637"><ele>223.0</ele><time>2026-05-03T13:29:27.999Z</time></trkpt><trkpt lat="44.810481425903944" lon="8.320957140884795"><ele>226.0</ele><time>2026-05-03T13:29:28.999Z</time></trkpt><trkpt lat="44.810507724866575" lon="8.321053118271367"><ele>229.0</ele><time>2026-05-03T13:29:29.999Z</time></trkpt><trkpt lat="44.81064491405626" lon="8.321103393115099"><ele>232.0</ele><time>2026-05-03T13:29:30.999Z</time></trkpt><trkpt lat="44.81075060005346" lon="8.321185391405175"><ele>235.0</ele><time>2026-05-03T13:29:32Z</time></trkpt><trkpt lat="44.81084525974054" lon="8.321289861181167"><ele>237.25</ele><time>2026-05-03T13:29:33Z</time></trkpt><trkpt lat="44.810969928552" lon="8.321399575362165"><ele>239.5</ele><time>2026-05-03T13:29:34Z</time></trkpt><trkpt lat="44.81105103062564" lon="8.321502479648522"><ele>241.75</ele><time>2026-05-03T13:29:35Z</time></trkpt><trkpt lat="44.81114686873612" lon="8.321622993089699"><ele>244.0</ele><time>2026-05-03T13:29:36Z</time></trkpt><trkpt lat="44.81124688839868" lon="8.321723043714707"><ele>244.0</ele><time>2026-05-03T13:29:37Z</time></trkpt><trkpt lat="44.81135204112464" lon="8.321799411100486"><ele>244.0</ele><time>2026-05-03T13:29:38Z</time></trkpt><trkpt lat="44.81146344023431" lon="8.321860593614986"><ele>244.0</ele><time>2026-05-03T13:29:39Z</time></trkpt><trkpt lat="44.811590603354134" lon="8.321916470721336"><ele>244.0</ele><time>2026-05-03T13:29:40Z</time></trkpt><trkpt lat="44.81173509229013" lon="8.32194678809976"><ele>245.0</ele><time>2026-05-03T13:29:41Z</time></trkpt><trkpt lat="44.81188688439966" lon="8.32195399445657"><ele>246.0</ele><time>2026-05-03T13:29:42Z</time></trkpt><trkpt lat="44.812011603691495" lon="8.321961145716353"><ele>247.0</ele><time>2026-05-03T13:29:43Z</time></trkpt><trkpt lat="44.81215657845563" lon="8.321946206019927"><ele>248.0</ele><time>2026-05-03T13:29:44Z</time></trkpt><trkpt lat="44.812304877429284" lon="8.321930624371202"><ele>248.0</ele><time>2026-05-03T13:29:45Z</time></trkpt><trkpt lat="44.8124414950974" lon="8.321911295569551"><ele>248.0</ele><time>2026-05-03T13:29:46Z</time></trkpt><trkpt lat="44.812577016292316" lon="8.321850527626827"><ele>248.0</ele><time>2026-05-03T13:29:47Z</time></trkpt><trkpt lat="44.812695538272095" lon="8.321793864380716"><ele>248.0</ele><time>2026-05-03T13:29:48Z</time></trkpt><trkpt lat="44.81280691444292" lon="8.321740091728268"><ele>249.66666666666669</ele><time>2026-05-03T13:29:49Z</time></trkpt><trkpt lat="44.81290354485248" lon="8.32170558282824"><ele>251.33333333333334</ele><time>2026-05-03T13:29:50Z</time></trkpt><trkpt lat="44.8129863508916" lon="8.321665716056982"><ele>253.0</ele><time>2026-05-03T13:29:51Z</time></trkpt><trkpt lat="44.81304622190805" lon="8.32163556002756"><ele>254.66666666666669</ele><time>2026-05-03T13:29:52Z</time></trkpt><trkpt lat="44.813103486822904" lon="8.321584013071888"><ele>256.3333333333333</ele><time>2026-05-03T13:29:53Z</time></trkpt><trkpt lat="44.81315760869995" lon="8.321513625309162"><ele>258.0</ele><time>2026-05-03T13:29:54Z</time></trkpt><trkpt lat="44.81321706053101" lon="8.321423234131199"><ele>258.6666666666667</ele><time>2026-05-03T13:29:55Z</time></trkpt><trkpt lat="44.81327380175765" lon="8.32131531261607"><ele>259.3333333333333</ele><time>2026-05-03T13:29:56Z</time></trkpt><trkpt lat="44.81332580042946" lon="8.321205789896151"><ele>260.0</ele><time>2026-05-03T13:29:57Z</time></trkpt><trkpt lat="44.81336814575663" lon="8.321096256144509"><ele>260.66666666666663</ele><time>2026-05-03T13:29:58Z</time></trkpt><trkpt lat="44.813415094948056" lon="8.321000579336452"><ele>261.3333333333333</ele><time>2026-05-03T13:29:59Z</time></trkpt><trkpt lat="44.81346343848514" lon="8.320919628042505"><ele>262.0</ele><time>2026-05-03T13:30:00Z</time></trkpt><trkpt lat="44.813537825629346" lon="8.320888152805093"><ele>262.0</ele><time>2026-05-03T13:30:01Z</time></trkpt><trkpt lat="44.81361567741752" lon="8.320845831240543"><ele>262.0</ele><time>2026-05-03T13:30:02Z</time></trkpt><trkpt lat="44.81371151712646" lon="8.320771836087198"><ele>262.0</ele><time>2026-05-03T13:30:03Z</time></trkpt><trkpt lat="44.813794623974836" lon="8.320678989904106"><ele>262.0</ele><time>2026-05-03T13:30:04Z</time></trkpt><trkpt lat="44.81387317998806" lon="8.32057435632627"><ele>262.0</ele><time>2026-05-03T13:30:05Z</time></trkpt><trkpt lat="44.81393684252629" lon="8.320453684757853"><ele>258.5</ele><time>2026-05-03T13:30:06Z</time></trkpt><trkpt lat="44.81398205146637" lon="8.320339165836968"><ele>255.0</ele><time>2026-05-03T13:30:07Z</time></trkpt><trkpt lat="44.81402389529303" lon="8.320267101517512"><ele>251.5</ele><time>2026-05-03T13:30:08Z</time></trkpt><trkpt lat="44.814085299298966" lon="8.320214589502354"><ele>248.0</ele><time>2026-05-03T13:30:09Z</time></trkpt><trkpt lat="44.81415538202068" lon="8.320217385528757"><ele>244.49999999999997</ele><time>2026-05-03T13:30:10Z</time></trkpt><trkpt lat="44.81424515279537" lon="8.320229690974898"><ele>241.0</ele><time>2026-05-03T13:30:11Z</time></trkpt><trkpt lat="44.81435502785201" lon="8.320295897712452"><ele>238.75</ele><time>2026-05-03T13:30:12Z</time></trkpt><trkpt lat="44.81448030537011" lon="8.32032829434299"><ele>236.5</ele><time>2026-05-03T13:30:13Z</time></trkpt><trkpt lat="44.81459579057266" lon="8.320374294833325"><ele>234.25</ele><time>2026-05-03T13:30:14Z</time></trkpt><trkpt lat="44.81470738395864" lon="8.32038039361458"><ele>232.0</ele><time>2026-05-03T13:30:15Z</time></trkpt><trkpt lat="44.81482911676724" lon="8.32036426747685"><ele>232.0</ele><time>2026-05-03T13:30:16Z</time></trkpt><trkpt lat="44.81495092853505" lon="8.320346523407643"><ele>232.0</ele><time>2026-05-03T13:30:17Z</time></trkpt><trkpt lat="44.81507011015368" lon="8.320348906821463"><ele>232.0</ele><time>2026-05-03T13:30:18Z</time></trkpt><trkpt lat="44.81518841850775" lon="8.320334329678042"><ele>232.0</ele><time>2026-05-03T13:30:19Z</time></trkpt><trkpt lat="44.81530622913084" lon="8.32031865841938"><ele>229.0</ele><time>2026-05-03T13:30:20Z</time></trkpt><trkpt lat="44.81542300826366" lon="8.320313888393038"><ele>226.0</ele><time>2026-05-03T13:30:21Z</time></trkpt><trkpt lat="44.815553148137106" lon="8.320338133540245"><ele>223.0</ele><time>2026-05-03T13:30:22Z</time></trkpt><trkpt lat="44.81570561840267" lon="8.320401016568969"><ele>220.0</ele><time>2026-05-03T13:30:23Z</time></trkpt><trkpt lat="44.81586459470951" lon="8.320470329556894"><ele>218.33333333333331</ele><time>2026-05-03T13:30:24Z</time></trkpt><trkpt lat="44.816015324184946" lon="8.320527908195958"><ele>216.66666666666669</ele><time>2026-05-03T13:30:25Z</time></trkpt><trkpt lat="44.81616729634697" lon="8.320572419633496"><ele>215.0</ele><time>2026-05-03T13:30:26Z</time></trkpt><trkpt lat="44.816300345332934" lon="8.32063512297643"><ele>216.25</ele><time>2026-05-03T13:30:27Z</time></trkpt><trkpt lat="44.81644161130109" lon="8.320641206552914"><ele>217.5</ele><time>2026-05-03T13:30:28Z</time></trkpt><trkpt lat="44.81657025234874" lon="8.320619568314987"><ele>218.75</ele><time>2026-05-03T13:30:29Z</time></trkpt><trkpt lat="44.8167063568643" lon="8.320577479886017"><ele>220.0</ele><time>2026-05-03T13:30:30Z</time></trkpt><trkpt lat="44.816830543270086" lon="8.320509171081651"><ele>220.0</ele><time>2026-05-03T13:30:31Z</time></trkpt><trkpt lat="44.81692530467078" lon="8.32040207578518"><ele>220.0</ele><time>2026-05-03T13:30:32Z</time></trkpt><trkpt lat="44.81702222049681" lon="8.32027188331582"><ele>220.0</ele><time>2026-05-03T13:30:33Z</time></trkpt><trkpt lat="44.81711418569805" lon="8.32012498328275"><ele>220.0</ele><time>2026-05-03T13:30:34Z</time></trkpt><trkpt lat="44.817199800611114" lon="8.319997743415431"><ele>220.0</ele><time>2026-05-03T13:30:35Z</time></trkpt><trkpt lat="44.8172929798313" lon="8.31991111783754"><ele>220.0</ele><time>2026-05-03T13:30:36Z</time></trkpt><trkpt lat="44.817373267460795" lon="8.319847081634405"><ele>220.0</ele><time>2026-05-03T13:30:37Z</time></trkpt><trkpt lat="44.81747246038052" lon="8.319797654060372"><ele>220.0</ele><time>2026-05-03T13:30:38Z</time></trkpt><trkpt lat="44.81759230584876" lon="8.31976852734441"><ele>220.0</ele><time>2026-05-03T13:30:39Z</time></trkpt><trkpt lat="44.8177214017061" lon="8.319757078087092"><ele>216.5</ele><time>2026-05-03T13:30:40Z</time></trkpt><trkpt lat="44.81785170942135" lon="8.319714544325853"><ele>213.0</ele><time>2026-05-03T13:30:41Z</time></trkpt><trkpt lat="44.81797381953536" lon="8.319628042731834"><ele>209.5</ele><time>2026-05-03T13:30:42Z</time></trkpt><trkpt lat="44.81810291991291" lon="8.31949748043774"><ele>206.0</ele><time>2026-05-03T13:30:43Z</time></trkpt><trkpt lat="44.81822352851382" lon="8.319364095535446"><ele>206.0</ele><time>2026-05-03T13:30:44Z</time></trkpt><trkpt lat="44.81835864489817" lon="8.319274291981133"><ele>206.0</ele><time>2026-05-03T13:30:45Z</time></trkpt><trkpt lat="44.81845228259742" lon="8.319185325648755"><ele>206.0</ele><time>2026-05-03T13:30:46Z</time></trkpt><trkpt lat="44.818539283668954" lon="8.319113863662482"><ele>206.0</ele><time>2026-05-03T13:30:47Z</time></trkpt><trkpt lat="44.818632895903306" lon="8.319086158332928"><ele>203.25</ele><time>2026-05-03T13:30:48Z</time></trkpt><trkpt lat="44.81874904663478" lon="8.31905427925249"><ele>200.5</ele><time>2026-05-03T13:30:49Z</time></trkpt><trkpt lat="44.818869181875215" lon="8.319082438446069"><ele>197.75</ele><time>2026-05-03T13:30:50Z</time></trkpt><trkpt lat="44.819023794833484" lon="8.319087323295077"><ele>195.0</ele><time>2026-05-03T13:30:51Z</time></trkpt><trkpt lat="44.81919179162531" lon="8.319090145198125"><ele>193.66666666666666</ele><time>2026-05-03T13:30:52Z</time></trkpt><trkpt lat="44.81936879422605" lon="8.319086222474825"><ele>192.33333333333331</ele><time>2026-05-03T13:30:53Z</time></trkpt><trkpt lat="44.81953633796606" lon="8.319077063073992"><ele>191.0</ele><time>2026-05-03T13:30:54Z</time></trkpt><trkpt lat="44.81969056994075" lon="8.319060129446203"><ele>191.0</ele><time>2026-05-03T13:30:55Z</time></trkpt><trkpt lat="44.81983469505928" lon="8.31905818930663"><ele>191.0</ele><time>2026-05-03T13:30:56Z</time></trkpt><trkpt lat="44.81996831607739" lon="8.319087501143589"><ele>191.0</ele><time>2026-05-03T13:30:57Z</time></trkpt><trkpt lat="44.820102080863634" lon="8.319126515657024"><ele>191.0</ele><time>2026-05-03T13:30:58Z</time></trkpt><trkpt lat="44.82023021066284" lon="8.319185993491185"><ele>191.25</ele><time>2026-05-03T13:30:59Z</time></trkpt><trkpt lat="44.82035599225746" lon="8.319261772701513"><ele>191.5</ele><time>2026-05-03T13:31:00Z</time></trkpt><trkpt lat="44.82048708214867" lon="8.319346990764052"><ele>191.75</ele><time>2026-05-03T13:31:00.999Z</time></trkpt><trkpt lat="44.82061948630383" lon="8.319439488273856"><ele>192.0</ele><time>2026-05-03T13:31:01.999Z</time></trkpt><trkpt lat="44.82074819808064" lon="8.319543195839485"><ele>192.0</ele><time>2026-05-03T13:31:02.999Z</time></trkpt><trkpt lat="44.82088558805528" lon="8.319652203332245"><ele>192.0</ele><time>2026-05-03T13:31:03.999Z</time></trkpt><trkpt lat="44.821020163585246" lon="8.31975553053645"><ele>192.0</ele><time>2026-05-03T13:31:04.999Z</time></trkpt><trkpt lat="44.821153638410955" lon="8.319857593570434"><ele>188.75</ele><time>2026-05-03T13:31:05.999Z</time></trkpt><trkpt lat="44.82128310533733" lon="8.31995706084154"><ele>185.5</ele><time>2026-05-03T13:31:06.999Z</time></trkpt><trkpt lat="44.82141948487546" lon="8.320037628882325"><ele>182.25</ele><time>2026-05-03T13:31:07.999Z</time></trkpt><trkpt lat="44.82155259747769" lon="8.32009987897533"><ele>179.0</ele><time>2026-05-03T13:31:08.999Z</time></trkpt><trkpt lat="44.821677416883745" lon="8.320185223466595"><ele>176.66666666666666</ele><time>2026-05-03T13:31:09.999Z</time></trkpt><trkpt lat="44.821817645215894" lon="8.320251030526542"><ele>174.33333333333334</ele><time>2026-05-03T13:31:10.999Z</time></trkpt><trkpt lat="44.82196295489372" lon="8.320299290334672"><ele>172.0</ele><time>2026-05-03T13:31:11.999Z</time></trkpt><trkpt lat="44.8221307147377" lon="8.320330010542833"><ele>172.0</ele><time>2026-05-03T13:31:12.999Z</time></trkpt><trkpt lat="44.82227827614063" lon="8.320330610871839"><ele>172.0</ele><time>2026-05-03T13:31:13.999Z</time></trkpt><trkpt lat="44.82244152000029" lon="8.320379273065369"><ele>172.0</ele><time>2026-05-03T13:31:14.999Z</time></trkpt><trkpt lat="44.8226141149202" lon="8.320401690601125"><ele>169.25</ele><time>2026-05-03T13:31:15.999Z</time></trkpt><trkpt lat="44.822742007673085" lon="8.320444447425144"><ele>166.5</ele><time>2026-05-03T13:31:16.999Z</time></trkpt><trkpt lat="44.82288130117018" lon="8.320448261391663"><ele>163.75</ele><time>2026-05-03T13:31:17.999Z</time></trkpt><trkpt lat="44.82297881483034" lon="8.320474367984623"><ele>161.0</ele><time>2026-05-03T13:31:18.999Z</time></trkpt><trkpt lat="44.82307197896836" lon="8.320488523893284"><ele>161.0</ele><time>2026-05-03T13:31:19.999Z</time></trkpt><trkpt lat="44.82317679472551" lon="8.320525573672992"><ele>161.0</ele><time>2026-05-03T13:31:20.999Z</time></trkpt><trkpt lat="44.82327303686884" lon="8.320572807939445"><ele>161.0</ele><time>2026-05-03T13:31:21.999Z</time></trkpt><trkpt lat="44.82338095911065" lon="8.320651989359247"><ele>161.0</ele><time>2026-05-03T13:31:22.999Z</time></trkpt><trkpt lat="44.82351429359893" lon="8.320801500056959"><ele>157.25</ele><time>2026-05-03T13:31:23.999Z</time></trkpt><trkpt lat="44.823622717030865" lon="8.32093045342901"><ele>153.5</ele><time>2026-05-03T13:31:24.999Z</time></trkpt><trkpt lat="44.823707174471345" lon="8.321067865064142"><ele>149.75</ele><time>2026-05-03T13:31:25.999Z</time></trkpt><trkpt lat="44.82378253235247" lon="8.321235209480049"><ele>146.0</ele><time>2026-05-03T13:31:26.999Z</time></trkpt><trkpt lat="44.823829727688654" lon="8.3214090972229"><ele>146.0</ele><time>2026-05-03T13:31:27.999Z</time></trkpt><trkpt lat="44.82386558570085" lon="8.321600719403692"><ele>146.0</ele><time>2026-05-03T13:31:28.999Z</time></trkpt><trkpt lat="44.823904850058106" lon="8.321756179921966"><ele>146.0</ele><time>2026-05-03T13:31:29.999Z</time></trkpt><trkpt lat="44.823915549175204" lon="8.321881760463805"><ele>146.0</ele><time>2026-05-03T13:31:30.999Z</time></trkpt><trkpt lat="44.823942818216956" lon="8.321975339594758"><ele>146.0</ele><time>2026-05-03T13:31:31.999Z</time></trkpt><trkpt lat="44.82402929464041" lon="8.322039009573448"><ele>146.0</ele><time>2026-05-03T13:31:32.999Z</time></trkpt><trkpt lat="44.8241157227366" lon="8.322025489764316"><ele>146.0</ele><time>2026-05-03T13:31:33.999Z</time></trkpt><trkpt lat="44.82427411467566" lon="8.322004007022747"><ele>146.0</ele><time>2026-05-03T13:31:34.999Z</time></trkpt><trkpt lat="44.82441532857784" lon="8.321962472584199"><ele>146.0</ele><time>2026-05-03T13:31:35.999Z</time></trkpt><trkpt lat="44.82458298915686" lon="8.321957639874176"><ele>143.66666666666666</ele><time>2026-05-03T13:31:36.999Z</time></trkpt><trkpt lat="44.824753818282254" lon="8.321931567471285"><ele>141.33333333333334</ele><time>2026-05-03T13:31:38Z</time></trkpt><trkpt lat="44.82493496762752" lon="8.32190347147767"><ele>139.0</ele><time>2026-05-03T13:31:39Z</time></trkpt><trkpt lat="44.825125448428786" lon="8.321896276670206"><ele>137.66666666666669</ele><time>2026-05-03T13:31:40Z</time></trkpt><trkpt lat="44.82530875158103" lon="8.321871726328968"><ele>136.33333333333334</ele><time>2026-05-03T13:31:41Z</time></trkpt><trkpt lat="44.82547469104937" lon="8.321861403153404"><ele>135.0</ele><time>2026-05-03T13:31:42Z</time></trkpt><trkpt lat="44.82563246927064" lon="8.321832529249074"><ele>135.0</ele><time>2026-05-03T13:31:43Z</time></trkpt><trkpt lat="44.82575949968288" lon="8.321816293723442"><ele>135.0</ele><time>2026-05-03T13:31:44Z</time></trkpt><trkpt lat="44.82585013557565" lon="8.321797756485521"><ele>135.0</ele><time>2026-05-03T13:31:45Z</time></trkpt><trkpt lat="44.82591534307176" lon="8.321788992037462"><ele>135.0</ele><time>2026-05-03T13:31:46Z</time></trkpt><trkpt lat="44.82597927750182" lon="8.321790198759563"><ele>135.0</ele><time>2026-05-03T13:31:48Z</time></trkpt><trkpt lat="44.82601096756218" lon="8.32201929815902"><ele>135.0</ele><time>2026-05-03T13:31:50Z</time></trkpt><trkpt lat="44.82603029340931" lon="8.322154845019647"><ele>135.0</ele><time>2026-05-03T13:31:51Z</time></trkpt><trkpt lat="44.82603400747342" lon="8.322301637584271"><ele>135.0</ele><time>2026-05-03T13:31:52Z</time></trkpt><trkpt lat="44.82605650539837" lon="8.322487883667176"><ele>135.0</ele><time>2026-05-03T13:31:53Z</time></trkpt><trkpt lat="44.82607052361704" lon="8.322691988702164"><ele>135.0</ele><time>2026-05-03T13:31:54Z</time></trkpt><trkpt lat="44.826093376523055" lon="8.32291074206707"><ele>135.0</ele><time>2026-05-03T13:31:55Z</time></trkpt><trkpt lat="44.82612006979655" lon="8.323131557339634"><ele>135.0</ele><time>2026-05-03T13:31:56Z</time></trkpt><trkpt lat="44.826141863074696" lon="8.323387076138552"><ele>135.0</ele><time>2026-05-03T13:31:57Z</time></trkpt><trkpt lat="44.82613919988502" lon="8.32363902849154"><ele>135.0</ele><time>2026-05-03T13:31:58Z</time></trkpt><trkpt lat="44.82614436328908" lon="8.323892328712034"><ele>135.0</ele><time>2026-05-03T13:31:59Z</time></trkpt><trkpt lat="44.826114983641496" lon="8.324136922501951"><ele>133.66666666666666</ele><time>2026-05-03T13:32:00Z</time></trkpt><trkpt lat="44.82609846709106" lon="8.324390489036334"><ele>132.33333333333331</ele><time>2026-05-03T13:32:01Z</time></trkpt><trkpt lat="44.82610849531656" lon="8.324672094121999"><ele>131.0</ele><time>2026-05-03T13:32:02Z</time></trkpt><trkpt lat="44.82611568068697" lon="8.324942946348811"><ele>131.0</ele><time>2026-05-03T13:32:03Z</time></trkpt><trkpt lat="44.82612947625277" lon="8.325213342743707"><ele>131.0</ele><time>2026-05-03T13:32:04Z</time></trkpt><trkpt lat="44.82615130553903" lon="8.325481945215264"><ele>131.0</ele><time>2026-05-03T13:32:05Z</time></trkpt><trkpt lat="44.82618883087428" lon="8.32575562073877"><ele>132.33333333333331</ele><time>2026-05-03T13:32:06Z</time></trkpt><trkpt lat="44.826218544697895" lon="8.326033290286937"><ele>133.66666666666666</ele><time>2026-05-03T13:32:07Z</time></trkpt><trkpt lat="44.82626012978036" lon="8.326305276192626"><ele>135.0</ele><time>2026-05-03T13:32:08Z</time></trkpt><trkpt lat="44.82630844104193" lon="8.32657214091529"><ele>135.0</ele><time>2026-05-03T13:32:09Z</time></trkpt><trkpt lat="44.82634400752891" lon="8.32683529481252"><ele>135.0</ele><time>2026-05-03T13:32:10Z</time></trkpt><trkpt lat="44.826373853554635" lon="8.32708765039517"><ele>135.0</ele><time>2026-05-03T13:32:11Z</time></trkpt><trkpt lat="44.826418615885544" lon="8.32732542302626"><ele>134.5</ele><time>2026-05-03T13:32:12Z</time></trkpt><trkpt lat="44.82644943239831" lon="8.32753196890467"><ele>134.0</ele><time>2026-05-03T13:32:13Z</time></trkpt><trkpt lat="44.826469312989964" lon="8.327735139637236"><ele>133.5</ele><time>2026-05-03T13:32:14Z</time></trkpt><trkpt lat="44.82648652897538" lon="8.327925426775835"><ele>133.0</ele><time>2026-05-03T13:32:15Z</time></trkpt><trkpt lat="44.82649352375095" lon="8.328131023021603"><ele>133.0</ele><time>2026-05-03T13:32:16Z</time></trkpt><trkpt lat="44.82649069266954" lon="8.32833496231842"><ele>133.0</ele><time>2026-05-03T13:32:17Z</time></trkpt><trkpt lat="44.82651567523884" lon="8.32854382719377"><ele>133.0</ele><time>2026-05-03T13:32:18Z</time></trkpt><trkpt lat="44.82653105876416" lon="8.328747221740786"><ele>133.0</ele><time>2026-05-03T13:32:19Z</time></trkpt><trkpt lat="44.826551033071524" lon="8.328958136282058"><ele>133.75</ele><time>2026-05-03T13:32:20Z</time></trkpt><trkpt lat="44.82655943444422" lon="8.329167979295072"><ele>134.5</ele><time>2026-05-03T13:32:21Z</time></trkpt><trkpt lat="44.82656991844145" lon="8.329366336481995"><ele>135.25</ele><time>2026-05-03T13:32:22Z</time></trkpt><trkpt lat="44.82657973818879" lon="8.329551291244234"><ele>136.0</ele><time>2026-05-03T13:32:23Z</time></trkpt><trkpt lat="44.82658571884409" lon="8.329729121101533"><ele>136.0</ele><time>2026-05-03T13:32:24Z</time></trkpt><trkpt lat="44.826595458829864" lon="8.32989684913191"><ele>136.0</ele><time>2026-05-03T13:32:25Z</time></trkpt><trkpt lat="44.82658659665807" lon="8.330008669937692"><ele>136.0</ele><time>2026-05-03T13:32:26Z</time></trkpt><trkpt lat="44.82660684348273" lon="8.330125272834604"><ele>136.0</ele><time>2026-05-03T13:32:28Z</time></trkpt><trkpt lat="44.826796481722006" lon="8.330104788260494"><ele>135.0</ele><time>2026-05-03T13:32:30Z</time></trkpt><trkpt lat="44.82690193264208" lon="8.330082275898201"><ele>134.0</ele><time>2026-05-03T13:32:31Z</time></trkpt><trkpt lat="44.82703662410408" lon="8.330054410528657"><ele>133.0</ele><time>2026-05-03T13:32:32Z</time></trkpt><trkpt lat="44.82718390073655" lon="8.330018201478284"><ele>132.0</ele><time>2026-05-03T13:32:33Z</time></trkpt><trkpt lat="44.827343601625074" lon="8.329981485352253"><ele>132.0</ele><time>2026-05-03T13:32:34Z</time></trkpt><trkpt lat="44.827510164662996" lon="8.329942991145668"><ele>132.0</ele><time>2026-05-03T13:32:35Z</time></trkpt><trkpt lat="44.82769567889983" lon="8.32992093703423"><ele>132.0</ele><time>2026-05-03T13:32:36Z</time></trkpt><trkpt lat="44.827854545623424" lon="8.329887993705393"><ele>131.66666666666666</ele><time>2026-05-03T13:32:37Z</time></trkpt><trkpt lat="44.828011150551326" lon="8.329855519400159"><ele>131.33333333333331</ele><time>2026-05-03T13:32:38Z</time></trkpt><trkpt lat="44.82818294459155" lon="8.329819895400135"><ele>131.0</ele><time>2026-05-03T13:32:39Z</time></trkpt><trkpt lat="44.82834345330216" lon="8.329786611585693"><ele>131.25</ele><time>2026-05-03T13:32:40Z</time></trkpt><trkpt lat="44.82848859728301" lon="8.329756135608918"><ele>131.5</ele><time>2026-05-03T13:32:41Z</time></trkpt><trkpt lat="44.82861286238537" lon="8.329727114323106"><ele>131.75</ele><time>2026-05-03T13:32:42Z</time></trkpt><trkpt lat="44.82872620252565" lon="8.329711865581253"><ele>132.0</ele><time>2026-05-03T13:32:43Z</time></trkpt><trkpt lat="44.82883356361779" lon="8.32972591709744"><ele>132.0</ele><time>2026-05-03T13:32:44Z</time></trkpt><trkpt lat="44.82892318896381" lon="8.329748297854847"><ele>132.0</ele><time>2026-05-03T13:32:45Z</time></trkpt><trkpt lat="44.82900776160487" lon="8.329764681205768"><ele>132.0</ele><time>2026-05-03T13:32:46Z</time></trkpt><trkpt lat="44.82908967472618" lon="8.329772727984768"><ele>132.0</ele><time>2026-05-03T13:32:47Z</time></trkpt><trkpt lat="44.82915429738481" lon="8.329777224862154"><ele>132.0</ele><time>2026-05-03T13:32:48Z</time></trkpt><trkpt lat="44.829234730681776" lon="8.32980030102589"><ele>132.0</ele><time>2026-05-03T13:32:51Z</time></trkpt><trkpt lat="44.82926164922595" lon="8.330010595170618"><ele>132.0</ele><time>2026-05-03T13:32:53Z</time></trkpt><trkpt lat="44.82927360858783" lon="8.33013330990718"><ele>132.0</ele><time>2026-05-03T13:32:54Z</time></trkpt><trkpt lat="44.829290682168725" lon="8.33028829143983"><ele>132.0</ele><time>2026-05-03T13:32:55Z</time></trkpt><trkpt lat="44.82931341837551" lon="8.330464146204893"><ele>132.0</ele><time>2026-05-03T13:32:56Z</time></trkpt><trkpt lat="44.82933756658841" lon="8.330654160093427"><ele>136.33333333333334</ele><time>2026-05-03T13:32:57Z</time></trkpt><trkpt lat="44.82937273411583" lon="8.330888287376704"><ele>140.66666666666669</ele><time>2026-05-03T13:32:58Z</time></trkpt><trkpt lat="44.829417392770615" lon="8.331103271330498"><ele>145.0</ele><time>2026-05-03T13:32:59Z</time></trkpt><trkpt lat="44.82947197652759" lon="8.331322751791209"><ele>144.66666666666669</ele><time>2026-05-03T13:33:00Z</time></trkpt><trkpt lat="44.82952995139936" lon="8.33155764947679"><ele>144.33333333333334</ele><time>2026-05-03T13:33:01Z</time></trkpt><trkpt lat="44.82959938409944" lon="8.331793463870115"><ele>144.0</ele><time>2026-05-03T13:33:01.999Z</time></trkpt><trkpt lat="44.82968182829776" lon="8.332044099021392"><ele>141.33333333333334</ele><time>2026-05-03T13:33:02.999Z</time></trkpt><trkpt lat="44.82976810041044" lon="8.332277682568556"><ele>138.66666666666669</ele><time>2026-05-03T13:33:03.999Z</time></trkpt><trkpt lat="44.82984815249008" lon="8.33249519823846"><ele>136.0</ele><time>2026-05-03T13:33:04.999Z</time></trkpt><trkpt lat="44.82994717955516" lon="8.332729997746313"><ele>136.0</ele><time>2026-05-03T13:33:05.999Z</time></trkpt><trkpt lat="44.830034296792675" lon="8.332976416093064"><ele>136.0</ele><time>2026-05-03T13:33:06.999Z</time></trkpt><trkpt lat="44.83014035262375" lon="8.333216129485738"><ele>136.0</ele><time>2026-05-03T13:33:07.999Z</time></trkpt><trkpt lat="44.83028775432956" lon="8.333428757832166"><ele>136.66666666666669</ele><time>2026-05-03T13:33:08.999Z</time></trkpt><trkpt lat="44.83040056057999" lon="8.333665858882553"><ele>137.33333333333334</ele><time>2026-05-03T13:33:09.999Z</time></trkpt><trkpt lat="44.830484051945994" lon="8.333910756408077"><ele>138.0</ele><time>2026-05-03T13:33:10.999Z</time></trkpt><trkpt lat="44.83059152715928" lon="8.33415464583006"><ele>138.0</ele><time>2026-05-03T13:33:11.999Z</time></trkpt><trkpt lat="44.830643028418926" lon="8.334405451749879"><ele>138.0</ele><time>2026-05-03T13:33:12.999Z</time></trkpt><trkpt lat="44.83065198153649" lon="8.334679027851607"><ele>138.0</ele><time>2026-05-03T13:33:13.999Z</time></trkpt><trkpt lat="44.83069345941156" lon="8.3349379286225"><ele>138.33333333333334</ele><time>2026-05-03T13:33:14.999Z</time></trkpt><trkpt lat="44.830723906352254" lon="8.335199738593195"><ele>138.66666666666669</ele><time>2026-05-03T13:33:15.999Z</time></trkpt><trkpt lat="44.830750550416525" lon="8.335455346050406"><ele>139.0</ele><time>2026-05-03T13:33:16.999Z</time></trkpt><trkpt lat="44.830754159286144" lon="8.33572853276516"><ele>139.0</ele><time>2026-05-03T13:33:17.999Z</time></trkpt><trkpt lat="44.830770700717146" lon="8.336000605319512"><ele>139.0</ele><time>2026-05-03T13:33:18.999Z</time></trkpt><trkpt lat="44.830791178167026" lon="8.336274086999977"><ele>139.0</ele><time>2026-05-03T13:33:19.999Z</time></trkpt><trkpt lat="44.83084061984892" lon="8.336552283294509"><ele>137.0</ele><time>2026-05-03T13:33:20.999Z</time></trkpt><trkpt lat="44.83089831170252" lon="8.336871073713787"><ele>135.0</ele><time>2026-05-03T13:33:21.999Z</time></trkpt><trkpt lat="44.83096448373594" lon="8.33716691684053"><ele>138.0</ele><time>2026-05-03T13:33:22.999Z</time></trkpt><trkpt lat="44.83102434636637" lon="8.337458836301892"><ele>141.0</ele><time>2026-05-03T13:33:23.999Z</time></trkpt><trkpt lat="44.83107902966045" lon="8.337756173194594"><ele>144.0</ele><time>2026-05-03T13:33:24.999Z</time></trkpt><trkpt lat="44.83111205489872" lon="8.33805708381148"><ele>144.33333333333334</ele><time>2026-05-03T13:33:25.999Z</time></trkpt><trkpt lat="44.83113690796779" lon="8.338365100123951"><ele>144.66666666666669</ele><time>2026-05-03T13:33:26.999Z</time></trkpt><trkpt lat="44.83116043858566" lon="8.338668020648553"><ele>145.0</ele><time>2026-05-03T13:33:27.999Z</time></trkpt><trkpt lat="44.83119138493315" lon="8.338964703450758"><ele>145.0</ele><time>2026-05-03T13:33:28.999Z</time></trkpt><trkpt lat="44.831219118843364" lon="8.33924016973824"><ele>145.0</ele><time>2026-05-03T13:33:29.999Z</time></trkpt><trkpt lat="44.831272767216376" lon="8.339503532503027"><ele>145.0</ele><time>2026-05-03T13:33:30.999Z</time></trkpt><trkpt lat="44.831366385673554" lon="8.339768513610181"><ele>141.0</ele><time>2026-05-03T13:33:31.999Z</time></trkpt><trkpt lat="44.83147263873879" lon="8.340006714626455"><ele>137.0</ele><time>2026-05-03T13:33:32.999Z</time></trkpt><trkpt lat="44.83161307224547" lon="8.340212526532435"><ele>133.0</ele><time>2026-05-03T13:33:33.999Z</time></trkpt><trkpt lat="44.83174539587274" lon="8.340382850622097"><ele>133.66666666666669</ele><time>2026-05-03T13:33:34.999Z</time></trkpt><trkpt lat="44.83186219714306" lon="8.340534269036928"><ele>134.33333333333334</ele><time>2026-05-03T13:33:35.999Z</time></trkpt><trkpt lat="44.83199333426012" lon="8.340713559644696"><ele>135.0</ele><time>2026-05-03T13:33:36.999Z</time></trkpt><trkpt lat="44.83212313252233" lon="8.340880288474146"><ele>135.0</ele><time>2026-05-03T13:33:37.999Z</time></trkpt><trkpt lat="44.83221848402549" lon="8.341087881560385"><ele>135.0</ele><time>2026-05-03T13:33:38.999Z</time></trkpt><trkpt lat="44.83231858434568" lon="8.341322862254966"><ele>135.0</ele><time>2026-05-03T13:33:39.999Z</time></trkpt><trkpt lat="44.832402739855986" lon="8.341556660094327"><ele>135.33333333333334</ele><time>2026-05-03T13:33:40.999Z</time></trkpt><trkpt lat="44.83249910397595" lon="8.341823641646576"><ele>135.66666666666669</ele><time>2026-05-03T13:33:41.999Z</time></trkpt><trkpt lat="44.83259482867606" lon="8.342093707379899"><ele>136.0</ele><time>2026-05-03T13:33:42.999Z</time></trkpt><trkpt lat="44.83268503014013" lon="8.342356169464946"><ele>139.5</ele><time>2026-05-03T13:33:44Z</time></trkpt><trkpt lat="44.83277162302302" lon="8.342637815136246"><ele>143.0</ele><time>2026-05-03T13:33:45Z</time></trkpt><trkpt lat="44.83286042051555" lon="8.342960448800577"><ele>140.0</ele><time>2026-05-03T13:33:46Z</time></trkpt><trkpt lat="44.83294696594121" lon="8.34328369595182"><ele>137.0</ele><time>2026-05-03T13:33:47Z</time></trkpt><trkpt lat="44.833024840262276" lon="8.343574556496408"><ele>137.0</ele><time>2026-05-03T13:33:48Z</time></trkpt><trkpt lat="44.8331196342244" lon="8.343869786726414"><ele>137.0</ele><time>2026-05-03T13:33:49Z</time></trkpt><trkpt lat="44.83319108416461" lon="8.34419052496827"><ele>135.66666666666666</ele><time>2026-05-03T13:33:50Z</time></trkpt><trkpt lat="44.833292355769984" lon="8.344472729989434"><ele>134.33333333333334</ele><time>2026-05-03T13:33:51Z</time></trkpt><trkpt lat="44.833374151702536" lon="8.344766288833194"><ele>133.0</ele><time>2026-05-03T13:33:52Z</time></trkpt><trkpt lat="44.83345356152423" lon="8.345060103872616"><ele>134.0</ele><time>2026-05-03T13:33:53Z</time></trkpt><trkpt lat="44.83354361029504" lon="8.34536525111179"><ele>135.0</ele><time>2026-05-03T13:33:54Z</time></trkpt><trkpt lat="44.83358984927453" lon="8.345676655076975"><ele>135.0</ele><time>2026-05-03T13:33:55Z</time></trkpt><trkpt lat="44.833667931731206" lon="8.345967306667447"><ele>135.0</ele><time>2026-05-03T13:33:56Z</time></trkpt><trkpt lat="44.833748026860754" lon="8.346264044274227"><ele>135.0</ele><time>2026-05-03T13:33:57Z</time></trkpt><trkpt lat="44.83381762360845" lon="8.34655199296419"><ele>134.66666666666666</ele><time>2026-05-03T13:33:58Z</time></trkpt><trkpt lat="44.83386355828122" lon="8.346856338210527"><ele>134.33333333333331</ele><time>2026-05-03T13:33:59Z</time></trkpt><trkpt lat="44.83387732717219" lon="8.347173700653691"><ele>134.0</ele><time>2026-05-03T13:34:00Z</time></trkpt><trkpt lat="44.83386372449836" lon="8.347506402712824"><ele>134.0</ele><time>2026-05-03T13:34:01Z</time></trkpt><trkpt lat="44.83382546797643" lon="8.34784071775283"><ele>134.0</ele><time>2026-05-03T13:34:02Z</time></trkpt><trkpt lat="44.83378182846675" lon="8.348176173690193"><ele>135.5</ele><time>2026-05-03T13:34:03Z</time></trkpt><trkpt lat="44.8337342810075" lon="8.348518870133333"><ele>137.0</ele><time>2026-05-03T13:34:04Z</time></trkpt><trkpt lat="44.83368837408858" lon="8.348845001395171"><ele>137.66666666666666</ele><time>2026-05-03T13:34:05Z</time></trkpt><trkpt lat="44.83364098560185" lon="8.349159068813371"><ele>138.33333333333334</ele><time>2026-05-03T13:34:06Z</time></trkpt><trkpt lat="44.83359535740804" lon="8.349447505187149"><ele>139.0</ele><time>2026-05-03T13:34:07Z</time></trkpt><trkpt lat="44.833505187310315" lon="8.349720769820626"><ele>137.66666666666669</ele><time>2026-05-03T13:34:08Z</time></trkpt><trkpt lat="44.833432550141204" lon="8.34999115395331"><ele>136.33333333333334</ele><time>2026-05-03T13:34:09Z</time></trkpt><trkpt lat="44.83336123565092" lon="8.350256614533796"><ele>135.0</ele><time>2026-05-03T13:34:10Z</time></trkpt><trkpt lat="44.83338105797646" lon="8.350551807265692"><ele>134.66666666666666</ele><time>2026-05-03T13:34:11Z</time></trkpt><trkpt lat="44.83331524250891" lon="8.350817534950677"><ele>134.33333333333331</ele><time>2026-05-03T13:34:12Z</time></trkpt><trkpt lat="44.8332336437215" lon="8.351082829995073"><ele>134.0</ele><time>2026-05-03T13:34:13Z</time></trkpt><trkpt lat="44.833141807482384" lon="8.351345118627465"><ele>134.66666666666666</ele><time>2026-05-03T13:34:14Z</time></trkpt><trkpt lat="44.83304281066674" lon="8.351573154790964"><ele>135.33333333333334</ele><time>2026-05-03T13:34:15Z</time></trkpt><trkpt lat="44.83294322451673" lon="8.351818392518437"><ele>136.0</ele><time>2026-05-03T13:34:16Z</time></trkpt><trkpt lat="44.83285657110942" lon="8.352079441706621"><ele>137.33333333333334</ele><time>2026-05-03T13:34:17Z</time></trkpt><trkpt lat="44.83277997266609" lon="8.35232053043124"><ele>138.66666666666666</ele><time>2026-05-03T13:34:18Z</time></trkpt><trkpt lat="44.83270980792725" lon="8.352576837806238"><ele>140.0</ele><time>2026-05-03T13:34:19Z</time></trkpt><trkpt lat="44.83265148300934" lon="8.35282138564277"><ele>136.0</ele><time>2026-05-03T13:34:20Z</time></trkpt><trkpt lat="44.832596925882335" lon="8.35307384872647"><ele>132.0</ele><time>2026-05-03T13:34:21Z</time></trkpt><trkpt lat="44.832540608957004" lon="8.353318033211035"><ele>128.0</ele><time>2026-05-03T13:34:22Z</time></trkpt><trkpt lat="44.83249253211986" lon="8.353573482419927"><ele>128.0</ele><time>2026-05-03T13:34:23Z</time></trkpt><trkpt lat="44.83244601594989" lon="8.353827571994945"><ele>128.0</ele><time>2026-05-03T13:34:24Z</time></trkpt><trkpt lat="44.83239507661055" lon="8.354099865973264"><ele>128.0</ele><time>2026-05-03T13:34:25Z</time></trkpt><trkpt lat="44.832346159451966" lon="8.354343308615894"><ele>128.66666666666666</ele><time>2026-05-03T13:34:26Z</time></trkpt><trkpt lat="44.83230057932716" lon="8.354559591469467"><ele>129.33333333333334</ele><time>2026-05-03T13:34:27Z</time></trkpt><trkpt lat="44.832267728187084" lon="8.354783815586064"><ele>130.0</ele><time>2026-05-03T13:34:28Z</time></trkpt><trkpt lat="44.832241147160964" lon="8.35501544554508"><ele>131.33333333333334</ele><time>2026-05-03T13:34:29Z</time></trkpt><trkpt lat="44.83221455037108" lon="8.355253151123703"><ele>132.66666666666666</ele><time>2026-05-03T13:34:30Z</time></trkpt><trkpt lat="44.832187934206864" lon="8.355487321434254"><ele>134.0</ele><time>2026-05-03T13:34:31Z</time></trkpt><trkpt lat="44.832159109506094" lon="8.355675124248217"><ele>134.75</ele><time>2026-05-03T13:34:32Z</time></trkpt><trkpt lat="44.83213855829663" lon="8.355879148096095"><ele>135.5</ele><time>2026-05-03T13:34:33Z</time></trkpt><trkpt lat="44.83212052886462" lon="8.356063069143335"><ele>136.25</ele><time>2026-05-03T13:34:34Z</time></trkpt><trkpt lat="44.83211184084081" lon="8.356247614092446"><ele>137.0</ele><time>2026-05-03T13:34:35Z</time></trkpt><trkpt lat="44.832082389338304" lon="8.356365766687425"><ele>137.0</ele><time>2026-05-03T13:34:36Z</time></trkpt><trkpt lat="44.83200691584221" lon="8.356465614854434"><ele>137.0</ele><time>2026-05-03T13:34:37Z</time></trkpt><trkpt lat="44.83191361014963" lon="8.356522687221437"><ele>137.0</ele><time>2026-05-03T13:34:38Z</time></trkpt><trkpt lat="44.831817416838334" lon="8.356546603768754"><ele>137.0</ele><time>2026-05-03T13:34:39Z</time></trkpt><trkpt lat="44.83170788729425" lon="8.356563950306386"><ele>137.0</ele><time>2026-05-03T13:34:40Z</time></trkpt><trkpt lat="44.83161550282708" lon="8.356605452413307"><ele>135.0</ele><time>2026-05-03T13:34:41Z</time></trkpt><trkpt lat="44.83155381568032" lon="8.35670897797824"><ele>133.0</ele><time>2026-05-03T13:34:42Z</time></trkpt><trkpt lat="44.83153725802269" lon="8.356859642044528"><ele>131.0</ele><time>2026-05-03T13:34:43Z</time></trkpt><trkpt lat="44.831556764850305" lon="8.357037165282767"><ele>129.0</ele><time>2026-05-03T13:34:44Z</time></trkpt><trkpt lat="44.83153981663895" lon="8.357243684248736"><ele>129.0</ele><time>2026-05-03T13:34:45Z</time></trkpt><trkpt lat="44.83147449258175" lon="8.357427468091894"><ele>129.0</ele><time>2026-05-03T13:34:46Z</time></trkpt><trkpt lat="44.83140498974091" lon="8.357631067337781"><ele>129.0</ele><time>2026-05-03T13:34:47Z</time></trkpt><trkpt lat="44.83134201189886" lon="8.35783161707154"><ele>134.0</ele><time>2026-05-03T13:34:48Z</time></trkpt><trkpt lat="44.83126972469552" lon="8.358047964943122"><ele>139.0</ele><time>2026-05-03T13:34:49Z</time></trkpt><trkpt lat="44.831200566642636" lon="8.35826030391987"><ele>144.0</ele><time>2026-05-03T13:34:50Z</time></trkpt><trkpt lat="44.83112870498869" lon="8.358488045283885"><ele>144.0</ele><time>2026-05-03T13:34:51Z</time></trkpt><trkpt lat="44.83105846573893" lon="8.358699477767905"><ele>144.0</ele><time>2026-05-03T13:34:52Z</time></trkpt><trkpt lat="44.83099634440987" lon="8.35893792216539"><ele>144.0</ele><time>2026-05-03T13:34:53Z</time></trkpt><trkpt lat="44.830953142728546" lon="8.359191680701466"><ele>142.33333333333334</ele><time>2026-05-03T13:34:54Z</time></trkpt><trkpt lat="44.83092595120656" lon="8.359443128856912"><ele>140.66666666666669</ele><time>2026-05-03T13:34:55Z</time></trkpt><trkpt lat="44.83091973704742" lon="8.359701277155947"><ele>139.0</ele><time>2026-05-03T13:34:56Z</time></trkpt><trkpt lat="44.8309292737924" lon="8.359956371414263"><ele>139.0</ele><time>2026-05-03T13:34:57Z</time></trkpt><trkpt lat="44.83095627309141" lon="8.360211876411562"><ele>139.0</ele><time>2026-05-03T13:34:58Z</time></trkpt><trkpt lat="44.830999757740884" lon="8.360470551864966"><ele>139.0</ele><time>2026-05-03T13:34:59Z</time></trkpt><trkpt lat="44.83107589914448" lon="8.3607236387021"><ele>145.0</ele><time>2026-05-03T13:35:00Z</time></trkpt><trkpt lat="44.83116519605827" lon="8.36091877288171"><ele>151.0</ele><time>2026-05-03T13:35:01Z</time></trkpt><trkpt lat="44.831242354745264" lon="8.361131126126226"><ele>157.0</ele><time>2026-05-03T13:35:02Z</time></trkpt><trkpt lat="44.83128787266236" lon="8.361348478593648"><ele>156.33333333333334</ele><time>2026-05-03T13:35:03Z</time></trkpt><trkpt lat="44.83130853720106" lon="8.36158051733307"><ele>155.66666666666666</ele><time>2026-05-03T13:35:04Z</time></trkpt><trkpt lat="44.83129318731122" lon="8.36183606477074"><ele>155.0</ele><time>2026-05-03T13:35:05Z</time></trkpt><trkpt lat="44.83125153744653" lon="8.362088933886788"><ele>155.0</ele><time>2026-05-03T13:35:05.999Z</time></trkpt><trkpt lat="44.83118238460468" lon="8.362364058320285"><ele>155.0</ele><time>2026-05-03T13:35:06.999Z</time></trkpt><trkpt lat="44.83116488298393" lon="8.36266415073978"><ele>155.0</ele><time>2026-05-03T13:35:07.999Z</time></trkpt><trkpt lat="44.8311293768664" lon="8.362963993861984"><ele>155.66666666666666</ele><time>2026-05-03T13:35:08.999Z</time></trkpt><trkpt lat="44.831116059881495" lon="8.363237910471424"><ele>156.33333333333334</ele><time>2026-05-03T13:35:09.999Z</time></trkpt><trkpt lat="44.831093961652286" lon="8.363503510166575"><ele>157.0</ele><time>2026-05-03T13:35:10.999Z</time></trkpt><trkpt lat="44.831072583909965" lon="8.363752792712315"><ele>156.0</ele><time>2026-05-03T13:35:11.999Z</time></trkpt><trkpt lat="44.8310592566734" lon="8.36405930193247"><ele>155.0</ele><time>2026-05-03T13:35:12.999Z</time></trkpt><trkpt lat="44.831059036594446" lon="8.364326469343673"><ele>154.0</ele><time>2026-05-03T13:35:13.999Z</time></trkpt><trkpt lat="44.83109158374276" lon="8.364612571646127"><ele>151.33333333333334</ele><time>2026-05-03T13:35:14.999Z</time></trkpt><trkpt lat="44.83111857032425" lon="8.364905261965108"><ele>148.66666666666666</ele><time>2026-05-03T13:35:15.999Z</time></trkpt><trkpt lat="44.831142238403736" lon="8.36518468814342"><ele>146.0</ele><time>2026-05-03T13:35:16.999Z</time></trkpt><trkpt lat="44.83117348070592" lon="8.365453351151206"><ele>143.33333333333331</ele><time>2026-05-03T13:35:17.999Z</time></trkpt><trkpt lat="44.83120027200367" lon="8.365729769065634"><ele>140.66666666666666</ele><time>2026-05-03T13:35:18.999Z</time></trkpt><trkpt lat="44.83121277126986" lon="8.36601130799571"><ele>138.0</ele><time>2026-05-03T13:35:19.999Z</time></trkpt><trkpt lat="44.831262043064115" lon="8.36629798337843"><ele>135.0</ele><time>2026-05-03T13:35:20.999Z</time></trkpt><trkpt lat="44.83131829859354" lon="8.366570501954085"><ele>132.0</ele><time>2026-05-03T13:35:21.999Z</time></trkpt><trkpt lat="44.83137734681436" lon="8.366846842602987"><ele>129.0</ele><time>2026-05-03T13:35:22.999Z</time></trkpt><trkpt lat="44.83144477276451" lon="8.367129565867877"><ele>127.0</ele><time>2026-05-03T13:35:23.999Z</time></trkpt><trkpt lat="44.83155320465104" lon="8.367396149484211"><ele>125.0</ele><time>2026-05-03T13:35:24.999Z</time></trkpt><trkpt lat="44.83168055854293" lon="8.367668799573734"><ele>123.0</ele><time>2026-05-03T13:35:25.999Z</time></trkpt><trkpt lat="44.83178082381163" lon="8.36791041712541"><ele>127.0</ele><time>2026-05-03T13:35:26.999Z</time></trkpt><trkpt lat="44.83189012470698" lon="8.368181585255188"><ele>131.0</ele><time>2026-05-03T13:35:27.999Z</time></trkpt><trkpt lat="44.83201602913732" lon="8.368431249624345"><ele>135.0</ele><time>2026-05-03T13:35:28.999Z</time></trkpt><trkpt lat="44.83216101488417" lon="8.368692928444922"><ele>134.33333333333334</ele><time>2026-05-03T13:35:29.999Z</time></trkpt><trkpt lat="44.83232898852564" lon="8.368904727262537"><ele>133.66666666666669</ele><time>2026-05-03T13:35:30.999Z</time></trkpt><trkpt lat="44.83249444722204" lon="8.369115169516007"><ele>133.0</ele><time>2026-05-03T13:35:31.999Z</time></trkpt><trkpt lat="44.83266495747071" lon="8.369329977661227"><ele>133.0</ele><time>2026-05-03T13:35:32.999Z</time></trkpt><trkpt lat="44.83284163789183" lon="8.369535228538833"><ele>133.0</ele><time>2026-05-03T13:35:33.999Z</time></trkpt><trkpt lat="44.832997422194076" lon="8.369772143116009"><ele>128.0</ele><time>2026-05-03T13:35:34.999Z</time></trkpt><trkpt lat="44.833149202668764" lon="8.37004380124494"><ele>123.0</ele><time>2026-05-03T13:35:35.999Z</time></trkpt><trkpt lat="44.83328158887105" lon="8.370326822009725"><ele>122.5</ele><time>2026-05-03T13:35:36.999Z</time></trkpt><trkpt lat="44.83339420284082" lon="8.370635707140282"><ele>122.0</ele><time>2026-05-03T13:35:37.999Z</time></trkpt><trkpt lat="44.83349786668403" lon="8.37095431617754"><ele>122.0</ele><time>2026-05-03T13:35:38.999Z</time></trkpt><trkpt lat="44.833614318248266" lon="8.371275139285109"><ele>122.0</ele><time>2026-05-03T13:35:39.999Z</time></trkpt><trkpt lat="44.83373002109019" lon="8.371593102833074"><ele>120.5</ele><time>2026-05-03T13:35:40.999Z</time></trkpt><trkpt lat="44.83385053839771" lon="8.37191910499795"><ele>119.0</ele><time>2026-05-03T13:35:41.999Z</time></trkpt><trkpt lat="44.83396642039339" lon="8.372248351005853"><ele>119.0</ele><time>2026-05-03T13:35:42.999Z</time></trkpt><trkpt lat="44.834081112081485" lon="8.37257885581461"><ele>119.0</ele><time>2026-05-03T13:35:43.999Z</time></trkpt><trkpt lat="44.83419760377917" lon="8.372912815491516"><ele>119.5</ele><time>2026-05-03T13:35:44.999Z</time></trkpt><trkpt lat="44.83432098243473" lon="8.373239142253592"><ele>120.0</ele><time>2026-05-03T13:35:45.999Z</time></trkpt><trkpt lat="44.834436010991915" lon="8.373568245626025"><ele>120.0</ele><time>2026-05-03T13:35:46.999Z</time></trkpt><trkpt lat="44.83455666861682" lon="8.37389784057748"><ele>120.0</ele><time>2026-05-03T13:35:47.999Z</time></trkpt><trkpt lat="44.834677022205874" lon="8.37422384685248"><ele>120.0</ele><time>2026-05-03T13:35:48.999Z</time></trkpt><trkpt lat="44.83478951892037" lon="8.374549610258114"><ele>120.0</ele><time>2026-05-03T13:35:50Z</time></trkpt><trkpt lat="44.83490397746788" lon="8.374881804256493"><ele>120.5</ele><time>2026-05-03T13:35:51Z</time></trkpt><trkpt lat="44.83502129224896" lon="8.375215237437832"><ele>121.0</ele><time>2026-05-03T13:35:52Z</time></trkpt><trkpt lat="44.83515846034056" lon="8.37554893928073"><ele>121.0</ele><time>2026-05-03T13:35:53Z</time></trkpt><trkpt lat="44.835273025232745" lon="8.375880119408802"><ele>121.0</ele><time>2026-05-03T13:35:54Z</time></trkpt><trkpt lat="44.8353991055957" lon="8.376211244116115"><ele>120.5</ele><time>2026-05-03T13:35:55Z</time></trkpt><trkpt lat="44.8355158554577" lon="8.376523129490488"><ele>120.0</ele><time>2026-05-03T13:35:56Z</time></trkpt><trkpt lat="44.835614113930404" lon="8.376833481362075"><ele>120.0</ele><time>2026-05-03T13:35:57Z</time></trkpt><trkpt lat="44.83571948826666" lon="8.377129441038345"><ele>120.0</ele><time>2026-05-03T13:35:58Z</time></trkpt><trkpt lat="44.83583411785186" lon="8.377410010454108"><ele>120.5</ele><time>2026-05-03T13:35:59Z</time></trkpt><trkpt lat="44.83592783385988" lon="8.377709609873769"><ele>121.0</ele><time>2026-05-03T13:36:00Z</time></trkpt><trkpt lat="44.835999073021995" lon="8.378004528792715"><ele>120.66666666666667</ele><time>2026-05-03T13:36:01Z</time></trkpt><trkpt lat="44.8360787816886" lon="8.378297836319964"><ele>120.33333333333334</ele><time>2026-05-03T13:36:02Z</time></trkpt><trkpt lat="44.83613002032278" lon="8.378588429814869"><ele>120.0</ele><time>2026-05-03T13:36:03Z</time></trkpt><trkpt lat="44.836198779498794" lon="8.378894492216034"><ele>120.0</ele><time>2026-05-03T13:36:04Z</time></trkpt><trkpt lat="44.836251890799176" lon="8.379195182707022"><ele>120.0</ele><time>2026-05-03T13:36:05Z</time></trkpt><trkpt lat="44.83631573802663" lon="8.379489348136199"><ele>120.0</ele><time>2026-05-03T13:36:06Z</time></trkpt><trkpt lat="44.83638314304112" lon="8.379784234787392"><ele>119.66666666666666</ele><time>2026-05-03T13:36:07Z</time></trkpt><trkpt lat="44.83646549264038" lon="8.38007673583875"><ele>119.33333333333333</ele><time>2026-05-03T13:36:08Z</time></trkpt><trkpt lat="44.83654752035097" lon="8.380362397265376"><ele>119.0</ele><time>2026-05-03T13:36:09Z</time></trkpt><trkpt lat="44.83664559562497" lon="8.380648302600214"><ele>119.0</ele><time>2026-05-03T13:36:10Z</time></trkpt><trkpt lat="44.83675050885303" lon="8.380924389098517"><ele>119.0</ele><time>2026-05-03T13:36:11Z</time></trkpt><trkpt lat="44.83685930930604" lon="8.38120419217053"><ele>119.0</ele><time>2026-05-03T13:36:12Z</time></trkpt><trkpt lat="44.83697865480633" lon="8.381483734242567"><ele>118.5</ele><time>2026-05-03T13:36:13Z</time></trkpt><trkpt lat="44.83709372812072" lon="8.381762090184498"><ele>118.0</ele><time>2026-05-03T13:36:14Z</time></trkpt><trkpt lat="44.83721525049491" lon="8.382035768901853"><ele>118.5</ele><time>2026-05-03T13:36:15Z</time></trkpt><trkpt lat="44.837335155110026" lon="8.382310071985302"><ele>119.0</ele><time>2026-05-03T13:36:16Z</time></trkpt><trkpt lat="44.837453516514024" lon="8.382589468251908"><ele>119.0</ele><time>2026-05-03T13:36:17Z</time></trkpt><trkpt lat="44.83753271564996" lon="8.382867501426583"><ele>119.0</ele><time>2026-05-03T13:36:18Z</time></trkpt><trkpt lat="44.837645799488755" lon="8.383140716858607"><ele>119.0</ele><time>2026-05-03T13:36:19Z</time></trkpt><trkpt lat="44.83776625441135" lon="8.38341512788775"><ele>120.0</ele><time>2026-05-03T13:36:20Z</time></trkpt><trkpt lat="44.83788113268112" lon="8.383685370565953"><ele>121.0</ele><time>2026-05-03T13:36:21Z</time></trkpt><trkpt lat="44.83799894421552" lon="8.383957739608894"><ele>121.0</ele><time>2026-05-03T13:36:22Z</time></trkpt><trkpt lat="44.83811987283941" lon="8.384233626623576"><ele>121.0</ele><time>2026-05-03T13:36:23Z</time></trkpt><trkpt lat="44.838235040477066" lon="8.384516253987258"><ele>119.5</ele><time>2026-05-03T13:36:24Z</time></trkpt><trkpt lat="44.83835626568363" lon="8.384785975273221"><ele>118.0</ele><time>2026-05-03T13:36:25Z</time></trkpt><trkpt lat="44.83847414277853" lon="8.385058472526099"><ele>119.0</ele><time>2026-05-03T13:36:26Z</time></trkpt><trkpt lat="44.83858758739543" lon="8.385332275921698"><ele>120.0</ele><time>2026-05-03T13:36:27Z</time></trkpt><trkpt lat="44.838695945572205" lon="8.385615466201296"><ele>120.0</ele><time>2026-05-03T13:36:28Z</time></trkpt><trkpt lat="44.83881691328075" lon="8.385914310343969"><ele>120.0</ele><time>2026-05-03T13:36:29Z</time></trkpt><trkpt lat="44.838905222905225" lon="8.386241644206477"><ele>119.5</ele><time>2026-05-03T13:36:30Z</time></trkpt><trkpt lat="44.83899374823369" lon="8.386561460000648"><ele>119.0</ele><time>2026-05-03T13:36:31Z</time></trkpt><trkpt lat="44.83908150988477" lon="8.386882221991023"><ele>119.0</ele><time>2026-05-03T13:36:32Z</time></trkpt><trkpt lat="44.8391743738498" lon="8.387208367920945"><ele>119.0</ele><time>2026-05-03T13:36:33Z</time></trkpt><trkpt lat="44.839269355987234" lon="8.387533589266532"><ele>122.5</ele><time>2026-05-03T13:36:34Z</time></trkpt><trkpt lat="44.83937965293238" lon="8.387845732239809"><ele>126.0</ele><time>2026-05-03T13:36:35Z</time></trkpt><trkpt lat="44.839498736798404" lon="8.388141023952727"><ele>126.0</ele><time>2026-05-03T13:36:36Z</time></trkpt><trkpt lat="44.83963113853408" lon="8.388420489895633"><ele>126.0</ele><time>2026-05-03T13:36:37Z</time></trkpt><trkpt lat="44.83975531479926" lon="8.38869735641689"><ele>123.5</ele><time>2026-05-03T13:36:38Z</time></trkpt><trkpt lat="44.83993012196229" lon="8.388955754165073"><ele>121.0</ele><time>2026-05-03T13:36:39Z</time></trkpt><trkpt lat="44.84012536536414" lon="8.389211959081992"><ele>122.5</ele><time>2026-05-03T13:36:40Z</time></trkpt><trkpt lat="44.84031833600183" lon="8.389458080613391"><ele>124.0</ele><time>2026-05-03T13:36:41Z</time></trkpt><trkpt lat="44.84050677956085" lon="8.38969568981374"><ele>124.0</ele><time>2026-05-03T13:36:42Z</time></trkpt><trkpt lat="44.84068554484137" lon="8.389941972919294"><ele>124.0</ele><time>2026-05-03T13:36:43Z</time></trkpt><trkpt lat="44.84086227283772" lon="8.39017295788861"><ele>123.5</ele><time>2026-05-03T13:36:44Z</time></trkpt><trkpt lat="44.841045671924064" lon="8.390394822457917"><ele>123.0</ele><time>2026-05-03T13:36:45Z</time></trkpt><trkpt lat="44.84125397571622" lon="8.390601318103847"><ele>123.0</ele><time>2026-05-03T13:36:46Z</time></trkpt><trkpt lat="44.841463630773674" lon="8.390793478380596"><ele>123.0</ele><time>2026-05-03T13:36:47Z</time></trkpt><trkpt lat="44.841685369141565" lon="8.390964506272532"><ele>127.0</ele><time>2026-05-03T13:36:48Z</time></trkpt><trkpt lat="44.84191966695204" lon="8.391135715249431"><ele>131.0</ele><time>2026-05-03T13:36:49Z</time></trkpt><trkpt lat="44.842144591956" lon="8.391315350027234"><ele>126.0</ele><time>2026-05-03T13:36:50Z</time></trkpt><trkpt lat="44.84236752811969" lon="8.3914931971279"><ele>121.0</ele><time>2026-05-03T13:36:51Z</time></trkpt><trkpt lat="44.8425890316021" lon="8.391662599286217"><ele>124.0</ele><time>2026-05-03T13:36:52Z</time></trkpt><trkpt lat="44.84279321369854" lon="8.391819985534598"><ele>127.0</ele><time>2026-05-03T13:36:53Z</time></trkpt><trkpt lat="44.84298566673178" lon="8.391975406226509"><ele>127.0</ele><time>2026-05-03T13:36:54Z</time></trkpt><trkpt lat="44.84316098867099" lon="8.392129088747652"><ele>127.0</ele><time>2026-05-03T13:36:55Z</time></trkpt><trkpt lat="44.843352772862566" lon="8.392281772407202"><ele>127.0</ele><time>2026-05-03T13:36:56Z</time></trkpt><trkpt lat="44.8435341398077" lon="8.392460796183691"><ele>129.0</ele><time>2026-05-03T13:36:57Z</time></trkpt><trkpt lat="44.84370054735135" lon="8.392647593828615"><ele>131.0</ele><time>2026-05-03T13:36:58Z</time></trkpt><trkpt lat="44.843890362095266" lon="8.39284365211049"><ele>133.0</ele><time>2026-05-03T13:36:59Z</time></trkpt><trkpt lat="44.84404044295087" lon="8.393009045819438"><ele>129.33333333333334</ele><time>2026-05-03T13:37:00Z</time></trkpt><trkpt lat="44.84417417732578" lon="8.393195786573648"><ele>125.66666666666666</ele><time>2026-05-03T13:37:01Z</time></trkpt><trkpt lat="44.84431895499524" lon="8.39339953341355"><ele>122.0</ele><time>2026-05-03T13:37:02Z</time></trkpt><trkpt lat="44.844438537795625" lon="8.393611861073975"><ele>120.66666666666666</ele><time>2026-05-03T13:37:03Z</time></trkpt><trkpt lat="44.84455119220515" lon="8.393841476707001"><ele>119.33333333333334</ele><time>2026-05-03T13:37:04Z</time></trkpt><trkpt lat="44.84466222438292" lon="8.394083919439462"><ele>118.0</ele><time>2026-05-03T13:37:05Z</time></trkpt><trkpt lat="44.84478018171833" lon="8.394319506005111"><ele>118.0</ele><time>2026-05-03T13:37:06Z</time></trkpt><trkpt lat="44.84487438167963" lon="8.39453962833672"><ele>118.0</ele><time>2026-05-03T13:37:07Z</time></trkpt><trkpt lat="44.84499419048751" lon="8.394786486431412"><ele>118.0</ele><time>2026-05-03T13:37:08Z</time></trkpt><trkpt lat="44.845112572733875" lon="8.394993525086536"><ele>118.0</ele><time>2026-05-03T13:37:09Z</time></trkpt><trkpt lat="44.84524710997833" lon="8.395211050899713"><ele>118.0</ele><time>2026-05-03T13:37:10Z</time></trkpt><trkpt lat="44.84539143519864" lon="8.395425398343477"><ele>118.0</ele><time>2026-05-03T13:37:11Z</time></trkpt><trkpt lat="44.84553280039744" lon="8.39566153549301"><ele>118.0</ele><time>2026-05-03T13:37:12Z</time></trkpt><trkpt lat="44.84566898343924" lon="8.395900132050315"><ele>118.0</ele><time>2026-05-03T13:37:12.999Z</time></trkpt><trkpt lat="44.84579790972273" lon="8.396143372334029"><ele>118.0</ele><time>2026-05-03T13:37:13.999Z</time></trkpt><trkpt lat="44.8459551712459" lon="8.396395446283407"><ele>118.5</ele><time>2026-05-03T13:37:14.999Z</time></trkpt><trkpt lat="44.84611399091978" lon="8.396632197565062"><ele>119.0</ele><time>2026-05-03T13:37:15.999Z</time></trkpt><trkpt lat="44.846263092110824" lon="8.39686926853716"><ele>119.0</ele><time>2026-05-03T13:37:16.999Z</time></trkpt><trkpt lat="44.84642258041791" lon="8.397077523744725"><ele>119.0</ele><time>2026-05-03T13:37:17.999Z</time></trkpt><trkpt lat="44.84660138669003" lon="8.39728046644153"><ele>119.0</ele><time>2026-05-03T13:37:18.999Z</time></trkpt><trkpt lat="44.8467657636647" lon="8.397470209567711"><ele>118.66666666666666</ele><time>2026-05-03T13:37:19.999Z</time></trkpt><trkpt lat="44.84692324728083" lon="8.39763995715501"><ele>118.33333333333334</ele><time>2026-05-03T13:37:20.999Z</time></trkpt><trkpt lat="44.84709555451566" lon="8.397770581240243"><ele>118.0</ele><time>2026-05-03T13:37:21.999Z</time></trkpt><trkpt lat="44.84728936216395" lon="8.397860030818567"><ele>118.0</ele><time>2026-05-03T13:37:22.999Z</time></trkpt><trkpt lat="44.84747527364815" lon="8.397890085227704"><ele>118.0</ele><time>2026-05-03T13:37:23.999Z</time></trkpt><trkpt lat="44.84768474554455" lon="8.397899948559026"><ele>118.0</ele><time>2026-05-03T13:37:24.999Z</time></trkpt><trkpt lat="44.84787601057712" lon="8.397966242376482"><ele>117.0</ele><time>2026-05-03T13:37:25.999Z</time></trkpt><trkpt lat="44.84802645559879" lon="8.398078638725531"><ele>116.0</ele><time>2026-05-03T13:37:26.999Z</time></trkpt><trkpt lat="44.84821085752673" lon="8.39823474830074"><ele>115.0</ele><time>2026-05-03T13:37:27.999Z</time></trkpt><trkpt lat="44.84837586689677" lon="8.398428994190624"><ele>115.0</ele><time>2026-05-03T13:37:28.999Z</time></trkpt><trkpt lat="44.848538366782314" lon="8.398652574484984"><ele>115.0</ele><time>2026-05-03T13:37:29.999Z</time></trkpt><trkpt lat="44.84870728910453" lon="8.39888480944705"><ele>115.0</ele><time>2026-05-03T13:37:30.999Z</time></trkpt><trkpt lat="44.84887757899375" lon="8.399107817986367"><ele>115.0</ele><time>2026-05-03T13:37:31.999Z</time></trkpt><trkpt lat="44.84905099774159" lon="8.399314835246253"><ele>115.0</ele><time>2026-05-03T13:37:32.999Z</time></trkpt><trkpt lat="44.849227500880126" lon="8.39952745099696"><ele>115.0</ele><time>2026-05-03T13:37:33.999Z</time></trkpt><trkpt lat="44.849415492640915" lon="8.399725898477847"><ele>117.5</ele><time>2026-05-03T13:37:34.999Z</time></trkpt><trkpt lat="44.84959755884264" lon="8.399922317285611"><ele>120.0</ele><time>2026-05-03T13:37:35.999Z</time></trkpt><trkpt lat="44.849786282676135" lon="8.400101137365779"><ele>120.0</ele><time>2026-05-03T13:37:36.999Z</time></trkpt><trkpt lat="44.84996110443597" lon="8.400267094997053"><ele>120.0</ele><time>2026-05-03T13:37:37.999Z</time></trkpt><trkpt lat="44.85014271412986" lon="8.400442985547137"><ele>120.0</ele><time>2026-05-03T13:37:38.999Z</time></trkpt><trkpt lat="44.850317697842776" lon="8.40061441706658"><ele>119.0</ele><time>2026-05-03T13:37:39.999Z</time></trkpt><trkpt lat="44.85047252085155" lon="8.400790028689228"><ele>118.0</ele><time>2026-05-03T13:37:40.999Z</time></trkpt><trkpt lat="44.850592673843174" lon="8.401011098749926"><ele>117.0</ele><time>2026-05-03T13:37:41.999Z</time></trkpt><trkpt lat="44.850717816676266" lon="8.401276359732943"><ele>115.5</ele><time>2026-05-03T13:37:42.999Z</time></trkpt><trkpt lat="44.85082584770926" lon="8.40156251746142"><ele>114.0</ele><time>2026-05-03T13:37:43.999Z</time></trkpt><trkpt lat="44.850927491929106" lon="8.401840535676776"><ele>115.66666666666666</ele><time>2026-05-03T13:37:44.999Z</time></trkpt><trkpt lat="44.85099381631157" lon="8.402119431024742"><ele>117.33333333333333</ele><time>2026-05-03T13:37:45.999Z</time></trkpt><trkpt lat="44.851057931926206" lon="8.402379316419715"><ele>119.0</ele><time>2026-05-03T13:37:46.999Z</time></trkpt><trkpt lat="44.85112786610815" lon="8.402622537417638"><ele>119.0</ele><time>2026-05-03T13:37:47.999Z</time></trkpt><trkpt lat="44.85123360849576" lon="8.402831231152406"><ele>119.0</ele><time>2026-05-03T13:37:48.999Z</time></trkpt><trkpt lat="44.85134580319118" lon="8.403019762838351"><ele>119.0</ele><time>2026-05-03T13:37:49.999Z</time></trkpt><trkpt lat="44.851465983043866" lon="8.403205811299953"><ele>119.0</ele><time>2026-05-03T13:37:50.999Z</time></trkpt><trkpt lat="44.851618548470725" lon="8.403377562050622"><ele>119.0</ele><time>2026-05-03T13:37:51.999Z</time></trkpt><trkpt lat="44.85179308415833" lon="8.403565917936227"><ele>119.0</ele><time>2026-05-03T13:37:52.999Z</time></trkpt><trkpt lat="44.85197211810168" lon="8.40375333146956"><ele>117.66666666666666</ele><time>2026-05-03T13:37:53.999Z</time></trkpt><trkpt lat="44.8521474894784" lon="8.40394052308989"><ele>116.33333333333334</ele><time>2026-05-03T13:37:54.999Z</time></trkpt><trkpt lat="44.8523130174931" lon="8.404119883120147"><ele>115.0</ele><time>2026-05-03T13:37:56Z</time></trkpt><trkpt lat="44.85247603815641" lon="8.404292224581006"><ele>114.33333333333334</ele><time>2026-05-03T13:37:57Z</time></trkpt><trkpt lat="44.85264417162109" lon="8.404470222294913"><ele>113.66666666666666</ele><time>2026-05-03T13:37:58Z</time></trkpt><trkpt lat="44.85281680754644" lon="8.404655084417644"><ele>113.0</ele><time>2026-05-03T13:37:59Z</time></trkpt><trkpt lat="44.852978850371045" lon="8.404844537984829"><ele>113.0</ele><time>2026-05-03T13:38:00Z</time></trkpt><trkpt lat="44.85313051259856" lon="8.405068519696542"><ele>113.0</ele><time>2026-05-03T13:38:01Z</time></trkpt><trkpt lat="44.853265448981624" lon="8.405307567721557"><ele>113.0</ele><time>2026-05-03T13:38:02Z</time></trkpt><trkpt lat="44.853390926074454" lon="8.405527518715937"><ele>114.33333333333333</ele><time>2026-05-03T13:38:03Z</time></trkpt><trkpt lat="44.85351921763636" lon="8.405752309060183"><ele>115.66666666666666</ele><time>2026-05-03T13:38:04Z</time></trkpt><trkpt lat="44.85364933125633" lon="8.405982994312579"><ele>117.0</ele><time>2026-05-03T13:38:05Z</time></trkpt><trkpt lat="44.85376965893621" lon="8.406192474409789"><ele>114.66666666666666</ele><time>2026-05-03T13:38:06Z</time></trkpt><trkpt lat="44.853911718284984" lon="8.406364935147154"><ele>112.33333333333333</ele><time>2026-05-03T13:38:07Z</time></trkpt><trkpt lat="44.85404933636958" lon="8.406544320875081"><ele>110.0</ele><time>2026-05-03T13:38:08Z</time></trkpt><trkpt lat="44.8542005208764" lon="8.406663887563345"><ele>109.33333333333333</ele><time>2026-05-03T13:38:09Z</time></trkpt><trkpt lat="44.85437001591735" lon="8.406771532968467"><ele>108.66666666666666</ele><time>2026-05-03T13:38:10Z</time></trkpt><trkpt lat="44.854542165893974" lon="8.406880864330224"><ele>108.0</ele><time>2026-05-03T13:38:11Z</time></trkpt><trkpt lat="44.85467719990422" lon="8.406966623576528"><ele>108.0</ele><time>2026-05-03T13:38:12Z</time></trkpt><trkpt lat="44.85482509104794" lon="8.40707029851459"><ele>108.0</ele><time>2026-05-03T13:38:13Z</time></trkpt><trkpt lat="44.85489918155996" lon="8.407249041573822"><ele>108.0</ele><time>2026-05-03T13:38:14Z</time></trkpt><trkpt lat="44.85497621047629" lon="8.407419009726729"><ele>108.0</ele><time>2026-05-03T13:38:15Z</time></trkpt><trkpt lat="44.855064049683804" lon="8.40758637534045"><ele>108.0</ele><time>2026-05-03T13:38:16Z</time></trkpt><trkpt lat="44.8551503661361" lon="8.4077411377279"><ele>108.0</ele><time>2026-05-03T13:38:17Z</time></trkpt><trkpt lat="44.85522992447148" lon="8.407868994614763"><ele>108.0</ele><time>2026-05-03T13:38:18Z</time></trkpt><trkpt lat="44.855317298283616" lon="8.40800103593801"><ele>107.66666666666666</ele><time>2026-05-03T13:38:19Z</time></trkpt><trkpt lat="44.85543728470131" lon="8.408146313558294"><ele>107.33333333333333</ele><time>2026-05-03T13:38:20Z</time></trkpt><trkpt lat="44.85558554272395" lon="8.408304318319287"><ele>107.0</ele><time>2026-05-03T13:38:21Z</time></trkpt><trkpt lat="44.855738493492304" lon="8.408478715967151"><ele>107.0</ele><time>2026-05-03T13:38:22Z</time></trkpt><trkpt lat="44.855884387203425" lon="8.408649564876939"><ele>107.0</ele><time>2026-05-03T13:38:23Z</time></trkpt><trkpt lat="44.85604060900678" lon="8.40883543783972"><ele>107.0</ele><time>2026-05-03T13:38:24Z</time></trkpt><trkpt lat="44.85619209489273" lon="8.409034332153402"><ele>107.66666666666666</ele><time>2026-05-03T13:38:25Z</time></trkpt><trkpt lat="44.85635158062622" lon="8.409223164241785"><ele>108.33333333333334</ele><time>2026-05-03T13:38:26Z</time></trkpt><trkpt lat="44.85650489051716" lon="8.409396886050402"><ele>109.0</ele><time>2026-05-03T13:38:27Z</time></trkpt><trkpt lat="44.85664628634697" lon="8.409570807451136"><ele>109.66666666666667</ele><time>2026-05-03T13:38:28Z</time></trkpt><trkpt lat="44.856787396318275" lon="8.409736093493065"><ele>110.33333333333334</ele><time>2026-05-03T13:38:29Z</time></trkpt><trkpt lat="44.85692664819937" lon="8.40990061584895"><ele>111.0</ele><time>2026-05-03T13:38:30Z</time></trkpt><trkpt lat="44.8570676086526" lon="8.410054818282267"><ele>111.0</ele><time>2026-05-03T13:38:31Z</time></trkpt><trkpt lat="44.85721503710751" lon="8.410195158252888"><ele>111.0</ele><time>2026-05-03T13:38:32Z</time></trkpt><trkpt lat="44.85737395953504" lon="8.41032819205877"><ele>111.0</ele><time>2026-05-03T13:38:33Z</time></trkpt><trkpt lat="44.85754915958353" lon="8.410462531682471"><ele>110.33333333333334</ele><time>2026-05-03T13:38:34Z</time></trkpt><trkpt lat="44.85770745341891" lon="8.410605784423037"><ele>109.66666666666667</ele><time>2026-05-03T13:38:35Z</time></trkpt><trkpt lat="44.85787223263244" lon="8.410736709418329"><ele>109.0</ele><time>2026-05-03T13:38:36Z</time></trkpt><trkpt lat="44.85801255106705" lon="8.410837397083194"><ele>109.0</ele><time>2026-05-03T13:38:37Z</time></trkpt><trkpt lat="44.85812960030391" lon="8.410944576556677"><ele>109.0</ele><time>2026-05-03T13:38:38Z</time></trkpt><trkpt lat="44.858241319330325" lon="8.411029441670449"><ele>109.0</ele><time>2026-05-03T13:38:39Z</time></trkpt><trkpt lat="44.85833645755897" lon="8.411111438043989"><ele>109.0</ele><time>2026-05-03T13:38:40Z</time></trkpt><trkpt lat="44.85843226295126" lon="8.411187589589185"><ele>109.75</ele><time>2026-05-03T13:38:41Z</time></trkpt><trkpt lat="44.85853943200192" lon="8.411263268955326"><ele>110.5</ele><time>2026-05-03T13:38:42Z</time></trkpt><trkpt lat="44.85864031023413" lon="8.411341658468904"><ele>111.25</ele><time>2026-05-03T13:38:43Z</time></trkpt><trkpt lat="44.85874397576156" lon="8.411419324881146"><ele>112.0</ele><time>2026-05-03T13:38:44Z</time></trkpt><trkpt lat="44.858847113079776" lon="8.411497130164324"><ele>112.0</ele><time>2026-05-03T13:38:45Z</time></trkpt><trkpt lat="44.858944994864096" lon="8.411579902983163"><ele>112.0</ele><time>2026-05-03T13:38:46Z</time></trkpt><trkpt lat="44.85903537167718" lon="8.411661772072183"><ele>112.0</ele><time>2026-05-03T13:38:47Z</time></trkpt><trkpt lat="44.85916002197845" lon="8.411766436579176"><ele>112.0</ele><time>2026-05-03T13:38:48Z</time></trkpt><trkpt lat="44.85927930336169" lon="8.411864662707734"><ele>111.33333333333334</ele><time>2026-05-03T13:38:49Z</time></trkpt><trkpt lat="44.85941107640914" lon="8.411992706953257"><ele>110.66666666666666</ele><time>2026-05-03T13:38:50Z</time></trkpt><trkpt lat="44.85953527065824" lon="8.412143696846067"><ele>110.0</ele><time>2026-05-03T13:38:51Z</time></trkpt><trkpt lat="44.85964743966246" lon="8.412312934651744"><ele>110.0</ele><time>2026-05-03T13:38:52Z</time></trkpt><trkpt lat="44.85978205919786" lon="8.412485346310099"><ele>110.0</ele><time>2026-05-03T13:38:53Z</time></trkpt><trkpt lat="44.85993555716395" lon="8.412649445473647"><ele>110.0</ele><time>2026-05-03T13:38:54Z</time></trkpt><trkpt lat="44.860075370518324" lon="8.412804952372694"><ele>110.0</ele><time>2026-05-03T13:38:55Z</time></trkpt><trkpt lat="44.8601971567225" lon="8.412961465061759"><ele>110.0</ele><time>2026-05-03T13:38:56Z</time></trkpt><trkpt lat="44.86029547359097" lon="8.413102523466158"><ele>110.0</ele><time>2026-05-03T13:38:57Z</time></trkpt><trkpt lat="44.86046646823715" lon="8.413242303695636"><ele>110.0</ele><time>2026-05-03T13:38:58Z</time></trkpt><trkpt lat="44.86062092710546" lon="8.413371315346646"><ele>110.0</ele><time>2026-05-03T13:38:59Z</time></trkpt><trkpt lat="44.86077407735613" lon="8.413487187296045"><ele>110.0</ele><time>2026-05-03T13:39:00Z</time></trkpt><trkpt lat="44.860943037507035" lon="8.413590095494873"><ele>110.33333333333333</ele><time>2026-05-03T13:39:01Z</time></trkpt><trkpt lat="44.86109228742279" lon="8.413679898358671"><ele>110.66666666666666</ele><time>2026-05-03T13:39:02Z</time></trkpt><trkpt lat="44.86125741017205" lon="8.41375851095544"><ele>111.0</ele><time>2026-05-03T13:39:03Z</time></trkpt><trkpt lat="44.8614236961699" lon="8.413816920883097"><ele>111.0</ele><time>2026-05-03T13:39:04Z</time></trkpt><trkpt lat="44.86159349309518" lon="8.413863656374984"><ele>111.0</ele><time>2026-05-03T13:39:05Z</time></trkpt><trkpt lat="44.86174465347225" lon="8.413917017958608"><ele>111.0</ele><time>2026-05-03T13:39:06Z</time></trkpt><trkpt lat="44.861894355650335" lon="8.413986302430622"><ele>111.0</ele><time>2026-05-03T13:39:07Z</time></trkpt><trkpt lat="44.862061636619295" lon="8.414096089344913"><ele>111.0</ele><time>2026-05-03T13:39:08Z</time></trkpt><trkpt lat="44.86222536568084" lon="8.414241233435328"><ele>111.0</ele><time>2026-05-03T13:39:09Z</time></trkpt><trkpt lat="44.862382635114955" lon="8.414372749429363"><ele>111.0</ele><time>2026-05-03T13:39:10Z</time></trkpt><trkpt lat="44.86256086247085" lon="8.414503008982154"><ele>111.0</ele><time>2026-05-03T13:39:11Z</time></trkpt><trkpt lat="44.86275148127996" lon="8.414631316215297"><ele>111.0</ele><time>2026-05-03T13:39:12Z</time></trkpt><trkpt lat="44.86292886854229" lon="8.414761093314553"><ele>111.33333333333334</ele><time>2026-05-03T13:39:13Z</time></trkpt><trkpt lat="44.86308709178459" lon="8.414890398938667"><ele>111.66666666666667</ele><time>2026-05-03T13:39:14Z</time></trkpt><trkpt lat="44.86328072126992" lon="8.415029173410558"><ele>112.0</ele><time>2026-05-03T13:39:15Z</time></trkpt><trkpt lat="44.86346589361075" lon="8.415218508688415"><ele>112.0</ele><time>2026-05-03T13:39:16Z</time></trkpt><trkpt lat="44.863646794594665" lon="8.41535755465887"><ele>112.0</ele><time>2026-05-03T13:39:16.999Z</time></trkpt><trkpt lat="44.86383148479605" lon="8.415506805526032"><ele>112.0</ele><time>2026-05-03T13:39:17.999Z</time></trkpt><trkpt lat="44.86400818237929" lon="8.415644977445064"><ele>110.66666666666667</ele><time>2026-05-03T13:39:18.999Z</time></trkpt><trkpt lat="44.864192457498" lon="8.41579782543004"><ele>109.33333333333334</ele><time>2026-05-03T13:39:19.999Z</time></trkpt><trkpt lat="44.8643635307967" lon="8.415940284641637"><ele>108.0</ele><time>2026-05-03T13:39:20.999Z</time></trkpt><trkpt lat="44.86453583654093" lon="8.416080554642525"><ele>108.0</ele><time>2026-05-03T13:39:21.999Z</time></trkpt><trkpt lat="44.86469439250129" lon="8.416197946712447"><ele>108.0</ele><time>2026-05-03T13:39:22.999Z</time></trkpt><trkpt lat="44.86486926561375" lon="8.416294016323869"><ele>108.0</ele><time>2026-05-03T13:39:23.999Z</time></trkpt><trkpt lat="44.86503501112999" lon="8.41641242441884"><ele>106.33333333333334</ele><time>2026-05-03T13:39:24.999Z</time></trkpt><trkpt lat="44.8652207519341" lon="8.416485180649541"><ele>104.66666666666667</ele><time>2026-05-03T13:39:25.999Z</time></trkpt><trkpt lat="44.865401413654546" lon="8.416466641784512"><ele>103.0</ele><time>2026-05-03T13:39:26.999Z</time></trkpt><trkpt lat="44.865590065243985" lon="8.416466782418125"><ele>103.0</ele><time>2026-05-03T13:39:27.999Z</time></trkpt><trkpt lat="44.86578340570036" lon="8.416444648539587"><ele>103.0</ele><time>2026-05-03T13:39:28.999Z</time></trkpt><trkpt lat="44.8659757258841" lon="8.416424171139955"><ele>103.0</ele><time>2026-05-03T13:39:29.999Z</time></trkpt><trkpt lat="44.86616915731099" lon="8.416404164610388"><ele>104.0</ele><time>2026-05-03T13:39:30.999Z</time></trkpt><trkpt lat="44.86637031320589" lon="8.416383676516901"><ele>105.0</ele><time>2026-05-03T13:39:31.999Z</time></trkpt><trkpt lat="44.86654678560245" lon="8.416365159669423"><ele>106.0</ele><time>2026-05-03T13:39:32.999Z</time></trkpt><trkpt lat="44.86671567053577" lon="8.416348181086791"><ele>105.66666666666667</ele><time>2026-05-03T13:39:33.999Z</time></trkpt><trkpt lat="44.866871234463076" lon="8.416343407284343"><ele>105.33333333333334</ele><time>2026-05-03T13:39:34.999Z</time></trkpt><trkpt lat="44.86702727136784" lon="8.416348655368285"><ele>105.0</ele><time>2026-05-03T13:39:35.999Z</time></trkpt><trkpt lat="44.86719276420087" lon="8.416388688337406"><ele>105.0</ele><time>2026-05-03T13:39:36.999Z</time></trkpt><trkpt lat="44.867356158528835" lon="8.416480173027857"><ele>105.0</ele><time>2026-05-03T13:39:37.999Z</time></trkpt><trkpt lat="44.86753368648763" lon="8.416578181136948"><ele>105.0</ele><time>2026-05-03T13:39:38.999Z</time></trkpt><trkpt lat="44.86770354586842" lon="8.416743961394154"><ele>104.66666666666666</ele><time>2026-05-03T13:39:39.999Z</time></trkpt><trkpt lat="44.86785908790059" lon="8.41690741968329"><ele>104.33333333333333</ele><time>2026-05-03T13:39:40.999Z</time></trkpt><trkpt lat="44.86801470245567" lon="8.417037328161827"><ele>104.0</ele><time>2026-05-03T13:39:41.999Z</time></trkpt><trkpt lat="44.868177259634116" lon="8.417126855532176"><ele>103.66666666666666</ele><time>2026-05-03T13:39:42.999Z</time></trkpt><trkpt lat="44.86834459068035" lon="8.41718877148898"><ele>103.33333333333334</ele><time>2026-05-03T13:39:43.999Z</time></trkpt><trkpt lat="44.86849792491827" lon="8.417241044904204"><ele>103.0</ele><time>2026-05-03T13:39:44.999Z</time></trkpt><trkpt lat="44.86863853805317" lon="8.41728171281162"><ele>103.60000000000001</ele><time>2026-05-03T13:39:45.999Z</time></trkpt><trkpt lat="44.86878154825806" lon="8.417324071883472"><ele>104.2</ele><time>2026-05-03T13:39:46.999Z</time></trkpt><trkpt lat="44.86889546021674" lon="8.417363872534287"><ele>104.8</ele><time>2026-05-03T13:39:47.999Z</time></trkpt><trkpt lat="44.86898704742294" lon="8.417404312694096"><ele>105.4</ele><time>2026-05-03T13:39:48.999Z</time></trkpt><trkpt lat="44.869049205243655" lon="8.417442395659304"><ele>106.0</ele><time>2026-05-03T13:39:49.999Z</time></trkpt><trkpt lat="44.869148264316095" lon="8.417492622888894"><ele>106.0</ele><time>2026-05-03T13:39:51.999Z</time></trkpt><trkpt lat="44.869235340930395" lon="8.41739071678791"><ele>106.0</ele><time>2026-05-03T13:39:53.999Z</time></trkpt><trkpt lat="44.86926829606928" lon="8.417254705810654"><ele>106.0</ele><time>2026-05-03T13:39:54.999Z</time></trkpt><trkpt lat="44.86930119430039" lon="8.417128412920503"><ele>106.0</ele><time>2026-05-03T13:39:55.999Z</time></trkpt><trkpt lat="44.869352596156844" lon="8.416967481989227"><ele>106.0</ele><time>2026-05-03T13:39:56.999Z</time></trkpt><trkpt lat="44.869399003519845" lon="8.416797486133657"><ele>105.66666666666667</ele><time>2026-05-03T13:39:57.999Z</time></trkpt><trkpt lat="44.869436851335536" lon="8.416573061571576"><ele>105.33333333333334</ele><time>2026-05-03T13:39:58.999Z</time></trkpt><trkpt lat="44.86948755679629" lon="8.4163807220705"><ele>105.0</ele><time>2026-05-03T13:39:59.999Z</time></trkpt><trkpt lat="44.869548386922474" lon="8.416158371267588"><ele>105.0</ele><time>2026-05-03T13:40:00.999Z</time></trkpt><trkpt lat="44.86960722899791" lon="8.415914878620248"><ele>105.0</ele><time>2026-05-03T13:40:02Z</time></trkpt><trkpt lat="44.86966827845828" lon="8.415702798976344"><ele>105.0</ele><time>2026-05-03T13:40:03Z</time></trkpt><trkpt lat="44.86972039751097" lon="8.41546643680054"><ele>105.33333333333334</ele><time>2026-05-03T13:40:04Z</time></trkpt><trkpt lat="44.86977632451529" lon="8.415250832050676"><ele>105.66666666666667</ele><time>2026-05-03T13:40:05Z</time></trkpt><trkpt lat="44.869830321531246" lon="8.415029663626415"><ele>106.0</ele><time>2026-05-03T13:40:06Z</time></trkpt><trkpt lat="44.869887784157136" lon="8.414809408543308"><ele>106.66666666666667</ele><time>2026-05-03T13:40:07Z</time></trkpt><trkpt lat="44.86995842246989" lon="8.41459751829982"><ele>107.33333333333334</ele><time>2026-05-03T13:40:08Z</time></trkpt><trkpt lat="44.87004586895145" lon="8.414393128746559"><ele>108.0</ele><time>2026-05-03T13:40:09Z</time></trkpt><trkpt lat="44.87013594441296" lon="8.414191457516194"><ele>106.66666666666666</ele><time>2026-05-03T13:40:10Z</time></trkpt><trkpt lat="44.87024872912891" lon="8.414006613198998"><ele>105.33333333333333</ele><time>2026-05-03T13:40:11Z</time></trkpt><trkpt lat="44.87036232787652" lon="8.413825769864308"><ele>104.0</ele><time>2026-05-03T13:40:12Z</time></trkpt><trkpt lat="44.870472917487405" lon="8.41364195551634"><ele>104.0</ele><time>2026-05-03T13:40:13Z</time></trkpt><trkpt lat="44.87058948527109" lon="8.413448890127563"><ele>104.0</ele><time>2026-05-03T13:40:14Z</time></trkpt><trkpt lat="44.870705494367336" lon="8.41325675005808"><ele>104.0</ele><time>2026-05-03T13:40:15Z</time></trkpt><trkpt lat="44.87081400954193" lon="8.413077021970045"><ele>104.33333333333333</ele><time>2026-05-03T13:40:16Z</time></trkpt><trkpt lat="44.87091655671165" lon="8.412897599081353"><ele>104.66666666666666</ele><time>2026-05-03T13:40:17Z</time></trkpt><trkpt lat="44.87100661205089" lon="8.412714198859552"><ele>105.0</ele><time>2026-05-03T13:40:18Z</time></trkpt><trkpt lat="44.87105391814371" lon="8.412498826207136"><ele>104.75</ele><time>2026-05-03T13:40:19Z</time></trkpt><trkpt lat="44.87103708559331" lon="8.412300493917057"><ele>104.5</ele><time>2026-05-03T13:40:20Z</time></trkpt><trkpt lat="44.87100700259511" lon="8.41212040589989"><ele>104.25</ele><time>2026-05-03T13:40:21Z</time></trkpt><trkpt lat="44.87095333621579" lon="8.411925098999216"><ele>104.0</ele><time>2026-05-03T13:40:22Z</time></trkpt><trkpt lat="44.8709020585089" lon="8.411747215358714"><ele>105.0</ele><time>2026-05-03T13:40:23Z</time></trkpt><trkpt lat="44.87085989769403" lon="8.411570988518164"><ele>106.0</ele><time>2026-05-03T13:40:24Z</time></trkpt><trkpt lat="44.87083261316042" lon="8.411414615579465"><ele>107.0</ele><time>2026-05-03T13:40:25Z</time></trkpt><trkpt lat="44.87079931877806" lon="8.411258410842258"><ele>108.0</ele><time>2026-05-03T13:40:26Z</time></trkpt><trkpt lat="44.87076565525334" lon="8.411116443093801"><ele>108.0</ele><time>2026-05-03T13:40:27Z</time></trkpt><trkpt lat="44.87074095187598" lon="8.410995827483493"><ele>108.0</ele><time>2026-05-03T13:40:28Z</time></trkpt><trkpt lat="44.87074107177918" lon="8.410899789841256"><ele>108.0</ele><time>2026-05-03T13:40:29Z</time></trkpt><trkpt lat="44.870931476746364" lon="8.410839127622706"><ele>108.0</ele><time>2026-05-03T13:40:32Z</time></trkpt><trkpt lat="44.871032510207094" lon="8.41081144919256"><ele>106.0</ele><time>2026-05-03T13:40:33Z</time></trkpt><trkpt lat="44.871140300266816" lon="8.410781919791992"><ele>104.0</ele><time>2026-05-03T13:40:34Z</time></trkpt><trkpt lat="44.87126902630972" lon="8.410746582627608"><ele>102.0</ele><time>2026-05-03T13:40:35Z</time></trkpt><trkpt lat="44.8713978018573" lon="8.410712761701912"><ele>100.0</ele><time>2026-05-03T13:40:36Z</time></trkpt><trkpt lat="44.87152786864979" lon="8.410678791730243"><ele>100.0</ele><time>2026-05-03T13:40:37Z</time></trkpt><trkpt lat="44.87166732935744" lon="8.410642197995358"><ele>100.0</ele><time>2026-05-03T13:40:38Z</time></trkpt><trkpt lat="44.87180716466586" lon="8.410582228371101"><ele>100.0</ele><time>2026-05-03T13:40:39Z</time></trkpt><trkpt lat="44.87194556833316" lon="8.410561460311978"><ele>100.0</ele><time>2026-05-03T13:40:40Z</time></trkpt><trkpt lat="44.872099403149086" lon="8.410530826612495"><ele>99.66666666666667</ele><time>2026-05-03T13:40:41Z</time></trkpt><trkpt lat="44.87227001842882" lon="8.41048458011722"><ele>99.33333333333334</ele><time>2026-05-03T13:40:42Z</time></trkpt><trkpt lat="44.87244776908514" lon="8.410437157673096"><ele>99.0</ele><time>2026-05-03T13:40:43Z</time></trkpt><trkpt lat="44.872610171876964" lon="8.410382021508084"><ele>99.0</ele><time>2026-05-03T13:40:44Z</time></trkpt><trkpt lat="44.87280496114156" lon="8.410336272158172"><ele>99.0</ele><time>2026-05-03T13:40:45Z</time></trkpt><trkpt lat="44.87299728443546" lon="8.410284340036556"><ele>99.0</ele><time>2026-05-03T13:40:46Z</time></trkpt><trkpt lat="44.87319762917588" lon="8.410231295288563"><ele>99.0</ele><time>2026-05-03T13:40:47Z</time></trkpt><trkpt lat="44.87340372322129" lon="8.410185289321033"><ele>99.0</ele><time>2026-05-03T13:40:48Z</time></trkpt><trkpt lat="44.8736223513472" lon="8.410129251582172"><ele>99.0</ele><time>2026-05-03T13:40:49Z</time></trkpt><trkpt lat="44.873853583852195" lon="8.410094197010215"><ele>99.0</ele><time>2026-05-03T13:40:50Z</time></trkpt><trkpt lat="44.87407719685409" lon="8.410036690261434"><ele>99.0</ele><time>2026-05-03T13:40:51Z</time></trkpt><trkpt lat="44.874304343602844" lon="8.409978274739707"><ele>99.0</ele><time>2026-05-03T13:40:52Z</time></trkpt><trkpt lat="44.874537955081344" lon="8.40991819667093"><ele>99.0</ele><time>2026-05-03T13:40:53Z</time></trkpt><trkpt lat="44.87476729377295" lon="8.40985720866031"><ele>99.0</ele><time>2026-05-03T13:40:54Z</time></trkpt><trkpt lat="44.874996444583125" lon="8.409796229616978"><ele>99.0</ele><time>2026-05-03T13:40:55Z</time></trkpt><trkpt lat="44.875228596821884" lon="8.409734451866962"><ele>99.5</ele><time>2026-05-03T13:40:56Z</time></trkpt><trkpt lat="44.87546523801274" lon="8.409672085812497"><ele>100.0</ele><time>2026-05-03T13:40:57Z</time></trkpt><trkpt lat="44.87569936166946" lon="8.409611981658756"><ele>100.5</ele><time>2026-05-03T13:40:58Z</time></trkpt><trkpt lat="44.87594354572394" lon="8.409555383732544"><ele>101.0</ele><time>2026-05-03T13:40:59Z</time></trkpt><trkpt lat="44.87617276840868" lon="8.409484925054372"><ele>101.0</ele><time>2026-05-03T13:41:00Z</time></trkpt><trkpt lat="44.876415755015834" lon="8.409436080909565"><ele>101.0</ele><time>2026-05-03T13:41:01Z</time></trkpt><trkpt lat="44.87665693798428" lon="8.409406178648618"><ele>99.0</ele><time>2026-05-03T13:41:02Z</time></trkpt><trkpt lat="44.87689418635155" lon="8.40938050147864"><ele>97.0</ele><time>2026-05-03T13:41:03Z</time></trkpt><trkpt lat="44.87712969469225" lon="8.409374711530747"><ele>97.0</ele><time>2026-05-03T13:41:04Z</time></trkpt><trkpt lat="44.87737171062413" lon="8.409338120319616"><ele>97.0</ele><time>2026-05-03T13:41:05Z</time></trkpt><trkpt lat="44.877617747026704" lon="8.409324309933401"><ele>97.5</ele><time>2026-05-03T13:41:06Z</time></trkpt><trkpt lat="44.87787053657935" lon="8.409305009050048"><ele>98.0</ele><time>2026-05-03T13:41:07Z</time></trkpt><trkpt lat="44.878127961624095" lon="8.409290581419743"><ele>98.0</ele><time>2026-05-03T13:41:08Z</time></trkpt><trkpt lat="44.87839352234269" lon="8.409293328015545"><ele>98.0</ele><time>2026-05-03T13:41:09Z</time></trkpt><trkpt lat="44.8786565500632" lon="8.409276430723656"><ele>98.5</ele><time>2026-05-03T13:41:10Z</time></trkpt><trkpt lat="44.87892196344837" lon="8.40925938017188"><ele>99.0</ele><time>2026-05-03T13:41:11Z</time></trkpt><trkpt lat="44.879179332647055" lon="8.409222547702157"><ele>100.5</ele><time>2026-05-03T13:41:12Z</time></trkpt><trkpt lat="44.87943859113325" lon="8.409204397753053"><ele>102.0</ele><time>2026-05-03T13:41:13Z</time></trkpt><trkpt lat="44.87970078007548" lon="8.409209856020833"><ele>102.0</ele><time>2026-05-03T13:41:14Z</time></trkpt><trkpt lat="44.8799507619956" lon="8.409192393022954"><ele>102.0</ele><time>2026-05-03T13:41:15Z</time></trkpt><trkpt lat="44.88019116812377" lon="8.409162356765034"><ele>101.0</ele><time>2026-05-03T13:41:16Z</time></trkpt><trkpt lat="44.88042287091251" lon="8.409152931556509"><ele>100.0</ele><time>2026-05-03T13:41:17Z</time></trkpt><trkpt lat="44.88064838342412" lon="8.40918392738851"><ele>100.0</ele><time>2026-05-03T13:41:18Z</time></trkpt><trkpt lat="44.88087599553135" lon="8.409229966421186"><ele>100.0</ele><time>2026-05-03T13:41:19Z</time></trkpt><trkpt lat="44.88110477967425" lon="8.409309140220191"><ele>99.5</ele><time>2026-05-03T13:41:20Z</time></trkpt><trkpt lat="44.88132734007586" lon="8.40941213956858"><ele>99.0</ele><time>2026-05-03T13:41:21Z</time></trkpt><trkpt lat="44.88155588935418" lon="8.409501324065472"><ele>99.0</ele><time>2026-05-03T13:41:22Z</time></trkpt><trkpt lat="44.88178109422359" lon="8.409610942118519"><ele>99.0</ele><time>2026-05-03T13:41:23Z</time></trkpt><trkpt lat="44.881998828465825" lon="8.409730670597638"><ele>100.5</ele><time>2026-05-03T13:41:24Z</time></trkpt><trkpt lat="44.88221922592106" lon="8.40983934122341"><ele>102.0</ele><time>2026-05-03T13:41:25Z</time></trkpt><trkpt lat="44.88242403745095" lon="8.409937831915917"><ele>102.66666666666666</ele><time>2026-05-03T13:41:26Z</time></trkpt><trkpt lat="44.882628313088084" lon="8.410016917861384"><ele>103.33333333333333</ele><time>2026-05-03T13:41:27Z</time></trkpt><trkpt lat="44.88281839782705" lon="8.410104817007166"><ele>104.0</ele><time>2026-05-03T13:41:27.999Z</time></trkpt><trkpt lat="44.8830066450115" lon="8.410160104889952"><ele>104.0</ele><time>2026-05-03T13:41:28.999Z</time></trkpt><trkpt lat="44.883205602692456" lon="8.410223787635491"><ele>104.0</ele><time>2026-05-03T13:41:29.999Z</time></trkpt><trkpt lat="44.88341914258111" lon="8.410256150313273"><ele>104.0</ele><time>2026-05-03T13:41:30.999Z</time></trkpt><trkpt lat="44.88361626038155" lon="8.41026343417462"><ele>104.33333333333333</ele><time>2026-05-03T13:41:31.999Z</time></trkpt><trkpt lat="44.88379459072585" lon="8.410303886444249"><ele>104.66666666666666</ele><time>2026-05-03T13:41:32.999Z</time></trkpt><trkpt lat="44.88396671900235" lon="8.410330521864003"><ele>105.0</ele><time>2026-05-03T13:41:33.999Z</time></trkpt><trkpt lat="44.88412457846051" lon="8.410360789575568"><ele>104.75</ele><time>2026-05-03T13:41:34.999Z</time></trkpt><trkpt lat="44.884284834530845" lon="8.4103735926511"><ele>104.5</ele><time>2026-05-03T13:41:35.999Z</time></trkpt><trkpt lat="44.88442287409045" lon="8.410399581713675"><ele>104.25</ele><time>2026-05-03T13:41:36.999Z</time></trkpt><trkpt lat="44.88452814606382" lon="8.410422624113199"><ele>104.0</ele><time>2026-05-03T13:41:37.999Z</time></trkpt><trkpt lat="44.88461724113622" lon="8.410401970853629"><ele>104.0</ele><time>2026-05-03T13:41:38.999Z</time></trkpt><trkpt lat="44.88469624554609" lon="8.41033020747723"><ele>104.0</ele><time>2026-05-03T13:41:39.999Z</time></trkpt><trkpt lat="44.88474325465551" lon="8.410220754924353"><ele>104.0</ele><time>2026-05-03T13:41:40.999Z</time></trkpt><trkpt lat="44.884772469516136" lon="8.410087749313874"><ele>104.0</ele><time>2026-05-03T13:41:41.999Z</time></trkpt><trkpt lat="44.88478281549895" lon="8.409899892221928"><ele>104.0</ele><time>2026-05-03T13:41:42.999Z</time></trkpt><trkpt lat="44.884761495440706" lon="8.409710695466272"><ele>104.0</ele><time>2026-05-03T13:41:43.999Z</time></trkpt><trkpt lat="44.88472569470755" lon="8.40951352145854"><ele>104.0</ele><time>2026-05-03T13:41:44.999Z</time></trkpt><trkpt lat="44.88467095897482" lon="8.409298869426234"><ele>104.0</ele><time>2026-05-03T13:41:45.999Z</time></trkpt><trkpt lat="44.884598172276625" lon="8.409081493975007"><ele>104.0</ele><time>2026-05-03T13:41:46.999Z</time></trkpt><trkpt lat="44.88451489780543" lon="8.408843067819413"><ele>104.0</ele><time>2026-05-03T13:41:47.999Z</time></trkpt><trkpt lat="44.884438774663266" lon="8.408586765504007"><ele>104.0</ele><time>2026-05-03T13:41:48.999Z</time></trkpt><trkpt lat="44.884364371580986" lon="8.408324060694229"><ele>104.33333333333333</ele><time>2026-05-03T13:41:49.999Z</time></trkpt><trkpt lat="44.884280947323155" lon="8.408057477368686"><ele>104.66666666666666</ele><time>2026-05-03T13:41:50.999Z</time></trkpt><trkpt lat="44.884198435132355" lon="8.407791037086055"><ele>105.0</ele><time>2026-05-03T13:41:51.999Z</time></trkpt><trkpt lat="44.884102474877324" lon="8.407518369071786"><ele>104.0</ele><time>2026-05-03T13:41:52.999Z</time></trkpt><trkpt lat="44.88401312732145" lon="8.407245725810427"><ele>103.0</ele><time>2026-05-03T13:41:53.999Z</time></trkpt><trkpt lat="44.883932547883404" lon="8.406993935435985"><ele>102.0</ele><time>2026-05-03T13:41:54.999Z</time></trkpt><trkpt lat="44.88385858627175" lon="8.406758917111038"><ele>102.0</ele><time>2026-05-03T13:41:55.999Z</time></trkpt><trkpt lat="44.883793225510274" lon="8.406534534791597"><ele>102.0</ele><time>2026-05-03T13:41:56.999Z</time></trkpt><trkpt lat="44.883716667984615" lon="8.406328180982209"><ele>102.0</ele><time>2026-05-03T13:41:57.999Z</time></trkpt><trkpt lat="44.88364450494448" lon="8.406138289594775"><ele>102.0</ele><time>2026-05-03T13:41:58.999Z</time></trkpt><trkpt lat="44.88358014771589" lon="8.405960394119841"><ele>102.0</ele><time>2026-05-03T13:41:59.999Z</time></trkpt><trkpt lat="44.88352442477371" lon="8.405806246025826"><ele>102.0</ele><time>2026-05-03T13:42:00.999Z</time></trkpt><trkpt lat="44.883478776511716" lon="8.40568286644317"><ele>102.0</ele><time>2026-05-03T13:42:01.999Z</time></trkpt><trkpt lat="44.88345609197734" lon="8.405577070750024"><ele>102.0</ele><time>2026-05-03T13:42:02.999Z</time></trkpt><trkpt lat="44.883490522483335" lon="8.405472942991537"><ele>102.19999999999999</ele><time>2026-05-03T13:42:04.999Z</time></trkpt><trkpt lat="44.88357323842084" lon="8.405439639075192"><ele>102.4</ele><time>2026-05-03T13:42:06.999Z</time></trkpt><trkpt lat="44.8836457147866" lon="8.405413178635115"><ele>102.6</ele><time>2026-05-03T13:42:08Z</time></trkpt><trkpt lat="44.8837371362179" lon="8.405380066496244"><ele>102.80000000000001</ele><time>2026-05-03T13:42:09Z</time></trkpt><trkpt lat="44.883826988611986" lon="8.405347522670809"><ele>103.0</ele><time>2026-05-03T13:42:10Z</time></trkpt><trkpt lat="44.883938252887155" lon="8.405283308354202"><ele>103.0</ele><time>2026-05-03T13:42:11Z</time></trkpt><trkpt lat="44.8840751811709" lon="8.405259562723915"><ele>103.0</ele><time>2026-05-03T13:42:12Z</time></trkpt><trkpt lat="44.88422320144497" lon="8.405212058653929"><ele>103.0</ele><time>2026-05-03T13:42:13Z</time></trkpt><trkpt lat="44.88435119009253" lon="8.405162802573143"><ele>103.0</ele><time>2026-05-03T13:42:14Z</time></trkpt><trkpt lat="44.88450606310517" lon="8.405099283322565"><ele>102.66666666666667</ele><time>2026-05-03T13:42:15Z</time></trkpt><trkpt lat="44.88468417794216" lon="8.405028123796503"><ele>102.33333333333334</ele><time>2026-05-03T13:42:16Z</time></trkpt><trkpt lat="44.884850876826256" lon="8.404953339258844"><ele>102.0</ele><time>2026-05-03T13:42:17Z</time></trkpt><trkpt lat="44.885029509365324" lon="8.404876179615005"><ele>102.0</ele><time>2026-05-03T13:42:18Z</time></trkpt><trkpt lat="44.88522719518499" lon="8.404785165119645"><ele>102.0</ele><time>2026-05-03T13:42:19Z</time></trkpt><trkpt lat="44.885428591063274" lon="8.404725880282065"><ele>102.0</ele><time>2026-05-03T13:42:20Z</time></trkpt><trkpt lat="44.885642282726764" lon="8.40464200924049"><ele>102.0</ele><time>2026-05-03T13:42:21Z</time></trkpt><trkpt lat="44.88584458869986" lon="8.404565590857791"><ele>102.0</ele><time>2026-05-03T13:42:22Z</time></trkpt><trkpt lat="44.88604567278268" lon="8.40448955999949"><ele>102.0</ele><time>2026-05-03T13:42:23Z</time></trkpt><trkpt lat="44.88623667147594" lon="8.40441734247896"><ele>102.33333333333334</ele><time>2026-05-03T13:42:24Z</time></trkpt><trkpt lat="44.88640101967746" lon="8.404349062301227"><ele>102.66666666666667</ele><time>2026-05-03T13:42:25Z</time></trkpt><trkpt lat="44.88658618451112" lon="8.40433550503287"><ele>103.0</ele><time>2026-05-03T13:42:26Z</time></trkpt><trkpt lat="44.88678276519208" lon="8.40435761920469"><ele>103.0</ele><time>2026-05-03T13:42:27Z</time></trkpt><trkpt lat="44.8869808290401" lon="8.404381745564981"><ele>103.0</ele><time>2026-05-03T13:42:28Z</time></trkpt><trkpt lat="44.88717382063461" lon="8.404416217755898"><ele>103.0</ele><time>2026-05-03T13:42:29Z</time></trkpt><trkpt lat="44.887369459349685" lon="8.40443350391555"><ele>103.0</ele><time>2026-05-03T13:42:30Z</time></trkpt><trkpt lat="44.88757982811102" lon="8.404444330879628"><ele>103.0</ele><time>2026-05-03T13:42:31Z</time></trkpt><trkpt lat="44.88779302100157" lon="8.404498197933863"><ele>103.0</ele><time>2026-05-03T13:42:32Z</time></trkpt><trkpt lat="44.88802862462752" lon="8.404549561944256"><ele>103.66666666666667</ele><time>2026-05-03T13:42:33Z</time></trkpt><trkpt lat="44.88824744385486" lon="8.404642565068645"><ele>104.33333333333334</ele><time>2026-05-03T13:42:34Z</time></trkpt><trkpt lat="44.88845421019975" lon="8.40472748563503"><ele>105.0</ele><time>2026-05-03T13:42:35Z</time></trkpt><trkpt lat="44.88864445311792" lon="8.404805595743351"><ele>103.66666666666666</ele><time>2026-05-03T13:42:36Z</time></trkpt><trkpt lat="44.88884264133669" lon="8.404870681873165"><ele>102.33333333333333</ele><time>2026-05-03T13:42:37Z</time></trkpt><trkpt lat="44.889037812339595" lon="8.404949964008722"><ele>101.0</ele><time>2026-05-03T13:42:38Z</time></trkpt><trkpt lat="44.88924475279816" lon="8.40502599190871"><ele>102.0</ele><time>2026-05-03T13:42:39Z</time></trkpt><trkpt lat="44.889442954754045" lon="8.40510059403089"><ele>103.0</ele><time>2026-05-03T13:42:40Z</time></trkpt><trkpt lat="44.8896283735335" lon="8.405173186033707"><ele>104.0</ele><time>2026-05-03T13:42:41Z</time></trkpt><trkpt lat="44.88980394752157" lon="8.4052380755884"><ele>104.0</ele><time>2026-05-03T13:42:42Z</time></trkpt><trkpt lat="44.88995417740188" lon="8.405274649091263"><ele>104.0</ele><time>2026-05-03T13:42:43Z</time></trkpt><trkpt lat="44.890078005985195" lon="8.405243232992651"><ele>104.0</ele><time>2026-05-03T13:42:44Z</time></trkpt><trkpt lat="44.89020572971972" lon="8.405153854201519"><ele>104.0</ele><time>2026-05-03T13:42:45Z</time></trkpt><trkpt lat="44.89034690995529" lon="8.405042803598757"><ele>104.0</ele><time>2026-05-03T13:42:46Z</time></trkpt><trkpt lat="44.89050680168389" lon="8.404917227018075"><ele>104.0</ele><time>2026-05-03T13:42:47Z</time></trkpt><trkpt lat="44.89064907700506" lon="8.404826118327799"><ele>104.0</ele><time>2026-05-03T13:42:48Z</time></trkpt><trkpt lat="44.89080260415951" lon="8.404741992482164"><ele>105.0</ele><time>2026-05-03T13:42:49Z</time></trkpt><trkpt lat="44.89096322312762" lon="8.404661818408846"><ele>106.0</ele><time>2026-05-03T13:42:50Z</time></trkpt><trkpt lat="44.891122089830745" lon="8.404584456466457"><ele>107.0</ele><time>2026-05-03T13:42:51Z</time></trkpt><trkpt lat="44.89126704097806" lon="8.404509699645173"><ele>107.0</ele><time>2026-05-03T13:42:52Z</time></trkpt><trkpt lat="44.89139555770885" lon="8.40448424702383"><ele>107.0</ele><time>2026-05-03T13:42:53Z</time></trkpt><trkpt lat="44.8915324362318" lon="8.404461435015047"><ele>107.0</ele><time>2026-05-03T13:42:54Z</time></trkpt><trkpt lat="44.89169061179601" lon="8.404468055104514"><ele>107.0</ele><time>2026-05-03T13:42:55Z</time></trkpt><trkpt lat="44.891836481640304" lon="8.404471040281733"><ele>107.0</ele><time>2026-05-03T13:42:56Z</time></trkpt><trkpt lat="44.89198684444597" lon="8.404431239926955"><ele>107.0</ele><time>2026-05-03T13:42:57Z</time></trkpt><trkpt lat="44.89213866237933" lon="8.404402073749669"><ele>107.0</ele><time>2026-05-03T13:42:58Z</time></trkpt><trkpt lat="44.89227453420556" lon="8.404355548661053"><ele>107.0</ele><time>2026-05-03T13:42:59Z</time></trkpt><trkpt lat="44.89239670833735" lon="8.404347650507582"><ele>107.0</ele><time>2026-05-03T13:43:00Z</time></trkpt><trkpt lat="44.892517172964986" lon="8.404399171407082"><ele>107.0</ele><time>2026-05-03T13:43:01Z</time></trkpt><trkpt lat="44.89265471950977" lon="8.404479801910636"><ele>107.0</ele><time>2026-05-03T13:43:02Z</time></trkpt><trkpt lat="44.892802744168776" lon="8.40457293750632"><ele>107.0</ele><time>2026-05-03T13:43:03Z</time></trkpt><trkpt lat="44.89295423598111" lon="8.404668499356603"><ele>106.66666666666666</ele><time>2026-05-03T13:43:04Z</time></trkpt><trkpt lat="44.89311124080368" lon="8.404774520036757"><ele>106.33333333333334</ele><time>2026-05-03T13:43:05Z</time></trkpt><trkpt lat="44.893257582519475" lon="8.404896641683637"><ele>106.0</ele><time>2026-05-03T13:43:06Z</time></trkpt><trkpt lat="44.893389900368845" lon="8.405042699828781"><ele>106.66666666666667</ele><time>2026-05-03T13:43:07Z</time></trkpt><trkpt lat="44.89352392985312" lon="8.40521528878726"><ele>107.33333333333334</ele><time>2026-05-03T13:43:08Z</time></trkpt><trkpt lat="44.893668254030615" lon="8.405399891896215"><ele>108.0</ele><time>2026-05-03T13:43:09Z</time></trkpt><trkpt lat="44.89381210478207" lon="8.40560179056276"><ele>108.33333333333334</ele><time>2026-05-03T13:43:10Z</time></trkpt><trkpt lat="44.89395490333679" lon="8.405816765191489"><ele>108.66666666666667</ele><time>2026-05-03T13:43:11Z</time></trkpt><trkpt lat="44.89408659073075" lon="8.406019427543866"><ele>109.0</ele><time>2026-05-03T13:43:12Z</time></trkpt><trkpt lat="44.8942031454702" lon="8.406196507695986"><ele>109.66666666666667</ele><time>2026-05-03T13:43:13Z</time></trkpt><trkpt lat="44.89431634392212" lon="8.406354443529027"><ele>110.33333333333334</ele><time>2026-05-03T13:43:14Z</time></trkpt><trkpt lat="44.89444299243967" lon="8.40650525851261"><ele>111.0</ele><time>2026-05-03T13:43:15Z</time></trkpt><trkpt lat="44.89461081132761" lon="8.406602435790099"><ele>111.0</ele><time>2026-05-03T13:43:16Z</time></trkpt><trkpt lat="44.89476802065515" lon="8.406689061233347"><ele>111.0</ele><time>2026-05-03T13:43:17Z</time></trkpt><trkpt lat="44.894924947242345" lon="8.406733367620769"><ele>111.0</ele><time>2026-05-03T13:43:18Z</time></trkpt><trkpt lat="44.89505104630476" lon="8.406781861803728"><ele>112.25</ele><time>2026-05-03T13:43:19Z</time></trkpt><trkpt lat="44.895151356660044" lon="8.406809699417973"><ele>113.5</ele><time>2026-05-03T13:43:20Z</time></trkpt><trkpt lat="44.895280314876956" lon="8.406849709560438"><ele>114.75</ele><time>2026-05-03T13:43:21Z</time></trkpt><trkpt lat="44.895408529245955" lon="8.406895009514114"><ele>116.0</ele><time>2026-05-03T13:43:22Z</time></trkpt><trkpt lat="44.89553404007835" lon="8.406928085875922"><ele>113.66666666666666</ele><time>2026-05-03T13:43:23Z</time></trkpt><trkpt lat="44.89559529612465" lon="8.407221562044693"><ele>111.33333333333334</ele><time>2026-05-03T13:43:24Z</time></trkpt><trkpt lat="44.895657007165376" lon="8.407427124416632"><ele>109.0</ele><time>2026-05-03T13:43:25Z</time></trkpt><trkpt lat="44.89573888144331" lon="8.407653316310231"><ele>109.0</ele><time>2026-05-03T13:43:26Z</time></trkpt><trkpt lat="44.89581126834963" lon="8.407880301086642"><ele>109.0</ele><time>2026-05-03T13:43:26.999Z</time></trkpt><trkpt lat="44.895859449835335" lon="8.408143360990676"><ele>109.0</ele><time>2026-05-03T13:43:27.999Z</time></trkpt><trkpt lat="44.89588137442749" lon="8.408388499144065"><ele>109.25</ele><time>2026-05-03T13:43:28.999Z</time></trkpt><trkpt lat="44.89592470968423" lon="8.408600965496786"><ele>109.5</ele><time>2026-05-03T13:43:29.999Z</time></trkpt><trkpt lat="44.89595456864894" lon="8.408796256370756"><ele>109.75</ele><time>2026-05-03T13:43:30.999Z</time></trkpt><trkpt lat="44.89596914675922" lon="8.408931870429454"><ele>110.0</ele><time>2026-05-03T13:43:31.999Z</time></trkpt><trkpt lat="44.89599652947694" lon="8.409025414595417"><ele>110.0</ele><time>2026-05-03T13:43:32.999Z</time></trkpt><trkpt lat="44.89603568593411" lon="8.409095573712333"><ele>110.0</ele><time>2026-05-03T13:43:33.999Z</time></trkpt><trkpt lat="44.89618585884865" lon="8.409155672769781"><ele>110.0</ele><time>2026-05-03T13:43:35.999Z</time></trkpt><trkpt lat="44.896282536503705" lon="8.409122147162496"><ele>110.0</ele><time>2026-05-03T13:43:36.999Z</time></trkpt><trkpt lat="44.89641117643039" lon="8.409091759392226"><ele>110.0</ele><time>2026-05-03T13:43:37.999Z</time></trkpt><trkpt lat="44.89653832949274" lon="8.409051521088095"><ele>110.0</ele><time>2026-05-03T13:43:38.999Z</time></trkpt><trkpt lat="44.89668363484906" lon="8.408985161274785"><ele>110.0</ele><time>2026-05-03T13:43:39.999Z</time></trkpt><trkpt lat="44.896843239508854" lon="8.408947947332598"><ele>110.0</ele><time>2026-05-03T13:43:40.999Z</time></trkpt><trkpt lat="44.896985765773586" lon="8.408897262821766"><ele>110.5</ele><time>2026-05-03T13:43:41.999Z</time></trkpt><trkpt lat="44.89711686711051" lon="8.40884213278198"><ele>111.0</ele><time>2026-05-03T13:43:42.999Z</time></trkpt><trkpt lat="44.897246071627656" lon="8.408794313878929"><ele>111.5</ele><time>2026-05-03T13:43:43.999Z</time></trkpt><trkpt lat="44.89735927559331" lon="8.40875477752624"><ele>112.0</ele><time>2026-05-03T13:43:44.999Z</time></trkpt><trkpt lat="44.897475647061015" lon="8.408711426725908"><ele>112.19999999999999</ele><time>2026-05-03T13:43:45.999Z</time></trkpt><trkpt lat="44.897579818380585" lon="8.408682235700232"><ele>112.39999999999999</ele><time>2026-05-03T13:43:46.999Z</time></trkpt><trkpt lat="44.897686904006406" lon="8.408652395599498"><ele>112.60000000000001</ele><time>2026-05-03T13:43:47.999Z</time></trkpt><trkpt lat="44.89779934755958" lon="8.408622710169956"><ele>112.80000000000001</ele><time>2026-05-03T13:43:48.999Z</time></trkpt><trkpt lat="44.89791123361776" lon="8.40860277712961"><ele>113.0</ele><time>2026-05-03T13:43:49.999Z</time></trkpt><trkpt lat="44.89801184934402" lon="8.408572943284632"><ele>113.2</ele><time>2026-05-03T13:43:50.999Z</time></trkpt><trkpt lat="44.89810812173112" lon="8.408548051676966"><ele>113.4</ele><time>2026-05-03T13:43:51.999Z</time></trkpt><trkpt lat="44.89820857347384" lon="8.4085229202359"><ele>113.60000000000001</ele><time>2026-05-03T13:43:52.999Z</time></trkpt><trkpt lat="44.89827801261671" lon="8.408552688263807"><ele>113.80000000000001</ele><time>2026-05-03T13:43:53.999Z</time></trkpt><trkpt lat="44.89831834927342" lon="8.408715155560838"><ele>114.0</ele><time>2026-05-03T13:43:55.999Z</time></trkpt><trkpt lat="44.898335865632646" lon="8.4088512334078"><ele>114.0</ele><time>2026-05-03T13:43:57.999Z</time></trkpt><trkpt lat="44.898379513816266" lon="8.408989995127643"><ele>114.0</ele><time>2026-05-03T13:43:59.999Z</time></trkpt><trkpt lat="44.898377175274604" lon="8.409092991598927"><ele>114.0</ele><time>2026-05-03T13:44:00.999Z</time></trkpt><trkpt lat="44.89837017693261" lon="8.40920302280489"><ele>114.0</ele><time>2026-05-03T13:44:01.999Z</time></trkpt><trkpt lat="44.8983943795205" lon="8.409343297054114"><ele>114.0</ele><time>2026-05-03T13:44:02.999Z</time></trkpt><trkpt lat="44.89841324018673" lon="8.409483256644068"><ele>113.75</ele><time>2026-05-03T13:44:03.999Z</time></trkpt><trkpt lat="44.89843861900892" lon="8.409658529867535"><ele>113.5</ele><time>2026-05-03T13:44:04.999Z</time></trkpt><trkpt lat="44.89845294242947" lon="8.4098443090963"><ele>113.25</ele><time>2026-05-03T13:44:05.999Z</time></trkpt><trkpt lat="44.89847239326002" lon="8.410035888372642"><ele>113.0</ele><time>2026-05-03T13:44:06.999Z</time></trkpt><trkpt lat="44.8984946802518" lon="8.410249482909698"><ele>113.0</ele><time>2026-05-03T13:44:07.999Z</time></trkpt><trkpt lat="44.898516731374166" lon="8.410459606809882"><ele>113.0</ele><time>2026-05-03T13:44:08.999Z</time></trkpt><trkpt lat="44.89854082936158" lon="8.410671263431057"><ele>113.0</ele><time>2026-05-03T13:44:09.999Z</time></trkpt><trkpt lat="44.89856526522786" lon="8.410889037630161"><ele>113.5</ele><time>2026-05-03T13:44:10.999Z</time></trkpt><trkpt lat="44.89858900990847" lon="8.411104140927334"><ele>114.0</ele><time>2026-05-03T13:44:11.999Z</time></trkpt><trkpt lat="44.89861194735917" lon="8.41131193152428"><ele>114.5</ele><time>2026-05-03T13:44:12.999Z</time></trkpt><trkpt lat="44.89863435900293" lon="8.411514958820765"><ele>115.0</ele><time>2026-05-03T13:44:14Z</time></trkpt><trkpt lat="44.89865704992416" lon="8.41172051612905"><ele>115.0</ele><time>2026-05-03T13:44:15Z</time></trkpt><trkpt lat="44.89868272355716" lon="8.411954054176853"><ele>115.0</ele><time>2026-05-03T13:44:16Z</time></trkpt><trkpt lat="44.89870492221171" lon="8.412160382140533"><ele>115.0</ele><time>2026-05-03T13:44:17Z</time></trkpt><trkpt lat="44.89872649582739" lon="8.412360900083875"><ele>115.25</ele><time>2026-05-03T13:44:18Z</time></trkpt><trkpt lat="44.898747292085744" lon="8.412554192789061"><ele>115.5</ele><time>2026-05-03T13:44:19Z</time></trkpt><trkpt lat="44.89876797903531" lon="8.412746469514909"><ele>115.75</ele><time>2026-05-03T13:44:20Z</time></trkpt><trkpt lat="44.89878889303136" lon="8.412940856572076"><ele>116.0</ele><time>2026-05-03T13:44:21Z</time></trkpt><trkpt lat="44.89880951692157" lon="8.413132547197614"><ele>116.25</ele><time>2026-05-03T13:44:22Z</time></trkpt><trkpt lat="44.89883023470226" lon="8.413323835717037"><ele>116.5</ele><time>2026-05-03T13:44:23Z</time></trkpt><trkpt lat="44.898851227070296" lon="8.413517142109335"><ele>116.75</ele><time>2026-05-03T13:44:24Z</time></trkpt><trkpt lat="44.8988725869005" lon="8.413715748974736"><ele>117.0</ele><time>2026-05-03T13:44:25Z</time></trkpt><trkpt lat="44.89889402249614" lon="8.413921607232854"><ele>117.33333333333334</ele><time>2026-05-03T13:44:26Z</time></trkpt><trkpt lat="44.89891649918427" lon="8.414137463705316"><ele>117.66666666666667</ele><time>2026-05-03T13:44:27Z</time></trkpt><trkpt lat="44.898954683162366" lon="8.41434492410362"><ele>118.0</ele><time>2026-05-03T13:44:28Z</time></trkpt><trkpt lat="44.89897540494952" lon="8.41455410440644"><ele>117.5</ele><time>2026-05-03T13:44:29Z</time></trkpt><trkpt lat="44.89899504206713" lon="8.414761127669314"><ele>117.0</ele><time>2026-05-03T13:44:30Z</time></trkpt><trkpt lat="44.8990123307298" lon="8.414961240028983"><ele>116.5</ele><time>2026-05-03T13:44:31Z</time></trkpt><trkpt lat="44.89903194637817" lon="8.41516316467653"><ele>116.0</ele><time>2026-05-03T13:44:32Z</time></trkpt><trkpt lat="44.899058497454035" lon="8.415358925953239"><ele>115.5</ele><time>2026-05-03T13:44:33Z</time></trkpt><trkpt lat="44.899072771229015" lon="8.415545389055906"><ele>115.0</ele><time>2026-05-03T13:44:34Z</time></trkpt><trkpt lat="44.899090461806274" lon="8.415737797564475"><ele>114.5</ele><time>2026-05-03T13:44:35Z</time></trkpt><trkpt lat="44.89910757700554" lon="8.415930731709905"><ele>114.0</ele><time>2026-05-03T13:44:36Z</time></trkpt><trkpt lat="44.89911914430718" lon="8.416124383913942"><ele>114.5</ele><time>2026-05-03T13:44:37Z</time></trkpt><trkpt lat="44.89914360250078" lon="8.41632170784147"><ele>115.0</ele><time>2026-05-03T13:44:38Z</time></trkpt><trkpt lat="44.89916767093751" lon="8.416505841801056"><ele>115.5</ele><time>2026-05-03T13:44:39Z</time></trkpt><trkpt lat="44.89918237300165" lon="8.416687541083562"><ele>116.0</ele><time>2026-05-03T13:44:40Z</time></trkpt><trkpt lat="44.899200956331924" lon="8.416870114157744"><ele>116.0</ele><time>2026-05-03T13:44:41Z</time></trkpt><trkpt lat="44.89922698262859" lon="8.417048126996368"><ele>116.0</ele><time>2026-05-03T13:44:42Z</time></trkpt><trkpt lat="44.8992468380165" lon="8.417220755032856"><ele>116.0</ele><time>2026-05-03T13:44:43Z</time></trkpt><trkpt lat="44.89926345180397" lon="8.417393854317108"><ele>116.0</ele><time>2026-05-03T13:44:44Z</time></trkpt><trkpt lat="44.8992820359168" lon="8.417561946613613"><ele>116.5</ele><time>2026-05-03T13:44:45Z</time></trkpt><trkpt lat="44.89930016805709" lon="8.41772912776761"><ele>117.0</ele><time>2026-05-03T13:44:46Z</time></trkpt><trkpt lat="44.899319873539646" lon="8.417899922379348"><ele>117.5</ele><time>2026-05-03T13:44:47Z</time></trkpt><trkpt lat="44.89933279820175" lon="8.418063503498358"><ele>118.0</ele><time>2026-05-03T13:44:48Z</time></trkpt><trkpt lat="44.89935323825324" lon="8.418225957863637"><ele>118.0</ele><time>2026-05-03T13:44:49Z</time></trkpt><trkpt lat="44.8993737413436" lon="8.418389817189318"><ele>118.0</ele><time>2026-05-03T13:44:50Z</time></trkpt><trkpt lat="44.89934936924907" lon="8.418557865757398"><ele>118.0</ele><time>2026-05-03T13:44:51Z</time></trkpt><trkpt lat="44.89936822218431" lon="8.418712250384274"><ele>118.0</ele><time>2026-05-03T13:44:52Z</time></trkpt><trkpt lat="44.89938427158759" lon="8.418873312175238"><ele>117.75</ele><time>2026-05-03T13:44:53Z</time></trkpt><trkpt lat="44.899401711484856" lon="8.419038659111813"><ele>117.5</ele><time>2026-05-03T13:44:54Z</time></trkpt><trkpt lat="44.89942880143169" lon="8.419203783452085"><ele>117.25</ele><time>2026-05-03T13:44:55Z</time></trkpt><trkpt lat="44.899448072994225" lon="8.419371622638097"><ele>117.0</ele><time>2026-05-03T13:44:56Z</time></trkpt><trkpt lat="44.899473303362505" lon="8.419556608365273"><ele>117.0</ele><time>2026-05-03T13:44:57Z</time></trkpt><trkpt lat="44.89950491063535" lon="8.419748099004773"><ele>117.0</ele><time>2026-05-03T13:44:58Z</time></trkpt><trkpt lat="44.899524935651975" lon="8.419919290625385"><ele>117.0</ele><time>2026-05-03T13:44:59Z</time></trkpt><trkpt lat="44.89954758999486" lon="8.420105719496219"><ele>117.0</ele><time>2026-05-03T13:45:00Z</time></trkpt><trkpt lat="44.89956170882984" lon="8.420294111028918"><ele>116.75</ele><time>2026-05-03T13:45:01Z</time></trkpt><trkpt lat="44.89957650316702" lon="8.42049378506955"><ele>116.5</ele><time>2026-05-03T13:45:02Z</time></trkpt><trkpt lat="44.89959556465516" lon="8.420689058384385"><ele>116.25</ele><time>2026-05-03T13:45:03Z</time></trkpt><trkpt lat="44.89961512967225" lon="8.42089647966419"><ele>116.0</ele><time>2026-05-03T13:45:04Z</time></trkpt><trkpt lat="44.89964470449377" lon="8.421097768958905"><ele>116.0</ele><time>2026-05-03T13:45:05Z</time></trkpt><trkpt lat="44.89966909470163" lon="8.421302519860257"><ele>116.0</ele><time>2026-05-03T13:45:06Z</time></trkpt><trkpt lat="44.89968687541088" lon="8.421509409442882"><ele>116.0</ele><time>2026-05-03T13:45:07Z</time></trkpt><trkpt lat="44.89971549104729" lon="8.421733722318477"><ele>116.0</ele><time>2026-05-03T13:45:08Z</time></trkpt><trkpt lat="44.89974667392745" lon="8.42196039919435"><ele>116.0</ele><time>2026-05-03T13:45:09Z</time></trkpt><trkpt lat="44.899765066372915" lon="8.42218367268216"><ele>116.0</ele><time>2026-05-03T13:45:10Z</time></trkpt><trkpt lat="44.89978872032432" lon="8.422408349213406"><ele>116.0</ele><time>2026-05-03T13:45:11Z</time></trkpt><trkpt lat="44.89980483787553" lon="8.422628035624248"><ele>116.0</ele><time>2026-05-03T13:45:12Z</time></trkpt><trkpt lat="44.89982171924376" lon="8.422845136064433"><ele>116.0</ele><time>2026-05-03T13:45:13Z</time></trkpt><trkpt lat="44.89983581475768" lon="8.423060839852283"><ele>116.33333333333333</ele><time>2026-05-03T13:45:14Z</time></trkpt><trkpt lat="44.89985707501593" lon="8.423279862762952"><ele>116.66666666666666</ele><time>2026-05-03T13:45:15Z</time></trkpt><trkpt lat="44.899882763962985" lon="8.423497972274909"><ele>117.0</ele><time>2026-05-03T13:45:16Z</time></trkpt><trkpt lat="44.89989762226048" lon="8.42371193260422"><ele>117.0</ele><time>2026-05-03T13:45:17Z</time></trkpt><trkpt lat="44.89991248203061" lon="8.423931296070691"><ele>117.0</ele><time>2026-05-03T13:45:18Z</time></trkpt><trkpt lat="44.89993957342387" lon="8.424154266814446"><ele>117.0</ele><time>2026-05-03T13:45:19Z</time></trkpt><trkpt lat="44.89996191445797" lon="8.424381161553184"><ele>117.0</ele><time>2026-05-03T13:45:20Z</time></trkpt><trkpt lat="44.899983345858814" lon="8.424603415987288"><ele>117.0</ele><time>2026-05-03T13:45:21Z</time></trkpt><trkpt lat="44.900007761436456" lon="8.424827501621557"><ele>117.0</ele><time>2026-05-03T13:45:22Z</time></trkpt><trkpt lat="44.90002895014177" lon="8.42504801863085"><ele>117.0</ele><time>2026-05-03T13:45:23Z</time></trkpt><trkpt lat="44.9000513769942" lon="8.425267482519947"><ele>117.0</ele><time>2026-05-03T13:45:24Z</time></trkpt><trkpt lat="44.90007093568506" lon="8.425488810905621"><ele>117.0</ele><time>2026-05-03T13:45:25Z</time></trkpt><trkpt lat="44.900093824686884" lon="8.42570425307242"><ele>117.0</ele><time>2026-05-03T13:45:26Z</time></trkpt><trkpt lat="44.90012017943757" lon="8.425923845090898"><ele>117.0</ele><time>2026-05-03T13:45:27Z</time></trkpt><trkpt lat="44.900142560071544" lon="8.426150897702591"><ele>117.0</ele><time>2026-05-03T13:45:28Z</time></trkpt><trkpt lat="44.900168012161984" lon="8.426375635391908"><ele>117.0</ele><time>2026-05-03T13:45:29Z</time></trkpt><trkpt lat="44.90017926872651" lon="8.426599223018318"><ele>117.0</ele><time>2026-05-03T13:45:30Z</time></trkpt><trkpt lat="44.90020837090065" lon="8.426825617350527"><ele>117.0</ele><time>2026-05-03T13:45:31Z</time></trkpt><trkpt lat="44.9002303738752" lon="8.427051144046674"><ele>117.0</ele><time>2026-05-03T13:45:32Z</time></trkpt><trkpt lat="44.900251171843195" lon="8.42727519391228"><ele>117.0</ele><time>2026-05-03T13:45:33Z</time></trkpt><trkpt lat="44.900277038435846" lon="8.427508951471397"><ele>117.0</ele><time>2026-05-03T13:45:33.999Z</time></trkpt><trkpt lat="44.90030006558029" lon="8.427730956516577"><ele>117.0</ele><time>2026-05-03T13:45:34.999Z</time></trkpt><trkpt lat="44.90031543280724" lon="8.427960550915383"><ele>117.0</ele><time>2026-05-03T13:45:35.999Z</time></trkpt><trkpt lat="44.90032950987469" lon="8.428183816853203"><ele>117.0</ele><time>2026-05-03T13:45:36.999Z</time></trkpt><trkpt lat="44.90035408044113" lon="8.428409154423646"><ele>117.0</ele><time>2026-05-03T13:45:37.999Z</time></trkpt><trkpt lat="44.90036846441246" lon="8.428639845206186"><ele>117.0</ele><time>2026-05-03T13:45:38.999Z</time></trkpt><trkpt lat="44.900402598160774" lon="8.428868964204982"><ele>117.0</ele><time>2026-05-03T13:45:39.999Z</time></trkpt><trkpt lat="44.900420707099514" lon="8.429096584818378"><ele>117.0</ele><time>2026-05-03T13:45:40.999Z</time></trkpt><trkpt lat="44.90044843829351" lon="8.42933029503437"><ele>117.0</ele><time>2026-05-03T13:45:41.999Z</time></trkpt><trkpt lat="44.90047398723645" lon="8.429566025904935"><ele>117.0</ele><time>2026-05-03T13:45:42.999Z</time></trkpt><trkpt lat="44.90050075140976" lon="8.429786869821365"><ele>116.33333333333334</ele><time>2026-05-03T13:45:43.999Z</time></trkpt><trkpt lat="44.900518512321135" lon="8.430024706012448"><ele>115.66666666666667</ele><time>2026-05-03T13:45:44.999Z</time></trkpt><trkpt lat="44.90053161606097" lon="8.430266664053754"><ele>115.0</ele><time>2026-05-03T13:45:45.999Z</time></trkpt><trkpt lat="44.900533363740216" lon="8.430499059505845"><ele>114.66666666666667</ele><time>2026-05-03T13:45:46.999Z</time></trkpt><trkpt lat="44.900556693277224" lon="8.43073614683657"><ele>114.33333333333334</ele><time>2026-05-03T13:45:47.999Z</time></trkpt><trkpt lat="44.90058153038986" lon="8.430976224090712"><ele>114.0</ele><time>2026-05-03T13:45:48.999Z</time></trkpt><trkpt lat="44.90059544405376" lon="8.431213815803426"><ele>114.33333333333334</ele><time>2026-05-03T13:45:49.999Z</time></trkpt><trkpt lat="44.90062455138951" lon="8.4314537979632"><ele>114.66666666666667</ele><time>2026-05-03T13:45:50.999Z</time></trkpt><trkpt lat="44.90063092199662" lon="8.431692781245355"><ele>115.0</ele><time>2026-05-03T13:45:51.999Z</time></trkpt><trkpt lat="44.90064075749079" lon="8.431926326586362"><ele>114.66666666666667</ele><time>2026-05-03T13:45:52.999Z</time></trkpt><trkpt lat="44.90065466553836" lon="8.432163110475354"><ele>114.33333333333334</ele><time>2026-05-03T13:45:53.999Z</time></trkpt><trkpt lat="44.900668496537726" lon="8.432404859440938"><ele>114.0</ele><time>2026-05-03T13:45:54.999Z</time></trkpt><trkpt lat="44.900701485853375" lon="8.432663660062394"><ele>114.0</ele><time>2026-05-03T13:45:55.999Z</time></trkpt><trkpt lat="44.90073985128484" lon="8.432925079612655"><ele>114.0</ele><time>2026-05-03T13:45:56.999Z</time></trkpt><trkpt lat="44.90076750671996" lon="8.433171221779258"><ele>114.0</ele><time>2026-05-03T13:45:57.999Z</time></trkpt><trkpt lat="44.900794564734106" lon="8.433425186607057"><ele>113.66666666666666</ele><time>2026-05-03T13:45:58.999Z</time></trkpt><trkpt lat="44.900813605157914" lon="8.433670277258711"><ele>113.33333333333333</ele><time>2026-05-03T13:45:59.999Z</time></trkpt><trkpt lat="44.90082369391462" lon="8.433901706835007"><ele>113.0</ele><time>2026-05-03T13:46:00.999Z</time></trkpt><trkpt lat="44.900855135308674" lon="8.434132242140903"><ele>113.0</ele><time>2026-05-03T13:46:01.999Z</time></trkpt><trkpt lat="44.90089041296441" lon="8.434370700502035"><ele>113.0</ele><time>2026-05-03T13:46:02.999Z</time></trkpt><trkpt lat="44.90090233239918" lon="8.434605406215708"><ele>113.0</ele><time>2026-05-03T13:46:03.999Z</time></trkpt><trkpt lat="44.90092027191161" lon="8.43484653629817"><ele>113.0</ele><time>2026-05-03T13:46:04.999Z</time></trkpt><trkpt lat="44.900958058353986" lon="8.43507742218052"><ele>113.0</ele><time>2026-05-03T13:46:05.999Z</time></trkpt><trkpt lat="44.90097263875817" lon="8.43530021092861"><ele>113.0</ele><time>2026-05-03T13:46:06.999Z</time></trkpt><trkpt lat="44.900986969992154" lon="8.435525495722695"><ele>113.0</ele><time>2026-05-03T13:46:07.999Z</time></trkpt><trkpt lat="44.90101562900135" lon="8.43573948726519"><ele>113.0</ele><time>2026-05-03T13:46:08.999Z</time></trkpt><trkpt lat="44.90102965959573" lon="8.435966619832302"><ele>113.0</ele><time>2026-05-03T13:46:09.999Z</time></trkpt><trkpt lat="44.90103772576497" lon="8.436196581730657"><ele>113.33333333333333</ele><time>2026-05-03T13:46:10.999Z</time></trkpt><trkpt lat="44.901020224151694" lon="8.43642098467105"><ele>113.66666666666666</ele><time>2026-05-03T13:46:11.999Z</time></trkpt><trkpt lat="44.9009957289172" lon="8.436660219089434"><ele>114.0</ele><time>2026-05-03T13:46:12.999Z</time></trkpt><trkpt lat="44.90097074169752" lon="8.436884604349334"><ele>114.0</ele><time>2026-05-03T13:46:13.999Z</time></trkpt><trkpt lat="44.90094247245446" lon="8.437112102094233"><ele>114.0</ele><time>2026-05-03T13:46:14.999Z</time></trkpt><trkpt lat="44.900912469017854" lon="8.437322198131184"><ele>114.0</ele><time>2026-05-03T13:46:15.999Z</time></trkpt><trkpt lat="44.900890250484856" lon="8.43753273087437"><ele>113.5</ele><time>2026-05-03T13:46:16.999Z</time></trkpt><trkpt lat="44.90087860289048" lon="8.437725351693912"><ele>113.0</ele><time>2026-05-03T13:46:17.999Z</time></trkpt><trkpt lat="44.90086015618388" lon="8.437905602989307"><ele>112.5</ele><time>2026-05-03T13:46:18.999Z</time></trkpt><trkpt lat="44.900840227331486" lon="8.438084883491738"><ele>112.0</ele><time>2026-05-03T13:46:20Z</time></trkpt><trkpt lat="44.90082894114975" lon="8.43824423828671"><ele>111.83333333333334</ele><time>2026-05-03T13:46:21Z</time></trkpt><trkpt lat="44.90079924862839" lon="8.438379759413976"><ele>111.66666666666667</ele><time>2026-05-03T13:46:22Z</time></trkpt><trkpt lat="44.900747144949165" lon="8.438486729896782"><ele>111.5</ele><time>2026-05-03T13:46:23Z</time></trkpt><trkpt lat="44.9006983464008" lon="8.438573314114015"><ele>111.33333333333334</ele><time>2026-05-03T13:46:24Z</time></trkpt><trkpt lat="44.9006789655017" lon="8.438673989381032"><ele>111.16666666666667</ele><time>2026-05-03T13:46:25Z</time></trkpt><trkpt lat="44.900704036186156" lon="8.438770348135439"><ele>111.0</ele><time>2026-05-03T13:46:26Z</time></trkpt><trkpt lat="44.900766738448326" lon="8.438851400124124"><ele>111.0</ele><time>2026-05-03T13:46:27Z</time></trkpt><trkpt lat="44.900839252484644" lon="8.43888218796809"><ele>111.0</ele><time>2026-05-03T13:46:28Z</time></trkpt><trkpt lat="44.90091637698641" lon="8.438868803037632"><ele>111.0</ele><time>2026-05-03T13:46:29Z</time></trkpt><trkpt lat="44.90104821580906" lon="8.438865968326601"><ele>111.0</ele><time>2026-05-03T13:46:30Z</time></trkpt><trkpt lat="44.90116854455676" lon="8.438919640082624"><ele>111.0</ele><time>2026-05-03T13:46:31Z</time></trkpt><trkpt lat="44.901278349389315" lon="8.438957356468217"><ele>111.5</ele><time>2026-05-03T13:46:32Z</time></trkpt><trkpt lat="44.90140374809194" lon="8.438990715594942"><ele>112.0</ele><time>2026-05-03T13:46:33Z</time></trkpt><trkpt lat="44.901535319500105" lon="8.43901051305735"><ele>112.5</ele><time>2026-05-03T13:46:34Z</time></trkpt><trkpt lat="44.90166518847445" lon="8.439059065536647"><ele>113.0</ele><time>2026-05-03T13:46:35Z</time></trkpt><trkpt lat="44.901802309960964" lon="8.439097984178597"><ele>113.25</ele><time>2026-05-03T13:46:36Z</time></trkpt><trkpt lat="44.901940988606256" lon="8.439137344776848"><ele>113.5</ele><time>2026-05-03T13:46:37Z</time></trkpt><trkpt lat="44.90208593078945" lon="8.43917508131055"><ele>113.75</ele><time>2026-05-03T13:46:38Z</time></trkpt><trkpt lat="44.90223228776816" lon="8.439212014749668"><ele>114.0</ele><time>2026-05-03T13:46:39Z</time></trkpt><trkpt lat="44.902383424338055" lon="8.4392392833082"><ele>114.0</ele><time>2026-05-03T13:46:40Z</time></trkpt><trkpt lat="44.902533564663514" lon="8.43925644528799"><ele>114.0</ele><time>2026-05-03T13:46:41Z</time></trkpt><trkpt lat="44.902688477766745" lon="8.439271491303838"><ele>114.0</ele><time>2026-05-03T13:46:42Z</time></trkpt><trkpt lat="44.90283649674835" lon="8.439285639140712"><ele>113.75</ele><time>2026-05-03T13:46:43Z</time></trkpt><trkpt lat="44.90298081566489" lon="8.439297828698521"><ele>113.5</ele><time>2026-05-03T13:46:44Z</time></trkpt><trkpt lat="44.90312211746178" lon="8.439309809900402"><ele>113.25</ele><time>2026-05-03T13:46:45Z</time></trkpt><trkpt lat="44.90327067236376" lon="8.439299603212982"><ele>113.0</ele><time>2026-05-03T13:46:46Z</time></trkpt><trkpt lat="44.90341552122167" lon="8.439340097389344"><ele>112.5</ele><time>2026-05-03T13:46:47Z</time></trkpt><trkpt lat="44.90354985291543" lon="8.439360382269196"><ele>112.0</ele><time>2026-05-03T13:46:48Z</time></trkpt><trkpt lat="44.90369223393344" lon="8.439373593512752"><ele>111.5</ele><time>2026-05-03T13:46:49Z</time></trkpt><trkpt lat="44.90383737741363" lon="8.43938614751102"><ele>111.0</ele><time>2026-05-03T13:46:50Z</time></trkpt><trkpt lat="44.90397962246267" lon="8.439399532359113"><ele>111.0</ele><time>2026-05-03T13:46:51Z</time></trkpt><trkpt lat="44.90412036685486" lon="8.439412338356606"><ele>111.0</ele><time>2026-05-03T13:46:52Z</time></trkpt><trkpt lat="44.90424350120946" lon="8.439430950814973"><ele>111.0</ele><time>2026-05-03T13:46:53Z</time></trkpt><trkpt lat="44.904354331716554" lon="8.439447954671946"><ele>111.0</ele><time>2026-05-03T13:46:54Z</time></trkpt><trkpt lat="44.904457962260594" lon="8.43946128930359"><ele>110.19999999999999</ele><time>2026-05-03T13:46:55Z</time></trkpt><trkpt lat="44.904567759610565" lon="8.439461313955764"><ele>109.39999999999999</ele><time>2026-05-03T13:46:56Z</time></trkpt><trkpt lat="44.904650992891455" lon="8.43945899707701"><ele>108.6</ele><time>2026-05-03T13:46:57Z</time></trkpt><trkpt lat="44.904724778056845" lon="8.439457096864107"><ele>107.8</ele><time>2026-05-03T13:46:58Z</time></trkpt><trkpt lat="44.904819223000125" lon="8.439461438041322"><ele>107.0</ele><time>2026-05-03T13:47:00Z</time></trkpt><trkpt lat="44.90490802797229" lon="8.439456550567215"><ele>106.99999999999999</ele><time>2026-05-03T13:47:03Z</time></trkpt><trkpt lat="44.904983321766004" lon="8.439486658019359"><ele>107.0</ele><time>2026-05-03T13:47:15Z</time></trkpt><trkpt lat="44.90507110263255" lon="8.439495128101383"><ele>107.0</ele><time>2026-05-03T13:47:17Z</time></trkpt><trkpt lat="44.905179567820674" lon="8.43950559404165"><ele>107.0</ele><time>2026-05-03T13:47:19Z</time></trkpt><trkpt lat="44.90524847041777" lon="8.439512242507247"><ele>106.99999999999999</ele><time>2026-05-03T13:47:20Z</time></trkpt><trkpt lat="44.905322806900706" lon="8.439519241806819"><ele>107.0</ele><time>2026-05-03T13:47:21Z</time></trkpt><trkpt lat="44.905404746188935" lon="8.439525752670189"><ele>107.8</ele><time>2026-05-03T13:47:22Z</time></trkpt><trkpt lat="44.90549024477151" lon="8.439529923709754"><ele>108.6</ele><time>2026-05-03T13:47:23Z</time></trkpt><trkpt lat="44.90559677050414" lon="8.439527985376392"><ele>109.39999999999999</ele><time>2026-05-03T13:47:24Z</time></trkpt><trkpt lat="44.90570071021678" lon="8.439521450255395"><ele>110.19999999999999</ele><time>2026-05-03T13:47:25Z</time></trkpt><trkpt lat="44.90581651146076" lon="8.439508050059194"><ele>111.0</ele><time>2026-05-03T13:47:26Z</time></trkpt><trkpt lat="44.90593471897338" lon="8.439487618748881"><ele>111.5</ele><time>2026-05-03T13:47:27Z</time></trkpt><trkpt lat="44.906059846308345" lon="8.43945830297367"><ele>112.0</ele><time>2026-05-03T13:47:28Z</time></trkpt><trkpt lat="44.90619585546734" lon="8.439418325680586"><ele>112.5</ele><time>2026-05-03T13:47:29Z</time></trkpt><trkpt lat="44.90632414267161" lon="8.439377813937066"><ele>113.0</ele><time>2026-05-03T13:47:30Z</time></trkpt><trkpt lat="44.90644829342012" lon="8.439316554215639"><ele>113.0</ele><time>2026-05-03T13:47:31Z</time></trkpt><trkpt lat="44.90657233944324" lon="8.439282926221624"><ele>113.0</ele><time>2026-05-03T13:47:32Z</time></trkpt><trkpt lat="44.90670109148095" lon="8.439239800243378"><ele>113.0</ele><time>2026-05-03T13:47:33Z</time></trkpt><trkpt lat="44.90683380153845" lon="8.439185136667493"><ele>113.0</ele><time>2026-05-03T13:47:34Z</time></trkpt><trkpt lat="44.90697056415761" lon="8.439141318672611"><ele>112.66666666666666</ele><time>2026-05-03T13:47:35Z</time></trkpt><trkpt lat="44.90711450624374" lon="8.439096514380214"><ele>112.33333333333334</ele><time>2026-05-03T13:47:36Z</time></trkpt><trkpt lat="44.907263163482114" lon="8.43904688699551"><ele>112.0</ele><time>2026-05-03T13:47:37Z</time></trkpt><trkpt lat="44.9074107465462" lon="8.43899928064316"><ele>112.0</ele><time>2026-05-03T13:47:38Z</time></trkpt><trkpt lat="44.90756098766341" lon="8.43894430352575"><ele>112.0</ele><time>2026-05-03T13:47:38.999Z</time></trkpt><trkpt lat="44.90771397772113" lon="8.438877551786184"><ele>112.0</ele><time>2026-05-03T13:47:39.999Z</time></trkpt><trkpt lat="44.90786904065614" lon="8.438829427892822"><ele>112.66666666666667</ele><time>2026-05-03T13:47:40.999Z</time></trkpt><trkpt lat="44.908037461591675" lon="8.438769564928716"><ele>113.33333333333334</ele><time>2026-05-03T13:47:41.999Z</time></trkpt><trkpt lat="44.90820978293591" lon="8.438732731400728"><ele>114.0</ele><time>2026-05-03T13:47:42.999Z</time></trkpt><trkpt lat="44.90838492380403" lon="8.43873448202424"><ele>113.66666666666666</ele><time>2026-05-03T13:47:43.999Z</time></trkpt><trkpt lat="44.90857296572119" lon="8.438736428479622"><ele>113.33333333333333</ele><time>2026-05-03T13:47:44.999Z</time></trkpt><trkpt lat="44.90875681311091" lon="8.438743252743318"><ele>113.0</ele><time>2026-05-03T13:47:45.999Z</time></trkpt><trkpt lat="44.908936928018335" lon="8.438746305023018"><ele>113.0</ele><time>2026-05-03T13:47:46.999Z</time></trkpt><trkpt lat="44.90911884153361" lon="8.438695133821739"><ele>113.0</ele><time>2026-05-03T13:47:47.999Z</time></trkpt><trkpt lat="44.90929129540442" lon="8.438638118111"><ele>113.0</ele><time>2026-05-03T13:47:48.999Z</time></trkpt><trkpt lat="44.909467870797236" lon="8.438557733546611"><ele>113.0</ele><time>2026-05-03T13:47:49.999Z</time></trkpt><trkpt lat="44.90964775368378" lon="8.438464413114009"><ele>113.0</ele><time>2026-05-03T13:47:50.999Z</time></trkpt><trkpt lat="44.90982344733658" lon="8.438372407066375"><ele>113.0</ele><time>2026-05-03T13:47:51.999Z</time></trkpt><trkpt lat="44.91000699008527" lon="8.438302654127824"><ele>113.0</ele><time>2026-05-03T13:47:52.999Z</time></trkpt><trkpt lat="44.91018438425222" lon="8.438214565652311"><ele>113.0</ele><time>2026-05-03T13:47:53.999Z</time></trkpt><trkpt lat="44.91036345646246" lon="8.438132969759398"><ele>113.0</ele><time>2026-05-03T13:47:54.999Z</time></trkpt><trkpt lat="44.910541830212246" lon="8.438068234049117"><ele>113.0</ele><time>2026-05-03T13:47:55.999Z</time></trkpt><trkpt lat="44.91071893003204" lon="8.438025673465457"><ele>113.0</ele><time>2026-05-03T13:47:56.999Z</time></trkpt><trkpt lat="44.91090527237429" lon="8.438001274725575"><ele>113.0</ele><time>2026-05-03T13:47:57.999Z</time></trkpt><trkpt lat="44.9110815058972" lon="8.437994248663376"><ele>113.0</ele><time>2026-05-03T13:47:58.999Z</time></trkpt><trkpt lat="44.91126272498129" lon="8.437972141965393"><ele>113.0</ele><time>2026-05-03T13:47:59.999Z</time></trkpt><trkpt lat="44.911446259043224" lon="8.437977689293952"><ele>113.0</ele><time>2026-05-03T13:48:00.999Z</time></trkpt><trkpt lat="44.911624848321196" lon="8.437973849703054"><ele>112.66666666666666</ele><time>2026-05-03T13:48:01.999Z</time></trkpt><trkpt lat="44.91178667960671" lon="8.437979299684732"><ele>112.33333333333334</ele><time>2026-05-03T13:48:02.999Z</time></trkpt><trkpt lat="44.91194350179443" lon="8.437978591686903"><ele>112.0</ele><time>2026-05-03T13:48:03.999Z</time></trkpt><trkpt lat="44.912093953599936" lon="8.437984642756485"><ele>112.0</ele><time>2026-05-03T13:48:04.999Z</time></trkpt><trkpt lat="44.912240297482384" lon="8.437985235487423"><ele>112.0</ele><time>2026-05-03T13:48:05.999Z</time></trkpt><trkpt lat="44.91239632150898" lon="8.437969527412902"><ele>112.0</ele><time>2026-05-03T13:48:06.999Z</time></trkpt><trkpt lat="44.91255464989737" lon="8.437958125713251"><ele>113.0</ele><time>2026-05-03T13:48:07.999Z</time></trkpt><trkpt lat="44.91271232069669" lon="8.437948435052705"><ele>114.0</ele><time>2026-05-03T13:48:08.999Z</time></trkpt><trkpt lat="44.912873011815535" lon="8.437947755176797"><ele>115.0</ele><time>2026-05-03T13:48:09.999Z</time></trkpt><trkpt lat="44.91303210682134" lon="8.437936643658222"><ele>115.0</ele><time>2026-05-03T13:48:10.999Z</time></trkpt><trkpt lat="44.913215467165564" lon="8.437923601565052"><ele>115.0</ele><time>2026-05-03T13:48:11.999Z</time></trkpt><trkpt lat="44.91338859933844" lon="8.437924736218287"><ele>115.0</ele><time>2026-05-03T13:48:12.999Z</time></trkpt><trkpt lat="44.913565826755764" lon="8.437934252514355"><ele>115.33333333333334</ele><time>2026-05-03T13:48:13.999Z</time></trkpt><trkpt lat="44.91373402592258" lon="8.437946982240309"><ele>115.66666666666666</ele><time>2026-05-03T13:48:14.999Z</time></trkpt><trkpt lat="44.913903656771836" lon="8.437961215666219"><ele>116.0</ele><time>2026-05-03T13:48:15.999Z</time></trkpt><trkpt lat="44.91407696613318" lon="8.437977553589887"><ele>116.66666666666666</ele><time>2026-05-03T13:48:16.999Z</time></trkpt><trkpt lat="44.91425921835207" lon="8.437982843772664"><ele>117.33333333333334</ele><time>2026-05-03T13:48:17.999Z</time></trkpt><trkpt lat="44.914432417517176" lon="8.437990678569841"><ele>118.0</ele><time>2026-05-03T13:48:18.999Z</time></trkpt><trkpt lat="44.91461618187332" lon="8.437993632262721"><ele>117.66666666666667</ele><time>2026-05-03T13:48:19.999Z</time></trkpt><trkpt lat="44.91481697350193" lon="8.437966582581957"><ele>117.33333333333334</ele><time>2026-05-03T13:48:20.999Z</time></trkpt><trkpt lat="44.91501688293227" lon="8.437924902983696"><ele>117.0</ele><time>2026-05-03T13:48:21.999Z</time></trkpt><trkpt lat="44.91523125938658" lon="8.437884881587623"><ele>117.0</ele><time>2026-05-03T13:48:22.999Z</time></trkpt><trkpt lat="44.915429158827436" lon="8.437816441083966"><ele>117.0</ele><time>2026-05-03T13:48:23.999Z</time></trkpt><trkpt lat="44.91560000818992" lon="8.437747101609064"><ele>117.0</ele><time>2026-05-03T13:48:24.999Z</time></trkpt><trkpt lat="44.91576869726417" lon="8.437654160404575"><ele>116.0</ele><time>2026-05-03T13:48:26Z</time></trkpt><trkpt lat="44.91593467125022" lon="8.437610484231033"><ele>115.0</ele><time>2026-05-03T13:48:27Z</time></trkpt><trkpt lat="44.91609889154792" lon="8.437530464520556"><ele>114.0</ele><time>2026-05-03T13:48:28Z</time></trkpt><trkpt lat="44.91625630427166" lon="8.437399707350798"><ele>114.0</ele><time>2026-05-03T13:48:29Z</time></trkpt><trkpt lat="44.91640982510229" lon="8.437277043722192"><ele>114.0</ele><time>2026-05-03T13:48:30Z</time></trkpt><trkpt lat="44.91655178508352" lon="8.437105918979908"><ele>114.0</ele><time>2026-05-03T13:48:31Z</time></trkpt><trkpt lat="44.91669284798834" lon="8.436925633373171"><ele>113.66666666666666</ele><time>2026-05-03T13:48:32Z</time></trkpt><trkpt lat="44.91683303942388" lon="8.436744680709975"><ele>113.33333333333333</ele><time>2026-05-03T13:48:33Z</time></trkpt><trkpt lat="44.91698407314065" lon="8.436547752798308"><ele>113.0</ele><time>2026-05-03T13:48:34Z</time></trkpt><trkpt lat="44.91711905326635" lon="8.436368087801338"><ele>113.0</ele><time>2026-05-03T13:48:35Z</time></trkpt><trkpt lat="44.917272925733684" lon="8.436199749802954"><ele>113.0</ele><time>2026-05-03T13:48:36Z</time></trkpt><trkpt lat="44.91743110494732" lon="8.436041352018801"><ele>113.0</ele><time>2026-05-03T13:48:37Z</time></trkpt><trkpt lat="44.917584608933105" lon="8.43589625224019"><ele>112.0</ele><time>2026-05-03T13:48:38Z</time></trkpt><trkpt lat="44.91774416056752" lon="8.43575072132159"><ele>111.0</ele><time>2026-05-03T13:48:39Z</time></trkpt><trkpt lat="44.917919701421276" lon="8.435591778206788"><ele>110.0</ele><time>2026-05-03T13:48:40Z</time></trkpt><trkpt lat="44.91808653167163" lon="8.435448254649389"><ele>110.0</ele><time>2026-05-03T13:48:41Z</time></trkpt><trkpt lat="44.91825050029273" lon="8.43530751790156"><ele>110.0</ele><time>2026-05-03T13:48:42Z</time></trkpt><trkpt lat="44.9184098640439" lon="8.435179739809818"><ele>110.0</ele><time>2026-05-03T13:48:43Z</time></trkpt><trkpt lat="44.91858630360376" lon="8.435051501226562"><ele>111.33333333333333</ele><time>2026-05-03T13:48:44Z</time></trkpt><trkpt lat="44.9187633358238" lon="8.434981702664071"><ele>112.66666666666666</ele><time>2026-05-03T13:48:45Z</time></trkpt><trkpt lat="44.918947360244864" lon="8.43495079944708"><ele>114.0</ele><time>2026-05-03T13:48:46Z</time></trkpt><trkpt lat="44.9191423751715" lon="8.434938569647647"><ele>115.33333333333334</ele><time>2026-05-03T13:48:47Z</time></trkpt><trkpt lat="44.91933289656601" lon="8.434948158207872"><ele>116.66666666666667</ele><time>2026-05-03T13:48:48Z</time></trkpt><trkpt lat="44.919524883423826" lon="8.4349424809917"><ele>118.0</ele><time>2026-05-03T13:48:49Z</time></trkpt><trkpt lat="44.919712429040594" lon="8.43494639552532"><ele>118.0</ele><time>2026-05-03T13:48:50Z</time></trkpt><trkpt lat="44.91989683055938" lon="8.43494837238184"><ele>118.0</ele><time>2026-05-03T13:48:51Z</time></trkpt><trkpt lat="44.92008074439657" lon="8.434946360423154"><ele>118.0</ele><time>2026-05-03T13:48:52Z</time></trkpt><trkpt lat="44.92026762327257" lon="8.434937086317262"><ele>117.66666666666667</ele><time>2026-05-03T13:48:53Z</time></trkpt><trkpt lat="44.920450958164146" lon="8.43494890204697"><ele>117.33333333333334</ele><time>2026-05-03T13:48:54Z</time></trkpt><trkpt lat="44.92064643235952" lon="8.434945928739475"><ele>117.0</ele><time>2026-05-03T13:48:55Z</time></trkpt><trkpt lat="44.92085703494715" lon="8.434915228211192"><ele>116.66666666666666</ele><time>2026-05-03T13:48:56Z</time></trkpt><trkpt lat="44.92106558171337" lon="8.434916100272472"><ele>116.33333333333333</ele><time>2026-05-03T13:48:57Z</time></trkpt><trkpt lat="44.921254712152084" lon="8.434919820131649"><ele>116.0</ele><time>2026-05-03T13:48:58Z</time></trkpt><trkpt lat="44.92147582586759" lon="8.43490566730471"><ele>116.0</ele><time>2026-05-03T13:48:59Z</time></trkpt><trkpt lat="44.92166919516767" lon="8.434917523776713"><ele>116.0</ele><time>2026-05-03T13:49:00Z</time></trkpt><trkpt lat="44.92188988777116" lon="8.434902708942605"><ele>116.0</ele><time>2026-05-03T13:49:01Z</time></trkpt><trkpt lat="44.92210599366402" lon="8.434881634613932"><ele>117.33333333333333</ele><time>2026-05-03T13:49:02Z</time></trkpt><trkpt lat="44.92231969227625" lon="8.434867667576825"><ele>118.66666666666666</ele><time>2026-05-03T13:49:03Z</time></trkpt><trkpt lat="44.92252976345323" lon="8.434862442067702"><ele>120.0</ele><time>2026-05-03T13:49:04Z</time></trkpt><trkpt lat="44.92273934158433" lon="8.434861895313261"><ele>121.5</ele><time>2026-05-03T13:49:05Z</time></trkpt><trkpt lat="44.922964550535184" lon="8.434868359042165"><ele>123.0</ele><time>2026-05-03T13:49:06Z</time></trkpt><trkpt lat="44.92318910167151" lon="8.434869724514018"><ele>123.66666666666666</ele><time>2026-05-03T13:49:07Z</time></trkpt><trkpt lat="44.923398795604385" lon="8.4348667439207"><ele>124.33333333333333</ele><time>2026-05-03T13:49:08Z</time></trkpt><trkpt lat="44.92362764690419" lon="8.434863491008517"><ele>125.0</ele><time>2026-05-03T13:49:09Z</time></trkpt><trkpt lat="44.923824496971264" lon="8.434860692971723"><ele>125.0</ele><time>2026-05-03T13:49:10Z</time></trkpt><trkpt lat="44.92403381163351" lon="8.434857717763233"><ele>125.0</ele><time>2026-05-03T13:49:11Z</time></trkpt><trkpt lat="44.92423717665761" lon="8.434855219071967"><ele>125.0</ele><time>2026-05-03T13:49:12Z</time></trkpt><trkpt lat="44.92443498196369" lon="8.434854331529245"><ele>125.0</ele><time>2026-05-03T13:49:13Z</time></trkpt><trkpt lat="44.924626278132365" lon="8.434871350989765"><ele>125.0</ele><time>2026-05-03T13:49:14Z</time></trkpt><trkpt lat="44.92481565084254" lon="8.43492116688233"><ele>125.0</ele><time>2026-05-03T13:49:15Z</time></trkpt><trkpt lat="44.925012505297886" lon="8.43499055115191"><ele>125.0</ele><time>2026-05-03T13:49:16Z</time></trkpt><trkpt lat="44.92520980935325" lon="8.43508149584328"><ele>125.0</ele><time>2026-05-03T13:49:17Z</time></trkpt><trkpt lat="44.925401496892604" lon="8.435165670575676"><ele>125.0</ele><time>2026-05-03T13:49:18Z</time></trkpt><trkpt lat="44.92557019438982" lon="8.435311836602757"><ele>125.0</ele><time>2026-05-03T13:49:19Z</time></trkpt><trkpt lat="44.925752152585595" lon="8.435434710525843"><ele>125.0</ele><time>2026-05-03T13:49:20Z</time></trkpt><trkpt lat="44.92591011706321" lon="8.435580986286856"><ele>125.0</ele><time>2026-05-03T13:49:21Z</time></trkpt><trkpt lat="44.92607760607707" lon="8.43571771541714"><ele>125.0</ele><time>2026-05-03T13:49:22Z</time></trkpt><trkpt lat="44.92624918346183" lon="8.435833283487428"><ele>125.0</ele><time>2026-05-03T13:49:23Z</time></trkpt><trkpt lat="44.92643359609998" lon="8.435923436006105"><ele>125.0</ele><time>2026-05-03T13:49:24Z</time></trkpt><trkpt lat="44.9266151618705" lon="8.435999733293237"><ele>126.33333333333333</ele><time>2026-05-03T13:49:25Z</time></trkpt><trkpt lat="44.92680753160965" lon="8.436026654888392"><ele>127.66666666666666</ele><time>2026-05-03T13:49:26Z</time></trkpt><trkpt lat="44.927003827840835" lon="8.436023232089928"><ele>129.0</ele><time>2026-05-03T13:49:27Z</time></trkpt><trkpt lat="44.92721598943104" lon="8.435995004169046"><ele>129.0</ele><time>2026-05-03T13:49:28Z</time></trkpt><trkpt lat="44.92740486126037" lon="8.43595006911866"><ele>129.0</ele><time>2026-05-03T13:49:29Z</time></trkpt><trkpt lat="44.9276068491594" lon="8.435901628951179"><ele>129.0</ele><time>2026-05-03T13:49:30Z</time></trkpt><trkpt lat="44.92780120286926" lon="8.435855021474358"><ele>128.33333333333334</ele><time>2026-05-03T13:49:31Z</time></trkpt><trkpt lat="44.927993245809304" lon="8.435813954765353"><ele>127.66666666666667</ele><time>2026-05-03T13:49:32Z</time></trkpt><trkpt lat="44.92818801978582" lon="8.43577322299728"><ele>127.0</ele><time>2026-05-03T13:49:33Z</time></trkpt><trkpt lat="44.928378091729016" lon="8.43573347432359"><ele>127.66666666666667</ele><time>2026-05-03T13:49:34Z</time></trkpt><trkpt lat="44.92857106129719" lon="8.435690368650214"><ele>128.33333333333334</ele><time>2026-05-03T13:49:35Z</time></trkpt><trkpt lat="44.92875712375378" lon="8.435648416318882"><ele>129.0</ele><time>2026-05-03T13:49:36Z</time></trkpt><trkpt lat="44.928949586774884" lon="8.435604943598383"><ele>129.0</ele><time>2026-05-03T13:49:37Z</time></trkpt><trkpt lat="44.92914246354561" lon="8.4355612627996"><ele>129.0</ele><time>2026-05-03T13:49:38Z</time></trkpt><trkpt lat="44.929333793442254" lon="8.435520308606295"><ele>129.0</ele><time>2026-05-03T13:49:39Z</time></trkpt><trkpt lat="44.92952312722846" lon="8.435480472419874"><ele>129.66666666666666</ele><time>2026-05-03T13:49:40Z</time></trkpt><trkpt lat="44.92972021562152" lon="8.435438509486564"><ele>130.33333333333331</ele><time>2026-05-03T13:49:41Z</time></trkpt><trkpt lat="44.92991446198805" lon="8.435396249959117"><ele>131.0</ele><time>2026-05-03T13:49:41.999Z</time></trkpt><trkpt lat="44.93010678414053" lon="8.435354409061159"><ele>131.0</ele><time>2026-05-03T13:49:42.999Z</time></trkpt><trkpt lat="44.93029840986483" lon="8.435312719683152"><ele>131.0</ele><time>2026-05-03T13:49:43.999Z</time></trkpt><trkpt lat="44.93048622707135" lon="8.4352712112986"><ele>131.0</ele><time>2026-05-03T13:49:44.999Z</time></trkpt><trkpt lat="44.93067664309978" lon="8.435228041738103"><ele>131.0</ele><time>2026-05-03T13:49:45.999Z</time></trkpt><trkpt lat="44.930866147162554" lon="8.43518507893548"><ele>131.0</ele><time>2026-05-03T13:49:46.999Z</time></trkpt><trkpt lat="44.931053561195846" lon="8.435143151478975"><ele>131.0</ele><time>2026-05-03T13:49:47.999Z</time></trkpt><trkpt lat="44.93124371873797" lon="8.435102332714107"><ele>131.33333333333331</ele><time>2026-05-03T13:49:48.999Z</time></trkpt><trkpt lat="44.931424222537565" lon="8.435047229083546"><ele>131.66666666666666</ele><time>2026-05-03T13:49:49.999Z</time></trkpt><trkpt lat="44.93160542409631" lon="8.435017836196586"><ele>132.0</ele><time>2026-05-03T13:49:50.999Z</time></trkpt><trkpt lat="44.931789643837604" lon="8.434982946011042"><ele>131.33333333333334</ele><time>2026-05-03T13:49:51.999Z</time></trkpt><trkpt lat="44.93197156225117" lon="8.434937971651566"><ele>130.66666666666669</ele><time>2026-05-03T13:49:52.999Z</time></trkpt><trkpt lat="44.93215047285612" lon="8.434920843324015"><ele>130.0</ele><time>2026-05-03T13:49:53.999Z</time></trkpt><trkpt lat="44.932331066937635" lon="8.434902152073128"><ele>130.0</ele><time>2026-05-03T13:49:54.999Z</time></trkpt><trkpt lat="44.93251239468752" lon="8.434895915023827"><ele>130.0</ele><time>2026-05-03T13:49:55.999Z</time></trkpt><trkpt lat="44.93269660496218" lon="8.434915151178275"><ele>130.0</ele><time>2026-05-03T13:49:56.999Z</time></trkpt><trkpt lat="44.93288055121052" lon="8.434937726226869"><ele>129.66666666666669</ele><time>2026-05-03T13:49:57.999Z</time></trkpt><trkpt lat="44.93306071832867" lon="8.43498182122949"><ele>129.33333333333334</ele><time>2026-05-03T13:49:58.999Z</time></trkpt><trkpt lat="44.933237409098695" lon="8.43504459822103"><ele>129.0</ele><time>2026-05-03T13:49:59.999Z</time></trkpt><trkpt lat="44.933410540248865" lon="8.435129183022946"><ele>128.66666666666666</ele><time>2026-05-03T13:50:00.999Z</time></trkpt><trkpt lat="44.93358798772282" lon="8.435219223869924"><ele>128.33333333333331</ele><time>2026-05-03T13:50:01.999Z</time></trkpt><trkpt lat="44.933758577308595" lon="8.43532510875093"><ele>128.0</ele><time>2026-05-03T13:50:02.999Z</time></trkpt><trkpt lat="44.93393340539103" lon="8.435442795050799"><ele>127.66666666666666</ele><time>2026-05-03T13:50:03.999Z</time></trkpt><trkpt lat="44.93410488922108" lon="8.435560639565201"><ele>127.33333333333334</ele><time>2026-05-03T13:50:04.999Z</time></trkpt><trkpt lat="44.934292409366" lon="8.435669505489223"><ele>127.0</ele><time>2026-05-03T13:50:05.999Z</time></trkpt><trkpt lat="44.93448313695098" lon="8.435778826918742"><ele>128.0</ele><time>2026-05-03T13:50:06.999Z</time></trkpt><trkpt lat="44.93465906765749" lon="8.435893493478654"><ele>129.0</ele><time>2026-05-03T13:50:07.999Z</time></trkpt><trkpt lat="44.934821719880894" lon="8.43598894984924"><ele>130.0</ele><time>2026-05-03T13:50:08.999Z</time></trkpt><trkpt lat="44.934986540196924" lon="8.436088116303367"><ele>130.0</ele><time>2026-05-03T13:50:09.999Z</time></trkpt><trkpt lat="44.93515396850164" lon="8.436180344868534"><ele>130.0</ele><time>2026-05-03T13:50:10.999Z</time></trkpt><trkpt lat="44.93531002707485" lon="8.43628630024467"><ele>130.0</ele><time>2026-05-03T13:50:11.999Z</time></trkpt><trkpt lat="44.935522501907755" lon="8.436404445276517"><ele>130.0</ele><time>2026-05-03T13:50:12.999Z</time></trkpt><trkpt lat="44.93570648501462" lon="8.436514134386318"><ele>130.0</ele><time>2026-05-03T13:50:13.999Z</time></trkpt><trkpt lat="44.935864009580875" lon="8.436598752538572"><ele>130.0</ele><time>2026-05-03T13:50:14.999Z</time></trkpt><trkpt lat="44.936048739156945" lon="8.436676691949856"><ele>129.66666666666669</ele><time>2026-05-03T13:50:15.999Z</time></trkpt><trkpt lat="44.93628263632527" lon="8.436740289959785"><ele>129.33333333333334</ele><time>2026-05-03T13:50:16.999Z</time></trkpt><trkpt lat="44.93648492528144" lon="8.436814613876047"><ele>129.0</ele><time>2026-05-03T13:50:17.999Z</time></trkpt><trkpt lat="44.93669288211342" lon="8.436871159226978"><ele>130.0</ele><time>2026-05-03T13:50:18.999Z</time></trkpt><trkpt lat="44.93690356273118" lon="8.436924670203059"><ele>131.0</ele><time>2026-05-03T13:50:19.999Z</time></trkpt><trkpt lat="44.937101325499654" lon="8.436972685723065"><ele>132.0</ele><time>2026-05-03T13:50:20.999Z</time></trkpt><trkpt lat="44.9372991388036" lon="8.437016401135951"><ele>132.0</ele><time>2026-05-03T13:50:21.999Z</time></trkpt><trkpt lat="44.937505856630125" lon="8.437056289781667"><ele>132.0</ele><time>2026-05-03T13:50:22.999Z</time></trkpt><trkpt lat="44.93770903487662" lon="8.437084846069295"><ele>132.0</ele><time>2026-05-03T13:50:23.999Z</time></trkpt><trkpt lat="44.93790661131667" lon="8.437094412554263"><ele>132.0</ele><time>2026-05-03T13:50:24.999Z</time></trkpt><trkpt lat="44.93811739602733" lon="8.437080951538036"><ele>132.0</ele><time>2026-05-03T13:50:25.999Z</time></trkpt><trkpt lat="44.938333379291336" lon="8.43704335228781"><ele>132.0</ele><time>2026-05-03T13:50:26.999Z</time></trkpt><trkpt lat="44.93854846342522" lon="8.436991004049645"><ele>132.0</ele><time>2026-05-03T13:50:27.999Z</time></trkpt><trkpt lat="44.93876529647837" lon="8.436929417534495"><ele>132.0</ele><time>2026-05-03T13:50:28.999Z</time></trkpt><trkpt lat="44.93897376012022" lon="8.436866843089323"><ele>132.0</ele><time>2026-05-03T13:50:29.999Z</time></trkpt><trkpt lat="44.939171748704496" lon="8.43680888841259"><ele>133.0</ele><time>2026-05-03T13:50:30.999Z</time></trkpt><trkpt lat="44.93937616016622" lon="8.43675067032137"><ele>134.0</ele><time>2026-05-03T13:50:32Z</time></trkpt><trkpt lat="44.93958586550072" lon="8.436688685172195"><ele>135.0</ele><time>2026-05-03T13:50:33Z</time></trkpt><trkpt lat="44.93977873441043" lon="8.436630423606855"><ele>135.0</ele><time>2026-05-03T13:50:34Z</time></trkpt><trkpt lat="44.939974972838286" lon="8.43655341076109"><ele>135.0</ele><time>2026-05-03T13:50:35Z</time></trkpt><trkpt lat="44.940179801916834" lon="8.43651034811153"><ele>135.0</ele><time>2026-05-03T13:50:36Z</time></trkpt><trkpt lat="44.9403769221335" lon="8.436453921590507"><ele>134.66666666666666</ele><time>2026-05-03T13:50:37Z</time></trkpt><trkpt lat="44.94057212745046" lon="8.436395857343431"><ele>134.33333333333331</ele><time>2026-05-03T13:50:38Z</time></trkpt><trkpt lat="44.94076606385977" lon="8.436333932528068"><ele>134.0</ele><time>2026-05-03T13:50:39Z</time></trkpt><trkpt lat="44.94096229333285" lon="8.43625314134444"><ele>134.0</ele><time>2026-05-03T13:50:40Z</time></trkpt><trkpt lat="44.941156174150095" lon="8.436157605723908"><ele>134.0</ele><time>2026-05-03T13:50:41Z</time></trkpt><trkpt lat="44.941351247842256" lon="8.436054248135852"><ele>134.0</ele><time>2026-05-03T13:50:42Z</time></trkpt><trkpt lat="44.94154654942703" lon="8.435943160121319"><ele>134.33333333333331</ele><time>2026-05-03T13:50:43Z</time></trkpt><trkpt lat="44.94173857613257" lon="8.435835626580225"><ele>134.66666666666666</ele><time>2026-05-03T13:50:44Z</time></trkpt><trkpt lat="44.941930516634685" lon="8.435728141371241"><ele>135.0</ele><time>2026-05-03T13:50:45Z</time></trkpt><trkpt lat="44.94211645248882" lon="8.435625330117917"><ele>135.0</ele><time>2026-05-03T13:50:46Z</time></trkpt><trkpt lat="44.942293159111706" lon="8.435529148697087"><ele>135.0</ele><time>2026-05-03T13:50:47Z</time></trkpt><trkpt lat="44.94246974245334" lon="8.435434011602458"><ele>135.0</ele><time>2026-05-03T13:50:48Z</time></trkpt><trkpt lat="44.9426410619949" lon="8.435335808622591"><ele>134.66666666666666</ele><time>2026-05-03T13:50:49Z</time></trkpt><trkpt lat="44.94281415008962" lon="8.435232967725536"><ele>134.33333333333331</ele><time>2026-05-03T13:50:50Z</time></trkpt><trkpt lat="44.94298583260728" lon="8.435123784795637"><ele>134.0</ele><time>2026-05-03T13:50:51Z</time></trkpt><trkpt lat="44.94314662654764" lon="8.43500882480502"><ele>134.0</ele><time>2026-05-03T13:50:52Z</time></trkpt><trkpt lat="44.943299005018105" lon="8.43488573671093"><ele>134.0</ele><time>2026-05-03T13:50:53Z</time></trkpt><trkpt lat="44.94344779154826" lon="8.434758769776439"><ele>134.0</ele><time>2026-05-03T13:50:54Z</time></trkpt><trkpt lat="44.94358656202568" lon="8.43464045755094"><ele>133.33333333333331</ele><time>2026-05-03T13:50:55Z</time></trkpt><trkpt lat="44.94372822429813" lon="8.434519789622348"><ele>132.66666666666666</ele><time>2026-05-03T13:50:56Z</time></trkpt><trkpt lat="44.94387125119874" lon="8.434410946995989"><ele>132.0</ele><time>2026-05-03T13:50:57Z</time></trkpt><trkpt lat="44.94402820312301" lon="8.434306586220131"><ele>132.0</ele><time>2026-05-03T13:50:58Z</time></trkpt><trkpt lat="44.9441925969923" lon="8.43421364333801"><ele>132.0</ele><time>2026-05-03T13:50:59Z</time></trkpt><trkpt lat="44.944363338633885" lon="8.434119766307477"><ele>132.0</ele><time>2026-05-03T13:51:00Z</time></trkpt><trkpt lat="44.9445227340111" lon="8.434039917138938"><ele>131.33333333333334</ele><time>2026-05-03T13:51:01Z</time></trkpt><trkpt lat="44.94469708004663" lon="8.433969057262539"><ele>130.66666666666669</ele><time>2026-05-03T13:51:02Z</time></trkpt><trkpt lat="44.944858029962866" lon="8.43387591718726"><ele>130.0</ele><time>2026-05-03T13:51:03Z</time></trkpt><trkpt lat="44.94503562277291" lon="8.433885744104318"><ele>130.66666666666669</ele><time>2026-05-03T13:51:04Z</time></trkpt><trkpt lat="44.94521308092789" lon="8.433939839607826"><ele>131.33333333333334</ele><time>2026-05-03T13:51:05Z</time></trkpt><trkpt lat="44.945398423811454" lon="8.433975721241003"><ele>132.0</ele><time>2026-05-03T13:51:06Z</time></trkpt><trkpt lat="44.94556717248111" lon="8.434079921507553"><ele>132.0</ele><time>2026-05-03T13:51:07Z</time></trkpt><trkpt lat="44.94574743916891" lon="8.434114541933914"><ele>132.0</ele><time>2026-05-03T13:51:08Z</time></trkpt><trkpt lat="44.94593724107373" lon="8.434150993594766"><ele>132.0</ele><time>2026-05-03T13:51:09Z</time></trkpt><trkpt lat="44.946129369485746" lon="8.434188817486271"><ele>132.33333333333334</ele><time>2026-05-03T13:51:10Z</time></trkpt><trkpt lat="44.94632429421209" lon="8.434227412609813"><ele>132.66666666666669</ele><time>2026-05-03T13:51:11Z</time></trkpt><trkpt lat="44.946520223327795" lon="8.434266206602942"><ele>133.0</ele><time>2026-05-03T13:51:12Z</time></trkpt><trkpt lat="44.94671555689688" lon="8.434304882726241"><ele>133.0</ele><time>2026-05-03T13:51:13Z</time></trkpt><trkpt lat="44.94691541930632" lon="8.434343760126175"><ele>133.0</ele><time>2026-05-03T13:51:14Z</time></trkpt><trkpt lat="44.947117367645895" lon="8.434382022680952"><ele>133.0</ele><time>2026-05-03T13:51:15Z</time></trkpt><trkpt lat="44.94731306157085" lon="8.434418161097556"><ele>133.0</ele><time>2026-05-03T13:51:16Z</time></trkpt><trkpt lat="44.947508883121394" lon="8.43445416782849"><ele>133.0</ele><time>2026-05-03T13:51:17Z</time></trkpt><trkpt lat="44.947713413907465" lon="8.434492494175462"><ele>133.0</ele><time>2026-05-03T13:51:18Z</time></trkpt><trkpt lat="44.94790580714545" lon="8.434530285022797"><ele>134.33333333333334</ele><time>2026-05-03T13:51:19Z</time></trkpt><trkpt lat="44.948108979391556" lon="8.434570193194459"><ele>135.66666666666666</ele><time>2026-05-03T13:51:20Z</time></trkpt><trkpt lat="44.94832207923346" lon="8.434611271458495"><ele>137.0</ele><time>2026-05-03T13:51:21Z</time></trkpt><trkpt lat="44.948521117530774" lon="8.434649260058125"><ele>138.66666666666666</ele><time>2026-05-03T13:51:22Z</time></trkpt><trkpt lat="44.94871748191153" lon="8.43468673823987"><ele>140.33333333333334</ele><time>2026-05-03T13:51:23Z</time></trkpt><trkpt lat="44.948914701129894" lon="8.43472438305326"><ele>142.0</ele><time>2026-05-03T13:51:24Z</time></trkpt><trkpt lat="44.94911741048731" lon="8.434763444922359"><ele>142.33333333333334</ele><time>2026-05-03T13:51:25Z</time></trkpt><trkpt lat="44.94930437121208" lon="8.434799438453746"><ele>142.66666666666666</ele><time>2026-05-03T13:51:26Z</time></trkpt><trkpt lat="44.94949201033059" lon="8.434835486259088"><ele>143.0</ele><time>2026-05-03T13:51:27Z</time></trkpt><trkpt lat="44.94967405010293" lon="8.43487045835726"><ele>143.0</ele><time>2026-05-03T13:51:28Z</time></trkpt><trkpt lat="44.94984307740332" lon="8.434902930579733"><ele>143.0</ele><time>2026-05-03T13:51:29Z</time></trkpt><trkpt lat="44.95001009354507" lon="8.434935016465406"><ele>143.0</ele><time>2026-05-03T13:51:30Z</time></trkpt><trkpt lat="44.9501777929131" lon="8.434967233591458"><ele>143.66666666666666</ele><time>2026-05-03T13:51:31Z</time></trkpt><trkpt lat="44.95034052898552" lon="8.434998497220684"><ele>144.33333333333334</ele><time>2026-05-03T13:51:32Z</time></trkpt><trkpt lat="44.95049937234168" lon="8.435028347400998"><ele>145.0</ele><time>2026-05-03T13:51:33Z</time></trkpt><trkpt lat="44.95065581483887" lon="8.43505770414935"><ele>145.0</ele><time>2026-05-03T13:51:34Z</time></trkpt><trkpt lat="44.950803062639295" lon="8.43508296738175"><ele>145.0</ele><time>2026-05-03T13:51:35Z</time></trkpt><trkpt lat="44.95093935059999" lon="8.435108437500826"><ele>145.0</ele><time>2026-05-03T13:51:36Z</time></trkpt><trkpt lat="44.95107429668822" lon="8.435135591332704"><ele>145.0</ele><time>2026-05-03T13:51:37Z</time></trkpt><trkpt lat="44.951211952859815" lon="8.435145277229365"><ele>145.25</ele><time>2026-05-03T13:51:38Z</time></trkpt><trkpt lat="44.95135940867468" lon="8.435133895989622"><ele>145.5</ele><time>2026-05-03T13:51:39Z</time></trkpt><trkpt lat="44.95149957756411" lon="8.43510489960904"><ele>145.75</ele><time>2026-05-03T13:51:40Z</time></trkpt><trkpt lat="44.95163132455121" lon="8.435064121974184"><ele>146.0</ele><time>2026-05-03T13:51:41Z</time></trkpt><trkpt lat="44.95176883398835" lon="8.435008665093909"><ele>145.4</ele><time>2026-05-03T13:51:42Z</time></trkpt><trkpt lat="44.951885454205254" lon="8.43494751900156"><ele>144.8</ele><time>2026-05-03T13:51:43Z</time></trkpt><trkpt lat="44.95199954497457" lon="8.434874336877305"><ele>144.20000000000002</ele><time>2026-05-03T13:51:44Z</time></trkpt><trkpt lat="44.9520757125707" lon="8.434821866338757"><ele>143.6</ele><time>2026-05-03T13:51:45Z</time></trkpt><trkpt lat="44.952147622334316" lon="8.434775161951821"><ele>143.0</ele><time>2026-05-03T13:51:46Z</time></trkpt><trkpt lat="44.95222852051402" lon="8.434770440459433"><ele>143.0</ele><time>2026-05-03T13:51:48Z</time></trkpt><trkpt lat="44.95230243562547" lon="8.434804345148677"><ele>143.0</ele><time>2026-05-03T13:51:56.999Z</time></trkpt><trkpt lat="44.9523979608651" lon="8.434812508372978"><ele>143.0</ele><time>2026-05-03T13:51:58.999Z</time></trkpt><trkpt lat="44.95244943951506" lon="8.434697132882148"><ele>143.0</ele><time>2026-05-03T13:51:59.999Z</time></trkpt><trkpt lat="44.95250092003785" lon="8.434615257902971"><ele>143.0</ele><time>2026-05-03T13:52:00.999Z</time></trkpt><trkpt lat="44.952541589400475" lon="8.434516689609966"><ele>143.0</ele><time>2026-05-03T13:52:01.999Z</time></trkpt><trkpt lat="44.95261500265233" lon="8.434443163416121"><ele>141.75</ele><time>2026-05-03T13:52:02.999Z</time></trkpt><trkpt lat="44.95270094440675" lon="8.434351905690434"><ele>140.5</ele><time>2026-05-03T13:52:03.999Z</time></trkpt><trkpt lat="44.95279379615826" lon="8.434266168426566"><ele>139.25</ele><time>2026-05-03T13:52:04.999Z</time></trkpt><trkpt lat="44.95288729849301" lon="8.43418404431476"><ele>138.0</ele><time>2026-05-03T13:52:05.999Z</time></trkpt><trkpt lat="44.95299970587122" lon="8.434089934268464"><ele>138.0</ele><time>2026-05-03T13:52:06.999Z</time></trkpt><trkpt lat="44.95311694800383" lon="8.433992999157972"><ele>138.0</ele><time>2026-05-03T13:52:07.999Z</time></trkpt><trkpt lat="44.95324104854034" lon="8.433894658256786"><ele>138.0</ele><time>2026-05-03T13:52:08.999Z</time></trkpt><trkpt lat="44.953364846526874" lon="8.433789337402155"><ele>138.0</ele><time>2026-05-03T13:52:09.999Z</time></trkpt><trkpt lat="44.95349622387038" lon="8.433687896198041"><ele>139.0</ele><time>2026-05-03T13:52:10.999Z</time></trkpt><trkpt lat="44.953628787404696" lon="8.433584176954852"><ele>140.0</ele><time>2026-05-03T13:52:11.999Z</time></trkpt><trkpt lat="44.953758124397496" lon="8.43347876059258"><ele>141.0</ele><time>2026-05-03T13:52:12.999Z</time></trkpt><trkpt lat="44.95388174615633" lon="8.433379937559447"><ele>142.0</ele><time>2026-05-03T13:52:13.999Z</time></trkpt><trkpt lat="44.954007248850985" lon="8.43327818614838"><ele>142.0</ele><time>2026-05-03T13:52:14.999Z</time></trkpt><trkpt lat="44.954130087458715" lon="8.433172478829976"><ele>142.0</ele><time>2026-05-03T13:52:15.999Z</time></trkpt><trkpt lat="44.954255248870325" lon="8.433064845985"><ele>142.0</ele><time>2026-05-03T13:52:16.999Z</time></trkpt><trkpt lat="44.95438227176699" lon="8.432948150864148"><ele>142.0</ele><time>2026-05-03T13:52:17.999Z</time></trkpt><trkpt lat="44.95450707491886" lon="8.432830061229179"><ele>141.5</ele><time>2026-05-03T13:52:18.999Z</time></trkpt><trkpt lat="44.95462883083401" lon="8.432717488223037"><ele>141.0</ele><time>2026-05-03T13:52:19.999Z</time></trkpt><trkpt lat="44.954753161116365" lon="8.432602428173276"><ele>140.5</ele><time>2026-05-03T13:52:20.999Z</time></trkpt><trkpt lat="44.954868222643924" lon="8.432501534192367"><ele>140.0</ele><time>2026-05-03T13:52:21.999Z</time></trkpt><trkpt lat="44.954982751975436" lon="8.432384742822943"><ele>140.5</ele><time>2026-05-03T13:52:22.999Z</time></trkpt><trkpt lat="44.95510722270069" lon="8.432273295716215"><ele>141.0</ele><time>2026-05-03T13:52:23.999Z</time></trkpt><trkpt lat="44.95522926272389" lon="8.432161702157439"><ele>141.5</ele><time>2026-05-03T13:52:24.999Z</time></trkpt><trkpt lat="44.955348096873024" lon="8.432053112955561"><ele>142.0</ele><time>2026-05-03T13:52:25.999Z</time></trkpt><trkpt lat="44.955472817836615" lon="8.43193320858692"><ele>142.0</ele><time>2026-05-03T13:52:26.999Z</time></trkpt><trkpt lat="44.955599477964924" lon="8.431821730128576"><ele>142.0</ele><time>2026-05-03T13:52:27.999Z</time></trkpt><trkpt lat="44.9557212256572" lon="8.431752634478032"><ele>142.0</ele><time>2026-05-03T13:52:28.999Z</time></trkpt><trkpt lat="44.95583780754489" lon="8.43168125643442"><ele>142.0</ele><time>2026-05-03T13:52:29.999Z</time></trkpt><trkpt lat="44.955953713034994" lon="8.431596087371222"><ele>142.25</ele><time>2026-05-03T13:52:30.999Z</time></trkpt><trkpt lat="44.95607111162682" lon="8.431519747970443"><ele>142.5</ele><time>2026-05-03T13:52:31.999Z</time></trkpt><trkpt lat="44.95618667151125" lon="8.431450185204334"><ele>142.75</ele><time>2026-05-03T13:52:32.999Z</time></trkpt><trkpt lat="44.956306793274884" lon="8.43137851437542"><ele>143.0</ele><time>2026-05-03T13:52:33.999Z</time></trkpt><trkpt lat="44.95642516194125" lon="8.431310447940758"><ele>143.25</ele><time>2026-05-03T13:52:34.999Z</time></trkpt><trkpt lat="44.956553310246434" lon="8.43127407205026"><ele>143.5</ele><time>2026-05-03T13:52:35.999Z</time></trkpt><trkpt lat="44.95666683189488" lon="8.431203099448203"><ele>143.75</ele><time>2026-05-03T13:52:36.999Z</time></trkpt><trkpt lat="44.95678532298721" lon="8.431198884226005"><ele>144.0</ele><time>2026-05-03T13:52:38Z</time></trkpt><trkpt lat="44.956897913498075" lon="8.43115012465926"><ele>144.2</ele><time>2026-05-03T13:52:39Z</time></trkpt><trkpt lat="44.957005418518165" lon="8.431102538874784"><ele>144.4</ele><time>2026-05-03T13:52:40Z</time></trkpt><trkpt lat="44.95711063655419" lon="8.431067692476239"><ele>144.6</ele><time>2026-05-03T13:52:41Z</time></trkpt><trkpt lat="44.95721739261384" lon="8.43102840175455"><ele>144.8</ele><time>2026-05-03T13:52:42Z</time></trkpt><trkpt lat="44.95732984674301" lon="8.430992229386153"><ele>145.0</ele><time>2026-05-03T13:52:43Z</time></trkpt><trkpt lat="44.95743499429838" lon="8.43095376050588"><ele>145.4</ele><time>2026-05-03T13:52:44Z</time></trkpt><trkpt lat="44.957540177125175" lon="8.430913674567996"><ele>145.8</ele><time>2026-05-03T13:52:45Z</time></trkpt><trkpt lat="44.957644043844724" lon="8.430873263707076"><ele>146.2</ele><time>2026-05-03T13:52:46Z</time></trkpt><trkpt lat="44.957755861045044" lon="8.430826046103803"><ele>146.6</ele><time>2026-05-03T13:52:47Z</time></trkpt><trkpt lat="44.95786138934186" lon="8.430791483725205"><ele>147.0</ele><time>2026-05-03T13:52:48Z</time></trkpt><trkpt lat="44.957964856460165" lon="8.430747170655827"><ele>147.0</ele><time>2026-05-03T13:52:49Z</time></trkpt><trkpt lat="44.958072607981435" lon="8.430708598563518"><ele>147.0</ele><time>2026-05-03T13:52:50Z</time></trkpt><trkpt lat="44.95817832553394" lon="8.4306649406768"><ele>147.0</ele><time>2026-05-03T13:52:51Z</time></trkpt><trkpt lat="44.95828711104789" lon="8.430618625939967"><ele>147.0</ele><time>2026-05-03T13:52:52Z</time></trkpt><trkpt lat="44.958394963295724" lon="8.430578954733207"><ele>147.0</ele><time>2026-05-03T13:52:53Z</time></trkpt><trkpt lat="44.95850433180821" lon="8.430533082889655"><ele>147.0</ele><time>2026-05-03T13:52:54Z</time></trkpt><trkpt lat="44.95862265474827" lon="8.430499871014309"><ele>147.0</ele><time>2026-05-03T13:52:55Z</time></trkpt><trkpt lat="44.95872434135851" lon="8.430446580724444"><ele>147.0</ele><time>2026-05-03T13:52:56Z</time></trkpt><trkpt lat="44.958828673975525" lon="8.430395587492978"><ele>147.0</ele><time>2026-05-03T13:52:57Z</time></trkpt><trkpt lat="44.95893595533181" lon="8.430349986677498"><ele>147.0</ele><time>2026-05-03T13:52:58Z</time></trkpt><trkpt lat="44.959037567969965" lon="8.430307044169755"><ele>147.0</ele><time>2026-05-03T13:52:59Z</time></trkpt><trkpt lat="44.959133386274715" lon="8.430284309907956"><ele>147.0</ele><time>2026-05-03T13:53:00Z</time></trkpt><trkpt lat="44.9592299148097" lon="8.43024710458903"><ele>147.0</ele><time>2026-05-03T13:53:01Z</time></trkpt><trkpt lat="44.959317503362946" lon="8.43021798087172"><ele>147.0</ele><time>2026-05-03T13:53:02Z</time></trkpt><trkpt lat="44.959401536129654" lon="8.43018278550181"><ele>147.33333333333334</ele><time>2026-05-03T13:53:03Z</time></trkpt><trkpt lat="44.95948331395667" lon="8.430158578592183"><ele>147.66666666666666</ele><time>2026-05-03T13:53:04Z</time></trkpt><trkpt lat="44.95955784702425" lon="8.43011605797536"><ele>148.0</ele><time>2026-05-03T13:53:05Z</time></trkpt><trkpt lat="44.959643845782864" lon="8.430133896774946"><ele>148.33333333333331</ele><time>2026-05-03T13:53:06Z</time></trkpt><trkpt lat="44.95972405443341" lon="8.430097237647741"><ele>148.66666666666666</ele><time>2026-05-03T13:53:07Z</time></trkpt><trkpt lat="44.959802298320106" lon="8.430059218931381"><ele>149.0</ele><time>2026-05-03T13:53:08Z</time></trkpt><trkpt lat="44.95988452078493" lon="8.430025784430363"><ele>149.0</ele><time>2026-05-03T13:53:09Z</time></trkpt><trkpt lat="44.959973424906124" lon="8.429992114649421"><ele>149.0</ele><time>2026-05-03T13:53:10Z</time></trkpt><trkpt lat="44.96006037477435" lon="8.429956258742516"><ele>149.0</ele><time>2026-05-03T13:53:11Z</time></trkpt><trkpt lat="44.96014245462813" lon="8.429926450675133"><ele>149.0</ele><time>2026-05-03T13:53:12Z</time></trkpt><trkpt lat="44.960223826634376" lon="8.429895390379144"><ele>149.0</ele><time>2026-05-03T13:53:13Z</time></trkpt><trkpt lat="44.96030376266795" lon="8.429873103194877"><ele>149.0</ele><time>2026-05-03T13:53:14Z</time></trkpt><trkpt lat="44.96037525477008" lon="8.429834977439237"><ele>148.83333333333331</ele><time>2026-05-03T13:53:15Z</time></trkpt><trkpt lat="44.960453368221984" lon="8.429802906565511"><ele>148.66666666666666</ele><time>2026-05-03T13:53:16Z</time></trkpt><trkpt lat="44.96052562459813" lon="8.429773073704952"><ele>148.5</ele><time>2026-05-03T13:53:17Z</time></trkpt><trkpt lat="44.960591892697074" lon="8.429745851275552"><ele>148.33333333333334</ele><time>2026-05-03T13:53:18Z</time></trkpt><trkpt lat="44.960656802592325" lon="8.429720629689578"><ele>148.16666666666669</ele><time>2026-05-03T13:53:19Z</time></trkpt><trkpt lat="44.96072083351219" lon="8.429716954918307"><ele>148.0</ele><time>2026-05-03T13:53:20Z</time></trkpt><trkpt lat="44.96081157477303" lon="8.42967930566754"><ele>148.16666666666669</ele><time>2026-05-03T13:53:22Z</time></trkpt><trkpt lat="44.96087432609586" lon="8.429661904394752"><ele>148.33333333333334</ele><time>2026-05-03T13:53:24Z</time></trkpt><trkpt lat="44.96093866919325" lon="8.429639879403961"><ele>148.5</ele><time>2026-05-03T13:53:27Z</time></trkpt><trkpt lat="44.96089234900973" lon="8.429558049281665"><ele>148.66666666666666</ele><time>2026-05-03T13:55:08Z</time></trkpt><trkpt lat="44.96095255998249" lon="8.429507838634041"><ele>148.83333333333331</ele><time>2026-05-03T13:55:16Z</time></trkpt><trkpt lat="44.961053741490915" lon="8.429507083937088"><ele>149.0</ele><time>2026-05-03T13:55:32Z</time></trkpt><trkpt lat="44.96097683445107" lon="8.429639786489707"><ele>149.0</ele><time>2026-05-03T13:55:33Z</time></trkpt><trkpt lat="44.9610360602173" lon="8.429568769723511"><ele>149.0</ele><time>2026-05-03T13:55:42Z</time></trkpt><trkpt lat="44.96102719967991" lon="8.429350284076692"><ele>149.0</ele><time>2026-05-03T13:56:48.999Z</time></trkpt><trkpt lat="44.96106151462232" lon="8.429575089595406"><ele>149.0</ele><time>2026-05-03T13:56:49.999Z</time></trkpt><trkpt lat="44.961058842714365" lon="8.429873761761481"><ele>152.0</ele><time>2026-05-03T13:58:19.017Z</time></trkpt><trkpt lat="44.96099728139619" lon="8.429410840644158"><ele>155.0</ele><time>2026-05-03T13:59:07.999Z</time></trkpt><trkpt lat="44.96119481531122" lon="8.429537827215034"><ele>155.0</ele><time>2026-05-03T13:59:08.999Z</time></trkpt><trkpt lat="44.96113980746513" lon="8.429585857983742"><ele>155.0</ele><time>2026-05-03T13:59:13Z</time></trkpt><trkpt lat="44.961073541239436" lon="8.42960378114029"><ele>155.0</ele><time>2026-05-03T13:59:15Z</time></trkpt><trkpt lat="44.96100879034187" lon="8.429622757764024"><ele>155.0</ele><time>2026-05-03T13:59:21Z</time></trkpt><trkpt lat="44.96093790913216" lon="8.429712771791749"><ele>155.0</ele><time>2026-05-03T14:00:12Z</time></trkpt><trkpt lat="44.96089925866018" lon="8.429588379867491"><ele>155.0</ele><time>2026-05-03T14:00:16Z</time></trkpt><trkpt lat="44.96090542635197" lon="8.429477561423415"><ele>155.0</ele><time>2026-05-03T14:01:59Z</time></trkpt><trkpt lat="44.961056545355326" lon="8.429432391111824"><ele>155.0</ele><time>2026-05-03T14:02:02Z</time></trkpt><trkpt lat="44.961471642401854" lon="8.429449139752661"><ele>154.0</ele><time>2026-05-03T14:02:07Z</time></trkpt><trkpt lat="44.961820603690455" lon="8.429427275665304"><ele>153.0</ele><time>2026-05-03T14:02:10Z</time></trkpt><trkpt lat="44.96215672258888" lon="8.4294177241227"><ele>153.0</ele><time>2026-05-03T14:02:13Z</time></trkpt><trkpt lat="44.96229856431186" lon="8.42936887625344"><ele>153.0</ele><time>2026-05-03T14:02:14Z</time></trkpt><trkpt lat="44.96244389902886" lon="8.429356429085036"><ele>153.0</ele><time>2026-05-03T14:02:15Z</time></trkpt><trkpt lat="44.962589339426664" lon="8.429421830315182"><ele>153.0</ele><time>2026-05-03T14:02:15.999Z</time></trkpt><trkpt lat="44.962709370586886" lon="8.429395014152622"><ele>152.5</ele><time>2026-05-03T14:02:16.999Z</time></trkpt><trkpt lat="44.96282641871089" lon="8.429365906965758"><ele>152.0</ele><time>2026-05-03T14:02:17.999Z</time></trkpt><trkpt lat="44.96294825557342" lon="8.429334173047092"><ele>151.5</ele><time>2026-05-03T14:02:18.999Z</time></trkpt><trkpt lat="44.96308677839665" lon="8.429295461730716"><ele>151.0</ele><time>2026-05-03T14:02:19.999Z</time></trkpt><trkpt lat="44.963195008648256" lon="8.429236847664702"><ele>151.0</ele><time>2026-05-03T14:02:20.999Z</time></trkpt><trkpt lat="44.96331831457663" lon="8.429232748283962"><ele>151.0</ele><time>2026-05-03T14:02:21.999Z</time></trkpt><trkpt lat="44.963439124161866" lon="8.42919365857612"><ele>151.0</ele><time>2026-05-03T14:02:22.999Z</time></trkpt><trkpt lat="44.96359209926134" lon="8.42913821374823"><ele>151.0</ele><time>2026-05-03T14:02:23.999Z</time></trkpt><trkpt lat="44.96370932402021" lon="8.429086883507434"><ele>151.0</ele><time>2026-05-03T14:02:24.999Z</time></trkpt><trkpt lat="44.963853213510816" lon="8.428989737583246"><ele>151.0</ele><time>2026-05-03T14:02:25.999Z</time></trkpt><trkpt lat="44.96395486552582" lon="8.428911442854767"><ele>151.0</ele><time>2026-05-03T14:02:26.999Z</time></trkpt><trkpt lat="44.96407559243196" lon="8.428851547780193"><ele>151.0</ele><time>2026-05-03T14:02:27.999Z</time></trkpt><trkpt lat="44.96419866497256" lon="8.428782357654669"><ele>151.0</ele><time>2026-05-03T14:02:28.999Z</time></trkpt><trkpt lat="44.964349872435" lon="8.428697231496606"><ele>151.0</ele><time>2026-05-03T14:02:29.999Z</time></trkpt><trkpt lat="44.96447077353469" lon="8.428626892877352"><ele>151.0</ele><time>2026-05-03T14:02:30.999Z</time></trkpt><trkpt lat="44.964605761169786" lon="8.42854721352485"><ele>151.0</ele><time>2026-05-03T14:02:31.999Z</time></trkpt><trkpt lat="44.96472588085552" lon="8.428476627065622"><ele>151.0</ele><time>2026-05-03T14:02:32.999Z</time></trkpt><trkpt lat="44.9648493392687" lon="8.42840479510952"><ele>151.0</ele><time>2026-05-03T14:02:33.999Z</time></trkpt><trkpt lat="44.964961307377514" lon="8.428292521510084"><ele>151.0</ele><time>2026-05-03T14:02:34.999Z</time></trkpt><trkpt lat="44.96508561168121" lon="8.428214013762949"><ele>151.0</ele><time>2026-05-03T14:02:35.999Z</time></trkpt><trkpt lat="44.96521201417663" lon="8.428137316790979"><ele>150.5</ele><time>2026-05-03T14:02:36.999Z</time></trkpt><trkpt lat="44.96533470902277" lon="8.428061779371001"><ele>150.0</ele><time>2026-05-03T14:02:37.999Z</time></trkpt><trkpt lat="44.96545459631723" lon="8.428052373798963"><ele>149.5</ele><time>2026-05-03T14:02:38.999Z</time></trkpt><trkpt lat="44.965577453905745" lon="8.427980670641771"><ele>149.0</ele><time>2026-05-03T14:02:39.999Z</time></trkpt><trkpt lat="44.96568628868365" lon="8.427901325197482"><ele>149.4</ele><time>2026-05-03T14:02:40.999Z</time></trkpt><trkpt lat="44.96579743673638" lon="8.42789189044241"><ele>149.8</ele><time>2026-05-03T14:02:41.999Z</time></trkpt><trkpt lat="44.96591223042098" lon="8.427817947490231"><ele>150.2</ele><time>2026-05-03T14:02:42.999Z</time></trkpt><trkpt lat="44.965998928332844" lon="8.427753070842757"><ele>150.6</ele><time>2026-05-03T14:02:43.999Z</time></trkpt><trkpt lat="44.96609368999974" lon="8.427702904169204"><ele>151.0</ele><time>2026-05-03T14:02:44.999Z</time></trkpt><trkpt lat="44.96618602954537" lon="8.427643010010046"><ele>151.0</ele><time>2026-05-03T14:02:45.999Z</time></trkpt><trkpt lat="44.96627901817312" lon="8.427589457088995"><ele>151.0</ele><time>2026-05-03T14:02:46.999Z</time></trkpt><trkpt lat="44.966368446469424" lon="8.427532898475365"><ele>151.0</ele><time>2026-05-03T14:02:47.999Z</time></trkpt><trkpt lat="44.96644553043943" lon="8.427485548575392"><ele>151.0</ele><time>2026-05-03T14:02:48.999Z</time></trkpt><trkpt lat="44.966536767027705" lon="8.427460777430273"><ele>151.0</ele><time>2026-05-03T14:02:49.999Z</time></trkpt><trkpt lat="44.9666120271386" lon="8.427413264984205"><ele>151.2</ele><time>2026-05-03T14:02:51.999Z</time></trkpt><trkpt lat="44.96669747094828" lon="8.42732570748328"><ele>151.39999999999998</ele><time>2026-05-03T14:03:02.999Z</time></trkpt><trkpt lat="44.96678044170447" lon="8.427277320092921"><ele>151.6</ele><time>2026-05-03T14:03:04.999Z</time></trkpt><trkpt lat="44.966846181431066" lon="8.427239396010362"><ele>151.79999999999998</ele><time>2026-05-03T14:03:05.999Z</time></trkpt><trkpt lat="44.96695413598196" lon="8.427177120575829"><ele>152.0</ele><time>2026-05-03T14:03:07.999Z</time></trkpt><trkpt lat="44.96707535818966" lon="8.427088299062644"><ele>152.16666666666666</ele><time>2026-05-03T14:03:09.999Z</time></trkpt><trkpt lat="44.967137797137646" lon="8.427070740104963"><ele>152.33333333333331</ele><time>2026-05-03T14:03:10.999Z</time></trkpt><trkpt lat="44.967201582807284" lon="8.427033543764848"><ele>152.5</ele><time>2026-05-03T14:03:11.999Z</time></trkpt><trkpt lat="44.96727518296877" lon="8.42697153872825"><ele>152.66666666666666</ele><time>2026-05-03T14:03:12.999Z</time></trkpt><trkpt lat="44.967362855491054" lon="8.426975423637122"><ele>152.83333333333334</ele><time>2026-05-03T14:03:13.999Z</time></trkpt><trkpt lat="44.96743260982653" lon="8.42693763448952"><ele>153.0</ele><time>2026-05-03T14:03:14.999Z</time></trkpt><trkpt lat="44.967504655875686" lon="8.426895053812618"><ele>152.6</ele><time>2026-05-03T14:03:15.999Z</time></trkpt><trkpt lat="44.96757305097653" lon="8.426847309282442"><ele>152.20000000000002</ele><time>2026-05-03T14:03:16.999Z</time></trkpt><trkpt lat="44.96764730637415" lon="8.426774063116037"><ele>151.8</ele><time>2026-05-03T14:03:17.999Z</time></trkpt><trkpt lat="44.967716265450015" lon="8.426728446989213"><ele>151.4</ele><time>2026-05-03T14:03:18.999Z</time></trkpt><trkpt lat="44.967805717094144" lon="8.42667279258962"><ele>151.0</ele><time>2026-05-03T14:03:20.999Z</time></trkpt><trkpt lat="44.96791312617967" lon="8.426620958753682"><ele>151.0</ele><time>2026-05-03T14:03:22.999Z</time></trkpt><trkpt lat="44.967990129951005" lon="8.426578868957066"><ele>151.0</ele><time>2026-05-03T14:03:23.999Z</time></trkpt><trkpt lat="44.968068281985744" lon="8.426533541145863"><ele>151.0</ele><time>2026-05-03T14:03:25Z</time></trkpt><trkpt lat="44.96816105970795" lon="8.426474317063784"><ele>151.0</ele><time>2026-05-03T14:03:26Z</time></trkpt><trkpt lat="44.96824967266151" lon="8.426429630486844"><ele>151.0</ele><time>2026-05-03T14:03:27Z</time></trkpt><trkpt lat="44.96834235958725" lon="8.42637506627302"><ele>151.0</ele><time>2026-05-03T14:03:28Z</time></trkpt><trkpt lat="44.968440360114826" lon="8.42630429722351"><ele>151.0</ele><time>2026-05-03T14:03:29Z</time></trkpt><trkpt lat="44.96853029739894" lon="8.426252231686902"><ele>151.0</ele><time>2026-05-03T14:03:30Z</time></trkpt><trkpt lat="44.968619512146695" lon="8.426186418777721"><ele>151.0</ele><time>2026-05-03T14:03:31Z</time></trkpt><trkpt lat="44.968714749304375" lon="8.426180495576071"><ele>151.0</ele><time>2026-05-03T14:03:32Z</time></trkpt><trkpt lat="44.96881679412665" lon="8.42611804818811"><ele>151.0</ele><time>2026-05-03T14:03:33Z</time></trkpt><trkpt lat="44.9689300866801" lon="8.426040849458307"><ele>151.0</ele><time>2026-05-03T14:03:34Z</time></trkpt><trkpt lat="44.96902492154225" lon="8.425966992571187"><ele>151.0</ele><time>2026-05-03T14:03:35Z</time></trkpt><trkpt lat="44.96912765983644" lon="8.425889537550413"><ele>151.0</ele><time>2026-05-03T14:03:36Z</time></trkpt><trkpt lat="44.969233245950704" lon="8.425845610638829"><ele>151.25</ele><time>2026-05-03T14:03:37Z</time></trkpt><trkpt lat="44.96933208052952" lon="8.425751696026659"><ele>151.5</ele><time>2026-05-03T14:03:38Z</time></trkpt><trkpt lat="44.969425286698716" lon="8.425654032381132"><ele>151.75</ele><time>2026-05-03T14:03:39Z</time></trkpt><trkpt lat="44.96951901527088" lon="8.42554984062101"><ele>152.0</ele><time>2026-05-03T14:03:40Z</time></trkpt><trkpt lat="44.96961076487909" lon="8.425439996572265"><ele>152.0</ele><time>2026-05-03T14:03:41Z</time></trkpt><trkpt lat="44.96970543041197" lon="8.425322189414954"><ele>152.0</ele><time>2026-05-03T14:03:42Z</time></trkpt><trkpt lat="44.969805407078084" lon="8.425187846913351"><ele>152.0</ele><time>2026-05-03T14:03:43Z</time></trkpt><trkpt lat="44.96989975933513" lon="8.425063481777281"><ele>152.0</ele><time>2026-05-03T14:03:44Z</time></trkpt><trkpt lat="44.96999831180321" lon="8.424930482401441"><ele>153.5</ele><time>2026-05-03T14:03:45Z</time></trkpt><trkpt lat="44.97009782728841" lon="8.424796448528522"><ele>155.0</ele><time>2026-05-03T14:03:46Z</time></trkpt><trkpt lat="44.97021079601537" lon="8.424673621416673"><ele>156.5</ele><time>2026-05-03T14:03:47Z</time></trkpt><trkpt lat="44.97030898848325" lon="8.424547800454258"><ele>158.0</ele><time>2026-05-03T14:03:48Z</time></trkpt><trkpt lat="44.97040848140674" lon="8.424419491171587"><ele>158.0</ele><time>2026-05-03T14:03:49Z</time></trkpt><trkpt lat="44.970512482289216" lon="8.42428447752609"><ele>158.0</ele><time>2026-05-03T14:03:50Z</time></trkpt><trkpt lat="44.9706176378168" lon="8.424147986169789"><ele>158.0</ele><time>2026-05-03T14:03:51Z</time></trkpt><trkpt lat="44.97071827080904" lon="8.424018115671846"><ele>158.0</ele><time>2026-05-03T14:03:52Z</time></trkpt><trkpt lat="44.970815900668136" lon="8.4238921210097"><ele>158.75</ele><time>2026-05-03T14:03:53Z</time></trkpt><trkpt lat="44.970913973220135" lon="8.423765555083406"><ele>159.5</ele><time>2026-05-03T14:03:54Z</time></trkpt><trkpt lat="44.971017074510264" lon="8.423632499187113"><ele>160.25</ele><time>2026-05-03T14:03:55Z</time></trkpt><trkpt lat="44.97111876700582" lon="8.423501261493719"><ele>161.0</ele><time>2026-05-03T14:03:56Z</time></trkpt><trkpt lat="44.97122393439891" lon="8.423365730099908"><ele>161.0</ele><time>2026-05-03T14:03:57Z</time></trkpt><trkpt lat="44.97132524830214" lon="8.42323560015727"><ele>161.0</ele><time>2026-05-03T14:03:58Z</time></trkpt><trkpt lat="44.97143320545125" lon="8.423096937465159"><ele>161.0</ele><time>2026-05-03T14:03:59Z</time></trkpt><trkpt lat="44.971547721344" lon="8.422949850518291"><ele>161.0</ele><time>2026-05-03T14:04:00Z</time></trkpt><trkpt lat="44.97165669104475" lon="8.422809887368658"><ele>161.25</ele><time>2026-05-03T14:04:01Z</time></trkpt><trkpt lat="44.971766727127005" lon="8.422667949762461"><ele>161.5</ele><time>2026-05-03T14:04:02Z</time></trkpt><trkpt lat="44.97187533530081" lon="8.422527233566774"><ele>161.75</ele><time>2026-05-03T14:04:03Z</time></trkpt><trkpt lat="44.971985700457964" lon="8.42238425249972"><ele>162.0</ele><time>2026-05-03T14:04:04Z</time></trkpt><trkpt lat="44.972100188666396" lon="8.422237855279217"><ele>160.0</ele><time>2026-05-03T14:04:05Z</time></trkpt><trkpt lat="44.97220639697336" lon="8.422076181864146"><ele>158.0</ele><time>2026-05-03T14:04:06Z</time></trkpt><trkpt lat="44.97233830970793" lon="8.42194117839992"><ele>156.0</ele><time>2026-05-03T14:04:07Z</time></trkpt><trkpt lat="44.97246241297776" lon="8.421782406637291"><ele>156.66666666666666</ele><time>2026-05-03T14:04:08Z</time></trkpt><trkpt lat="44.97257621595588" lon="8.421631457095282"><ele>157.33333333333331</ele><time>2026-05-03T14:04:09Z</time></trkpt><trkpt lat="44.97269806815589" lon="8.421469590195413"><ele>158.0</ele><time>2026-05-03T14:04:10Z</time></trkpt><trkpt lat="44.97282297905134" lon="8.421305156059566"><ele>158.0</ele><time>2026-05-03T14:04:11Z</time></trkpt><trkpt lat="44.972942282524286" lon="8.421140142573714"><ele>158.0</ele><time>2026-05-03T14:04:12Z</time></trkpt><trkpt lat="44.97306644558919" lon="8.420961284109959"><ele>158.0</ele><time>2026-05-03T14:04:13Z</time></trkpt><trkpt lat="44.97318703655809" lon="8.42079075997471"><ele>158.0</ele><time>2026-05-03T14:04:14Z</time></trkpt><trkpt lat="44.973304957179735" lon="8.420611853212119"><ele>158.0</ele><time>2026-05-03T14:04:15Z</time></trkpt><trkpt lat="44.973417412294445" lon="8.420430399082687"><ele>158.0</ele><time>2026-05-03T14:04:16Z</time></trkpt><trkpt lat="44.97352683756781" lon="8.420250679733853"><ele>159.33333333333331</ele><time>2026-05-03T14:04:17Z</time></trkpt><trkpt lat="44.973656367326086" lon="8.42006996325074"><ele>160.66666666666666</ele><time>2026-05-03T14:04:18Z</time></trkpt><trkpt lat="44.97377077650631" lon="8.419883655332532"><ele>162.0</ele><time>2026-05-03T14:04:19Z</time></trkpt><trkpt lat="44.973887350187375" lon="8.419693822501497"><ele>161.0</ele><time>2026-05-03T14:04:20Z</time></trkpt><trkpt lat="44.97399689227008" lon="8.41951544031873"><ele>160.0</ele><time>2026-05-03T14:04:21Z</time></trkpt><trkpt lat="44.974110110152544" lon="8.419331072268372"><ele>159.0</ele><time>2026-05-03T14:04:22Z</time></trkpt><trkpt lat="44.97422071956941" lon="8.419150951987403"><ele>160.0</ele><time>2026-05-03T14:04:23Z</time></trkpt><trkpt lat="44.97432938154639" lon="8.418974002900399"><ele>161.0</ele><time>2026-05-03T14:04:24Z</time></trkpt><trkpt lat="44.974450598679745" lon="8.418776608571807"><ele>162.0</ele><time>2026-05-03T14:04:25Z</time></trkpt><trkpt lat="44.97455707086943" lon="8.418603817761229"><ele>162.0</ele><time>2026-05-03T14:04:26Z</time></trkpt><trkpt lat="44.97466967346677" lon="8.418421425272125"><ele>162.0</ele><time>2026-05-03T14:04:27Z</time></trkpt><trkpt lat="44.974775385952626" lon="8.418225466322848"><ele>162.0</ele><time>2026-05-03T14:04:28Z</time></trkpt><trkpt lat="44.97488547889176" lon="8.418040920371432"><ele>161.33333333333334</ele><time>2026-05-03T14:04:29Z</time></trkpt><trkpt lat="44.975003217805245" lon="8.417857466263106"><ele>160.66666666666669</ele><time>2026-05-03T14:04:30Z</time></trkpt><trkpt lat="44.97512141345973" lon="8.417667575899868"><ele>160.0</ele><time>2026-05-03T14:04:31Z</time></trkpt><trkpt lat="44.975240484697785" lon="8.417470498727836"><ele>160.66666666666669</ele><time>2026-05-03T14:04:32Z</time></trkpt><trkpt lat="44.97536794598122" lon="8.417280476835545"><ele>161.33333333333334</ele><time>2026-05-03T14:04:33Z</time></trkpt><trkpt lat="44.97549145954085" lon="8.417082989654467"><ele>162.0</ele><time>2026-05-03T14:04:34Z</time></trkpt><trkpt lat="44.975613489836796" lon="8.41686902819294"><ele>162.0</ele><time>2026-05-03T14:04:35Z</time></trkpt><trkpt lat="44.97575134397968" lon="8.416669843709634"><ele>162.0</ele><time>2026-05-03T14:04:36Z</time></trkpt><trkpt lat="44.97587765890251" lon="8.41646729026839"><ele>162.0</ele><time>2026-05-03T14:04:37Z</time></trkpt><trkpt lat="44.976006111555186" lon="8.416261648679402"><ele>162.33333333333334</ele><time>2026-05-03T14:04:38Z</time></trkpt><trkpt lat="44.976141935344295" lon="8.416044206395767"><ele>162.66666666666669</ele><time>2026-05-03T14:04:39Z</time></trkpt><trkpt lat="44.9762722218802" lon="8.415833707365994"><ele>163.0</ele><time>2026-05-03T14:04:40Z</time></trkpt><trkpt lat="44.97639845563538" lon="8.415628978751528"><ele>163.0</ele><time>2026-05-03T14:04:41Z</time></trkpt><trkpt lat="44.976526413933556" lon="8.415421985302439"><ele>163.0</ele><time>2026-05-03T14:04:42Z</time></trkpt><trkpt lat="44.976660809262924" lon="8.415204976107342"><ele>163.0</ele><time>2026-05-03T14:04:43Z</time></trkpt><trkpt lat="44.97679320685534" lon="8.414991192684537"><ele>164.33333333333334</ele><time>2026-05-03T14:04:44Z</time></trkpt><trkpt lat="44.976926012381654" lon="8.41477549599332"><ele>165.66666666666666</ele><time>2026-05-03T14:04:45Z</time></trkpt><trkpt lat="44.977059421219664" lon="8.41455818087745"><ele>167.0</ele><time>2026-05-03T14:04:46Z</time></trkpt><trkpt lat="44.97719204515913" lon="8.41434214554728"><ele>167.0</ele><time>2026-05-03T14:04:47Z</time></trkpt><trkpt lat="44.977325890563144" lon="8.414124119295321"><ele>167.0</ele><time>2026-05-03T14:04:48Z</time></trkpt><trkpt lat="44.977456038230784" lon="8.4139121163984"><ele>167.0</ele><time>2026-05-03T14:04:49Z</time></trkpt><trkpt lat="44.97759131598015" lon="8.413691756882487"><ele>169.66666666666666</ele><time>2026-05-03T14:04:50Z</time></trkpt><trkpt lat="44.97772654931242" lon="8.413471469770089"><ele>172.33333333333334</ele><time>2026-05-03T14:04:51Z</time></trkpt><trkpt lat="44.977863452946686" lon="8.41324846178988"><ele>175.0</ele><time>2026-05-03T14:04:51.999Z</time></trkpt><trkpt lat="44.977998178952845" lon="8.41302900111385"><ele>174.66666666666669</ele><time>2026-05-03T14:04:52.999Z</time></trkpt><trkpt lat="44.978130063052525" lon="8.412814169746698"><ele>174.33333333333334</ele><time>2026-05-03T14:04:53.999Z</time></trkpt><trkpt lat="44.97826244548411" lon="8.412598715100163"><ele>174.0</ele><time>2026-05-03T14:04:54.999Z</time></trkpt><trkpt lat="44.978399696397425" lon="8.412377733158756"><ele>174.0</ele><time>2026-05-03T14:04:55.999Z</time></trkpt><trkpt lat="44.978528559138525" lon="8.412170256616555"><ele>174.0</ele><time>2026-05-03T14:04:56.999Z</time></trkpt><trkpt lat="44.978658389865814" lon="8.411961220818899"><ele>174.0</ele><time>2026-05-03T14:04:57.999Z</time></trkpt><trkpt lat="44.97878859237444" lon="8.411748841571166"><ele>171.66666666666666</ele><time>2026-05-03T14:04:58.999Z</time></trkpt><trkpt lat="44.97891703601863" lon="8.411539527769047"><ele>169.33333333333331</ele><time>2026-05-03T14:04:59.999Z</time></trkpt><trkpt lat="44.979048724602485" lon="8.411324926018247"><ele>167.0</ele><time>2026-05-03T14:05:00.999Z</time></trkpt><trkpt lat="44.97917818843781" lon="8.411113949401289"><ele>168.0</ele><time>2026-05-03T14:05:01.999Z</time></trkpt><trkpt lat="44.979306458489255" lon="8.41090470296421"><ele>169.0</ele><time>2026-05-03T14:05:02.999Z</time></trkpt><trkpt lat="44.97943696725112" lon="8.41069181592333"><ele>170.0</ele><time>2026-05-03T14:05:03.999Z</time></trkpt><trkpt lat="44.97957431032417" lon="8.410467780807537"><ele>170.0</ele><time>2026-05-03T14:05:04.999Z</time></trkpt><trkpt lat="44.97970281831683" lon="8.410258847839485"><ele>170.0</ele><time>2026-05-03T14:05:05.999Z</time></trkpt><trkpt lat="44.97983245104555" lon="8.410063379933488"><ele>170.0</ele><time>2026-05-03T14:05:06.999Z</time></trkpt><trkpt lat="44.97997472773604" lon="8.409880671365388"><ele>169.66666666666666</ele><time>2026-05-03T14:05:07.999Z</time></trkpt><trkpt lat="44.980123475723175" lon="8.409732150676218"><ele>169.33333333333334</ele><time>2026-05-03T14:05:08.999Z</time></trkpt><trkpt lat="44.98029010116196" lon="8.409608055199728"><ele>169.0</ele><time>2026-05-03T14:05:09.999Z</time></trkpt><trkpt lat="44.98044503371836" lon="8.409522721532436"><ele>170.33333333333334</ele><time>2026-05-03T14:05:10.999Z</time></trkpt><trkpt lat="44.980597530901875" lon="8.409442773670893"><ele>171.66666666666666</ele><time>2026-05-03T14:05:11.999Z</time></trkpt><trkpt lat="44.98077787398737" lon="8.409352620159575"><ele>173.0</ele><time>2026-05-03T14:05:12.999Z</time></trkpt><trkpt lat="44.980950992329035" lon="8.409266078446578"><ele>173.66666666666666</ele><time>2026-05-03T14:05:13.999Z</time></trkpt><trkpt lat="44.98112347832005" lon="8.40917962589459"><ele>174.33333333333334</ele><time>2026-05-03T14:05:14.999Z</time></trkpt><trkpt lat="44.98128539839272" lon="8.409097996268482"><ele>175.0</ele><time>2026-05-03T14:05:15.999Z</time></trkpt><trkpt lat="44.98145089697033" lon="8.409014562405863"><ele>175.0</ele><time>2026-05-03T14:05:16.999Z</time></trkpt><trkpt lat="44.98159975609303" lon="8.408940315852508"><ele>175.0</ele><time>2026-05-03T14:05:17.999Z</time></trkpt><trkpt lat="44.98176662636047" lon="8.408857439577112"><ele>175.0</ele><time>2026-05-03T14:05:18.999Z</time></trkpt><trkpt lat="44.981926022698055" lon="8.408778275166084"><ele>175.66666666666669</ele><time>2026-05-03T14:05:19.999Z</time></trkpt><trkpt lat="44.98208704791573" lon="8.408697569216962"><ele>176.33333333333334</ele><time>2026-05-03T14:05:20.999Z</time></trkpt><trkpt lat="44.98225044904778" lon="8.408615031684887"><ele>177.0</ele><time>2026-05-03T14:05:21.999Z</time></trkpt><trkpt lat="44.98240941147222" lon="8.40853449115856"><ele>177.33333333333334</ele><time>2026-05-03T14:05:22.999Z</time></trkpt><trkpt lat="44.982571159659955" lon="8.40845244883076"><ele>177.66666666666669</ele><time>2026-05-03T14:05:23.999Z</time></trkpt><trkpt lat="44.982727029953324" lon="8.408349201931173"><ele>178.0</ele><time>2026-05-03T14:05:24.999Z</time></trkpt><trkpt lat="44.98286000161347" lon="8.40830594171749"><ele>178.0</ele><time>2026-05-03T14:05:25.999Z</time></trkpt><trkpt lat="44.98300243395686" lon="8.40823369685847"><ele>178.0</ele><time>2026-05-03T14:05:26.999Z</time></trkpt><trkpt lat="44.983147498374755" lon="8.408160116927231"><ele>178.0</ele><time>2026-05-03T14:05:27.999Z</time></trkpt><trkpt lat="44.983320913102524" lon="8.408071332926998"><ele>176.33333333333334</ele><time>2026-05-03T14:05:28.999Z</time></trkpt><trkpt lat="44.983466727458676" lon="8.40798730512714"><ele>174.66666666666666</ele><time>2026-05-03T14:05:29.999Z</time></trkpt><trkpt lat="44.98360231435676" lon="8.40788866082628"><ele>173.0</ele><time>2026-05-03T14:05:31Z</time></trkpt><trkpt lat="44.98372102617895" lon="8.407772443852243"><ele>173.0</ele><time>2026-05-03T14:05:32Z</time></trkpt><trkpt lat="44.98384747621109" lon="8.407613190596992"><ele>173.0</ele><time>2026-05-03T14:05:33Z</time></trkpt><trkpt lat="44.98394953957789" lon="8.407430911752096"><ele>173.0</ele><time>2026-05-03T14:05:34Z</time></trkpt><trkpt lat="44.98403090387311" lon="8.407204207157864"><ele>172.0</ele><time>2026-05-03T14:05:35Z</time></trkpt><trkpt lat="44.984110708810334" lon="8.406997082224597"><ele>171.0</ele><time>2026-05-03T14:05:36Z</time></trkpt><trkpt lat="44.984213967625706" lon="8.40678077851387"><ele>170.0</ele><time>2026-05-03T14:05:37Z</time></trkpt><trkpt lat="44.98431015410086" lon="8.406560144251118"><ele>166.66666666666666</ele><time>2026-05-03T14:05:38Z</time></trkpt><trkpt lat="44.98439619659265" lon="8.406318631097019"><ele>163.33333333333334</ele><time>2026-05-03T14:05:39Z</time></trkpt><trkpt lat="44.98446536149525" lon="8.406096911928273"><ele>160.0</ele><time>2026-05-03T14:05:40Z</time></trkpt><trkpt lat="44.98454209867387" lon="8.405875368194069"><ele>160.0</ele><time>2026-05-03T14:05:41Z</time></trkpt><trkpt lat="44.984615233306414" lon="8.405682528006537"><ele>160.0</ele><time>2026-05-03T14:05:42Z</time></trkpt><trkpt lat="44.98469690027115" lon="8.405529323376973"><ele>160.0</ele><time>2026-05-03T14:05:43Z</time></trkpt><trkpt lat="44.98480072657592" lon="8.405393166003993"><ele>160.0</ele><time>2026-05-03T14:05:44Z</time></trkpt><trkpt lat="44.984919778854064" lon="8.405288734361708"><ele>160.25</ele><time>2026-05-03T14:05:45Z</time></trkpt><trkpt lat="44.98505270018741" lon="8.405213705265213"><ele>160.5</ele><time>2026-05-03T14:05:46Z</time></trkpt><trkpt lat="44.98519449366816" lon="8.405163968424823"><ele>160.75</ele><time>2026-05-03T14:05:47Z</time></trkpt><trkpt lat="44.98534276650912" lon="8.40514061256973"><ele>161.0</ele><time>2026-05-03T14:05:48Z</time></trkpt><trkpt lat="44.98550645687371" lon="8.405126945992818"><ele>161.0</ele><time>2026-05-03T14:05:49Z</time></trkpt><trkpt lat="44.9856734415614" lon="8.405114527355487"><ele>161.0</ele><time>2026-05-03T14:05:50Z</time></trkpt><trkpt lat="44.9858398549113" lon="8.405101805550471"><ele>161.0</ele><time>2026-05-03T14:05:51Z</time></trkpt><trkpt lat="44.98599517835917" lon="8.4050897654713"><ele>159.66666666666666</ele><time>2026-05-03T14:05:52Z</time></trkpt><trkpt lat="44.98615410182029" lon="8.405077446337724"><ele>158.33333333333334</ele><time>2026-05-03T14:05:53Z</time></trkpt><trkpt lat="44.98631003546615" lon="8.405065358976726"><ele>157.0</ele><time>2026-05-03T14:05:54Z</time></trkpt><trkpt lat="44.98646626336438" lon="8.405053248766274"><ele>157.0</ele><time>2026-05-03T14:05:55Z</time></trkpt><trkpt lat="44.98662680158432" lon="8.40504080445691"><ele>157.0</ele><time>2026-05-03T14:05:56Z</time></trkpt><trkpt lat="44.986783653267594" lon="8.405027842126323"><ele>157.0</ele><time>2026-05-03T14:05:57Z</time></trkpt><trkpt lat="44.98693363368503" lon="8.405014444572425"><ele>156.0</ele><time>2026-05-03T14:05:58Z</time></trkpt><trkpt lat="44.98709164174966" lon="8.404996170341514"><ele>155.0</ele><time>2026-05-03T14:05:59Z</time></trkpt><trkpt lat="44.987237612593624" lon="8.404976883808793"><ele>154.0</ele><time>2026-05-03T14:06:00Z</time></trkpt><trkpt lat="44.98737808666318" lon="8.404933016086133"><ele>153.0</ele><time>2026-05-03T14:06:01Z</time></trkpt><trkpt lat="44.987516451963494" lon="8.404908890015763"><ele>151.75</ele><time>2026-05-03T14:06:02Z</time></trkpt><trkpt lat="44.987641907713424" lon="8.404879527480041"><ele>150.5</ele><time>2026-05-03T14:06:03Z</time></trkpt><trkpt lat="44.98776403072252" lon="8.404842274876003"><ele>149.25</ele><time>2026-05-03T14:06:04Z</time></trkpt><trkpt lat="44.987895700399875" lon="8.404812529564454"><ele>148.0</ele><time>2026-05-03T14:06:05Z</time></trkpt><trkpt lat="44.98805586157497" lon="8.40475005367505"><ele>148.0</ele><time>2026-05-03T14:06:06Z</time></trkpt><trkpt lat="44.98822675459879" lon="8.404676658364929"><ele>148.0</ele><time>2026-05-03T14:06:07Z</time></trkpt><trkpt lat="44.98841532216544" lon="8.404589256936944"><ele>148.0</ele><time>2026-05-03T14:06:08Z</time></trkpt><trkpt lat="44.98861333891558" lon="8.404484763481875"><ele>150.0</ele><time>2026-05-03T14:06:09Z</time></trkpt><trkpt lat="44.9888304306693" lon="8.404394329118544"><ele>152.0</ele><time>2026-05-03T14:06:10Z</time></trkpt><trkpt lat="44.98904853918824" lon="8.40430176849646"><ele>150.0</ele><time>2026-05-03T14:06:11Z</time></trkpt><trkpt lat="44.989274804691384" lon="8.404203921539008"><ele>148.0</ele><time>2026-05-03T14:06:12Z</time></trkpt><trkpt lat="44.98950144495998" lon="8.404089075131328"><ele>148.0</ele><time>2026-05-03T14:06:13Z</time></trkpt><trkpt lat="44.98972417565908" lon="8.40397824008344"><ele>148.0</ele><time>2026-05-03T14:06:14Z</time></trkpt><trkpt lat="44.98994424291331" lon="8.40386792004767"><ele>148.0</ele><time>2026-05-03T14:06:15Z</time></trkpt><trkpt lat="44.9901502602391" lon="8.4037563678048"><ele>148.0</ele><time>2026-05-03T14:06:16Z</time></trkpt><trkpt lat="44.99034264204858" lon="8.403644897675916"><ele>148.0</ele><time>2026-05-03T14:06:17Z</time></trkpt><trkpt lat="44.99051282499264" lon="8.403537777660732"><ele>148.0</ele><time>2026-05-03T14:06:18Z</time></trkpt><trkpt lat="44.99070170793039" lon="8.403422306017044"><ele>148.0</ele><time>2026-05-03T14:06:19Z</time></trkpt><trkpt lat="44.99089098308916" lon="8.4033002814584"><ele>148.0</ele><time>2026-05-03T14:06:20Z</time></trkpt><trkpt lat="44.99106466739513" lon="8.403142409683912"><ele>147.33333333333334</ele><time>2026-05-03T14:06:21Z</time></trkpt><trkpt lat="44.9912341021316" lon="8.40296442541877"><ele>146.66666666666666</ele><time>2026-05-03T14:06:22Z</time></trkpt><trkpt lat="44.9913850780788" lon="8.402762601674267"><ele>146.0</ele><time>2026-05-03T14:06:23Z</time></trkpt><trkpt lat="44.99151067212446" lon="8.40249548100806"><ele>146.0</ele><time>2026-05-03T14:06:24Z</time></trkpt><trkpt lat="44.99162535474203" lon="8.402221725902898"><ele>146.0</ele><time>2026-05-03T14:06:25Z</time></trkpt><trkpt lat="44.9917396576091" lon="8.401929222916998"><ele>146.0</ele><time>2026-05-03T14:06:26Z</time></trkpt><trkpt lat="44.99183267380684" lon="8.401584051661835"><ele>146.0</ele><time>2026-05-03T14:06:27Z</time></trkpt><trkpt lat="44.99191184770239" lon="8.401263284393709"><ele>146.33333333333331</ele><time>2026-05-03T14:06:28Z</time></trkpt><trkpt lat="44.99198673678419" lon="8.400959766446025"><ele>146.66666666666666</ele><time>2026-05-03T14:06:29Z</time></trkpt><trkpt lat="44.992045293979785" lon="8.400666305862286"><ele>147.0</ele><time>2026-05-03T14:06:30Z</time></trkpt><trkpt lat="44.992140321085934" lon="8.400336584597547"><ele>147.5</ele><time>2026-05-03T14:06:31Z</time></trkpt><trkpt lat="44.992220118304765" lon="8.4000112833608"><ele>148.0</ele><time>2026-05-03T14:06:32Z</time></trkpt><trkpt lat="44.99229881753056" lon="8.399690458165411"><ele>148.33333333333334</ele><time>2026-05-03T14:06:33Z</time></trkpt><trkpt lat="44.99237139122202" lon="8.399394604339872"><ele>148.66666666666666</ele><time>2026-05-03T14:06:34Z</time></trkpt><trkpt lat="44.992442486143744" lon="8.39910528456939"><ele>149.0</ele><time>2026-05-03T14:06:35Z</time></trkpt><trkpt lat="44.992513774060555" lon="8.398815424025946"><ele>149.0</ele><time>2026-05-03T14:06:36Z</time></trkpt><trkpt lat="44.99258438134371" lon="8.398528331009762"><ele>149.0</ele><time>2026-05-03T14:06:37Z</time></trkpt><trkpt lat="44.99264808085464" lon="8.398267578205258"><ele>149.0</ele><time>2026-05-03T14:06:38Z</time></trkpt><trkpt lat="44.99271281024941" lon="8.39799984998195"><ele>149.0</ele><time>2026-05-03T14:06:39Z</time></trkpt><trkpt lat="44.99276603784003" lon="8.397779694874313"><ele>149.0</ele><time>2026-05-03T14:06:40Z</time></trkpt><trkpt lat="44.9928106879278" lon="8.397596458950094"><ele>149.0</ele><time>2026-05-03T14:06:41Z</time></trkpt><trkpt lat="44.9928458165246" lon="8.397453235495139"><ele>149.0</ele><time>2026-05-03T14:06:42Z</time></trkpt><trkpt lat="44.99287473640634" lon="8.397335325580118"><ele>149.0</ele><time>2026-05-03T14:06:43Z</time></trkpt><trkpt lat="44.992898567110515" lon="8.397195059994953"><ele>149.0</ele><time>2026-05-03T14:06:45Z</time></trkpt><trkpt lat="44.992946890402365" lon="8.39704114471468"><ele>149.0</ele><time>2026-05-03T14:06:47Z</time></trkpt><trkpt lat="44.99298390414135" lon="8.396890233002182"><ele>149.0</ele><time>2026-05-03T14:06:48Z</time></trkpt><trkpt lat="44.993021179280476" lon="8.396738255478288"><ele>149.0</ele><time>2026-05-03T14:06:49Z</time></trkpt><trkpt lat="44.99305894738406" lon="8.396584268104576"><ele>149.25</ele><time>2026-05-03T14:06:50Z</time></trkpt><trkpt lat="44.99304692492833" lon="8.396368370720609"><ele>149.5</ele><time>2026-05-03T14:06:51Z</time></trkpt><trkpt lat="44.99310437809537" lon="8.396196778213257"><ele>149.75</ele><time>2026-05-03T14:06:52Z</time></trkpt><trkpt lat="44.99315462172247" lon="8.396004257329905"><ele>150.0</ele><time>2026-05-03T14:06:53Z</time></trkpt><trkpt lat="44.99320979423684" lon="8.395803289108958"><ele>150.0</ele><time>2026-05-03T14:06:54Z</time></trkpt><trkpt lat="44.993274188400065" lon="8.395590751953705"><ele>150.0</ele><time>2026-05-03T14:06:55Z</time></trkpt><trkpt lat="44.993326144197894" lon="8.39537878359728"><ele>150.0</ele><time>2026-05-03T14:06:56Z</time></trkpt><trkpt lat="44.99338969541601" lon="8.395122607627128"><ele>150.0</ele><time>2026-05-03T14:06:57Z</time></trkpt><trkpt lat="44.99343079677444" lon="8.394865170419491"><ele>150.0</ele><time>2026-05-03T14:06:58Z</time></trkpt><trkpt lat="44.99349753172054" lon="8.394602127469344"><ele>150.0</ele><time>2026-05-03T14:06:59Z</time></trkpt><trkpt lat="44.99355237272222" lon="8.394318933389984"><ele>150.0</ele><time>2026-05-03T14:07:00Z</time></trkpt><trkpt lat="44.993616307203936" lon="8.394063192108792"><ele>150.0</ele><time>2026-05-03T14:07:01Z</time></trkpt><trkpt lat="44.993678768055666" lon="8.39380968700608"><ele>150.0</ele><time>2026-05-03T14:07:02Z</time></trkpt><trkpt lat="44.99374899512358" lon="8.393549167946077"><ele>150.0</ele><time>2026-05-03T14:07:03Z</time></trkpt><trkpt lat="44.99383620140346" lon="8.393302855074696"><ele>150.0</ele><time>2026-05-03T14:07:04Z</time></trkpt><trkpt lat="44.99390114390395" lon="8.393113821717355"><ele>150.0</ele><time>2026-05-03T14:07:05Z</time></trkpt><trkpt lat="44.9939479812414" lon="8.392876511953427"><ele>150.33333333333334</ele><time>2026-05-03T14:07:06Z</time></trkpt><trkpt lat="44.99400031703405" lon="8.39265349450565"><ele>150.66666666666669</ele><time>2026-05-03T14:07:07Z</time></trkpt><trkpt lat="44.994082608550926" lon="8.39244061007602"><ele>151.0</ele><time>2026-05-03T14:07:08Z</time></trkpt><trkpt lat="44.99415967244665" lon="8.392232172986732"><ele>151.75</ele><time>2026-05-03T14:07:09Z</time></trkpt><trkpt lat="44.99425172575552" lon="8.392065748846951"><ele>152.5</ele><time>2026-05-03T14:07:10Z</time></trkpt><trkpt lat="44.99433932171932" lon="8.391962657410968"><ele>153.25</ele><time>2026-05-03T14:07:10.999Z</time></trkpt><trkpt lat="44.99441546062435" lon="8.391904088050856"><ele>154.0</ele><time>2026-05-03T14:07:11.999Z</time></trkpt><trkpt lat="44.99451087886516" lon="8.391848232834244"><ele>154.0</ele><time>2026-05-03T14:07:12.999Z</time></trkpt><trkpt lat="44.994632997608385" lon="8.391816833109788"><ele>154.0</ele><time>2026-05-03T14:07:13.999Z</time></trkpt><trkpt lat="44.99477889177692" lon="8.391793629841189"><ele>154.0</ele><time>2026-05-03T14:07:14.999Z</time></trkpt><trkpt lat="44.99493160834988" lon="8.391740895968912"><ele>154.0</ele><time>2026-05-03T14:07:15.999Z</time></trkpt><trkpt lat="44.99507250087612" lon="8.391670172644105"><ele>154.33333333333334</ele><time>2026-05-03T14:07:16.999Z</time></trkpt><trkpt lat="44.995225603340906" lon="8.391627534270643"><ele>154.66666666666666</ele><time>2026-05-03T14:07:17.999Z</time></trkpt><trkpt lat="44.995397275328514" lon="8.391611320572329"><ele>155.0</ele><time>2026-05-03T14:07:18.999Z</time></trkpt><trkpt lat="44.99556736798617" lon="8.39152930222622"><ele>155.0</ele><time>2026-05-03T14:07:19.999Z</time></trkpt><trkpt lat="44.995762244491345" lon="8.391410670313691"><ele>155.0</ele><time>2026-05-03T14:07:20.999Z</time></trkpt><trkpt lat="44.99595156895084" lon="8.391263332429961"><ele>155.0</ele><time>2026-05-03T14:07:21.999Z</time></trkpt><trkpt lat="44.99614970343135" lon="8.39113148160501"><ele>155.0</ele><time>2026-05-03T14:07:22.999Z</time></trkpt><trkpt lat="44.9963466102135" lon="8.391031373772707"><ele>155.0</ele><time>2026-05-03T14:07:23.999Z</time></trkpt><trkpt lat="44.996555837408785" lon="8.390916322962637"><ele>155.0</ele><time>2026-05-03T14:07:24.999Z</time></trkpt><trkpt lat="44.99676662842397" lon="8.390798881751303"><ele>155.5</ele><time>2026-05-03T14:07:25.999Z</time></trkpt><trkpt lat="44.996990778053686" lon="8.390665372729671"><ele>156.0</ele><time>2026-05-03T14:07:26.999Z</time></trkpt><trkpt lat="44.99722479610011" lon="8.390514209586852"><ele>155.5</ele><time>2026-05-03T14:07:27.999Z</time></trkpt><trkpt lat="44.99747559452014" lon="8.39037858166867"><ele>155.0</ele><time>2026-05-03T14:07:28.999Z</time></trkpt><trkpt lat="44.99771529890326" lon="8.390244987258551"><ele>155.0</ele><time>2026-05-03T14:07:29.999Z</time></trkpt><trkpt lat="44.99795173420753" lon="8.390123338615714"><ele>155.0</ele><time>2026-05-03T14:07:30.999Z</time></trkpt><trkpt lat="44.9981850700775" lon="8.39000831324224"><ele>156.0</ele><time>2026-05-03T14:07:31.999Z</time></trkpt><trkpt lat="44.99842003521968" lon="8.389875832724202"><ele>157.0</ele><time>2026-05-03T14:07:32.999Z</time></trkpt><trkpt lat="44.998638755708086" lon="8.389758282837446"><ele>156.5</ele><time>2026-05-03T14:07:33.999Z</time></trkpt><trkpt lat="44.998861655631956" lon="8.389638224328976"><ele>156.0</ele><time>2026-05-03T14:07:34.999Z</time></trkpt><trkpt lat="44.9990756095194" lon="8.38950612704089"><ele>157.5</ele><time>2026-05-03T14:07:35.999Z</time></trkpt><trkpt lat="44.99930165520138" lon="8.38940808996272"><ele>159.0</ele><time>2026-05-03T14:07:37Z</time></trkpt><trkpt lat="44.999529156766634" lon="8.389299507935261"><ele>159.0</ele><time>2026-05-03T14:07:38Z</time></trkpt><trkpt lat="44.9997686969675" lon="8.38921732629655"><ele>159.0</ele><time>2026-05-03T14:07:39Z</time></trkpt><trkpt lat="45.00001023133825" lon="8.38917019743035"><ele>159.0</ele><time>2026-05-03T14:07:40Z</time></trkpt><trkpt lat="45.00025866673976" lon="8.389133094168798"><ele>159.0</ele><time>2026-05-03T14:07:41Z</time></trkpt><trkpt lat="45.00050749319934" lon="8.389103656639985"><ele>159.0</ele><time>2026-05-03T14:07:42Z</time></trkpt><trkpt lat="45.00075136605739" lon="8.389079367764623"><ele>159.0</ele><time>2026-05-03T14:07:43Z</time></trkpt><trkpt lat="45.00100803548566" lon="8.389068378419541"><ele>161.0</ele><time>2026-05-03T14:07:44Z</time></trkpt><trkpt lat="45.00126343138973" lon="8.389046022057341"><ele>163.0</ele><time>2026-05-03T14:07:45Z</time></trkpt><trkpt lat="45.001512140434315" lon="8.389030728076186"><ele>164.0</ele><time>2026-05-03T14:07:46Z</time></trkpt><trkpt lat="45.00176892651316" lon="8.38900444273112"><ele>165.0</ele><time>2026-05-03T14:07:47Z</time></trkpt><trkpt lat="45.00202045945798" lon="8.388990649737954"><ele>165.0</ele><time>2026-05-03T14:07:48Z</time></trkpt><trkpt lat="45.00226283166098" lon="8.38897731432634"><ele>165.0</ele><time>2026-05-03T14:07:49Z</time></trkpt><trkpt lat="45.002508560627916" lon="8.389022786627221"><ele>165.5</ele><time>2026-05-03T14:07:50Z</time></trkpt><trkpt lat="45.002744171161446" lon="8.389000909026269"><ele>166.0</ele><time>2026-05-03T14:07:51Z</time></trkpt><trkpt lat="45.002976016357074" lon="8.38897938106954"><ele>166.0</ele><time>2026-05-03T14:07:52Z</time></trkpt><trkpt lat="45.00321819101782" lon="8.388954568393743"><ele>166.0</ele><time>2026-05-03T14:07:53Z</time></trkpt><trkpt lat="45.003459212600276" lon="8.388927470979457"><ele>169.0</ele><time>2026-05-03T14:07:54Z</time></trkpt><trkpt lat="45.00370997232865" lon="8.388891412465071"><ele>172.0</ele><time>2026-05-03T14:07:55Z</time></trkpt><trkpt lat="45.00395206848994" lon="8.38884705357725"><ele>174.5</ele><time>2026-05-03T14:07:56Z</time></trkpt><trkpt lat="45.0041866971047" lon="8.388783014956722"><ele>177.0</ele><time>2026-05-03T14:07:57Z</time></trkpt><trkpt lat="45.00442833729792" lon="8.388706512874231"><ele>177.0</ele><time>2026-05-03T14:07:58Z</time></trkpt><trkpt lat="45.00466472926507" lon="8.388620998902056"><ele>177.0</ele><time>2026-05-03T14:07:59Z</time></trkpt><trkpt lat="45.00488997238391" lon="8.388508800992794"><ele>181.0</ele><time>2026-05-03T14:08:00Z</time></trkpt><trkpt lat="45.00511418424354" lon="8.388415788791079"><ele>185.0</ele><time>2026-05-03T14:08:01Z</time></trkpt><trkpt lat="45.00533226886815" lon="8.388296288108172"><ele>185.0</ele><time>2026-05-03T14:08:02Z</time></trkpt><trkpt lat="45.00556012738211" lon="8.38817990077796"><ele>185.0</ele><time>2026-05-03T14:08:03Z</time></trkpt><trkpt lat="45.005791804587545" lon="8.388064912863944"><ele>186.5</ele><time>2026-05-03T14:08:04Z</time></trkpt><trkpt lat="45.00601994174924" lon="8.387962974903052"><ele>188.0</ele><time>2026-05-03T14:08:05Z</time></trkpt><trkpt lat="45.00624540742869" lon="8.387862010080742"><ele>188.0</ele><time>2026-05-03T14:08:06Z</time></trkpt><trkpt lat="45.00646116114789" lon="8.387752409340035"><ele>188.0</ele><time>2026-05-03T14:08:07Z</time></trkpt><trkpt lat="45.006671405069305" lon="8.387656574261147"><ele>190.33333333333331</ele><time>2026-05-03T14:08:08Z</time></trkpt><trkpt lat="45.006875230612756" lon="8.387572403076607"><ele>192.66666666666666</ele><time>2026-05-03T14:08:09Z</time></trkpt><trkpt lat="45.007067908064094" lon="8.387478172836985"><ele>195.0</ele><time>2026-05-03T14:08:10Z</time></trkpt><trkpt lat="45.00725061926112" lon="8.38737862645013"><ele>195.0</ele><time>2026-05-03T14:08:11Z</time></trkpt><trkpt lat="45.00743661614241" lon="8.387288991238863"><ele>195.0</ele><time>2026-05-03T14:08:12Z</time></trkpt><trkpt lat="45.007613729644795" lon="8.387225225941703"><ele>195.0</ele><time>2026-05-03T14:08:13Z</time></trkpt><trkpt lat="45.00780164985909" lon="8.387126749286617"><ele>196.0</ele><time>2026-05-03T14:08:14Z</time></trkpt><trkpt lat="45.0079896967433" lon="8.387041692742383"><ele>197.0</ele><time>2026-05-03T14:08:15Z</time></trkpt><trkpt lat="45.0081881867334" lon="8.386949286231971"><ele>198.0</ele><time>2026-05-03T14:08:16Z</time></trkpt><trkpt lat="45.00837189159983" lon="8.386841591935294"><ele>199.33333333333331</ele><time>2026-05-03T14:08:17Z</time></trkpt><trkpt lat="45.00854178795868" lon="8.386748256389248"><ele>200.66666666666666</ele><time>2026-05-03T14:08:18Z</time></trkpt><trkpt lat="45.0086983970694" lon="8.386653670725705"><ele>202.0</ele><time>2026-05-03T14:08:19Z</time></trkpt><trkpt lat="45.00884148287308" lon="8.386588755623173"><ele>202.0</ele><time>2026-05-03T14:08:20Z</time></trkpt><trkpt lat="45.008978539416304" lon="8.386535897141862"><ele>202.0</ele><time>2026-05-03T14:08:21Z</time></trkpt><trkpt lat="45.00913236119737" lon="8.386520605551882"><ele>202.0</ele><time>2026-05-03T14:08:22Z</time></trkpt><trkpt lat="45.00925115327143" lon="8.386564008833954"><ele>202.0</ele><time>2026-05-03T14:08:23Z</time></trkpt><trkpt lat="45.009357036996086" lon="8.386605745311677"><ele>203.16666666666666</ele><time>2026-05-03T14:08:24Z</time></trkpt><trkpt lat="45.00944055428058" lon="8.386664874659818"><ele>204.33333333333331</ele><time>2026-05-03T14:08:25Z</time></trkpt><trkpt lat="45.00949659107466" lon="8.386739823154123"><ele>205.5</ele><time>2026-05-03T14:08:26Z</time></trkpt><trkpt lat="45.00953885003009" lon="8.386836949426794"><ele>206.66666666666669</ele><time>2026-05-03T14:08:27Z</time></trkpt><trkpt lat="45.00959447008833" lon="8.38691297798408"><ele>207.83333333333334</ele><time>2026-05-03T14:08:28Z</time></trkpt><trkpt lat="45.00968419132116" lon="8.386962274400219"><ele>209.0</ele><time>2026-05-03T14:08:29Z</time></trkpt><trkpt lat="45.00979693001813" lon="8.387013943526087"><ele>209.0</ele><time>2026-05-03T14:08:30Z</time></trkpt><trkpt lat="45.0098951604856" lon="8.38712653256884"><ele>209.0</ele><time>2026-05-03T14:08:31Z</time></trkpt><trkpt lat="45.00997909934721" lon="8.38728956367797"><ele>209.0</ele><time>2026-05-03T14:08:32Z</time></trkpt><trkpt lat="45.01005166474669" lon="8.38748586041498"><ele>209.0</ele><time>2026-05-03T14:08:33Z</time></trkpt><trkpt lat="45.01012831195631" lon="8.387689113953686"><ele>208.0</ele><time>2026-05-03T14:08:34Z</time></trkpt><trkpt lat="45.01021156543317" lon="8.387902960335483"><ele>207.0</ele><time>2026-05-03T14:08:35Z</time></trkpt><trkpt lat="45.010300343695164" lon="8.388117847146214"><ele>206.0</ele><time>2026-05-03T14:08:36Z</time></trkpt><trkpt lat="45.01041325082474" lon="8.388313775245656"><ele>206.0</ele><time>2026-05-03T14:08:37Z</time></trkpt><trkpt lat="45.01054802613341" lon="8.388478806070927"><ele>206.0</ele><time>2026-05-03T14:08:38Z</time></trkpt><trkpt lat="45.01070424327579" lon="8.388621146580627"><ele>206.0</ele><time>2026-05-03T14:08:39Z</time></trkpt><trkpt lat="45.01087427519964" lon="8.388739436133536"><ele>204.33333333333334</ele><time>2026-05-03T14:08:40Z</time></trkpt><trkpt lat="45.011053076657845" lon="8.388831510279946"><ele>202.66666666666669</ele><time>2026-05-03T14:08:41Z</time></trkpt><trkpt lat="45.011246668189436" lon="8.388883978036166"><ele>201.0</ele><time>2026-05-03T14:08:42Z</time></trkpt><trkpt lat="45.01144436417689" lon="8.388891419003269"><ele>201.0</ele><time>2026-05-03T14:08:43Z</time></trkpt><trkpt lat="45.01163619835964" lon="8.388869744333826"><ele>201.0</ele><time>2026-05-03T14:08:44Z</time></trkpt><trkpt lat="45.01186225679789" lon="8.388896062522006"><ele>201.0</ele><time>2026-05-03T14:08:45Z</time></trkpt><trkpt lat="45.01206173218928" lon="8.38889583751643"><ele>196.66666666666666</ele><time>2026-05-03T14:08:46Z</time></trkpt><trkpt lat="45.01225004519985" lon="8.38881229340041"><ele>192.33333333333331</ele><time>2026-05-03T14:08:47Z</time></trkpt><trkpt lat="45.01244278376382" lon="8.388789573749031"><ele>188.0</ele><time>2026-05-03T14:08:48Z</time></trkpt><trkpt lat="45.01262775739427" lon="8.38877143194718"><ele>185.0</ele><time>2026-05-03T14:08:49Z</time></trkpt><trkpt lat="45.012833184831024" lon="8.388737782961543"><ele>182.0</ele><time>2026-05-03T14:08:50Z</time></trkpt><trkpt lat="45.013046247148274" lon="8.388714644480526"><ele>179.0</ele><time>2026-05-03T14:08:51Z</time></trkpt><trkpt lat="45.01326895003476" lon="8.388704997856395"><ele>178.0</ele><time>2026-05-03T14:08:52Z</time></trkpt><trkpt lat="45.01354313515204" lon="8.388661719357081"><ele>177.0</ele><time>2026-05-03T14:08:53Z</time></trkpt><trkpt lat="45.01377491645388" lon="8.388642031123524"><ele>177.0</ele><time>2026-05-03T14:08:54Z</time></trkpt><trkpt lat="45.014008473846886" lon="8.388642978857009"><ele>177.0</ele><time>2026-05-03T14:08:55Z</time></trkpt><trkpt lat="45.014239878626" lon="8.388622076442182"><ele>176.0</ele><time>2026-05-03T14:08:56Z</time></trkpt><trkpt lat="45.01446689987534" lon="8.388601104513043"><ele>175.0</ele><time>2026-05-03T14:08:57Z</time></trkpt><trkpt lat="45.01468644659881" lon="8.388580664606499"><ele>174.0</ele><time>2026-05-03T14:08:58Z</time></trkpt><trkpt lat="45.01489441004253" lon="8.388567810583176"><ele>172.0</ele><time>2026-05-03T14:08:59Z</time></trkpt><trkpt lat="45.01510915757139" lon="8.388551252332501"><ele>170.0</ele><time>2026-05-03T14:09:00Z</time></trkpt><trkpt lat="45.01530544781813" lon="8.388537171281321"><ele>168.0</ele><time>2026-05-03T14:09:01Z</time></trkpt><trkpt lat="45.01551218967578" lon="8.388514781188691"><ele>168.0</ele><time>2026-05-03T14:09:02Z</time></trkpt><trkpt lat="45.01570052721056" lon="8.388501908766008"><ele>168.0</ele><time>2026-05-03T14:09:03Z</time></trkpt><trkpt lat="45.01588754779475" lon="8.388491194791303"><ele>168.0</ele><time>2026-05-03T14:09:04Z</time></trkpt><trkpt lat="45.016084060009824" lon="8.388473784209374"><ele>167.0</ele><time>2026-05-03T14:09:05Z</time></trkpt><trkpt lat="45.01627695228074" lon="8.388453134851158"><ele>166.0</ele><time>2026-05-03T14:09:05.999Z</time></trkpt><trkpt lat="45.01646265963533" lon="8.388432416314915"><ele>165.0</ele><time>2026-05-03T14:09:06.999Z</time></trkpt><trkpt lat="45.01664808864911" lon="8.388414509124363"><ele>164.33333333333334</ele><time>2026-05-03T14:09:07.999Z</time></trkpt><trkpt lat="45.016826035179264" lon="8.388400039694568"><ele>163.66666666666669</ele><time>2026-05-03T14:09:08.999Z</time></trkpt><trkpt lat="45.01698311590841" lon="8.388413661634779"><ele>163.0</ele><time>2026-05-03T14:09:09.999Z</time></trkpt><trkpt lat="45.01715034551963" lon="8.388407855885937"><ele>163.0</ele><time>2026-05-03T14:09:10.999Z</time></trkpt><trkpt lat="45.01729487076918" lon="8.388407843912127"><ele>163.0</ele><time>2026-05-03T14:09:11.999Z</time></trkpt><trkpt lat="45.01745383710501" lon="8.388376399319059"><ele>163.0</ele><time>2026-05-03T14:09:12.999Z</time></trkpt><trkpt lat="45.01759813877634" lon="8.38837709414229"><ele>163.0</ele><time>2026-05-03T14:09:13.999Z</time></trkpt><trkpt lat="45.01775970166705" lon="8.388357917876952"><ele>162.75</ele><time>2026-05-03T14:09:14.999Z</time></trkpt><trkpt lat="45.017901225665" lon="8.388391225531175"><ele>162.5</ele><time>2026-05-03T14:09:15.999Z</time></trkpt><trkpt lat="45.01803764697128" lon="8.38845740450528"><ele>162.25</ele><time>2026-05-03T14:09:16.999Z</time></trkpt><trkpt lat="45.01816603810837" lon="8.38852834517229"><ele>162.0</ele><time>2026-05-03T14:09:17.999Z</time></trkpt><trkpt lat="45.01832281146017" lon="8.388579820519569"><ele>162.33333333333334</ele><time>2026-05-03T14:09:18.999Z</time></trkpt><trkpt lat="45.01846777795578" lon="8.38868462449697"><ele>162.66666666666669</ele><time>2026-05-03T14:09:19.999Z</time></trkpt><trkpt lat="45.0186113400724" lon="8.388795315885742"><ele>163.0</ele><time>2026-05-03T14:09:20.999Z</time></trkpt><trkpt lat="45.0187169513603" lon="8.388932448328726"><ele>163.0</ele><time>2026-05-03T14:09:21.999Z</time></trkpt><trkpt lat="45.018842519454154" lon="8.389023401218664"><ele>163.0</ele><time>2026-05-03T14:09:22.999Z</time></trkpt><trkpt lat="45.01894147242617" lon="8.389156429680057"><ele>163.0</ele><time>2026-05-03T14:09:23.999Z</time></trkpt><trkpt lat="45.01901380016318" lon="8.389333542137075"><ele>163.0</ele><time>2026-05-03T14:09:24.999Z</time></trkpt><trkpt lat="45.01910166654264" lon="8.389508445824534"><ele>161.5</ele><time>2026-05-03T14:09:25.999Z</time></trkpt><trkpt lat="45.01919101685726" lon="8.389668315658376"><ele>160.0</ele><time>2026-05-03T14:09:26.999Z</time></trkpt><trkpt lat="45.01926230266153" lon="8.389833025153695"><ele>158.5</ele><time>2026-05-03T14:09:27.999Z</time></trkpt><trkpt lat="45.01933673375776" lon="8.389995131706186"><ele>157.0</ele><time>2026-05-03T14:09:28.999Z</time></trkpt><trkpt lat="45.019363816422434" lon="8.390168375006843"><ele>157.0</ele><time>2026-05-03T14:09:29.999Z</time></trkpt><trkpt lat="45.01942309268599" lon="8.390318854094463"><ele>157.0</ele><time>2026-05-03T14:09:30.999Z</time></trkpt><trkpt lat="45.019474141612896" lon="8.390439655588537"><ele>157.0</ele><time>2026-05-03T14:09:31.999Z</time></trkpt><trkpt lat="45.01952905031473" lon="8.390536522238886"><ele>157.0</ele><time>2026-05-03T14:09:32.999Z</time></trkpt><trkpt lat="45.01955272716258" lon="8.390641902125783"><ele>157.0</ele><time>2026-05-03T14:09:33.999Z</time></trkpt><trkpt lat="45.01952426330776" lon="8.390725182877153"><ele>157.28571428571428</ele><time>2026-05-03T14:09:34.999Z</time></trkpt><trkpt lat="45.019511861052294" lon="8.390822074475064"><ele>157.57142857142856</ele><time>2026-05-03T14:09:35.999Z</time></trkpt><trkpt lat="45.01950364059804" lon="8.39092013393634"><ele>157.85714285714283</ele><time>2026-05-03T14:09:36.999Z</time></trkpt><trkpt lat="45.01952413909425" lon="8.391016131480416"><ele>158.14285714285714</ele><time>2026-05-03T14:09:37.999Z</time></trkpt><trkpt lat="45.01955980662963" lon="8.39110959938581"><ele>158.42857142857144</ele><time>2026-05-03T14:09:38.999Z</time></trkpt><trkpt lat="45.01962482721164" lon="8.391159077769542"><ele>158.7142857142857</ele><time>2026-05-03T14:09:39.999Z</time></trkpt><trkpt lat="45.01970359209417" lon="8.391188934199837"><ele>159.0</ele><time>2026-05-03T14:09:40.999Z</time></trkpt><trkpt lat="45.01978377557442" lon="8.391176219400876"><ele>159.0</ele><time>2026-05-03T14:09:41.999Z</time></trkpt><trkpt lat="45.019853120635084" lon="8.391137373983666"><ele>159.0</ele><time>2026-05-03T14:09:43Z</time></trkpt><trkpt lat="45.019934696380396" lon="8.391105852608408"><ele>159.0</ele><time>2026-05-03T14:09:44Z</time></trkpt><trkpt lat="45.02001952899965" lon="8.391112675869152"><ele>159.0</ele><time>2026-05-03T14:09:45Z</time></trkpt><trkpt lat="45.020154871276986" lon="8.391160210949689"><ele>159.0</ele><time>2026-05-03T14:09:46Z</time></trkpt><trkpt lat="45.02033157459172" lon="8.391231844380124"><ele>155.0</ele><time>2026-05-03T14:09:47Z</time></trkpt><trkpt lat="45.02051633906671" lon="8.391150696525655"><ele>151.0</ele><time>2026-05-03T14:09:48Z</time></trkpt><trkpt lat="45.020707146382065" lon="8.391070791688678"><ele>147.0</ele><time>2026-05-03T14:09:49Z</time></trkpt><trkpt lat="45.02092979957996" lon="8.390984431164974"><ele>146.0</ele><time>2026-05-03T14:09:50Z</time></trkpt><trkpt lat="45.02116511218198" lon="8.390883613825604"><ele>145.0</ele><time>2026-05-03T14:09:51Z</time></trkpt><trkpt lat="45.02140282637727" lon="8.390781767573788"><ele>145.0</ele><time>2026-05-03T14:09:52Z</time></trkpt><trkpt lat="45.021633023660236" lon="8.390682634948456"><ele>145.0</ele><time>2026-05-03T14:09:53Z</time></trkpt><trkpt lat="45.02187554112481" lon="8.39057678256076"><ele>147.0</ele><time>2026-05-03T14:09:54Z</time></trkpt><trkpt lat="45.0221080601545" lon="8.390475299210772"><ele>149.0</ele><time>2026-05-03T14:09:55Z</time></trkpt><trkpt lat="45.022361704123085" lon="8.390364189435276"><ele>147.5</ele><time>2026-05-03T14:09:56Z</time></trkpt><trkpt lat="45.02259658888235" lon="8.390261259904596"><ele>146.0</ele><time>2026-05-03T14:09:57Z</time></trkpt><trkpt lat="45.02280875695248" lon="8.390168285135514"><ele>146.0</ele><time>2026-05-03T14:09:58Z</time></trkpt><trkpt lat="45.02300621154503" lon="8.39008175800498"><ele>146.0</ele><time>2026-05-03T14:09:59Z</time></trkpt><trkpt lat="45.02319247589191" lon="8.390000134581564"><ele>146.0</ele><time>2026-05-03T14:10:00Z</time></trkpt><trkpt lat="45.023391130532154" lon="8.389913146137157"><ele>147.66666666666666</ele><time>2026-05-03T14:10:01Z</time></trkpt><trkpt lat="45.023584159840816" lon="8.389829817243543"><ele>149.33333333333334</ele><time>2026-05-03T14:10:02Z</time></trkpt><trkpt lat="45.023766240891874" lon="8.389748522638119"><ele>151.0</ele><time>2026-05-03T14:10:03Z</time></trkpt><trkpt lat="45.02391050582023" lon="8.389633223408113"><ele>151.0</ele><time>2026-05-03T14:10:04Z</time></trkpt><trkpt lat="45.02405151731712" lon="8.389527907013838"><ele>151.0</ele><time>2026-05-03T14:10:05Z</time></trkpt><trkpt lat="45.024176881684326" lon="8.389368864837746"><ele>151.0</ele><time>2026-05-03T14:10:06Z</time></trkpt><trkpt lat="45.02428214913421" lon="8.389154735182343"><ele>153.33333333333334</ele><time>2026-05-03T14:10:07Z</time></trkpt><trkpt lat="45.02435752668589" lon="8.388932538458892"><ele>155.66666666666666</ele><time>2026-05-03T14:10:08Z</time></trkpt><trkpt lat="45.02438486789528" lon="8.38867401016738"><ele>158.0</ele><time>2026-05-03T14:10:09Z</time></trkpt><trkpt lat="45.02437418245109" lon="8.388409588791788"><ele>159.33333333333331</ele><time>2026-05-03T14:10:10Z</time></trkpt><trkpt lat="45.02433804286247" lon="8.388144043360734"><ele>160.66666666666666</ele><time>2026-05-03T14:10:11Z</time></trkpt><trkpt lat="45.02430015437458" lon="8.387886402423089"><ele>162.0</ele><time>2026-05-03T14:10:12Z</time></trkpt><trkpt lat="45.02427116629583" lon="8.387654594957954"><ele>163.0</ele><time>2026-05-03T14:10:13Z</time></trkpt><trkpt lat="45.02425150632207" lon="8.387445114981624"><ele>164.0</ele><time>2026-05-03T14:10:14Z</time></trkpt><trkpt lat="45.02422586640501" lon="8.387206508412989"><ele>165.0</ele><time>2026-05-03T14:10:15Z</time></trkpt><trkpt lat="45.024216946155505" lon="8.386979347194458"><ele>165.66666666666666</ele><time>2026-05-03T14:10:16Z</time></trkpt><trkpt lat="45.02425110935387" lon="8.38674767818945"><ele>166.33333333333331</ele><time>2026-05-03T14:10:17Z</time></trkpt><trkpt lat="45.02429594890318" lon="8.386528834267594"><ele>167.0</ele><time>2026-05-03T14:10:18Z</time></trkpt><trkpt lat="45.024351014099494" lon="8.386350777354576"><ele>165.75</ele><time>2026-05-03T14:10:19Z</time></trkpt><trkpt lat="45.024430947490494" lon="8.38619987020226"><ele>164.5</ele><time>2026-05-03T14:10:20Z</time></trkpt><trkpt lat="45.024529100489964" lon="8.38607138734822"><ele>163.25</ele><time>2026-05-03T14:10:21Z</time></trkpt><trkpt lat="45.02467249641751" lon="8.386003131186346"><ele>162.0</ele><time>2026-05-03T14:10:22Z</time></trkpt><trkpt lat="45.02480858176353" lon="8.385976449050855"><ele>162.0</ele><time>2026-05-03T14:10:23Z</time></trkpt><trkpt lat="45.024945197533825" lon="8.38598715362473"><ele>162.0</ele><time>2026-05-03T14:10:24Z</time></trkpt><trkpt lat="45.02510310197005" lon="8.386033609310257"><ele>162.0</ele><time>2026-05-03T14:10:25Z</time></trkpt><trkpt lat="45.02525562064453" lon="8.386083064383444"><ele>166.33333333333334</ele><time>2026-05-03T14:10:26Z</time></trkpt><trkpt lat="45.025402167320564" lon="8.386193614391086"><ele>170.66666666666669</ele><time>2026-05-03T14:10:27Z</time></trkpt><trkpt lat="45.02554472404672" lon="8.386326868017715"><ele>175.0</ele><time>2026-05-03T14:10:28Z</time></trkpt><trkpt lat="45.025695453583616" lon="8.386459211461036"><ele>178.66666666666669</ele><time>2026-05-03T14:10:29Z</time></trkpt><trkpt lat="45.02585317040206" lon="8.386582534519492"><ele>182.33333333333334</ele><time>2026-05-03T14:10:30Z</time></trkpt><trkpt lat="45.02599562244035" lon="8.386736778819115"><ele>186.0</ele><time>2026-05-03T14:10:31Z</time></trkpt><trkpt lat="45.02615296696856" lon="8.386877405565265"><ele>186.0</ele><time>2026-05-03T14:10:32Z</time></trkpt><trkpt lat="45.02631845769471" lon="8.386999386193004"><ele>186.0</ele><time>2026-05-03T14:10:33Z</time></trkpt><trkpt lat="45.0264711642255" lon="8.387138299005496"><ele>186.0</ele><time>2026-05-03T14:10:34Z</time></trkpt><trkpt lat="45.02662194210873" lon="8.387264160554832"><ele>189.0</ele><time>2026-05-03T14:10:35Z</time></trkpt><trkpt lat="45.026775117404014" lon="8.387387380511386"><ele>192.0</ele><time>2026-05-03T14:10:36Z</time></trkpt><trkpt lat="45.026940413232495" lon="8.387484044082813"><ele>195.0</ele><time>2026-05-03T14:10:37Z</time></trkpt><trkpt lat="45.02710904069564" lon="8.38756479466644"><ele>195.0</ele><time>2026-05-03T14:10:38Z</time></trkpt><trkpt lat="45.02728173784078" lon="8.38762060888404"><ele>195.0</ele><time>2026-05-03T14:10:39Z</time></trkpt><trkpt lat="45.0274818139894" lon="8.387646410895908"><ele>195.0</ele><time>2026-05-03T14:10:40Z</time></trkpt><trkpt lat="45.02765734787288" lon="8.387664157748684"><ele>195.33333333333331</ele><time>2026-05-03T14:10:41Z</time></trkpt><trkpt lat="45.027858647733524" lon="8.387653087908879"><ele>195.66666666666666</ele><time>2026-05-03T14:10:42Z</time></trkpt><trkpt lat="45.02806025783313" lon="8.387668488002092"><ele>196.0</ele><time>2026-05-03T14:10:43Z</time></trkpt><trkpt lat="45.028259563314215" lon="8.38764722133795"><ele>197.66666666666666</ele><time>2026-05-03T14:10:44Z</time></trkpt><trkpt lat="45.02846034732476" lon="8.387659091819"><ele>199.33333333333331</ele><time>2026-05-03T14:10:45Z</time></trkpt><trkpt lat="45.02864762441986" lon="8.387649815862897"><ele>201.0</ele><time>2026-05-03T14:10:46Z</time></trkpt><trkpt lat="45.028838226968766" lon="8.387692583282426"><ele>201.0</ele><time>2026-05-03T14:10:47Z</time></trkpt><trkpt lat="45.02901446747444" lon="8.387734781238743"><ele>201.0</ele><time>2026-05-03T14:10:48Z</time></trkpt><trkpt lat="45.02918765481919" lon="8.38778496439832"><ele>201.0</ele><time>2026-05-03T14:10:49Z</time></trkpt><trkpt lat="45.02934725830785" lon="8.387816203628121"><ele>202.33333333333331</ele><time>2026-05-03T14:10:50Z</time></trkpt><trkpt lat="45.02948881955752" lon="8.387889149088137"><ele>203.66666666666666</ele><time>2026-05-03T14:10:51Z</time></trkpt><trkpt lat="45.029644169739036" lon="8.387919139491332"><ele>205.0</ele><time>2026-05-03T14:10:52Z</time></trkpt><trkpt lat="45.02979076686781" lon="8.387932428169114"><ele>205.0</ele><time>2026-05-03T14:10:53Z</time></trkpt><trkpt lat="45.02993336534041" lon="8.38793106128841"><ele>205.0</ele><time>2026-05-03T14:10:54Z</time></trkpt><trkpt lat="45.03007158048097" lon="8.387856448238855"><ele>205.0</ele><time>2026-05-03T14:10:55Z</time></trkpt><trkpt lat="45.03018419714018" lon="8.387728745393378"><ele>205.0</ele><time>2026-05-03T14:10:56Z</time></trkpt><trkpt lat="45.03026468526619" lon="8.387563560605715"><ele>206.75</ele><time>2026-05-03T14:10:57Z</time></trkpt><trkpt lat="45.030315260477124" lon="8.387361535337346"><ele>208.5</ele><time>2026-05-03T14:10:58Z</time></trkpt><trkpt lat="45.030302928927526" lon="8.387190991080038"><ele>210.25</ele><time>2026-05-03T14:10:59Z</time></trkpt><trkpt lat="45.03030011099005" lon="8.386986838140036"><ele>212.0</ele><time>2026-05-03T14:11:00Z</time></trkpt><trkpt lat="45.030320451359046" lon="8.386784045282091"><ele>212.0</ele><time>2026-05-03T14:11:01Z</time></trkpt><trkpt lat="45.030377929994316" lon="8.386593078646046"><ele>212.0</ele><time>2026-05-03T14:11:02Z</time></trkpt><trkpt lat="45.03044851804727" lon="8.386406263547048"><ele>212.0</ele><time>2026-05-03T14:11:02.999Z</time></trkpt><trkpt lat="45.030532424753964" lon="8.38621901764643"><ele>211.5</ele><time>2026-05-03T14:11:03.999Z</time></trkpt><trkpt lat="45.03061495654459" lon="8.386036844160513"><ele>211.0</ele><time>2026-05-03T14:11:04.999Z</time></trkpt><trkpt lat="45.030700956081006" lon="8.385868143855394"><ele>210.5</ele><time>2026-05-03T14:11:05.999Z</time></trkpt><trkpt lat="45.030788099196606" lon="8.385715169249705"><ele>210.0</ele><time>2026-05-03T14:11:06.999Z</time></trkpt><trkpt lat="45.03087681584657" lon="8.385598966318803"><ele>211.4</ele><time>2026-05-03T14:11:07.999Z</time></trkpt><trkpt lat="45.03096511424278" lon="8.38551098284976"><ele>212.8</ele><time>2026-05-03T14:11:08.999Z</time></trkpt><trkpt lat="45.03104266517086" lon="8.38548968827229"><ele>214.2</ele><time>2026-05-03T14:11:09.999Z</time></trkpt><trkpt lat="45.031136347513346" lon="8.385522449735541"><ele>215.6</ele><time>2026-05-03T14:11:10.999Z</time></trkpt><trkpt lat="45.03123165969972" lon="8.385537171871324"><ele>217.0</ele><time>2026-05-03T14:11:11.999Z</time></trkpt><trkpt lat="45.03133984300953" lon="8.385515049479045"><ele>219.25</ele><time>2026-05-03T14:11:12.999Z</time></trkpt><trkpt lat="45.031452265606184" lon="8.385520917865742"><ele>221.5</ele><time>2026-05-03T14:11:13.999Z</time></trkpt><trkpt lat="45.0315657003988" lon="8.385526458293977"><ele>223.75</ele><time>2026-05-03T14:11:14.999Z</time></trkpt><trkpt lat="45.0316820836242" lon="8.385529229095845"><ele>226.0</ele><time>2026-05-03T14:11:15.999Z</time></trkpt><trkpt lat="45.03180370156696" lon="8.385575419106562"><ele>228.25</ele><time>2026-05-03T14:11:16.999Z</time></trkpt><trkpt lat="45.031933181974296" lon="8.385597811375417"><ele>230.5</ele><time>2026-05-03T14:11:17.999Z</time></trkpt><trkpt lat="45.03205045101903" lon="8.385647939427262"><ele>232.75</ele><time>2026-05-03T14:11:18.999Z</time></trkpt><trkpt lat="45.03216077722565" lon="8.385670298752782"><ele>235.0</ele><time>2026-05-03T14:11:19.999Z</time></trkpt><trkpt lat="45.03225420154154" lon="8.385753518981137"><ele>235.0</ele><time>2026-05-03T14:11:20.999Z</time></trkpt><trkpt lat="45.03235761027938" lon="8.385768853091454"><ele>235.0</ele><time>2026-05-03T14:11:21.999Z</time></trkpt><trkpt lat="45.03246820616356" lon="8.385792947009616"><ele>235.0</ele><time>2026-05-03T14:11:22.999Z</time></trkpt><trkpt lat="45.0325747089035" lon="8.385833329408896"><ele>235.0</ele><time>2026-05-03T14:11:23.999Z</time></trkpt><trkpt lat="45.032682470265755" lon="8.385867588988857"><ele>235.0</ele><time>2026-05-03T14:11:24.999Z</time></trkpt><trkpt lat="45.032791891593035" lon="8.385885725884393"><ele>234.4</ele><time>2026-05-03T14:11:25.999Z</time></trkpt><trkpt lat="45.03289433478379" lon="8.385915421802153"><ele>233.8</ele><time>2026-05-03T14:11:26.999Z</time></trkpt><trkpt lat="45.032974542841664" lon="8.385934940340238"><ele>233.2</ele><time>2026-05-03T14:11:27.999Z</time></trkpt><trkpt lat="45.03305867605706" lon="8.385988511161047"><ele>232.6</ele><time>2026-05-03T14:11:28.999Z</time></trkpt><trkpt lat="45.03314082064723" lon="8.386056091718897"><ele>232.0</ele><time>2026-05-03T14:11:29.999Z</time></trkpt><trkpt lat="45.033220049920395" lon="8.386140965403024"><ele>231.99999999999997</ele><time>2026-05-03T14:11:30.999Z</time></trkpt><trkpt lat="45.03328580058782" lon="8.386259018645806"><ele>232.0</ele><time>2026-05-03T14:11:31.999Z</time></trkpt><trkpt lat="45.03332800321768" lon="8.386333116546348"><ele>232.0</ele><time>2026-05-03T14:11:32.999Z</time></trkpt><trkpt lat="45.03340250423703" lon="8.386458620629432"><ele>232.0</ele><time>2026-05-03T14:11:34.999Z</time></trkpt><trkpt lat="45.033458844958034" lon="8.386502855598152"><ele>231.99999999999997</ele><time>2026-05-03T14:11:35.999Z</time></trkpt><trkpt lat="45.03352575642328" lon="8.38653077183932"><ele>232.0</ele><time>2026-05-03T14:11:36.999Z</time></trkpt><trkpt lat="45.03361244444124" lon="8.386522441170415"><ele>233.6</ele><time>2026-05-03T14:11:37.999Z</time></trkpt><trkpt lat="45.03369099180275" lon="8.386535236163434"><ele>235.2</ele><time>2026-05-03T14:11:38.999Z</time></trkpt><trkpt lat="45.03379210387286" lon="8.386549786914708"><ele>236.8</ele><time>2026-05-03T14:11:39.999Z</time></trkpt><trkpt lat="45.03390079521594" lon="8.386581693665516"><ele>238.4</ele><time>2026-05-03T14:11:40.999Z</time></trkpt><trkpt lat="45.033992524410564" lon="8.386613422012084"><ele>240.0</ele><time>2026-05-03T14:11:41.999Z</time></trkpt><trkpt lat="45.0341137697469" lon="8.386610948304718"><ele>240.0</ele><time>2026-05-03T14:11:42.999Z</time></trkpt><trkpt lat="45.034222676143074" lon="8.386617028323743"><ele>240.0</ele><time>2026-05-03T14:11:43.999Z</time></trkpt><trkpt lat="45.034338081417815" lon="8.386589264352182"><ele>240.0</ele><time>2026-05-03T14:11:44.999Z</time></trkpt><trkpt lat="45.03445974651893" lon="8.386525412516804"><ele>240.0</ele><time>2026-05-03T14:11:45.999Z</time></trkpt><trkpt lat="45.03458850178098" lon="8.386445561002947"><ele>240.75</ele><time>2026-05-03T14:11:46.999Z</time></trkpt><trkpt lat="45.034691887712654" lon="8.386326365006456"><ele>241.5</ele><time>2026-05-03T14:11:47.999Z</time></trkpt><trkpt lat="45.034804252581175" lon="8.386214294240384"><ele>242.25</ele><time>2026-05-03T14:11:49Z</time></trkpt><trkpt lat="45.03483788234883" lon="8.386129608209929"><ele>243.0</ele><time>2026-05-03T14:11:50Z</time></trkpt><trkpt lat="45.03494946971621" lon="8.386004564490126"><ele>241.0</ele><time>2026-05-03T14:11:51Z</time></trkpt><trkpt lat="45.035048975317814" lon="8.385924366658939"><ele>239.0</ele><time>2026-05-03T14:11:52Z</time></trkpt><trkpt lat="45.03511588605948" lon="8.385808998365096"><ele>237.0</ele><time>2026-05-03T14:11:53Z</time></trkpt><trkpt lat="45.035210000163055" lon="8.385677024593353"><ele>235.0</ele><time>2026-05-03T14:11:54Z</time></trkpt><trkpt lat="45.03529654780458" lon="8.385546792105078"><ele>234.33333333333331</ele><time>2026-05-03T14:11:55Z</time></trkpt><trkpt lat="45.03539859334976" lon="8.385403165523229"><ele>233.66666666666669</ele><time>2026-05-03T14:11:56Z</time></trkpt><trkpt lat="45.035503658529485" lon="8.3852441561422"><ele>233.0</ele><time>2026-05-03T14:11:57Z</time></trkpt><trkpt lat="45.03560575879498" lon="8.385082317528216"><ele>233.0</ele><time>2026-05-03T14:11:58Z</time></trkpt><trkpt lat="45.035700265215446" lon="8.384927631449482"><ele>233.0</ele><time>2026-05-03T14:11:59Z</time></trkpt><trkpt lat="45.035804518216935" lon="8.384762397807867"><ele>233.0</ele><time>2026-05-03T14:12:00Z</time></trkpt><trkpt lat="45.035923814249394" lon="8.384579724521656"><ele>228.66666666666669</ele><time>2026-05-03T14:12:01Z</time></trkpt><trkpt lat="45.036036986273444" lon="8.384428388235937"><ele>224.33333333333331</ele><time>2026-05-03T14:12:02Z</time></trkpt><trkpt lat="45.03615207857818" lon="8.384243553886177"><ele>220.0</ele><time>2026-05-03T14:12:03Z</time></trkpt><trkpt lat="45.036265522990924" lon="8.384062985116833"><ele>220.0</ele><time>2026-05-03T14:12:04Z</time></trkpt><trkpt lat="45.0363820110545" lon="8.383860301902429"><ele>220.0</ele><time>2026-05-03T14:12:05Z</time></trkpt><trkpt lat="45.036521786683075" lon="8.383669324263366"><ele>220.0</ele><time>2026-05-03T14:12:06Z</time></trkpt><trkpt lat="45.036642876886035" lon="8.38348264600508"><ele>220.33333333333331</ele><time>2026-05-03T14:12:07Z</time></trkpt><trkpt lat="45.036774778779524" lon="8.383274051192322"><ele>220.66666666666669</ele><time>2026-05-03T14:12:08Z</time></trkpt><trkpt lat="45.03689639440367" lon="8.3830802406233"><ele>221.0</ele><time>2026-05-03T14:12:09Z</time></trkpt><trkpt lat="45.037028414978785" lon="8.38287573444948"><ele>219.0</ele><time>2026-05-03T14:12:10Z</time></trkpt><trkpt lat="45.03716321564358" lon="8.382668457975864"><ele>217.0</ele><time>2026-05-03T14:12:11Z</time></trkpt><trkpt lat="45.03728226855585" lon="8.382486933565676"><ele>215.0</ele><time>2026-05-03T14:12:12Z</time></trkpt><trkpt lat="45.03740288762489" lon="8.382304042311935"><ele>215.0</ele><time>2026-05-03T14:12:13Z</time></trkpt><trkpt lat="45.03752332314928" lon="8.382116380988526"><ele>215.0</ele><time>2026-05-03T14:12:14Z</time></trkpt><trkpt lat="45.037639624061946" lon="8.38193516210523"><ele>215.0</ele><time>2026-05-03T14:12:15Z</time></trkpt><trkpt lat="45.0377405818942" lon="8.3817778507175"><ele>215.0</ele><time>2026-05-03T14:12:16Z</time></trkpt><trkpt lat="45.03786766913054" lon="8.38157982519673"><ele>215.0</ele><time>2026-05-03T14:12:17Z</time></trkpt><trkpt lat="45.037976032396635" lon="8.381412296985248"><ele>215.0</ele><time>2026-05-03T14:12:18Z</time></trkpt><trkpt lat="45.03807385057341" lon="8.381228876525979"><ele>214.75</ele><time>2026-05-03T14:12:19Z</time></trkpt><trkpt lat="45.03818279430649" lon="8.381094986516088"><ele>214.5</ele><time>2026-05-03T14:12:20Z</time></trkpt><trkpt lat="45.03827958933186" lon="8.380987039114741"><ele>214.25</ele><time>2026-05-03T14:12:21Z</time></trkpt><trkpt lat="45.03835422068282" lon="8.38089042666282"><ele>214.0</ele><time>2026-05-03T14:12:22Z</time></trkpt><trkpt lat="45.038425645822464" lon="8.380801030922713"><ele>214.0</ele><time>2026-05-03T14:12:23Z</time></trkpt><trkpt lat="45.03849184156805" lon="8.3807367503204"><ele>213.99999999999997</ele><time>2026-05-03T14:12:24Z</time></trkpt><trkpt lat="45.03857307068234" lon="8.380690849560976"><ele>213.99999999999997</ele><time>2026-05-03T14:12:25Z</time></trkpt><trkpt lat="45.038688386032405" lon="8.380636260965456"><ele>214.0</ele><time>2026-05-03T14:12:26Z</time></trkpt><trkpt lat="45.03880621774429" lon="8.380562755737218"><ele>214.0</ele><time>2026-05-03T14:12:27Z</time></trkpt><trkpt lat="45.038941994175026" lon="8.380474375952117"><ele>214.0</ele><time>2026-05-03T14:12:28Z</time></trkpt><trkpt lat="45.039087653671224" lon="8.380385740298976"><ele>214.0</ele><time>2026-05-03T14:12:29Z</time></trkpt><trkpt lat="45.039256694876876" lon="8.380291836403464"><ele>214.0</ele><time>2026-05-03T14:12:30Z</time></trkpt><trkpt lat="45.039427919613374" lon="8.380211769070616"><ele>213.33333333333331</ele><time>2026-05-03T14:12:31Z</time></trkpt><trkpt lat="45.03957766870237" lon="8.380140122484333"><ele>212.66666666666669</ele><time>2026-05-03T14:12:32Z</time></trkpt><trkpt lat="45.039737577860684" lon="8.380059834071563"><ele>212.0</ele><time>2026-05-03T14:12:33Z</time></trkpt><trkpt lat="45.03990274069461" lon="8.37996723668915"><ele>210.75</ele><time>2026-05-03T14:12:34Z</time></trkpt><trkpt lat="45.040037502798036" lon="8.37988643901911"><ele>209.5</ele><time>2026-05-03T14:12:35Z</time></trkpt><trkpt lat="45.04015845711855" lon="8.379785885211438"><ele>208.25</ele><time>2026-05-03T14:12:36Z</time></trkpt><trkpt lat="45.040245759163135" lon="8.379631268570009"><ele>207.0</ele><time>2026-05-03T14:12:37Z</time></trkpt><trkpt lat="45.0403088972735" lon="8.379438421241394"><ele>207.0</ele><time>2026-05-03T14:12:38Z</time></trkpt><trkpt lat="45.04033576614358" lon="8.379212743969195"><ele>207.0</ele><time>2026-05-03T14:12:39Z</time></trkpt><trkpt lat="45.04037882598802" lon="8.379014768014247"><ele>207.0</ele><time>2026-05-03T14:12:40Z</time></trkpt><trkpt lat="45.040435857149596" lon="8.378830478526577"><ele>207.0</ele><time>2026-05-03T14:12:41Z</time></trkpt><trkpt lat="45.04051187768281" lon="8.378704204959247"><ele>207.0</ele><time>2026-05-03T14:12:42Z</time></trkpt><trkpt lat="45.04060980799545" lon="8.37860485078344"><ele>207.0</ele><time>2026-05-03T14:12:43Z</time></trkpt><trkpt lat="45.04072962373565" lon="8.378552693379515"><ele>207.0</ele><time>2026-05-03T14:12:44Z</time></trkpt><trkpt lat="45.040862463747516" lon="8.378577689641908"><ele>205.0</ele><time>2026-05-03T14:12:45Z</time></trkpt><trkpt lat="45.040977003793046" lon="8.378637843769138"><ele>203.0</ele><time>2026-05-03T14:12:46Z</time></trkpt><trkpt lat="45.04108219219636" lon="8.378753468549494"><ele>201.0</ele><time>2026-05-03T14:12:47Z</time></trkpt><trkpt lat="45.04115811252148" lon="8.378906015718664"><ele>199.0</ele><time>2026-05-03T14:12:48Z</time></trkpt><trkpt lat="45.0411882055234" lon="8.379090696537025"><ele>198.66666666666666</ele><time>2026-05-03T14:12:49Z</time></trkpt><trkpt lat="45.04119141049465" lon="8.379305601767634"><ele>198.33333333333331</ele><time>2026-05-03T14:12:50Z</time></trkpt><trkpt lat="45.04114320778451" lon="8.379510511024753"><ele>198.0</ele><time>2026-05-03T14:12:51Z</time></trkpt><trkpt lat="45.04108005567936" lon="8.379705333554666"><ele>197.0</ele><time>2026-05-03T14:12:52Z</time></trkpt><trkpt lat="45.04101639893483" lon="8.379924778266073"><ele>196.0</ele><time>2026-05-03T14:12:53Z</time></trkpt><trkpt lat="45.040938893510884" lon="8.38015607632185"><ele>195.0</ele><time>2026-05-03T14:12:54Z</time></trkpt><trkpt lat="45.040867022509744" lon="8.380397481278619"><ele>196.0</ele><time>2026-05-03T14:12:55Z</time></trkpt><trkpt lat="45.0407807703688" lon="8.380659781369587"><ele>197.0</ele><time>2026-05-03T14:12:56Z</time></trkpt><trkpt lat="45.04070606440404" lon="8.380914186435879"><ele>198.0</ele><time>2026-05-03T14:12:57Z</time></trkpt><trkpt lat="45.04063591026028" lon="8.38116664439669"><ele>196.66666666666669</ele><time>2026-05-03T14:12:58Z</time></trkpt><trkpt lat="45.04057724494912" lon="8.381413636452685"><ele>195.33333333333334</ele><time>2026-05-03T14:12:59Z</time></trkpt><trkpt lat="45.04052361781478" lon="8.381639233235244"><ele>194.0</ele><time>2026-05-03T14:13:00Z</time></trkpt><trkpt lat="45.040532285854155" lon="8.38186419603268"><ele>194.0</ele><time>2026-05-03T14:13:01Z</time></trkpt><trkpt lat="45.04058126995374" lon="8.382080449847109"><ele>194.0</ele><time>2026-05-03T14:13:02Z</time></trkpt><trkpt lat="45.04066045636648" lon="8.382271806413543"><ele>194.0</ele><time>2026-05-03T14:13:03Z</time></trkpt><trkpt lat="45.04075571198647" lon="8.38249957930933"><ele>190.33333333333334</ele><time>2026-05-03T14:13:04Z</time></trkpt><trkpt lat="45.040848822823946" lon="8.3827299775171"><ele>186.66666666666669</ele><time>2026-05-03T14:13:04.999Z</time></trkpt><trkpt lat="45.0409498283052" lon="8.382954754715984"><ele>183.0</ele><time>2026-05-03T14:13:05.999Z</time></trkpt><trkpt lat="45.04104446679553" lon="8.383181046338642"><ele>182.66666666666666</ele><time>2026-05-03T14:13:06.999Z</time></trkpt><trkpt lat="45.04114811528005" lon="8.383400174089022"><ele>182.33333333333331</ele><time>2026-05-03T14:13:07.999Z</time></trkpt><trkpt lat="45.041227858063856" lon="8.383598496740873"><ele>182.0</ele><time>2026-05-03T14:13:08.999Z</time></trkpt><trkpt lat="45.04132375629698" lon="8.38379686219579"><ele>182.75</ele><time>2026-05-03T14:13:09.999Z</time></trkpt><trkpt lat="45.04141331775139" lon="8.383975101316766"><ele>183.5</ele><time>2026-05-03T14:13:10.999Z</time></trkpt><trkpt lat="45.04151174443881" lon="8.384118662250827"><ele>184.25</ele><time>2026-05-03T14:13:11.999Z</time></trkpt><trkpt lat="45.04163921391469" lon="8.384216764059673"><ele>185.0</ele><time>2026-05-03T14:13:12.999Z</time></trkpt><trkpt lat="45.04177679174146" lon="8.384275258671389"><ele>182.66666666666666</ele><time>2026-05-03T14:13:13.999Z</time></trkpt><trkpt lat="45.041926764191096" lon="8.384311247861422"><ele>180.33333333333334</ele><time>2026-05-03T14:13:14.999Z</time></trkpt><trkpt lat="45.042092058228896" lon="8.38434390894422"><ele>178.0</ele><time>2026-05-03T14:13:15.999Z</time></trkpt><trkpt lat="45.042264223487315" lon="8.384374182107964"><ele>178.0</ele><time>2026-05-03T14:13:16.999Z</time></trkpt><trkpt lat="45.04243034692383" lon="8.384414004560956"><ele>178.0</ele><time>2026-05-03T14:13:17.999Z</time></trkpt><trkpt lat="45.042591337181534" lon="8.384451430491158"><ele>178.0</ele><time>2026-05-03T14:13:18.999Z</time></trkpt><trkpt lat="45.042730344349174" lon="8.38448298725733"><ele>177.75</ele><time>2026-05-03T14:13:19.999Z</time></trkpt><trkpt lat="45.042839022811656" lon="8.384523166286598"><ele>177.5</ele><time>2026-05-03T14:13:20.999Z</time></trkpt><trkpt lat="45.04293812467646" lon="8.384606523240206"><ele>177.25</ele><time>2026-05-03T14:13:21.999Z</time></trkpt><trkpt lat="45.04301952536718" lon="8.384732311065289"><ele>177.0</ele><time>2026-05-03T14:13:22.999Z</time></trkpt><trkpt lat="45.04306638286989" lon="8.384887186102485"><ele>177.0</ele><time>2026-05-03T14:13:23.999Z</time></trkpt><trkpt lat="45.04306864272511" lon="8.385067180127978"><ele>177.0</ele><time>2026-05-03T14:13:24.999Z</time></trkpt><trkpt lat="45.04302822025657" lon="8.385267555938976"><ele>177.0</ele><time>2026-05-03T14:13:25.999Z</time></trkpt><trkpt lat="45.04300071711169" lon="8.38546686506105"><ele>177.0</ele><time>2026-05-03T14:13:26.999Z</time></trkpt><trkpt lat="45.04300617225507" lon="8.385669617962309"><ele>177.66666666666666</ele><time>2026-05-03T14:13:27.999Z</time></trkpt><trkpt lat="45.04305381190327" lon="8.385871556551974"><ele>178.33333333333331</ele><time>2026-05-03T14:13:28.999Z</time></trkpt><trkpt lat="45.043134354332764" lon="8.38606894017702"><ele>179.0</ele><time>2026-05-03T14:13:29.999Z</time></trkpt><trkpt lat="45.04322917826579" lon="8.386253641711734"><ele>176.66666666666666</ele><time>2026-05-03T14:13:30.999Z</time></trkpt><trkpt lat="45.043339862254754" lon="8.386420647393951"><ele>174.33333333333334</ele><time>2026-05-03T14:13:31.999Z</time></trkpt><trkpt lat="45.043464339929606" lon="8.38659444093171"><ele>172.0</ele><time>2026-05-03T14:13:32.999Z</time></trkpt><trkpt lat="45.04356365168864" lon="8.386774641617318"><ele>172.0</ele><time>2026-05-03T14:13:33.999Z</time></trkpt><trkpt lat="45.04368429008907" lon="8.386952006544718"><ele>172.0</ele><time>2026-05-03T14:13:34.999Z</time></trkpt><trkpt lat="45.043795398648875" lon="8.387147823629507"><ele>172.0</ele><time>2026-05-03T14:13:35.999Z</time></trkpt><trkpt lat="45.04392686611693" lon="8.387316805406357"><ele>173.66666666666669</ele><time>2026-05-03T14:13:36.999Z</time></trkpt><trkpt lat="45.04403788489575" lon="8.387524411383374"><ele>175.33333333333334</ele><time>2026-05-03T14:13:37.999Z</time></trkpt><trkpt lat="45.04415882455426" lon="8.387715380884105"><ele>177.0</ele><time>2026-05-03T14:13:38.999Z</time></trkpt><trkpt lat="45.04428637012199" lon="8.38791375986098"><ele>172.66666666666666</ele><time>2026-05-03T14:13:39.999Z</time></trkpt><trkpt lat="45.044423554011885" lon="8.388123768551813"><ele>168.33333333333331</ele><time>2026-05-03T14:13:40.999Z</time></trkpt><trkpt lat="45.044555158554495" lon="8.388326386060307"><ele>164.0</ele><time>2026-05-03T14:13:41.999Z</time></trkpt><trkpt lat="45.04467796317221" lon="8.38851907817876"><ele>164.0</ele><time>2026-05-03T14:13:42.999Z</time></trkpt><trkpt lat="45.04480984768955" lon="8.38872511936861"><ele>164.0</ele><time>2026-05-03T14:13:43.999Z</time></trkpt><trkpt lat="45.044941604577716" lon="8.388929825696362"><ele>164.0</ele><time>2026-05-03T14:13:44.999Z</time></trkpt><trkpt lat="45.04507705957011" lon="8.389144905895387"><ele>164.33333333333331</ele><time>2026-05-03T14:13:45.999Z</time></trkpt><trkpt lat="45.04521185781198" lon="8.38936054856269"><ele>164.66666666666666</ele><time>2026-05-03T14:13:46.999Z</time></trkpt><trkpt lat="45.04534468405718" lon="8.3895785303965"><ele>165.0</ele><time>2026-05-03T14:13:47.999Z</time></trkpt><trkpt lat="45.0454736895894" lon="8.38978633651504"><ele>165.0</ele><time>2026-05-03T14:13:48.999Z</time></trkpt><trkpt lat="45.045609191952884" lon="8.389961219813015"><ele>165.0</ele><time>2026-05-03T14:13:49.999Z</time></trkpt><trkpt lat="45.0457421329983" lon="8.390140845709125"><ele>165.0</ele><time>2026-05-03T14:13:50.999Z</time></trkpt><trkpt lat="45.045911054190995" lon="8.390340618791798"><ele>164.33333333333334</ele><time>2026-05-03T14:13:51.999Z</time></trkpt><trkpt lat="45.046077768971514" lon="8.390511333632734"><ele>163.66666666666669</ele><time>2026-05-03T14:13:52.999Z</time></trkpt><trkpt lat="45.04624219391798" lon="8.390681395794997"><ele>163.0</ele><time>2026-05-03T14:13:53.999Z</time></trkpt><trkpt lat="45.046409707729836" lon="8.390850246889851"><ele>163.0</ele><time>2026-05-03T14:13:55Z</time></trkpt><trkpt lat="45.04658138023451" lon="8.39102186187292"><ele>163.0</ele><time>2026-05-03T14:13:56Z</time></trkpt><trkpt lat="45.0467511610207" lon="8.391191585820394"><ele>163.0</ele><time>2026-05-03T14:13:57Z</time></trkpt><trkpt lat="45.04692772210872" lon="8.391368489968539"><ele>161.33333333333334</ele><time>2026-05-03T14:13:58Z</time></trkpt><trkpt lat="45.047111764183285" lon="8.39155390295252"><ele>159.66666666666666</ele><time>2026-05-03T14:13:59Z</time></trkpt><trkpt lat="45.047291293407014" lon="8.391735532831765"><ele>158.0</ele><time>2026-05-03T14:14:00Z</time></trkpt><trkpt lat="45.04747058508107" lon="8.391919397809179"><ele>156.0</ele><time>2026-05-03T14:14:01Z</time></trkpt><trkpt lat="45.04764431834501" lon="8.392097604285762"><ele>154.0</ele><time>2026-05-03T14:14:02Z</time></trkpt><trkpt lat="45.047823456091734" lon="8.392275529705179"><ele>152.0</ele><time>2026-05-03T14:14:03Z</time></trkpt><trkpt lat="45.04799701276122" lon="8.3924470619678"><ele>152.0</ele><time>2026-05-03T14:14:04Z</time></trkpt><trkpt lat="45.04816589896493" lon="8.39261925051033"><ele>152.0</ele><time>2026-05-03T14:14:05Z</time></trkpt><trkpt lat="45.04833616578908" lon="8.39279132354385"><ele>152.0</ele><time>2026-05-03T14:14:06Z</time></trkpt><trkpt lat="45.048502710594526" lon="8.392963498701402"><ele>151.0</ele><time>2026-05-03T14:14:07Z</time></trkpt><trkpt lat="45.0486750431034" lon="8.393129688508623"><ele>150.0</ele><time>2026-05-03T14:14:08Z</time></trkpt><trkpt lat="45.04885006306809" lon="8.393268395688436"><ele>149.0</ele><time>2026-05-03T14:14:09Z</time></trkpt><trkpt lat="45.0490398994544" lon="8.393381667651415"><ele>148.33333333333331</ele><time>2026-05-03T14:14:10Z</time></trkpt><trkpt lat="45.04923184425044" lon="8.393485580986196"><ele>147.66666666666666</ele><time>2026-05-03T14:14:11Z</time></trkpt><trkpt lat="45.04942400780636" lon="8.393583195377401"><ele>147.0</ele><time>2026-05-03T14:14:12Z</time></trkpt><trkpt lat="45.04964653653837" lon="8.393703369320614"><ele>147.0</ele><time>2026-05-03T14:14:13Z</time></trkpt><trkpt lat="45.04983906055177" lon="8.39379161844634"><ele>147.0</ele><time>2026-05-03T14:14:14Z</time></trkpt><trkpt lat="45.05003152442531" lon="8.393895375786379"><ele>147.0</ele><time>2026-05-03T14:14:15Z</time></trkpt><trkpt lat="45.05023591965292" lon="8.3940173570184"><ele>146.66666666666666</ele><time>2026-05-03T14:14:16Z</time></trkpt><trkpt lat="45.05043885624379" lon="8.394123920291166"><ele>146.33333333333331</ele><time>2026-05-03T14:14:17Z</time></trkpt><trkpt lat="45.05064792645899" lon="8.394233704414336"><ele>146.0</ele><time>2026-05-03T14:14:18Z</time></trkpt><trkpt lat="45.0508513010193" lon="8.394340497666295"><ele>145.66666666666666</ele><time>2026-05-03T14:14:19Z</time></trkpt><trkpt lat="45.051058067529915" lon="8.39442723181123"><ele>145.33333333333334</ele><time>2026-05-03T14:14:20Z</time></trkpt><trkpt lat="45.05126179709334" lon="8.394536021734663"><ele>145.0</ele><time>2026-05-03T14:14:21Z</time></trkpt><trkpt lat="45.05146500693398" lon="8.39465031773786"><ele>146.66666666666669</ele><time>2026-05-03T14:14:22Z</time></trkpt><trkpt lat="45.051671669048986" lon="8.394756235722893"><ele>148.33333333333334</ele><time>2026-05-03T14:14:23Z</time></trkpt><trkpt lat="45.05187479093422" lon="8.39487666221975"><ele>150.0</ele><time>2026-05-03T14:14:24Z</time></trkpt><trkpt lat="45.052085557359916" lon="8.394987583861369"><ele>150.0</ele><time>2026-05-03T14:14:25Z</time></trkpt><trkpt lat="45.052294178741214" lon="8.395097376607929"><ele>150.0</ele><time>2026-05-03T14:14:26Z</time></trkpt><trkpt lat="45.052501831538066" lon="8.395206659616989"><ele>150.0</ele><time>2026-05-03T14:14:27Z</time></trkpt><trkpt lat="45.0527127087077" lon="8.39531763953118"><ele>150.0</ele><time>2026-05-03T14:14:28Z</time></trkpt><trkpt lat="45.05292133637291" lon="8.395427435595066"><ele>150.0</ele><time>2026-05-03T14:14:29Z</time></trkpt><trkpt lat="45.05313300087776" lon="8.395538829855315"><ele>150.0</ele><time>2026-05-03T14:14:30Z</time></trkpt><trkpt lat="45.05334477975" lon="8.395650202601837"><ele>150.0</ele><time>2026-05-03T14:14:31Z</time></trkpt><trkpt lat="45.05355302505667" lon="8.395758958148416"><ele>150.0</ele><time>2026-05-03T14:14:32Z</time></trkpt><trkpt lat="45.05376796632641" lon="8.395871210636914"><ele>150.0</ele><time>2026-05-03T14:14:33Z</time></trkpt><trkpt lat="45.05397661693327" lon="8.39598017786527"><ele>150.0</ele><time>2026-05-03T14:14:34Z</time></trkpt><trkpt lat="45.05420856685125" lon="8.396101313113254"><ele>149.33333333333334</ele><time>2026-05-03T14:14:35Z</time></trkpt><trkpt lat="45.05443225874846" lon="8.39621813739852"><ele>148.66666666666669</ele><time>2026-05-03T14:14:36Z</time></trkpt><trkpt lat="45.05460572840833" lon="8.396308731589174"><ele>148.0</ele><time>2026-05-03T14:14:37Z</time></trkpt><trkpt lat="45.05479831894091" lon="8.396416911378845"><ele>148.5</ele><time>2026-05-03T14:14:38Z</time></trkpt><trkpt lat="45.05501576479528" lon="8.396516586742264"><ele>149.0</ele><time>2026-05-03T14:14:39Z</time></trkpt><trkpt lat="45.0552326805681" lon="8.396625821181374"><ele>149.0</ele><time>2026-05-03T14:14:40Z</time></trkpt><trkpt lat="45.055451565743304" lon="8.396751804581594"><ele>149.0</ele><time>2026-05-03T14:14:41Z</time></trkpt><trkpt lat="45.055677009925155" lon="8.39686477560113"><ele>148.5</ele><time>2026-05-03T14:14:42Z</time></trkpt><trkpt lat="45.055883726045465" lon="8.396991597788858"><ele>148.0</ele><time>2026-05-03T14:14:43Z</time></trkpt><trkpt lat="45.056129701044995" lon="8.397094560088927"><ele>147.66666666666669</ele><time>2026-05-03T14:14:44Z</time></trkpt><trkpt lat="45.05632701846899" lon="8.397230476596008"><ele>147.33333333333334</ele><time>2026-05-03T14:14:45Z</time></trkpt><trkpt lat="45.056532645842985" lon="8.397343833914768"><ele>147.0</ele><time>2026-05-03T14:14:46Z</time></trkpt><trkpt lat="45.056755671595376" lon="8.397448169783448"><ele>147.0</ele><time>2026-05-03T14:14:47Z</time></trkpt><trkpt lat="45.05697794742001" lon="8.397550574905855"><ele>147.0</ele><time>2026-05-03T14:14:48Z</time></trkpt><trkpt lat="45.0571924507994" lon="8.397654810660322"><ele>147.0</ele><time>2026-05-03T14:14:49Z</time></trkpt><trkpt lat="45.05741171305766" lon="8.397786782025966"><ele>147.0</ele><time>2026-05-03T14:14:50Z</time></trkpt><trkpt lat="45.05762717871678" lon="8.397902708793602"><ele>148.0</ele><time>2026-05-03T14:14:51Z</time></trkpt><trkpt lat="45.05784489777555" lon="8.398020548013264"><ele>149.0</ele><time>2026-05-03T14:14:52Z</time></trkpt><trkpt lat="45.05805462834607" lon="8.398134062998935"><ele>149.0</ele><time>2026-05-03T14:14:53Z</time></trkpt><trkpt lat="45.05824576438673" lon="8.398232315537234"><ele>149.0</ele><time>2026-05-03T14:14:54Z</time></trkpt><trkpt lat="45.05845138360931" lon="8.398338808591204"><ele>149.0</ele><time>2026-05-03T14:14:55Z</time></trkpt><trkpt lat="45.058656164475856" lon="8.398455632827691"><ele>149.0</ele><time>2026-05-03T14:14:56Z</time></trkpt><trkpt lat="45.05886780550479" lon="8.398565398463003"><ele>149.0</ele><time>2026-05-03T14:14:57Z</time></trkpt><trkpt lat="45.059087335858116" lon="8.398655168127151"><ele>149.5</ele><time>2026-05-03T14:14:58Z</time></trkpt><trkpt lat="45.059300609104355" lon="8.398783312629925"><ele>150.0</ele><time>2026-05-03T14:14:59Z</time></trkpt><trkpt lat="45.0595080000733" lon="8.398912142128642"><ele>151.0</ele><time>2026-05-03T14:15:00Z</time></trkpt><trkpt lat="45.05972068046439" lon="8.399028884557026"><ele>152.0</ele><time>2026-05-03T14:15:01Z</time></trkpt><trkpt lat="45.059943050076996" lon="8.399126309427391"><ele>152.5</ele><time>2026-05-03T14:15:02Z</time></trkpt><trkpt lat="45.06015832592503" lon="8.399247232848099"><ele>153.0</ele><time>2026-05-03T14:15:03Z</time></trkpt><trkpt lat="45.06037752228962" lon="8.399358117152099"><ele>153.0</ele><time>2026-05-03T14:15:04Z</time></trkpt><trkpt lat="45.06060543825254" lon="8.39947345547595"><ele>153.0</ele><time>2026-05-03T14:15:05Z</time></trkpt><trkpt lat="45.060850147896566" lon="8.399550105724918"><ele>153.0</ele><time>2026-05-03T14:15:06Z</time></trkpt><trkpt lat="45.06107507048863" lon="8.399652727238776"><ele>153.0</ele><time>2026-05-03T14:15:07Z</time></trkpt><trkpt lat="45.061312252345076" lon="8.399755148172517"><ele>153.66666666666666</ele><time>2026-05-03T14:15:08Z</time></trkpt><trkpt lat="45.06152207629579" lon="8.399891571289212"><ele>154.33333333333331</ele><time>2026-05-03T14:15:09Z</time></trkpt><trkpt lat="45.061682923685375" lon="8.399982534185366"><ele>155.0</ele><time>2026-05-03T14:15:09.999Z</time></trkpt><trkpt lat="45.06188756926821" lon="8.400099236092888"><ele>155.0</ele><time>2026-05-03T14:15:10.999Z</time></trkpt><trkpt lat="45.06209501503949" lon="8.400225255444326"><ele>155.0</ele><time>2026-05-03T14:15:11.999Z</time></trkpt><trkpt lat="45.06230027625298" lon="8.400350206299255"><ele>155.0</ele><time>2026-05-03T14:15:12.999Z</time></trkpt><trkpt lat="45.06249931415765" lon="8.400499637789787"><ele>155.0</ele><time>2026-05-03T14:15:13.999Z</time></trkpt><trkpt lat="45.06268652886422" lon="8.400666069541142"><ele>155.0</ele><time>2026-05-03T14:15:14.999Z</time></trkpt><trkpt lat="45.06286732410541" lon="8.40084543636394"><ele>155.0</ele><time>2026-05-03T14:15:15.999Z</time></trkpt><trkpt lat="45.06303793545132" lon="8.401018982036664"><ele>155.0</ele><time>2026-05-03T14:15:16.999Z</time></trkpt><trkpt lat="45.06322362316028" lon="8.401161122557507"><ele>155.0</ele><time>2026-05-03T14:15:17.999Z</time></trkpt><trkpt lat="45.06339431538952" lon="8.401309775988505"><ele>155.0</ele><time>2026-05-03T14:15:18.999Z</time></trkpt><trkpt lat="45.06356496882493" lon="8.40145373698116"><ele>156.66666666666666</ele><time>2026-05-03T14:15:19.999Z</time></trkpt><trkpt lat="45.063737026693836" lon="8.401574367543157"><ele>158.33333333333334</ele><time>2026-05-03T14:15:20.999Z</time></trkpt><trkpt lat="45.063915610671884" lon="8.401665580514212"><ele>160.0</ele><time>2026-05-03T14:15:21.999Z</time></trkpt><trkpt lat="45.0640979351546" lon="8.401713311736252"><ele>159.0</ele><time>2026-05-03T14:15:22.999Z</time></trkpt><trkpt lat="45.06427867163391" lon="8.401751631004824"><ele>158.0</ele><time>2026-05-03T14:15:23.999Z</time></trkpt><trkpt lat="45.064466090577476" lon="8.401794959992898"><ele>157.0</ele><time>2026-05-03T14:15:24.999Z</time></trkpt><trkpt lat="45.064649021729394" lon="8.401853720767742"><ele>157.0</ele><time>2026-05-03T14:15:25.999Z</time></trkpt><trkpt lat="45.06484124543542" lon="8.40189888937697"><ele>157.0</ele><time>2026-05-03T14:15:26.999Z</time></trkpt><trkpt lat="45.06503092847489" lon="8.40191271828705"><ele>157.0</ele><time>2026-05-03T14:15:27.999Z</time></trkpt><trkpt lat="45.06520906469638" lon="8.401959474906251"><ele>156.66666666666669</ele><time>2026-05-03T14:15:28.999Z</time></trkpt><trkpt lat="45.06541035784795" lon="8.401971956489655"><ele>156.33333333333334</ele><time>2026-05-03T14:15:29.999Z</time></trkpt><trkpt lat="45.06560324139446" lon="8.402015853646505"><ele>156.0</ele><time>2026-05-03T14:15:30.999Z</time></trkpt><trkpt lat="45.0658031155591" lon="8.402051172983493"><ele>157.33333333333334</ele><time>2026-05-03T14:15:31.999Z</time></trkpt><trkpt lat="45.066005843311984" lon="8.402082513367601"><ele>158.66666666666669</ele><time>2026-05-03T14:15:32.999Z</time></trkpt><trkpt lat="45.066204829441205" lon="8.402135867969326"><ele>160.0</ele><time>2026-05-03T14:15:33.999Z</time></trkpt><trkpt lat="45.06639872902919" lon="8.402166699815078"><ele>160.0</ele><time>2026-05-03T14:15:34.999Z</time></trkpt><trkpt lat="45.06660616440101" lon="8.402195417137303"><ele>160.0</ele><time>2026-05-03T14:15:35.999Z</time></trkpt><trkpt lat="45.06679656052964" lon="8.402258990188049"><ele>160.0</ele><time>2026-05-03T14:15:36.999Z</time></trkpt><trkpt lat="45.06697623702607" lon="8.402290854040729"><ele>161.66666666666669</ele><time>2026-05-03T14:15:37.999Z</time></trkpt><trkpt lat="45.06716893093434" lon="8.40233129404194"><ele>163.33333333333334</ele><time>2026-05-03T14:15:38.999Z</time></trkpt><trkpt lat="45.06734210402657" lon="8.402419005638084"><ele>165.0</ele><time>2026-05-03T14:15:39.999Z</time></trkpt><trkpt lat="45.06753616213038" lon="8.402489508550687"><ele>165.0</ele><time>2026-05-03T14:15:40.999Z</time></trkpt><trkpt lat="45.067711127007506" lon="8.40258614835286"><ele>165.0</ele><time>2026-05-03T14:15:41.999Z</time></trkpt><trkpt lat="45.067875352122726" lon="8.402728043226494"><ele>165.0</ele><time>2026-05-03T14:15:42.999Z</time></trkpt><trkpt lat="45.068060543203536" lon="8.402847705436622"><ele>165.0</ele><time>2026-05-03T14:15:43.999Z</time></trkpt><trkpt lat="45.068241789728226" lon="8.402990396930207"><ele>165.0</ele><time>2026-05-03T14:15:44.999Z</time></trkpt><trkpt lat="45.06842430673348" lon="8.403112898072425"><ele>165.0</ele><time>2026-05-03T14:15:45.999Z</time></trkpt><trkpt lat="45.0685784644225" lon="8.403241341707195"><ele>166.0</ele><time>2026-05-03T14:15:46.999Z</time></trkpt><trkpt lat="45.068733095304616" lon="8.40336173788433"><ele>167.0</ele><time>2026-05-03T14:15:47.999Z</time></trkpt><trkpt lat="45.068874018662534" lon="8.403472511699762"><ele>168.0</ele><time>2026-05-03T14:15:48.999Z</time></trkpt><trkpt lat="45.069029856916494" lon="8.403597587650381"><ele>166.66666666666666</ele><time>2026-05-03T14:15:49.999Z</time></trkpt><trkpt lat="45.06919319493808" lon="8.403712920149722"><ele>165.33333333333331</ele><time>2026-05-03T14:15:50.999Z</time></trkpt><trkpt lat="45.06934843060345" lon="8.403842969997926"><ele>164.0</ele><time>2026-05-03T14:15:51.999Z</time></trkpt><trkpt lat="45.06952017009747" lon="8.403970238117601"><ele>166.0</ele><time>2026-05-03T14:15:52.999Z</time></trkpt><trkpt lat="45.06970255187894" lon="8.40409577295275"><ele>168.0</ele><time>2026-05-03T14:15:53.999Z</time></trkpt><trkpt lat="45.06988121659706" lon="8.404196715766277"><ele>170.0</ele><time>2026-05-03T14:15:54.999Z</time></trkpt><trkpt lat="45.07008332164223" lon="8.404273429719556"><ele>170.0</ele><time>2026-05-03T14:15:55.999Z</time></trkpt><trkpt lat="45.070290281711706" lon="8.404307047372033"><ele>170.0</ele><time>2026-05-03T14:15:56.999Z</time></trkpt><trkpt lat="45.070514435262005" lon="8.404322590815037"><ele>170.0</ele><time>2026-05-03T14:15:57.999Z</time></trkpt><trkpt lat="45.070739249431625" lon="8.404320460879598"><ele>170.66666666666666</ele><time>2026-05-03T14:15:58.999Z</time></trkpt><trkpt lat="45.07095092658477" lon="8.404329116275415"><ele>171.33333333333334</ele><time>2026-05-03T14:15:59.999Z</time></trkpt><trkpt lat="45.07116564977106" lon="8.404363974402097"><ele>172.0</ele><time>2026-05-03T14:16:01Z</time></trkpt><trkpt lat="45.071368487498965" lon="8.404395376830504"><ele>172.0</ele><time>2026-05-03T14:16:02Z</time></trkpt><trkpt lat="45.0715803540145" lon="8.404409666731171"><ele>172.0</ele><time>2026-05-03T14:16:03Z</time></trkpt><trkpt lat="45.07178300393853" lon="8.404413095816045"><ele>172.0</ele><time>2026-05-03T14:16:04Z</time></trkpt><trkpt lat="45.0719891648158" lon="8.404425466542328"><ele>172.33333333333334</ele><time>2026-05-03T14:16:05Z</time></trkpt><trkpt lat="45.07216565686134" lon="8.404438301942553"><ele>172.66666666666666</ele><time>2026-05-03T14:16:06Z</time></trkpt><trkpt lat="45.072338260671565" lon="8.404453784719593"><ele>173.0</ele><time>2026-05-03T14:16:07Z</time></trkpt><trkpt lat="45.07249583930972" lon="8.40445960302816"><ele>173.75</ele><time>2026-05-03T14:16:08Z</time></trkpt><trkpt lat="45.07265017891399" lon="8.40447367712279"><ele>174.5</ele><time>2026-05-03T14:16:09Z</time></trkpt><trkpt lat="45.07279839715462" lon="8.404487609815641"><ele>175.25</ele><time>2026-05-03T14:16:10Z</time></trkpt><trkpt lat="45.072944339929286" lon="8.404490204555536"><ele>176.0</ele><time>2026-05-03T14:16:11Z</time></trkpt><trkpt lat="45.073064658689226" lon="8.404542708957088"><ele>176.0</ele><time>2026-05-03T14:16:12Z</time></trkpt><trkpt lat="45.07319241007548" lon="8.4045985116402"><ele>176.0</ele><time>2026-05-03T14:16:13Z</time></trkpt><trkpt lat="45.0733089794306" lon="8.404703846730767"><ele>176.0</ele><time>2026-05-03T14:16:14Z</time></trkpt><trkpt lat="45.07343268085502" lon="8.404827217428835"><ele>176.0</ele><time>2026-05-03T14:16:15Z</time></trkpt><trkpt lat="45.07354137579486" lon="8.40499522668246"><ele>179.66666666666666</ele><time>2026-05-03T14:16:16Z</time></trkpt><trkpt lat="45.07367478351253" lon="8.405178092450413"><ele>183.33333333333334</ele><time>2026-05-03T14:16:17Z</time></trkpt><trkpt lat="45.07381929185488" lon="8.405376174158787"><ele>187.0</ele><time>2026-05-03T14:16:18Z</time></trkpt><trkpt lat="45.07397753602008" lon="8.405593083944119"><ele>189.5</ele><time>2026-05-03T14:16:19Z</time></trkpt><trkpt lat="45.07415507168777" lon="8.40583628290087"><ele>192.0</ele><time>2026-05-03T14:16:20Z</time></trkpt><trkpt lat="45.07435285204521" lon="8.406106133371676"><ele>194.0</ele><time>2026-05-03T14:16:21Z</time></trkpt><trkpt lat="45.07455719917127" lon="8.406384512940225"><ele>196.0</ele><time>2026-05-03T14:16:22Z</time></trkpt><trkpt lat="45.07474020896177" lon="8.40663699171738"><ele>196.0</ele><time>2026-05-03T14:16:23Z</time></trkpt><trkpt lat="45.07492011645659" lon="8.406885726080251"><ele>196.0</ele><time>2026-05-03T14:16:24Z</time></trkpt><trkpt lat="45.075086634461194" lon="8.407119747825872"><ele>197.66666666666666</ele><time>2026-05-03T14:16:25Z</time></trkpt><trkpt lat="45.0752458177601" lon="8.407343461507715"><ele>199.33333333333331</ele><time>2026-05-03T14:16:26Z</time></trkpt><trkpt lat="45.075400909968366" lon="8.40756148050964"><ele>201.0</ele><time>2026-05-03T14:16:27Z</time></trkpt><trkpt lat="45.07554416777989" lon="8.407757162965348"><ele>201.0</ele><time>2026-05-03T14:16:28Z</time></trkpt><trkpt lat="45.075689890052175" lon="8.407931611715052"><ele>201.0</ele><time>2026-05-03T14:16:29Z</time></trkpt><trkpt lat="45.075834462026215" lon="8.408062697780673"><ele>201.0</ele><time>2026-05-03T14:16:30Z</time></trkpt><trkpt lat="45.07597899649294" lon="8.40817515468353"><ele>201.33333333333331</ele><time>2026-05-03T14:16:31Z</time></trkpt><trkpt lat="45.076127871709986" lon="8.40825894992288"><ele>201.66666666666666</ele><time>2026-05-03T14:16:32Z</time></trkpt><trkpt lat="45.0762961123547" lon="8.40833134986534"><ele>202.0</ele><time>2026-05-03T14:16:33Z</time></trkpt><trkpt lat="45.07645597979622" lon="8.408405723275191"><ele>202.0</ele><time>2026-05-03T14:16:34Z</time></trkpt><trkpt lat="45.076612155447535" lon="8.40848618715424"><ele>202.0</ele><time>2026-05-03T14:16:35Z</time></trkpt><trkpt lat="45.0767827486161" lon="8.408557549405767"><ele>202.0</ele><time>2026-05-03T14:16:36Z</time></trkpt><trkpt lat="45.076946479125084" lon="8.408649327839953"><ele>202.0</ele><time>2026-05-03T14:16:37Z</time></trkpt><trkpt lat="45.07712405868419" lon="8.408728193121881"><ele>202.0</ele><time>2026-05-03T14:16:38Z</time></trkpt><trkpt lat="45.07730174140141" lon="8.408808562137425"><ele>202.0</ele><time>2026-05-03T14:16:39Z</time></trkpt><trkpt lat="45.07747850600731" lon="8.408887797536137"><ele>204.0</ele><time>2026-05-03T14:16:40Z</time></trkpt><trkpt lat="45.07765766884102" lon="8.408968144799545"><ele>206.0</ele><time>2026-05-03T14:16:41Z</time></trkpt><trkpt lat="45.07782095511755" lon="8.409050157444263"><ele>208.0</ele><time>2026-05-03T14:16:42Z</time></trkpt><trkpt lat="45.077965881336425" lon="8.409142179971743"><ele>208.0</ele><time>2026-05-03T14:16:43Z</time></trkpt><trkpt lat="45.078076493614454" lon="8.409281214043787"><ele>208.0</ele><time>2026-05-03T14:16:44Z</time></trkpt><trkpt lat="45.07818599917169" lon="8.409467084001646"><ele>208.0</ele><time>2026-05-03T14:16:45Z</time></trkpt><trkpt lat="45.078304087817386" lon="8.409679960729488"><ele>208.0</ele><time>2026-05-03T14:16:46Z</time></trkpt><trkpt lat="45.078402761108705" lon="8.409895544014839"><ele>208.0</ele><time>2026-05-03T14:16:47Z</time></trkpt><trkpt lat="45.07850298203155" lon="8.410108000697802"><ele>208.0</ele><time>2026-05-03T14:16:48Z</time></trkpt><trkpt lat="45.07863218474795" lon="8.410279286855424"><ele>208.0</ele><time>2026-05-03T14:16:49Z</time></trkpt><trkpt lat="45.078796218933704" lon="8.410357811622937"><ele>208.0</ele><time>2026-05-03T14:16:50Z</time></trkpt><trkpt lat="45.07896389364594" lon="8.410415542219846"><ele>208.0</ele><time>2026-05-03T14:16:51Z</time></trkpt><trkpt lat="45.07914574124922" lon="8.41045598926548"><ele>206.33333333333331</ele><time>2026-05-03T14:16:52Z</time></trkpt><trkpt lat="45.07934400279848" lon="8.410479547234324"><ele>204.66666666666669</ele><time>2026-05-03T14:16:53Z</time></trkpt><trkpt lat="45.079490819768296" lon="8.410514603401785"><ele>203.0</ele><time>2026-05-03T14:16:54Z</time></trkpt><trkpt lat="45.07963797740895" lon="8.410613089418282"><ele>206.33333333333334</ele><time>2026-05-03T14:16:55Z</time></trkpt><trkpt lat="45.0797713581279" lon="8.410752636762783"><ele>209.66666666666669</ele><time>2026-05-03T14:16:56Z</time></trkpt><trkpt lat="45.07991184852629" lon="8.410928154394705"><ele>213.0</ele><time>2026-05-03T14:16:57Z</time></trkpt><trkpt lat="45.08006217346053" lon="8.411100869962047"><ele>213.0</ele><time>2026-05-03T14:16:58Z</time></trkpt><trkpt lat="45.08021671905478" lon="8.411205419751807"><ele>213.0</ele><time>2026-05-03T14:16:59Z</time></trkpt><trkpt lat="45.080390049431394" lon="8.411194556935099"><ele>213.0</ele><time>2026-05-03T14:17:00Z</time></trkpt><trkpt lat="45.08055842421615" lon="8.411157418786427"><ele>213.0</ele><time>2026-05-03T14:17:01Z</time></trkpt><trkpt lat="45.0807100411573" lon="8.411131489204813"><ele>213.0</ele><time>2026-05-03T14:17:02Z</time></trkpt><trkpt lat="45.08084268985627" lon="8.411131243846643"><ele>213.0</ele><time>2026-05-03T14:17:03Z</time></trkpt><trkpt lat="45.08100410488925" lon="8.411182741043909"><ele>213.5</ele><time>2026-05-03T14:17:04Z</time></trkpt><trkpt lat="45.08112808257825" lon="8.41126886992217"><ele>214.0</ele><time>2026-05-03T14:17:05Z</time></trkpt><trkpt lat="45.08124625552112" lon="8.411383356554246"><ele>214.5</ele><time>2026-05-03T14:17:06Z</time></trkpt><trkpt lat="45.08135645816859" lon="8.411546930691383"><ele>215.0</ele><time>2026-05-03T14:17:07Z</time></trkpt><trkpt lat="45.08147212720169" lon="8.41171511118841"><ele>217.0</ele><time>2026-05-03T14:17:08Z</time></trkpt><trkpt lat="45.08158927325876" lon="8.41188805022365"><ele>219.0</ele><time>2026-05-03T14:17:09Z</time></trkpt><trkpt lat="45.08173764814682" lon="8.412050242417111"><ele>221.0</ele><time>2026-05-03T14:17:10Z</time></trkpt><trkpt lat="45.08190153600918" lon="8.412176474960855"><ele>223.33333333333334</ele><time>2026-05-03T14:17:11Z</time></trkpt><trkpt lat="45.082064571802434" lon="8.41226339443749"><ele>225.66666666666669</ele><time>2026-05-03T14:17:12Z</time></trkpt><trkpt lat="45.08224887833308" lon="8.412328053914393"><ele>228.0</ele><time>2026-05-03T14:17:13Z</time></trkpt><trkpt lat="45.082409254225674" lon="8.412379629630614"><ele>227.66666666666669</ele><time>2026-05-03T14:17:14Z</time></trkpt><trkpt lat="45.08256734636051" lon="8.412409133557125"><ele>227.33333333333334</ele><time>2026-05-03T14:17:15Z</time></trkpt><trkpt lat="45.08273213493355" lon="8.41244210662485"><ele>227.0</ele><time>2026-05-03T14:17:16Z</time></trkpt><trkpt lat="45.08290323152578" lon="8.412476041906185"><ele>227.0</ele><time>2026-05-03T14:17:17Z</time></trkpt><trkpt lat="45.083069242669275" lon="8.412526641481968"><ele>227.0</ele><time>2026-05-03T14:17:18Z</time></trkpt><trkpt lat="45.083236066187624" lon="8.412561800100892"><ele>227.0</ele><time>2026-05-03T14:17:19Z</time></trkpt><trkpt lat="45.083406033698836" lon="8.41259605563026"><ele>227.0</ele><time>2026-05-03T14:17:20Z</time></trkpt><trkpt lat="45.08358858884868" lon="8.412615191507015"><ele>227.0</ele><time>2026-05-03T14:17:21Z</time></trkpt><trkpt lat="45.08376759822621" lon="8.41264673424387"><ele>227.0</ele><time>2026-05-03T14:17:22Z</time></trkpt><trkpt lat="45.08394546048088" lon="8.412678425310093"><ele>229.0</ele><time>2026-05-03T14:17:23Z</time></trkpt><trkpt lat="45.084120867476585" lon="8.41271282953691"><ele>231.0</ele><time>2026-05-03T14:17:24Z</time></trkpt><trkpt lat="45.08429182341614" lon="8.412731572175272"><ele>233.0</ele><time>2026-05-03T14:17:25Z</time></trkpt><trkpt lat="45.08447866168976" lon="8.412768576419447"><ele>233.0</ele><time>2026-05-03T14:17:26Z</time></trkpt><trkpt lat="45.0846473813247" lon="8.412772552110678"><ele>233.0</ele><time>2026-05-03T14:17:27Z</time></trkpt><trkpt lat="45.084806376099586" lon="8.41274649352648"><ele>233.0</ele><time>2026-05-03T14:17:28Z</time></trkpt><trkpt lat="45.08494773513595" lon="8.412742421193064"><ele>233.66666666666669</ele><time>2026-05-03T14:17:29Z</time></trkpt><trkpt lat="45.085102013341896" lon="8.412763590859035"><ele>234.33333333333331</ele><time>2026-05-03T14:17:30Z</time></trkpt><trkpt lat="45.08524530712561" lon="8.412851211033976"><ele>235.0</ele><time>2026-05-03T14:17:31Z</time></trkpt><trkpt lat="45.08540400540775" lon="8.412981709508035"><ele>234.5</ele><time>2026-05-03T14:17:32Z</time></trkpt><trkpt lat="45.08550337251005" lon="8.41318705424116"><ele>234.0</ele><time>2026-05-03T14:17:33Z</time></trkpt><trkpt lat="45.08556918347814" lon="8.413361015365627"><ele>233.5</ele><time>2026-05-03T14:17:34Z</time></trkpt><trkpt lat="45.085661463717344" lon="8.413481102617917"><ele>233.0</ele><time>2026-05-03T14:17:34.999Z</time></trkpt><trkpt lat="45.08579090216867" lon="8.413546924123422"><ele>233.0</ele><time>2026-05-03T14:17:35.999Z</time></trkpt><trkpt lat="45.0859317085466" lon="8.413560658051997"><ele>233.0</ele><time>2026-05-03T14:17:36.999Z</time></trkpt><trkpt lat="45.08608567181736" lon="8.413515616639655"><ele>233.0</ele><time>2026-05-03T14:17:37.999Z</time></trkpt><trkpt lat="45.086258517881376" lon="8.4134487912137"><ele>233.0</ele><time>2026-05-03T14:17:38.999Z</time></trkpt><trkpt lat="45.0864390815973" lon="8.413403052298802"><ele>233.0</ele><time>2026-05-03T14:17:39.999Z</time></trkpt><trkpt lat="45.08661256267737" lon="8.413350776569132"><ele>233.0</ele><time>2026-05-03T14:17:40.999Z</time></trkpt><trkpt lat="45.086799250232225" lon="8.413290353703058"><ele>233.66666666666669</ele><time>2026-05-03T14:17:41.999Z</time></trkpt><trkpt lat="45.08699890317773" lon="8.413239068203922"><ele>234.33333333333331</ele><time>2026-05-03T14:17:42.999Z</time></trkpt><trkpt lat="45.08722592933476" lon="8.413190679702177"><ele>235.0</ele><time>2026-05-03T14:17:43.999Z</time></trkpt><trkpt lat="45.087420806179054" lon="8.413136695266122"><ele>236.33333333333331</ele><time>2026-05-03T14:17:44.999Z</time></trkpt><trkpt lat="45.087581449546605" lon="8.41308609923069"><ele>237.66666666666669</ele><time>2026-05-03T14:17:45.999Z</time></trkpt><trkpt lat="45.087750430888924" lon="8.41307866673221"><ele>239.0</ele><time>2026-05-03T14:17:46.999Z</time></trkpt><trkpt lat="45.08793856844654" lon="8.41311764528709"><ele>239.0</ele><time>2026-05-03T14:17:47.999Z</time></trkpt><trkpt lat="45.088113588407204" lon="8.413201201365453"><ele>239.0</ele><time>2026-05-03T14:17:48.999Z</time></trkpt><trkpt lat="45.08826454923394" lon="8.413324158186562"><ele>239.0</ele><time>2026-05-03T14:17:49.999Z</time></trkpt><trkpt lat="45.08840223392566" lon="8.413464407185652"><ele>239.0</ele><time>2026-05-03T14:17:50.999Z</time></trkpt><trkpt lat="45.08856263329227" lon="8.41360768371844"><ele>239.0</ele><time>2026-05-03T14:17:51.999Z</time></trkpt><trkpt lat="45.088684212129344" lon="8.413752491301414"><ele>239.0</ele><time>2026-05-03T14:17:52.999Z</time></trkpt><trkpt lat="45.088792024430305" lon="8.41392489842765"><ele>239.0</ele><time>2026-05-03T14:17:53.999Z</time></trkpt><trkpt lat="45.08891270439887" lon="8.414137614513276"><ele>239.0</ele><time>2026-05-03T14:17:54.999Z</time></trkpt><trkpt lat="45.089026802927755" lon="8.414333780115209"><ele>239.0</ele><time>2026-05-03T14:17:55.999Z</time></trkpt><trkpt lat="45.08912944833393" lon="8.414539928801522"><ele>237.33333333333334</ele><time>2026-05-03T14:17:56.999Z</time></trkpt><trkpt lat="45.089249021016926" lon="8.414719873573977"><ele>235.66666666666669</ele><time>2026-05-03T14:17:57.999Z</time></trkpt><trkpt lat="45.08938811025904" lon="8.414900405459445"><ele>234.0</ele><time>2026-05-03T14:17:58.999Z</time></trkpt><trkpt lat="45.08954659680779" lon="8.415073520573717"><ele>234.0</ele><time>2026-05-03T14:17:59.999Z</time></trkpt><trkpt lat="45.089714826121934" lon="8.415243234452475"><ele>234.0</ele><time>2026-05-03T14:18:00.999Z</time></trkpt><trkpt lat="45.08987236039502" lon="8.41540480804636"><ele>234.0</ele><time>2026-05-03T14:18:01.999Z</time></trkpt><trkpt lat="45.090035714700974" lon="8.415576979028074"><ele>230.0</ele><time>2026-05-03T14:18:02.999Z</time></trkpt><trkpt lat="45.09020701390341" lon="8.415744471061153"><ele>226.0</ele><time>2026-05-03T14:18:03.999Z</time></trkpt><trkpt lat="45.090351240712394" lon="8.41590416549594"><ele>222.0</ele><time>2026-05-03T14:18:04.999Z</time></trkpt><trkpt lat="45.09052183224656" lon="8.416063984452471"><ele>222.0</ele><time>2026-05-03T14:18:05.999Z</time></trkpt><trkpt lat="45.090704291423556" lon="8.416228853542188"><ele>222.0</ele><time>2026-05-03T14:18:07Z</time></trkpt><trkpt lat="45.09085757859163" lon="8.416389687136215"><ele>222.0</ele><time>2026-05-03T14:18:08Z</time></trkpt><trkpt lat="45.09102509783618" lon="8.416543449143576"><ele>219.66666666666669</ele><time>2026-05-03T14:18:09Z</time></trkpt><trkpt lat="45.09116766002606" lon="8.416708087154458"><ele>217.33333333333334</ele><time>2026-05-03T14:18:10Z</time></trkpt><trkpt lat="45.09129984009797" lon="8.41690139503509"><ele>215.0</ele><time>2026-05-03T14:18:11Z</time></trkpt><trkpt lat="45.09139448675373" lon="8.417121813408885"><ele>216.0</ele><time>2026-05-03T14:18:12Z</time></trkpt><trkpt lat="45.09147634842229" lon="8.417374101687226"><ele>217.0</ele><time>2026-05-03T14:18:13Z</time></trkpt><trkpt lat="45.091536626891155" lon="8.4176396721809"><ele>218.0</ele><time>2026-05-03T14:18:14Z</time></trkpt><trkpt lat="45.09161467658892" lon="8.417907725656182"><ele>217.0</ele><time>2026-05-03T14:18:15Z</time></trkpt><trkpt lat="45.091710499056816" lon="8.418181495678859"><ele>216.0</ele><time>2026-05-03T14:18:16Z</time></trkpt><trkpt lat="45.09178970938303" lon="8.418471052540466"><ele>215.0</ele><time>2026-05-03T14:18:17Z</time></trkpt><trkpt lat="45.091870823096436" lon="8.418765744675603"><ele>211.5</ele><time>2026-05-03T14:18:18Z</time></trkpt><trkpt lat="45.09194589053587" lon="8.419062156437713"><ele>208.0</ele><time>2026-05-03T14:18:19Z</time></trkpt><trkpt lat="45.09203194832655" lon="8.419362019543918"><ele>205.0</ele><time>2026-05-03T14:18:20Z</time></trkpt><trkpt lat="45.09211482365981" lon="8.41966692240804"><ele>202.0</ele><time>2026-05-03T14:18:21Z</time></trkpt><trkpt lat="45.09220833916847" lon="8.4199758164657"><ele>202.0</ele><time>2026-05-03T14:18:22Z</time></trkpt><trkpt lat="45.092279700536174" lon="8.42025231189324"><ele>202.0</ele><time>2026-05-03T14:18:23Z</time></trkpt><trkpt lat="45.092375552017195" lon="8.420516367150181"><ele>202.0</ele><time>2026-05-03T14:18:24Z</time></trkpt><trkpt lat="45.09245796921312" lon="8.420792704774334"><ele>202.33333333333331</ele><time>2026-05-03T14:18:25Z</time></trkpt><trkpt lat="45.09249938600262" lon="8.421055107872279"><ele>202.66666666666669</ele><time>2026-05-03T14:18:26Z</time></trkpt><trkpt lat="45.092515603840106" lon="8.421323321628519"><ele>203.0</ele><time>2026-05-03T14:18:27Z</time></trkpt><trkpt lat="45.09250681374287" lon="8.421605850786598"><ele>203.0</ele><time>2026-05-03T14:18:28Z</time></trkpt><trkpt lat="45.09250329222084" lon="8.421893131698406"><ele>203.0</ele><time>2026-05-03T14:18:29Z</time></trkpt><trkpt lat="45.09249655105434" lon="8.422183393076258"><ele>203.0</ele><time>2026-05-03T14:18:30Z</time></trkpt><trkpt lat="45.09249565953427" lon="8.422472968676296"><ele>203.33333333333334</ele><time>2026-05-03T14:18:31Z</time></trkpt><trkpt lat="45.09246599493321" lon="8.422743143354273"><ele>203.66666666666669</ele><time>2026-05-03T14:18:32Z</time></trkpt><trkpt lat="45.09243551414128" lon="8.423002097657546"><ele>204.0</ele><time>2026-05-03T14:18:33Z</time></trkpt><trkpt lat="45.09237909776318" lon="8.423260378704846"><ele>202.33333333333331</ele><time>2026-05-03T14:18:34Z</time></trkpt><trkpt lat="45.09230320346401" lon="8.423519569044274"><ele>200.66666666666666</ele><time>2026-05-03T14:18:35Z</time></trkpt><trkpt lat="45.09223685568977" lon="8.423790549472262"><ele>199.0</ele><time>2026-05-03T14:18:36Z</time></trkpt><trkpt lat="45.09215926978562" lon="8.424035099323433"><ele>198.66666666666666</ele><time>2026-05-03T14:18:37Z</time></trkpt><trkpt lat="45.09210473249905" lon="8.424288741866922"><ele>198.33333333333331</ele><time>2026-05-03T14:18:38Z</time></trkpt><trkpt lat="45.09203332745037" lon="8.424517048593716"><ele>198.0</ele><time>2026-05-03T14:18:39Z</time></trkpt><trkpt lat="45.09197557956128" lon="8.42473829610175"><ele>197.66666666666669</ele><time>2026-05-03T14:18:40Z</time></trkpt><trkpt lat="45.09192671067113" lon="8.42497269733697"><ele>197.33333333333334</ele><time>2026-05-03T14:18:41Z</time></trkpt><trkpt lat="45.09188610505882" lon="8.425195923511971"><ele>197.0</ele><time>2026-05-03T14:18:42Z</time></trkpt><trkpt lat="45.09185316165796" lon="8.425425024641887"><ele>197.66666666666669</ele><time>2026-05-03T14:18:43Z</time></trkpt><trkpt lat="45.09181112914043" lon="8.425632105689408"><ele>198.33333333333331</ele><time>2026-05-03T14:18:44Z</time></trkpt><trkpt lat="45.091790115971826" lon="8.42584016272256"><ele>199.0</ele><time>2026-05-03T14:18:45Z</time></trkpt><trkpt lat="45.09178967032024" lon="8.426054634231656"><ele>199.0</ele><time>2026-05-03T14:18:46Z</time></trkpt><trkpt lat="45.09181440035877" lon="8.426251691167325"><ele>199.0</ele><time>2026-05-03T14:18:47Z</time></trkpt><trkpt lat="45.09184507069104" lon="8.42644071025318"><ele>199.0</ele><time>2026-05-03T14:18:48Z</time></trkpt><trkpt lat="45.091878676377725" lon="8.426613288899148"><ele>199.0</ele><time>2026-05-03T14:18:49Z</time></trkpt><trkpt lat="45.09187685734651" lon="8.426800589497157"><ele>199.0</ele><time>2026-05-03T14:18:50Z</time></trkpt><trkpt lat="45.09182384128922" lon="8.42699956114623"><ele>199.0</ele><time>2026-05-03T14:18:51Z</time></trkpt><trkpt lat="45.09174485526735" lon="8.427180425277088"><ele>199.0</ele><time>2026-05-03T14:18:52Z</time></trkpt><trkpt lat="45.09165891880478" lon="8.427355274075449"><ele>200.0</ele><time>2026-05-03T14:18:53Z</time></trkpt><trkpt lat="45.091564822786594" lon="8.427538153771401"><ele>201.0</ele><time>2026-05-03T14:18:54Z</time></trkpt><trkpt lat="45.09149174022316" lon="8.427740335712116"><ele>202.0</ele><time>2026-05-03T14:18:55Z</time></trkpt><trkpt lat="45.09142103214821" lon="8.427934028989458"><ele>200.75</ele><time>2026-05-03T14:18:56Z</time></trkpt><trkpt lat="45.09136165782856" lon="8.42813793135829"><ele>199.5</ele><time>2026-05-03T14:18:57Z</time></trkpt><trkpt lat="45.09132031408792" lon="8.42831491043265"><ele>198.25</ele><time>2026-05-03T14:18:58Z</time></trkpt><trkpt lat="45.09128374566866" lon="8.42846493652658"><ele>197.0</ele><time>2026-05-03T14:18:59Z</time></trkpt><trkpt lat="45.091264402466905" lon="8.428631650881554"><ele>197.25</ele><time>2026-05-03T14:19:00Z</time></trkpt><trkpt lat="45.09125517720368" lon="8.428820617849274"><ele>197.5</ele><time>2026-05-03T14:19:01Z</time></trkpt><trkpt lat="45.09126471178202" lon="8.429024230023591"><ele>197.75</ele><time>2026-05-03T14:19:02Z</time></trkpt><trkpt lat="45.09128389707418" lon="8.429225883769401"><ele>198.0</ele><time>2026-05-03T14:19:03Z</time></trkpt><trkpt lat="45.09133157561406" lon="8.4293944580217"><ele>198.0</ele><time>2026-05-03T14:19:04Z</time></trkpt><trkpt lat="45.09139258975436" lon="8.429563973846426"><ele>198.0</ele><time>2026-05-03T14:19:05Z</time></trkpt><trkpt lat="45.09147129871993" lon="8.429703477830998"><ele>198.0</ele><time>2026-05-03T14:19:06Z</time></trkpt><trkpt lat="45.09156124633316" lon="8.429852560093641"><ele>198.0</ele><time>2026-05-03T14:19:07Z</time></trkpt><trkpt lat="45.091653560901804" lon="8.42995754599342"><ele>195.0</ele><time>2026-05-03T14:19:08Z</time></trkpt><trkpt lat="45.091766809669984" lon="8.430061607330556"><ele>192.0</ele><time>2026-05-03T14:19:09Z</time></trkpt><trkpt lat="45.09188744482492" lon="8.430130824542314"><ele>189.0</ele><time>2026-05-03T14:19:10Z</time></trkpt><trkpt lat="45.09201452160361" lon="8.430159354538475"><ele>186.0</ele><time>2026-05-03T14:19:11Z</time></trkpt><trkpt lat="45.09216098725001" lon="8.430182752741645"><ele>186.0</ele><time>2026-05-03T14:19:12Z</time></trkpt><trkpt lat="45.09230384020883" lon="8.430175089710632"><ele>186.0</ele><time>2026-05-03T14:19:13Z</time></trkpt><trkpt lat="45.09239036699414" lon="8.430174419003647"><ele>186.0</ele><time>2026-05-03T14:19:14Z</time></trkpt><trkpt lat="45.09250819089003" lon="8.430190315041836"><ele>186.0</ele><time>2026-05-03T14:19:15Z</time></trkpt><trkpt lat="45.09261025819862" lon="8.43024806002944"><ele>186.0</ele><time>2026-05-03T14:19:16Z</time></trkpt><trkpt lat="45.09275114634135" lon="8.430321011896476"><ele>186.0</ele><time>2026-05-03T14:19:17Z</time></trkpt><trkpt lat="45.09284711516851" lon="8.430439108409905"><ele>186.0</ele><time>2026-05-03T14:19:18Z</time></trkpt><trkpt lat="45.092917417862814" lon="8.430586053600384"><ele>186.0</ele><time>2026-05-03T14:19:19Z</time></trkpt><trkpt lat="45.09299383164357" lon="8.430729262772665"><ele>186.0</ele><time>2026-05-03T14:19:20Z</time></trkpt><trkpt lat="45.093055582240595" lon="8.430870209421848"><ele>186.0</ele><time>2026-05-03T14:19:21Z</time></trkpt><trkpt lat="45.09312088464473" lon="8.431004721708206"><ele>186.0</ele><time>2026-05-03T14:19:22Z</time></trkpt><trkpt lat="45.09318719069706" lon="8.431126444774529"><ele>186.0</ele><time>2026-05-03T14:19:23Z</time></trkpt><trkpt lat="45.093242226248805" lon="8.43123431008437"><ele>186.0</ele><time>2026-05-03T14:19:24Z</time></trkpt><trkpt lat="45.09330933491347" lon="8.431325445158128"><ele>184.4</ele><time>2026-05-03T14:19:25Z</time></trkpt><trkpt lat="45.09339178383415" lon="8.431382369659392"><ele>182.8</ele><time>2026-05-03T14:19:25.999Z</time></trkpt><trkpt lat="45.093493422520105" lon="8.43140480479615"><ele>181.20000000000002</ele><time>2026-05-03T14:19:26.999Z</time></trkpt><trkpt lat="45.09359861658565" lon="8.431393426317054"><ele>179.60000000000002</ele><time>2026-05-03T14:19:27.999Z</time></trkpt><trkpt lat="45.093702123851706" lon="8.431360204571462"><ele>178.0</ele><time>2026-05-03T14:19:28.999Z</time></trkpt><trkpt lat="45.093818693005105" lon="8.431313570979906"><ele>176.25</ele><time>2026-05-03T14:19:29.999Z</time></trkpt><trkpt lat="45.09394039157441" lon="8.431263015942928"><ele>174.5</ele><time>2026-05-03T14:19:30.999Z</time></trkpt><trkpt lat="45.09405976625232" lon="8.431207607317656"><ele>172.75</ele><time>2026-05-03T14:19:31.999Z</time></trkpt><trkpt lat="45.09418032145625" lon="8.431142008343162"><ele>171.0</ele><time>2026-05-03T14:19:32.999Z</time></trkpt><trkpt lat="45.094301123373974" lon="8.43110036133979"><ele>170.0</ele><time>2026-05-03T14:19:33.999Z</time></trkpt><trkpt lat="45.09443868976695" lon="8.431079877728843"><ele>169.0</ele><time>2026-05-03T14:19:34.999Z</time></trkpt><trkpt lat="45.09457579672581" lon="8.431095641842465"><ele>168.0</ele><time>2026-05-03T14:19:35.999Z</time></trkpt><trkpt lat="45.09472505637593" lon="8.431148416273762"><ele>167.0</ele><time>2026-05-03T14:19:36.999Z</time></trkpt><trkpt lat="45.09489934077117" lon="8.43122588713891"><ele>167.66666666666666</ele><time>2026-05-03T14:19:37.999Z</time></trkpt><trkpt lat="45.09510183134648" lon="8.431333274899321"><ele>168.33333333333334</ele><time>2026-05-03T14:19:38.999Z</time></trkpt><trkpt lat="45.0953119510116" lon="8.431464140582388"><ele>169.0</ele><time>2026-05-03T14:19:39.999Z</time></trkpt><trkpt lat="45.09552511163664" lon="8.431628487598756"><ele>169.0</ele><time>2026-05-03T14:19:40.999Z</time></trkpt><trkpt lat="45.095748739939715" lon="8.431787990402364"><ele>169.0</ele><time>2026-05-03T14:19:41.999Z</time></trkpt><trkpt lat="45.09599191020164" lon="8.43193165060053"><ele>169.5</ele><time>2026-05-03T14:19:42.999Z</time></trkpt><trkpt lat="45.09620970903957" lon="8.432073711284755"><ele>170.0</ele><time>2026-05-03T14:19:43.999Z</time></trkpt><trkpt lat="45.09642769475836" lon="8.432198951094357"><ele>166.5</ele><time>2026-05-03T14:19:44.999Z</time></trkpt><trkpt lat="45.096667843191774" lon="8.432284361018803"><ele>163.0</ele><time>2026-05-03T14:19:45.999Z</time></trkpt><trkpt lat="45.09691806742096" lon="8.432341584106975"><ele>163.0</ele><time>2026-05-03T14:19:46.999Z</time></trkpt><trkpt lat="45.09717688379079" lon="8.432376692336588"><ele>163.0</ele><time>2026-05-03T14:19:47.999Z</time></trkpt><trkpt lat="45.09742750828585" lon="8.432415073088423"><ele>160.33333333333334</ele><time>2026-05-03T14:19:48.999Z</time></trkpt><trkpt lat="45.097656537992556" lon="8.432469441959416"><ele>157.66666666666666</ele><time>2026-05-03T14:19:49.999Z</time></trkpt><trkpt lat="45.09785290476593" lon="8.432506908801122"><ele>155.0</ele><time>2026-05-03T14:19:50.999Z</time></trkpt><trkpt lat="45.09804057423094" lon="8.432528325985972"><ele>155.0</ele><time>2026-05-03T14:19:51.999Z</time></trkpt><trkpt lat="45.0982041030283" lon="8.432565921496304"><ele>155.0</ele><time>2026-05-03T14:19:52.999Z</time></trkpt><trkpt lat="45.0983547627908" lon="8.43263742410743"><ele>155.0</ele><time>2026-05-03T14:19:53.999Z</time></trkpt><trkpt lat="45.09847488321463" lon="8.43277436799854"><ele>155.0</ele><time>2026-05-03T14:19:54.999Z</time></trkpt><trkpt lat="45.098587134138896" lon="8.432950415376252"><ele>155.0</ele><time>2026-05-03T14:19:55.999Z</time></trkpt><trkpt lat="45.09867558311023" lon="8.433159026642347"><ele>155.0</ele><time>2026-05-03T14:19:56.999Z</time></trkpt><trkpt lat="45.09879429849774" lon="8.43330307255731"><ele>155.0</ele><time>2026-05-03T14:19:57.999Z</time></trkpt><trkpt lat="45.09893975486803" lon="8.433383872716586"><ele>155.0</ele><time>2026-05-03T14:19:58.999Z</time></trkpt><trkpt lat="45.09911381115598" lon="8.433410386819508"><ele>155.0</ele><time>2026-05-03T14:19:59.999Z</time></trkpt><trkpt lat="45.09930363867185" lon="8.433411807049897"><ele>152.0</ele><time>2026-05-03T14:20:00.999Z</time></trkpt><trkpt lat="45.09949874853008" lon="8.433411537138117"><ele>149.0</ele><time>2026-05-03T14:20:01.999Z</time></trkpt><trkpt lat="45.09970095248124" lon="8.433416207801068"><ele>146.0</ele><time>2026-05-03T14:20:02.999Z</time></trkpt><trkpt lat="45.09989988885067" lon="8.4334433886992"><ele>145.75</ele><time>2026-05-03T14:20:03.999Z</time></trkpt><trkpt lat="45.10004961260764" lon="8.433480893383571"><ele>145.5</ele><time>2026-05-03T14:20:04.999Z</time></trkpt><trkpt lat="45.10017249291973" lon="8.433526374952642"><ele>145.25</ele><time>2026-05-03T14:20:05.999Z</time></trkpt><trkpt lat="45.10031429905821" lon="8.433539877107005"><ele>145.0</ele><time>2026-05-03T14:20:06.999Z</time></trkpt><trkpt lat="45.100496232420475" lon="8.433604326207803"><ele>145.0</ele><time>2026-05-03T14:20:07.999Z</time></trkpt><trkpt lat="45.100673303956995" lon="8.433671588239676"><ele>145.0</ele><time>2026-05-03T14:20:08.999Z</time></trkpt><trkpt lat="45.100877041521656" lon="8.433727752784192"><ele>145.0</ele><time>2026-05-03T14:20:09.999Z</time></trkpt><trkpt lat="45.10105153133811" lon="8.43378193957471"><ele>146.33333333333334</ele><time>2026-05-03T14:20:10.999Z</time></trkpt><trkpt lat="45.10124968990309" lon="8.433850998927367"><ele>147.66666666666666</ele><time>2026-05-03T14:20:11.999Z</time></trkpt><trkpt lat="45.10143840805654" lon="8.433959431228757"><ele>149.0</ele><time>2026-05-03T14:20:13Z</time></trkpt><trkpt lat="45.10161235284199" lon="8.434086285156933"><ele>144.0</ele><time>2026-05-03T14:20:14Z</time></trkpt><trkpt lat="45.101779566754104" lon="8.434226325792094"><ele>139.0</ele><time>2026-05-03T14:20:15Z</time></trkpt><trkpt lat="45.10195276236984" lon="8.434362452381372"><ele>134.0</ele><time>2026-05-03T14:20:16Z</time></trkpt><trkpt lat="45.10211130597786" lon="8.434487274833252"><ele>134.0</ele><time>2026-05-03T14:20:17Z</time></trkpt><trkpt lat="45.1022531533533" lon="8.43460144749376"><ele>134.0</ele><time>2026-05-03T14:20:18Z</time></trkpt><trkpt lat="45.102380760610856" lon="8.43468999964736"><ele>134.0</ele><time>2026-05-03T14:20:19Z</time></trkpt><trkpt lat="45.102490020461495" lon="8.43471632371894"><ele>134.0</ele><time>2026-05-03T14:20:20Z</time></trkpt><trkpt lat="45.10258435358491" lon="8.434698897951169"><ele>133.25</ele><time>2026-05-03T14:20:21Z</time></trkpt><trkpt lat="45.10267478973464" lon="8.434645113460865"><ele>132.5</ele><time>2026-05-03T14:20:22Z</time></trkpt><trkpt lat="45.102765112618066" lon="8.434544523971413"><ele>131.75</ele><time>2026-05-03T14:20:23Z</time></trkpt><trkpt lat="45.102848586472575" lon="8.434404642486573"><ele>131.0</ele><time>2026-05-03T14:20:24Z</time></trkpt><trkpt lat="45.102940723193996" lon="8.434242785078425"><ele>130.75</ele><time>2026-05-03T14:20:25Z</time></trkpt><trkpt lat="45.10306015813991" lon="8.434087129537573"><ele>130.5</ele><time>2026-05-03T14:20:26Z</time></trkpt><trkpt lat="45.103141170122264" lon="8.433941345693569"><ele>130.25</ele><time>2026-05-03T14:20:27Z</time></trkpt><trkpt lat="45.10321561247543" lon="8.43382776276098"><ele>130.0</ele><time>2026-05-03T14:20:28Z</time></trkpt><trkpt lat="45.10327840416814" lon="8.433771502811892"><ele>130.0</ele><time>2026-05-03T14:20:29Z</time></trkpt><trkpt lat="45.10335456875051" lon="8.433667499301158"><ele>130.0</ele><time>2026-05-03T14:20:31Z</time></trkpt><trkpt lat="45.103417085092566" lon="8.433580339079796"><ele>130.0</ele><time>2026-05-03T14:20:56Z</time></trkpt><trkpt lat="45.10351795542393" lon="8.433646073595634"><ele>130.0</ele><time>2026-05-03T14:20:58Z</time></trkpt><trkpt lat="45.103573742303915" lon="8.43370093027259"><ele>130.0</ele><time>2026-05-03T14:20:59Z</time></trkpt><trkpt lat="45.103641097999265" lon="8.433774298924222"><ele>129.6</ele><time>2026-05-03T14:21:00Z</time></trkpt><trkpt lat="45.10370590710886" lon="8.43385284553787"><ele>129.2</ele><time>2026-05-03T14:21:01Z</time></trkpt><trkpt lat="45.10378390890821" lon="8.433936630072445"><ele>128.8</ele><time>2026-05-03T14:21:02Z</time></trkpt><trkpt lat="45.103863155558294" lon="8.434016329438558"><ele>128.4</ele><time>2026-05-03T14:21:03Z</time></trkpt><trkpt lat="45.10394434590483" lon="8.434100466847246"><ele>128.0</ele><time>2026-05-03T14:21:04Z</time></trkpt><trkpt lat="45.104032799817645" lon="8.434198766276973"><ele>128.4</ele><time>2026-05-03T14:21:05Z</time></trkpt><trkpt lat="45.10411719950588" lon="8.434286283887591"><ele>128.8</ele><time>2026-05-03T14:21:06Z</time></trkpt><trkpt lat="45.10419410931625" lon="8.434376245666188"><ele>129.2</ele><time>2026-05-03T14:21:07Z</time></trkpt><trkpt lat="45.10427596887007" lon="8.434463519573262"><ele>129.6</ele><time>2026-05-03T14:21:08Z</time></trkpt><trkpt lat="45.1043456020851" lon="8.434529758265027"><ele>130.0</ele><time>2026-05-03T14:21:09Z</time></trkpt><trkpt lat="45.10443617755474" lon="8.434536262185071"><ele>130.0</ele><time>2026-05-03T14:21:11Z</time></trkpt><trkpt lat="45.10448844902685" lon="8.434478641814064"><ele>130.0</ele><time>2026-05-03T14:21:12Z</time></trkpt><trkpt lat="45.10457859079914" lon="8.43441015255158"><ele>130.0</ele><time>2026-05-03T14:21:13Z</time></trkpt><trkpt lat="45.104658373164135" lon="8.434332518819772"><ele>130.0</ele><time>2026-05-03T14:21:14Z</time></trkpt><trkpt lat="45.1047470376996" lon="8.434258461179917"><ele>130.0</ele><time>2026-05-03T14:21:15Z</time></trkpt><trkpt lat="45.10484916315414" lon="8.43417501498172"><ele>130.0</ele><time>2026-05-03T14:21:16Z</time></trkpt><trkpt lat="45.10495066883905" lon="8.434090216408089"><ele>130.0</ele><time>2026-05-03T14:21:17Z</time></trkpt><trkpt lat="45.1050561448255" lon="8.434000966178662"><ele>130.0</ele><time>2026-05-03T14:21:18Z</time></trkpt><trkpt lat="45.10517047543737" lon="8.433920367459095"><ele>130.0</ele><time>2026-05-03T14:21:19Z</time></trkpt><trkpt lat="45.10528581796147" lon="8.433832793909595"><ele>130.75</ele><time>2026-05-03T14:21:20Z</time></trkpt><trkpt lat="45.10539166900335" lon="8.433739694331663"><ele>131.5</ele><time>2026-05-03T14:21:21Z</time></trkpt><trkpt lat="45.1055046606862" lon="8.43364218993388"><ele>132.25</ele><time>2026-05-03T14:21:22Z</time></trkpt><trkpt lat="45.105611382104584" lon="8.433533787041698"><ele>133.0</ele><time>2026-05-03T14:21:23Z</time></trkpt><trkpt lat="45.10570903085142" lon="8.433404522661377"><ele>132.75</ele><time>2026-05-03T14:21:24Z</time></trkpt><trkpt lat="45.10581230208071" lon="8.433254408337268"><ele>132.5</ele><time>2026-05-03T14:21:25Z</time></trkpt><trkpt lat="45.10591177078965" lon="8.433094345535403"><ele>132.25</ele><time>2026-05-03T14:21:26Z</time></trkpt><trkpt lat="45.106011553715085" lon="8.432938518415352"><ele>132.0</ele><time>2026-05-03T14:21:27Z</time></trkpt><trkpt lat="45.10613169644003" lon="8.432774604004512"><ele>132.0</ele><time>2026-05-03T14:21:28Z</time></trkpt><trkpt lat="45.106254644156046" lon="8.432593681498018"><ele>132.0</ele><time>2026-05-03T14:21:29Z</time></trkpt><trkpt lat="45.10637521911132" lon="8.432435578508958"><ele>132.0</ele><time>2026-05-03T14:21:30Z</time></trkpt><trkpt lat="45.10650330301958" lon="8.432272321621598"><ele>133.0</ele><time>2026-05-03T14:21:31Z</time></trkpt><trkpt lat="45.10662747708031" lon="8.432081752334653"><ele>134.0</ele><time>2026-05-03T14:21:32Z</time></trkpt><trkpt lat="45.106753193345995" lon="8.431928010836753"><ele>135.0</ele><time>2026-05-03T14:21:33Z</time></trkpt><trkpt lat="45.10685775140988" lon="8.431765228378387"><ele>135.0</ele><time>2026-05-03T14:21:34Z</time></trkpt><trkpt lat="45.10697529007182" lon="8.431617244927393"><ele>135.0</ele><time>2026-05-03T14:21:35Z</time></trkpt><trkpt lat="45.107088659237434" lon="8.43146655873629"><ele>135.0</ele><time>2026-05-03T14:21:36Z</time></trkpt><trkpt lat="45.107203215356456" lon="8.431307817672927"><ele>135.75</ele><time>2026-05-03T14:21:37Z</time></trkpt><trkpt lat="45.10732172035675" lon="8.431202766517435"><ele>136.5</ele><time>2026-05-03T14:21:38Z</time></trkpt><trkpt lat="45.10742401007174" lon="8.431057407006366"><ele>137.25</ele><time>2026-05-03T14:21:39Z</time></trkpt><trkpt lat="45.107522740126065" lon="8.430947460408415"><ele>138.0</ele><time>2026-05-03T14:21:40Z</time></trkpt><trkpt lat="45.10762100423604" lon="8.430799848493447"><ele>138.0</ele><time>2026-05-03T14:21:40.999Z</time></trkpt><trkpt lat="45.10770723082209" lon="8.430585727695409"><ele>138.0</ele><time>2026-05-03T14:21:41.999Z</time></trkpt><trkpt lat="45.10778493909056" lon="8.430400615518757"><ele>138.0</ele><time>2026-05-03T14:21:42.999Z</time></trkpt><trkpt lat="45.10784280197318" lon="8.430201476060953"><ele>138.25</ele><time>2026-05-03T14:21:43.999Z</time></trkpt><trkpt lat="45.10788877692708" lon="8.429999341613506"><ele>138.5</ele><time>2026-05-03T14:21:44.999Z</time></trkpt><trkpt lat="45.10793158812234" lon="8.429829177206464"><ele>138.75</ele><time>2026-05-03T14:21:45.999Z</time></trkpt><trkpt lat="45.10797643709331" lon="8.429649949180162"><ele>139.0</ele><time>2026-05-03T14:21:46.999Z</time></trkpt><trkpt lat="45.10802773682051" lon="8.42950036434345"><ele>139.25</ele><time>2026-05-03T14:21:47.999Z</time></trkpt><trkpt lat="45.10807920647743" lon="8.429343832469625"><ele>139.5</ele><time>2026-05-03T14:21:48.999Z</time></trkpt><trkpt lat="45.10813174332026" lon="8.429170524893033"><ele>139.75</ele><time>2026-05-03T14:21:49.999Z</time></trkpt><trkpt lat="45.10819019291079" lon="8.428999950176795"><ele>140.0</ele><time>2026-05-03T14:21:50.999Z</time></trkpt><trkpt lat="45.10824717035778" lon="8.428847710566872"><ele>140.75</ele><time>2026-05-03T14:21:51.999Z</time></trkpt><trkpt lat="45.10830069853675" lon="8.42869860081392"><ele>141.5</ele><time>2026-05-03T14:21:52.999Z</time></trkpt><trkpt lat="45.10835818221748" lon="8.4285493040413"><ele>142.25</ele><time>2026-05-03T14:21:53.999Z</time></trkpt><trkpt lat="45.108402540013756" lon="8.428404839705859"><ele>143.0</ele><time>2026-05-03T14:21:54.999Z</time></trkpt><trkpt lat="45.108449593977475" lon="8.428218599799605"><ele>143.0</ele><time>2026-05-03T14:21:55.999Z</time></trkpt><trkpt lat="45.10848258707795" lon="8.42806396660345"><ele>143.0</ele><time>2026-05-03T14:21:56.999Z</time></trkpt><trkpt lat="45.10846081245264" lon="8.427868307093057"><ele>143.0</ele><time>2026-05-03T14:21:57.999Z</time></trkpt><trkpt lat="45.10846409543269" lon="8.42770966316127"><ele>143.0</ele><time>2026-05-03T14:21:58.999Z</time></trkpt><trkpt lat="45.108468764451175" lon="8.427550127515131"><ele>143.16666666666666</ele><time>2026-05-03T14:21:59.999Z</time></trkpt><trkpt lat="45.10850486767581" lon="8.427409184446203"><ele>143.33333333333331</ele><time>2026-05-03T14:22:00.999Z</time></trkpt><trkpt lat="45.10852635379414" lon="8.427275408210297"><ele>143.5</ele><time>2026-05-03T14:22:01.999Z</time></trkpt><trkpt lat="45.10855608549" lon="8.427166787341529"><ele>143.66666666666666</ele><time>2026-05-03T14:22:02.999Z</time></trkpt><trkpt lat="45.108581522931395" lon="8.427053472271222"><ele>143.83333333333334</ele><time>2026-05-03T14:22:03.999Z</time></trkpt><trkpt lat="45.10857308641443" lon="8.42694185869472"><ele>144.0</ele><time>2026-05-03T14:22:05.999Z</time></trkpt><trkpt lat="45.10854418171063" lon="8.426842455301637"><ele>144.2</ele><time>2026-05-03T14:22:08.999Z</time></trkpt><trkpt lat="45.10849577925954" lon="8.426765570312362"><ele>144.4</ele><time>2026-05-03T14:22:21Z</time></trkpt><trkpt lat="45.108544206104284" lon="8.426618872715085"><ele>144.6</ele><time>2026-05-03T14:22:41Z</time></trkpt><trkpt lat="45.1085383848654" lon="8.426483715596573"><ele>144.8</ele><time>2026-05-03T14:22:42Z</time></trkpt><trkpt lat="45.10855065602377" lon="8.42635488352358"><ele>145.0</ele><time>2026-05-03T14:22:43Z</time></trkpt><trkpt lat="45.10854268474517" lon="8.426138721836747"><ele>145.75</ele><time>2026-05-03T14:22:44Z</time></trkpt><trkpt lat="45.10853019399564" lon="8.425931308024076"><ele>146.5</ele><time>2026-05-03T14:22:45Z</time></trkpt><trkpt lat="45.10852274227811" lon="8.425734729229795"><ele>147.25</ele><time>2026-05-03T14:22:46Z</time></trkpt><trkpt lat="45.10851029145631" lon="8.425514584776499"><ele>148.0</ele><time>2026-05-03T14:22:47Z</time></trkpt><trkpt lat="45.10851443403061" lon="8.425289063956738"><ele>148.75</ele><time>2026-05-03T14:22:48Z</time></trkpt><trkpt lat="45.108502352821525" lon="8.42507902754114"><ele>149.5</ele><time>2026-05-03T14:22:49Z</time></trkpt><trkpt lat="45.108499493270365" lon="8.424870690093801"><ele>150.25</ele><time>2026-05-03T14:22:50Z</time></trkpt><trkpt lat="45.1084850875848" lon="8.424655587267862"><ele>151.0</ele><time>2026-05-03T14:22:51Z</time></trkpt><trkpt lat="45.108484891246185" lon="8.42444149583206"><ele>153.0</ele><time>2026-05-03T14:22:52Z</time></trkpt><trkpt lat="45.10849959938996" lon="8.42421036850572"><ele>155.0</ele><time>2026-05-03T14:22:53Z</time></trkpt><trkpt lat="45.10849762865685" lon="8.423993568212568"><ele>157.0</ele><time>2026-05-03T14:22:54Z</time></trkpt><trkpt lat="45.108531634103315" lon="8.423754359862995"><ele>158.66666666666669</ele><time>2026-05-03T14:22:55Z</time></trkpt><trkpt lat="45.108518059562876" lon="8.423495231342475"><ele>160.33333333333334</ele><time>2026-05-03T14:22:56Z</time></trkpt><trkpt lat="45.108539104801565" lon="8.423253307571336"><ele>162.0</ele><time>2026-05-03T14:22:57Z</time></trkpt><trkpt lat="45.108522783740376" lon="8.4229327987257"><ele>162.33333333333334</ele><time>2026-05-03T14:22:58Z</time></trkpt><trkpt lat="45.10856305562226" lon="8.422650981211977"><ele>162.66666666666669</ele><time>2026-05-03T14:22:59Z</time></trkpt><trkpt lat="45.10859504187334" lon="8.422413450103507"><ele>163.0</ele><time>2026-05-03T14:23:00Z</time></trkpt><trkpt lat="45.10860387020512" lon="8.422150324301908"><ele>164.66666666666669</ele><time>2026-05-03T14:23:01Z</time></trkpt><trkpt lat="45.10861419299041" lon="8.421889836846903"><ele>166.33333333333334</ele><time>2026-05-03T14:23:02Z</time></trkpt><trkpt lat="45.10863777648622" lon="8.421637740949466"><ele>168.0</ele><time>2026-05-03T14:23:03Z</time></trkpt><trkpt lat="45.108651645226146" lon="8.42137879249856"><ele>169.66666666666666</ele><time>2026-05-03T14:23:04Z</time></trkpt><trkpt lat="45.10868229434017" lon="8.421101663856678"><ele>171.33333333333331</ele><time>2026-05-03T14:23:05Z</time></trkpt><trkpt lat="45.10871807812444" lon="8.42084524100666"><ele>173.0</ele><time>2026-05-03T14:23:06Z</time></trkpt><trkpt lat="45.10874131138319" lon="8.420564048295992"><ele>175.33333333333331</ele><time>2026-05-03T14:23:07Z</time></trkpt><trkpt lat="45.10877202264719" lon="8.42028063671604"><ele>177.66666666666666</ele><time>2026-05-03T14:23:08Z</time></trkpt><trkpt lat="45.108792621542925" lon="8.420024662860605"><ele>180.0</ele><time>2026-05-03T14:23:09Z</time></trkpt><trkpt lat="45.10881550654675" lon="8.419787424626394"><ele>182.0</ele><time>2026-05-03T14:23:10Z</time></trkpt><trkpt lat="45.10885772953997" lon="8.419554134629738"><ele>184.0</ele><time>2026-05-03T14:23:11Z</time></trkpt><trkpt lat="45.10887259799655" lon="8.419326049629968"><ele>186.0</ele><time>2026-05-03T14:23:12Z</time></trkpt><trkpt lat="45.108912871281944" lon="8.41911524067085"><ele>186.0</ele><time>2026-05-03T14:23:13Z</time></trkpt><trkpt lat="45.10895866787688" lon="8.418909387037457"><ele>186.0</ele><time>2026-05-03T14:23:14Z</time></trkpt><trkpt lat="45.109031816646" lon="8.418736322582664"><ele>186.0</ele><time>2026-05-03T14:23:15Z</time></trkpt><trkpt lat="45.10908819607444" lon="8.418551682770186"><ele>186.0</ele><time>2026-05-03T14:23:16Z</time></trkpt><trkpt lat="45.109118419601636" lon="8.41836379136313"><ele>186.25</ele><time>2026-05-03T14:23:17Z</time></trkpt><trkpt lat="45.10914387892796" lon="8.41815274270757"><ele>186.5</ele><time>2026-05-03T14:23:18Z</time></trkpt><trkpt lat="45.10914580641801" lon="8.417942212690596"><ele>186.75</ele><time>2026-05-03T14:23:19Z</time></trkpt><trkpt lat="45.109108415372155" lon="8.417775729401162"><ele>187.0</ele><time>2026-05-03T14:23:20Z</time></trkpt><trkpt lat="45.10904757349806" lon="8.417640147979082"><ele>190.25</ele><time>2026-05-03T14:23:21Z</time></trkpt><trkpt lat="45.10895388685912" lon="8.41755987050695"><ele>193.5</ele><time>2026-05-03T14:23:22Z</time></trkpt><trkpt lat="45.10883139478938" lon="8.417507090717843"><ele>196.75</ele><time>2026-05-03T14:23:23Z</time></trkpt><trkpt lat="45.10873270376305" lon="8.417439816465661"><ele>200.0</ele><time>2026-05-03T14:23:24Z</time></trkpt><trkpt lat="45.108681884990744" lon="8.417295249549012"><ele>200.0</ele><time>2026-05-03T14:23:25Z</time></trkpt><trkpt lat="45.1086905425995" lon="8.417156314476369"><ele>200.0</ele><time>2026-05-03T14:23:26Z</time></trkpt><trkpt lat="45.10874882599752" lon="8.41703596337793"><ele>200.0</ele><time>2026-05-03T14:23:27Z</time></trkpt><trkpt lat="45.108846777482235" lon="8.416960504695473"><ele>200.0</ele><time>2026-05-03T14:23:28Z</time></trkpt><trkpt lat="45.10894022086047" lon="8.416887705437148"><ele>200.0</ele><time>2026-05-03T14:23:29Z</time></trkpt><trkpt lat="45.10898272267593" lon="8.41671263379725"><ele>202.8</ele><time>2026-05-03T14:23:30Z</time></trkpt><trkpt lat="45.108997193565635" lon="8.416561604880679"><ele>205.6</ele><time>2026-05-03T14:23:31Z</time></trkpt><trkpt lat="45.10901287026677" lon="8.416459067139739"><ele>208.39999999999998</ele><time>2026-05-03T14:23:32Z</time></trkpt><trkpt lat="45.10903785076099" lon="8.416339790242514"><ele>211.2</ele><time>2026-05-03T14:23:33Z</time></trkpt><trkpt lat="45.109037372810285" lon="8.41618305024791"><ele>214.0</ele><time>2026-05-03T14:23:34Z</time></trkpt><trkpt lat="45.10904375235189" lon="8.415999083583461"><ele>213.5</ele><time>2026-05-03T14:23:35Z</time></trkpt><trkpt lat="45.10904086472655" lon="8.415795559174592"><ele>213.0</ele><time>2026-05-03T14:23:36Z</time></trkpt><trkpt lat="45.10905765255371" lon="8.415602753862396"><ele>212.5</ele><time>2026-05-03T14:23:37Z</time></trkpt><trkpt lat="45.10907634116852" lon="8.41540473575884"><ele>212.0</ele><time>2026-05-03T14:23:38Z</time></trkpt><trkpt lat="45.10909167048201" lon="8.41519371546396"><ele>212.0</ele><time>2026-05-03T14:23:38.999Z</time></trkpt><trkpt lat="45.1090985280733" lon="8.414989873788073"><ele>212.0</ele><time>2026-05-03T14:23:39.999Z</time></trkpt><trkpt lat="45.10912905842662" lon="8.414827436265645"><ele>212.0</ele><time>2026-05-03T14:23:40.999Z</time></trkpt><trkpt lat="45.109144805525894" lon="8.414670145528197"><ele>212.0</ele><time>2026-05-03T14:23:41.999Z</time></trkpt><trkpt lat="45.10918554779057" lon="8.414558935105854"><ele>214.75</ele><time>2026-05-03T14:23:42.999Z</time></trkpt><trkpt lat="45.10923221793336" lon="8.414434242095147"><ele>217.5</ele><time>2026-05-03T14:23:43.999Z</time></trkpt><trkpt lat="45.109276866834506" lon="8.414295033630257"><ele>220.25</ele><time>2026-05-03T14:23:44.999Z</time></trkpt><trkpt lat="45.10930185473747" lon="8.414115722937307"><ele>223.0</ele><time>2026-05-03T14:23:45.999Z</time></trkpt><trkpt lat="45.109355829232335" lon="8.413974390242737"><ele>225.25</ele><time>2026-05-03T14:23:46.999Z</time></trkpt><trkpt lat="45.109406216747246" lon="8.413820429998138"><ele>227.5</ele><time>2026-05-03T14:23:47.999Z</time></trkpt><trkpt lat="45.109417187875536" lon="8.413605943971369"><ele>229.75</ele><time>2026-05-03T14:23:48.999Z</time></trkpt><trkpt lat="45.109438156788215" lon="8.413422333819678"><ele>232.0</ele><time>2026-05-03T14:23:49.999Z</time></trkpt><trkpt lat="45.10949375411372" lon="8.413279346363879"><ele>232.0</ele><time>2026-05-03T14:23:50.999Z</time></trkpt><trkpt lat="45.109512385872186" lon="8.413111909204106"><ele>232.0</ele><time>2026-05-03T14:23:51.999Z</time></trkpt><trkpt lat="45.109556507662575" lon="8.412977849612446"><ele>232.0</ele><time>2026-05-03T14:23:52.999Z</time></trkpt><trkpt lat="45.1096008581005" lon="8.412839817884926"><ele>232.0</ele><time>2026-05-03T14:23:53.999Z</time></trkpt><trkpt lat="45.10962266668194" lon="8.412699467772836"><ele>232.0</ele><time>2026-05-03T14:23:54.999Z</time></trkpt><trkpt lat="45.109640682210994" lon="8.412590777890426"><ele>232.16666666666666</ele><time>2026-05-03T14:23:55.999Z</time></trkpt><trkpt lat="45.10966432990691" lon="8.412495665192555"><ele>232.33333333333331</ele><time>2026-05-03T14:23:56.999Z</time></trkpt><trkpt lat="45.10965656979603" lon="8.412375592741542"><ele>232.5</ele><time>2026-05-03T14:23:57.999Z</time></trkpt><trkpt lat="45.1096331073629" lon="8.412292645129112"><ele>232.66666666666669</ele><time>2026-05-03T14:23:58.999Z</time></trkpt><trkpt lat="45.1096283922779" lon="8.412166222313784"><ele>232.83333333333334</ele><time>2026-05-03T14:24:00.999Z</time></trkpt><trkpt lat="45.10965695295494" lon="8.412034158036638"><ele>233.0</ele><time>2026-05-03T14:24:02.999Z</time></trkpt><trkpt lat="45.109715897206144" lon="8.411982909299656"><ele>232.4</ele><time>2026-05-03T14:24:03.999Z</time></trkpt><trkpt lat="45.109788949905" lon="8.411959150656644"><ele>231.8</ele><time>2026-05-03T14:24:04.999Z</time></trkpt><trkpt lat="45.10987801097848" lon="8.411921807261079"><ele>231.2</ele><time>2026-05-03T14:24:05.999Z</time></trkpt><trkpt lat="45.109966667326105" lon="8.411878566064923"><ele>230.6</ele><time>2026-05-03T14:24:06.999Z</time></trkpt><trkpt lat="45.11006751241194" lon="8.411830391183903"><ele>230.0</ele><time>2026-05-03T14:24:07.999Z</time></trkpt><trkpt lat="45.1101737258949" lon="8.411771834554616"><ele>231.6</ele><time>2026-05-03T14:24:08.999Z</time></trkpt><trkpt lat="45.11028011943004" lon="8.411741610928644"><ele>233.2</ele><time>2026-05-03T14:24:09.999Z</time></trkpt><trkpt lat="45.11037869984066" lon="8.41167275641257"><ele>234.8</ele><time>2026-05-03T14:24:10.999Z</time></trkpt><trkpt lat="45.11047083221716" lon="8.411601191813185"><ele>236.4</ele><time>2026-05-03T14:24:11.999Z</time></trkpt><trkpt lat="45.11054345355991" lon="8.411483661679238"><ele>238.0</ele><time>2026-05-03T14:24:12.999Z</time></trkpt><trkpt lat="45.1106308922518" lon="8.411345362438746"><ele>237.25</ele><time>2026-05-03T14:24:13.999Z</time></trkpt><trkpt lat="45.110693641904724" lon="8.411197710736573"><ele>236.5</ele><time>2026-05-03T14:24:14.999Z</time></trkpt><trkpt lat="45.11076282619383" lon="8.411060653527215"><ele>235.75</ele><time>2026-05-03T14:24:15.999Z</time></trkpt><trkpt lat="45.110832947764266" lon="8.410915209672625"><ele>235.0</ele><time>2026-05-03T14:24:16.999Z</time></trkpt><trkpt lat="45.110905497001575" lon="8.410788788935122"><ele>238.25</ele><time>2026-05-03T14:24:17.999Z</time></trkpt><trkpt lat="45.1110045785214" lon="8.41068956730534"><ele>241.5</ele><time>2026-05-03T14:24:18.999Z</time></trkpt><trkpt lat="45.111112345571634" lon="8.410606658562637"><ele>244.75</ele><time>2026-05-03T14:24:19.999Z</time></trkpt><trkpt lat="45.11126276824753" lon="8.410611746586946"><ele>248.0</ele><time>2026-05-03T14:24:20.999Z</time></trkpt><trkpt lat="45.11139466975672" lon="8.41055253603487"><ele>247.25</ele><time>2026-05-03T14:24:21.999Z</time></trkpt><trkpt lat="45.11152564223804" lon="8.410472562696931"><ele>246.5</ele><time>2026-05-03T14:24:22.999Z</time></trkpt><trkpt lat="45.111643823666356" lon="8.410361281261995"><ele>245.75</ele><time>2026-05-03T14:24:23.999Z</time></trkpt><trkpt lat="45.111737463459704" lon="8.410213622908655"><ele>245.0</ele><time>2026-05-03T14:24:25Z</time></trkpt><trkpt lat="45.111825405387066" lon="8.41007808476853"><ele>248.5</ele><time>2026-05-03T14:24:26Z</time></trkpt><trkpt lat="45.11192916458757" lon="8.40997358593456"><ele>252.0</ele><time>2026-05-03T14:24:27Z</time></trkpt><trkpt lat="45.11203869114936" lon="8.409874482009311"><ele>255.5</ele><time>2026-05-03T14:24:28Z</time></trkpt><trkpt lat="45.11216999861215" lon="8.409859428057072"><ele>259.0</ele><time>2026-05-03T14:24:29Z</time></trkpt><trkpt lat="45.11231699891211" lon="8.40980304178167"><ele>260.5</ele><time>2026-05-03T14:24:30Z</time></trkpt><trkpt lat="45.112468961257136" lon="8.409779809592989"><ele>262.0</ele><time>2026-05-03T14:24:31Z</time></trkpt><trkpt lat="45.11260705755219" lon="8.409758277668576"><ele>263.5</ele><time>2026-05-03T14:24:32Z</time></trkpt><trkpt lat="45.11276130465864" lon="8.40972860645914"><ele>265.0</ele><time>2026-05-03T14:24:33Z</time></trkpt><trkpt lat="45.11288473551418" lon="8.409644888614165"><ele>265.0</ele><time>2026-05-03T14:24:34Z</time></trkpt><trkpt lat="45.11302186744609" lon="8.409574436301048"><ele>265.0</ele><time>2026-05-03T14:24:35Z</time></trkpt><trkpt lat="45.11313391291131" lon="8.409492655489021"><ele>265.0</ele><time>2026-05-03T14:24:36Z</time></trkpt><trkpt lat="45.113288444605566" lon="8.409412479306905"><ele>265.0</ele><time>2026-05-03T14:24:37Z</time></trkpt><trkpt lat="45.113419503129265" lon="8.409351077375687"><ele>267.5</ele><time>2026-05-03T14:24:38Z</time></trkpt><trkpt lat="45.11353476930249" lon="8.409243515021696"><ele>270.0</ele><time>2026-05-03T14:24:39Z</time></trkpt><trkpt lat="45.11362146549381" lon="8.409150329724634"><ele>272.5</ele><time>2026-05-03T14:24:40Z</time></trkpt><trkpt lat="45.113723005527525" lon="8.40903980563894"><ele>275.0</ele><time>2026-05-03T14:24:41Z</time></trkpt><trkpt lat="45.1138186619293" lon="8.40890540550396"><ele>275.5</ele><time>2026-05-03T14:24:42Z</time></trkpt><trkpt lat="45.113909470112525" lon="8.408745854094603"><ele>276.0</ele><time>2026-05-03T14:24:43Z</time></trkpt><trkpt lat="45.114000220561174" lon="8.408622878570268"><ele>276.5</ele><time>2026-05-03T14:24:44Z</time></trkpt><trkpt lat="45.11411280758589" lon="8.408470561410056"><ele>277.0</ele><time>2026-05-03T14:24:45Z</time></trkpt><trkpt lat="45.11422144859276" lon="8.40829200359132"><ele>277.0</ele><time>2026-05-03T14:24:46Z</time></trkpt><trkpt lat="45.11432683983297" lon="8.408114047109338"><ele>277.0</ele><time>2026-05-03T14:24:47Z</time></trkpt><trkpt lat="45.11443720387101" lon="8.407940097815414"><ele>277.0</ele><time>2026-05-03T14:24:48Z</time></trkpt><trkpt lat="45.11453629662018" lon="8.407770880322868"><ele>276.5</ele><time>2026-05-03T14:24:49Z</time></trkpt><trkpt lat="45.114630686983126" lon="8.407624253654683"><ele>276.0</ele><time>2026-05-03T14:24:50Z</time></trkpt><trkpt lat="45.11473322041791" lon="8.407470521045528"><ele>275.5</ele><time>2026-05-03T14:24:51Z</time></trkpt><trkpt lat="45.11484431703012" lon="8.407359921457957"><ele>275.0</ele><time>2026-05-03T14:24:52Z</time></trkpt><trkpt lat="45.11496568980699" lon="8.40726714436718"><ele>274.33333333333337</ele><time>2026-05-03T14:24:53Z</time></trkpt><trkpt lat="45.11511773056158" lon="8.407253488606862"><ele>273.6666666666667</ele><time>2026-05-03T14:24:54Z</time></trkpt><trkpt lat="45.1152774296015" lon="8.407215889911159"><ele>273.0</ele><time>2026-05-03T14:24:55Z</time></trkpt><trkpt lat="45.11544547955747" lon="8.407177601816796"><ele>272.6666666666667</ele><time>2026-05-03T14:24:56Z</time></trkpt><trkpt lat="45.11560503828148" lon="8.407129173470988"><ele>272.33333333333337</ele><time>2026-05-03T14:24:57Z</time></trkpt><trkpt lat="45.11575869933581" lon="8.407100199061194"><ele>272.0</ele><time>2026-05-03T14:24:58Z</time></trkpt><trkpt lat="45.11590488796564" lon="8.407075245858866"><ele>270.6</ele><time>2026-05-03T14:24:59Z</time></trkpt><trkpt lat="45.11603419335933" lon="8.40703843924067"><ele>269.2</ele><time>2026-05-03T14:25:00Z</time></trkpt><trkpt lat="45.116129482911525" lon="8.407029251517056"><ele>267.8</ele><time>2026-05-03T14:25:01Z</time></trkpt><trkpt lat="45.1162207294946" lon="8.40701666298287"><ele>266.4</ele><time>2026-05-03T14:25:02Z</time></trkpt><trkpt lat="45.116317649217244" lon="8.4070233434705"><ele>265.0</ele><time>2026-05-03T14:25:03Z</time></trkpt><trkpt lat="45.11641529472331" lon="8.407058642840283"><ele>265.0</ele><time>2026-05-03T14:25:04Z</time></trkpt><trkpt lat="45.11652438471839" lon="8.407137996196063"><ele>265.0</ele><time>2026-05-03T14:25:05Z</time></trkpt><trkpt lat="45.11662725983776" lon="8.407257001952239"><ele>265.0</ele><time>2026-05-03T14:25:06Z</time></trkpt><trkpt lat="45.1167282298564" lon="8.407369014166829"><ele>265.0</ele><time>2026-05-03T14:25:07Z</time></trkpt><trkpt lat="45.11684104706876" lon="8.407482929626006"><ele>265.25</ele><time>2026-05-03T14:25:08Z</time></trkpt><trkpt lat="45.116933796780174" lon="8.40760822352082"><ele>265.5</ele><time>2026-05-03T14:25:09Z</time></trkpt><trkpt lat="45.117004662463785" lon="8.407752723215099"><ele>265.75</ele><time>2026-05-03T14:25:10Z</time></trkpt><trkpt lat="45.11705862319036" lon="8.407919725851215"><ele>266.0</ele><time>2026-05-03T14:25:11Z</time></trkpt><trkpt lat="45.11710060677301" lon="8.408124650053873"><ele>264.0</ele><time>2026-05-03T14:25:12Z</time></trkpt><trkpt lat="45.11715988659228" lon="8.40831836915676"><ele>262.0</ele><time>2026-05-03T14:25:13Z</time></trkpt><trkpt lat="45.11725091083264" lon="8.40851676215596"><ele>260.0</ele><time>2026-05-03T14:25:14Z</time></trkpt><trkpt lat="45.11736746052568" lon="8.4087209755174"><ele>130.0</ele><time>2026-05-03T14:25:15Z</time></trkpt><trkpt lat="45.1047470376996" lon="8.434258461179917"><ele>130.0</ele><time>2026-05-03T14:21:15Z</time></trkpt><trkpt lat="45.10484916315414" lon="8.43417501498172"><ele>130.0</ele><time>2026-05-03T14:21:16Z</time></trkpt><trkpt lat="45.10495066883905" lon="8.434090216408089"><ele>130.0</ele><time>2026-05-03T14:21:17Z</time></trkpt><trkpt lat="45.1050561448255" lon="8.434000966178662"><ele>130.0</ele><time>2026-05-03T14:21:18Z</time></trkpt><trkpt lat="45.10517047543737" lon="8.433920367459095"><ele>130.0</ele><time>2026-05-03T14:21:19Z</time></trkpt><trkpt lat="45.10528581796147" lon="8.433832793909595"><ele>130.0</ele><time>2026-05-03T14:21:20Z</time></trkpt><trkpt lat="45.10539166900335" lon="8.433739694331663"><ele>130.0</ele><time>2026-05-03T14:21:21Z</time></trkpt><trkpt lat="45.1055046606862" lon="8.43364218993388"><ele>130.0</ele><time>2026-05-03T14:21:22Z</time></trkpt><trkpt lat="45.105611382104584" lon="8.433533787041698"><ele>130.5</ele><time>2026-05-03T14:21:23Z</time></trkpt><trkpt lat="45.10570903085142" lon="8.433404522661377"><ele>131.0</ele><time>2026-05-03T14:21:24Z</time></trkpt><trkpt lat="45.10581230208071" lon="8.433254408337268"><ele>131.5</ele><time>2026-05-03T14:21:25Z</time></trkpt><trkpt lat="45.10591177078965" lon="8.433094345535403"><ele>132.0</ele><time>2026-05-03T14:21:26Z</time></trkpt><trkpt lat="45.106011553715085" lon="8.432938518415352"><ele>132.0</ele><time>2026-05-03T14:21:27Z</time></trkpt><trkpt lat="45.10613169644003" lon="8.432774604004512"><ele>132.0</ele><time>2026-05-03T14:21:28Z</time></trkpt><trkpt lat="45.106254644156046" lon="8.432593681498018"><ele>132.0</ele><time>2026-05-03T14:21:29Z</time></trkpt><trkpt lat="45.10637521911132" lon="8.432435578508958"><ele>132.0</ele><time>2026-05-03T14:21:30Z</time></trkpt><trkpt lat="45.10650330301958" lon="8.432272321621598"><ele>132.0</ele><time>2026-05-03T14:21:31Z</time></trkpt><trkpt lat="45.10662747708031" lon="8.432081752334653"><ele>132.0</ele><time>2026-05-03T14:21:32Z</time></trkpt><trkpt lat="45.106753193345995" lon="8.431928010836753"><ele>133.0</ele><time>2026-05-03T14:21:33Z</time></trkpt><trkpt lat="45.10685775140988" lon="8.431765228378387"><ele>134.0</ele><time>2026-05-03T14:21:34Z</time></trkpt><trkpt lat="45.10697529007182" lon="8.431617244927393"><ele>135.0</ele><time>2026-05-03T14:21:35Z</time></trkpt><trkpt lat="45.107088659237434" lon="8.43146655873629"><ele>135.0</ele><time>2026-05-03T14:21:36Z</time></trkpt><trkpt lat="45.107203215356456" lon="8.431307817672927"><ele>135.0</ele><time>2026-05-03T14:21:37Z</time></trkpt><trkpt lat="45.10732172035675" lon="8.431202766517435"><ele>135.0</ele><time>2026-05-03T14:21:38Z</time></trkpt><trkpt lat="45.10742401007174" lon="8.431057407006366"><ele>135.0</ele><time>2026-05-03T14:21:39Z</time></trkpt><trkpt lat="45.107522740126065" lon="8.430947460408415"><ele>136.0</ele><time>2026-05-03T14:21:40Z</time></trkpt><trkpt lat="45.10762100423604" lon="8.430799848493447"><ele>137.0</ele><time>2026-05-03T14:21:40.999Z</time></trkpt><trkpt lat="45.10770723082209" lon="8.430585727695409"><ele>138.0</ele><time>2026-05-03T14:21:41.999Z</time></trkpt><trkpt lat="45.10778493909056" lon="8.430400615518757"><ele>138.25</ele><time>2026-05-03T14:21:42.999Z</time></trkpt><trkpt lat="45.10784280197318" lon="8.430201476060953"><ele>138.5</ele><time>2026-05-03T14:21:43.999Z</time></trkpt><trkpt lat="45.10788877692708" lon="8.429999341613506"><ele>138.75</ele><time>2026-05-03T14:21:44.999Z</time></trkpt><trkpt lat="45.10793158812234" lon="8.429829177206464"><ele>139.0</ele><time>2026-05-03T14:21:45.999Z</time></trkpt><trkpt lat="45.10797643709331" lon="8.429649949180162"><ele>139.5</ele><time>2026-05-03T14:21:46.999Z</time></trkpt><trkpt lat="45.10802773682051" lon="8.42950036434345"><ele>140.0</ele><time>2026-05-03T14:21:47.999Z</time></trkpt><trkpt lat="45.10807920647743" lon="8.429343832469625"><ele>140.5</ele><time>2026-05-03T14:21:48.999Z</time></trkpt><trkpt lat="45.10813174332026" lon="8.429170524893033"><ele>141.0</ele><time>2026-05-03T14:21:49.999Z</time></trkpt><trkpt lat="45.10819019291079" lon="8.428999950176795"><ele>140.75</ele><time>2026-05-03T14:21:50.999Z</time></trkpt><trkpt lat="45.10824717035778" lon="8.428847710566872"><ele>140.5</ele><time>2026-05-03T14:21:51.999Z</time></trkpt><trkpt lat="45.10830069853675" lon="8.42869860081392"><ele>140.25</ele><time>2026-05-03T14:21:52.999Z</time></trkpt><trkpt lat="45.10835818221748" lon="8.4285493040413"><ele>140.0</ele><time>2026-05-03T14:21:53.999Z</time></trkpt><trkpt lat="45.108402540013756" lon="8.428404839705859"><ele>140.75</ele><time>2026-05-03T14:21:54.999Z</time></trkpt><trkpt lat="45.108449593977475" lon="8.428218599799605"><ele>141.5</ele><time>2026-05-03T14:21:55.999Z</time></trkpt><trkpt lat="45.10848258707795" lon="8.42806396660345"><ele>142.25</ele><time>2026-05-03T14:21:56.999Z</time></trkpt><trkpt lat="45.10846081245264" lon="8.427868307093057"><ele>143.0</ele><time>2026-05-03T14:21:57.999Z</time></trkpt><trkpt lat="45.10846409543269" lon="8.42770966316127"><ele>143.20000000000002</ele><time>2026-05-03T14:21:58.999Z</time></trkpt><trkpt lat="45.108468764451175" lon="8.427550127515131"><ele>143.4</ele><time>2026-05-03T14:21:59.999Z</time></trkpt><trkpt lat="45.10850486767581" lon="8.427409184446203"><ele>143.60000000000002</ele><time>2026-05-03T14:22:00.999Z</time></trkpt><trkpt lat="45.10852635379414" lon="8.427275408210297"><ele>143.8</ele><time>2026-05-03T14:22:01.999Z</time></trkpt><trkpt lat="45.10855608549" lon="8.427166787341529"><ele>144.0</ele><time>2026-05-03T14:22:02.999Z</time></trkpt><trkpt lat="45.108581522931395" lon="8.427053472271222"><ele>144.16666666666666</ele><time>2026-05-03T14:22:03.999Z</time></trkpt><trkpt lat="45.10857308641443" lon="8.42694185869472"><ele>144.33333333333334</ele><time>2026-05-03T14:22:05.999Z</time></trkpt><trkpt lat="45.10854418171063" lon="8.426842455301637"><ele>144.5</ele><time>2026-05-03T14:22:08.999Z</time></trkpt><trkpt lat="45.10849577925954" lon="8.426765570312362"><ele>144.66666666666669</ele><time>2026-05-03T14:22:21Z</time></trkpt><trkpt lat="45.108544206104284" lon="8.426618872715085"><ele>144.83333333333334</ele><time>2026-05-03T14:22:41Z</time></trkpt><trkpt lat="45.1085383848654" lon="8.426483715596573"><ele>145.0</ele><time>2026-05-03T14:22:42Z</time></trkpt><trkpt lat="45.10855065602377" lon="8.42635488352358"><ele>145.75</ele><time>2026-05-03T14:22:43Z</time></trkpt><trkpt lat="45.10854268474517" lon="8.426138721836747"><ele>146.5</ele><time>2026-05-03T14:22:44Z</time></trkpt><trkpt lat="45.10853019399564" lon="8.425931308024076"><ele>147.25</ele><time>2026-05-03T14:22:45Z</time></trkpt><trkpt lat="45.10852274227811" lon="8.425734729229795"><ele>148.0</ele><time>2026-05-03T14:22:46Z</time></trkpt><trkpt lat="45.10851029145631" lon="8.425514584776499"><ele>149.0</ele><time>2026-05-03T14:22:47Z</time></trkpt><trkpt lat="45.10851443403061" lon="8.425289063956738"><ele>150.0</ele><time>2026-05-03T14:22:48Z</time></trkpt><trkpt lat="45.108502352821525" lon="8.42507902754114"><ele>151.0</ele><time>2026-05-03T14:22:49Z</time></trkpt><trkpt lat="45.108499493270365" lon="8.424870690093801"><ele>151.0</ele><time>2026-05-03T14:22:50Z</time></trkpt><trkpt lat="45.1084850875848" lon="8.424655587267862"><ele>151.0</ele><time>2026-05-03T14:22:51Z</time></trkpt><trkpt lat="45.108484891246185" lon="8.42444149583206"><ele>151.0</ele><time>2026-05-03T14:22:52Z</time></trkpt><trkpt lat="45.10849959938996" lon="8.42421036850572"><ele>153.0</ele><time>2026-05-03T14:22:53Z</time></trkpt><trkpt lat="45.10849762865685" lon="8.423993568212568"><ele>155.0</ele><time>2026-05-03T14:22:54Z</time></trkpt><trkpt lat="45.108531634103315" lon="8.423754359862995"><ele>157.0</ele><time>2026-05-03T14:22:55Z</time></trkpt><trkpt lat="45.108518059562876" lon="8.423495231342475"><ele>158.66666666666669</ele><time>2026-05-03T14:22:56Z</time></trkpt><trkpt lat="45.108539104801565" lon="8.423253307571336"><ele>160.33333333333334</ele><time>2026-05-03T14:22:57Z</time></trkpt><trkpt lat="45.108522783740376" lon="8.4229327987257"><ele>162.0</ele><time>2026-05-03T14:22:58Z</time></trkpt><trkpt lat="45.10856305562226" lon="8.422650981211977"><ele>162.33333333333334</ele><time>2026-05-03T14:22:59Z</time></trkpt><trkpt lat="45.10859504187334" lon="8.422413450103507"><ele>162.66666666666669</ele><time>2026-05-03T14:23:00Z</time></trkpt><trkpt lat="45.10860387020512" lon="8.422150324301908"><ele>163.0</ele><time>2026-05-03T14:23:01Z</time></trkpt><trkpt lat="45.10861419299041" lon="8.421889836846903"><ele>164.66666666666669</ele><time>2026-05-03T14:23:02Z</time></trkpt><trkpt lat="45.10863777648622" lon="8.421637740949466"><ele>166.33333333333334</ele><time>2026-05-03T14:23:03Z</time></trkpt><trkpt lat="45.108651645226146" lon="8.42137879249856"><ele>168.0</ele><time>2026-05-03T14:23:04Z</time></trkpt><trkpt lat="45.10868229434017" lon="8.421101663856678"><ele>169.66666666666666</ele><time>2026-05-03T14:23:05Z</time></trkpt><trkpt lat="45.10871807812444" lon="8.42084524100666"><ele>171.33333333333331</ele><time>2026-05-03T14:23:06Z</time></trkpt><trkpt lat="45.10874131138319" lon="8.420564048295992"><ele>173.0</ele><time>2026-05-03T14:23:07Z</time></trkpt><trkpt lat="45.10877202264719" lon="8.42028063671604"><ele>175.33333333333331</ele><time>2026-05-03T14:23:08Z</time></trkpt><trkpt lat="45.108792621542925" lon="8.420024662860605"><ele>177.66666666666666</ele><time>2026-05-03T14:23:09Z</time></trkpt><trkpt lat="45.10881550654675" lon="8.419787424626394"><ele>180.0</ele><time>2026-05-03T14:23:10Z</time></trkpt><trkpt lat="45.10885772953997" lon="8.419554134629738"><ele>182.0</ele><time>2026-05-03T14:23:11Z</time></trkpt><trkpt lat="45.10887259799655" lon="8.419326049629968"><ele>184.0</ele><time>2026-05-03T14:23:12Z</time></trkpt><trkpt lat="45.108912871281944" lon="8.41911524067085"><ele>186.0</ele><time>2026-05-03T14:23:13Z</time></trkpt><trkpt lat="45.10895866787688" lon="8.418909387037457"><ele>184.75</ele><time>2026-05-03T14:23:14Z</time></trkpt><trkpt lat="45.109031816646" lon="8.418736322582664"><ele>183.5</ele><time>2026-05-03T14:23:15Z</time></trkpt><trkpt lat="45.10908819607444" lon="8.418551682770186"><ele>182.25</ele><time>2026-05-03T14:23:16Z</time></trkpt><trkpt lat="45.109118419601636" lon="8.41836379136313"><ele>181.0</ele><time>2026-05-03T14:23:17Z</time></trkpt><trkpt lat="45.10914387892796" lon="8.41815274270757"><ele>182.5</ele><time>2026-05-03T14:23:18Z</time></trkpt><trkpt lat="45.10914580641801" lon="8.417942212690596"><ele>184.0</ele><time>2026-05-03T14:23:19Z</time></trkpt><trkpt lat="45.109108415372155" lon="8.417775729401162"><ele>185.5</ele><time>2026-05-03T14:23:20Z</time></trkpt><trkpt lat="45.10904757349806" lon="8.417640147979082"><ele>187.0</ele><time>2026-05-03T14:23:21Z</time></trkpt><trkpt lat="45.10895388685912" lon="8.41755987050695"><ele>190.25</ele><time>2026-05-03T14:23:22Z</time></trkpt><trkpt lat="45.10883139478938" lon="8.417507090717843"><ele>193.5</ele><time>2026-05-03T14:23:23Z</time></trkpt><trkpt lat="45.10873270376305" lon="8.417439816465661"><ele>196.75</ele><time>2026-05-03T14:23:24Z</time></trkpt><trkpt lat="45.108681884990744" lon="8.417295249549012"><ele>200.0</ele><time>2026-05-03T14:23:25Z</time></trkpt><trkpt lat="45.1086905425995" lon="8.417156314476369"><ele>203.5</ele><time>2026-05-03T14:23:26Z</time></trkpt><trkpt lat="45.10874882599752" lon="8.41703596337793"><ele>207.0</ele><time>2026-05-03T14:23:27Z</time></trkpt><trkpt lat="45.108846777482235" lon="8.416960504695473"><ele>210.5</ele><time>2026-05-03T14:23:28Z</time></trkpt><trkpt lat="45.10894022086047" lon="8.416887705437148"><ele>214.0</ele><time>2026-05-03T14:23:29Z</time></trkpt><trkpt lat="45.10898272267593" lon="8.41671263379725"><ele>214.0</ele><time>2026-05-03T14:23:30Z</time></trkpt><trkpt lat="45.108997193565635" lon="8.416561604880679"><ele>213.99999999999997</ele><time>2026-05-03T14:23:31Z</time></trkpt><trkpt lat="45.10901287026677" lon="8.416459067139739"><ele>213.99999999999997</ele><time>2026-05-03T14:23:32Z</time></trkpt><trkpt lat="45.10903785076099" lon="8.416339790242514"><ele>214.0</ele><time>2026-05-03T14:23:33Z</time></trkpt><trkpt lat="45.109037372810285" lon="8.41618305024791"><ele>214.0</ele><time>2026-05-03T14:23:34Z</time></trkpt><trkpt lat="45.10904375235189" lon="8.415999083583461"><ele>213.5</ele><time>2026-05-03T14:23:35Z</time></trkpt><trkpt lat="45.10904086472655" lon="8.415795559174592"><ele>213.0</ele><time>2026-05-03T14:23:36Z</time></trkpt><trkpt lat="45.10905765255371" lon="8.415602753862396"><ele>212.5</ele><time>2026-05-03T14:23:37Z</time></trkpt><trkpt lat="45.10907634116852" lon="8.41540473575884"><ele>212.0</ele><time>2026-05-03T14:23:38Z</time></trkpt><trkpt lat="45.10909167048201" lon="8.41519371546396"><ele>212.0</ele><time>2026-05-03T14:23:38.999Z</time></trkpt><trkpt lat="45.1090985280733" lon="8.414989873788073"><ele>212.0</ele><time>2026-05-03T14:23:39.999Z</time></trkpt><trkpt lat="45.10912905842662" lon="8.414827436265645"><ele>212.0</ele><time>2026-05-03T14:23:40.999Z</time></trkpt><trkpt lat="45.109144805525894" lon="8.414670145528197"><ele>212.0</ele><time>2026-05-03T14:23:41.999Z</time></trkpt><trkpt lat="45.10918554779057" lon="8.414558935105854"><ele>214.75</ele><time>2026-05-03T14:23:42.999Z</time></trkpt><trkpt lat="45.10923221793336" lon="8.414434242095147"><ele>217.5</ele><time>2026-05-03T14:23:43.999Z</time></trkpt><trkpt lat="45.109276866834506" lon="8.414295033630257"><ele>220.25</ele><time>2026-05-03T14:23:44.999Z</time></trkpt><trkpt lat="45.10930185473747" lon="8.414115722937307"><ele>223.0</ele><time>2026-05-03T14:23:45.999Z</time></trkpt><trkpt lat="45.109355829232335" lon="8.413974390242737"><ele>225.25</ele><time>2026-05-03T14:23:46.999Z</time></trkpt><trkpt lat="45.109406216747246" lon="8.413820429998138"><ele>227.5</ele><time>2026-05-03T14:23:47.999Z</time></trkpt><trkpt lat="45.109417187875536" lon="8.413605943971369"><ele>229.75</ele><time>2026-05-03T14:23:48.999Z</time></trkpt><trkpt lat="45.109438156788215" lon="8.413422333819678"><ele>232.0</ele><time>2026-05-03T14:23:49.999Z</time></trkpt><trkpt lat="45.10949375411372" lon="8.413279346363879"><ele>232.0</ele><time>2026-05-03T14:23:50.999Z</time></trkpt><trkpt lat="45.109512385872186" lon="8.413111909204106"><ele>232.0</ele><time>2026-05-03T14:23:51.999Z</time></trkpt><trkpt lat="45.109556507662575" lon="8.412977849612446"><ele>232.0</ele><time>2026-05-03T14:23:52.999Z</time></trkpt><trkpt lat="45.1096008581005" lon="8.412839817884926"><ele>232.0</ele><time>2026-05-03T14:23:53.999Z</time></trkpt><trkpt lat="45.10962266668194" lon="8.412699467772836"><ele>232.0</ele><time>2026-05-03T14:23:54.999Z</time></trkpt><trkpt lat="45.109640682210994" lon="8.412590777890426"><ele>232.16666666666666</ele><time>2026-05-03T14:23:55.999Z</time></trkpt><trkpt lat="45.10966432990691" lon="8.412495665192555"><ele>232.33333333333331</ele><time>2026-05-03T14:23:56.999Z</time></trkpt><trkpt lat="45.10965656979603" lon="8.412375592741542"><ele>232.5</ele><time>2026-05-03T14:23:57.999Z</time></trkpt><trkpt lat="45.1096331073629" lon="8.412292645129112"><ele>232.66666666666669</ele><time>2026-05-03T14:23:58.999Z</time></trkpt><trkpt lat="45.1096283922779" lon="8.412166222313784"><ele>232.83333333333334</ele><time>2026-05-03T14:24:00.999Z</time></trkpt><trkpt lat="45.10965695295494" lon="8.412034158036638"><ele>233.0</ele><time>2026-05-03T14:24:02.999Z</time></trkpt><trkpt lat="45.109715897206144" lon="8.411982909299656"><ele>232.4</ele><time>2026-05-03T14:24:03.999Z</time></trkpt><trkpt lat="45.109788949905" lon="8.411959150656644"><ele>231.8</ele><time>2026-05-03T14:24:04.999Z</time></trkpt><trkpt lat="45.10987801097848" lon="8.411921807261079"><ele>231.2</ele><time>2026-05-03T14:24:05.999Z</time></trkpt><trkpt lat="45.109966667326105" lon="8.411878566064923"><ele>230.6</ele><time>2026-05-03T14:24:06.999Z</time></trkpt><trkpt lat="45.11006751241194" lon="8.411830391183903"><ele>230.0</ele><time>2026-05-03T14:24:07.999Z</time></trkpt><trkpt lat="45.1101737258949" lon="8.411771834554616"><ele>231.6</ele><time>2026-05-03T14:24:08.999Z</time></trkpt><trkpt lat="45.11028011943004" lon="8.411741610928644"><ele>233.2</ele><time>2026-05-03T14:24:09.999Z</time></trkpt><trkpt lat="45.11037869984066" lon="8.41167275641257"><ele>234.8</ele><time>2026-05-03T14:24:10.999Z</time></trkpt><trkpt lat="45.11047083221716" lon="8.411601191813185"><ele>236.4</ele><time>2026-05-03T14:24:11.999Z</time></trkpt><trkpt lat="45.11054345355991" lon="8.411483661679238"><ele>238.0</ele><time>2026-05-03T14:24:12.999Z</time></trkpt><trkpt lat="45.1106308922518" lon="8.411345362438746"><ele>237.25</ele><time>2026-05-03T14:24:13.999Z</time></trkpt><trkpt lat="45.110693641904724" lon="8.411197710736573"><ele>236.5</ele><time>2026-05-03T14:24:14.999Z</time></trkpt><trkpt lat="45.11076282619383" lon="8.411060653527215"><ele>235.75</ele><time>2026-05-03T14:24:15.999Z</time></trkpt><trkpt lat="45.110832947764266" lon="8.410915209672625"><ele>235.0</ele><time>2026-05-03T14:24:16.999Z</time></trkpt><trkpt lat="45.110905497001575" lon="8.410788788935122"><ele>238.25</ele><time>2026-05-03T14:24:17.999Z</time></trkpt><trkpt lat="45.1110045785214" lon="8.41068956730534"><ele>241.5</ele><time>2026-05-03T14:24:18.999Z</time></trkpt><trkpt lat="45.111112345571634" lon="8.410606658562637"><ele>244.75</ele><time>2026-05-03T14:24:19.999Z</time></trkpt><trkpt lat="45.11126276824753" lon="8.410611746586946"><ele>248.0</ele><time>2026-05-03T14:24:20.999Z</time></trkpt><trkpt lat="45.11139466975672" lon="8.41055253603487"><ele>247.25</ele><time>2026-05-03T14:24:21.999Z</time></trkpt><trkpt lat="45.11152564223804" lon="8.410472562696931"><ele>246.5</ele><time>2026-05-03T14:24:22.999Z</time></trkpt><trkpt lat="45.111643823666356" lon="8.410361281261995"><ele>245.75</ele><time>2026-05-03T14:24:23.999Z</time></trkpt><trkpt lat="45.111737463459704" lon="8.410213622908655"><ele>245.0</ele><time>2026-05-03T14:24:25Z</time></trkpt><trkpt lat="45.111825405387066" lon="8.41007808476853"><ele>248.5</ele><time>2026-05-03T14:24:26Z</time></trkpt><trkpt lat="45.11192916458757" lon="8.40997358593456"><ele>252.0</ele><time>2026-05-03T14:24:27Z</time></trkpt><trkpt lat="45.11203869114936" lon="8.409874482009311"><ele>255.5</ele><time>2026-05-03T14:24:28Z</time></trkpt><trkpt lat="45.11216999861215" lon="8.409859428057072"><ele>259.0</ele><time>2026-05-03T14:24:29Z</time></trkpt><trkpt lat="45.11231699891211" lon="8.40980304178167"><ele>260.5</ele><time>2026-05-03T14:24:30Z</time></trkpt><trkpt lat="45.112468961257136" lon="8.409779809592989"><ele>262.0</ele><time>2026-05-03T14:24:31Z</time></trkpt><trkpt lat="45.11260705755219" lon="8.409758277668576"><ele>263.5</ele><time>2026-05-03T14:24:32Z</time></trkpt><trkpt lat="45.11276130465864" lon="8.40972860645914"><ele>265.0</ele><time>2026-05-03T14:24:33Z</time></trkpt><trkpt lat="45.11288473551418" lon="8.409644888614165"><ele>265.0</ele><time>2026-05-03T14:24:34Z</time></trkpt><trkpt lat="45.11302186744609" lon="8.409574436301048"><ele>265.0</ele><time>2026-05-03T14:24:35Z</time></trkpt><trkpt lat="45.11313391291131" lon="8.409492655489021"><ele>265.0</ele><time>2026-05-03T14:24:36Z</time></trkpt><trkpt lat="45.113288444605566" lon="8.409412479306905"><ele>265.0</ele><time>2026-05-03T14:24:37Z</time></trkpt><trkpt lat="45.113419503129265" lon="8.409351077375687"><ele>267.5</ele><time>2026-05-03T14:24:38Z</time></trkpt><trkpt lat="45.11353476930249" lon="8.409243515021696"><ele>270.0</ele><time>2026-05-03T14:24:39Z</time></trkpt><trkpt lat="45.11362146549381" lon="8.409150329724634"><ele>272.5</ele><time>2026-05-03T14:24:40Z</time></trkpt><trkpt lat="45.113723005527525" lon="8.40903980563894"><ele>275.0</ele><time>2026-05-03T14:24:41Z</time></trkpt><trkpt lat="45.1138186619293" lon="8.40890540550396"><ele>275.5</ele><time>2026-05-03T14:24:42Z</time></trkpt><trkpt lat="45.113909470112525" lon="8.408745854094603"><ele>276.0</ele><time>2026-05-03T14:24:43Z</time></trkpt><trkpt lat="45.114000220561174" lon="8.408622878570268"><ele>276.5</ele><time>2026-05-03T14:24:44Z</time></trkpt><trkpt lat="45.11411280758589" lon="8.408470561410056"><ele>277.0</ele><time>2026-05-03T14:24:45Z</time></trkpt><trkpt lat="45.11422144859276" lon="8.40829200359132"><ele>277.0</ele><time>2026-05-03T14:24:46Z</time></trkpt><trkpt lat="45.11432683983297" lon="8.408114047109338"><ele>277.0</ele><time>2026-05-03T14:24:47Z</time></trkpt><trkpt lat="45.11443720387101" lon="8.407940097815414"><ele>277.0</ele><time>2026-05-03T14:24:48Z</time></trkpt><trkpt lat="45.11453629662018" lon="8.407770880322868"><ele>276.5</ele><time>2026-05-03T14:24:49Z</time></trkpt><trkpt lat="45.114630686983126" lon="8.407624253654683"><ele>276.0</ele><time>2026-05-03T14:24:50Z</time></trkpt><trkpt lat="45.11473322041791" lon="8.407470521045528"><ele>275.5</ele><time>2026-05-03T14:24:51Z</time></trkpt><trkpt lat="45.11484431703012" lon="8.407359921457957"><ele>275.0</ele><time>2026-05-03T14:24:52Z</time></trkpt><trkpt lat="45.11496568980699" lon="8.40726714436718"><ele>274.33333333333337</ele><time>2026-05-03T14:24:53Z</time></trkpt><trkpt lat="45.11511773056158" lon="8.407253488606862"><ele>273.6666666666667</ele><time>2026-05-03T14:24:54Z</time></trkpt><trkpt lat="45.1152774296015" lon="8.407215889911159"><ele>273.0</ele><time>2026-05-03T14:24:55Z</time></trkpt><trkpt lat="45.11544547955747" lon="8.407177601816796"><ele>272.6666666666667</ele><time>2026-05-03T14:24:56Z</time></trkpt><trkpt lat="45.11560503828148" lon="8.407129173470988"><ele>272.33333333333337</ele><time>2026-05-03T14:24:57Z</time></trkpt><trkpt lat="45.11575869933581" lon="8.407100199061194"><ele>272.0</ele><time>2026-05-03T14:24:58Z</time></trkpt><trkpt lat="45.11590488796564" lon="8.407075245858866"><ele>270.6</ele><time>2026-05-03T14:24:59Z</time></trkpt><trkpt lat="45.11603419335933" lon="8.40703843924067"><ele>269.2</ele><time>2026-05-03T14:25:00Z</time></trkpt><trkpt lat="45.116129482911525" lon="8.407029251517056"><ele>267.8</ele><time>2026-05-03T14:25:01Z</time></trkpt><trkpt lat="45.1162207294946" lon="8.40701666298287"><ele>266.4</ele><time>2026-05-03T14:25:02Z</time></trkpt><trkpt lat="45.116317649217244" lon="8.4070233434705"><ele>265.0</ele><time>2026-05-03T14:25:03Z</time></trkpt><trkpt lat="45.11641529472331" lon="8.407058642840283"><ele>265.0</ele><time>2026-05-03T14:25:04Z</time></trkpt><trkpt lat="45.11652438471839" lon="8.407137996196063"><ele>265.0</ele><time>2026-05-03T14:25:05Z</time></trkpt><trkpt lat="45.11662725983776" lon="8.407257001952239"><ele>265.0</ele><time>2026-05-03T14:25:06Z</time></trkpt><trkpt lat="45.1167282298564" lon="8.407369014166829"><ele>265.0</ele><time>2026-05-03T14:25:07Z</time></trkpt><trkpt lat="45.11684104706876" lon="8.407482929626006"><ele>265.25</ele><time>2026-05-03T14:25:08Z</time></trkpt><trkpt lat="45.116933796780174" lon="8.40760822352082"><ele>265.5</ele><time>2026-05-03T14:25:09Z</time></trkpt><trkpt lat="45.117004662463785" lon="8.407752723215099"><ele>265.75</ele><time>2026-05-03T14:25:10Z</time></trkpt><trkpt lat="45.11705862319036" lon="8.407919725851215"><ele>266.0</ele><time>2026-05-03T14:25:11Z</time></trkpt><trkpt lat="45.11710060677301" lon="8.408124650053873"><ele>264.0</ele><time>2026-05-03T14:25:12Z</time></trkpt><trkpt lat="45.11715988659228" lon="8.40831836915676"><ele>262.0</ele><time>2026-05-03T14:25:13Z</time></trkpt><trkpt lat="45.11725091083264" lon="8.40851676215596"><ele>260.0</ele><time>2026-05-03T14:25:14Z</time></trkpt><trkpt lat="45.11736746052568" lon="8.4087209755174"><ele>261.0</ele><time>2026-05-03T14:25:15Z</time></trkpt><trkpt lat="45.117477771350735" lon="8.408913810799381"><ele>262.0</ele><time>2026-05-03T14:25:16Z</time></trkpt><trkpt lat="45.117565464858934" lon="8.409095353262352"><ele>263.0</ele><time>2026-05-03T14:25:17Z</time></trkpt><trkpt lat="45.11764869628521" lon="8.409284826160947"><ele>263.0</ele><time>2026-05-03T14:25:18Z</time></trkpt><trkpt lat="45.11773795004426" lon="8.409459110710984"><ele>263.0</ele><time>2026-05-03T14:25:19Z</time></trkpt><trkpt lat="45.11782444666929" lon="8.409627363214057"><ele>263.0</ele><time>2026-05-03T14:25:20Z</time></trkpt><trkpt lat="45.11791783486784" lon="8.409778315549856"><ele>263.0</ele><time>2026-05-03T14:25:21Z</time></trkpt><trkpt lat="45.11801395344538" lon="8.409933149764363"><ele>263.5</ele><time>2026-05-03T14:25:22Z</time></trkpt><trkpt lat="45.11810280136096" lon="8.410077632303246"><ele>264.0</ele><time>2026-05-03T14:25:23Z</time></trkpt><trkpt lat="45.11819975799254" lon="8.410219447254603"><ele>264.5</ele><time>2026-05-03T14:25:24Z</time></trkpt><trkpt lat="45.118290479423585" lon="8.410380751866642"><ele>265.0</ele><time>2026-05-03T14:25:25Z</time></trkpt><trkpt lat="45.11839490194429" lon="8.410559162134916"><ele>262.66666666666663</ele><time>2026-05-03T14:25:26Z</time></trkpt><trkpt lat="45.118507601157646" lon="8.410749770119278"><ele>260.3333333333333</ele><time>2026-05-03T14:25:27Z</time></trkpt><trkpt lat="45.1186260731973" lon="8.410947235049278"><ele>258.0</ele><time>2026-05-03T14:25:28Z</time></trkpt><trkpt lat="45.1187573060978" lon="8.41114955929616"><ele>256.3333333333333</ele><time>2026-05-03T14:25:29Z</time></trkpt><trkpt lat="45.11886036331631" lon="8.411357901755595"><ele>254.66666666666666</ele><time>2026-05-03T14:25:30Z</time></trkpt><trkpt lat="45.11895974939934" lon="8.41155496376012"><ele>253.0</ele><time>2026-05-03T14:25:31Z</time></trkpt><trkpt lat="45.11906899091314" lon="8.41176473110019"><ele>256.3333333333333</ele><time>2026-05-03T14:25:32Z</time></trkpt><trkpt lat="45.11917259585517" lon="8.411965580444404"><ele>259.6666666666667</ele><time>2026-05-03T14:25:33Z</time></trkpt><trkpt lat="45.11927103561792" lon="8.412150882179516"><ele>263.0</ele><time>2026-05-03T14:25:34Z</time></trkpt><trkpt lat="45.11935415088631" lon="8.412335643998711"><ele>263.0</ele><time>2026-05-03T14:25:35Z</time></trkpt><trkpt lat="45.11942331462301" lon="8.412511035720247"><ele>263.0</ele><time>2026-05-03T14:25:36Z</time></trkpt><trkpt lat="45.11948019047465" lon="8.412677768868562"><ele>263.0</ele><time>2026-05-03T14:25:37Z</time></trkpt><trkpt lat="45.11953512466628" lon="8.41283534516387"><ele>263.0</ele><time>2026-05-03T14:25:38Z</time></trkpt><trkpt lat="45.11959075925357" lon="8.412991077390988"><ele>262.25</ele><time>2026-05-03T14:25:39Z</time></trkpt><trkpt lat="45.11964971150324" lon="8.413144345359338"><ele>261.5</ele><time>2026-05-03T14:25:40Z</time></trkpt><trkpt lat="45.119710243841425" lon="8.41331346909889"><ele>260.75</ele><time>2026-05-03T14:25:41Z</time></trkpt><trkpt lat="45.11975286345215" lon="8.413500250519037"><ele>260.0</ele><time>2026-05-03T14:25:42Z</time></trkpt><trkpt lat="45.119792854040774" lon="8.413702314530953"><ele>259.0</ele><time>2026-05-03T14:25:43Z</time></trkpt><trkpt lat="45.11984923973149" lon="8.413915032946928"><ele>258.0</ele><time>2026-05-03T14:25:44Z</time></trkpt><trkpt lat="45.1199140845756" lon="8.41415157058599"><ele>257.0</ele><time>2026-05-03T14:25:45Z</time></trkpt><trkpt lat="45.119963366779906" lon="8.414382311126795"><ele>258.6666666666667</ele><time>2026-05-03T14:25:45.999Z</time></trkpt><trkpt lat="45.11999655816792" lon="8.414602499578374"><ele>260.3333333333333</ele><time>2026-05-03T14:25:46.999Z</time></trkpt><trkpt lat="45.12003002477126" lon="8.414821722371258"><ele>262.0</ele><time>2026-05-03T14:25:47.999Z</time></trkpt><trkpt lat="45.120071911128086" lon="8.41504193520642"><ele>262.0</ele><time>2026-05-03T14:25:48.999Z</time></trkpt><trkpt lat="45.120100234798606" lon="8.415256376161995"><ele>262.0</ele><time>2026-05-03T14:25:49.999Z</time></trkpt><trkpt lat="45.12011944392841" lon="8.415485331852766"><ele>262.0</ele><time>2026-05-03T14:25:50.999Z</time></trkpt><trkpt lat="45.12011055082615" lon="8.415719407601875"><ele>260.0</ele><time>2026-05-03T14:25:51.999Z</time></trkpt><trkpt lat="45.120091114385595" lon="8.415964123870335"><ele>258.0</ele><time>2026-05-03T14:25:52.999Z</time></trkpt><trkpt lat="45.120081684955444" lon="8.416200979613757"><ele>256.0</ele><time>2026-05-03T14:25:53.999Z</time></trkpt><trkpt lat="45.12006715659486" lon="8.416465205191564"><ele>255.33333333333331</ele><time>2026-05-03T14:25:54.999Z</time></trkpt><trkpt lat="45.120046610356866" lon="8.416714485410782"><ele>254.66666666666669</ele><time>2026-05-03T14:25:55.999Z</time></trkpt><trkpt lat="45.12001877698703" lon="8.416937600368367"><ele>254.0</ele><time>2026-05-03T14:25:56.999Z</time></trkpt><trkpt lat="45.11999806271792" lon="8.41718416803381"><ele>254.0</ele><time>2026-05-03T14:25:57.999Z</time></trkpt><trkpt lat="45.11998107110341" lon="8.41744010915312"><ele>254.0</ele><time>2026-05-03T14:25:58.999Z</time></trkpt><trkpt lat="45.11995329237745" lon="8.417699868704966"><ele>254.0</ele><time>2026-05-03T14:25:59.999Z</time></trkpt><trkpt lat="45.119931921334775" lon="8.417973061968576"><ele>254.66666666666669</ele><time>2026-05-03T14:26:00.999Z</time></trkpt><trkpt lat="45.11990816372703" lon="8.41825026357393"><ele>255.33333333333331</ele><time>2026-05-03T14:26:01.999Z</time></trkpt><trkpt lat="45.11988156016052" lon="8.418505732883077"><ele>256.0</ele><time>2026-05-03T14:26:02.999Z</time></trkpt><trkpt lat="45.11985748837032" lon="8.418768024852707"><ele>251.66666666666666</ele><time>2026-05-03T14:26:03.999Z</time></trkpt><trkpt lat="45.11982246936607" lon="8.419024775542697"><ele>247.33333333333331</ele><time>2026-05-03T14:26:04.999Z</time></trkpt><trkpt lat="45.11979149494558" lon="8.419293110930884"><ele>243.0</ele><time>2026-05-03T14:26:05.999Z</time></trkpt><trkpt lat="45.119764536604464" lon="8.419566493995688"><ele>244.66666666666669</ele><time>2026-05-03T14:26:06.999Z</time></trkpt><trkpt lat="45.11973203071822" lon="8.41983440938077"><ele>246.33333333333334</ele><time>2026-05-03T14:26:07.999Z</time></trkpt><trkpt lat="45.11971135979178" lon="8.42009247045299"><ele>248.0</ele><time>2026-05-03T14:26:08.999Z</time></trkpt><trkpt lat="45.119690611548975" lon="8.420349844972321"><ele>248.0</ele><time>2026-05-03T14:26:09.999Z</time></trkpt><trkpt lat="45.119655811418575" lon="8.420615183555565"><ele>248.0</ele><time>2026-05-03T14:26:10.999Z</time></trkpt><trkpt lat="45.11962591539961" lon="8.42088710733147"><ele>248.0</ele><time>2026-05-03T14:26:11.999Z</time></trkpt><trkpt lat="45.11958746294566" lon="8.421148900083903"><ele>248.33333333333334</ele><time>2026-05-03T14:26:12.999Z</time></trkpt><trkpt lat="45.119572984781655" lon="8.421393354903458"><ele>248.66666666666669</ele><time>2026-05-03T14:26:13.999Z</time></trkpt><trkpt lat="45.11956559468921" lon="8.42161816434911"><ele>249.0</ele><time>2026-05-03T14:26:14.999Z</time></trkpt><trkpt lat="45.119555514401135" lon="8.421846032337852"><ele>249.0</ele><time>2026-05-03T14:26:15.999Z</time></trkpt><trkpt lat="45.11955780160592" lon="8.422044678984127"><ele>249.0</ele><time>2026-05-03T14:26:16.999Z</time></trkpt><trkpt lat="45.119580759910036" lon="8.422247316095419"><ele>249.0</ele><time>2026-05-03T14:26:17.999Z</time></trkpt><trkpt lat="45.119615733079875" lon="8.422430934290293"><ele>249.0</ele><time>2026-05-03T14:26:18.999Z</time></trkpt><trkpt lat="45.11966408948334" lon="8.422596614042128"><ele>249.0</ele><time>2026-05-03T14:26:19.999Z</time></trkpt><trkpt lat="45.119730326462474" lon="8.422725326608198"><ele>248.99999999999997</ele><time>2026-05-03T14:26:20.999Z</time></trkpt><trkpt lat="45.11979726146799" lon="8.422823060577748"><ele>248.99999999999997</ele><time>2026-05-03T14:26:21.999Z</time></trkpt><trkpt lat="45.119878766645996" lon="8.422918484999618"><ele>249.0</ele><time>2026-05-03T14:26:22.999Z</time></trkpt><trkpt lat="45.1199548722838" lon="8.423012116413563"><ele>249.0</ele><time>2026-05-03T14:26:23.999Z</time></trkpt><trkpt lat="45.12007317389744" lon="8.423061743256643"><ele>249.0</ele><time>2026-05-03T14:26:24.999Z</time></trkpt><trkpt lat="45.12019305386374" lon="8.423132898360132"><ele>249.0</ele><time>2026-05-03T14:26:25.999Z</time></trkpt><trkpt lat="45.12033391751008" lon="8.423180743744549"><ele>249.0</ele><time>2026-05-03T14:26:26.999Z</time></trkpt><trkpt lat="45.12043010496913" lon="8.423270769813707"><ele>249.0</ele><time>2026-05-03T14:26:27.999Z</time></trkpt><trkpt lat="45.120526198247795" lon="8.423365096782632"><ele>249.0</ele><time>2026-05-03T14:26:28.999Z</time></trkpt><trkpt lat="45.120638475700474" lon="8.423514121005168"><ele>249.0</ele><time>2026-05-03T14:26:29.999Z</time></trkpt><trkpt lat="45.12074626782413" lon="8.423669048841154"><ele>249.0</ele><time>2026-05-03T14:26:31Z</time></trkpt><trkpt lat="45.12085841314069" lon="8.423801456891988"><ele>247.5</ele><time>2026-05-03T14:26:32Z</time></trkpt><trkpt lat="45.120990238120115" lon="8.423915293346143"><ele>246.0</ele><time>2026-05-03T14:26:33Z</time></trkpt><trkpt lat="45.121112961329466" lon="8.424022456514074"><ele>244.5</ele><time>2026-05-03T14:26:34Z</time></trkpt><trkpt lat="45.12122092654642" lon="8.424120515131776"><ele>243.0</ele><time>2026-05-03T14:26:35Z</time></trkpt><trkpt lat="45.12133572887966" lon="8.424224445095657"><ele>243.0</ele><time>2026-05-03T14:26:36Z</time></trkpt><trkpt lat="45.121449511464355" lon="8.424326073036504"><ele>243.0</ele><time>2026-05-03T14:26:37Z</time></trkpt><trkpt lat="45.121567560926856" lon="8.424432016823658"><ele>243.0</ele><time>2026-05-03T14:26:38Z</time></trkpt><trkpt lat="45.121684744373844" lon="8.42452388400207"><ele>243.0</ele><time>2026-05-03T14:26:39Z</time></trkpt><trkpt lat="45.12178345983526" lon="8.424616595464444"><ele>241.25</ele><time>2026-05-03T14:26:40Z</time></trkpt><trkpt lat="45.121889835989215" lon="8.424696333074687"><ele>239.5</ele><time>2026-05-03T14:26:41Z</time></trkpt><trkpt lat="45.12199065039252" lon="8.424800473011313"><ele>237.75</ele><time>2026-05-03T14:26:42Z</time></trkpt><trkpt lat="45.12208254530876" lon="8.424896558165228"><ele>236.0</ele><time>2026-05-03T14:26:43Z</time></trkpt><trkpt lat="45.122193353680416" lon="8.42496131641403"><ele>236.0</ele><time>2026-05-03T14:26:44Z</time></trkpt><trkpt lat="45.122293712917134" lon="8.425055971734293"><ele>236.0</ele><time>2026-05-03T14:26:45Z</time></trkpt><trkpt lat="45.12241015498312" lon="8.42515917417207"><ele>236.0</ele><time>2026-05-03T14:26:46Z</time></trkpt><trkpt lat="45.12252438839553" lon="8.425255978859473"><ele>236.0</ele><time>2026-05-03T14:26:47Z</time></trkpt><trkpt lat="45.12262564345766" lon="8.425353490044035"><ele>235.25</ele><time>2026-05-03T14:26:48Z</time></trkpt><trkpt lat="45.12271845967187" lon="8.42544946340093"><ele>234.5</ele><time>2026-05-03T14:26:49Z</time></trkpt><trkpt lat="45.12282386956221" lon="8.425531673179561"><ele>233.75</ele><time>2026-05-03T14:26:50Z</time></trkpt><trkpt lat="45.122917272940775" lon="8.4256216694561"><ele>233.0</ele><time>2026-05-03T14:26:51Z</time></trkpt><trkpt lat="45.123022360072454" lon="8.425707196293454"><ele>232.75</ele><time>2026-05-03T14:26:52Z</time></trkpt><trkpt lat="45.12312346143463" lon="8.425822014127053"><ele>232.5</ele><time>2026-05-03T14:26:53Z</time></trkpt><trkpt lat="45.12322335875563" lon="8.425956443571591"><ele>232.25</ele><time>2026-05-03T14:26:54Z</time></trkpt><trkpt lat="45.12327999306381" lon="8.426114192195678"><ele>232.0</ele><time>2026-05-03T14:26:55Z</time></trkpt><trkpt lat="45.123335345842236" lon="8.426262919984689"><ele>231.8</ele><time>2026-05-03T14:26:56Z</time></trkpt><trkpt lat="45.123382206914584" lon="8.426404010122182"><ele>231.6</ele><time>2026-05-03T14:26:57Z</time></trkpt><trkpt lat="45.12342196381307" lon="8.426549542048294"><ele>231.40000000000003</ele><time>2026-05-03T14:26:58Z</time></trkpt><trkpt lat="45.1234530776172" lon="8.426698757431435"><ele>231.20000000000002</ele><time>2026-05-03T14:26:59Z</time></trkpt><trkpt lat="45.123487815697" lon="8.426843746175662"><ele>231.0</ele><time>2026-05-03T14:27:00Z</time></trkpt><trkpt lat="45.123509982031464" lon="8.42698910760954"><ele>231.0</ele><time>2026-05-03T14:27:01Z</time></trkpt><trkpt lat="45.123537467198524" lon="8.427117947710084"><ele>231.00000000000003</ele><time>2026-05-03T14:27:02Z</time></trkpt><trkpt lat="45.12356688252707" lon="8.42724560147312"><ele>231.00000000000003</ele><time>2026-05-03T14:27:03Z</time></trkpt><trkpt lat="45.12358898148403" lon="8.427382505169264"><ele>231.0</ele><time>2026-05-03T14:27:04Z</time></trkpt><trkpt lat="45.12361300107351" lon="8.427518867274257"><ele>231.0</ele><time>2026-05-03T14:27:05Z</time></trkpt><trkpt lat="45.12364760765466" lon="8.427652127523686"><ele>230.60000000000002</ele><time>2026-05-03T14:27:06Z</time></trkpt><trkpt lat="45.1236690369375" lon="8.427796002497377"><ele>230.20000000000002</ele><time>2026-05-03T14:27:07Z</time></trkpt><trkpt lat="45.123695827863735" lon="8.42793493719929"><ele>229.79999999999998</ele><time>2026-05-03T14:27:08Z</time></trkpt><trkpt lat="45.12372795225224" lon="8.428068201826157"><ele>229.39999999999998</ele><time>2026-05-03T14:27:09Z</time></trkpt><trkpt lat="45.12375779833363" lon="8.428198143598406"><ele>229.0</ele><time>2026-05-03T14:27:10Z</time></trkpt><trkpt lat="45.12379318851609" lon="8.428329362770482"><ele>228.49999999999997</ele><time>2026-05-03T14:27:11Z</time></trkpt><trkpt lat="45.123819391491566" lon="8.428468511716263"><ele>228.0</ele><time>2026-05-03T14:27:12Z</time></trkpt><trkpt lat="45.12384532777639" lon="8.428602260273223"><ele>227.5</ele><time>2026-05-03T14:27:13Z</time></trkpt><trkpt lat="45.12387313206614" lon="8.428731422701752"><ele>227.0</ele><time>2026-05-03T14:27:14Z</time></trkpt><trkpt lat="45.12390365575256" lon="8.428849446075846"><ele>226.49999999999997</ele><time>2026-05-03T14:27:15Z</time></trkpt><trkpt lat="45.12391828649463" lon="8.428938502615207"><ele>226.0</ele><time>2026-05-03T14:27:16Z</time></trkpt><trkpt lat="45.123940214840935" lon="8.429026678710514"><ele>225.20000000000002</ele><time>2026-05-03T14:27:17Z</time></trkpt><trkpt lat="45.12397663239626" lon="8.429196855107733"><ele>224.40000000000003</ele><time>2026-05-03T14:27:19Z</time></trkpt><trkpt lat="45.1239944437191" lon="8.429303964305547"><ele>223.6</ele><time>2026-05-03T14:27:20Z</time></trkpt><trkpt lat="45.12402108600908" lon="8.429437605672879"><ele>222.8</ele><time>2026-05-03T14:27:21Z</time></trkpt><trkpt lat="45.12404788355815" lon="8.429571244787608"><ele>222.0</ele><time>2026-05-03T14:27:22Z</time></trkpt><trkpt lat="45.12408152961861" lon="8.4297294171313"><ele>220.0</ele><time>2026-05-03T14:27:23Z</time></trkpt><trkpt lat="45.12411549946639" lon="8.429895092809378"><ele>218.0</ele><time>2026-05-03T14:27:24Z</time></trkpt><trkpt lat="45.12415104436177" lon="8.43006639299226"><ele>216.0</ele><time>2026-05-03T14:27:25Z</time></trkpt><trkpt lat="45.12418153018501" lon="8.43026188114475"><ele>214.0</ele><time>2026-05-03T14:27:26Z</time></trkpt><trkpt lat="45.124236944769066" lon="8.43046816407163"><ele>213.5</ele><time>2026-05-03T14:27:27Z</time></trkpt><trkpt lat="45.12427819414028" lon="8.430676795937021"><ele>213.0</ele><time>2026-05-03T14:27:28Z</time></trkpt><trkpt lat="45.124318330799326" lon="8.430873597784114"><ele>212.5</ele><time>2026-05-03T14:27:29Z</time></trkpt><trkpt lat="45.12436412307527" lon="8.431052128639417"><ele>212.0</ele><time>2026-05-03T14:27:30Z</time></trkpt><trkpt lat="45.12439730197465" lon="8.431234148615948"><ele>210.75</ele><time>2026-05-03T14:27:31Z</time></trkpt><trkpt lat="45.12444008397164" lon="8.431412642442405"><ele>209.5</ele><time>2026-05-03T14:27:32Z</time></trkpt><trkpt lat="45.12447662679318" lon="8.431595635056686"><ele>208.25</ele><time>2026-05-03T14:27:33Z</time></trkpt><trkpt lat="45.12451263035244" lon="8.431784670361163"><ele>207.0</ele><time>2026-05-03T14:27:34Z</time></trkpt><trkpt lat="45.12455672034161" lon="8.431969624710687"><ele>205.75</ele><time>2026-05-03T14:27:35Z</time></trkpt><trkpt lat="45.124590083451096" lon="8.432148600514127"><ele>204.5</ele><time>2026-05-03T14:27:36Z</time></trkpt><trkpt lat="45.12461896653589" lon="8.432343149795502"><ele>203.25</ele><time>2026-05-03T14:27:37Z</time></trkpt><trkpt lat="45.12464712569998" lon="8.432540462109385"><ele>202.0</ele><time>2026-05-03T14:27:38Z</time></trkpt><trkpt lat="45.12467635154634" lon="8.432736469972413"><ele>202.0</ele><time>2026-05-03T14:27:39Z</time></trkpt><trkpt lat="45.124711161633684" lon="8.432931544438592"><ele>202.0</ele><time>2026-05-03T14:27:40Z</time></trkpt><trkpt lat="45.12472910344052" lon="8.433135808878962"><ele>202.0</ele><time>2026-05-03T14:27:41Z</time></trkpt><trkpt lat="45.12474406551127" lon="8.433334934366648"><ele>202.0</ele><time>2026-05-03T14:27:41.999Z</time></trkpt><trkpt lat="45.12478860708062" lon="8.433533415384979"><ele>202.75</ele><time>2026-05-03T14:27:42.999Z</time></trkpt><trkpt lat="45.12484881317626" lon="8.433728112581605"><ele>203.5</ele><time>2026-05-03T14:27:43.999Z</time></trkpt><trkpt lat="45.12490306372589" lon="8.433927001932657"><ele>204.25</ele><time>2026-05-03T14:27:44.999Z</time></trkpt><trkpt lat="45.12494163819948" lon="8.434114086272249"><ele>205.0</ele><time>2026-05-03T14:27:45.999Z</time></trkpt><trkpt lat="45.12497425035881" lon="8.434331912526202"><ele>205.0</ele><time>2026-05-03T14:27:46.999Z</time></trkpt><trkpt lat="45.12502592455308" lon="8.434491069511862"><ele>205.0</ele><time>2026-05-03T14:27:47.999Z</time></trkpt><trkpt lat="45.12507167500012" lon="8.434676632913026"><ele>205.0</ele><time>2026-05-03T14:27:48.999Z</time></trkpt><trkpt lat="45.12512243114494" lon="8.43487681172178"><ele>205.0</ele><time>2026-05-03T14:27:49.999Z</time></trkpt><trkpt lat="45.12518223990282" lon="8.435077744884747"><ele>203.66666666666666</ele><time>2026-05-03T14:27:50.999Z</time></trkpt><trkpt lat="45.125229458560064" lon="8.435278178335672"><ele>202.33333333333331</ele><time>2026-05-03T14:27:51.999Z</time></trkpt><trkpt lat="45.12527453285506" lon="8.435484190330607"><ele>201.0</ele><time>2026-05-03T14:27:52.999Z</time></trkpt><trkpt lat="45.12532212301585" lon="8.435696114569286"><ele>199.75</ele><time>2026-05-03T14:27:53.999Z</time></trkpt><trkpt lat="45.12537077409732" lon="8.435900135446309"><ele>198.5</ele><time>2026-05-03T14:27:54.999Z</time></trkpt><trkpt lat="45.12541280440562" lon="8.436085827439157"><ele>197.25</ele><time>2026-05-03T14:27:55.999Z</time></trkpt><trkpt lat="45.12546024821086" lon="8.436266419122221"><ele>196.0</ele><time>2026-05-03T14:27:56.999Z</time></trkpt><trkpt lat="45.12550104027316" lon="8.436452109284446"><ele>195.0</ele><time>2026-05-03T14:27:57.999Z</time></trkpt><trkpt lat="45.12556010899899" lon="8.43663629610077"><ele>194.0</ele><time>2026-05-03T14:27:58.999Z</time></trkpt><trkpt lat="45.12559710072202" lon="8.436815394046823"><ele>193.0</ele><time>2026-05-03T14:27:59.999Z</time></trkpt><trkpt lat="45.12563668884014" lon="8.43699309591034"><ele>192.0</ele><time>2026-05-03T14:28:00.999Z</time></trkpt><trkpt lat="45.12567417455102" lon="8.437188009098492"><ele>193.0</ele><time>2026-05-03T14:28:01.999Z</time></trkpt><trkpt lat="45.125725678027194" lon="8.437398434595162"><ele>194.0</ele><time>2026-05-03T14:28:02.999Z</time></trkpt><trkpt lat="45.1257823130006" lon="8.437603598493565"><ele>195.0</ele><time>2026-05-03T14:28:03.999Z</time></trkpt><trkpt lat="45.12583721950214" lon="8.437791928559827"><ele>193.33333333333334</ele><time>2026-05-03T14:28:04.999Z</time></trkpt><trkpt lat="45.12585404789147" lon="8.438033828599902"><ele>191.66666666666669</ele><time>2026-05-03T14:28:05.999Z</time></trkpt><trkpt lat="45.12588511013897" lon="8.438237286461332"><ele>190.0</ele><time>2026-05-03T14:28:06.999Z</time></trkpt><trkpt lat="45.125976236462996" lon="8.438470759078614"><ele>190.0</ele><time>2026-05-03T14:28:07.999Z</time></trkpt><trkpt lat="45.126027258846875" lon="8.438680873444332"><ele>190.0</ele><time>2026-05-03T14:28:08.999Z</time></trkpt><trkpt lat="45.126071749224884" lon="8.438866240348617"><ele>190.0</ele><time>2026-05-03T14:28:09.999Z</time></trkpt><trkpt lat="45.12615375249054" lon="8.439080805362973"><ele>188.75</ele><time>2026-05-03T14:28:10.999Z</time></trkpt><trkpt lat="45.12619244752568" lon="8.439275732535389"><ele>187.5</ele><time>2026-05-03T14:28:11.999Z</time></trkpt><trkpt lat="45.12622397446858" lon="8.43945774005068"><ele>186.25</ele><time>2026-05-03T14:28:12.999Z</time></trkpt><trkpt lat="45.12627519224497" lon="8.439671275178755"><ele>185.0</ele><time>2026-05-03T14:28:13.999Z</time></trkpt><trkpt lat="45.12631433638464" lon="8.439833185116205"><ele>182.75</ele><time>2026-05-03T14:28:14.999Z</time></trkpt><trkpt lat="45.1263753786658" lon="8.439977725562386"><ele>180.5</ele><time>2026-05-03T14:28:15.999Z</time></trkpt><trkpt lat="45.126457371811824" lon="8.440115887489661"><ele>178.25</ele><time>2026-05-03T14:28:16.999Z</time></trkpt><trkpt lat="45.126574203366076" lon="8.44021579369315"><ele>176.0</ele><time>2026-05-03T14:28:17.999Z</time></trkpt><trkpt lat="45.12668950311941" lon="8.440315356351741"><ele>172.75</ele><time>2026-05-03T14:28:18.999Z</time></trkpt><trkpt lat="45.12679668673704" lon="8.440474518909205"><ele>169.5</ele><time>2026-05-03T14:28:19.999Z</time></trkpt><trkpt lat="45.12693647068391" lon="8.440495485379099"><ele>166.25</ele><time>2026-05-03T14:28:20.999Z</time></trkpt><trkpt lat="45.12705329814901" lon="8.440568284654866"><ele>163.0</ele><time>2026-05-03T14:28:21.999Z</time></trkpt><trkpt lat="45.12719301871399" lon="8.440658317585306"><ele>163.0</ele><time>2026-05-03T14:28:22.999Z</time></trkpt><trkpt lat="45.127331359647556" lon="8.440722536145836"><ele>163.0</ele><time>2026-05-03T14:28:23.999Z</time></trkpt><trkpt lat="45.12745735913138" lon="8.440825159362305"><ele>163.0</ele><time>2026-05-03T14:28:24.999Z</time></trkpt><trkpt lat="45.127593891983864" lon="8.440901114322443"><ele>163.0</ele><time>2026-05-03T14:28:25.999Z</time></trkpt><trkpt lat="45.127717066211936" lon="8.440984691440415"><ele>163.5</ele><time>2026-05-03T14:28:26.999Z</time></trkpt><trkpt lat="45.12784567866657" lon="8.441071648869869"><ele>164.0</ele><time>2026-05-03T14:28:27.999Z</time></trkpt><trkpt lat="45.12798897815732" lon="8.44116447670849"><ele>164.5</ele><time>2026-05-03T14:28:28.999Z</time></trkpt><trkpt lat="45.12812271943152" lon="8.441256633113053"><ele>165.0</ele><time>2026-05-03T14:28:29.999Z</time></trkpt><trkpt lat="45.12824893131934" lon="8.441346013135082"><ele>161.33333333333334</ele><time>2026-05-03T14:28:30.999Z</time></trkpt><trkpt lat="45.12838365981217" lon="8.441432285247535"><ele>157.66666666666669</ele><time>2026-05-03T14:28:31.999Z</time></trkpt><trkpt lat="45.12852783203478" lon="8.44146723682227"><ele>154.0</ele><time>2026-05-03T14:28:32.999Z</time></trkpt><trkpt lat="45.12866156751377" lon="8.441579520488736"><ele>154.0</ele><time>2026-05-03T14:28:33.999Z</time></trkpt><trkpt lat="45.1288091300656" lon="8.44167459504026"><ele>154.0</ele><time>2026-05-03T14:28:34.999Z</time></trkpt><trkpt lat="45.1289264837463" lon="8.441792029022448"><ele>154.0</ele><time>2026-05-03T14:28:35.999Z</time></trkpt><trkpt lat="45.129061725927464" lon="8.44185562270836"><ele>154.0</ele><time>2026-05-03T14:28:37Z</time></trkpt><trkpt lat="45.12918698948678" lon="8.441960229847995"><ele>152.33333333333334</ele><time>2026-05-03T14:28:38Z</time></trkpt><trkpt lat="45.12933566930629" lon="8.442052298366608"><ele>150.66666666666666</ele><time>2026-05-03T14:28:39Z</time></trkpt><trkpt lat="45.129479515968754" lon="8.442133960634077"><ele>149.0</ele><time>2026-05-03T14:28:40Z</time></trkpt><trkpt lat="45.12962020194356" lon="8.442218012199467"><ele>147.0</ele><time>2026-05-03T14:28:41Z</time></trkpt><trkpt lat="45.12976237856089" lon="8.442307526545594"><ele>145.0</ele><time>2026-05-03T14:28:42Z</time></trkpt><trkpt lat="45.12989157972891" lon="8.442393026763623"><ele>143.0</ele><time>2026-05-03T14:28:43Z</time></trkpt><trkpt lat="45.13001658119514" lon="8.442479009456212"><ele>141.0</ele><time>2026-05-03T14:28:44Z</time></trkpt><trkpt lat="45.13013484946123" lon="8.442549200307152"><ele>140.0</ele><time>2026-05-03T14:28:45Z</time></trkpt><trkpt lat="45.13026056741074" lon="8.442628550534184"><ele>139.0</ele><time>2026-05-03T14:28:46Z</time></trkpt><trkpt lat="45.13038936618359" lon="8.442707194063795"><ele>138.0</ele><time>2026-05-03T14:28:47Z</time></trkpt><trkpt lat="45.13049354885006" lon="8.44278141258772"><ele>137.0</ele><time>2026-05-03T14:28:48Z</time></trkpt><trkpt lat="45.13059409591885" lon="8.442855071891652"><ele>137.0</ele><time>2026-05-03T14:28:49Z</time></trkpt><trkpt lat="45.130713918969604" lon="8.442914754589193"><ele>137.0</ele><time>2026-05-03T14:28:50Z</time></trkpt><trkpt lat="45.13079717135211" lon="8.442967134910056"><ele>137.0</ele><time>2026-05-03T14:28:51Z</time></trkpt><trkpt lat="45.13087738085749" lon="8.443057933148683"><ele>137.0</ele><time>2026-05-03T14:28:52Z</time></trkpt><trkpt lat="45.13095747942663" lon="8.443099592985192"><ele>137.0</ele><time>2026-05-03T14:28:53Z</time></trkpt><trkpt lat="45.13104951905509" lon="8.443157342736756"><ele>135.4</ele><time>2026-05-03T14:28:54Z</time></trkpt><trkpt lat="45.13115456074914" lon="8.443205693171883"><ele>133.79999999999998</ele><time>2026-05-03T14:28:55Z</time></trkpt><trkpt lat="45.131229861439586" lon="8.44326858122869"><ele>132.2</ele><time>2026-05-03T14:28:56Z</time></trkpt><trkpt lat="45.1313297386617" lon="8.443319092386186"><ele>130.6</ele><time>2026-05-03T14:28:57Z</time></trkpt><trkpt lat="45.13139813065331" lon="8.443378864809706"><ele>129.0</ele><time>2026-05-03T14:28:58Z</time></trkpt><trkpt lat="45.131478858822945" lon="8.443435462683153"><ele>128.2</ele><time>2026-05-03T14:28:59Z</time></trkpt><trkpt lat="45.1315661572073" lon="8.443508609046045"><ele>127.4</ele><time>2026-05-03T14:29:00Z</time></trkpt><trkpt lat="45.13166535531964" lon="8.44356877638762"><ele>126.6</ele><time>2026-05-03T14:29:01Z</time></trkpt><trkpt lat="45.13175103698635" lon="8.443627483771179"><ele>125.8</ele><time>2026-05-03T14:29:02Z</time></trkpt><trkpt lat="45.13184740714062" lon="8.443684782745436"><ele>125.0</ele><time>2026-05-03T14:29:03Z</time></trkpt><trkpt lat="45.131929388652146" lon="8.443745908845276"><ele>124.6</ele><time>2026-05-03T14:29:04Z</time></trkpt><trkpt lat="45.132001449372474" lon="8.44380779578117"><ele>124.2</ele><time>2026-05-03T14:29:05Z</time></trkpt><trkpt lat="45.13208386864641" lon="8.443874955942695"><ele>123.80000000000001</ele><time>2026-05-03T14:29:06Z</time></trkpt><trkpt lat="45.13216888269727" lon="8.443931879542658"><ele>123.4</ele><time>2026-05-03T14:29:07Z</time></trkpt><trkpt lat="45.13226352946294" lon="8.44399428672375"><ele>123.0</ele><time>2026-05-03T14:29:08Z</time></trkpt><trkpt lat="45.13237388076919" lon="8.444050203151694"><ele>123.0</ele><time>2026-05-03T14:29:09Z</time></trkpt><trkpt lat="45.13245717595713" lon="8.444106337834429"><ele>123.0</ele><time>2026-05-03T14:29:10Z</time></trkpt><trkpt lat="45.132539444910165" lon="8.444161438065315"><ele>123.0</ele><time>2026-05-03T14:29:11Z</time></trkpt><trkpt lat="45.13262424588545" lon="8.444230781320865"><ele>123.0</ele><time>2026-05-03T14:29:12Z</time></trkpt><trkpt lat="45.13270320474141" lon="8.444271590024314"><ele>123.0</ele><time>2026-05-03T14:29:13Z</time></trkpt><trkpt lat="45.13276014664007" lon="8.444310288401272"><ele>123.0</ele><time>2026-05-03T14:29:14Z</time></trkpt><trkpt lat="45.132815779340284" lon="8.444359349667794"><ele>123.0</ele><time>2026-05-03T14:29:15Z</time></trkpt><trkpt lat="45.132880459714734" lon="8.444372828264017"><ele>123.0</ele><time>2026-05-03T14:29:16Z</time></trkpt><trkpt lat="45.13298853257292" lon="8.444398343030201"><ele>123.0</ele><time>2026-05-03T14:29:18Z</time></trkpt><trkpt lat="45.13306310735847" lon="8.444414015339822"><ele>123.0</ele><time>2026-05-03T14:29:21Z</time></trkpt><trkpt lat="45.133126037112916" lon="8.444443474638124"><ele>123.0</ele><time>2026-05-03T14:29:23Z</time></trkpt><trkpt lat="45.13311163124814" lon="8.44461218369347"><ele>123.0</ele><time>2026-05-03T14:29:24Z</time></trkpt><trkpt lat="45.133043278210664" lon="8.444758428989132"><ele>122.4</ele><time>2026-05-03T14:29:26Z</time></trkpt><trkpt lat="45.13295688172496" lon="8.444829710527149"><ele>121.80000000000001</ele><time>2026-05-03T14:29:27Z</time></trkpt><trkpt lat="45.132887526536344" lon="8.444932623504986"><ele>121.2</ele><time>2026-05-03T14:29:28Z</time></trkpt><trkpt lat="45.132813536462685" lon="8.445042273499872"><ele>120.6</ele><time>2026-05-03T14:29:29Z</time></trkpt><trkpt lat="45.13274629544098" lon="8.445158525916113"><ele>120.0</ele><time>2026-05-03T14:29:30Z</time></trkpt><trkpt lat="45.13267684327101" lon="8.445274297454201"><ele>120.0</ele><time>2026-05-03T14:29:31Z</time></trkpt><trkpt lat="45.132588864909884" lon="8.445387410967697"><ele>120.0</ele><time>2026-05-03T14:29:32Z</time></trkpt><trkpt lat="45.13250999243903" lon="8.445499103998358"><ele>120.0</ele><time>2026-05-03T14:29:33Z</time></trkpt><trkpt lat="45.13243350098732" lon="8.445613301178758"><ele>120.0</ele><time>2026-05-03T14:29:34Z</time></trkpt><trkpt lat="45.13235729160223" lon="8.445721355307878"><ele>120.0</ele><time>2026-05-03T14:29:35Z</time></trkpt><trkpt lat="45.13228747989993" lon="8.445838031309545"><ele>119.2</ele><time>2026-05-03T14:29:36Z</time></trkpt><trkpt lat="45.13221714996869" lon="8.445947998745341"><ele>118.4</ele><time>2026-05-03T14:29:37Z</time></trkpt><trkpt lat="45.13215621911331" lon="8.446045235061499"><ele>117.6</ele><time>2026-05-03T14:29:38Z</time></trkpt><trkpt lat="45.132089239509696" lon="8.44614920077662"><ele>116.8</ele><time>2026-05-03T14:29:39Z</time></trkpt><trkpt lat="45.13201784642767" lon="8.446242126474639"><ele>116.0</ele><time>2026-05-03T14:29:40Z</time></trkpt><trkpt lat="45.131940929278386" lon="8.446331908933235"><ele>116.0</ele><time>2026-05-03T14:29:41Z</time></trkpt><trkpt lat="45.13187539971814" lon="8.446404007710019"><ele>116.0</ele><time>2026-05-03T14:29:42Z</time></trkpt><trkpt lat="45.13179676408593" lon="8.446521539052041"><ele>116.0</ele><time>2026-05-03T14:29:43Z</time></trkpt><trkpt lat="45.13171979874477" lon="8.446647202360118"><ele>116.0</ele><time>2026-05-03T14:29:44Z</time></trkpt><trkpt lat="45.13164267219562" lon="8.446781536737172"><ele>116.0</ele><time>2026-05-03T14:29:45Z</time></trkpt><trkpt lat="45.13156429155712" lon="8.446912944489306"><ele>116.25</ele><time>2026-05-03T14:29:46Z</time></trkpt><trkpt lat="45.131478587097234" lon="8.447038616527728"><ele>116.5</ele><time>2026-05-03T14:29:47Z</time></trkpt><trkpt lat="45.13139701373571" lon="8.447166458127464"><ele>116.75</ele><time>2026-05-03T14:29:48Z</time></trkpt><trkpt lat="45.131312207259654" lon="8.447287348737397"><ele>117.0</ele><time>2026-05-03T14:29:49Z</time></trkpt><trkpt lat="45.13123344572523" lon="8.447400241811648"><ele>117.0</ele><time>2026-05-03T14:29:50Z</time></trkpt><trkpt lat="45.131157105569855" lon="8.447521758732046"><ele>116.99999999999999</ele><time>2026-05-03T14:29:51Z</time></trkpt><trkpt lat="45.13108462310694" lon="8.447604810381971"><ele>116.99999999999999</ele><time>2026-05-03T14:29:52Z</time></trkpt><trkpt lat="45.13101475398856" lon="8.447703174486442"><ele>117.0</ele><time>2026-05-03T14:29:53Z</time></trkpt><trkpt lat="45.13094442123357" lon="8.447787440753924"><ele>117.0</ele><time>2026-05-03T14:29:54Z</time></trkpt><trkpt lat="45.13087491096271" lon="8.447872463627693"><ele>117.0</ele><time>2026-05-03T14:29:55Z</time></trkpt><trkpt lat="45.13082240728688" lon="8.447956064791713"><ele>116.99999999999999</ele><time>2026-05-03T14:29:55.999Z</time></trkpt><trkpt lat="45.13076653577529" lon="8.448037058528632"><ele>116.99999999999999</ele><time>2026-05-03T14:29:56.999Z</time></trkpt><trkpt lat="45.13069807294386" lon="8.448207262154972"><ele>117.0</ele><time>2026-05-03T14:29:58.999Z</time></trkpt><trkpt lat="45.1306414939321" lon="8.448391046204677"><ele>117.0</ele><time>2026-05-03T14:30:00.999Z</time></trkpt><trkpt lat="45.130583459537114" lon="8.448497273823136"><ele>117.39999999999999</ele><time>2026-05-03T14:30:02.999Z</time></trkpt><trkpt lat="45.13052212746253" lon="8.448546232344638"><ele>117.79999999999998</ele><time>2026-05-03T14:30:05.999Z</time></trkpt><trkpt lat="45.13047037038872" lon="8.44861886600388"><ele>118.2</ele><time>2026-05-03T14:30:08.999Z</time></trkpt><trkpt lat="45.13038575308292" lon="8.448718574095993"><ele>118.6</ele><time>2026-05-03T14:30:10.999Z</time></trkpt><trkpt lat="45.130293434360496" lon="8.448867578063638"><ele>119.0</ele><time>2026-05-03T14:30:12.999Z</time></trkpt><trkpt lat="45.13025755682694" lon="8.448959140777438"><ele>118.99999999999999</ele><time>2026-05-03T14:30:13.999Z</time></trkpt><trkpt lat="45.130236540547216" lon="8.449060063252727"><ele>119.0</ele><time>2026-05-03T14:30:14.999Z</time></trkpt><trkpt lat="45.13021063660904" lon="8.44914438039846"><ele>119.0</ele><time>2026-05-03T14:30:15.999Z</time></trkpt><trkpt lat="45.130147176997895" lon="8.449229559680893"><ele>119.0</ele><time>2026-05-03T14:30:16.999Z</time></trkpt><trkpt lat="45.13008531009273" lon="8.449300580903632"><ele>118.99999999999999</ele><time>2026-05-03T14:30:17.999Z</time></trkpt><trkpt lat="45.13001748461675" lon="8.449378932501078"><ele>119.0</ele><time>2026-05-03T14:30:18.999Z</time></trkpt><trkpt lat="45.12994451852353" lon="8.449466632142009"><ele>119.0</ele><time>2026-05-03T14:30:19.999Z</time></trkpt><trkpt lat="45.12988165968338" lon="8.44954732785437"><ele>119.0</ele><time>2026-05-03T14:30:20.999Z</time></trkpt><trkpt lat="45.12981605212105" lon="8.449635039313431"><ele>119.0</ele><time>2026-05-03T14:30:21.999Z</time></trkpt><trkpt lat="45.129750093986694" lon="8.449734005520414"><ele>119.0</ele><time>2026-05-03T14:30:22.999Z</time></trkpt><trkpt lat="45.12968232318092" lon="8.44983127432605"><ele>119.0</ele><time>2026-05-03T14:30:23.999Z</time></trkpt><trkpt lat="45.12960160127479" lon="8.449909155446226"><ele>118.83333333333333</ele><time>2026-05-03T14:30:24.999Z</time></trkpt><trkpt lat="45.12953070065088" lon="8.449993919250442"><ele>118.66666666666666</ele><time>2026-05-03T14:30:25.999Z</time></trkpt><trkpt lat="45.12946594150741" lon="8.450087086135513"><ele>118.5</ele><time>2026-05-03T14:30:26.999Z</time></trkpt><trkpt lat="45.12941051884947" lon="8.45014103139845"><ele>118.33333333333334</ele><time>2026-05-03T14:30:27.999Z</time></trkpt><trkpt lat="45.12935527108025" lon="8.450221741134346"><ele>118.16666666666667</ele><time>2026-05-03T14:30:28.999Z</time></trkpt><trkpt lat="45.12932795419671" lon="8.450323331134225"><ele>118.0</ele><time>2026-05-03T14:30:31.999Z</time></trkpt><trkpt lat="45.129294380704714" lon="8.450402580716572"><ele>117.83333333333334</ele><time>2026-05-03T14:30:34.999Z</time></trkpt><trkpt lat="45.12924862098144" lon="8.450506660626871"><ele>117.66666666666667</ele><time>2026-05-03T14:30:36.999Z</time></trkpt><trkpt lat="45.129163394721324" lon="8.450604943511829"><ele>117.5</ele><time>2026-05-03T14:30:38.999Z</time></trkpt><trkpt lat="45.12911338474421" lon="8.450660192593023"><ele>117.33333333333334</ele><time>2026-05-03T14:30:39.999Z</time></trkpt><trkpt lat="45.129057580133725" lon="8.45070985063144"><ele>117.16666666666667</ele><time>2026-05-03T14:30:40.999Z</time></trkpt><trkpt lat="45.128983503615" lon="8.450732362447157"><ele>117.0</ele><time>2026-05-03T14:30:41.999Z</time></trkpt><trkpt lat="45.12889457838378" lon="8.450729923384825"><ele>117.0</ele><time>2026-05-03T14:30:43Z</time></trkpt><trkpt lat="45.12880871207981" lon="8.450714271548792"><ele>117.0</ele><time>2026-05-03T14:30:44Z</time></trkpt><trkpt lat="45.12872600107573" lon="8.450717935827118"><ele>117.0</ele><time>2026-05-03T14:30:45Z</time></trkpt><trkpt lat="45.128645488346685" lon="8.450679874083981"><ele>117.0</ele><time>2026-05-03T14:30:47Z</time></trkpt><trkpt lat="45.12861073264607" lon="8.450756056660246"><ele>117.0</ele><time>2026-05-03T14:30:50Z</time></trkpt><trkpt lat="45.128567116096804" lon="8.450683200912641"><ele>117.0</ele><time>2026-05-03T14:31:05Z</time></trkpt><trkpt lat="45.12853315796547" lon="8.450595492703311"><ele>117.0</ele><time>2026-05-03T14:35:27.015Z</time></trkpt><trkpt lat="45.12841130145372" lon="8.450441909961821"><ele>117.0</ele><time>2026-05-03T14:35:31Z</time></trkpt><trkpt lat="45.12852554169497" lon="8.450560222703036"><ele>117.0</ele><time>2026-05-03T14:35:36Z</time></trkpt><trkpt lat="45.12848722720318" lon="8.450641911718893"><ele>117.0</ele><time>2026-05-03T14:46:45.999Z</time></trkpt><trkpt lat="45.12835673263287" lon="8.450716244602306"><ele>117.0</ele><time>2026-05-03T14:46:59.999Z</time></trkpt><trkpt lat="45.12828794167792" lon="8.450738269072744"><ele>117.0</ele><time>2026-05-03T14:47:00.999Z</time></trkpt><trkpt lat="45.12816654486374" lon="8.450760459885986"><ele>117.0</ele><time>2026-05-03T14:47:02.999Z</time></trkpt><trkpt lat="45.12809814546728" lon="8.450758879484296"><ele>117.0</ele><time>2026-05-03T14:47:03.999Z</time></trkpt><trkpt lat="45.128025538636216" lon="8.450766216210477"><ele>117.0</ele><time>2026-05-03T14:47:04.999Z</time></trkpt><trkpt lat="45.12794373875634" lon="8.450794663718034"><ele>117.0</ele><time>2026-05-03T14:47:05.999Z</time></trkpt><trkpt lat="45.12786200388936" lon="8.450798316453344"><ele>117.0</ele><time>2026-05-03T14:47:06.999Z</time></trkpt><trkpt lat="45.127766507626134" lon="8.450814152984469"><ele>116.99999999999999</ele><time>2026-05-03T14:47:07.999Z</time></trkpt><trkpt lat="45.12767028978549" lon="8.450832073216912"><ele>116.99999999999999</ele><time>2026-05-03T14:47:08.999Z</time></trkpt><trkpt lat="45.12758144615017" lon="8.450824574046093"><ele>117.0</ele><time>2026-05-03T14:47:09.999Z</time></trkpt><trkpt lat="45.1274848294056" lon="8.450829248147038"><ele>117.0</ele><time>2026-05-03T14:47:10.999Z</time></trkpt><trkpt lat="45.127401735229874" lon="8.450888580552036"><ele>117.19999999999999</ele><time>2026-05-03T14:47:11.999Z</time></trkpt><trkpt lat="45.127292322568955" lon="8.450864014828436"><ele>117.39999999999999</ele><time>2026-05-03T14:47:12.999Z</time></trkpt><trkpt lat="45.127173649955914" lon="8.45082572299912"><ele>117.60000000000001</ele><time>2026-05-03T14:47:13.999Z</time></trkpt><trkpt lat="45.127070849512656" lon="8.450820506212287"><ele>117.80000000000001</ele><time>2026-05-03T14:47:14.999Z</time></trkpt><trkpt lat="45.12697177272062" lon="8.45082780011649"><ele>118.0</ele><time>2026-05-03T14:47:15.999Z</time></trkpt><trkpt lat="45.126879644586225" lon="8.450824255037015"><ele>118.0</ele><time>2026-05-03T14:47:16.999Z</time></trkpt><trkpt lat="45.12677755454933" lon="8.450816122545259"><ele>118.00000000000001</ele><time>2026-05-03T14:47:17.999Z</time></trkpt><trkpt lat="45.126667057296814" lon="8.450841642457197"><ele>118.00000000000001</ele><time>2026-05-03T14:47:18.999Z</time></trkpt><trkpt lat="45.12655676729082" lon="8.450850390314137"><ele>118.0</ele><time>2026-05-03T14:47:19.999Z</time></trkpt><trkpt lat="45.12644402496442" lon="8.450868373442729"><ele>118.0</ele><time>2026-05-03T14:47:20.999Z</time></trkpt><trkpt lat="45.126336515897755" lon="8.450879691592908"><ele>118.0</ele><time>2026-05-03T14:47:21.999Z</time></trkpt><trkpt lat="45.126237884940295" lon="8.45086176679355"><ele>118.00000000000001</ele><time>2026-05-03T14:47:22.999Z</time></trkpt><trkpt lat="45.12614088326038" lon="8.450841540338875"><ele>118.00000000000001</ele><time>2026-05-03T14:47:23.999Z</time></trkpt><trkpt lat="45.126036639628865" lon="8.450847467338539"><ele>118.0</ele><time>2026-05-03T14:47:24.999Z</time></trkpt><trkpt lat="45.12593404049417" lon="8.45085733746028"><ele>118.0</ele><time>2026-05-03T14:47:25.999Z</time></trkpt><trkpt lat="45.1258313479786" lon="8.450872150847669"><ele>118.0</ele><time>2026-05-03T14:47:26.999Z</time></trkpt><trkpt lat="45.12573402511037" lon="8.450847551768216"><ele>118.00000000000001</ele><time>2026-05-03T14:47:27.999Z</time></trkpt><trkpt lat="45.12563001547097" lon="8.450848434581966"><ele>118.00000000000001</ele><time>2026-05-03T14:47:28.999Z</time></trkpt><trkpt lat="45.12552762127896" lon="8.450880503682193"><ele>118.0</ele><time>2026-05-03T14:47:29.999Z</time></trkpt><trkpt lat="45.12543751933725" lon="8.450888547253063"><ele>118.0</ele><time>2026-05-03T14:47:31Z</time></trkpt><trkpt lat="45.12535205604293" lon="8.450918839179774"><ele>118.2</ele><time>2026-05-03T14:47:32Z</time></trkpt><trkpt lat="45.12526895341652" lon="8.450810660427095"><ele>118.4</ele><time>2026-05-03T14:47:34Z</time></trkpt><trkpt lat="45.125275075033656" lon="8.45069214986962"><ele>118.60000000000001</ele><time>2026-05-03T14:47:35Z</time></trkpt><trkpt lat="45.12528536133543" lon="8.450567761357476"><ele>118.80000000000001</ele><time>2026-05-03T14:47:36Z</time></trkpt><trkpt lat="45.12529508529442" lon="8.450449454340742"><ele>119.0</ele><time>2026-05-03T14:47:37Z</time></trkpt><trkpt lat="45.125302441702324" lon="8.450308380505898"><ele>119.0</ele><time>2026-05-03T14:47:38Z</time></trkpt><trkpt lat="45.125328812460225" lon="8.450182138630403"><ele>119.0</ele><time>2026-05-03T14:47:39Z</time></trkpt><trkpt lat="45.125343956666626" lon="8.450039279437298"><ele>119.0</ele><time>2026-05-03T14:47:40Z</time></trkpt><trkpt lat="45.125374631329834" lon="8.449893809013906"><ele>119.0</ele><time>2026-05-03T14:47:41Z</time></trkpt><trkpt lat="45.125413718336624" lon="8.449744663392059"><ele>119.0</ele><time>2026-05-03T14:47:42Z</time></trkpt><trkpt lat="45.12543978421982" lon="8.449583462674847"><ele>119.5</ele><time>2026-05-03T14:47:43Z</time></trkpt><trkpt lat="45.125469598036005" lon="8.449424026647323"><ele>120.0</ele><time>2026-05-03T14:47:44Z</time></trkpt><trkpt lat="45.12550040729895" lon="8.44925981449281"><ele>120.5</ele><time>2026-05-03T14:47:45Z</time></trkpt><trkpt lat="45.12553211985012" lon="8.449104974105895"><ele>121.0</ele><time>2026-05-03T14:47:46Z</time></trkpt><trkpt lat="45.12557181301304" lon="8.448953123331764"><ele>121.25</ele><time>2026-05-03T14:47:47Z</time></trkpt><trkpt lat="45.125609743528514" lon="8.448789239491344"><ele>121.5</ele><time>2026-05-03T14:47:48Z</time></trkpt><trkpt lat="45.125634927606605" lon="8.448587668869585"><ele>121.75</ele><time>2026-05-03T14:47:49Z</time></trkpt><trkpt lat="45.12566404097054" lon="8.448390292363426"><ele>122.0</ele><time>2026-05-03T14:47:50Z</time></trkpt><trkpt lat="45.12569574353961" lon="8.448221943655883"><ele>122.0</ele><time>2026-05-03T14:47:51Z</time></trkpt><trkpt lat="45.12573445515503" lon="8.448056320680044"><ele>122.0</ele><time>2026-05-03T14:47:52Z</time></trkpt><trkpt lat="45.12576433801572" lon="8.447872529040785"><ele>122.0</ele><time>2026-05-03T14:47:53Z</time></trkpt><trkpt lat="45.12579200979244" lon="8.447705824408859"><ele>122.0</ele><time>2026-05-03T14:47:54Z</time></trkpt><trkpt lat="45.12583927879328" lon="8.44750995122306"><ele>122.0</ele><time>2026-05-03T14:47:55Z</time></trkpt><trkpt lat="45.12586274998524" lon="8.447301599952038"><ele>122.0</ele><time>2026-05-03T14:47:56Z</time></trkpt><trkpt lat="45.12590638095589" lon="8.447121645220385"><ele>122.0</ele><time>2026-05-03T14:47:57Z</time></trkpt><trkpt lat="45.1259505588969" lon="8.44698399270948"><ele>122.0</ele><time>2026-05-03T14:47:58Z</time></trkpt><trkpt lat="45.12598849801268" lon="8.446844195348925"><ele>122.49999999999999</ele><time>2026-05-03T14:47:59Z</time></trkpt><trkpt lat="45.12602316955992" lon="8.446751439089018"><ele>123.0</ele><time>2026-05-03T14:48:00Z</time></trkpt><trkpt lat="45.126019284696774" lon="8.446637476689984"><ele>123.5</ele><time>2026-05-03T14:48:02Z</time></trkpt><trkpt lat="45.12603801878325" lon="8.446499623648123"><ele>124.0</ele><time>2026-05-03T14:48:14Z</time></trkpt><trkpt lat="45.12614194085277" lon="8.446563518524105"><ele>124.49999999999999</ele><time>2026-05-03T14:48:16Z</time></trkpt><trkpt lat="45.12620653769317" lon="8.446623969536798"><ele>125.0</ele><time>2026-05-03T14:48:17Z</time></trkpt><trkpt lat="45.12626716210941" lon="8.44667728675849"><ele>125.0</ele><time>2026-05-03T14:48:18Z</time></trkpt><trkpt lat="45.126346219098124" lon="8.446721214171577"><ele>125.0</ele><time>2026-05-03T14:48:19Z</time></trkpt><trkpt lat="45.12642993889559" lon="8.446769009788932"><ele>125.0</ele><time>2026-05-03T14:48:20Z</time></trkpt><trkpt lat="45.12652090793061" lon="8.446808764886443"><ele>125.0</ele><time>2026-05-03T14:48:21Z</time></trkpt><trkpt lat="45.12661977590065" lon="8.446869444003287"><ele>125.0</ele><time>2026-05-03T14:48:22Z</time></trkpt><trkpt lat="45.126717913629264" lon="8.446920071310908"><ele>124.83333333333333</ele><time>2026-05-03T14:48:23Z</time></trkpt><trkpt lat="45.12680656713349" lon="8.44696364546509"><ele>124.66666666666666</ele><time>2026-05-03T14:48:24Z</time></trkpt><trkpt lat="45.12691133686545" lon="8.447002523415705"><ele>124.5</ele><time>2026-05-03T14:48:25Z</time></trkpt><trkpt lat="45.12699860649633" lon="8.447032184124039"><ele>124.33333333333334</ele><time>2026-05-03T14:48:26Z</time></trkpt><trkpt lat="45.12705891786756" lon="8.44709003983278"><ele>124.16666666666667</ele><time>2026-05-03T14:48:27Z</time></trkpt><trkpt lat="45.127130908329256" lon="8.447110409578443"><ele>124.0</ele><time>2026-05-03T14:48:28Z</time></trkpt><trkpt lat="45.12720701042671" lon="8.447141319970543"><ele>123.4</ele><time>2026-05-03T14:48:29Z</time></trkpt><trkpt lat="45.12729606008933" lon="8.447169556402892"><ele>122.80000000000001</ele><time>2026-05-03T14:48:30Z</time></trkpt><trkpt lat="45.12737781157675" lon="8.447206198353843"><ele>122.19999999999999</ele><time>2026-05-03T14:48:31Z</time></trkpt><trkpt lat="45.127462654592705" lon="8.44724480999358"><ele>121.6</ele><time>2026-05-03T14:48:32Z</time></trkpt><trkpt lat="45.12755273393612" lon="8.447282185508232"><ele>121.0</ele><time>2026-05-03T14:48:33Z</time></trkpt><trkpt lat="45.12766085738337" lon="8.447331113303001"><ele>120.4</ele><time>2026-05-03T14:48:34Z</time></trkpt><trkpt lat="45.127745507120785" lon="8.447379680851379"><ele>119.8</ele><time>2026-05-03T14:48:35Z</time></trkpt><trkpt lat="45.127835147137304" lon="8.44743669707149"><ele>119.20000000000002</ele><time>2026-05-03T14:48:36Z</time></trkpt><trkpt lat="45.1279252360911" lon="8.447472789768849"><ele>118.60000000000001</ele><time>2026-05-03T14:48:37Z</time></trkpt><trkpt lat="45.128007743023055" lon="8.447501866562305"><ele>118.0</ele><time>2026-05-03T14:48:38Z</time></trkpt><trkpt lat="45.1280881943942" lon="8.447543474046471"><ele>118.0</ele><time>2026-05-03T14:48:39Z</time></trkpt><trkpt lat="45.1282228774364" lon="8.44762203067481"><ele>118.0</ele><time>2026-05-03T14:48:41Z</time></trkpt><trkpt lat="45.128322028182986" lon="8.4476654438169"><ele>118.0</ele><time>2026-05-03T14:48:42Z</time></trkpt><trkpt lat="45.1284695077577" lon="8.4477385076837"><ele>118.0</ele><time>2026-05-03T14:48:44Z</time></trkpt><trkpt lat="45.12854760011453" lon="8.44777790035339"><ele>117.83333333333334</ele><time>2026-05-03T14:48:45Z</time></trkpt><trkpt lat="45.128641608520425" lon="8.447838616066704"><ele>117.66666666666667</ele><time>2026-05-03T14:48:45.999Z</time></trkpt><trkpt lat="45.12873894932843" lon="8.447885872294986"><ele>117.5</ele><time>2026-05-03T14:48:46.999Z</time></trkpt><trkpt lat="45.128817545711726" lon="8.44791856680154"><ele>117.33333333333334</ele><time>2026-05-03T14:48:47.999Z</time></trkpt><trkpt lat="45.128880855835654" lon="8.44797359074733"><ele>117.16666666666667</ele><time>2026-05-03T14:48:48.999Z</time></trkpt><trkpt lat="45.128952499602526" lon="8.448004729114823"><ele>117.0</ele><time>2026-05-03T14:48:49.999Z</time></trkpt><trkpt lat="45.12902901727096" lon="8.448033595214065"><ele>117.33333333333333</ele><time>2026-05-03T14:48:50.999Z</time></trkpt><trkpt lat="45.12911836981737" lon="8.448047867778257"><ele>117.66666666666666</ele><time>2026-05-03T14:48:51.999Z</time></trkpt><trkpt lat="45.12919602884391" lon="8.448086242966303"><ele>118.0</ele><time>2026-05-03T14:48:52.999Z</time></trkpt><trkpt lat="45.12925715632839" lon="8.448122101834826"><ele>118.33333333333333</ele><time>2026-05-03T14:48:53.999Z</time></trkpt><trkpt lat="45.12934319930486" lon="8.448148529633691"><ele>118.66666666666666</ele><time>2026-05-03T14:48:54.999Z</time></trkpt><trkpt lat="45.1294409462971" lon="8.448177753434273"><ele>119.0</ele><time>2026-05-03T14:48:55.999Z</time></trkpt><trkpt lat="45.12954481219574" lon="8.448231128205473"><ele>119.0</ele><time>2026-05-03T14:48:56.999Z</time></trkpt><trkpt lat="45.12964674909015" lon="8.448283741112526"><ele>119.0</ele><time>2026-05-03T14:48:57.999Z</time></trkpt><trkpt lat="45.129743289057885" lon="8.448327451080052"><ele>119.0</ele><time>2026-05-03T14:48:58.999Z</time></trkpt><trkpt lat="45.1298334867292" lon="8.448368763729732"><ele>119.0</ele><time>2026-05-03T14:48:59.999Z</time></trkpt><trkpt lat="45.12992038288071" lon="8.448399718998896"><ele>119.0</ele><time>2026-05-03T14:49:00.999Z</time></trkpt><trkpt lat="45.13000002600541" lon="8.448429592332646"><ele>119.0</ele><time>2026-05-03T14:49:01.999Z</time></trkpt><trkpt lat="45.13007730604114" lon="8.448516007954671"><ele>119.0</ele><time>2026-05-03T14:49:03.999Z</time></trkpt><trkpt lat="45.13017063123808" lon="8.448581950538331"><ele>119.0</ele><time>2026-05-03T14:49:05.999Z</time></trkpt><trkpt lat="45.13025019493387" lon="8.448682096363468"><ele>119.0</ele><time>2026-05-03T14:49:07.999Z</time></trkpt><trkpt lat="45.130330310730194" lon="8.448771325564172"><ele>119.0</ele><time>2026-05-03T14:49:09.999Z</time></trkpt><trkpt lat="45.13039646418145" lon="8.44869625350104"><ele>118.99999999999999</ele><time>2026-05-03T14:49:12.999Z</time></trkpt><trkpt lat="45.13042706228514" lon="8.448542867808364"><ele>119.0</ele><time>2026-05-03T14:49:14.999Z</time></trkpt><trkpt lat="45.13046655694706" lon="8.448434229169873"><ele>119.0</ele><time>2026-05-03T14:49:16.999Z</time></trkpt><trkpt lat="45.1305112125545" lon="8.448369667886876"><ele>119.0</ele><time>2026-05-03T14:49:17.999Z</time></trkpt><trkpt lat="45.13055441970335" lon="8.44828445015169"><ele>118.99999999999999</ele><time>2026-05-03T14:49:18.999Z</time></trkpt><trkpt lat="45.130607822560606" lon="8.448195959459541"><ele>119.0</ele><time>2026-05-03T14:49:19.999Z</time></trkpt><trkpt lat="45.13068110892844" lon="8.448107265518757"><ele>118.75</ele><time>2026-05-03T14:49:20.999Z</time></trkpt><trkpt lat="45.13075047515472" lon="8.448006292062777"><ele>118.5</ele><time>2026-05-03T14:49:21.999Z</time></trkpt><trkpt lat="45.13083310480731" lon="8.447908412014566"><ele>118.25</ele><time>2026-05-03T14:49:22.999Z</time></trkpt><trkpt lat="45.13090722961296" lon="8.447766378050042"><ele>118.0</ele><time>2026-05-03T14:49:23.999Z</time></trkpt><trkpt lat="45.13099782510106" lon="8.447599680519788"><ele>117.75</ele><time>2026-05-03T14:49:24.999Z</time></trkpt><trkpt lat="45.1310730191522" lon="8.447505712590527"><ele>117.5</ele><time>2026-05-03T14:49:25.999Z</time></trkpt><trkpt lat="45.131161587304426" lon="8.447399857639665"><ele>117.25</ele><time>2026-05-03T14:49:26.999Z</time></trkpt><trkpt lat="45.1312425157648" lon="8.447267370213812"><ele>117.0</ele><time>2026-05-03T14:49:27.999Z</time></trkpt><trkpt lat="45.131319797803826" lon="8.447149912420038"><ele>116.75</ele><time>2026-05-03T14:49:28.999Z</time></trkpt><trkpt lat="45.131404574810595" lon="8.447028695629557"><ele>116.5</ele><time>2026-05-03T14:49:29.999Z</time></trkpt><trkpt lat="45.13147913234763" lon="8.446907661593718"><ele>116.25</ele><time>2026-05-03T14:49:30.999Z</time></trkpt><trkpt lat="45.13156300073992" lon="8.446792370267188"><ele>116.0</ele><time>2026-05-03T14:49:31.999Z</time></trkpt><trkpt lat="45.13164175422849" lon="8.446696643018527"><ele>116.0</ele><time>2026-05-03T14:49:32.999Z</time></trkpt><trkpt lat="45.131711039830385" lon="8.446561786995039"><ele>116.0</ele><time>2026-05-03T14:49:33.999Z</time></trkpt><trkpt lat="45.13178569496473" lon="8.44644683536274"><ele>116.0</ele><time>2026-05-03T14:49:34.999Z</time></trkpt><trkpt lat="45.13185796630966" lon="8.446331640534765"><ele>116.0</ele><time>2026-05-03T14:49:35.999Z</time></trkpt><trkpt lat="45.131940770807894" lon="8.446217618469666"><ele>116.0</ele><time>2026-05-03T14:49:37Z</time></trkpt><trkpt lat="45.13202143451274" lon="8.446099359062009"><ele>116.0</ele><time>2026-05-03T14:49:38Z</time></trkpt><trkpt lat="45.132102829804374" lon="8.445978651774096"><ele>116.0</ele><time>2026-05-03T14:49:39Z</time></trkpt><trkpt lat="45.13218301825661" lon="8.44587651432628"><ele>116.0</ele><time>2026-05-03T14:49:40Z</time></trkpt><trkpt lat="45.13226262417676" lon="8.44576007032274"><ele>116.0</ele><time>2026-05-03T14:49:41Z</time></trkpt><trkpt lat="45.132339963931955" lon="8.445650137184696"><ele>116.0</ele><time>2026-05-03T14:49:42Z</time></trkpt><trkpt lat="45.1324184269785" lon="8.445540815363444"><ele>116.0</ele><time>2026-05-03T14:49:43Z</time></trkpt><trkpt lat="45.13249116134799" lon="8.445443716197929"><ele>116.0</ele><time>2026-05-03T14:49:44Z</time></trkpt><trkpt lat="45.13255856975805" lon="8.445338753719996"><ele>116.0</ele><time>2026-05-03T14:49:45Z</time></trkpt><trkpt lat="45.13262398781903" lon="8.445222014964733"><ele>116.66666666666666</ele><time>2026-05-03T14:49:46Z</time></trkpt><trkpt lat="45.13268542452367" lon="8.44512926705991"><ele>117.33333333333333</ele><time>2026-05-03T14:49:47Z</time></trkpt><trkpt lat="45.13273575973849" lon="8.445045631252096"><ele>118.0</ele><time>2026-05-03T14:49:48Z</time></trkpt><trkpt lat="45.13278502863736" lon="8.444963352566987"><ele>118.66666666666666</ele><time>2026-05-03T14:49:49Z</time></trkpt><trkpt lat="45.13283549471546" lon="8.444887847636803"><ele>119.33333333333333</ele><time>2026-05-03T14:49:50Z</time></trkpt><trkpt lat="45.132893954215774" lon="8.444845572388273"><ele>120.0</ele><time>2026-05-03T14:49:51Z</time></trkpt><trkpt lat="45.13293343233325" lon="8.444762223198916"><ele>120.0</ele><time>2026-05-03T14:49:52Z</time></trkpt><trkpt lat="45.133004839811505" lon="8.44465302118444"><ele>120.0</ele><time>2026-05-03T14:49:54Z</time></trkpt><trkpt lat="45.133056889161686" lon="8.44452786631273"><ele>120.0</ele><time>2026-05-03T14:49:56Z</time></trkpt><trkpt lat="45.13312544565238" lon="8.44447500299014"><ele>120.0</ele><time>2026-05-03T14:49:58Z</time></trkpt><trkpt lat="45.133194542249534" lon="8.444523279606964"><ele>120.0</ele><time>2026-05-03T14:49:59Z</time></trkpt><trkpt lat="45.133255147630024" lon="8.44459522818099"><ele>120.0</ele><time>2026-05-03T14:50:00Z</time></trkpt><trkpt lat="45.13331963795621" lon="8.444643406874997"><ele>119.5</ele><time>2026-05-03T14:50:01Z</time></trkpt><trkpt lat="45.13338391510386" lon="8.444675061962352"><ele>119.0</ele><time>2026-05-03T14:50:02Z</time></trkpt><trkpt lat="45.13344240829288" lon="8.444715072285709"><ele>118.5</ele><time>2026-05-03T14:50:03Z</time></trkpt><trkpt lat="45.1335499211392" lon="8.444742527543406"><ele>118.0</ele><time>2026-05-03T14:50:05Z</time></trkpt><trkpt lat="45.133606076709476" lon="8.444616386459836"><ele>117.5</ele><time>2026-05-03T14:50:07Z</time></trkpt><trkpt lat="45.13366155717263" lon="8.444508619184482"><ele>117.0</ele><time>2026-05-03T14:50:08Z</time></trkpt><trkpt lat="45.13374533483952" lon="8.444446037638187"><ele>116.75</ele><time>2026-05-03T14:50:09Z</time></trkpt><trkpt lat="45.13384888539352" lon="8.444386614421692"><ele>116.5</ele><time>2026-05-03T14:50:10Z</time></trkpt><trkpt lat="45.133960173683725" lon="8.444374905549898"><ele>116.25</ele><time>2026-05-03T14:50:11Z</time></trkpt><trkpt lat="45.134078341848884" lon="8.444349116383817"><ele>116.0</ele><time>2026-05-03T14:50:12Z</time></trkpt><trkpt lat="45.134195398777905" lon="8.444345888201243"><ele>116.0</ele><time>2026-05-03T14:50:13Z</time></trkpt><trkpt lat="45.13430775094507" lon="8.444329116534119"><ele>116.0</ele><time>2026-05-03T14:50:14Z</time></trkpt><trkpt lat="45.134412032992614" lon="8.444306649332349"><ele>116.0</ele><time>2026-05-03T14:50:15Z</time></trkpt><trkpt lat="45.13450405355468" lon="8.444327689957802"><ele>116.0</ele><time>2026-05-03T14:50:16Z</time></trkpt><trkpt lat="45.1345787093308" lon="8.444385140641684"><ele>116.0</ele><time>2026-05-03T14:50:17Z</time></trkpt><trkpt lat="45.13464593635356" lon="8.444446223754"><ele>115.99999999999999</ele><time>2026-05-03T14:50:18Z</time></trkpt><trkpt lat="45.13474357497033" lon="8.444441243134667"><ele>116.0</ele><time>2026-05-03T14:50:20Z</time></trkpt><trkpt lat="45.1347940046862" lon="8.444374044473387"><ele>116.0</ele><time>2026-05-03T14:50:22Z</time></trkpt><trkpt lat="45.134861871389944" lon="8.444319263964948"><ele>116.0</ele><time>2026-05-03T14:50:24Z</time></trkpt><trkpt lat="45.134971478991844" lon="8.444278015179266"><ele>115.99999999999999</ele><time>2026-05-03T14:50:26Z</time></trkpt><trkpt lat="45.13503855544171" lon="8.444274477315616"><ele>116.0</ele><time>2026-05-03T14:50:27Z</time></trkpt><trkpt lat="45.13510727270018" lon="8.444285316105239"><ele>115.99999999999999</ele><time>2026-05-03T14:50:28Z</time></trkpt><trkpt lat="45.13518160322534" lon="8.444277712327688"><ele>116.0</ele><time>2026-05-03T14:50:29Z</time></trkpt><trkpt lat="45.135263383983045" lon="8.444274690930174"><ele>116.0</ele><time>2026-05-03T14:50:30Z</time></trkpt><trkpt lat="45.13533901766732" lon="8.444261981935023"><ele>116.0</ele><time>2026-05-03T14:50:31Z</time></trkpt><trkpt lat="45.13542022868636" lon="8.444265093318217"><ele>115.99999999999999</ele><time>2026-05-03T14:50:32Z</time></trkpt><trkpt lat="45.13549803358328" lon="8.44426629531386"><ele>116.0</ele><time>2026-05-03T14:50:33Z</time></trkpt><trkpt lat="45.13563444541317" lon="8.444264653593786"><ele>116.0</ele><time>2026-05-03T14:50:35Z</time></trkpt><trkpt lat="45.13571378967439" lon="8.444307627845301"><ele>116.0</ele><time>2026-05-03T14:50:36Z</time></trkpt><trkpt lat="45.13581078391641" lon="8.444317166655559"><ele>116.0</ele><time>2026-05-03T14:50:38Z</time></trkpt><trkpt lat="45.1359048554353" lon="8.444374044498241"><ele>116.0</ele><time>2026-05-03T14:50:40Z</time></trkpt><trkpt lat="45.13600150156729" lon="8.444434789339237"><ele>116.0</ele><time>2026-05-03T14:50:42Z</time></trkpt><trkpt lat="45.13607231357323" lon="8.444425436785709"><ele>116.4</ele><time>2026-05-03T14:50:43Z</time></trkpt><trkpt lat="45.13616279395891" lon="8.444362604903404"><ele>116.8</ele><time>2026-05-03T14:50:44Z</time></trkpt><trkpt lat="45.13622385772244" lon="8.444325041252801"><ele>117.20000000000002</ele><time>2026-05-03T14:50:45Z</time></trkpt><trkpt lat="45.13633093699213" lon="8.444335354552042"><ele>117.60000000000001</ele><time>2026-05-03T14:50:46Z</time></trkpt><trkpt lat="45.13644195135901" lon="8.444359467780219"><ele>118.0</ele><time>2026-05-03T14:50:47Z</time></trkpt><trkpt lat="45.136563518307725" lon="8.444378629386554"><ele>118.0</ele><time>2026-05-03T14:50:48Z</time></trkpt><trkpt lat="45.13667904511911" lon="8.444400460092822"><ele>118.00000000000001</ele><time>2026-05-03T14:50:49Z</time></trkpt><trkpt lat="45.13678776004643" lon="8.444431374869385"><ele>118.00000000000001</ele><time>2026-05-03T14:50:50Z</time></trkpt><trkpt lat="45.13689861723762" lon="8.44445829666011"><ele>118.0</ele><time>2026-05-03T14:50:50.999Z</time></trkpt><trkpt lat="45.136996287838315" lon="8.444487853180927"><ele>118.0</ele><time>2026-05-03T14:50:51.999Z</time></trkpt><trkpt lat="45.13709229395012" lon="8.444503526451642"><ele>118.0</ele><time>2026-05-03T14:50:52.999Z</time></trkpt><trkpt lat="45.13719524783021" lon="8.444534480097769"><ele>118.00000000000001</ele><time>2026-05-03T14:50:53.999Z</time></trkpt><trkpt lat="45.13729253399585" lon="8.444541150127398"><ele>118.00000000000001</ele><time>2026-05-03T14:50:54.999Z</time></trkpt><trkpt lat="45.13738841726503" lon="8.444559964323112"><ele>118.0</ele><time>2026-05-03T14:50:55.999Z</time></trkpt><trkpt lat="45.137468610734494" lon="8.444570679074836"><ele>118.0</ele><time>2026-05-03T14:50:56.999Z</time></trkpt><trkpt lat="45.13756090764758" lon="8.444613032660895"><ele>118.0</ele><time>2026-05-03T14:50:57.999Z</time></trkpt><trkpt lat="45.137653859448065" lon="8.444711391645473"><ele>118.00000000000001</ele><time>2026-05-03T14:50:58.999Z</time></trkpt><trkpt lat="45.137739383955726" lon="8.444787072358018"><ele>118.00000000000001</ele><time>2026-05-03T14:50:59.999Z</time></trkpt><trkpt lat="45.137816571687736" lon="8.444877900678014"><ele>118.0</ele><time>2026-05-03T14:51:00.999Z</time></trkpt><trkpt lat="45.137889466095075" lon="8.444980126122465"><ele>118.0</ele><time>2026-05-03T14:51:01.999Z</time></trkpt><trkpt lat="45.13795266953017" lon="8.445065637766195"><ele>118.00000000000001</ele><time>2026-05-03T14:51:02.999Z</time></trkpt><trkpt lat="45.13800400029801" lon="8.445140647426362"><ele>118.0</ele><time>2026-05-03T14:51:03.999Z</time></trkpt><trkpt lat="45.138055145826165" lon="8.445212549688616"><ele>118.0</ele><time>2026-05-03T14:51:04.999Z</time></trkpt><trkpt lat="45.13810387681475" lon="8.445270225722753"><ele>118.0</ele><time>2026-05-03T14:51:05.999Z</time></trkpt><trkpt lat="45.138164270505165" lon="8.44532938069225"><ele>118.00000000000001</ele><time>2026-05-03T14:51:06.999Z</time></trkpt><trkpt lat="45.138236587891775" lon="8.445408485826466"><ele>118.0</ele><time>2026-05-03T14:51:07.999Z</time></trkpt><trkpt lat="45.138313408416515" lon="8.44550931389136"><ele>117.60000000000001</ele><time>2026-05-03T14:51:08.999Z</time></trkpt><trkpt lat="45.13839693434055" lon="8.445618217296104"><ele>117.20000000000002</ele><time>2026-05-03T14:51:09.999Z</time></trkpt><trkpt lat="45.13849023607875" lon="8.445729897947347"><ele>116.8</ele><time>2026-05-03T14:51:10.999Z</time></trkpt><trkpt lat="45.13858272386537" lon="8.445831907883834"><ele>116.4</ele><time>2026-05-03T14:51:11.999Z</time></trkpt><trkpt lat="45.13863059170373" lon="8.445944828286297"><ele>116.0</ele><time>2026-05-03T14:51:12.999Z</time></trkpt><trkpt lat="45.138678779881985" lon="8.446037224926355"><ele>115.99999999999999</ele><time>2026-05-03T14:51:13.999Z</time></trkpt><trkpt lat="45.13871416400625" lon="8.446113830608374"><ele>116.0</ele><time>2026-05-03T14:51:14.999Z</time></trkpt><trkpt lat="45.13876797673681" lon="8.44622621558853"><ele>116.0</ele><time>2026-05-03T14:51:16.999Z</time></trkpt><trkpt lat="45.13878697561381" lon="8.446368364299264"><ele>116.0</ele><time>2026-05-03T14:51:18.999Z</time></trkpt><trkpt lat="45.138804131626905" lon="8.446479805171615"><ele>115.99999999999999</ele><time>2026-05-03T14:51:20.999Z</time></trkpt><trkpt lat="45.138874555696255" lon="8.44655293805618"><ele>116.0</ele><time>2026-05-03T14:51:22.999Z</time></trkpt><trkpt lat="45.13894040682006" lon="8.446529879340861"><ele>116.33333333333333</ele><time>2026-05-03T14:51:23.999Z</time></trkpt><trkpt lat="45.13905514992105" lon="8.44648885052685"><ele>116.66666666666666</ele><time>2026-05-03T14:51:25.999Z</time></trkpt><trkpt lat="45.139130298114615" lon="8.446498466456681"><ele>117.0</ele><time>2026-05-03T14:51:26.999Z</time></trkpt><trkpt lat="45.13919986774835" lon="8.446520627939414"><ele>117.33333333333334</ele><time>2026-05-03T14:51:27.999Z</time></trkpt><trkpt lat="45.13927916164361" lon="8.446555665595131"><ele>117.66666666666667</ele><time>2026-05-03T14:51:28.999Z</time></trkpt><trkpt lat="45.13936969507354" lon="8.446580032609788"><ele>118.0</ele><time>2026-05-03T14:51:29.999Z</time></trkpt><trkpt lat="45.139467025447054" lon="8.446619474879897"><ele>118.0</ele><time>2026-05-03T14:51:30.999Z</time></trkpt><trkpt lat="45.13956818236738" lon="8.446658209162653"><ele>118.0</ele><time>2026-05-03T14:51:31.999Z</time></trkpt><trkpt lat="45.13968664195461" lon="8.446697100662762"><ele>118.0</ele><time>2026-05-03T14:51:32.999Z</time></trkpt><trkpt lat="45.13981960936621" lon="8.446756985667635"><ele>118.0</ele><time>2026-05-03T14:51:33.999Z</time></trkpt><trkpt lat="45.139944790602456" lon="8.446849180497214"><ele>119.0</ele><time>2026-05-03T14:51:34.999Z</time></trkpt><trkpt lat="45.14005897756537" lon="8.446983469647838"><ele>120.0</ele><time>2026-05-03T14:51:35.999Z</time></trkpt><trkpt lat="45.140158515500836" lon="8.447146720289826"><ele>121.0</ele><time>2026-05-03T14:51:36.999Z</time></trkpt><trkpt lat="45.1402350314262" lon="8.447328382071165"><ele>121.0</ele><time>2026-05-03T14:51:37.999Z</time></trkpt><trkpt lat="45.140306742966075" lon="8.447484196528459"><ele>121.0</ele><time>2026-05-03T14:51:38.999Z</time></trkpt><trkpt lat="45.140363816902536" lon="8.447592358899842"><ele>121.0</ele><time>2026-05-03T14:51:39.999Z</time></trkpt><trkpt lat="45.14040166373055" lon="8.447700525588425"><ele>121.0</ele><time>2026-05-03T14:51:41.999Z</time></trkpt><trkpt lat="45.14043815697663" lon="8.447774312982249"><ele>121.0</ele><time>2026-05-03T14:51:45Z</time></trkpt><trkpt lat="45.14052270265472" lon="8.447915556551193"><ele>121.00000000000001</ele><time>2026-05-03T14:51:47Z</time></trkpt><trkpt lat="45.14056765758979" lon="8.448002840333775"><ele>121.0</ele><time>2026-05-03T14:51:48Z</time></trkpt><trkpt lat="45.140609877143305" lon="8.448098892157748"><ele>121.0</ele><time>2026-05-03T14:51:49Z</time></trkpt><trkpt lat="45.14065437352" lon="8.448209685195682"><ele>121.0</ele><time>2026-05-03T14:51:50Z</time></trkpt><trkpt lat="45.140685155650544" lon="8.448314893803921"><ele>121.00000000000001</ele><time>2026-05-03T14:51:51Z</time></trkpt><trkpt lat="45.140769820268616" lon="8.448415069705439"><ele>121.0</ele><time>2026-05-03T14:51:53Z</time></trkpt><trkpt lat="45.14084064785567" lon="8.448375319947417"><ele>120.19999999999999</ele><time>2026-05-03T14:51:54Z</time></trkpt><trkpt lat="45.14090769186021" lon="8.448289636427194"><ele>119.39999999999999</ele><time>2026-05-03T14:51:55Z</time></trkpt><trkpt lat="45.14097652645245" lon="8.448211234230001"><ele>118.6</ele><time>2026-05-03T14:51:56Z</time></trkpt><trkpt lat="45.14107172082867" lon="8.448143002690973"><ele>117.8</ele><time>2026-05-03T14:51:57Z</time></trkpt><trkpt lat="45.14119721126106" lon="8.448068892750744"><ele>117.0</ele><time>2026-05-03T14:51:58Z</time></trkpt><trkpt lat="45.141309472094555" lon="8.447995940990074"><ele>116.0</ele><time>2026-05-03T14:51:59Z</time></trkpt><trkpt lat="45.14143400733691" lon="8.447918341043499"><ele>115.0</ele><time>2026-05-03T14:52:00Z</time></trkpt><trkpt lat="45.14156973754182" lon="8.447836621974133"><ele>114.0</ele><time>2026-05-03T14:52:01Z</time></trkpt><trkpt lat="45.14170811263931" lon="8.447757550659384"><ele>113.0</ele><time>2026-05-03T14:52:02Z</time></trkpt><trkpt lat="45.14185114820851" lon="8.447677759266337"><ele>112.0</ele><time>2026-05-03T14:52:03Z</time></trkpt><trkpt lat="45.14198664315388" lon="8.4475875524406"><ele>111.0</ele><time>2026-05-03T14:52:04Z</time></trkpt><trkpt lat="45.142121082842564" lon="8.447507402819813"><ele>110.0</ele><time>2026-05-03T14:52:05Z</time></trkpt><trkpt lat="45.14225889821132" lon="8.447430256953892"><ele>109.0</ele><time>2026-05-03T14:52:06Z</time></trkpt><trkpt lat="45.14238749499077" lon="8.44735264956735"><ele>109.0</ele><time>2026-05-03T14:52:07Z</time></trkpt><trkpt lat="45.14250464157097" lon="8.447278759316383"><ele>109.0</ele><time>2026-05-03T14:52:08Z</time></trkpt><trkpt lat="45.14260532769444" lon="8.44721791430913"><ele>109.0</ele><time>2026-05-03T14:52:09Z</time></trkpt><trkpt lat="45.14270178020714" lon="8.447165630400963"><ele>109.0</ele><time>2026-05-03T14:52:10Z</time></trkpt><trkpt lat="45.1427786256298" lon="8.44712381682289"><ele>109.0</ele><time>2026-05-03T14:52:11Z</time></trkpt><trkpt lat="45.14285947564188" lon="8.447099008984617"><ele>109.0</ele><time>2026-05-03T14:52:13Z</time></trkpt><trkpt lat="45.14295744068457" lon="8.4470803707893"><ele>109.0</ele><time>2026-05-03T14:52:16Z</time></trkpt><trkpt lat="45.143025854004996" lon="8.447086558044647"><ele>109.0</ele><time>2026-05-03T14:52:17Z</time></trkpt><trkpt lat="45.14311127894971" lon="8.447129724173424"><ele>109.0</ele><time>2026-05-03T14:52:18Z</time></trkpt><trkpt lat="45.14320575277384" lon="8.447203937905185"><ele>109.0</ele><time>2026-05-03T14:52:19Z</time></trkpt><trkpt lat="45.143285039574366" lon="8.447309757006856"><ele>110.0</ele><time>2026-05-03T14:52:20Z</time></trkpt><trkpt lat="45.14336781227174" lon="8.447414837779974"><ele>111.0</ele><time>2026-05-03T14:52:21Z</time></trkpt><trkpt lat="45.14344589725051" lon="8.447506503943815"><ele>112.0</ele><time>2026-05-03T14:52:22Z</time></trkpt><trkpt lat="45.143528104272285" lon="8.447607364857346"><ele>113.0</ele><time>2026-05-03T14:52:23Z</time></trkpt><trkpt lat="45.14361312535263" lon="8.44771103077002"><ele>114.0</ele><time>2026-05-03T14:52:24Z</time></trkpt><trkpt lat="45.1436881153105" lon="8.447818448494846"><ele>114.0</ele><time>2026-05-03T14:52:25Z</time></trkpt><trkpt lat="45.14376758351394" lon="8.447927494879806"><ele>114.0</ele><time>2026-05-03T14:52:26Z</time></trkpt><trkpt lat="45.14385194041271" lon="8.44805722667031"><ele>114.0</ele><time>2026-05-03T14:52:27Z</time></trkpt><trkpt lat="45.14390872627365" lon="8.44818801732458"><ele>114.0</ele><time>2026-05-03T14:52:28Z</time></trkpt><trkpt lat="45.14397199122793" lon="8.448322771950743"><ele>113.75</ele><time>2026-05-03T14:52:29Z</time></trkpt><trkpt lat="45.14404777572298" lon="8.448467521472903"><ele>113.5</ele><time>2026-05-03T14:52:30Z</time></trkpt><trkpt lat="45.144127464134414" lon="8.448638150762944"><ele>113.25</ele><time>2026-05-03T14:52:31Z</time></trkpt><trkpt lat="45.14419786142" lon="8.44881942919931"><ele>113.0</ele><time>2026-05-03T14:52:32Z</time></trkpt><trkpt lat="45.144266598858785" lon="8.448989968237466"><ele>113.0</ele><time>2026-05-03T14:52:33Z</time></trkpt><trkpt lat="45.14433408434129" lon="8.449148515474413"><ele>113.0</ele><time>2026-05-03T14:52:34Z</time></trkpt><trkpt lat="45.14439965241045" lon="8.449298158801987"><ele>113.0</ele><time>2026-05-03T14:52:35Z</time></trkpt><trkpt lat="45.144450838895374" lon="8.449438427980628"><ele>113.0</ele><time>2026-05-03T14:52:36Z</time></trkpt><trkpt lat="45.144507392144476" lon="8.449569451243867"><ele>112.60000000000001</ele><time>2026-05-03T14:52:37Z</time></trkpt><trkpt lat="45.14456078903079" lon="8.449690597143073"><ele>112.20000000000002</ele><time>2026-05-03T14:52:38Z</time></trkpt><trkpt lat="45.14461272187123" lon="8.449798330755499"><ele>111.8</ele><time>2026-05-03T14:52:39Z</time></trkpt><trkpt lat="45.14467645298499" lon="8.449897383245908"><ele>111.4</ele><time>2026-05-03T14:52:40Z</time></trkpt><trkpt lat="45.144749045393276" lon="8.44999043933233"><ele>111.0</ele><time>2026-05-03T14:52:41Z</time></trkpt><trkpt lat="45.14480935381238" lon="8.450046012323648"><ele>111.19999999999999</ele><time>2026-05-03T14:52:42Z</time></trkpt><trkpt lat="45.14491339317267" lon="8.450099730984222"><ele>111.39999999999999</ele><time>2026-05-03T14:52:43Z</time></trkpt><trkpt lat="45.14504514045333" lon="8.45018793888381"><ele>111.6</ele><time>2026-05-03T14:52:45Z</time></trkpt><trkpt lat="45.14510954254032" lon="8.450239086531013"><ele>111.8</ele><time>2026-05-03T14:52:46Z</time></trkpt><trkpt lat="45.145184450692966" lon="8.450284090554987"><ele>112.0</ele><time>2026-05-03T14:52:47Z</time></trkpt><trkpt lat="45.1452829286159" lon="8.450324166669333"><ele>112.0</ele><time>2026-05-03T14:52:48Z</time></trkpt><trkpt lat="45.145410932505484" lon="8.450353084393033"><ele>112.0</ele><time>2026-05-03T14:52:49Z</time></trkpt><trkpt lat="45.14552786179481" lon="8.45038203941719"><ele>112.0</ele><time>2026-05-03T14:52:50Z</time></trkpt><trkpt lat="45.14565794825674" lon="8.450417042873857"><ele>112.0</ele><time>2026-05-03T14:52:51Z</time></trkpt><trkpt lat="45.14579674759567" lon="8.450461128726834"><ele>112.0</ele><time>2026-05-03T14:52:52Z</time></trkpt><trkpt lat="45.14591050332596" lon="8.450508979446951"><ele>112.0</ele><time>2026-05-03T14:52:53Z</time></trkpt><trkpt lat="45.14604576418277" lon="8.450539020975398"><ele>112.0</ele><time>2026-05-03T14:52:54Z</time></trkpt><trkpt lat="45.14617150508589" lon="8.450595704795736"><ele>112.0</ele><time>2026-05-03T14:52:55Z</time></trkpt><trkpt lat="45.146314902846996" lon="8.45063929960308"><ele>112.0</ele><time>2026-05-03T14:52:56Z</time></trkpt><trkpt lat="45.14644566122913" lon="8.450684395846952"><ele>112.0</ele><time>2026-05-03T14:52:57Z</time></trkpt><trkpt lat="45.14656851640505" lon="8.450727122357529"><ele>112.0</ele><time>2026-05-03T14:52:58Z</time></trkpt><trkpt lat="45.14669401561649" lon="8.450767116826453"><ele>112.0</ele><time>2026-05-03T14:52:59Z</time></trkpt><trkpt lat="45.146803241875595" lon="8.45079970518388"><ele>112.0</ele><time>2026-05-03T14:52:59.999Z</time></trkpt><trkpt lat="45.14690634905725" lon="8.450841019253636"><ele>112.0</ele><time>2026-05-03T14:53:00.999Z</time></trkpt><trkpt lat="45.14702143608279" lon="8.450878892824143"><ele>112.0</ele><time>2026-05-03T14:53:01.999Z</time></trkpt><trkpt lat="45.147153708564" lon="8.450910540305378"><ele>112.0</ele><time>2026-05-03T14:53:02.999Z</time></trkpt><trkpt lat="45.14729020018261" lon="8.450942018640859"><ele>111.75</ele><time>2026-05-03T14:53:03.999Z</time></trkpt><trkpt lat="45.1474300726896" lon="8.451001010600235"><ele>111.5</ele><time>2026-05-03T14:53:04.999Z</time></trkpt><trkpt lat="45.14756633931576" lon="8.451061432460623"><ele>111.25</ele><time>2026-05-03T14:53:05.999Z</time></trkpt><trkpt lat="45.14768395097647" lon="8.45111011810906"><ele>111.0</ele><time>2026-05-03T14:53:06.999Z</time></trkpt><trkpt lat="45.1477904875975" lon="8.451125844926473"><ele>111.0</ele><time>2026-05-03T14:53:07.999Z</time></trkpt><trkpt lat="45.14789380189734" lon="8.451160982927503"><ele>111.0</ele><time>2026-05-03T14:53:08.999Z</time></trkpt><trkpt lat="45.14799424310951" lon="8.451196080636084"><ele>111.0</ele><time>2026-05-03T14:53:09.999Z</time></trkpt><trkpt lat="45.148106321444835" lon="8.451219103137584"><ele>111.0</ele><time>2026-05-03T14:53:10.999Z</time></trkpt><trkpt lat="45.14822803708275" lon="8.451252353502955"><ele>111.0</ele><time>2026-05-03T14:53:11.999Z</time></trkpt><trkpt lat="45.14835892123537" lon="8.45129696757803"><ele>111.0</ele><time>2026-05-03T14:53:12.999Z</time></trkpt><trkpt lat="45.14852306896856" lon="8.4513674784736"><ele>111.0</ele><time>2026-05-03T14:53:13.999Z</time></trkpt><trkpt lat="45.1486674805327" lon="8.451439952621648"><ele>111.0</ele><time>2026-05-03T14:53:14.999Z</time></trkpt><trkpt lat="45.148818481869036" lon="8.451496474040411"><ele>111.0</ele><time>2026-05-03T14:53:15.999Z</time></trkpt><trkpt lat="45.148969125701775" lon="8.451548349451738"><ele>111.0</ele><time>2026-05-03T14:53:16.999Z</time></trkpt><trkpt lat="45.14911266305619" lon="8.451594433021402"><ele>111.0</ele><time>2026-05-03T14:53:17.999Z</time></trkpt><trkpt lat="45.14924232617677" lon="8.45164041401484"><ele>111.0</ele><time>2026-05-03T14:53:18.999Z</time></trkpt><trkpt lat="45.149366194210806" lon="8.451682254893795"><ele>111.0</ele><time>2026-05-03T14:53:19.999Z</time></trkpt><trkpt lat="45.149481193453376" lon="8.451716101481358"><ele>111.0</ele><time>2026-05-03T14:53:20.999Z</time></trkpt><trkpt lat="45.14959756397773" lon="8.451757144963532"><ele>111.0</ele><time>2026-05-03T14:53:21.999Z</time></trkpt><trkpt lat="45.14972329312089" lon="8.45179669034436"><ele>111.0</ele><time>2026-05-03T14:53:22.999Z</time></trkpt><trkpt lat="45.149852280545325" lon="8.451825373678922"><ele>111.0</ele><time>2026-05-03T14:53:23.999Z</time></trkpt><trkpt lat="45.14998636574337" lon="8.451869027311854"><ele>111.0</ele><time>2026-05-03T14:53:24.999Z</time></trkpt><trkpt lat="45.15012729390209" lon="8.451923986876468"><ele>111.0</ele><time>2026-05-03T14:53:25.999Z</time></trkpt><trkpt lat="45.150275683449735" lon="8.451974776543697"><ele>111.0</ele><time>2026-05-03T14:53:26.999Z</time></trkpt><trkpt lat="45.150405817310165" lon="8.452007993977563"><ele>111.0</ele><time>2026-05-03T14:53:27.999Z</time></trkpt><trkpt lat="45.150519939191824" lon="8.452068863492741"><ele>111.0</ele><time>2026-05-03T14:53:28.999Z</time></trkpt><trkpt lat="45.15062694571546" lon="8.452119903540353"><ele>111.0</ele><time>2026-05-03T14:53:29.999Z</time></trkpt><trkpt lat="45.150714582050526" lon="8.452160513750401"><ele>111.0</ele><time>2026-05-03T14:53:30.999Z</time></trkpt><trkpt lat="45.15079146613868" lon="8.452197381403439"><ele>111.0</ele><time>2026-05-03T14:53:31.999Z</time></trkpt><trkpt lat="45.150857353059735" lon="8.452227711293625"><ele>110.6</ele><time>2026-05-03T14:53:32.999Z</time></trkpt><trkpt lat="45.150924297585796" lon="8.452252674989614"><ele>110.19999999999999</ele><time>2026-05-03T14:53:33.999Z</time></trkpt><trkpt lat="45.15100198648413" lon="8.452281823227503"><ele>109.80000000000001</ele><time>2026-05-03T14:53:34.999Z</time></trkpt><trkpt lat="45.15109359799682" lon="8.45233583931255"><ele>109.4</ele><time>2026-05-03T14:53:35.999Z</time></trkpt><trkpt lat="45.151203121702515" lon="8.452411119879953"><ele>109.0</ele><time>2026-05-03T14:53:36.999Z</time></trkpt><trkpt lat="45.15132747927778" lon="8.452487010757695"><ele>109.0</ele><time>2026-05-03T14:53:37.999Z</time></trkpt><trkpt lat="45.151475670133166" lon="8.45257872655893"><ele>109.0</ele><time>2026-05-03T14:53:38.999Z</time></trkpt><trkpt lat="45.1516115643576" lon="8.452674275116658"><ele>109.0</ele><time>2026-05-03T14:53:39.999Z</time></trkpt><trkpt lat="45.15176571487525" lon="8.452778678631342"><ele>109.0</ele><time>2026-05-03T14:53:40.999Z</time></trkpt><trkpt lat="45.15192480585222" lon="8.452882758614624"><ele>109.0</ele><time>2026-05-03T14:53:41.999Z</time></trkpt><trkpt lat="45.15209253283132" lon="8.452992042614587"><ele>109.0</ele><time>2026-05-03T14:53:42.999Z</time></trkpt><trkpt lat="45.152262633877875" lon="8.453108010696187"><ele>109.33333333333334</ele><time>2026-05-03T14:53:43.999Z</time></trkpt><trkpt lat="45.15244234157502" lon="8.453228896804417"><ele>109.66666666666666</ele><time>2026-05-03T14:53:44.999Z</time></trkpt><trkpt lat="45.15261974770517" lon="8.453367614163456"><ele>110.0</ele><time>2026-05-03T14:53:45.999Z</time></trkpt><trkpt lat="45.15280263044069" lon="8.453496746933698"><ele>110.0</ele><time>2026-05-03T14:53:46.999Z</time></trkpt><trkpt lat="45.152991503475945" lon="8.453624945485647"><ele>110.0</ele><time>2026-05-03T14:53:47.999Z</time></trkpt><trkpt lat="45.1531854579784" lon="8.453750815905487"><ele>110.0</ele><time>2026-05-03T14:53:49Z</time></trkpt><trkpt lat="45.15338009562238" lon="8.453876576647636"><ele>110.33333333333333</ele><time>2026-05-03T14:53:50Z</time></trkpt><trkpt lat="45.153565133639795" lon="8.454000254097362"><ele>110.66666666666666</ele><time>2026-05-03T14:53:51Z</time></trkpt><trkpt lat="45.153741605942315" lon="8.45411385492954"><ele>111.0</ele><time>2026-05-03T14:53:52Z</time></trkpt><trkpt lat="45.1538971762872" lon="8.454223997359113"><ele>111.0</ele><time>2026-05-03T14:53:53Z</time></trkpt><trkpt lat="45.15403478087186" lon="8.454327472650318"><ele>111.0</ele><time>2026-05-03T14:53:54Z</time></trkpt><trkpt lat="45.15416428901186" lon="8.454407910242805"><ele>111.0</ele><time>2026-05-03T14:53:55Z</time></trkpt><trkpt lat="45.1542712214926" lon="8.454477831132492"><ele>111.0</ele><time>2026-05-03T14:53:56Z</time></trkpt><trkpt lat="45.154369526687574" lon="8.454541953930088"><ele>111.0</ele><time>2026-05-03T14:53:57Z</time></trkpt><trkpt lat="45.15446633806065" lon="8.454597349312836"><ele>111.0</ele><time>2026-05-03T14:53:58Z</time></trkpt><trkpt lat="45.15455462880611" lon="8.454650841889489"><ele>111.0</ele><time>2026-05-03T14:53:59Z</time></trkpt><trkpt lat="45.15464939878319" lon="8.454709077676378"><ele>111.0</ele><time>2026-05-03T14:54:00Z</time></trkpt><trkpt lat="45.15476312867784" lon="8.45477630553033"><ele>111.0</ele><time>2026-05-03T14:54:01Z</time></trkpt><trkpt lat="45.15488823271658" lon="8.454871278797901"><ele>111.0</ele><time>2026-05-03T14:54:02Z</time></trkpt><trkpt lat="45.15504800109827" lon="8.454972710972896"><ele>111.0</ele><time>2026-05-03T14:54:03Z</time></trkpt><trkpt lat="45.15523070760666" lon="8.455073364938034"><ele>111.0</ele><time>2026-05-03T14:54:04Z</time></trkpt><trkpt lat="45.15543958321634" lon="8.455202280463212"><ele>111.0</ele><time>2026-05-03T14:54:05Z</time></trkpt><trkpt lat="45.15565542402573" lon="8.455371173805567"><ele>111.0</ele><time>2026-05-03T14:54:06Z</time></trkpt><trkpt lat="45.155853733793684" lon="8.455515883437394"><ele>111.0</ele><time>2026-05-03T14:54:07Z</time></trkpt><trkpt lat="45.156055031163916" lon="8.455640894352404"><ele>111.0</ele><time>2026-05-03T14:54:08Z</time></trkpt><trkpt lat="45.156256437648075" lon="8.455779618212176"><ele>111.0</ele><time>2026-05-03T14:54:09Z</time></trkpt><trkpt lat="45.15646376575671" lon="8.455911961311056"><ele>110.0</ele><time>2026-05-03T14:54:10Z</time></trkpt><trkpt lat="45.156676111991686" lon="8.456045230305755"><ele>109.0</ele><time>2026-05-03T14:54:11Z</time></trkpt><trkpt lat="45.15686745843313" lon="8.456158558506786"><ele>108.0</ele><time>2026-05-03T14:54:12Z</time></trkpt><trkpt lat="45.15704762846411" lon="8.456281171379024"><ele>108.33333333333334</ele><time>2026-05-03T14:54:13Z</time></trkpt><trkpt lat="45.15722313653149" lon="8.45639883532957"><ele>108.66666666666667</ele><time>2026-05-03T14:54:14Z</time></trkpt><trkpt lat="45.157385980126584" lon="8.45651936383887"><ele>109.0</ele><time>2026-05-03T14:54:15Z</time></trkpt><trkpt lat="45.157556628311916" lon="8.456629183679043"><ele>109.66666666666667</ele><time>2026-05-03T14:54:16Z</time></trkpt><trkpt lat="45.157716390790796" lon="8.456735073692293"><ele>110.33333333333334</ele><time>2026-05-03T14:54:17Z</time></trkpt><trkpt lat="45.15786578941597" lon="8.456836096445818"><ele>111.0</ele><time>2026-05-03T14:54:18Z</time></trkpt><trkpt lat="45.158000608752104" lon="8.456926473965542"><ele>111.0</ele><time>2026-05-03T14:54:19Z</time></trkpt><trkpt lat="45.15812626171203" lon="8.456998618148091"><ele>111.0</ele><time>2026-05-03T14:54:20Z</time></trkpt><trkpt lat="45.15820670063993" lon="8.457059821342467"><ele>111.0</ele><time>2026-05-03T14:54:21Z</time></trkpt><trkpt lat="45.15826354225956" lon="8.457122494136957"><ele>111.0</ele><time>2026-05-03T14:54:22Z</time></trkpt><trkpt lat="45.15832542113896" lon="8.457200191653508"><ele>111.0</ele><time>2026-05-03T14:54:23Z</time></trkpt><trkpt lat="45.1583765368363" lon="8.457313451314825"><ele>111.0</ele><time>2026-05-03T14:54:24Z</time></trkpt><trkpt lat="45.158422486941944" lon="8.4574632057461"><ele>111.0</ele><time>2026-05-03T14:54:25Z</time></trkpt><trkpt lat="45.15845305111145" lon="8.457647286370271"><ele>111.0</ele><time>2026-05-03T14:54:26Z</time></trkpt><trkpt lat="45.15850812065723" lon="8.457840452735269"><ele>111.0</ele><time>2026-05-03T14:54:27Z</time></trkpt><trkpt lat="45.158559694803" lon="8.458040854884478"><ele>111.0</ele><time>2026-05-03T14:54:28Z</time></trkpt><trkpt lat="45.15862280012535" lon="8.458276179132831"><ele>111.0</ele><time>2026-05-03T14:54:29Z</time></trkpt><trkpt lat="45.15868709211402" lon="8.458542587299323"><ele>111.0</ele><time>2026-05-03T14:54:30Z</time></trkpt><trkpt lat="45.15875888377682" lon="8.45880491597156"><ele>111.0</ele><time>2026-05-03T14:54:31Z</time></trkpt><trkpt lat="45.158822531031426" lon="8.459074469255965"><ele>111.0</ele><time>2026-05-03T14:54:32Z</time></trkpt><trkpt lat="45.15888008183556" lon="8.459353531211335"><ele>111.0</ele><time>2026-05-03T14:54:33Z</time></trkpt><trkpt lat="45.15895541681854" lon="8.459651413189547"><ele>111.0</ele><time>2026-05-03T14:54:34Z</time></trkpt><trkpt lat="45.159007740077726" lon="8.459947243691818"><ele>111.0</ele><time>2026-05-03T14:54:35Z</time></trkpt><trkpt lat="45.15907359880964" lon="8.460240566527029"><ele>111.0</ele><time>2026-05-03T14:54:36Z</time></trkpt><trkpt lat="45.15914405936743" lon="8.460534331778735"><ele>111.33333333333334</ele><time>2026-05-03T14:54:37Z</time></trkpt><trkpt lat="45.1592093649743" lon="8.46083112910862"><ele>111.66666666666667</ele><time>2026-05-03T14:54:38Z</time></trkpt><trkpt lat="45.159282753613965" lon="8.461136438716226"><ele>112.0</ele><time>2026-05-03T14:54:39Z</time></trkpt><trkpt lat="45.15935044821358" lon="8.461440306474056"><ele>110.5</ele><time>2026-05-03T14:54:40Z</time></trkpt><trkpt lat="45.159412987864684" lon="8.46175201126769"><ele>109.0</ele><time>2026-05-03T14:54:41Z</time></trkpt><trkpt lat="45.15949135792775" lon="8.46206408484222"><ele>108.5</ele><time>2026-05-03T14:54:42Z</time></trkpt><trkpt lat="45.159564612408" lon="8.462374454577082"><ele>108.0</ele><time>2026-05-03T14:54:43Z</time></trkpt><trkpt lat="45.159647458507074" lon="8.462693202332998"><ele>107.5</ele><time>2026-05-03T14:54:44Z</time></trkpt><trkpt lat="45.15971599682524" lon="8.463013468504172"><ele>107.0</ele><time>2026-05-03T14:54:45Z</time></trkpt><trkpt lat="45.15978929688967" lon="8.463337815200244"><ele>107.0</ele><time>2026-05-03T14:54:46Z</time></trkpt><trkpt lat="45.159865453536604" lon="8.46366534731996"><ele>107.0</ele><time>2026-05-03T14:54:47Z</time></trkpt><trkpt lat="45.15994385663179" lon="8.463987834806456"><ele>108.0</ele><time>2026-05-03T14:54:48Z</time></trkpt><trkpt lat="45.16001404522075" lon="8.46430497895618"><ele>109.0</ele><time>2026-05-03T14:54:49Z</time></trkpt><trkpt lat="45.16010002182513" lon="8.464628614781041"><ele>109.0</ele><time>2026-05-03T14:54:50Z</time></trkpt><trkpt lat="45.16017415066863" lon="8.464950330554728"><ele>109.0</ele><time>2026-05-03T14:54:51Z</time></trkpt><trkpt lat="45.16025089268442" lon="8.465270780643225"><ele>108.5</ele><time>2026-05-03T14:54:52Z</time></trkpt><trkpt lat="45.160336105464005" lon="8.465592498486043"><ele>108.0</ele><time>2026-05-03T14:54:53Z</time></trkpt><trkpt lat="45.16041113708078" lon="8.465913990937413"><ele>108.0</ele><time>2026-05-03T14:54:54Z</time></trkpt><trkpt lat="45.16048845971587" lon="8.466232750293427"><ele>108.0</ele><time>2026-05-03T14:54:55Z</time></trkpt><trkpt lat="45.160553745396" lon="8.466543290848403"><ele>108.0</ele><time>2026-05-03T14:54:56Z</time></trkpt><trkpt lat="45.16062181757904" lon="8.466840121751007"><ele>108.0</ele><time>2026-05-03T14:54:57Z</time></trkpt><trkpt lat="45.16068496505055" lon="8.467147203522185"><ele>108.0</ele><time>2026-05-03T14:54:58Z</time></trkpt><trkpt lat="45.160745803852386" lon="8.467470594231429"><ele>108.0</ele><time>2026-05-03T14:54:59Z</time></trkpt><trkpt lat="45.16080261205692" lon="8.46779879761274"><ele>108.0</ele><time>2026-05-03T14:55:00Z</time></trkpt><trkpt lat="45.16087899636242" lon="8.468126353812426"><ele>108.0</ele><time>2026-05-03T14:55:01Z</time></trkpt><trkpt lat="45.1609389920479" lon="8.468470795123956"><ele>108.0</ele><time>2026-05-03T14:55:02Z</time></trkpt><trkpt lat="45.16099023017867" lon="8.468825379232225"><ele>107.5</ele><time>2026-05-03T14:55:03Z</time></trkpt><trkpt lat="45.161038722841305" lon="8.46918359324192"><ele>107.0</ele><time>2026-05-03T14:55:04Z</time></trkpt><trkpt lat="45.161068014378365" lon="8.469544737156596"><ele>107.0</ele><time>2026-05-03T14:55:05Z</time></trkpt><trkpt lat="45.16109992910991" lon="8.469915122904144"><ele>107.0</ele><time>2026-05-03T14:55:06Z</time></trkpt><trkpt lat="45.16112204115052" lon="8.470285173934313"><ele>107.5</ele><time>2026-05-03T14:55:07Z</time></trkpt><trkpt lat="45.16114361084374" lon="8.470662339344948"><ele>108.0</ele><time>2026-05-03T14:55:08Z</time></trkpt><trkpt lat="45.161166353925495" lon="8.471045324623438"><ele>108.0</ele><time>2026-05-03T14:55:09Z</time></trkpt><trkpt lat="45.161190455654484" lon="8.4714288201059"><ele>108.0</ele><time>2026-05-03T14:55:10Z</time></trkpt><trkpt lat="45.16120718879497" lon="8.471822005943046"><ele>108.0</ele><time>2026-05-03T14:55:11Z</time></trkpt><trkpt lat="45.16121832541096" lon="8.472215853511958"><ele>108.0</ele><time>2026-05-03T14:55:11.999Z</time></trkpt><trkpt lat="45.16123431069926" lon="8.472612777637867"><ele>108.0</ele><time>2026-05-03T14:55:12.999Z</time></trkpt><trkpt lat="45.16124841406255" lon="8.473006834883636"><ele>108.0</ele><time>2026-05-03T14:55:13.999Z</time></trkpt><trkpt lat="45.16126896389447" lon="8.473402321173275"><ele>107.5</ele><time>2026-05-03T14:55:14.999Z</time></trkpt><trkpt lat="45.16129403721184" lon="8.47379949535026"><ele>107.0</ele><time>2026-05-03T14:55:15.999Z</time></trkpt><trkpt lat="45.161316777695866" lon="8.474194297543557"><ele>107.0</ele><time>2026-05-03T14:55:16.999Z</time></trkpt><trkpt lat="45.16132865880937" lon="8.47458884540335"><ele>107.0</ele><time>2026-05-03T14:55:17.999Z</time></trkpt><trkpt lat="45.16135095136764" lon="8.474985649274505"><ele>107.0</ele><time>2026-05-03T14:55:18.999Z</time></trkpt><trkpt lat="45.16137267875364" lon="8.475390877107694"><ele>107.0</ele><time>2026-05-03T14:55:19.999Z</time></trkpt><trkpt lat="45.1613910035614" lon="8.475784405265623"><ele>106.5</ele><time>2026-05-03T14:55:20.999Z</time></trkpt><trkpt lat="45.16141583083912" lon="8.476185720735419"><ele>106.0</ele><time>2026-05-03T14:55:21.999Z</time></trkpt><trkpt lat="45.16144122046132" lon="8.476588706915955"><ele>106.0</ele><time>2026-05-03T14:55:22.999Z</time></trkpt><trkpt lat="45.16145359103619" lon="8.476982644612242"><ele>106.0</ele><time>2026-05-03T14:55:23.999Z</time></trkpt><trkpt lat="45.16146818977332" lon="8.477384259350965"><ele>106.0</ele><time>2026-05-03T14:55:24.999Z</time></trkpt><trkpt lat="45.16149270834232" lon="8.477779763052373"><ele>106.0</ele><time>2026-05-03T14:55:25.999Z</time></trkpt><trkpt lat="45.16150299371049" lon="8.478170999496635"><ele>106.0</ele><time>2026-05-03T14:55:26.999Z</time></trkpt><trkpt lat="45.16152299888906" lon="8.478566442537941"><ele>106.0</ele><time>2026-05-03T14:55:27.999Z</time></trkpt><trkpt lat="45.16153966319851" lon="8.47895060548201"><ele>106.5</ele><time>2026-05-03T14:55:28.999Z</time></trkpt><trkpt lat="45.16155581561526" lon="8.479327748672075"><ele>107.0</ele><time>2026-05-03T14:55:29.999Z</time></trkpt><trkpt lat="45.16156583764515" lon="8.479699075707797"><ele>107.5</ele><time>2026-05-03T14:55:30.999Z</time></trkpt><trkpt lat="45.16158585187243" lon="8.480074543858223"><ele>108.0</ele><time>2026-05-03T14:55:31.999Z</time></trkpt><trkpt lat="45.161605419417164" lon="8.480450418996398"><ele>109.0</ele><time>2026-05-03T14:55:32.999Z</time></trkpt><trkpt lat="45.16161722904297" lon="8.48081948182376"><ele>110.0</ele><time>2026-05-03T14:55:33.999Z</time></trkpt><trkpt lat="45.16163941818246" lon="8.481196806719687"><ele>109.5</ele><time>2026-05-03T14:55:34.999Z</time></trkpt><trkpt lat="45.161657497192195" lon="8.481568724005836"><ele>109.0</ele><time>2026-05-03T14:55:35.999Z</time></trkpt><trkpt lat="45.161682298789906" lon="8.481943353441967"><ele>109.0</ele><time>2026-05-03T14:55:36.999Z</time></trkpt><trkpt lat="45.16170108337859" lon="8.482325330804281"><ele>109.0</ele><time>2026-05-03T14:55:37.999Z</time></trkpt><trkpt lat="45.16172349991782" lon="8.48270322199089"><ele>108.5</ele><time>2026-05-03T14:55:38.999Z</time></trkpt><trkpt lat="45.16173058601286" lon="8.483081086568072"><ele>108.0</ele><time>2026-05-03T14:55:39.999Z</time></trkpt><trkpt lat="45.16175681119816" lon="8.483467157188567"><ele>107.5</ele><time>2026-05-03T14:55:40.999Z</time></trkpt><trkpt lat="45.16178939084366" lon="8.48386163469053"><ele>107.0</ele><time>2026-05-03T14:55:41.999Z</time></trkpt><trkpt lat="45.161801156026996" lon="8.48426062757516"><ele>106.5</ele><time>2026-05-03T14:55:42.999Z</time></trkpt><trkpt lat="45.16183339521238" lon="8.48464866561269"><ele>106.0</ele><time>2026-05-03T14:55:43.999Z</time></trkpt><trkpt lat="45.161868277914415" lon="8.48505485707288"><ele>107.0</ele><time>2026-05-03T14:55:44.999Z</time></trkpt><trkpt lat="45.161896449036554" lon="8.485453594927142"><ele>108.0</ele><time>2026-05-03T14:55:45.999Z</time></trkpt><trkpt lat="45.16191919874509" lon="8.48584745108816"><ele>108.0</ele><time>2026-05-03T14:55:46.999Z</time></trkpt><trkpt lat="45.16193281258513" lon="8.486249152162149"><ele>108.0</ele><time>2026-05-03T14:55:47.999Z</time></trkpt><trkpt lat="45.16194770659084" lon="8.486649064063032"><ele>108.0</ele><time>2026-05-03T14:55:48.999Z</time></trkpt><trkpt lat="45.16195520607763" lon="8.487047381316634"><ele>108.0</ele><time>2026-05-03T14:55:49.999Z</time></trkpt><trkpt lat="45.16197785406211" lon="8.487437011570666"><ele>108.0</ele><time>2026-05-03T14:55:50.999Z</time></trkpt><trkpt lat="45.16201535835502" lon="8.487836153509672"><ele>108.0</ele><time>2026-05-03T14:55:51.999Z</time></trkpt><trkpt lat="45.16202948083253" lon="8.488241048627636"><ele>108.0</ele><time>2026-05-03T14:55:52.999Z</time></trkpt><trkpt lat="45.16204876138814" lon="8.488650766618855"><ele>108.0</ele><time>2026-05-03T14:55:53.999Z</time></trkpt><trkpt lat="45.16206988837443" lon="8.489048087251778"><ele>108.0</ele><time>2026-05-03T14:55:55Z</time></trkpt><trkpt lat="45.16209387881984" lon="8.489442994072556"><ele>108.0</ele><time>2026-05-03T14:55:56Z</time></trkpt><trkpt lat="45.16212055124131" lon="8.48984110913879"><ele>107.0</ele><time>2026-05-03T14:55:57Z</time></trkpt><trkpt lat="45.162138139169954" lon="8.490228335965059"><ele>106.0</ele><time>2026-05-03T14:55:58Z</time></trkpt><trkpt lat="45.162156681981855" lon="8.490613747941685"><ele>106.0</ele><time>2026-05-03T14:55:59Z</time></trkpt><trkpt lat="45.16217458016585" lon="8.49099268300845"><ele>106.0</ele><time>2026-05-03T14:56:00Z</time></trkpt><trkpt lat="45.162193278788656" lon="8.49136466283458"><ele>106.0</ele><time>2026-05-03T14:56:01Z</time></trkpt><trkpt lat="45.16220864833218" lon="8.4917230909487"><ele>106.0</ele><time>2026-05-03T14:56:02Z</time></trkpt><trkpt lat="45.1622406431082" lon="8.492075670368235"><ele>105.5</ele><time>2026-05-03T14:56:03Z</time></trkpt><trkpt lat="45.1622566373724" lon="8.492428272535427"><ele>105.0</ele><time>2026-05-03T14:56:04Z</time></trkpt><trkpt lat="45.16227286583103" lon="8.492793453915922"><ele>104.5</ele><time>2026-05-03T14:56:05Z</time></trkpt><trkpt lat="45.16229288099241" lon="8.493147096888892"><ele>104.0</ele><time>2026-05-03T14:56:06Z</time></trkpt><trkpt lat="45.16231606204634" lon="8.49350932594276"><ele>104.5</ele><time>2026-05-03T14:56:07Z</time></trkpt><trkpt lat="45.16233507814001" lon="8.49386277662373"><ele>105.0</ele><time>2026-05-03T14:56:08Z</time></trkpt><trkpt lat="45.16234804279211" lon="8.494224454668476"><ele>105.0</ele><time>2026-05-03T14:56:09Z</time></trkpt><trkpt lat="45.162363558186485" lon="8.494594135482075"><ele>105.0</ele><time>2026-05-03T14:56:10Z</time></trkpt><trkpt lat="45.162392114912215" lon="8.494973267300306"><ele>105.0</ele><time>2026-05-03T14:56:11Z</time></trkpt><trkpt lat="45.1624001213671" lon="8.495335043550185"><ele>105.0</ele><time>2026-05-03T14:56:12Z</time></trkpt><trkpt lat="45.162418132616025" lon="8.495704684467158"><ele>105.0</ele><time>2026-05-03T14:56:13Z</time></trkpt><trkpt lat="45.16243444895372" lon="8.496077748542005"><ele>105.0</ele><time>2026-05-03T14:56:14Z</time></trkpt><trkpt lat="45.16245172195611" lon="8.496440906340439"><ele>105.0</ele><time>2026-05-03T14:56:15Z</time></trkpt><trkpt lat="45.16247612729355" lon="8.4968050979572"><ele>105.0</ele><time>2026-05-03T14:56:16Z</time></trkpt><trkpt lat="45.16251835741882" lon="8.497176024857094"><ele>104.5</ele><time>2026-05-03T14:56:17Z</time></trkpt><trkpt lat="45.16254159543228" lon="8.497546511589219"><ele>104.0</ele><time>2026-05-03T14:56:18Z</time></trkpt><trkpt lat="45.16256501878318" lon="8.49791064958704"><ele>104.0</ele><time>2026-05-03T14:56:19Z</time></trkpt><trkpt lat="45.16258381638022" lon="8.498274180552382"><ele>104.0</ele><time>2026-05-03T14:56:20Z</time></trkpt><trkpt lat="45.16260087182153" lon="8.498635408403416"><ele>104.5</ele><time>2026-05-03T14:56:21Z</time></trkpt><trkpt lat="45.16261798605389" lon="8.49900114419412"><ele>105.0</ele><time>2026-05-03T14:56:22Z</time></trkpt><trkpt lat="45.16262937331327" lon="8.499361122599142"><ele>105.5</ele><time>2026-05-03T14:56:23Z</time></trkpt><trkpt lat="45.16263879631905" lon="8.499724484179637"><ele>106.0</ele><time>2026-05-03T14:56:24Z</time></trkpt><trkpt lat="45.16264583560242" lon="8.500083617936347"><ele>106.0</ele><time>2026-05-03T14:56:25Z</time></trkpt><trkpt lat="45.16266501441333" lon="8.500463998465074"><ele>106.0</ele><time>2026-05-03T14:56:26Z</time></trkpt><trkpt lat="45.162678957708046" lon="8.500838325461888"><ele>106.0</ele><time>2026-05-03T14:56:27Z</time></trkpt><trkpt lat="45.162705756599486" lon="8.501209784389063"><ele>106.0</ele><time>2026-05-03T14:56:28Z</time></trkpt><trkpt lat="45.16272869478465" lon="8.501594435242405"><ele>105.5</ele><time>2026-05-03T14:56:29Z</time></trkpt><trkpt lat="45.162754371960936" lon="8.501977061076891"><ele>105.0</ele><time>2026-05-03T14:56:30Z</time></trkpt><trkpt lat="45.162766263414234" lon="8.50236242997593"><ele>104.5</ele><time>2026-05-03T14:56:31Z</time></trkpt><trkpt lat="45.16279062719275" lon="8.502741505432079"><ele>104.0</ele><time>2026-05-03T14:56:32Z</time></trkpt><trkpt lat="45.16281043011907" lon="8.503125652208581"><ele>103.5</ele><time>2026-05-03T14:56:33Z</time></trkpt><trkpt lat="45.16283179504244" lon="8.503512504522794"><ele>103.0</ele><time>2026-05-03T14:56:34Z</time></trkpt><trkpt lat="45.162848020397156" lon="8.503897826968139"><ele>103.5</ele><time>2026-05-03T14:56:35Z</time></trkpt><trkpt lat="45.16287660638875" lon="8.504290975570438"><ele>104.0</ele><time>2026-05-03T14:56:36Z</time></trkpt><trkpt lat="45.16290788267048" lon="8.50467752282251"><ele>104.0</ele><time>2026-05-03T14:56:37Z</time></trkpt><trkpt lat="45.16293672611023" lon="8.505059523724883"><ele>104.0</ele><time>2026-05-03T14:56:38Z</time></trkpt><trkpt lat="45.16295279055412" lon="8.505444641190083"><ele>103.5</ele><time>2026-05-03T14:56:39Z</time></trkpt><trkpt lat="45.162977176381446" lon="8.50582011540017"><ele>103.0</ele><time>2026-05-03T14:56:40Z</time></trkpt><trkpt lat="45.1629886860283" lon="8.506199514444642"><ele>103.5</ele><time>2026-05-03T14:56:41Z</time></trkpt><trkpt lat="45.162998899299666" lon="8.506576071555887"><ele>104.0</ele><time>2026-05-03T14:56:42Z</time></trkpt><trkpt lat="45.16302228360846" lon="8.506936039142163"><ele>104.0</ele><time>2026-05-03T14:56:43Z</time></trkpt><trkpt lat="45.163032622149984" lon="8.507298978426782"><ele>104.0</ele><time>2026-05-03T14:56:44Z</time></trkpt><trkpt lat="45.163048778819395" lon="8.507646600592357"><ele>103.5</ele><time>2026-05-03T14:56:45Z</time></trkpt><trkpt lat="45.16307181896515" lon="8.507995982962612"><ele>103.0</ele><time>2026-05-03T14:56:46Z</time></trkpt><trkpt lat="45.16307714047225" lon="8.508339169350469"><ele>103.0</ele><time>2026-05-03T14:56:47Z</time></trkpt><trkpt lat="45.163087423759656" lon="8.508676198900597"><ele>103.0</ele><time>2026-05-03T14:56:48Z</time></trkpt><trkpt lat="45.16311043898141" lon="8.509007247268539"><ele>103.0</ele><time>2026-05-03T14:56:49Z</time></trkpt><trkpt lat="45.163132275713906" lon="8.50933425140257"><ele>103.0</ele><time>2026-05-03T14:56:50Z</time></trkpt><trkpt lat="45.16315481553591" lon="8.509667542890407"><ele>103.0</ele><time>2026-05-03T14:56:51Z</time></trkpt><trkpt lat="45.16316910811156" lon="8.509997652727245"><ele>103.0</ele><time>2026-05-03T14:56:52Z</time></trkpt><trkpt lat="45.16319608567616" lon="8.510344330900521"><ele>103.5</ele><time>2026-05-03T14:56:53Z</time></trkpt><trkpt lat="45.16321189852327" lon="8.510668326992427"><ele>104.0</ele><time>2026-05-03T14:56:54Z</time></trkpt><trkpt lat="45.163220312880945" lon="8.510995217867187"><ele>104.33333333333333</ele><time>2026-05-03T14:56:55Z</time></trkpt><trkpt lat="45.16324170226902" lon="8.51131187351142"><ele>104.66666666666666</ele><time>2026-05-03T14:56:56Z</time></trkpt><trkpt lat="45.16326132593575" lon="8.511614332271499"><ele>105.0</ele><time>2026-05-03T14:56:57Z</time></trkpt><trkpt lat="45.163268091186275" lon="8.511912777133396"><ele>105.33333333333334</ele><time>2026-05-03T14:56:58Z</time></trkpt><trkpt lat="45.16328602140183" lon="8.512195950798402"><ele>105.66666666666667</ele><time>2026-05-03T14:56:59Z</time></trkpt><trkpt lat="45.16329014061973" lon="8.512483539656866"><ele>106.0</ele><time>2026-05-03T14:57:00Z</time></trkpt><trkpt lat="45.16330875615909" lon="8.512765042215262"><ele>105.66666666666667</ele><time>2026-05-03T14:57:01Z</time></trkpt><trkpt lat="45.16332485183337" lon="8.513049720382705"><ele>105.33333333333334</ele><time>2026-05-03T14:57:02Z</time></trkpt><trkpt lat="45.163339431760434" lon="8.513331427127193"><ele>105.0</ele><time>2026-05-03T14:57:03Z</time></trkpt><trkpt lat="45.16334719072487" lon="8.513612248038754"><ele>104.33333333333334</ele><time>2026-05-03T14:57:04Z</time></trkpt><trkpt lat="45.16336088901133" lon="8.513880956521968"><ele>103.66666666666667</ele><time>2026-05-03T14:57:05Z</time></trkpt><trkpt lat="45.16337188392764" lon="8.514157808611737"><ele>103.0</ele><time>2026-05-03T14:57:06Z</time></trkpt><trkpt lat="45.16339011568212" lon="8.51443547911727"><ele>103.0</ele><time>2026-05-03T14:57:07Z</time></trkpt><trkpt lat="45.16341662001268" lon="8.51471685438873"><ele>103.0</ele><time>2026-05-03T14:57:08Z</time></trkpt><trkpt lat="45.16342875588806" lon="8.514999446023403"><ele>103.0</ele><time>2026-05-03T14:57:09Z</time></trkpt><trkpt lat="45.163444675279756" lon="8.515277389051237"><ele>103.66666666666667</ele><time>2026-05-03T14:57:10Z</time></trkpt><trkpt lat="45.16346416467949" lon="8.51556016355752"><ele>104.33333333333334</ele><time>2026-05-03T14:57:11Z</time></trkpt><trkpt lat="45.16348220140171" lon="8.515843279155408"><ele>105.0</ele><time>2026-05-03T14:57:12Z</time></trkpt><trkpt lat="45.163490110513166" lon="8.516124151003543"><ele>104.66666666666666</ele><time>2026-05-03T14:57:13Z</time></trkpt><trkpt lat="45.16350163562154" lon="8.516405235215476"><ele>104.33333333333333</ele><time>2026-05-03T14:57:14Z</time></trkpt><trkpt lat="45.16351441152536" lon="8.51668874376772"><ele>104.0</ele><time>2026-05-03T14:57:15Z</time></trkpt><trkpt lat="45.16351997079298" lon="8.516959578900781"><ele>104.33333333333333</ele><time>2026-05-03T14:57:16Z</time></trkpt><trkpt lat="45.163534287885604" lon="8.517218043064549"><ele>104.66666666666666</ele><time>2026-05-03T14:57:17Z</time></trkpt><trkpt lat="45.16354652357596" lon="8.51746900564102"><ele>105.0</ele><time>2026-05-03T14:57:18Z</time></trkpt><trkpt lat="45.163556646702595" lon="8.517703136043032"><ele>104.66666666666666</ele><time>2026-05-03T14:57:19Z</time></trkpt><trkpt lat="45.16357181911421" lon="8.517936583698022"><ele>104.33333333333333</ele><time>2026-05-03T14:57:20Z</time></trkpt><trkpt lat="45.163582913666204" lon="8.518173205529274"><ele>104.0</ele><time>2026-05-03T14:57:21Z</time></trkpt><trkpt lat="45.163595386096766" lon="8.51840940995753"><ele>104.0</ele><time>2026-05-03T14:57:22Z</time></trkpt><trkpt lat="45.16361560398517" lon="8.518645593091575"><ele>104.0</ele><time>2026-05-03T14:57:23Z</time></trkpt><trkpt lat="45.16362638716291" lon="8.518880418650417"><ele>104.0</ele><time>2026-05-03T14:57:24Z</time></trkpt><trkpt lat="45.16363477721425" lon="8.519120689317623"><ele>104.0</ele><time>2026-05-03T14:57:25Z</time></trkpt><trkpt lat="45.16364770480364" lon="8.519348522915022"><ele>104.0</ele><time>2026-05-03T14:57:26Z</time></trkpt><trkpt lat="45.16365740146186" lon="8.519587297273908"><ele>104.0</ele><time>2026-05-03T14:57:27Z</time></trkpt><trkpt lat="45.16367597207897" lon="8.519840874197842"><ele>104.0</ele><time>2026-05-03T14:57:28Z</time></trkpt><trkpt lat="45.16369417281933" lon="8.520090987946949"><ele>104.0</ele><time>2026-05-03T14:57:29Z</time></trkpt><trkpt lat="45.16370324374891" lon="8.520328387544035"><ele>104.0</ele><time>2026-05-03T14:57:30Z</time></trkpt><trkpt lat="45.16371433054338" lon="8.520564252520636"><ele>105.0</ele><time>2026-05-03T14:57:31Z</time></trkpt><trkpt lat="45.163720286328285" lon="8.520800404988883"><ele>106.0</ele><time>2026-05-03T14:57:32Z</time></trkpt><trkpt lat="45.163714827532694" lon="8.521046170492115"><ele>107.0</ele><time>2026-05-03T14:57:33Z</time></trkpt><trkpt lat="45.16372409035097" lon="8.521279853355699"><ele>107.0</ele><time>2026-05-03T14:57:34Z</time></trkpt><trkpt lat="45.16373398959268" lon="8.521511436406044"><ele>107.0</ele><time>2026-05-03T14:57:35Z</time></trkpt><trkpt lat="45.163740830057115" lon="8.5217280957463"><ele>107.0</ele><time>2026-05-03T14:57:36Z</time></trkpt><trkpt lat="45.16375671896812" lon="8.521941769251747"><ele>107.0</ele><time>2026-05-03T14:57:37Z</time></trkpt><trkpt lat="45.16376131037991" lon="8.52214520865528"><ele>107.0</ele><time>2026-05-03T14:57:37.999Z</time></trkpt><trkpt lat="45.16376566253252" lon="8.522342876590555"><ele>107.0</ele><time>2026-05-03T14:57:38.999Z</time></trkpt><trkpt lat="45.16377795625687" lon="8.522538180713223"><ele>107.0</ele><time>2026-05-03T14:57:39.999Z</time></trkpt><trkpt lat="45.16380879691419" lon="8.522708965525606"><ele>107.0</ele><time>2026-05-03T14:57:40.999Z</time></trkpt><trkpt lat="45.163831670842754" lon="8.522887081519638"><ele>107.0</ele><time>2026-05-03T14:57:41.999Z</time></trkpt><trkpt lat="45.16386792937191" lon="8.523063803348366"><ele>107.0</ele><time>2026-05-03T14:57:42.999Z</time></trkpt><trkpt lat="45.16389164171977" lon="8.523233970551138"><ele>107.0</ele><time>2026-05-03T14:57:43.999Z</time></trkpt><trkpt lat="45.16391429301682" lon="8.523392107227693"><ele>107.0</ele><time>2026-05-03T14:57:44.999Z</time></trkpt><trkpt lat="45.16393902292976" lon="8.523552348133276"><ele>107.0</ele><time>2026-05-03T14:57:45.999Z</time></trkpt><trkpt lat="45.163963344452334" lon="8.523721519668243"><ele>107.0</ele><time>2026-05-03T14:57:46.999Z</time></trkpt><trkpt lat="45.163982119710326" lon="8.523902156746143"><ele>107.0</ele><time>2026-05-03T14:57:47.999Z</time></trkpt><trkpt lat="45.16400495115963" lon="8.524071385869735"><ele>107.0</ele><time>2026-05-03T14:57:48.999Z</time></trkpt><trkpt lat="45.1640313185117" lon="8.524246335262578"><ele>107.0</ele><time>2026-05-03T14:57:49.999Z</time></trkpt><trkpt lat="45.1640588813039" lon="8.524432827079089"><ele>107.0</ele><time>2026-05-03T14:57:50.999Z</time></trkpt><trkpt lat="45.164095173667214" lon="8.524606243058281"><ele>107.0</ele><time>2026-05-03T14:57:51.999Z</time></trkpt><trkpt lat="45.16411394264711" lon="8.52479138891674"><ele>106.75</ele><time>2026-05-03T14:57:52.999Z</time></trkpt><trkpt lat="45.16413500780697" lon="8.524986078312"><ele>106.5</ele><time>2026-05-03T14:57:53.999Z</time></trkpt><trkpt lat="45.16415116576145" lon="8.525180899072646"><ele>106.25</ele><time>2026-05-03T14:57:54.999Z</time></trkpt><trkpt lat="45.164160752637734" lon="8.525385944582935"><ele>106.0</ele><time>2026-05-03T14:57:55.999Z</time></trkpt><trkpt lat="45.16418581465869" lon="8.525570239382006"><ele>105.75</ele><time>2026-05-03T14:57:56.999Z</time></trkpt><trkpt lat="45.16420293852312" lon="8.525767148784574"><ele>105.5</ele><time>2026-05-03T14:57:57.999Z</time></trkpt><trkpt lat="45.16423248904371" lon="8.525958050135273"><ele>105.25</ele><time>2026-05-03T14:57:58.999Z</time></trkpt><trkpt lat="45.16425025224945" lon="8.526158890309137"><ele>105.0</ele><time>2026-05-03T14:57:59.999Z</time></trkpt><trkpt lat="45.164243840537296" lon="8.52634841457527"><ele>105.25</ele><time>2026-05-03T14:58:01Z</time></trkpt><trkpt lat="45.16426064482653" lon="8.526541666871024"><ele>105.5</ele><time>2026-05-03T14:58:02Z</time></trkpt><trkpt lat="45.16427927538804" lon="8.526732789172867"><ele>105.75</ele><time>2026-05-03T14:58:03Z</time></trkpt><trkpt lat="45.16429447816159" lon="8.526937341090239"><ele>106.0</ele><time>2026-05-03T14:58:04Z</time></trkpt><trkpt lat="45.16431818422073" lon="8.52715747890395"><ele>106.0</ele><time>2026-05-03T14:58:05Z</time></trkpt><trkpt lat="45.16432786939156" lon="8.527381165912512"><ele>106.0</ele><time>2026-05-03T14:58:06Z</time></trkpt><trkpt lat="45.16433726670067" lon="8.527612743340798"><ele>106.0</ele><time>2026-05-03T14:58:07Z</time></trkpt><trkpt lat="45.16436207777123" lon="8.527845071551846"><ele>105.66666666666667</ele><time>2026-05-03T14:58:08Z</time></trkpt><trkpt lat="45.16435283414905" lon="8.528064032300513"><ele>105.33333333333334</ele><time>2026-05-03T14:58:09Z</time></trkpt><trkpt lat="45.16436446745193" lon="8.528283004829671"><ele>105.0</ele><time>2026-05-03T14:58:10Z</time></trkpt><trkpt lat="45.164376257566936" lon="8.528503886064737"><ele>104.66666666666666</ele><time>2026-05-03T14:58:11Z</time></trkpt><trkpt lat="45.16439880744012" lon="8.528741122803265"><ele>104.33333333333333</ele><time>2026-05-03T14:58:12Z</time></trkpt><trkpt lat="45.16441641660534" lon="8.528956643492279"><ele>104.0</ele><time>2026-05-03T14:58:13Z</time></trkpt><trkpt lat="45.164460710907015" lon="8.529172036601468"><ele>104.0</ele><time>2026-05-03T14:58:14Z</time></trkpt><trkpt lat="45.164526759158186" lon="8.529394073616205"><ele>104.0</ele><time>2026-05-03T14:58:15Z</time></trkpt><trkpt lat="45.16459295480125" lon="8.529596552952201"><ele>104.0</ele><time>2026-05-03T14:58:16Z</time></trkpt><trkpt lat="45.16467273080103" lon="8.529830363779256"><ele>104.0</ele><time>2026-05-03T14:58:17Z</time></trkpt><trkpt lat="45.16474896096298" lon="8.530064148754002"><ele>104.0</ele><time>2026-05-03T14:58:18Z</time></trkpt><trkpt lat="45.16482179847506" lon="8.530295647943788"><ele>104.0</ele><time>2026-05-03T14:58:19Z</time></trkpt><trkpt lat="45.1648886110383" lon="8.53052809289813"><ele>104.0</ele><time>2026-05-03T14:58:20Z</time></trkpt><trkpt lat="45.164969276880015" lon="8.530772498569283"><ele>104.0</ele><time>2026-05-03T14:58:21Z</time></trkpt><trkpt lat="45.1650492161241" lon="8.531034801361338"><ele>104.0</ele><time>2026-05-03T14:58:22Z</time></trkpt><trkpt lat="45.16511972717129" lon="8.531298751945988"><ele>104.0</ele><time>2026-05-03T14:58:23Z</time></trkpt><trkpt lat="45.165206171943645" lon="8.531578786111213"><ele>104.0</ele><time>2026-05-03T14:58:24Z</time></trkpt><trkpt lat="45.165314818690824" lon="8.53188408598446"><ele>103.0</ele><time>2026-05-03T14:58:25Z</time></trkpt><trkpt lat="45.16540479954015" lon="8.532195228406707"><ele>102.0</ele><time>2026-05-03T14:58:26Z</time></trkpt><trkpt lat="45.16549330681003" lon="8.532502644686204"><ele>102.0</ele><time>2026-05-03T14:58:27Z</time></trkpt><trkpt lat="45.16559584087036" lon="8.532829642859836"><ele>102.0</ele><time>2026-05-03T14:58:28Z</time></trkpt><trkpt lat="45.16568680273141" lon="8.533154033042226"><ele>102.0</ele><time>2026-05-03T14:58:29Z</time></trkpt><trkpt lat="45.16579442181891" lon="8.5334831224017"><ele>102.0</ele><time>2026-05-03T14:58:30Z</time></trkpt><trkpt lat="45.16589829221025" lon="8.533824684280283"><ele>102.0</ele><time>2026-05-03T14:58:31Z</time></trkpt><trkpt lat="45.16599585430964" lon="8.534161467805333"><ele>102.0</ele><time>2026-05-03T14:58:32Z</time></trkpt><trkpt lat="45.16609959479895" lon="8.534500124540543"><ele>101.5</ele><time>2026-05-03T14:58:33Z</time></trkpt><trkpt lat="45.166198631707054" lon="8.534839423642564"><ele>101.0</ele><time>2026-05-03T14:58:34Z</time></trkpt><trkpt lat="45.1662970481868" lon="8.535174868644457"><ele>101.0</ele><time>2026-05-03T14:58:35Z</time></trkpt><trkpt lat="45.16638869250618" lon="8.535511793659412"><ele>101.0</ele><time>2026-05-03T14:58:36Z</time></trkpt><trkpt lat="45.16648647431876" lon="8.53585006546562"><ele>101.0</ele><time>2026-05-03T14:58:37Z</time></trkpt><trkpt lat="45.16658679906469" lon="8.536171151856266"><ele>101.0</ele><time>2026-05-03T14:58:38Z</time></trkpt><trkpt lat="45.166678312823244" lon="8.53648621247607"><ele>101.0</ele><time>2026-05-03T14:58:39Z</time></trkpt><trkpt lat="45.16676847951953" lon="8.53680241332598"><ele>101.0</ele><time>2026-05-03T14:58:40Z</time></trkpt><trkpt lat="45.166862089625724" lon="8.53711715621827"><ele>101.5</ele><time>2026-05-03T14:58:41Z</time></trkpt><trkpt lat="45.16696209863448" lon="8.537430001019118"><ele>102.0</ele><time>2026-05-03T14:58:42Z</time></trkpt><trkpt lat="45.167058146041235" lon="8.537740881025258"><ele>101.5</ele><time>2026-05-03T14:58:43Z</time></trkpt><trkpt lat="45.1671453947585" lon="8.538049783774389"><ele>101.0</ele><time>2026-05-03T14:58:44Z</time></trkpt><trkpt lat="45.16722929268536" lon="8.538355057954037"><ele>101.0</ele><time>2026-05-03T14:58:45Z</time></trkpt><trkpt lat="45.16731716809373" lon="8.538658787297795"><ele>101.0</ele><time>2026-05-03T14:58:46Z</time></trkpt><trkpt lat="45.167396910890446" lon="8.538954782124394"><ele>101.5</ele><time>2026-05-03T14:58:47Z</time></trkpt><trkpt lat="45.16748126155219" lon="8.539252993376556"><ele>102.0</ele><time>2026-05-03T14:58:48Z</time></trkpt><trkpt lat="45.16756682120528" lon="8.539548424707395"><ele>101.66666666666666</ele><time>2026-05-03T14:58:49Z</time></trkpt><trkpt lat="45.167652720933056" lon="8.539834171536736"><ele>101.33333333333333</ele><time>2026-05-03T14:58:50Z</time></trkpt><trkpt lat="45.16772896980239" lon="8.540125996129982"><ele>101.0</ele><time>2026-05-03T14:58:51Z</time></trkpt><trkpt lat="45.16781240354355" lon="8.540412253927554"><ele>100.66666666666666</ele><time>2026-05-03T14:58:52Z</time></trkpt><trkpt lat="45.16789243586137" lon="8.540686646925296"><ele>100.33333333333334</ele><time>2026-05-03T14:58:53Z</time></trkpt><trkpt lat="45.16796898995328" lon="8.54095744553569"><ele>100.0</ele><time>2026-05-03T14:58:54Z</time></trkpt><trkpt lat="45.16804012067723" lon="8.54120608545241"><ele>100.33333333333334</ele><time>2026-05-03T14:58:55Z</time></trkpt><trkpt lat="45.16811203669516" lon="8.54145350950759"><ele>100.66666666666666</ele><time>2026-05-03T14:58:56Z</time></trkpt><trkpt lat="45.168180242232175" lon="8.541704029764627"><ele>101.0</ele><time>2026-05-03T14:58:57Z</time></trkpt><trkpt lat="45.1682482234013" lon="8.541945327620995"><ele>101.0</ele><time>2026-05-03T14:58:58Z</time></trkpt><trkpt lat="45.16832760371521" lon="8.542181903881602"><ele>101.0</ele><time>2026-05-03T14:58:59Z</time></trkpt><trkpt lat="45.16840577042406" lon="8.542419320428753"><ele>101.0</ele><time>2026-05-03T14:59:00Z</time></trkpt><trkpt lat="45.16848618200786" lon="8.542670143817615"><ele>101.0</ele><time>2026-05-03T14:59:01Z</time></trkpt><trkpt lat="45.16857464187594" lon="8.54293968041794"><ele>101.0</ele><time>2026-05-03T14:59:02Z</time></trkpt><trkpt lat="45.16867216822701" lon="8.543221696943577"><ele>101.0</ele><time>2026-05-03T14:59:03Z</time></trkpt><trkpt lat="45.16876889839496" lon="8.543523044645564"><ele>101.0</ele><time>2026-05-03T14:59:04Z</time></trkpt><trkpt lat="45.168853111318036" lon="8.543839996160624"><ele>101.0</ele><time>2026-05-03T14:59:05Z</time></trkpt><trkpt lat="45.16895130566227" lon="8.544158281446537"><ele>100.5</ele><time>2026-05-03T14:59:06Z</time></trkpt><trkpt lat="45.1690437201443" lon="8.544497261729024"><ele>100.0</ele><time>2026-05-03T14:59:07Z</time></trkpt><trkpt lat="45.169155978623884" lon="8.544830671605435"><ele>100.0</ele><time>2026-05-03T14:59:08Z</time></trkpt><trkpt lat="45.16925784160071" lon="8.54516277051029"><ele>100.0</ele><time>2026-05-03T14:59:09Z</time></trkpt><trkpt lat="45.16936041423262" lon="8.54549531570996"><ele>100.5</ele><time>2026-05-03T14:59:10Z</time></trkpt><trkpt lat="45.16947075123859" lon="8.54582941089848"><ele>101.0</ele><time>2026-05-03T14:59:11Z</time></trkpt><trkpt lat="45.16957281498073" lon="8.546170237640093"><ele>100.5</ele><time>2026-05-03T14:59:12Z</time></trkpt><trkpt lat="45.169672608557725" lon="8.54650782175504"><ele>100.0</ele><time>2026-05-03T14:59:13Z</time></trkpt><trkpt lat="45.16976957030552" lon="8.546844512623975"><ele>100.0</ele><time>2026-05-03T14:59:14Z</time></trkpt><trkpt lat="45.16986414896284" lon="8.547171956814854"><ele>100.0</ele><time>2026-05-03T14:59:15Z</time></trkpt><trkpt lat="45.16996190314225" lon="8.547495344132546"><ele>100.0</ele><time>2026-05-03T14:59:16Z</time></trkpt><trkpt lat="45.17005579299829" lon="8.547804053116947"><ele>100.0</ele><time>2026-05-03T14:59:17Z</time></trkpt><trkpt lat="45.17015988893998" lon="8.548091417762725"><ele>100.33333333333334</ele><time>2026-05-03T14:59:18Z</time></trkpt><trkpt lat="45.17024333767231" lon="8.548378771497491"><ele>100.66666666666666</ele><time>2026-05-03T14:59:19Z</time></trkpt><trkpt lat="45.17034018783215" lon="8.54866061491872"><ele>101.0</ele><time>2026-05-03T14:59:20Z</time></trkpt><trkpt lat="45.17041942914951" lon="8.5489444927999"><ele>101.33333333333333</ele><time>2026-05-03T14:59:21Z</time></trkpt><trkpt lat="45.170502120548804" lon="8.54920111981306"><ele>101.66666666666666</ele><time>2026-05-03T14:59:22Z</time></trkpt><trkpt lat="45.17059480496509" lon="8.549448107390054"><ele>102.0</ele><time>2026-05-03T14:59:23Z</time></trkpt><trkpt lat="45.17070820379371" lon="8.549641873107525"><ele>101.33333333333334</ele><time>2026-05-03T14:59:24Z</time></trkpt><trkpt lat="45.170851170430886" lon="8.549795531255764"><ele>100.66666666666667</ele><time>2026-05-03T14:59:25Z</time></trkpt><trkpt lat="45.17102236626533" lon="8.549894901008317"><ele>100.0</ele><time>2026-05-03T14:59:26Z</time></trkpt><trkpt lat="45.171215290062285" lon="8.549937191795603"><ele>100.0</ele><time>2026-05-03T14:59:27Z</time></trkpt><trkpt lat="45.17141714941847" lon="8.549910035362771"><ele>100.0</ele><time>2026-05-03T14:59:28Z</time></trkpt><trkpt lat="45.17162936875143" lon="8.549841477483646"><ele>100.0</ele><time>2026-05-03T14:59:29Z</time></trkpt><trkpt lat="45.171864883474335" lon="8.549759005870897"><ele>101.5</ele><time>2026-05-03T14:59:30Z</time></trkpt><trkpt lat="45.17209577947407" lon="8.549671686439416"><ele>103.0</ele><time>2026-05-03T14:59:31Z</time></trkpt><trkpt lat="45.172315873307056" lon="8.54958508789318"><ele>102.5</ele><time>2026-05-03T14:59:32Z</time></trkpt><trkpt lat="45.1725417370659" lon="8.549505568203411"><ele>102.0</ele><time>2026-05-03T14:59:33Z</time></trkpt><trkpt lat="45.172753258399766" lon="8.549418728771718"><ele>102.0</ele><time>2026-05-03T14:59:34Z</time></trkpt><trkpt lat="45.17296992956912" lon="8.549332376662747"><ele>102.0</ele><time>2026-05-03T14:59:35Z</time></trkpt><trkpt lat="45.17317866046828" lon="8.54926682267078"><ele>102.0</ele><time>2026-05-03T14:59:36Z</time></trkpt><trkpt lat="45.173373850780365" lon="8.5492039005333"><ele>102.33333333333334</ele><time>2026-05-03T14:59:37Z</time></trkpt><trkpt lat="45.17355555289998" lon="8.549159205932522"><ele>102.66666666666667</ele><time>2026-05-03T14:59:38Z</time></trkpt><trkpt lat="45.17372468381036" lon="8.549165110326818"><ele>103.0</ele><time>2026-05-03T14:59:38.999Z</time></trkpt><trkpt lat="45.17389088387302" lon="8.549220749367962"><ele>102.66666666666667</ele><time>2026-05-03T14:59:39.999Z</time></trkpt><trkpt lat="45.174048141089244" lon="8.549321618488536"><ele>102.33333333333334</ele><time>2026-05-03T14:59:40.999Z</time></trkpt><trkpt lat="45.17418815542948" lon="8.549497122838897"><ele>102.0</ele><time>2026-05-03T14:59:41.999Z</time></trkpt><trkpt lat="45.17430468461723" lon="8.549696676908455"><ele>101.66666666666666</ele><time>2026-05-03T14:59:42.999Z</time></trkpt><trkpt lat="45.17442268104213" lon="8.549911659869597"><ele>101.33333333333333</ele><time>2026-05-03T14:59:43.999Z</time></trkpt><trkpt lat="45.17454869546851" lon="8.55013103493021"><ele>101.0</ele><time>2026-05-03T14:59:44.999Z</time></trkpt><trkpt lat="45.17467448240534" lon="8.550356705565644"><ele>100.0</ele><time>2026-05-03T14:59:45.999Z</time></trkpt><trkpt lat="45.174803268976795" lon="8.55058853187656"><ele>99.0</ele><time>2026-05-03T14:59:46.999Z</time></trkpt><trkpt lat="45.1749332117775" lon="8.55083288456828"><ele>98.0</ele><time>2026-05-03T14:59:47.999Z</time></trkpt><trkpt lat="45.17506543584828" lon="8.551067957165417"><ele>97.0</ele><time>2026-05-03T14:59:48.999Z</time></trkpt><trkpt lat="45.17520355506035" lon="8.551311457072165"><ele>96.0</ele><time>2026-05-03T14:59:49.999Z</time></trkpt><trkpt lat="45.175334849140725" lon="8.551552144675094"><ele>95.0</ele><time>2026-05-03T14:59:50.999Z</time></trkpt><trkpt lat="45.1754649622184" lon="8.551803296849872"><ele>96.5</ele><time>2026-05-03T14:59:51.999Z</time></trkpt><trkpt lat="45.17560305466017" lon="8.552058575792598"><ele>98.0</ele><time>2026-05-03T14:59:52.999Z</time></trkpt><trkpt lat="45.17574268477771" lon="8.552317959244903"><ele>101.0</ele><time>2026-05-03T14:59:53.999Z</time></trkpt><trkpt lat="45.17587898754049" lon="8.552578662133861"><ele>104.0</ele><time>2026-05-03T14:59:54.999Z</time></trkpt><trkpt lat="45.17601713242938" lon="8.552838820224054"><ele>104.0</ele><time>2026-05-03T14:59:55.999Z</time></trkpt><trkpt lat="45.17614668390004" lon="8.55308179472362"><ele>104.0</ele><time>2026-05-03T14:59:56.999Z</time></trkpt><trkpt lat="45.17628507993786" lon="8.553328970130028"><ele>104.0</ele><time>2026-05-03T14:59:57.999Z</time></trkpt><trkpt lat="45.17639317530208" lon="8.553570110649188"><ele>104.33333333333333</ele><time>2026-05-03T14:59:58.999Z</time></trkpt><trkpt lat="45.17648766127939" lon="8.553814917543955"><ele>104.66666666666666</ele><time>2026-05-03T14:59:59.999Z</time></trkpt><trkpt lat="45.176570226416445" lon="8.554056408104325"><ele>105.0</ele><time>2026-05-03T15:00:00.999Z</time></trkpt><trkpt lat="45.17663342364424" lon="8.554290933846135"><ele>105.0</ele><time>2026-05-03T15:00:01.999Z</time></trkpt><trkpt lat="45.17668594775019" lon="8.554533165661253"><ele>105.0</ele><time>2026-05-03T15:00:02.999Z</time></trkpt><trkpt lat="45.1767388686741" lon="8.554774152316735"><ele>105.0</ele><time>2026-05-03T15:00:03.999Z</time></trkpt><trkpt lat="45.17677603829469" lon="8.555019943014583"><ele>104.0</ele><time>2026-05-03T15:00:04.999Z</time></trkpt><trkpt lat="45.17679782191664" lon="8.555256963621774"><ele>103.0</ele><time>2026-05-03T15:00:05.999Z</time></trkpt><trkpt lat="45.176810031552336" lon="8.555486515514419"><ele>102.0</ele><time>2026-05-03T15:00:07Z</time></trkpt><trkpt lat="45.17680910447851" lon="8.555720556100496"><ele>102.0</ele><time>2026-05-03T15:00:08Z</time></trkpt><trkpt lat="45.176791658028016" lon="8.55595240102299"><ele>102.0</ele><time>2026-05-03T15:00:09Z</time></trkpt><trkpt lat="45.176761474239804" lon="8.556199160449424"><ele>102.0</ele><time>2026-05-03T15:00:10Z</time></trkpt><trkpt lat="45.176715313991785" lon="8.556462205145827"><ele>102.0</ele><time>2026-05-03T15:00:11Z</time></trkpt><trkpt lat="45.17666862670688" lon="8.556745856767327"><ele>102.0</ele><time>2026-05-03T15:00:12Z</time></trkpt><trkpt lat="45.17660965859446" lon="8.557038361671118"><ele>102.0</ele><time>2026-05-03T15:00:13Z</time></trkpt><trkpt lat="45.17654675143797" lon="8.557331962009188"><ele>102.5</ele><time>2026-05-03T15:00:14Z</time></trkpt><trkpt lat="45.17648229860312" lon="8.557638206623876"><ele>103.0</ele><time>2026-05-03T15:00:15Z</time></trkpt><trkpt lat="45.1764266467383" lon="8.55794957911503"><ele>103.0</ele><time>2026-05-03T15:00:16Z</time></trkpt><trkpt lat="45.17635609953735" lon="8.558272381689662"><ele>103.0</ele><time>2026-05-03T15:00:17Z</time></trkpt><trkpt lat="45.176299093165724" lon="8.558602791453886"><ele>103.0</ele><time>2026-05-03T15:00:18Z</time></trkpt><trkpt lat="45.17623420480396" lon="8.558939123039828"><ele>103.0</ele><time>2026-05-03T15:00:19Z</time></trkpt><trkpt lat="45.1761617575694" lon="8.559293979545807"><ele>102.5</ele><time>2026-05-03T15:00:20Z</time></trkpt><trkpt lat="45.17609010528034" lon="8.559659234724176"><ele>102.0</ele><time>2026-05-03T15:00:21Z</time></trkpt><trkpt lat="45.176019590853386" lon="8.559999699672526"><ele>102.0</ele><time>2026-05-03T15:00:22Z</time></trkpt><trkpt lat="45.17594671899775" lon="8.56034312067337"><ele>102.0</ele><time>2026-05-03T15:00:23Z</time></trkpt><trkpt lat="45.175879553285796" lon="8.560688961052014"><ele>101.0</ele><time>2026-05-03T15:00:24Z</time></trkpt><trkpt lat="45.1758100487764" lon="8.56104101016392"><ele>100.0</ele><time>2026-05-03T15:00:25Z</time></trkpt><trkpt lat="45.17573885180841" lon="8.561391517128849"><ele>101.0</ele><time>2026-05-03T15:00:26Z</time></trkpt><trkpt lat="45.17567127985946" lon="8.561746010142539"><ele>102.0</ele><time>2026-05-03T15:00:27Z</time></trkpt><trkpt lat="45.17559831847084" lon="8.562084800090158"><ele>102.0</ele><time>2026-05-03T15:00:28Z</time></trkpt><trkpt lat="45.17552616419279" lon="8.562449219896637"><ele>102.0</ele><time>2026-05-03T15:00:29Z</time></trkpt><trkpt lat="45.175460842593516" lon="8.562797149823258"><ele>102.5</ele><time>2026-05-03T15:00:30Z</time></trkpt><trkpt lat="45.1753947297753" lon="8.563147071626465"><ele>103.0</ele><time>2026-05-03T15:00:31Z</time></trkpt><trkpt lat="45.17532983363054" lon="8.56350483252035"><ele>104.5</ele><time>2026-05-03T15:00:32Z</time></trkpt><trkpt lat="45.17528379657202" lon="8.563858209759083"><ele>106.0</ele><time>2026-05-03T15:00:33Z</time></trkpt><trkpt lat="45.17525548763715" lon="8.56421555264559"><ele>106.0</ele><time>2026-05-03T15:00:34Z</time></trkpt><trkpt lat="45.175237068410425" lon="8.56458920375833"><ele>106.0</ele><time>2026-05-03T15:00:35Z</time></trkpt><trkpt lat="45.17523457264463" lon="8.564981590515682"><ele>105.0</ele><time>2026-05-03T15:00:36Z</time></trkpt><trkpt lat="45.17522678477804" lon="8.5653730718363"><ele>104.0</ele><time>2026-05-03T15:00:37Z</time></trkpt><trkpt lat="45.17521158877617" lon="8.565750557194397"><ele>104.0</ele><time>2026-05-03T15:00:38Z</time></trkpt><trkpt lat="45.17520705815876" lon="8.566145878844754"><ele>104.0</ele><time>2026-05-03T15:00:39Z</time></trkpt><trkpt lat="45.17520624734894" lon="8.566542913319152"><ele>103.0</ele><time>2026-05-03T15:00:40Z</time></trkpt><trkpt lat="45.17520572319577" lon="8.566918696281387"><ele>102.0</ele><time>2026-05-03T15:00:41Z</time></trkpt><trkpt lat="45.17519776240117" lon="8.567296481652559"><ele>101.5</ele><time>2026-05-03T15:00:42Z</time></trkpt><trkpt lat="45.17519108451998" lon="8.567663011217192"><ele>101.0</ele><time>2026-05-03T15:00:43Z</time></trkpt><trkpt lat="45.175179574289025" lon="8.568028857696953"><ele>101.0</ele><time>2026-05-03T15:00:44Z</time></trkpt><trkpt lat="45.175177002603334" lon="8.568385888076577"><ele>101.0</ele><time>2026-05-03T15:00:45Z</time></trkpt><trkpt lat="45.17516844134985" lon="8.568735322074122"><ele>100.0</ele><time>2026-05-03T15:00:46Z</time></trkpt><trkpt lat="45.175157888993326" lon="8.56908213309714"><ele>99.0</ele><time>2026-05-03T15:00:47Z</time></trkpt><trkpt lat="45.17514684305894" lon="8.569429560235884"><ele>99.5</ele><time>2026-05-03T15:00:48Z</time></trkpt><trkpt lat="45.175140708933846" lon="8.569773959197589"><ele>100.0</ele><time>2026-05-03T15:00:49Z</time></trkpt><trkpt lat="45.17513187593822" lon="8.570118766523812"><ele>100.5</ele><time>2026-05-03T15:00:50Z</time></trkpt><trkpt lat="45.17512035759201" lon="8.570466903612319"><ele>101.0</ele><time>2026-05-03T15:00:51Z</time></trkpt><trkpt lat="45.17510551397104" lon="8.57081884701816"><ele>101.0</ele><time>2026-05-03T15:00:52Z</time></trkpt><trkpt lat="45.17509609654911" lon="8.571176968727187"><ele>101.0</ele><time>2026-05-03T15:00:53Z</time></trkpt><trkpt lat="45.175083384238654" lon="8.571532069004302"><ele>101.0</ele><time>2026-05-03T15:00:54Z</time></trkpt><trkpt lat="45.17508418141186" lon="8.571902180110085"><ele>101.0</ele><time>2026-05-03T15:00:55Z</time></trkpt><trkpt lat="45.17507957104945" lon="8.572266371270121"><ele>100.5</ele><time>2026-05-03T15:00:56Z</time></trkpt><trkpt lat="45.17507347517658" lon="8.57263204455411"><ele>100.0</ele><time>2026-05-03T15:00:57Z</time></trkpt><trkpt lat="45.17506777989836" lon="8.572994637138653"><ele>100.0</ele><time>2026-05-03T15:00:58Z</time></trkpt><trkpt lat="45.17505030730218" lon="8.573369819173042"><ele>100.0</ele><time>2026-05-03T15:00:59Z</time></trkpt><trkpt lat="45.17503821979197" lon="8.573732072788708"><ele>99.5</ele><time>2026-05-03T15:01:00Z</time></trkpt><trkpt lat="45.1750354058308" lon="8.574089377149987"><ele>99.0</ele><time>2026-05-03T15:01:01Z</time></trkpt><trkpt lat="45.175026603302236" lon="8.574450681945475"><ele>98.5</ele><time>2026-05-03T15:01:02Z</time></trkpt><trkpt lat="45.175012951795466" lon="8.574812359141724"><ele>98.0</ele><time>2026-05-03T15:01:03Z</time></trkpt><trkpt lat="45.1750121792904" lon="8.575176080122525"><ele>98.0</ele><time>2026-05-03T15:01:04Z</time></trkpt><trkpt lat="45.17500078637662" lon="8.575534380377343"><ele>98.0</ele><time>2026-05-03T15:01:05Z</time></trkpt><trkpt lat="45.17499674451097" lon="8.575886286929366"><ele>98.5</ele><time>2026-05-03T15:01:06Z</time></trkpt><trkpt lat="45.17499004226842" lon="8.576248838955742"><ele>99.0</ele><time>2026-05-03T15:01:07Z</time></trkpt><trkpt lat="45.174977607012735" lon="8.57660202892803"><ele>99.0</ele><time>2026-05-03T15:01:08Z</time></trkpt><trkpt lat="45.174970381993994" lon="8.576951130162234"><ele>99.0</ele><time>2026-05-03T15:01:09Z</time></trkpt><trkpt lat="45.174965552530665" lon="8.577295090287182"><ele>99.0</ele><time>2026-05-03T15:01:10Z</time></trkpt><trkpt lat="45.1749576008785" lon="8.57762771432638"><ele>99.0</ele><time>2026-05-03T15:01:11Z</time></trkpt><trkpt lat="45.17494919799614" lon="8.577960465503303"><ele>99.5</ele><time>2026-05-03T15:01:12Z</time></trkpt><trkpt lat="45.1749531970255" lon="8.578283381604814"><ele>100.0</ele><time>2026-05-03T15:01:13Z</time></trkpt><trkpt lat="45.17493349448512" lon="8.57860494278261"><ele>100.0</ele><time>2026-05-03T15:01:14Z</time></trkpt><trkpt lat="45.17491891153616" lon="8.578922017804787"><ele>100.0</ele><time>2026-05-03T15:01:15Z</time></trkpt><trkpt lat="45.17490841516019" lon="8.579224882105507"><ele>100.0</ele><time>2026-05-03T15:01:16Z</time></trkpt><trkpt lat="45.17488807136179" lon="8.57951524792256"><ele>100.0</ele><time>2026-05-03T15:01:17Z</time></trkpt><trkpt lat="45.17486788462707" lon="8.579783807083231"><ele>100.0</ele><time>2026-05-03T15:01:18Z</time></trkpt><trkpt lat="45.17482402858371" lon="8.580025555731257"><ele>100.0</ele><time>2026-05-03T15:01:19Z</time></trkpt><trkpt lat="45.17477797569631" lon="8.58024836171182"><ele>99.5</ele><time>2026-05-03T15:01:20Z</time></trkpt><trkpt lat="45.17473866634171" lon="8.580455095788631"><ele>99.0</ele><time>2026-05-03T15:01:21Z</time></trkpt><trkpt lat="45.1746941850316" lon="8.580635652981147"><ele>98.5</ele><time>2026-05-03T15:01:22Z</time></trkpt><trkpt lat="45.174645286425864" lon="8.58078857114071"><ele>98.0</ele><time>2026-05-03T15:01:23Z</time></trkpt><trkpt lat="45.17461900991729" lon="8.580921235101668"><ele>98.0</ele><time>2026-05-03T15:01:24Z</time></trkpt><trkpt lat="45.174632926135075" lon="8.581033799633378"><ele>98.0</ele><time>2026-05-03T15:01:25Z</time></trkpt><trkpt lat="45.17468806136706" lon="8.581143094028125"><ele>98.0</ele><time>2026-05-03T15:01:26Z</time></trkpt><trkpt lat="45.174774615485" lon="8.581237211731812"><ele>98.0</ele><time>2026-05-03T15:01:27Z</time></trkpt><trkpt lat="45.17484651380983" lon="8.581375652502018"><ele>98.0</ele><time>2026-05-03T15:01:28Z</time></trkpt><trkpt lat="45.17487222651632" lon="8.581555234137902"><ele>98.0</ele><time>2026-05-03T15:01:29Z</time></trkpt><trkpt lat="45.17486773866988" lon="8.581760877837551"><ele>98.0</ele><time>2026-05-03T15:01:29.999Z</time></trkpt><trkpt lat="45.1748486901871" lon="8.581963501539597"><ele>98.0</ele><time>2026-05-03T15:01:30.999Z</time></trkpt><trkpt lat="45.17483833797714" lon="8.582184368087004"><ele>98.0</ele><time>2026-05-03T15:01:31.999Z</time></trkpt><trkpt lat="45.17483238410648" lon="8.582423191272037"><ele>98.33333333333333</ele><time>2026-05-03T15:01:32.999Z</time></trkpt><trkpt lat="45.17482973476945" lon="8.582666202773481"><ele>98.66666666666666</ele><time>2026-05-03T15:01:33.999Z</time></trkpt><trkpt lat="45.17482126597011" lon="8.582905311768966"><ele>99.0</ele><time>2026-05-03T15:01:34.999Z</time></trkpt><trkpt lat="45.174813032180545" lon="8.58314094537818"><ele>99.0</ele><time>2026-05-03T15:01:35.999Z</time></trkpt><trkpt lat="45.174813543299315" lon="8.583372878193556"><ele>99.0</ele><time>2026-05-03T15:01:36.999Z</time></trkpt><trkpt lat="45.17481321516652" lon="8.583608321936468"><ele>99.0</ele><time>2026-05-03T15:01:37.999Z</time></trkpt><trkpt lat="45.17481364683178" lon="8.583845728085967"><ele>99.33333333333334</ele><time>2026-05-03T15:01:38.999Z</time></trkpt><trkpt lat="45.17480845617647" lon="8.584078729482261"><ele>99.66666666666667</ele><time>2026-05-03T15:01:39.999Z</time></trkpt><trkpt lat="45.174797534543806" lon="8.584300512109348"><ele>100.0</ele><time>2026-05-03T15:01:40.999Z</time></trkpt><trkpt lat="45.17479717248276" lon="8.584514569546759"><ele>100.33333333333334</ele><time>2026-05-03T15:01:41.999Z</time></trkpt><trkpt lat="45.17480551587" lon="8.584733839119211"><ele>100.66666666666666</ele><time>2026-05-03T15:01:42.999Z</time></trkpt><trkpt lat="45.17479803989767" lon="8.58495011107207"><ele>101.0</ele><time>2026-05-03T15:01:43.999Z</time></trkpt><trkpt lat="45.174791195294205" lon="8.58518146188445"><ele>101.0</ele><time>2026-05-03T15:01:44.999Z</time></trkpt><trkpt lat="45.17478918971652" lon="8.585414103527677"><ele>101.0</ele><time>2026-05-03T15:01:45.999Z</time></trkpt><trkpt lat="45.17478579826249" lon="8.585650335897881"><ele>101.0</ele><time>2026-05-03T15:01:46.999Z</time></trkpt><trkpt lat="45.17478292549904" lon="8.585884974253531"><ele>101.0</ele><time>2026-05-03T15:01:47.999Z</time></trkpt><trkpt lat="45.174779131559795" lon="8.58612334688382"><ele>101.0</ele><time>2026-05-03T15:01:48.999Z</time></trkpt><trkpt lat="45.17477484043738" lon="8.586359499645582"><ele>101.0</ele><time>2026-05-03T15:01:49.999Z</time></trkpt><trkpt lat="45.17477239654166" lon="8.586593587313642"><ele>101.66666666666666</ele><time>2026-05-03T15:01:50.999Z</time></trkpt><trkpt lat="45.174770286339886" lon="8.586820683670547"><ele>102.33333333333334</ele><time>2026-05-03T15:01:51.999Z</time></trkpt><trkpt lat="45.17475957029088" lon="8.587040760173688"><ele>103.0</ele><time>2026-05-03T15:01:52.999Z</time></trkpt><trkpt lat="45.174755661112606" lon="8.58724906068837"><ele>103.0</ele><time>2026-05-03T15:01:53.999Z</time></trkpt><trkpt lat="45.17475618426814" lon="8.587454083369687"><ele>103.0</ele><time>2026-05-03T15:01:54.999Z</time></trkpt><trkpt lat="45.17474996825668" lon="8.587667982944724"><ele>103.0</ele><time>2026-05-03T15:01:55.999Z</time></trkpt><trkpt lat="45.1747438006344" lon="8.58787812515938"><ele>103.0</ele><time>2026-05-03T15:01:56.999Z</time></trkpt><trkpt lat="45.174736258172494" lon="8.588088773943662"><ele>103.0</ele><time>2026-05-03T15:01:57.999Z</time></trkpt><trkpt lat="45.1747301673756" lon="8.58829590669243"><ele>103.0</ele><time>2026-05-03T15:01:58.999Z</time></trkpt><trkpt lat="45.17471716811028" lon="8.588499033493216"><ele>103.0</ele><time>2026-05-03T15:01:59.999Z</time></trkpt><trkpt lat="45.17470920829813" lon="8.588708081687003"><ele>103.0</ele><time>2026-05-03T15:02:00.999Z</time></trkpt><trkpt lat="45.17470164246531" lon="8.588914424310465"><ele>103.0</ele><time>2026-05-03T15:02:01.999Z</time></trkpt><trkpt lat="45.17468799005595" lon="8.58911771050063"><ele>103.0</ele><time>2026-05-03T15:02:02.999Z</time></trkpt><trkpt lat="45.1746732386425" lon="8.589301879023665"><ele>103.0</ele><time>2026-05-03T15:02:03.999Z</time></trkpt><trkpt lat="45.17465925592314" lon="8.589477750915144"><ele>103.0</ele><time>2026-05-03T15:02:04.999Z</time></trkpt><trkpt lat="45.17464701048856" lon="8.589615926504331"><ele>102.80000000000001</ele><time>2026-05-03T15:02:05.999Z</time></trkpt><trkpt lat="45.17466004903307" lon="8.589740774763161"><ele>102.6</ele><time>2026-05-03T15:02:06.999Z</time></trkpt><trkpt lat="45.17470891431897" lon="8.589847514485022"><ele>102.4</ele><time>2026-05-03T15:02:07.999Z</time></trkpt><trkpt lat="45.174797952261564" lon="8.589934324161094"><ele>102.19999999999999</ele><time>2026-05-03T15:02:08.999Z</time></trkpt><trkpt lat="45.17490312345571" lon="8.589965699778993"><ele>102.0</ele><time>2026-05-03T15:02:09.999Z</time></trkpt><trkpt lat="45.17501666830082" lon="8.589985255699032"><ele>102.0</ele><time>2026-05-03T15:02:10.999Z</time></trkpt><trkpt lat="45.175164028926766" lon="8.590040880699418"><ele>102.0</ele><time>2026-05-03T15:02:11.999Z</time></trkpt><trkpt lat="45.17528932037172" lon="8.590100006066313"><ele>102.0</ele><time>2026-05-03T15:02:13Z</time></trkpt><trkpt lat="45.17541683233653" lon="8.59016313852504"><ele>102.0</ele><time>2026-05-03T15:02:14Z</time></trkpt><trkpt lat="45.1755616719776" lon="8.590227973234393"><ele>101.66666666666666</ele><time>2026-05-03T15:02:15Z</time></trkpt><trkpt lat="45.175712201630574" lon="8.59029135767858"><ele>101.33333333333333</ele><time>2026-05-03T15:02:16Z</time></trkpt><trkpt lat="45.17586049661688" lon="8.590354405933596"><ele>101.0</ele><time>2026-05-03T15:02:17Z</time></trkpt><trkpt lat="45.17600689527776" lon="8.59042661612944"><ele>101.0</ele><time>2026-05-03T15:02:18Z</time></trkpt><trkpt lat="45.1761545018283" lon="8.590484439690197"><ele>101.0</ele><time>2026-05-03T15:02:19Z</time></trkpt><trkpt lat="45.17629802589255" lon="8.590549363145136"><ele>101.0</ele><time>2026-05-03T15:02:20Z</time></trkpt><trkpt lat="45.17643758969299" lon="8.590612788590231"><ele>101.5</ele><time>2026-05-03T15:02:21Z</time></trkpt><trkpt lat="45.17656510529367" lon="8.590671898798009"><ele>102.0</ele><time>2026-05-03T15:02:22Z</time></trkpt><trkpt lat="45.17668610990203" lon="8.59073017612469"><ele>102.5</ele><time>2026-05-03T15:02:23Z</time></trkpt><trkpt lat="45.1767981885891" lon="8.590791327228962"><ele>103.0</ele><time>2026-05-03T15:02:24Z</time></trkpt><trkpt lat="45.176909856989724" lon="8.590855693642139"><ele>103.0</ele><time>2026-05-03T15:02:25Z</time></trkpt><trkpt lat="45.17701794582095" lon="8.590941676088331"><ele>103.0</ele><time>2026-05-03T15:02:26Z</time></trkpt><trkpt lat="45.17712545525091" lon="8.591049306538622"><ele>103.0</ele><time>2026-05-03T15:02:27Z</time></trkpt><trkpt lat="45.17722854733786" lon="8.591165859994215"><ele>103.0</ele><time>2026-05-03T15:02:28Z</time></trkpt><trkpt lat="45.17732704225202" lon="8.591280073949143"><ele>103.4</ele><time>2026-05-03T15:02:29Z</time></trkpt><trkpt lat="45.17741471631443" lon="8.59138618353652"><ele>103.80000000000001</ele><time>2026-05-03T15:02:30Z</time></trkpt><trkpt lat="45.17748552068724" lon="8.591511254808035"><ele>104.2</ele><time>2026-05-03T15:02:31Z</time></trkpt><trkpt lat="45.17754365692473" lon="8.591633977167707"><ele>104.6</ele><time>2026-05-03T15:02:32Z</time></trkpt><trkpt lat="45.177603165199244" lon="8.5917490120971"><ele>105.0</ele><time>2026-05-03T15:02:33Z</time></trkpt><trkpt lat="45.177655150841034" lon="8.591850986155261"><ele>105.0</ele><time>2026-05-03T15:02:34Z</time></trkpt><trkpt lat="45.17770159539574" lon="8.591950641851717"><ele>105.0</ele><time>2026-05-03T15:02:35Z</time></trkpt><trkpt lat="45.177757600638515" lon="8.592050832263409"><ele>105.0</ele><time>2026-05-03T15:02:36Z</time></trkpt><trkpt lat="45.17780715210963" lon="8.592168880794812"><ele>105.0</ele><time>2026-05-03T15:02:37Z</time></trkpt><trkpt lat="45.17785858980619" lon="8.592284509226706"><ele>105.0</ele><time>2026-05-03T15:02:38Z</time></trkpt><trkpt lat="45.1779225770221" lon="8.592402526236128"><ele>105.0</ele><time>2026-05-03T15:02:39Z</time></trkpt><trkpt lat="45.177986148918905" lon="8.592533120220219"><ele>105.0</ele><time>2026-05-03T15:02:40Z</time></trkpt><trkpt lat="45.17802970618464" lon="8.592670715665841"><ele>105.0</ele><time>2026-05-03T15:02:41Z</time></trkpt><trkpt lat="45.17808459557012" lon="8.592803197068598"><ele>105.0</ele><time>2026-05-03T15:02:42Z</time></trkpt><trkpt lat="45.17814962925946" lon="8.592939314070755"><ele>105.0</ele><time>2026-05-03T15:02:43Z</time></trkpt><trkpt lat="45.178189493842325" lon="8.59307503554441"><ele>105.0</ele><time>2026-05-03T15:02:44Z</time></trkpt><trkpt lat="45.1782254702972" lon="8.593196577663342"><ele>105.0</ele><time>2026-05-03T15:02:45Z</time></trkpt><trkpt lat="45.17826934999573" lon="8.593306569164533"><ele>105.0</ele><time>2026-05-03T15:02:46Z</time></trkpt><trkpt lat="45.17829149660858" lon="8.59340550493293"><ele>105.0</ele><time>2026-05-03T15:02:47Z</time></trkpt><trkpt lat="45.17832340975652" lon="8.593489075451783"><ele>105.0</ele><time>2026-05-03T15:02:48Z</time></trkpt><trkpt lat="45.17838114799238" lon="8.593598351522937"><ele>105.0</ele><time>2026-05-03T15:02:50Z</time></trkpt><trkpt lat="45.17842516146816" lon="8.593681044144766"><ele>105.0</ele><time>2026-05-03T15:02:54Z</time></trkpt><trkpt lat="45.17846483874882" lon="8.593766928727522"><ele>105.0</ele><time>2026-05-03T15:02:56Z</time></trkpt><trkpt lat="45.178511990825186" lon="8.59389617143437"><ele>105.0</ele><time>2026-05-03T15:02:58Z</time></trkpt><trkpt lat="45.17856129380501" lon="8.593957900645513"><ele>105.0</ele><time>2026-05-03T15:02:59Z</time></trkpt><trkpt lat="45.1786267459197" lon="8.594023481595487"><ele>105.0</ele><time>2026-05-03T15:03:00Z</time></trkpt><trkpt lat="45.17872915252324" lon="8.59414069253292"><ele>105.0</ele><time>2026-05-03T15:03:02Z</time></trkpt><trkpt lat="45.17880816636232" lon="8.594185926589525"><ele>105.0</ele><time>2026-05-03T15:03:03Z</time></trkpt><trkpt lat="45.1788704848261" lon="8.594278321337535"><ele>105.0</ele><time>2026-05-03T15:03:04Z</time></trkpt><trkpt lat="45.178953354325984" lon="8.594358679340345"><ele>105.0</ele><time>2026-05-03T15:03:05Z</time></trkpt><trkpt lat="45.179034829109796" lon="8.59444836324035"><ele>105.0</ele><time>2026-05-03T15:03:06Z</time></trkpt><trkpt lat="45.17911685762389" lon="8.594544973588196"><ele>104.5</ele><time>2026-05-03T15:03:07Z</time></trkpt><trkpt lat="45.179205091078664" lon="8.59464261788129"><ele>104.0</ele><time>2026-05-03T15:03:08Z</time></trkpt><trkpt lat="45.179292827539385" lon="8.594742889724744"><ele>103.5</ele><time>2026-05-03T15:03:09Z</time></trkpt><trkpt lat="45.17938348098165" lon="8.594848020948172"><ele>103.0</ele><time>2026-05-03T15:03:10Z</time></trkpt><trkpt lat="45.17948036875071" lon="8.59495556266636"><ele>103.0</ele><time>2026-05-03T15:03:11Z</time></trkpt><trkpt lat="45.17956796631735" lon="8.595068857895603"><ele>103.0</ele><time>2026-05-03T15:03:12Z</time></trkpt><trkpt lat="45.17966583150727" lon="8.595184959018024"><ele>103.0</ele><time>2026-05-03T15:03:13Z</time></trkpt><trkpt lat="45.17974790157289" lon="8.595302571566874"><ele>103.0</ele><time>2026-05-03T15:03:14Z</time></trkpt><trkpt lat="45.179839997905894" lon="8.59541978071491"><ele>102.75</ele><time>2026-05-03T15:03:15Z</time></trkpt><trkpt lat="45.17993982019463" lon="8.595531599697267"><ele>102.5</ele><time>2026-05-03T15:03:16Z</time></trkpt><trkpt lat="45.180039426959986" lon="8.595647335127804"><ele>102.25</ele><time>2026-05-03T15:03:17Z</time></trkpt><trkpt lat="45.18012954327703" lon="8.59576207439862"><ele>102.0</ele><time>2026-05-03T15:03:18Z</time></trkpt><trkpt lat="45.18022863389014" lon="8.595878813337793"><ele>102.0</ele><time>2026-05-03T15:03:19Z</time></trkpt><trkpt lat="45.18031777245948" lon="8.595996400393231"><ele>102.0</ele><time>2026-05-03T15:03:20Z</time></trkpt><trkpt lat="45.180416239255656" lon="8.596114829552711"><ele>102.0</ele><time>2026-05-03T15:03:21Z</time></trkpt><trkpt lat="45.18052207093003" lon="8.596234608963865"><ele>102.0</ele><time>2026-05-03T15:03:22Z</time></trkpt><trkpt lat="45.18062445809358" lon="8.596365064272204"><ele>102.33333333333334</ele><time>2026-05-03T15:03:23Z</time></trkpt><trkpt lat="45.180740094138876" lon="8.59648562136936"><ele>102.66666666666667</ele><time>2026-05-03T15:03:24Z</time></trkpt><trkpt lat="45.180858928292935" lon="8.596621521198243"><ele>103.0</ele><time>2026-05-03T15:03:25Z</time></trkpt><trkpt lat="45.18098040476658" lon="8.596760456082261"><ele>103.0</ele><time>2026-05-03T15:03:26Z</time></trkpt><trkpt lat="45.181104556346625" lon="8.59689576215593"><ele>103.0</ele><time>2026-05-03T15:03:27Z</time></trkpt><trkpt lat="45.18122873862043" lon="8.597035576731743"><ele>103.0</ele><time>2026-05-03T15:03:28Z</time></trkpt><trkpt lat="45.18134634752948" lon="8.597176451618687"><ele>103.0</ele><time>2026-05-03T15:03:29Z</time></trkpt><trkpt lat="45.181463907459396" lon="8.597319012301327"><ele>103.0</ele><time>2026-05-03T15:03:30Z</time></trkpt><trkpt lat="45.18159190419735" lon="8.59745882211932"><ele>103.0</ele><time>2026-05-03T15:03:31Z</time></trkpt><trkpt lat="45.18172849999274" lon="8.597611604565175"><ele>103.0</ele><time>2026-05-03T15:03:32Z</time></trkpt><trkpt lat="45.18187533313586" lon="8.597765213640107"><ele>103.0</ele><time>2026-05-03T15:03:33Z</time></trkpt><trkpt lat="45.182042045706496" lon="8.597951795201027"><ele>103.0</ele><time>2026-05-03T15:03:34Z</time></trkpt><trkpt lat="45.18219379565286" lon="8.598142146538335"><ele>103.0</ele><time>2026-05-03T15:03:35Z</time></trkpt><trkpt lat="45.18236140026723" lon="8.59833506622038"><ele>103.0</ele><time>2026-05-03T15:03:36Z</time></trkpt><trkpt lat="45.18253443607849" lon="8.598529643893645"><ele>103.0</ele><time>2026-05-03T15:03:37Z</time></trkpt><trkpt lat="45.18272204700508" lon="8.59873722632652"><ele>103.5</ele><time>2026-05-03T15:03:38Z</time></trkpt><trkpt lat="45.18292627880381" lon="8.59896234754465"><ele>104.0</ele><time>2026-05-03T15:03:39Z</time></trkpt><trkpt lat="45.18311302562371" lon="8.599207873047101"><ele>104.0</ele><time>2026-05-03T15:03:40Z</time></trkpt><trkpt lat="45.18330053409746" lon="8.599450923419118"><ele>104.0</ele><time>2026-05-03T15:03:41Z</time></trkpt><trkpt lat="45.18351122168593" lon="8.599675582438497"><ele>105.0</ele><time>2026-05-03T15:03:42Z</time></trkpt><trkpt lat="45.18369397045863" lon="8.599915873785864"><ele>106.0</ele><time>2026-05-03T15:03:43Z</time></trkpt><trkpt lat="45.18390493737192" lon="8.600143755790407"><ele>105.0</ele><time>2026-05-03T15:03:43.999Z</time></trkpt><trkpt lat="45.18410447623428" lon="8.600376093217122"><ele>104.0</ele><time>2026-05-03T15:03:44.999Z</time></trkpt><trkpt lat="45.184297826826864" lon="8.60060753353841"><ele>104.0</ele><time>2026-05-03T15:03:45.999Z</time></trkpt><trkpt lat="45.18449522007983" lon="8.600843955531655"><ele>104.0</ele><time>2026-05-03T15:03:46.999Z</time></trkpt><trkpt lat="45.18469608955234" lon="8.60108650447969"><ele>103.0</ele><time>2026-05-03T15:03:47.999Z</time></trkpt><trkpt lat="45.1849043283781" lon="8.601310222706202"><ele>102.0</ele><time>2026-05-03T15:03:48.999Z</time></trkpt><trkpt lat="45.18508975782005" lon="8.601532418492896"><ele>102.0</ele><time>2026-05-03T15:03:49.999Z</time></trkpt><trkpt lat="45.185278749856984" lon="8.6017504463605"><ele>102.0</ele><time>2026-05-03T15:03:50.999Z</time></trkpt><trkpt lat="45.18546009439125" lon="8.601964829430775"><ele>102.0</ele><time>2026-05-03T15:03:51.999Z</time></trkpt><trkpt lat="45.185634299035925" lon="8.60216872774133"><ele>102.0</ele><time>2026-05-03T15:03:52.999Z</time></trkpt><trkpt lat="45.18579743629228" lon="8.602358838896267"><ele>102.0</ele><time>2026-05-03T15:03:53.999Z</time></trkpt><trkpt lat="45.18594986832356" lon="8.602541661639263"><ele>102.0</ele><time>2026-05-03T15:03:54.999Z</time></trkpt><trkpt lat="45.18609093028563" lon="8.602718308982112"><ele>102.0</ele><time>2026-05-03T15:03:55.999Z</time></trkpt><trkpt lat="45.186226701886525" lon="8.602878550511997"><ele>102.0</ele><time>2026-05-03T15:03:56.999Z</time></trkpt><trkpt lat="45.18634805289648" lon="8.603030333920527"><ele>102.0</ele><time>2026-05-03T15:03:57.999Z</time></trkpt><trkpt lat="45.18645733165229" lon="8.60317286425411"><ele>102.0</ele><time>2026-05-03T15:03:58.999Z</time></trkpt><trkpt lat="45.18654788825522" lon="8.603326966259958"><ele>102.0</ele><time>2026-05-03T15:03:59.999Z</time></trkpt><trkpt lat="45.186611008665196" lon="8.603495560461985"><ele>102.0</ele><time>2026-05-03T15:04:00.999Z</time></trkpt><trkpt lat="45.18665669355586" lon="8.603669262210154"><ele>101.5</ele><time>2026-05-03T15:04:01.999Z</time></trkpt><trkpt lat="45.18672239550477" lon="8.603819506467062"><ele>101.0</ele><time>2026-05-03T15:04:02.999Z</time></trkpt><trkpt lat="45.186831813225204" lon="8.603923010140562"><ele>100.5</ele><time>2026-05-03T15:04:03.999Z</time></trkpt><trkpt lat="45.18697712399285" lon="8.603981586330512"><ele>100.0</ele><time>2026-05-03T15:04:04.999Z</time></trkpt><trkpt lat="45.18713433501701" lon="8.604020053234878"><ele>100.0</ele><time>2026-05-03T15:04:05.999Z</time></trkpt><trkpt lat="45.187296552459145" lon="8.604146844491181"><ele>100.0</ele><time>2026-05-03T15:04:06.999Z</time></trkpt><trkpt lat="45.187446089611456" lon="8.604306086220008"><ele>100.0</ele><time>2026-05-03T15:04:07.999Z</time></trkpt><trkpt lat="45.187593022687594" lon="8.60447346830689"><ele>101.0</ele><time>2026-05-03T15:04:08.999Z</time></trkpt><trkpt lat="45.187747860625464" lon="8.604644476939924"><ele>102.0</ele><time>2026-05-03T15:04:09.999Z</time></trkpt><trkpt lat="45.18790069722245" lon="8.60482511138283"><ele>103.0</ele><time>2026-05-03T15:04:10.999Z</time></trkpt><trkpt lat="45.1880551884063" lon="8.605005153048078"><ele>102.33333333333334</ele><time>2026-05-03T15:04:11.999Z</time></trkpt><trkpt lat="45.188208660980415" lon="8.6051875700373"><ele>101.66666666666666</ele><time>2026-05-03T15:04:12.999Z</time></trkpt><trkpt lat="45.188375194545785" lon="8.605379966767273"><ele>101.0</ele><time>2026-05-03T15:04:13.999Z</time></trkpt><trkpt lat="45.18855189901418" lon="8.605585145942188"><ele>101.0</ele><time>2026-05-03T15:04:14.999Z</time></trkpt><trkpt lat="45.18873465119447" lon="8.605804792299764"><ele>101.0</ele><time>2026-05-03T15:04:15.999Z</time></trkpt><trkpt lat="45.18891717436169" lon="8.606015388812633"><ele>101.33333333333333</ele><time>2026-05-03T15:04:16.999Z</time></trkpt><trkpt lat="45.189086110683455" lon="8.60621138856172"><ele>101.66666666666666</ele><time>2026-05-03T15:04:17.999Z</time></trkpt><trkpt lat="45.189268620462876" lon="8.606406440220733"><ele>102.0</ele><time>2026-05-03T15:04:19Z</time></trkpt><trkpt lat="45.18943965832457" lon="8.606609219918324"><ele>102.0</ele><time>2026-05-03T15:04:20Z</time></trkpt><trkpt lat="45.189604414121916" lon="8.606800611131435"><ele>102.0</ele><time>2026-05-03T15:04:21Z</time></trkpt><trkpt lat="45.189755467713006" lon="8.606982966505877"><ele>102.0</ele><time>2026-05-03T15:04:22Z</time></trkpt><trkpt lat="45.18990102946018" lon="8.607160883658928"><ele>102.33333333333334</ele><time>2026-05-03T15:04:23Z</time></trkpt><trkpt lat="45.19003906077408" lon="8.607328348624392"><ele>102.66666666666667</ele><time>2026-05-03T15:04:24Z</time></trkpt><trkpt lat="45.19017152309586" lon="8.60748332579782"><ele>103.0</ele><time>2026-05-03T15:04:25Z</time></trkpt><trkpt lat="45.190291446180936" lon="8.607628582592737"><ele>103.0</ele><time>2026-05-03T15:04:26Z</time></trkpt><trkpt lat="45.190403248958894" lon="8.607765432057693"><ele>103.0</ele><time>2026-05-03T15:04:27Z</time></trkpt><trkpt lat="45.190510859687265" lon="8.607897856392874"><ele>103.0</ele><time>2026-05-03T15:04:28Z</time></trkpt><trkpt lat="45.19060969999025" lon="8.608027070727022"><ele>103.0</ele><time>2026-05-03T15:04:29Z</time></trkpt><trkpt lat="45.19070403169777" lon="8.608150014046313"><ele>103.25</ele><time>2026-05-03T15:04:30Z</time></trkpt><trkpt lat="45.19078621125014" lon="8.608279606673547"><ele>103.5</ele><time>2026-05-03T15:04:31Z</time></trkpt><trkpt lat="45.19086607834222" lon="8.608414324536671"><ele>103.75</ele><time>2026-05-03T15:04:32Z</time></trkpt><trkpt lat="45.19092923288739" lon="8.60855312714931"><ele>104.0</ele><time>2026-05-03T15:04:33Z</time></trkpt><trkpt lat="45.190984493594584" lon="8.608697430355717"><ele>104.25</ele><time>2026-05-03T15:04:34Z</time></trkpt><trkpt lat="45.19104476645507" lon="8.608866266081247"><ele>104.5</ele><time>2026-05-03T15:04:35Z</time></trkpt><trkpt lat="45.191094872592224" lon="8.609023026229872"><ele>104.75</ele><time>2026-05-03T15:04:36Z</time></trkpt><trkpt lat="45.1911454559349" lon="8.60915965112944"><ele>105.0</ele><time>2026-05-03T15:04:37Z</time></trkpt><trkpt lat="45.1911922337623" lon="8.6093085931914"><ele>105.0</ele><time>2026-05-03T15:04:38Z</time></trkpt><trkpt lat="45.19126609523035" lon="8.60945092037736"><ele>105.0</ele><time>2026-05-03T15:04:39Z</time></trkpt><trkpt lat="45.19134033514896" lon="8.60959197593887"><ele>105.0</ele><time>2026-05-03T15:04:40Z</time></trkpt><trkpt lat="45.19140567998666" lon="8.609726317851665"><ele>105.0</ele><time>2026-05-03T15:04:41Z</time></trkpt><trkpt lat="45.19147260842984" lon="8.609852602174987"><ele>105.0</ele><time>2026-05-03T15:04:42Z</time></trkpt><trkpt lat="45.19154209342798" lon="8.609977717366224"><ele>105.0</ele><time>2026-05-03T15:04:43Z</time></trkpt><trkpt lat="45.19160004915117" lon="8.610104850381916"><ele>105.0</ele><time>2026-05-03T15:04:44Z</time></trkpt><trkpt lat="45.19166666628955" lon="8.610227776448115"><ele>105.0</ele><time>2026-05-03T15:04:45Z</time></trkpt><trkpt lat="45.19172973159368" lon="8.610356905406997"><ele>105.0</ele><time>2026-05-03T15:04:46Z</time></trkpt><trkpt lat="45.191787762177455" lon="8.610480472578322"><ele>105.0</ele><time>2026-05-03T15:04:47Z</time></trkpt><trkpt lat="45.19184030634713" lon="8.610598935625799"><ele>105.0</ele><time>2026-05-03T15:04:48Z</time></trkpt><trkpt lat="45.19188693549259" lon="8.610717069102126"><ele>105.0</ele><time>2026-05-03T15:04:49Z</time></trkpt><trkpt lat="45.19194032746671" lon="8.610832050122779"><ele>105.0</ele><time>2026-05-03T15:04:50Z</time></trkpt><trkpt lat="45.191991788741134" lon="8.610961562186768"><ele>105.0</ele><time>2026-05-03T15:04:51Z</time></trkpt><trkpt lat="45.192055500051865" lon="8.611090483736284"><ele>105.0</ele><time>2026-05-03T15:04:52Z</time></trkpt><trkpt lat="45.19213690323607" lon="8.611215476738534"><ele>105.0</ele><time>2026-05-03T15:04:53Z</time></trkpt><trkpt lat="45.192205904234356" lon="8.61134951933516"><ele>105.0</ele><time>2026-05-03T15:04:54Z</time></trkpt><trkpt lat="45.192290639292004" lon="8.611487303300791"><ele>105.0</ele><time>2026-05-03T15:04:55Z</time></trkpt><trkpt lat="45.192348701239496" lon="8.611627686822901"><ele>105.0</ele><time>2026-05-03T15:04:56Z</time></trkpt><trkpt lat="45.19243804876768" lon="8.61174628302224"><ele>105.0</ele><time>2026-05-03T15:04:57Z</time></trkpt><trkpt lat="45.192530228902534" lon="8.611888188165015"><ele>105.0</ele><time>2026-05-03T15:04:58Z</time></trkpt><trkpt lat="45.19261182818861" lon="8.612028999590574"><ele>105.0</ele><time>2026-05-03T15:04:59Z</time></trkpt><trkpt lat="45.19267926906935" lon="8.61219025070201"><ele>105.0</ele><time>2026-05-03T15:05:00Z</time></trkpt><trkpt lat="45.19274636031079" lon="8.612343263433573"><ele>105.0</ele><time>2026-05-03T15:05:01Z</time></trkpt><trkpt lat="45.192817680217075" lon="8.61248698089133"><ele>105.0</ele><time>2026-05-03T15:05:02Z</time></trkpt><trkpt lat="45.19287432651641" lon="8.612635866402348"><ele>105.0</ele><time>2026-05-03T15:05:03Z</time></trkpt><trkpt lat="45.192963699164935" lon="8.612784395680645"><ele>105.0</ele><time>2026-05-03T15:05:04Z</time></trkpt><trkpt lat="45.19303675691541" lon="8.612942150143663"><ele>105.0</ele><time>2026-05-03T15:05:05Z</time></trkpt><trkpt lat="45.19308913946756" lon="8.613100410931956"><ele>105.0</ele><time>2026-05-03T15:05:06Z</time></trkpt><trkpt lat="45.19314060520476" lon="8.613278151617557"><ele>105.0</ele><time>2026-05-03T15:05:07Z</time></trkpt><trkpt lat="45.19321032298753" lon="8.613433758575804"><ele>105.0</ele><time>2026-05-03T15:05:08Z</time></trkpt><trkpt lat="45.19327657306064" lon="8.61360070887232"><ele>105.0</ele><time>2026-05-03T15:05:09Z</time></trkpt><trkpt lat="45.19333829510306" lon="8.613757553965346"><ele>105.0</ele><time>2026-05-03T15:05:10Z</time></trkpt><trkpt lat="45.193401912021535" lon="8.613922536290978"><ele>105.0</ele><time>2026-05-03T15:05:11Z</time></trkpt><trkpt lat="45.19347047576476" lon="8.614075775237268"><ele>105.0</ele><time>2026-05-03T15:05:12Z</time></trkpt><trkpt lat="45.19353112784561" lon="8.614243600597801"><ele>105.0</ele><time>2026-05-03T15:05:13Z</time></trkpt><trkpt lat="45.19361060124194" lon="8.614413352218111"><ele>105.0</ele><time>2026-05-03T15:05:14Z</time></trkpt><trkpt lat="45.19369345279047" lon="8.614580198285992"><ele>105.0</ele><time>2026-05-03T15:05:15Z</time></trkpt><trkpt lat="45.193767255395606" lon="8.61476645963492"><ele>105.33333333333334</ele><time>2026-05-03T15:05:16Z</time></trkpt><trkpt lat="45.19384828463334" lon="8.61494888460587"><ele>105.66666666666667</ele><time>2026-05-03T15:05:17Z</time></trkpt><trkpt lat="45.193922197524685" lon="8.615132129031098"><ele>106.0</ele><time>2026-05-03T15:05:18Z</time></trkpt><trkpt lat="45.194003214026964" lon="8.615342873292532"><ele>105.0</ele><time>2026-05-03T15:05:19Z</time></trkpt><trkpt lat="45.194096743640586" lon="8.61553848960862"><ele>104.0</ele><time>2026-05-03T15:05:20Z</time></trkpt><trkpt lat="45.19418881581931" lon="8.615733347664607"><ele>103.0</ele><time>2026-05-03T15:05:21Z</time></trkpt><trkpt lat="45.1942597644965" lon="8.615939519652892"><ele>103.0</ele><time>2026-05-03T15:05:22Z</time></trkpt><trkpt lat="45.19434122200493" lon="8.616139196412227"><ele>103.0</ele><time>2026-05-03T15:05:23Z</time></trkpt><trkpt lat="45.19443175324911" lon="8.616347852661002"><ele>103.0</ele><time>2026-05-03T15:05:24Z</time></trkpt><trkpt lat="45.19452113882917" lon="8.61655176103172"><ele>102.66666666666667</ele><time>2026-05-03T15:05:25Z</time></trkpt><trkpt lat="45.19460903950566" lon="8.616771449833035"><ele>102.33333333333334</ele><time>2026-05-03T15:05:26Z</time></trkpt><trkpt lat="45.19470208188139" lon="8.616990090289036"><ele>102.0</ele><time>2026-05-03T15:05:27Z</time></trkpt><trkpt lat="45.194786401284844" lon="8.617213984773144"><ele>102.33333333333334</ele><time>2026-05-03T15:05:28Z</time></trkpt><trkpt lat="45.19488805948458" lon="8.617442194936606"><ele>102.66666666666667</ele><time>2026-05-03T15:05:29Z</time></trkpt><trkpt lat="45.19498379523072" lon="8.617671922615509"><ele>103.0</ele><time>2026-05-03T15:05:30Z</time></trkpt><trkpt lat="45.19508561408455" lon="8.617902962907277"><ele>103.0</ele><time>2026-05-03T15:05:31Z</time></trkpt><trkpt lat="45.195176228366385" lon="8.618142993421587"><ele>103.0</ele><time>2026-05-03T15:05:32Z</time></trkpt><trkpt lat="45.1952866547652" lon="8.61838949764975"><ele>103.0</ele><time>2026-05-03T15:05:33Z</time></trkpt><trkpt lat="45.19539948706056" lon="8.61864262519141"><ele>103.0</ele><time>2026-05-03T15:05:34Z</time></trkpt><trkpt lat="45.19552087469902" lon="8.618907200828385"><ele>103.0</ele><time>2026-05-03T15:05:35Z</time></trkpt><trkpt lat="45.195654328275005" lon="8.619191965492487"><ele>103.0</ele><time>2026-05-03T15:05:36Z</time></trkpt><trkpt lat="45.19579121738412" lon="8.619505371420761"><ele>103.0</ele><time>2026-05-03T15:05:37Z</time></trkpt><trkpt lat="45.195903880580595" lon="8.619851994985751"><ele>103.0</ele><time>2026-05-03T15:05:38Z</time></trkpt><trkpt lat="45.19604410628021" lon="8.620200624728998"><ele>103.0</ele><time>2026-05-03T15:05:39Z</time></trkpt><trkpt lat="45.19619878058636" lon="8.620551385221052"><ele>102.5</ele><time>2026-05-03T15:05:40Z</time></trkpt><trkpt lat="45.19634322808581" lon="8.620907429871167"><ele>102.0</ele><time>2026-05-03T15:05:40.999Z</time></trkpt><trkpt lat="45.19649653202384" lon="8.621258211316473"><ele>103.0</ele><time>2026-05-03T15:05:41.999Z</time></trkpt><trkpt lat="45.19664620355196" lon="8.621610506233877"><ele>104.0</ele><time>2026-05-03T15:05:42.999Z</time></trkpt><trkpt lat="45.196789930123714" lon="8.621960305200242"><ele>104.0</ele><time>2026-05-03T15:05:43.999Z</time></trkpt><trkpt lat="45.19693617648374" lon="8.62230533289312"><ele>104.0</ele><time>2026-05-03T15:05:44.999Z</time></trkpt><trkpt lat="45.197085227835124" lon="8.622649949027263"><ele>104.0</ele><time>2026-05-03T15:05:45.999Z</time></trkpt><trkpt lat="45.19723550316582" lon="8.622999506578601"><ele>104.0</ele><time>2026-05-03T15:05:46.999Z</time></trkpt><trkpt lat="45.197380022077105" lon="8.623357641862679"><ele>103.5</ele><time>2026-05-03T15:05:47.999Z</time></trkpt><trkpt lat="45.19753138269896" lon="8.623718051626769"><ele>103.0</ele><time>2026-05-03T15:05:48.999Z</time></trkpt><trkpt lat="45.197695589496576" lon="8.62408435072194"><ele>103.0</ele><time>2026-05-03T15:05:49.999Z</time></trkpt><trkpt lat="45.19785553251343" lon="8.624452285149616"><ele>103.0</ele><time>2026-05-03T15:05:50.999Z</time></trkpt><trkpt lat="45.19800979999692" lon="8.624804142215279"><ele>104.0</ele><time>2026-05-03T15:05:51.999Z</time></trkpt><trkpt lat="45.19816134439471" lon="8.625145623390178"><ele>105.0</ele><time>2026-05-03T15:05:52.999Z</time></trkpt><trkpt lat="45.19829953100451" lon="8.62547677514799"><ele>105.0</ele><time>2026-05-03T15:05:53.999Z</time></trkpt><trkpt lat="45.198439000873535" lon="8.625808605491372"><ele>105.0</ele><time>2026-05-03T15:05:54.999Z</time></trkpt><trkpt lat="45.198579663650996" lon="8.626143777408808"><ele>104.5</ele><time>2026-05-03T15:05:55.999Z</time></trkpt><trkpt lat="45.198723470829606" lon="8.626479322271758"><ele>104.0</ele><time>2026-05-03T15:05:56.999Z</time></trkpt><trkpt lat="45.19887221408059" lon="8.626826076976462"><ele>104.0</ele><time>2026-05-03T15:05:57.999Z</time></trkpt><trkpt lat="45.19902629001124" lon="8.62717034458625"><ele>104.0</ele><time>2026-05-03T15:05:58.999Z</time></trkpt><trkpt lat="45.19917823820319" lon="8.627527369101381"><ele>104.0</ele><time>2026-05-03T15:05:59.999Z</time></trkpt><trkpt lat="45.19932886789043" lon="8.627873760416193"><ele>104.0</ele><time>2026-05-03T15:06:00.999Z</time></trkpt><trkpt lat="45.19948724227487" lon="8.62821685037777"><ele>104.0</ele><time>2026-05-03T15:06:01.999Z</time></trkpt><trkpt lat="45.19963492177498" lon="8.628564261382252"><ele>104.0</ele><time>2026-05-03T15:06:02.999Z</time></trkpt><trkpt lat="45.199776681740325" lon="8.628908953277987"><ele>104.0</ele><time>2026-05-03T15:06:03.999Z</time></trkpt><trkpt lat="45.1999154033892" lon="8.629234132123749"><ele>104.0</ele><time>2026-05-03T15:06:04.999Z</time></trkpt><trkpt lat="45.20004689978676" lon="8.629546359183754"><ele>104.0</ele><time>2026-05-03T15:06:05.999Z</time></trkpt><trkpt lat="45.20017734976477" lon="8.629836873440937"><ele>104.0</ele><time>2026-05-03T15:06:06.999Z</time></trkpt><trkpt lat="45.20029463011476" lon="8.63012090298598"><ele>104.33333333333333</ele><time>2026-05-03T15:06:07.999Z</time></trkpt><trkpt lat="45.20041028336197" lon="8.630382813934006"><ele>104.66666666666666</ele><time>2026-05-03T15:06:08.999Z</time></trkpt><trkpt lat="45.200517099899685" lon="8.63063627321932"><ele>105.0</ele><time>2026-05-03T15:06:09.999Z</time></trkpt><trkpt lat="45.20061926425187" lon="8.63088485899276"><ele>105.33333333333334</ele><time>2026-05-03T15:06:10.999Z</time></trkpt><trkpt lat="45.200725001036766" lon="8.631126035706762"><ele>105.66666666666667</ele><time>2026-05-03T15:06:11.999Z</time></trkpt><trkpt lat="45.200830626221475" lon="8.631367158104876"><ele>106.0</ele><time>2026-05-03T15:06:12.999Z</time></trkpt><trkpt lat="45.200922133081455" lon="8.63159451223446"><ele>106.0</ele><time>2026-05-03T15:06:13.999Z</time></trkpt><trkpt lat="45.20101745538198" lon="8.631821962041249"><ele>106.0</ele><time>2026-05-03T15:06:14.999Z</time></trkpt><trkpt lat="45.201137245676364" lon="8.632069227669186"><ele>106.0</ele><time>2026-05-03T15:06:15.999Z</time></trkpt><trkpt lat="45.20127490950803" lon="8.632338228926347"><ele>105.0</ele><time>2026-05-03T15:06:16.999Z</time></trkpt><trkpt lat="45.20138433806964" lon="8.632639968612658"><ele>104.0</ele><time>2026-05-03T15:06:17.999Z</time></trkpt><trkpt lat="45.201498092039074" lon="8.632939144129468"><ele>104.5</ele><time>2026-05-03T15:06:18.999Z</time></trkpt><trkpt lat="45.20163486299804" lon="8.63324918444468"><ele>105.0</ele><time>2026-05-03T15:06:19.999Z</time></trkpt><trkpt lat="45.201773329045764" lon="8.633574108434239"><ele>104.5</ele><time>2026-05-03T15:06:20.999Z</time></trkpt><trkpt lat="45.201910466380916" lon="8.633909920555853"><ele>104.0</ele><time>2026-05-03T15:06:21.999Z</time></trkpt><trkpt lat="45.20204892142925" lon="8.63424358357753"><ele>103.5</ele><time>2026-05-03T15:06:22.999Z</time></trkpt><trkpt lat="45.20218799794224" lon="8.63456056146227"><ele>103.0</ele><time>2026-05-03T15:06:23.999Z</time></trkpt><trkpt lat="45.202322631133285" lon="8.634866243941676"><ele>103.0</ele><time>2026-05-03T15:06:25Z</time></trkpt><trkpt lat="45.20244680968023" lon="8.635159627698707"><ele>103.0</ele><time>2026-05-03T15:06:26Z</time></trkpt><trkpt lat="45.2025757964798" lon="8.635453948338316"><ele>103.0</ele><time>2026-05-03T15:06:27Z</time></trkpt><trkpt lat="45.202710735120064" lon="8.63575176200975"><ele>103.0</ele><time>2026-05-03T15:06:28Z</time></trkpt><trkpt lat="45.202843779234726" lon="8.636044364051903"><ele>103.0</ele><time>2026-05-03T15:06:29Z</time></trkpt><trkpt lat="45.202965184650324" lon="8.63631607010055"><ele>103.0</ele><time>2026-05-03T15:06:30Z</time></trkpt><trkpt lat="45.203081821280485" lon="8.636578706062389"><ele>103.0</ele><time>2026-05-03T15:06:31Z</time></trkpt><trkpt lat="45.20318618857222" lon="8.636833296551181"><ele>102.66666666666667</ele><time>2026-05-03T15:06:32Z</time></trkpt><trkpt lat="45.20329235045816" lon="8.637073350333944"><ele>102.33333333333334</ele><time>2026-05-03T15:06:33Z</time></trkpt><trkpt lat="45.20343616548158" lon="8.63728943182329"><ele>102.0</ele><time>2026-05-03T15:06:34Z</time></trkpt><trkpt lat="45.20361546721341" lon="8.637483070115572"><ele>102.0</ele><time>2026-05-03T15:06:35Z</time></trkpt><trkpt lat="45.2038259590266" lon="8.637652347328155"><ele>102.0</ele><time>2026-05-03T15:06:36Z</time></trkpt><trkpt lat="45.20402053905828" lon="8.637818985018878"><ele>102.0</ele><time>2026-05-03T15:06:37Z</time></trkpt><trkpt lat="45.204235018876496" lon="8.637985028748743"><ele>102.0</ele><time>2026-05-03T15:06:38Z</time></trkpt><trkpt lat="45.20446544820644" lon="8.63815734480521"><ele>102.0</ele><time>2026-05-03T15:06:39Z</time></trkpt><trkpt lat="45.20467281320633" lon="8.638343529201476"><ele>102.0</ele><time>2026-05-03T15:06:40Z</time></trkpt><trkpt lat="45.20490160548841" lon="8.638530087138408"><ele>101.5</ele><time>2026-05-03T15:06:41Z</time></trkpt><trkpt lat="45.20511446846585" lon="8.638760227864973"><ele>101.0</ele><time>2026-05-03T15:06:42Z</time></trkpt><trkpt lat="45.20528467920802" lon="8.639023244489023"><ele>101.0</ele><time>2026-05-03T15:06:43Z</time></trkpt><trkpt lat="45.205440385099614" lon="8.639311002055978"><ele>101.0</ele><time>2026-05-03T15:06:44Z</time></trkpt><trkpt lat="45.20561221258166" lon="8.639580678845805"><ele>101.0</ele><time>2026-05-03T15:06:45Z</time></trkpt><trkpt lat="45.2057915304266" lon="8.639849244250899"><ele>101.0</ele><time>2026-05-03T15:06:46Z</time></trkpt><trkpt lat="45.20596159993372" lon="8.64012267835475"><ele>100.5</ele><time>2026-05-03T15:06:47Z</time></trkpt><trkpt lat="45.20613836474525" lon="8.640406640001315"><ele>100.0</ele><time>2026-05-03T15:06:48Z</time></trkpt><trkpt lat="45.206320917539955" lon="8.640688804281863"><ele>100.0</ele><time>2026-05-03T15:06:49Z</time></trkpt><trkpt lat="45.20650528614433" lon="8.640973290831305"><ele>100.0</ele><time>2026-05-03T15:06:50Z</time></trkpt><trkpt lat="45.20669586451421" lon="8.641251121118428"><ele>100.0</ele><time>2026-05-03T15:06:51Z</time></trkpt><trkpt lat="45.206870928716306" lon="8.641536751852845"><ele>100.0</ele><time>2026-05-03T15:06:52Z</time></trkpt><trkpt lat="45.2070579348051" lon="8.64182368936555"><ele>100.0</ele><time>2026-05-03T15:06:53Z</time></trkpt><trkpt lat="45.20722751187626" lon="8.64211505951291"><ele>100.0</ele><time>2026-05-03T15:06:54Z</time></trkpt><trkpt lat="45.20740551103012" lon="8.642399812724795"><ele>100.5</ele><time>2026-05-03T15:06:55Z</time></trkpt><trkpt lat="45.207584482745865" lon="8.64268883440494"><ele>101.0</ele><time>2026-05-03T15:06:56Z</time></trkpt><trkpt lat="45.20776492516883" lon="8.642982762728524"><ele>101.0</ele><time>2026-05-03T15:06:57Z</time></trkpt><trkpt lat="45.207954092214216" lon="8.64328099546306"><ele>101.0</ele><time>2026-05-03T15:06:58Z</time></trkpt><trkpt lat="45.20812892074309" lon="8.643574490309168"><ele>101.0</ele><time>2026-05-03T15:06:59Z</time></trkpt><trkpt lat="45.20830893319578" lon="8.643860494500382"><ele>101.0</ele><time>2026-05-03T15:07:00Z</time></trkpt><trkpt lat="45.20850402443739" lon="8.644141853044617"><ele>101.0</ele><time>2026-05-03T15:07:01Z</time></trkpt><trkpt lat="45.20869195510255" lon="8.64442237381316"><ele>101.0</ele><time>2026-05-03T15:07:02Z</time></trkpt><trkpt lat="45.2088670097909" lon="8.644710486064826"><ele>101.5</ele><time>2026-05-03T15:07:03Z</time></trkpt><trkpt lat="45.20905092784409" lon="8.644996782591926"><ele>102.0</ele><time>2026-05-03T15:07:04Z</time></trkpt><trkpt lat="45.20923168792756" lon="8.645279833260652"><ele>102.0</ele><time>2026-05-03T15:07:05Z</time></trkpt><trkpt lat="45.20942449829958" lon="8.645557407209692"><ele>102.0</ele><time>2026-05-03T15:07:06Z</time></trkpt><trkpt lat="45.20960065840013" lon="8.645834194706072"><ele>102.0</ele><time>2026-05-03T15:07:07Z</time></trkpt><trkpt lat="45.20977387173351" lon="8.646105225712875"><ele>102.0</ele><time>2026-05-03T15:07:08Z</time></trkpt><trkpt lat="45.20993834708082" lon="8.646369824808225"><ele>102.5</ele><time>2026-05-03T15:07:09Z</time></trkpt><trkpt lat="45.21010510383606" lon="8.6466255776666"><ele>103.0</ele><time>2026-05-03T15:07:10Z</time></trkpt><trkpt lat="45.2102705703235" lon="8.64688014940576"><ele>104.0</ele><time>2026-05-03T15:07:11Z</time></trkpt><trkpt lat="45.21042764357412" lon="8.647138144373733"><ele>105.0</ele><time>2026-05-03T15:07:12Z</time></trkpt><trkpt lat="45.210589344318585" lon="8.647389256843704"><ele>105.5</ele><time>2026-05-03T15:07:13Z</time></trkpt><trkpt lat="45.21076978898626" lon="8.647652291513669"><ele>106.0</ele><time>2026-05-03T15:07:14Z</time></trkpt><trkpt lat="45.210929224617544" lon="8.647911352462941"><ele>107.0</ele><time>2026-05-03T15:07:15Z</time></trkpt><trkpt lat="45.21108673916433" lon="8.648156303763699"><ele>108.0</ele><time>2026-05-03T15:07:16Z</time></trkpt><trkpt lat="45.21124325145826" lon="8.648398601274303"><ele>107.66666666666666</ele><time>2026-05-03T15:07:17Z</time></trkpt><trkpt lat="45.21139130439705" lon="8.64863754519407"><ele>107.33333333333333</ele><time>2026-05-03T15:07:18Z</time></trkpt><trkpt lat="45.211541666173645" lon="8.648862680473803"><ele>107.0</ele><time>2026-05-03T15:07:19Z</time></trkpt><trkpt lat="45.211678365515475" lon="8.649093096029054"><ele>106.33333333333333</ele><time>2026-05-03T15:07:20Z</time></trkpt><trkpt lat="45.21180976862881" lon="8.649314331755352"><ele>105.66666666666666</ele><time>2026-05-03T15:07:21Z</time></trkpt><trkpt lat="45.21197144875635" lon="8.64955040726432"><ele>105.0</ele><time>2026-05-03T15:07:22Z</time></trkpt><trkpt lat="45.21212850561055" lon="8.6497960408331"><ele>104.5</ele><time>2026-05-03T15:07:23Z</time></trkpt><trkpt lat="45.21229212467628" lon="8.650048880957346"><ele>104.0</ele><time>2026-05-03T15:07:24Z</time></trkpt><trkpt lat="45.21244842884512" lon="8.650300650226207"><ele>104.0</ele><time>2026-05-03T15:07:25Z</time></trkpt><trkpt lat="45.21261216505509" lon="8.650554254199314"><ele>104.0</ele><time>2026-05-03T15:07:26Z</time></trkpt><trkpt lat="45.21278556379746" lon="8.650801888512184"><ele>104.0</ele><time>2026-05-03T15:07:27Z</time></trkpt><trkpt lat="45.21295914894023" lon="8.651059923019469"><ele>104.0</ele><time>2026-05-03T15:07:28Z</time></trkpt><trkpt lat="45.21313442983018" lon="8.651312131062094"><ele>104.5</ele><time>2026-05-03T15:07:29Z</time></trkpt><trkpt lat="45.213318846040195" lon="8.65158446413052"><ele>105.0</ele><time>2026-05-03T15:07:30Z</time></trkpt><trkpt lat="45.21349880107368" lon="8.65186657922019"><ele>105.5</ele><time>2026-05-03T15:07:31Z</time></trkpt><trkpt lat="45.213675425979005" lon="8.652162065002832"><ele>106.0</ele><time>2026-05-03T15:07:32Z</time></trkpt><trkpt lat="45.21385239917602" lon="8.65245342316862"><ele>106.0</ele><time>2026-05-03T15:07:33Z</time></trkpt><trkpt lat="45.214030812603426" lon="8.652742447753928"><ele>106.0</ele><time>2026-05-03T15:07:34Z</time></trkpt><trkpt lat="45.214208555087986" lon="8.653040231558476"><ele>105.5</ele><time>2026-05-03T15:07:35Z</time></trkpt><trkpt lat="45.21438932663902" lon="8.653334774693901"><ele>105.0</ele><time>2026-05-03T15:07:36Z</time></trkpt><trkpt lat="45.21456847647829" lon="8.653628141898041"><ele>105.0</ele><time>2026-05-03T15:07:37Z</time></trkpt><trkpt lat="45.21475153923799" lon="8.653913052659679"><ele>105.0</ele><time>2026-05-03T15:07:38Z</time></trkpt><trkpt lat="45.21493025736253" lon="8.65420202630694"><ele>105.0</ele><time>2026-05-03T15:07:39Z</time></trkpt><trkpt lat="45.21510684459801" lon="8.654489101997504"><ele>105.0</ele><time>2026-05-03T15:07:40Z</time></trkpt><trkpt lat="45.21528321870207" lon="8.654768175579788"><ele>105.0</ele><time>2026-05-03T15:07:41Z</time></trkpt><trkpt lat="45.215465177730174" lon="8.65505881276519"><ele>105.0</ele><time>2026-05-03T15:07:42Z</time></trkpt><trkpt lat="45.21564494505876" lon="8.655355966985804"><ele>105.5</ele><time>2026-05-03T15:07:43Z</time></trkpt><trkpt lat="45.21583343226257" lon="8.6556443404975"><ele>106.0</ele><time>2026-05-03T15:07:44Z</time></trkpt><trkpt lat="45.216031934378265" lon="8.655924065121138"><ele>105.5</ele><time>2026-05-03T15:07:45Z</time></trkpt><trkpt lat="45.21622229627578" lon="8.656211803066302"><ele>105.0</ele><time>2026-05-03T15:07:46Z</time></trkpt><trkpt lat="45.21640867608088" lon="8.656512363555953"><ele>105.0</ele><time>2026-05-03T15:07:47Z</time></trkpt><trkpt lat="45.216589617766594" lon="8.656807566907288"><ele>105.0</ele><time>2026-05-03T15:07:48Z</time></trkpt><trkpt lat="45.21678348628547" lon="8.657112403844705"><ele>105.0</ele><time>2026-05-03T15:07:49Z</time></trkpt><trkpt lat="45.21696439033885" lon="8.657409612629543"><ele>105.0</ele><time>2026-05-03T15:07:50Z</time></trkpt><trkpt lat="45.217148086324336" lon="8.657698210262483"><ele>107.5</ele><time>2026-05-03T15:07:51Z</time></trkpt><trkpt lat="45.21732635931088" lon="8.657992580266358"><ele>110.0</ele><time>2026-05-03T15:07:52Z</time></trkpt><trkpt lat="45.217519066553294" lon="8.658282486629135"><ele>110.0</ele><time>2026-05-03T15:07:53Z</time></trkpt><trkpt lat="45.21776050440769" lon="8.658561749876197"><ele>110.0</ele><time>2026-05-03T15:07:54Z</time></trkpt><trkpt lat="45.217908027046704" lon="8.658846752755133"><ele>111.5</ele><time>2026-05-03T15:07:55Z</time></trkpt><trkpt lat="45.21809584701454" lon="8.659149821227386"><ele>113.0</ele><time>2026-05-03T15:07:56Z</time></trkpt><trkpt lat="45.21827579435884" lon="8.659446521472645"><ele>111.0</ele><time>2026-05-03T15:07:57Z</time></trkpt><trkpt lat="45.21845876542563" lon="8.659730981623598"><ele>109.0</ele><time>2026-05-03T15:07:58Z</time></trkpt><trkpt lat="45.21863556510448" lon="8.660019907782825"><ele>107.5</ele><time>2026-05-03T15:07:58.999Z</time></trkpt><trkpt lat="45.21880602361198" lon="8.660313760464875"><ele>106.0</ele><time>2026-05-03T15:07:59.999Z</time></trkpt><trkpt lat="45.218975849130466" lon="8.660602707545277"><ele>106.5</ele><time>2026-05-03T15:08:00.999Z</time></trkpt><trkpt lat="45.219138233797366" lon="8.660884753496717"><ele>107.0</ele><time>2026-05-03T15:08:01.999Z</time></trkpt><trkpt lat="45.21931370457667" lon="8.661166710361206"><ele>107.0</ele><time>2026-05-03T15:08:02.999Z</time></trkpt><trkpt lat="45.2194764331601" lon="8.661441159095732"><ele>107.0</ele><time>2026-05-03T15:08:03.999Z</time></trkpt><trkpt lat="45.21964603452774" lon="8.66170852559949"><ele>107.5</ele><time>2026-05-03T15:08:04.999Z</time></trkpt><trkpt lat="45.219832116774896" lon="8.661994529851471"><ele>108.0</ele><time>2026-05-03T15:08:05.999Z</time></trkpt><trkpt lat="45.22000124990325" lon="8.66227219512856"><ele>108.0</ele><time>2026-05-03T15:08:06.999Z</time></trkpt><trkpt lat="45.2201572007526" lon="8.662566331907003"><ele>108.0</ele><time>2026-05-03T15:08:07.999Z</time></trkpt><trkpt lat="45.220305378319" lon="8.662881867213832"><ele>107.5</ele><time>2026-05-03T15:08:08.999Z</time></trkpt><trkpt lat="45.22042054731167" lon="8.663199795753"><ele>107.0</ele><time>2026-05-03T15:08:09.999Z</time></trkpt><trkpt lat="45.220555658933705" lon="8.663526858475798"><ele>106.0</ele><time>2026-05-03T15:08:10.999Z</time></trkpt><trkpt lat="45.220741115252146" lon="8.663853675400041"><ele>105.0</ele><time>2026-05-03T15:08:11.999Z</time></trkpt><trkpt lat="45.22087577004221" lon="8.664185897883392"><ele>105.5</ele><time>2026-05-03T15:08:12.999Z</time></trkpt><trkpt lat="45.221001639253366" lon="8.664508722474196"><ele>106.0</ele><time>2026-05-03T15:08:13.999Z</time></trkpt><trkpt lat="45.22111853989878" lon="8.664823726025713"><ele>106.0</ele><time>2026-05-03T15:08:14.999Z</time></trkpt><trkpt lat="45.22125970808832" lon="8.66514119503636"><ele>106.0</ele><time>2026-05-03T15:08:15.999Z</time></trkpt><trkpt lat="45.22138841118925" lon="8.66545360127129"><ele>106.0</ele><time>2026-05-03T15:08:16.999Z</time></trkpt><trkpt lat="45.221515893756354" lon="8.66577452760136"><ele>106.0</ele><time>2026-05-03T15:08:17.999Z</time></trkpt><trkpt lat="45.221647121051085" lon="8.666084130233898"><ele>106.0</ele><time>2026-05-03T15:08:18.999Z</time></trkpt><trkpt lat="45.221765584163535" lon="8.66639721949182"><ele>106.0</ele><time>2026-05-03T15:08:19.999Z</time></trkpt><trkpt lat="45.22190289410542" lon="8.666698498769659"><ele>106.0</ele><time>2026-05-03T15:08:20.999Z</time></trkpt><trkpt lat="45.222033923701524" lon="8.667006095117218"><ele>106.0</ele><time>2026-05-03T15:08:21.999Z</time></trkpt><trkpt lat="45.22215395078893" lon="8.667319641305122"><ele>106.0</ele><time>2026-05-03T15:08:22.999Z</time></trkpt><trkpt lat="45.222288416590004" lon="8.667625080574004"><ele>106.0</ele><time>2026-05-03T15:08:23.999Z</time></trkpt><trkpt lat="45.22241475283311" lon="8.667936449518312"><ele>106.0</ele><time>2026-05-03T15:08:24.999Z</time></trkpt><trkpt lat="45.222544595811826" lon="8.668248659513129"><ele>106.0</ele><time>2026-05-03T15:08:25.999Z</time></trkpt><trkpt lat="45.22268757036556" lon="8.66856273742432"><ele>106.0</ele><time>2026-05-03T15:08:26.999Z</time></trkpt><trkpt lat="45.22282971032044" lon="8.668881846823949"><ele>106.0</ele><time>2026-05-03T15:08:27.999Z</time></trkpt><trkpt lat="45.22295237686148" lon="8.669205417717597"><ele>106.0</ele><time>2026-05-03T15:08:28.999Z</time></trkpt><trkpt lat="45.223073164788325" lon="8.669532221685081"><ele>106.0</ele><time>2026-05-03T15:08:29.999Z</time></trkpt><trkpt lat="45.22320375943723" lon="8.669848849781257"><ele>106.0</ele><time>2026-05-03T15:08:31Z</time></trkpt><trkpt lat="45.22333038652252" lon="8.670167167963521"><ele>106.0</ele><time>2026-05-03T15:08:32Z</time></trkpt><trkpt lat="45.22345310620079" lon="8.670464822310288"><ele>106.0</ele><time>2026-05-03T15:08:33Z</time></trkpt><trkpt lat="45.22356293135606" lon="8.670747533234751"><ele>106.0</ele><time>2026-05-03T15:08:34Z</time></trkpt><trkpt lat="45.22367281813616" lon="8.671012568456215"><ele>106.0</ele><time>2026-05-03T15:08:35Z</time></trkpt><trkpt lat="45.22378098330811" lon="8.671263130026182"><ele>106.0</ele><time>2026-05-03T15:08:36Z</time></trkpt><trkpt lat="45.22387272104031" lon="8.671503227316286"><ele>106.0</ele><time>2026-05-03T15:08:37Z</time></trkpt><trkpt lat="45.223946727803984" lon="8.671726209709147"><ele>106.0</ele><time>2026-05-03T15:08:38Z</time></trkpt><trkpt lat="45.22403425379854" lon="8.671942097466596"><ele>106.33333333333334</ele><time>2026-05-03T15:08:39Z</time></trkpt><trkpt lat="45.22413062926853" lon="8.672153700358587"><ele>106.66666666666666</ele><time>2026-05-03T15:08:40Z</time></trkpt><trkpt lat="45.22423572066638" lon="8.67236486681909"><ele>107.0</ele><time>2026-05-03T15:08:41Z</time></trkpt><trkpt lat="45.2243323855294" lon="8.67257681669773"><ele>107.0</ele><time>2026-05-03T15:08:42Z</time></trkpt><trkpt lat="45.22442309561513" lon="8.672776616415351"><ele>107.0</ele><time>2026-05-03T15:08:43Z</time></trkpt><trkpt lat="45.224503386314446" lon="8.672967368301817"><ele>107.0</ele><time>2026-05-03T15:08:44Z</time></trkpt><trkpt lat="45.22459035956918" lon="8.673165318431781"><ele>107.0</ele><time>2026-05-03T15:08:45Z</time></trkpt><trkpt lat="45.22467030758165" lon="8.673373549123742"><ele>107.0</ele><time>2026-05-03T15:08:46Z</time></trkpt><trkpt lat="45.224755547668344" lon="8.67358996333816"><ele>107.0</ele><time>2026-05-03T15:08:47Z</time></trkpt><trkpt lat="45.224873848656756" lon="8.673821075635846"><ele>107.0</ele><time>2026-05-03T15:08:48Z</time></trkpt><trkpt lat="45.224987383640965" lon="8.674087876272186"><ele>107.0</ele><time>2026-05-03T15:08:49Z</time></trkpt><trkpt lat="45.22511436188272" lon="8.674366526546352"><ele>106.5</ele><time>2026-05-03T15:08:50Z</time></trkpt><trkpt lat="45.22522671748964" lon="8.674646358757968"><ele>106.0</ele><time>2026-05-03T15:08:51Z</time></trkpt><trkpt lat="45.22535745053273" lon="8.674944580572088"><ele>106.0</ele><time>2026-05-03T15:08:52Z</time></trkpt><trkpt lat="45.22547640268594" lon="8.675246462058801"><ele>106.0</ele><time>2026-05-03T15:08:53Z</time></trkpt><trkpt lat="45.22558745512901" lon="8.67552669390873"><ele>106.33333333333334</ele><time>2026-05-03T15:08:54Z</time></trkpt><trkpt lat="45.22570012792179" lon="8.675792885376405"><ele>106.66666666666666</ele><time>2026-05-03T15:08:55Z</time></trkpt><trkpt lat="45.22579946204681" lon="8.676048365154701"><ele>107.0</ele><time>2026-05-03T15:08:56Z</time></trkpt><trkpt lat="45.2259008371645" lon="8.67628686088579"><ele>107.0</ele><time>2026-05-03T15:08:57Z</time></trkpt><trkpt lat="45.22598390952641" lon="8.676516908020075"><ele>107.0</ele><time>2026-05-03T15:08:58Z</time></trkpt><trkpt lat="45.22604993742631" lon="8.676714915181662"><ele>107.0</ele><time>2026-05-03T15:08:59Z</time></trkpt><trkpt lat="45.22610202983264" lon="8.676890592384504"><ele>106.8</ele><time>2026-05-03T15:09:00Z</time></trkpt><trkpt lat="45.2261628427323" lon="8.677038809970798"><ele>106.6</ele><time>2026-05-03T15:09:01Z</time></trkpt><trkpt lat="45.22613149102336" lon="8.677142482798702"><ele>106.39999999999999</ele><time>2026-05-03T15:09:02Z</time></trkpt><trkpt lat="45.22614380247856" lon="8.677269141114742"><ele>106.19999999999999</ele><time>2026-05-03T15:09:03Z</time></trkpt><trkpt lat="45.22617313191027" lon="8.677395976996117"><ele>106.0</ele><time>2026-05-03T15:09:04Z</time></trkpt><trkpt lat="45.22622760625944" lon="8.677498077292336"><ele>106.0</ele><time>2026-05-03T15:09:05Z</time></trkpt><trkpt lat="45.22632444110865" lon="8.677544314303296"><ele>106.0</ele><time>2026-05-03T15:09:06Z</time></trkpt><trkpt lat="45.226446069958754" lon="8.677573856750906"><ele>106.0</ele><time>2026-05-03T15:09:07Z</time></trkpt><trkpt lat="45.226592120304495" lon="8.677681416542073"><ele>106.0</ele><time>2026-05-03T15:09:08Z</time></trkpt><trkpt lat="45.22671028947502" lon="8.67783224832733"><ele>106.0</ele><time>2026-05-03T15:09:09Z</time></trkpt><trkpt lat="45.22682139874077" lon="8.677959401689334"><ele>106.0</ele><time>2026-05-03T15:09:10Z</time></trkpt><trkpt lat="45.22694137568463" lon="8.678087110418103"><ele>106.0</ele><time>2026-05-03T15:09:11Z</time></trkpt><trkpt lat="45.22705651086134" lon="8.67820754027719"><ele>106.0</ele><time>2026-05-03T15:09:12Z</time></trkpt><trkpt lat="45.22717556183769" lon="8.678335553945939"><ele>106.0</ele><time>2026-05-03T15:09:13Z</time></trkpt><trkpt lat="45.22729884592759" lon="8.678475450682498"><ele>106.0</ele><time>2026-05-03T15:09:14Z</time></trkpt><trkpt lat="45.227433318498214" lon="8.678614900479571"><ele>106.0</ele><time>2026-05-03T15:09:15Z</time></trkpt><trkpt lat="45.22759015033734" lon="8.67876120560557"><ele>105.66666666666667</ele><time>2026-05-03T15:09:16Z</time></trkpt><trkpt lat="45.227755893427926" lon="8.678923667998443"><ele>105.33333333333334</ele><time>2026-05-03T15:09:17Z</time></trkpt><trkpt lat="45.22791511881477" lon="8.679089737634335"><ele>105.0</ele><time>2026-05-03T15:09:18Z</time></trkpt><trkpt lat="45.22808735382931" lon="8.679276300265657"><ele>105.0</ele><time>2026-05-03T15:09:19Z</time></trkpt><trkpt lat="45.22825910015698" lon="8.679476159215753"><ele>105.0</ele><time>2026-05-03T15:09:20Z</time></trkpt><trkpt lat="45.2284307143882" lon="8.679667437834086"><ele>105.0</ele><time>2026-05-03T15:09:21Z</time></trkpt><trkpt lat="45.2285987605068" lon="8.679842427038704"><ele>105.0</ele><time>2026-05-03T15:09:22Z</time></trkpt><trkpt lat="45.22877346426728" lon="8.680011165467883"><ele>105.0</ele><time>2026-05-03T15:09:23Z</time></trkpt><trkpt lat="45.228932878020345" lon="8.680173126431331"><ele>105.0</ele><time>2026-05-03T15:09:24Z</time></trkpt><trkpt lat="45.22907819222039" lon="8.680335854430748"><ele>105.0</ele><time>2026-05-03T15:09:25Z</time></trkpt><trkpt lat="45.22921379210375" lon="8.68049023901459"><ele>105.0</ele><time>2026-05-03T15:09:26Z</time></trkpt><trkpt lat="45.229348845876615" lon="8.68064351795269"><ele>105.0</ele><time>2026-05-03T15:09:27Z</time></trkpt><trkpt lat="45.229476752114635" lon="8.680789114204012"><ele>105.0</ele><time>2026-05-03T15:09:28Z</time></trkpt><trkpt lat="45.229586702250465" lon="8.680931761692369"><ele>105.0</ele><time>2026-05-03T15:09:29Z</time></trkpt><trkpt lat="45.229698054059746" lon="8.681093833586283"><ele>105.0</ele><time>2026-05-03T15:09:30Z</time></trkpt><trkpt lat="45.22979030685639" lon="8.681270873444012"><ele>104.33333333333334</ele><time>2026-05-03T15:09:31Z</time></trkpt><trkpt lat="45.229883735863076" lon="8.681464087662858"><ele>103.66666666666667</ele><time>2026-05-03T15:09:32Z</time></trkpt><trkpt lat="45.22997962894193" lon="8.68165993326233"><ele>103.0</ele><time>2026-05-03T15:09:33Z</time></trkpt><trkpt lat="45.230076329765495" lon="8.68185055511148"><ele>103.33333333333334</ele><time>2026-05-03T15:09:34Z</time></trkpt><trkpt lat="45.23017019801611" lon="8.682040276356432"><ele>103.66666666666666</ele><time>2026-05-03T15:09:35Z</time></trkpt><trkpt lat="45.23025584000326" lon="8.682234306780781"><ele>104.0</ele><time>2026-05-03T15:09:36Z</time></trkpt><trkpt lat="45.230347468974806" lon="8.68241869835632"><ele>104.0</ele><time>2026-05-03T15:09:37Z</time></trkpt><trkpt lat="45.23043498704248" lon="8.682608433831179"><ele>104.0</ele><time>2026-05-03T15:09:38Z</time></trkpt><trkpt lat="45.230531664334485" lon="8.682791385725487"><ele>104.0</ele><time>2026-05-03T15:09:39Z</time></trkpt><trkpt lat="45.23062318247256" lon="8.682973233410227"><ele>104.25</ele><time>2026-05-03T15:09:40Z</time></trkpt><trkpt lat="45.230711877519255" lon="8.683152091289077"><ele>104.5</ele><time>2026-05-03T15:09:41Z</time></trkpt><trkpt lat="45.23080267331675" lon="8.683330768104677"><ele>104.75</ele><time>2026-05-03T15:09:42Z</time></trkpt><trkpt lat="45.23088235496358" lon="8.683488781744497"><ele>105.0</ele><time>2026-05-03T15:09:43Z</time></trkpt><trkpt lat="45.230951121443034" lon="8.683632634080753"><ele>104.5</ele><time>2026-05-03T15:09:44Z</time></trkpt><trkpt lat="45.23101028445291" lon="8.683764002553888"><ele>104.0</ele><time>2026-05-03T15:09:45Z</time></trkpt><trkpt lat="45.23108276426702" lon="8.683888653452485"><ele>103.5</ele><time>2026-05-03T15:09:46Z</time></trkpt><trkpt lat="45.23114622418927" lon="8.684017454223724"><ele>103.0</ele><time>2026-05-03T15:09:47Z</time></trkpt><trkpt lat="45.231208313034806" lon="8.684155340215757"><ele>103.0</ele><time>2026-05-03T15:09:48Z</time></trkpt><trkpt lat="45.23127712808685" lon="8.684286269106101"><ele>103.0</ele><time>2026-05-03T15:09:49Z</time></trkpt><trkpt lat="45.23134043100587" lon="8.68441491066763"><ele>103.0</ele><time>2026-05-03T15:09:50Z</time></trkpt><trkpt lat="45.2313957140881" lon="8.684544003829464"><ele>103.0</ele><time>2026-05-03T15:09:51Z</time></trkpt><trkpt lat="45.23146365900477" lon="8.6846672626512"><ele>103.0</ele><time>2026-05-03T15:09:52Z</time></trkpt><trkpt lat="45.23152161394285" lon="8.684796923083681"><ele>103.4</ele><time>2026-05-03T15:09:53Z</time></trkpt><trkpt lat="45.23158496912916" lon="8.684927609813208"><ele>103.80000000000001</ele><time>2026-05-03T15:09:54Z</time></trkpt><trkpt lat="45.231638997713155" lon="8.685051021935072"><ele>104.2</ele><time>2026-05-03T15:09:54.999Z</time></trkpt><trkpt lat="45.23169042377647" lon="8.685166845777557"><ele>104.6</ele><time>2026-05-03T15:09:55.999Z</time></trkpt><trkpt lat="45.231743199611955" lon="8.685272617327744"><ele>105.0</ele><time>2026-05-03T15:09:56.999Z</time></trkpt><trkpt lat="45.231801453280994" lon="8.685377507504233"><ele>105.0</ele><time>2026-05-03T15:09:57.999Z</time></trkpt><trkpt lat="45.23184770701956" lon="8.685483925100256"><ele>105.0</ele><time>2026-05-03T15:09:58.999Z</time></trkpt><trkpt lat="45.231913542259655" lon="8.685597752835019"><ele>105.0</ele><time>2026-05-03T15:09:59.999Z</time></trkpt><trkpt lat="45.23196523318548" lon="8.685703961133626"><ele>105.0</ele><time>2026-05-03T15:10:00.999Z</time></trkpt><trkpt lat="45.2320241281554" lon="8.685806028378495"><ele>105.0</ele><time>2026-05-03T15:10:01.999Z</time></trkpt><trkpt lat="45.23207880650013" lon="8.685907403005142"><ele>105.0</ele><time>2026-05-03T15:10:02.999Z</time></trkpt><trkpt lat="45.23214334919611" lon="8.686017114936078"><ele>105.0</ele><time>2026-05-03T15:10:03.999Z</time></trkpt><trkpt lat="45.23220697897552" lon="8.686133702813134"><ele>105.0</ele><time>2026-05-03T15:10:04.999Z</time></trkpt><trkpt lat="45.23227383537153" lon="8.686253587497305"><ele>105.0</ele><time>2026-05-03T15:10:05.999Z</time></trkpt><trkpt lat="45.232339416668495" lon="8.68638906685542"><ele>105.0</ele><time>2026-05-03T15:10:06.999Z</time></trkpt><trkpt lat="45.23240634545715" lon="8.68652556108777"><ele>105.2</ele><time>2026-05-03T15:10:07.999Z</time></trkpt><trkpt lat="45.23247049378424" lon="8.68665197418718"><ele>105.4</ele><time>2026-05-03T15:10:08.999Z</time></trkpt><trkpt lat="45.23253517222854" lon="8.68676403211855"><ele>105.6</ele><time>2026-05-03T15:10:09.999Z</time></trkpt><trkpt lat="45.23259585355227" lon="8.686886007925494"><ele>105.8</ele><time>2026-05-03T15:10:10.999Z</time></trkpt><trkpt lat="45.23265983521862" lon="8.687020861508845"><ele>106.0</ele><time>2026-05-03T15:10:11.999Z</time></trkpt><trkpt lat="45.232715702578375" lon="8.687153771129372"><ele>106.0</ele><time>2026-05-03T15:10:12.999Z</time></trkpt><trkpt lat="45.23277141963847" lon="8.687278384647515"><ele>106.0</ele><time>2026-05-03T15:10:13.999Z</time></trkpt><trkpt lat="45.23283266565187" lon="8.687398404151303"><ele>106.0</ele><time>2026-05-03T15:10:14.999Z</time></trkpt><trkpt lat="45.23289285212686" lon="8.6875134089854"><ele>106.0</ele><time>2026-05-03T15:10:15.999Z</time></trkpt><trkpt lat="45.23295625700018" lon="8.687630720320964"><ele>106.0</ele><time>2026-05-03T15:10:16.999Z</time></trkpt><trkpt lat="45.23301776415591" lon="8.687728684809276"><ele>106.19999999999999</ele><time>2026-05-03T15:10:17.999Z</time></trkpt><trkpt lat="45.233057607032364" lon="8.687831612196913"><ele>106.39999999999999</ele><time>2026-05-03T15:10:18.999Z</time></trkpt><trkpt lat="45.23311944941767" lon="8.687942775574399"><ele>106.6</ele><time>2026-05-03T15:10:19.999Z</time></trkpt><trkpt lat="45.23318061633563" lon="8.688045364509811"><ele>106.8</ele><time>2026-05-03T15:10:20.999Z</time></trkpt><trkpt lat="45.23323796199449" lon="8.688150081726052"><ele>107.0</ele><time>2026-05-03T15:10:21.999Z</time></trkpt><trkpt lat="45.23329008001942" lon="8.688249158922776"><ele>107.0</ele><time>2026-05-03T15:10:22.999Z</time></trkpt><trkpt lat="45.233343333269005" lon="8.688354567114837"><ele>106.99999999999999</ele><time>2026-05-03T15:10:23.999Z</time></trkpt><trkpt lat="45.23339124175168" lon="8.6884634440687"><ele>106.99999999999999</ele><time>2026-05-03T15:10:24.999Z</time></trkpt><trkpt lat="45.233450369072585" lon="8.6885730043546"><ele>107.0</ele><time>2026-05-03T15:10:25.999Z</time></trkpt><trkpt lat="45.23349560448318" lon="8.688680583531218"><ele>107.0</ele><time>2026-05-03T15:10:26.999Z</time></trkpt><trkpt lat="45.23354794412162" lon="8.68877513999384"><ele>107.0</ele><time>2026-05-03T15:10:27.999Z</time></trkpt><trkpt lat="45.23359672923662" lon="8.688879748749992"><ele>106.99999999999999</ele><time>2026-05-03T15:10:28.999Z</time></trkpt><trkpt lat="45.233647327597076" lon="8.688985688152314"><ele>106.99999999999999</ele><time>2026-05-03T15:10:29.999Z</time></trkpt><trkpt lat="45.23369589996818" lon="8.689091955486457"><ele>107.0</ele><time>2026-05-03T15:10:30.999Z</time></trkpt><trkpt lat="45.233750338802" lon="8.689199207837644"><ele>107.0</ele><time>2026-05-03T15:10:31.999Z</time></trkpt><trkpt lat="45.23380185728084" lon="8.689305879581768"><ele>107.0</ele><time>2026-05-03T15:10:32.999Z</time></trkpt><trkpt lat="45.23384970858175" lon="8.68941502699198"><ele>106.99999999999999</ele><time>2026-05-03T15:10:33.999Z</time></trkpt><trkpt lat="45.23391374478687" lon="8.689520003914012"><ele>106.99999999999999</ele><time>2026-05-03T15:10:34.999Z</time></trkpt><trkpt lat="45.23396856380002" lon="8.689628296745207"><ele>107.0</ele><time>2026-05-03T15:10:35.999Z</time></trkpt><trkpt lat="45.23402555417454" lon="8.689737756064044"><ele>107.0</ele><time>2026-05-03T15:10:37Z</time></trkpt><trkpt lat="45.2340792671054" lon="8.689844056878844"><ele>107.19999999999999</ele><time>2026-05-03T15:10:38Z</time></trkpt><trkpt lat="45.234138489217706" lon="8.689942758016018"><ele>107.39999999999999</ele><time>2026-05-03T15:10:39Z</time></trkpt><trkpt lat="45.23420112446467" lon="8.690063311519737"><ele>107.60000000000001</ele><time>2026-05-03T15:10:40Z</time></trkpt><trkpt lat="45.234260083792904" lon="8.690182447369486"><ele>107.80000000000001</ele><time>2026-05-03T15:10:41Z</time></trkpt><trkpt lat="45.23432637930649" lon="8.690313810359271"><ele>108.0</ele><time>2026-05-03T15:10:42Z</time></trkpt><trkpt lat="45.23440586677767" lon="8.690452069797908"><ele>108.5</ele><time>2026-05-03T15:10:43Z</time></trkpt><trkpt lat="45.23448266568453" lon="8.690582856552936"><ele>109.0</ele><time>2026-05-03T15:10:44Z</time></trkpt><trkpt lat="45.234558779939675" lon="8.690715517019365"><ele>109.5</ele><time>2026-05-03T15:10:45Z</time></trkpt><trkpt lat="45.23463937632915" lon="8.690846303019024"><ele>110.0</ele><time>2026-05-03T15:10:46Z</time></trkpt><trkpt lat="45.23471167701678" lon="8.690984250849025"><ele>110.25</ele><time>2026-05-03T15:10:47Z</time></trkpt><trkpt lat="45.23478618065783" lon="8.691119848905412"><ele>110.5</ele><time>2026-05-03T15:10:48Z</time></trkpt><trkpt lat="45.234879098914185" lon="8.691252482754127"><ele>110.75</ele><time>2026-05-03T15:10:49Z</time></trkpt><trkpt lat="45.23496413723871" lon="8.691376444734978"><ele>111.0</ele><time>2026-05-03T15:10:50Z</time></trkpt><trkpt lat="45.23505945218383" lon="8.691491329885128"><ele>110.25</ele><time>2026-05-03T15:10:51Z</time></trkpt><trkpt lat="45.23514960926395" lon="8.691607989836497"><ele>109.5</ele><time>2026-05-03T15:10:52Z</time></trkpt><trkpt lat="45.235232431120565" lon="8.691725318733084"><ele>108.75</ele><time>2026-05-03T15:10:53Z</time></trkpt><trkpt lat="45.23531955964885" lon="8.691839441117374"><ele>108.0</ele><time>2026-05-03T15:10:54Z</time></trkpt><trkpt lat="45.23540569821545" lon="8.691964231558215"><ele>108.0</ele><time>2026-05-03T15:10:55Z</time></trkpt><trkpt lat="45.235512950982695" lon="8.692095725593179"><ele>108.0</ele><time>2026-05-03T15:10:56Z</time></trkpt><trkpt lat="45.23564257127875" lon="8.69220969107887"><ele>108.0</ele><time>2026-05-03T15:10:57Z</time></trkpt><trkpt lat="45.235760812926635" lon="8.69232183842438"><ele>108.0</ele><time>2026-05-03T15:10:58Z</time></trkpt><trkpt lat="45.23585158286485" lon="8.692434701934078"><ele>108.0</ele><time>2026-05-03T15:10:59Z</time></trkpt><trkpt lat="45.23593862155799" lon="8.692547886405029"><ele>108.0</ele><time>2026-05-03T15:11:00Z</time></trkpt><trkpt lat="45.23602405043691" lon="8.692657783943476"><ele>108.0</ele><time>2026-05-03T15:11:01Z</time></trkpt><trkpt lat="45.23611163970582" lon="8.692766625371258"><ele>108.0</ele><time>2026-05-03T15:11:02Z</time></trkpt><trkpt lat="45.236199990022044" lon="8.692884232117327"><ele>107.80000000000001</ele><time>2026-05-03T15:11:03Z</time></trkpt><trkpt lat="45.23627867927169" lon="8.692993870866514"><ele>107.60000000000001</ele><time>2026-05-03T15:11:04Z</time></trkpt><trkpt lat="45.23635838580572" lon="8.693098638116895"><ele>107.39999999999999</ele><time>2026-05-03T15:11:05Z</time></trkpt><trkpt lat="45.23644033156377" lon="8.69319986473691"><ele>107.19999999999999</ele><time>2026-05-03T15:11:06Z</time></trkpt><trkpt lat="45.23652334268166" lon="8.69330649985584"><ele>107.0</ele><time>2026-05-03T15:11:07Z</time></trkpt><trkpt lat="45.23660894910652" lon="8.693412486024837"><ele>107.25</ele><time>2026-05-03T15:11:08Z</time></trkpt><trkpt lat="45.23670344378931" lon="8.693531312837203"><ele>107.5</ele><time>2026-05-03T15:11:09Z</time></trkpt><trkpt lat="45.236795558260944" lon="8.693636206832647"><ele>107.75</ele><time>2026-05-03T15:11:10Z</time></trkpt><trkpt lat="45.23688095216367" lon="8.693739183945109"><ele>108.0</ele><time>2026-05-03T15:11:11Z</time></trkpt><trkpt lat="45.23696986758416" lon="8.69384292842531"><ele>108.0</ele><time>2026-05-03T15:11:12Z</time></trkpt><trkpt lat="45.23706074228144" lon="8.69394965061837"><ele>108.0</ele><time>2026-05-03T15:11:13Z</time></trkpt><trkpt lat="45.23715972845393" lon="8.694060718208341"><ele>108.0</ele><time>2026-05-03T15:11:14Z</time></trkpt><trkpt lat="45.23724780737342" lon="8.694175821934733"><ele>108.0</ele><time>2026-05-03T15:11:15Z</time></trkpt><trkpt lat="45.23733007036883" lon="8.694282249822567"><ele>108.2</ele><time>2026-05-03T15:11:16Z</time></trkpt><trkpt lat="45.23741150725197" lon="8.694385634654653"><ele>108.4</ele><time>2026-05-03T15:11:17Z</time></trkpt><trkpt lat="45.237488179910386" lon="8.694489722403544"><ele>108.60000000000001</ele><time>2026-05-03T15:11:18Z</time></trkpt><trkpt lat="45.23756832207951" lon="8.694593735213834"><ele>108.80000000000001</ele><time>2026-05-03T15:11:19Z</time></trkpt><trkpt lat="45.237653816799636" lon="8.694703772274908"><ele>109.0</ele><time>2026-05-03T15:11:20Z</time></trkpt><trkpt lat="45.23773743170964" lon="8.694814658904217"><ele>108.25</ele><time>2026-05-03T15:11:21Z</time></trkpt><trkpt lat="45.237825412424094" lon="8.69492555617481"><ele>107.5</ele><time>2026-05-03T15:11:22Z</time></trkpt><trkpt lat="45.237911443418675" lon="8.695042689919756"><ele>106.75</ele><time>2026-05-03T15:11:23Z</time></trkpt><trkpt lat="45.238002603703904" lon="8.695153882154804"><ele>106.0</ele><time>2026-05-03T15:11:24Z</time></trkpt><trkpt lat="45.23810320178697" lon="8.695281650159268"><ele>106.33333333333334</ele><time>2026-05-03T15:11:25Z</time></trkpt><trkpt lat="45.2382188328843" lon="8.695410246506269"><ele>106.66666666666666</ele><time>2026-05-03T15:11:26Z</time></trkpt><trkpt lat="45.23833647898717" lon="8.69554840850595"><ele>107.0</ele><time>2026-05-03T15:11:27Z</time></trkpt><trkpt lat="45.23847049516297" lon="8.695705407875442"><ele>107.0</ele><time>2026-05-03T15:11:28Z</time></trkpt><trkpt lat="45.23860555467184" lon="8.695872582297483"><ele>107.0</ele><time>2026-05-03T15:11:29Z</time></trkpt><trkpt lat="45.238724750017774" lon="8.696048698919046"><ele>107.0</ele><time>2026-05-03T15:11:30Z</time></trkpt><trkpt lat="45.23885415269393" lon="8.696225257206788"><ele>107.66666666666666</ele><time>2026-05-03T15:11:31Z</time></trkpt><trkpt lat="45.238991690307294" lon="8.69640220034429"><ele>108.33333333333334</ele><time>2026-05-03T15:11:32Z</time></trkpt><trkpt lat="45.239131592866414" lon="8.696590823615958"><ele>109.0</ele><time>2026-05-03T15:11:33Z</time></trkpt><trkpt lat="45.239282262063256" lon="8.696777189272026"><ele>108.33333333333334</ele><time>2026-05-03T15:11:34Z</time></trkpt><trkpt lat="45.23942601810158" lon="8.696969320800621"><ele>107.66666666666666</ele><time>2026-05-03T15:11:35Z</time></trkpt><trkpt lat="45.239586488515" lon="8.697153546332402"><ele>107.0</ele><time>2026-05-03T15:11:36Z</time></trkpt><trkpt lat="45.239739790690805" lon="8.697347711090188"><ele>107.0</ele><time>2026-05-03T15:11:37Z</time></trkpt><trkpt lat="45.2398941561053" lon="8.697536504861535"><ele>107.0</ele><time>2026-05-03T15:11:38Z</time></trkpt><trkpt lat="45.24004866118674" lon="8.697727689582376"><ele>107.0</ele><time>2026-05-03T15:11:39Z</time></trkpt><trkpt lat="45.24019898839482" lon="8.69791266280167"><ele>107.0</ele><time>2026-05-03T15:11:40Z</time></trkpt><trkpt lat="45.2403399281211" lon="8.698090952245213"><ele>107.0</ele><time>2026-05-03T15:11:41Z</time></trkpt><trkpt lat="45.240491871258506" lon="8.698278200965262"><ele>107.0</ele><time>2026-05-03T15:11:42Z</time></trkpt><trkpt lat="45.240642701837835" lon="8.698461751234412"><ele>107.0</ele><time>2026-05-03T15:11:43Z</time></trkpt><trkpt lat="45.24079896181848" lon="8.698641830291557"><ele>107.0</ele><time>2026-05-03T15:11:44Z</time></trkpt><trkpt lat="45.240945370020206" lon="8.698820349787715"><ele>107.0</ele><time>2026-05-03T15:11:45Z</time></trkpt><trkpt lat="45.24109228345408" lon="8.698998752061664"><ele>107.0</ele><time>2026-05-03T15:11:46Z</time></trkpt><trkpt lat="45.24123171350117" lon="8.699174209659823"><ele>107.0</ele><time>2026-05-03T15:11:47Z</time></trkpt><trkpt lat="45.24137956219377" lon="8.699352752515832"><ele>107.0</ele><time>2026-05-03T15:11:48Z</time></trkpt><trkpt lat="45.24152478645087" lon="8.699533814724404"><ele>106.66666666666666</ele><time>2026-05-03T15:11:49Z</time></trkpt><trkpt lat="45.24167036171273" lon="8.699712784685701"><ele>106.33333333333334</ele><time>2026-05-03T15:11:50Z</time></trkpt><trkpt lat="45.241818715365895" lon="8.699893172354077"><ele>106.0</ele><time>2026-05-03T15:11:51Z</time></trkpt><trkpt lat="45.24196420396634" lon="8.700069794493379"><ele>106.0</ele><time>2026-05-03T15:11:52Z</time></trkpt><trkpt lat="45.24209491336611" lon="8.70023852717808"><ele>106.0</ele><time>2026-05-03T15:11:53Z</time></trkpt><trkpt lat="45.242239052849534" lon="8.700405069465413"><ele>106.0</ele><time>2026-05-03T15:11:54Z</time></trkpt><trkpt lat="45.24236463331575" lon="8.700568400557465"><ele>106.33333333333334</ele><time>2026-05-03T15:11:55Z</time></trkpt><trkpt lat="45.24249209718788" lon="8.700751241100937"><ele>106.66666666666666</ele><time>2026-05-03T15:11:56Z</time></trkpt><trkpt lat="45.24261580906142" lon="8.700953811018795"><ele>107.0</ele><time>2026-05-03T15:11:57Z</time></trkpt><trkpt lat="45.242704750062934" lon="8.701186903458671"><ele>106.33333333333333</ele><time>2026-05-03T15:11:57.999Z</time></trkpt><trkpt lat="45.242791828596566" lon="8.701442183871468"><ele>105.66666666666666</ele><time>2026-05-03T15:11:58.999Z</time></trkpt><trkpt lat="45.242883006711985" lon="8.701700975265856"><ele>105.0</ele><time>2026-05-03T15:11:59.999Z</time></trkpt><trkpt lat="45.24297765120663" lon="8.70195373536939"><ele>104.66666666666666</ele><time>2026-05-03T15:12:00.999Z</time></trkpt><trkpt lat="45.24307799223266" lon="8.702216925550253"><ele>104.33333333333333</ele><time>2026-05-03T15:12:01.999Z</time></trkpt><trkpt lat="45.24318774346152" lon="8.702476433608428"><ele>104.0</ele><time>2026-05-03T15:12:02.999Z</time></trkpt><trkpt lat="45.24330083112725" lon="8.702737194531608"><ele>104.0</ele><time>2026-05-03T15:12:03.999Z</time></trkpt><trkpt lat="45.243427554294776" lon="8.702994539334215"><ele>104.0</ele><time>2026-05-03T15:12:04.999Z</time></trkpt><trkpt lat="45.243538862106604" lon="8.703248590140115"><ele>104.0</ele><time>2026-05-03T15:12:05.999Z</time></trkpt><trkpt lat="45.24365343140709" lon="8.703511611411132"><ele>104.5</ele><time>2026-05-03T15:12:06.999Z</time></trkpt><trkpt lat="45.243783288041335" lon="8.703775451930158"><ele>105.0</ele><time>2026-05-03T15:12:07.999Z</time></trkpt><trkpt lat="45.24391027036537" lon="8.704039715779064"><ele>105.33333333333334</ele><time>2026-05-03T15:12:08.999Z</time></trkpt><trkpt lat="45.24403438875945" lon="8.704294865970166"><ele>105.66666666666667</ele><time>2026-05-03T15:12:09.999Z</time></trkpt><trkpt lat="45.244166207138065" lon="8.704549432712543"><ele>106.0</ele><time>2026-05-03T15:12:10.999Z</time></trkpt><trkpt lat="45.244288088877596" lon="8.704797911771227"><ele>106.0</ele><time>2026-05-03T15:12:11.999Z</time></trkpt><trkpt lat="45.2443866134121" lon="8.705045177413108"><ele>106.0</ele><time>2026-05-03T15:12:12.999Z</time></trkpt><trkpt lat="45.24452156436166" lon="8.705299606581532"><ele>106.0</ele><time>2026-05-03T15:12:13.999Z</time></trkpt><trkpt lat="45.24463920017317" lon="8.705540602210077"><ele>106.0</ele><time>2026-05-03T15:12:14.999Z</time></trkpt><trkpt lat="45.24475057653332" lon="8.705782810744303"><ele>106.0</ele><time>2026-05-03T15:12:15.999Z</time></trkpt><trkpt lat="45.24487471678107" lon="8.706017943783143"><ele>106.0</ele><time>2026-05-03T15:12:16.999Z</time></trkpt><trkpt lat="45.24498386676569" lon="8.706251825500608"><ele>107.0</ele><time>2026-05-03T15:12:17.999Z</time></trkpt><trkpt lat="45.24508880400244" lon="8.706473588238955"><ele>108.0</ele><time>2026-05-03T15:12:18.999Z</time></trkpt><trkpt lat="45.245195528026734" lon="8.706697180973254"><ele>109.0</ele><time>2026-05-03T15:12:19.999Z</time></trkpt><trkpt lat="45.24530466484374" lon="8.706927260135052"><ele>109.0</ele><time>2026-05-03T15:12:20.999Z</time></trkpt><trkpt lat="45.245414716156766" lon="8.707156539449013"><ele>109.0</ele><time>2026-05-03T15:12:21.999Z</time></trkpt><trkpt lat="45.24552302586987" lon="8.707388574560788"><ele>109.0</ele><time>2026-05-03T15:12:22.999Z</time></trkpt><trkpt lat="45.245637138032805" lon="8.707619547317758"><ele>109.0</ele><time>2026-05-03T15:12:23.999Z</time></trkpt><trkpt lat="45.245745091003634" lon="8.707849060811201"><ele>109.0</ele><time>2026-05-03T15:12:24.999Z</time></trkpt><trkpt lat="45.24585791180595" lon="8.708080756063627"><ele>109.0</ele><time>2026-05-03T15:12:25.999Z</time></trkpt><trkpt lat="45.24596358661666" lon="8.708313060416035"><ele>109.0</ele><time>2026-05-03T15:12:26.999Z</time></trkpt><trkpt lat="45.246071680005095" lon="8.708545610748093"><ele>109.0</ele><time>2026-05-03T15:12:27.999Z</time></trkpt><trkpt lat="45.24618065451168" lon="8.708774324714033"><ele>109.0</ele><time>2026-05-03T15:12:28.999Z</time></trkpt><trkpt lat="45.24627606763947" lon="8.708989086807376"><ele>108.33333333333334</ele><time>2026-05-03T15:12:29.999Z</time></trkpt><trkpt lat="45.24638970731701" lon="8.709205132684673"><ele>107.66666666666666</ele><time>2026-05-03T15:12:30.999Z</time></trkpt><trkpt lat="45.246491046632904" lon="8.709407401069546"><ele>107.0</ele><time>2026-05-03T15:12:31.999Z</time></trkpt><trkpt lat="45.24658773270859" lon="8.709597580081173"><ele>106.33333333333333</ele><time>2026-05-03T15:12:32.999Z</time></trkpt><trkpt lat="45.24668420995285" lon="8.70979581204975"><ele>105.66666666666666</ele><time>2026-05-03T15:12:33.999Z</time></trkpt><trkpt lat="45.24678138195825" lon="8.710005893851152"><ele>105.0</ele><time>2026-05-03T15:12:34.999Z</time></trkpt><trkpt lat="45.24689003621675" lon="8.710226330090723"><ele>105.33333333333334</ele><time>2026-05-03T15:12:35.999Z</time></trkpt><trkpt lat="45.24700481849842" lon="8.710445447446823"><ele>105.66666666666667</ele><time>2026-05-03T15:12:36.999Z</time></trkpt><trkpt lat="45.247114716990126" lon="8.710664849938908"><ele>106.0</ele><time>2026-05-03T15:12:37.999Z</time></trkpt><trkpt lat="45.24721860653409" lon="8.710887718570739"><ele>106.66666666666667</ele><time>2026-05-03T15:12:38.999Z</time></trkpt><trkpt lat="45.24732537024166" lon="8.711100526049362"><ele>107.33333333333334</ele><time>2026-05-03T15:12:39.999Z</time></trkpt><trkpt lat="45.24743065087886" lon="8.711306577706498"><ele>108.0</ele><time>2026-05-03T15:12:40.999Z</time></trkpt><trkpt lat="45.24751938103442" lon="8.711509158582704"><ele>108.0</ele><time>2026-05-03T15:12:41.999Z</time></trkpt><trkpt lat="45.24761432062173" lon="8.711700454271853"><ele>108.0</ele><time>2026-05-03T15:12:43Z</time></trkpt><trkpt lat="45.24771273579579" lon="8.711900356592746"><ele>108.0</ele><time>2026-05-03T15:12:44Z</time></trkpt><trkpt lat="45.24780932300953" lon="8.712094788952118"><ele>107.66666666666666</ele><time>2026-05-03T15:12:45Z</time></trkpt><trkpt lat="45.247899698171786" lon="8.712289189220815"><ele>107.33333333333333</ele><time>2026-05-03T15:12:46Z</time></trkpt><trkpt lat="45.247994019038245" lon="8.712483808134222"><ele>107.0</ele><time>2026-05-03T15:12:47Z</time></trkpt><trkpt lat="45.24807472519149" lon="8.7126685528779"><ele>108.25</ele><time>2026-05-03T15:12:48Z</time></trkpt><trkpt lat="45.24814424130518" lon="8.712844414719642"><ele>109.5</ele><time>2026-05-03T15:12:49Z</time></trkpt><trkpt lat="45.248199385461966" lon="8.713025753363604"><ele>110.75</ele><time>2026-05-03T15:12:50Z</time></trkpt><trkpt lat="45.24824010223794" lon="8.713203987480494"><ele>112.0</ele><time>2026-05-03T15:12:51Z</time></trkpt><trkpt lat="45.2482642738447" lon="8.713375187690598"><ele>112.0</ele><time>2026-05-03T15:12:52Z</time></trkpt><trkpt lat="45.248293925831284" lon="8.713513974914203"><ele>111.99999999999999</ele><time>2026-05-03T15:12:53Z</time></trkpt><trkpt lat="45.24830839531282" lon="8.713630163188098"><ele>111.99999999999999</ele><time>2026-05-03T15:12:54Z</time></trkpt><trkpt lat="45.24833115257122" lon="8.713747472230729"><ele>112.0</ele><time>2026-05-03T15:12:55Z</time></trkpt><trkpt lat="45.24837356921081" lon="8.713847953349816"><ele>112.0</ele><time>2026-05-03T15:12:56Z</time></trkpt><trkpt lat="45.2483122916589" lon="8.713965547409902"><ele>111.39999999999999</ele><time>2026-05-03T15:12:57Z</time></trkpt><trkpt lat="45.24824214972933" lon="8.714063252507806"><ele>110.79999999999998</ele><time>2026-05-03T15:12:58Z</time></trkpt><trkpt lat="45.248173200479165" lon="8.714201520239394"><ele>110.2</ele><time>2026-05-03T15:12:59Z</time></trkpt><trkpt lat="45.24814650394386" lon="8.714359683105553"><ele>109.6</ele><time>2026-05-03T15:13:00Z</time></trkpt><trkpt lat="45.2481434564212" lon="8.714501016599922"><ele>109.0</ele><time>2026-05-03T15:13:01Z</time></trkpt><trkpt lat="45.24817096624075" lon="8.714625757730419"><ele>108.80000000000001</ele><time>2026-05-03T15:13:02Z</time></trkpt><trkpt lat="45.248224310099296" lon="8.714734897881137"><ele>108.60000000000001</ele><time>2026-05-03T15:13:03Z</time></trkpt><trkpt lat="45.248302335640794" lon="8.71483015687183"><ele>108.4</ele><time>2026-05-03T15:13:04Z</time></trkpt><trkpt lat="45.248389635077416" lon="8.714888422238156"><ele>108.2</ele><time>2026-05-03T15:13:05Z</time></trkpt><trkpt lat="45.24847681099756" lon="8.714932545012093"><ele>108.0</ele><time>2026-05-03T15:13:06Z</time></trkpt><trkpt lat="45.248563237078876" lon="8.715001963110492"><ele>108.0</ele><time>2026-05-03T15:13:07Z</time></trkpt><trkpt lat="45.24862669518498" lon="8.715094131386644"><ele>108.00000000000001</ele><time>2026-05-03T15:13:08Z</time></trkpt><trkpt lat="45.24866679672653" lon="8.715230950543235"><ele>108.00000000000001</ele><time>2026-05-03T15:13:09Z</time></trkpt><trkpt lat="45.2486912009149" lon="8.715378715295941"><ele>108.0</ele><time>2026-05-03T15:13:10Z</time></trkpt><trkpt lat="45.24872070217351" lon="8.7155276118196"><ele>108.0</ele><time>2026-05-03T15:13:11Z</time></trkpt><trkpt lat="45.24874711602164" lon="8.715685342546742"><ele>107.5</ele><time>2026-05-03T15:13:12Z</time></trkpt><trkpt lat="45.24877469895008" lon="8.71584183220531"><ele>107.0</ele><time>2026-05-03T15:13:13Z</time></trkpt><trkpt lat="45.24881493549176" lon="8.716015315366"><ele>106.5</ele><time>2026-05-03T15:13:14Z</time></trkpt><trkpt lat="45.24884549296726" lon="8.716192763505294"><ele>106.0</ele><time>2026-05-03T15:13:15Z</time></trkpt><trkpt lat="45.248887210651745" lon="8.716378381466368"><ele>106.25</ele><time>2026-05-03T15:13:16Z</time></trkpt><trkpt lat="45.248922698972265" lon="8.716571317217925"><ele>106.5</ele><time>2026-05-03T15:13:17Z</time></trkpt><trkpt lat="45.248952353224006" lon="8.716761595206869"><ele>106.75</ele><time>2026-05-03T15:13:18Z</time></trkpt><trkpt lat="45.24900217525094" lon="8.716959978617714"><ele>107.0</ele><time>2026-05-03T15:13:19Z</time></trkpt><trkpt lat="45.249040751353256" lon="8.717177472214113"><ele>107.0</ele><time>2026-05-03T15:13:20Z</time></trkpt><trkpt lat="45.24908233415834" lon="8.717401146684605"><ele>107.0</ele><time>2026-05-03T15:13:21Z</time></trkpt><trkpt lat="45.24912282180477" lon="8.717614575264983"><ele>107.0</ele><time>2026-05-03T15:13:22Z</time></trkpt><trkpt lat="45.24915932574988" lon="8.717809285528228"><ele>107.0</ele><time>2026-05-03T15:13:23Z</time></trkpt><trkpt lat="45.24919095660723" lon="8.718011507187654"><ele>107.0</ele><time>2026-05-03T15:13:24Z</time></trkpt><trkpt lat="45.249228306289126" lon="8.718215319278082"><ele>107.0</ele><time>2026-05-03T15:13:25Z</time></trkpt><trkpt lat="45.24926529987228" lon="8.718413069145369"><ele>107.0</ele><time>2026-05-03T15:13:26Z</time></trkpt><trkpt lat="45.24929901212286" lon="8.718606171114786"><ele>107.0</ele><time>2026-05-03T15:13:27Z</time></trkpt><trkpt lat="45.249324244208225" lon="8.718784956445965"><ele>106.99999999999999</ele><time>2026-05-03T15:13:28Z</time></trkpt><trkpt lat="45.24933946304383" lon="8.71893490731237"><ele>106.99999999999999</ele><time>2026-05-03T15:13:29Z</time></trkpt><trkpt lat="45.24934887288681" lon="8.719069722894401"><ele>107.0</ele><time>2026-05-03T15:13:30Z</time></trkpt><trkpt lat="45.249359873048135" lon="8.719194736262033"><ele>107.0</ele><time>2026-05-03T15:13:31Z</time></trkpt><trkpt lat="45.249345658642845" lon="8.719326386568158"><ele>107.19999999999999</ele><time>2026-05-03T15:13:32Z</time></trkpt><trkpt lat="45.24932999888673" lon="8.719460951634275"><ele>107.39999999999999</ele><time>2026-05-03T15:13:33Z</time></trkpt><trkpt lat="45.249326673595505" lon="8.719594466309053"><ele>107.60000000000001</ele><time>2026-05-03T15:13:34Z</time></trkpt><trkpt lat="45.24935323191042" lon="8.719727942914886"><ele>107.80000000000001</ele><time>2026-05-03T15:13:35Z</time></trkpt><trkpt lat="45.249412197481504" lon="8.719813790111443"><ele>108.0</ele><time>2026-05-03T15:13:36Z</time></trkpt><trkpt lat="45.24948731012895" lon="8.71987574007322"><ele>108.0</ele><time>2026-05-03T15:13:37Z</time></trkpt><trkpt lat="45.24956390771102" lon="8.719909334377741"><ele>108.00000000000001</ele><time>2026-05-03T15:13:38Z</time></trkpt><trkpt lat="45.24964550678977" lon="8.71996645113039"><ele>108.00000000000001</ele><time>2026-05-03T15:13:39Z</time></trkpt><trkpt lat="45.24969312805202" lon="8.720068291902878"><ele>108.0</ele><time>2026-05-03T15:13:40Z</time></trkpt><trkpt lat="45.249725504252254" lon="8.7201962420587"><ele>108.0</ele><time>2026-05-03T15:13:41Z</time></trkpt><trkpt lat="45.249755659146416" lon="8.720330007699765"><ele>108.25</ele><time>2026-05-03T15:13:42Z</time></trkpt><trkpt lat="45.24979304633363" lon="8.72047094257389"><ele>108.5</ele><time>2026-05-03T15:13:43Z</time></trkpt><trkpt lat="45.24982956502076" lon="8.720626649357678"><ele>108.75</ele><time>2026-05-03T15:13:44Z</time></trkpt><trkpt lat="45.24986758887453" lon="8.720785212970462"><ele>109.0</ele><time>2026-05-03T15:13:45Z</time></trkpt><trkpt lat="45.2499031914946" lon="8.720954058399883"><ele>109.0</ele><time>2026-05-03T15:13:46Z</time></trkpt><trkpt lat="45.249948307236096" lon="8.721115303366993"><ele>109.0</ele><time>2026-05-03T15:13:47Z</time></trkpt><trkpt lat="45.24998168268037" lon="8.72126827447478"><ele>109.0</ele><time>2026-05-03T15:13:48Z</time></trkpt><trkpt lat="45.25001359650493" lon="8.721411659603225"><ele>109.0</ele><time>2026-05-03T15:13:49Z</time></trkpt><trkpt lat="45.25005137314735" lon="8.72155097535479"><ele>109.0</ele><time>2026-05-03T15:13:50Z</time></trkpt><trkpt lat="45.25008412827035" lon="8.721698172548766"><ele>109.0</ele><time>2026-05-03T15:13:51Z</time></trkpt><trkpt lat="45.25010997229497" lon="8.72185706807944"><ele>109.0</ele><time>2026-05-03T15:13:52Z</time></trkpt><trkpt lat="45.250132302868245" lon="8.722032715262158"><ele>109.0</ele><time>2026-05-03T15:13:53Z</time></trkpt><trkpt lat="45.250158758555614" lon="8.722222095123787"><ele>109.0</ele><time>2026-05-03T15:13:54Z</time></trkpt><trkpt lat="45.25017885444802" lon="8.722425228425"><ele>109.25</ele><time>2026-05-03T15:13:55Z</time></trkpt><trkpt lat="45.25020016306441" lon="8.722637484973884"><ele>109.5</ele><time>2026-05-03T15:13:56Z</time></trkpt><trkpt lat="45.25020156562107" lon="8.722850245210115"><ele>109.75</ele><time>2026-05-03T15:13:57Z</time></trkpt><trkpt lat="45.25021319932075" lon="8.72304703072578"><ele>110.0</ele><time>2026-05-03T15:13:58Z</time></trkpt><trkpt lat="45.25022366839965" lon="8.723246854023479"><ele>110.0</ele><time>2026-05-03T15:13:59Z</time></trkpt><trkpt lat="45.250222165342066" lon="8.723445005671733"><ele>110.0</ele><time>2026-05-03T15:14:00Z</time></trkpt><trkpt lat="45.250268332987346" lon="8.723657242450733"><ele>110.0</ele><time>2026-05-03T15:14:01Z</time></trkpt><trkpt lat="45.25028884864685" lon="8.723848075211812"><ele>110.0</ele><time>2026-05-03T15:14:02Z</time></trkpt><trkpt lat="45.25031500562573" lon="8.724041399147314"><ele>109.75</ele><time>2026-05-03T15:14:03Z</time></trkpt><trkpt lat="45.25032160447878" lon="8.724231205582331"><ele>109.5</ele><time>2026-05-03T15:14:03.999Z</time></trkpt><trkpt lat="45.250338784665054" lon="8.724427391953684"><ele>109.25</ele><time>2026-05-03T15:14:05Z</time></trkpt><trkpt lat="45.25035951118506" lon="8.724625506675551"><ele>109.0</ele><time>2026-05-03T15:14:05.999Z</time></trkpt><trkpt lat="45.250368550841465" lon="8.724818025154145"><ele>109.0</ele><time>2026-05-03T15:14:06.999Z</time></trkpt><trkpt lat="45.25038469843007" lon="8.725010176303597"><ele>109.0</ele><time>2026-05-03T15:14:07.999Z</time></trkpt><trkpt lat="45.25039490452216" lon="8.725199281440966"><ele>109.0</ele><time>2026-05-03T15:14:08.999Z</time></trkpt><trkpt lat="45.250404820059295" lon="8.725397011316568"><ele>109.0</ele><time>2026-05-03T15:14:09.999Z</time></trkpt><trkpt lat="45.25040956680851" lon="8.725546829104601"><ele>109.4</ele><time>2026-05-03T15:14:10.999Z</time></trkpt><trkpt lat="45.25041084905907" lon="8.725704448753893"><ele>109.80000000000001</ele><time>2026-05-03T15:14:11.999Z</time></trkpt><trkpt lat="45.250428083401886" lon="8.725845874216882"><ele>110.19999999999999</ele><time>2026-05-03T15:14:12.999Z</time></trkpt><trkpt lat="45.25044284011934" lon="8.725990012906252"><ele>110.6</ele><time>2026-05-03T15:14:13.999Z</time></trkpt><trkpt lat="45.25046745740965" lon="8.726153073150737"><ele>111.0</ele><time>2026-05-03T15:14:14.999Z</time></trkpt><trkpt lat="45.25047172649454" lon="8.726320683958475"><ele>111.0</ele><time>2026-05-03T15:14:15.999Z</time></trkpt><trkpt lat="45.25047563858757" lon="8.726490905760654"><ele>111.0</ele><time>2026-05-03T15:14:16.999Z</time></trkpt><trkpt lat="45.250481702655776" lon="8.72666099252669"><ele>111.0</ele><time>2026-05-03T15:14:17.999Z</time></trkpt><trkpt lat="45.25047742942316" lon="8.726853060376584"><ele>111.0</ele><time>2026-05-03T15:14:18.999Z</time></trkpt><trkpt lat="45.25046308334737" lon="8.72704112153185"><ele>110.5</ele><time>2026-05-03T15:14:19.999Z</time></trkpt><trkpt lat="45.25043771762955" lon="8.727229083479799"><ele>110.0</ele><time>2026-05-03T15:14:20.999Z</time></trkpt><trkpt lat="45.25043826503863" lon="8.72743662127397"><ele>109.5</ele><time>2026-05-03T15:14:21.999Z</time></trkpt><trkpt lat="45.25042285159751" lon="8.727598336305942"><ele>109.0</ele><time>2026-05-03T15:14:22.999Z</time></trkpt><trkpt lat="45.25041124818339" lon="8.727801320862657"><ele>109.0</ele><time>2026-05-03T15:14:23.999Z</time></trkpt><trkpt lat="45.25044324773233" lon="8.728032784392331"><ele>109.0</ele><time>2026-05-03T15:14:24.999Z</time></trkpt><trkpt lat="45.25046890220939" lon="8.728225656219989"><ele>109.0</ele><time>2026-05-03T15:14:25.999Z</time></trkpt><trkpt lat="45.25044055664382" lon="8.728400291340279"><ele>109.0</ele><time>2026-05-03T15:14:26.999Z</time></trkpt><trkpt lat="45.25042254325159" lon="8.728583772082576"><ele>109.25</ele><time>2026-05-03T15:14:27.999Z</time></trkpt><trkpt lat="45.250400575086765" lon="8.728749172558203"><ele>109.5</ele><time>2026-05-03T15:14:28.999Z</time></trkpt><trkpt lat="45.25038288105838" lon="8.728932778428277"><ele>109.75</ele><time>2026-05-03T15:14:29.999Z</time></trkpt><trkpt lat="45.25036168038455" lon="8.729118892176123"><ele>110.0</ele><time>2026-05-03T15:14:30.999Z</time></trkpt><trkpt lat="45.25034183417603" lon="8.729304316250484"><ele>109.75</ele><time>2026-05-03T15:14:31.999Z</time></trkpt><trkpt lat="45.25032761419215" lon="8.72948797081459"><ele>109.5</ele><time>2026-05-03T15:14:32.999Z</time></trkpt><trkpt lat="45.25030952657229" lon="8.72967977437193"><ele>109.25</ele><time>2026-05-03T15:14:33.999Z</time></trkpt><trkpt lat="45.25029650201347" lon="8.729866842409544"><ele>109.0</ele><time>2026-05-03T15:14:34.999Z</time></trkpt><trkpt lat="45.25027982265545" lon="8.730052013258454"><ele>108.75</ele><time>2026-05-03T15:14:35.999Z</time></trkpt><trkpt lat="45.2502609805915" lon="8.73023224661018"><ele>108.5</ele><time>2026-05-03T15:14:36.999Z</time></trkpt><trkpt lat="45.25024184018435" lon="8.730410033320139"><ele>108.25</ele><time>2026-05-03T15:14:37.999Z</time></trkpt><trkpt lat="45.250226481541205" lon="8.730598207020345"><ele>108.0</ele><time>2026-05-03T15:14:38.999Z</time></trkpt><trkpt lat="45.25023362108419" lon="8.73077941031551"><ele>108.0</ele><time>2026-05-03T15:14:39.999Z</time></trkpt><trkpt lat="45.25022844267047" lon="8.730955259957804"><ele>108.0</ele><time>2026-05-03T15:14:40.999Z</time></trkpt><trkpt lat="45.25020934734873" lon="8.731146048587117"><ele>108.0</ele><time>2026-05-03T15:14:41.999Z</time></trkpt><trkpt lat="45.25019116133337" lon="8.731330945753484"><ele>108.0</ele><time>2026-05-03T15:14:42.999Z</time></trkpt><trkpt lat="45.250182283685625" lon="8.731497588311951"><ele>108.75</ele><time>2026-05-03T15:14:43.999Z</time></trkpt><trkpt lat="45.250190102671624" lon="8.731656861300594"><ele>109.5</ele><time>2026-05-03T15:14:44.999Z</time></trkpt><trkpt lat="45.25021446786659" lon="8.73182303688199"><ele>110.25</ele><time>2026-05-03T15:14:45.999Z</time></trkpt><trkpt lat="45.25028044213174" lon="8.731972508236138"><ele>111.0</ele><time>2026-05-03T15:14:46.999Z</time></trkpt><trkpt lat="45.25038541594245" lon="8.732106632197159"><ele>111.25</ele><time>2026-05-03T15:14:47.999Z</time></trkpt><trkpt lat="45.25048451072023" lon="8.732239617493056"><ele>111.5</ele><time>2026-05-03T15:14:49Z</time></trkpt><trkpt lat="45.25057967071178" lon="8.732307469033445"><ele>111.75</ele><time>2026-05-03T15:14:50Z</time></trkpt><trkpt lat="45.2507077469719" lon="8.73237197950218"><ele>112.0</ele><time>2026-05-03T15:14:51Z</time></trkpt><trkpt lat="45.250776191172726" lon="8.732432758734445"><ele>111.25</ele><time>2026-05-03T15:14:52Z</time></trkpt><trkpt lat="45.25091532703132" lon="8.732405681909373"><ele>110.5</ele><time>2026-05-03T15:14:53Z</time></trkpt><trkpt lat="45.25102347273456" lon="8.73242622449468"><ele>109.75</ele><time>2026-05-03T15:14:54Z</time></trkpt><trkpt lat="45.25111751494356" lon="8.732432407232276"><ele>109.0</ele><time>2026-05-03T15:14:55Z</time></trkpt><trkpt lat="45.251242623404146" lon="8.732435823137811"><ele>109.0</ele><time>2026-05-03T15:14:56Z</time></trkpt><trkpt lat="45.25134738240268" lon="8.73245097710528"><ele>109.0</ele><time>2026-05-03T15:14:57Z</time></trkpt><trkpt lat="45.25146601617048" lon="8.73246509876599"><ele>109.0</ele><time>2026-05-03T15:14:58Z</time></trkpt><trkpt lat="45.25157171894008" lon="8.732483897932253"><ele>109.0</ele><time>2026-05-03T15:14:59Z</time></trkpt><trkpt lat="45.25168988281997" lon="8.732492633614436"><ele>109.0</ele><time>2026-05-03T15:15:00Z</time></trkpt><trkpt lat="45.25181026536994" lon="8.73251270661966"><ele>109.0</ele><time>2026-05-03T15:15:01Z</time></trkpt><trkpt lat="45.25191738267123" lon="8.732525223382014"><ele>109.0</ele><time>2026-05-03T15:15:02Z</time></trkpt><trkpt lat="45.252016698027866" lon="8.732547924902777"><ele>109.0</ele><time>2026-05-03T15:15:03Z</time></trkpt><trkpt lat="45.25212704840189" lon="8.73252514385092"><ele>109.0</ele><time>2026-05-03T15:15:04Z</time></trkpt><trkpt lat="45.25221122727038" lon="8.732538411313874"><ele>109.0</ele><time>2026-05-03T15:15:05Z</time></trkpt><trkpt lat="45.25233378448213" lon="8.73256658721043"><ele>108.80000000000001</ele><time>2026-05-03T15:15:07Z</time></trkpt><trkpt lat="45.2524194023543" lon="8.732579834380099"><ele>108.60000000000001</ele><time>2026-05-03T15:15:08Z</time></trkpt><trkpt lat="45.25249870517828" lon="8.73259017821027"><ele>108.4</ele><time>2026-05-03T15:15:09Z</time></trkpt><trkpt lat="45.252612711631535" lon="8.732597457363207"><ele>108.2</ele><time>2026-05-03T15:15:10Z</time></trkpt><trkpt lat="45.25270941873964" lon="8.732621190116602"><ele>108.0</ele><time>2026-05-03T15:15:11Z</time></trkpt><trkpt lat="45.252812501615736" lon="8.732630947091161"><ele>108.0</ele><time>2026-05-03T15:15:12Z</time></trkpt><trkpt lat="45.25292329609347" lon="8.732647398504996"><ele>108.0</ele><time>2026-05-03T15:15:13Z</time></trkpt><trkpt lat="45.25306708232982" lon="8.732724044016102"><ele>108.0</ele><time>2026-05-03T15:15:14Z</time></trkpt><trkpt lat="45.25319295319642" lon="8.732739496709176"><ele>108.0</ele><time>2026-05-03T15:15:15Z</time></trkpt><trkpt lat="45.25330811377419" lon="8.73274447081458"><ele>108.5</ele><time>2026-05-03T15:15:16Z</time></trkpt><trkpt lat="45.25344107021986" lon="8.732771950850815"><ele>109.0</ele><time>2026-05-03T15:15:17Z</time></trkpt><trkpt lat="45.2535740339669" lon="8.732785637471627"><ele>109.5</ele><time>2026-05-03T15:15:18Z</time></trkpt><trkpt lat="45.253700566606504" lon="8.732794358971963"><ele>110.0</ele><time>2026-05-03T15:15:19Z</time></trkpt><trkpt lat="45.25383712335035" lon="8.732792886228411"><ele>109.75</ele><time>2026-05-03T15:15:20Z</time></trkpt><trkpt lat="45.25395871061483" lon="8.73282024297241"><ele>109.5</ele><time>2026-05-03T15:15:21Z</time></trkpt><trkpt lat="45.25407989623914" lon="8.732848159914152"><ele>109.25</ele><time>2026-05-03T15:15:22Z</time></trkpt><trkpt lat="45.254206261078906" lon="8.732848736237726"><ele>109.0</ele><time>2026-05-03T15:15:23Z</time></trkpt><trkpt lat="45.25433888122713" lon="8.732873305335337"><ele>109.0</ele><time>2026-05-03T15:15:24Z</time></trkpt><trkpt lat="45.25445754267359" lon="8.732881974615006"><ele>109.0</ele><time>2026-05-03T15:15:25Z</time></trkpt><trkpt lat="45.2545712919127" lon="8.732891496256205"><ele>109.0</ele><time>2026-05-03T15:15:26Z</time></trkpt><trkpt lat="45.25466820833631" lon="8.732910369785195"><ele>109.0</ele><time>2026-05-03T15:15:27Z</time></trkpt><trkpt lat="45.2547574720436" lon="8.732950675498346"><ele>109.0</ele><time>2026-05-03T15:15:28Z</time></trkpt><trkpt lat="45.25484250224586" lon="8.733023492096361"><ele>109.00000000000001</ele><time>2026-05-03T15:15:29Z</time></trkpt><trkpt lat="45.254880583194534" lon="8.733121580749364"><ele>109.0</ele><time>2026-05-03T15:15:30Z</time></trkpt><trkpt lat="45.254903192743996" lon="8.733245301219693"><ele>109.0</ele><time>2026-05-03T15:15:31Z</time></trkpt><trkpt lat="45.25492673943013" lon="8.733375572153243"><ele>109.0</ele><time>2026-05-03T15:15:32Z</time></trkpt><trkpt lat="45.254957948128265" lon="8.733494697512896"><ele>109.00000000000001</ele><time>2026-05-03T15:15:33Z</time></trkpt><trkpt lat="45.254989812954115" lon="8.73361940475145"><ele>109.0</ele><time>2026-05-03T15:15:34Z</time></trkpt><trkpt lat="45.25502786768321" lon="8.733740636110463"><ele>109.2</ele><time>2026-05-03T15:15:35Z</time></trkpt><trkpt lat="45.25506408660155" lon="8.733872866007474"><ele>109.4</ele><time>2026-05-03T15:15:36Z</time></trkpt><trkpt lat="45.25511053582548" lon="8.734017707003591"><ele>109.6</ele><time>2026-05-03T15:15:37Z</time></trkpt><trkpt lat="45.25515094441042" lon="8.734142965966262"><ele>109.8</ele><time>2026-05-03T15:15:38Z</time></trkpt><trkpt lat="45.255192467913474" lon="8.734268545609769"><ele>110.0</ele><time>2026-05-03T15:15:39Z</time></trkpt><trkpt lat="45.255243025969826" lon="8.734357615418395"><ele>110.16666666666666</ele><time>2026-05-03T15:15:40Z</time></trkpt><trkpt lat="45.255266667723575" lon="8.734456858772315"><ele>110.33333333333333</ele><time>2026-05-03T15:15:41Z</time></trkpt><trkpt lat="45.25533740851514" lon="8.734517944511909"><ele>110.5</ele><time>2026-05-03T15:15:43Z</time></trkpt><trkpt lat="45.25539378329886" lon="8.734571344971346"><ele>110.66666666666666</ele><time>2026-05-03T15:15:44Z</time></trkpt><trkpt lat="45.25548983409312" lon="8.734719069335801"><ele>110.83333333333333</ele><time>2026-05-03T15:15:46Z</time></trkpt><trkpt lat="45.255541947155976" lon="8.73478299798984"><ele>111.0</ele><time>2026-05-03T15:15:47Z</time></trkpt><trkpt lat="45.25563204788147" lon="8.734855724362172"><ele>110.25</ele><time>2026-05-03T15:15:48Z</time></trkpt><trkpt lat="45.25570112718523" lon="8.734942335121328"><ele>109.5</ele><time>2026-05-03T15:15:49Z</time></trkpt><trkpt lat="45.25582700123171" lon="8.735022892392127"><ele>108.75</ele><time>2026-05-03T15:15:50Z</time></trkpt><trkpt lat="45.25593824042625" lon="8.735132555799105"><ele>108.0</ele><time>2026-05-03T15:15:51Z</time></trkpt><trkpt lat="45.25603605062326" lon="8.735265901143508"><ele>107.75</ele><time>2026-05-03T15:15:52Z</time></trkpt><trkpt lat="45.25610242485156" lon="8.735429892265927"><ele>107.5</ele><time>2026-05-03T15:15:53Z</time></trkpt><trkpt lat="45.25615450541129" lon="8.735593703155994"><ele>107.25</ele><time>2026-05-03T15:15:54Z</time></trkpt><trkpt lat="45.25618097932238" lon="8.73577729963156"><ele>107.0</ele><time>2026-05-03T15:15:55Z</time></trkpt><trkpt lat="45.25620175482428" lon="8.735964262625426"><ele>107.5</ele><time>2026-05-03T15:15:56Z</time></trkpt><trkpt lat="45.25623659655528" lon="8.736163421269769"><ele>108.0</ele><time>2026-05-03T15:15:57Z</time></trkpt><trkpt lat="45.25625018497748" lon="8.736350621466386"><ele>108.5</ele><time>2026-05-03T15:15:58Z</time></trkpt><trkpt lat="45.256253994563785" lon="8.736530738363234"><ele>109.0</ele><time>2026-05-03T15:15:59Z</time></trkpt><trkpt lat="45.25627186363755" lon="8.736701716168595"><ele>109.0</ele><time>2026-05-03T15:15:59.999Z</time></trkpt><trkpt lat="45.256269957555496" lon="8.736857594362007"><ele>109.0</ele><time>2026-05-03T15:16:00.999Z</time></trkpt><trkpt lat="45.2562439737956" lon="8.737016133589625"><ele>109.0</ele><time>2026-05-03T15:16:01.999Z</time></trkpt><trkpt lat="45.256224724571304" lon="8.737184121233167"><ele>109.0</ele><time>2026-05-03T15:16:02.999Z</time></trkpt><trkpt lat="45.256200012999884" lon="8.737340149508864"><ele>109.0</ele><time>2026-05-03T15:16:03.999Z</time></trkpt><trkpt lat="45.25617441313707" lon="8.73749166646203"><ele>109.0</ele><time>2026-05-03T15:16:04.999Z</time></trkpt><trkpt lat="45.256153177092884" lon="8.737620196824398"><ele>109.0</ele><time>2026-05-03T15:16:05.999Z</time></trkpt><trkpt lat="45.256132977814744" lon="8.737747696012558"><ele>109.0</ele><time>2026-05-03T15:16:06.999Z</time></trkpt><trkpt lat="45.25612144553304" lon="8.737866744241853"><ele>109.0</ele><time>2026-05-03T15:16:07.999Z</time></trkpt><trkpt lat="45.256095706522366" lon="8.737995605015545"><ele>109.0</ele><time>2026-05-03T15:16:08.999Z</time></trkpt><trkpt lat="45.256074215634996" lon="8.73813330852173"><ele>109.0</ele><time>2026-05-03T15:16:09.999Z</time></trkpt><trkpt lat="45.25605467892816" lon="8.738268665001982"><ele>109.0</ele><time>2026-05-03T15:16:10.999Z</time></trkpt><trkpt lat="45.25603686538411" lon="8.73841749397788"><ele>109.0</ele><time>2026-05-03T15:16:11.999Z</time></trkpt><trkpt lat="45.25601025980242" lon="8.738554844273558"><ele>109.0</ele><time>2026-05-03T15:16:12.999Z</time></trkpt><trkpt lat="45.255981597640634" lon="8.738693670791434"><ele>108.75</ele><time>2026-05-03T15:16:13.999Z</time></trkpt><trkpt lat="45.25594731353516" lon="8.73889394660473"><ele>108.5</ele><time>2026-05-03T15:16:14.999Z</time></trkpt><trkpt lat="45.255929347590964" lon="8.739061325031646"><ele>108.25</ele><time>2026-05-03T15:16:15.999Z</time></trkpt><trkpt lat="45.25591545614293" lon="8.739233742483938"><ele>108.0</ele><time>2026-05-03T15:16:16.999Z</time></trkpt><trkpt lat="45.25588801778896" lon="8.739414214155275"><ele>108.0</ele><time>2026-05-03T15:16:17.999Z</time></trkpt><trkpt lat="45.255852363126" lon="8.739594992867023"><ele>108.0</ele><time>2026-05-03T15:16:18.999Z</time></trkpt><trkpt lat="45.255825326686306" lon="8.739770625058586"><ele>108.0</ele><time>2026-05-03T15:16:19.999Z</time></trkpt><trkpt lat="45.25580221879912" lon="8.73994874401759"><ele>108.0</ele><time>2026-05-03T15:16:20.999Z</time></trkpt><trkpt lat="45.25577877908724" lon="8.740120025974138"><ele>108.25</ele><time>2026-05-03T15:16:21.999Z</time></trkpt><trkpt lat="45.25576019436762" lon="8.740301302080157"><ele>108.5</ele><time>2026-05-03T15:16:22.999Z</time></trkpt><trkpt lat="45.25573864571009" lon="8.740486737532326"><ele>108.75</ele><time>2026-05-03T15:16:23.999Z</time></trkpt><trkpt lat="45.25571701926822" lon="8.740651815422126"><ele>109.0</ele><time>2026-05-03T15:16:24.999Z</time></trkpt><trkpt lat="45.25570635885286" lon="8.740821274191005"><ele>109.0</ele><time>2026-05-03T15:16:25.999Z</time></trkpt><trkpt lat="45.25569185795501" lon="8.740989398209368"><ele>109.0</ele><time>2026-05-03T15:16:26.999Z</time></trkpt><trkpt lat="45.2556873437631" lon="8.741149565368843"><ele>109.0</ele><time>2026-05-03T15:16:27.999Z</time></trkpt><trkpt lat="45.255722403238984" lon="8.741315228622234"><ele>109.0</ele><time>2026-05-03T15:16:28.999Z</time></trkpt><trkpt lat="45.25576117874403" lon="8.741488687028207"><ele>109.0</ele><time>2026-05-03T15:16:29.999Z</time></trkpt><trkpt lat="45.25580678075701" lon="8.741668014974394"><ele>109.0</ele><time>2026-05-03T15:16:30.999Z</time></trkpt><trkpt lat="45.25587938818542" lon="8.741813049059646"><ele>109.0</ele><time>2026-05-03T15:16:31.999Z</time></trkpt><trkpt lat="45.255930377268385" lon="8.741991475857455"><ele>109.0</ele><time>2026-05-03T15:16:32.999Z</time></trkpt><trkpt lat="45.25595409279771" lon="8.742139969644404"><ele>108.83333333333334</ele><time>2026-05-03T15:16:33.999Z</time></trkpt><trkpt lat="45.2559849744957" lon="8.74227243914121"><ele>108.66666666666667</ele><time>2026-05-03T15:16:34.999Z</time></trkpt><trkpt lat="45.25601711162562" lon="8.742389482484187"><ele>108.5</ele><time>2026-05-03T15:16:35.999Z</time></trkpt><trkpt lat="45.25601903876777" lon="8.742482645659958"><ele>108.33333333333334</ele><time>2026-05-03T15:16:36.999Z</time></trkpt><trkpt lat="45.25600559624483" lon="8.74259616778083"><ele>108.16666666666667</ele><time>2026-05-03T15:16:38.999Z</time></trkpt><trkpt lat="45.25596993822153" lon="8.742670742475623"><ele>108.0</ele><time>2026-05-03T15:16:41.999Z</time></trkpt><trkpt lat="45.255921386752426" lon="8.742792509620717"><ele>107.83333333333333</ele><time>2026-05-03T15:16:43.999Z</time></trkpt><trkpt lat="45.25595506912597" lon="8.742933572654973"><ele>107.66666666666666</ele><time>2026-05-03T15:16:45.999Z</time></trkpt><trkpt lat="45.25602577393312" lon="8.743000687217021"><ele>107.5</ele><time>2026-05-03T15:16:46.999Z</time></trkpt><trkpt lat="45.25608597788679" lon="8.743069756739994"><ele>107.33333333333333</ele><time>2026-05-03T15:16:47.999Z</time></trkpt><trkpt lat="45.25613925463791" lon="8.743157410662084"><ele>107.16666666666666</ele><time>2026-05-03T15:16:48.999Z</time></trkpt><trkpt lat="45.256179977447864" lon="8.743283722958594"><ele>107.0</ele><time>2026-05-03T15:16:49.999Z</time></trkpt><trkpt lat="45.25620813667547" lon="8.743428013374572"><ele>106.75</ele><time>2026-05-03T15:16:50.999Z</time></trkpt><trkpt lat="45.25622968684647" lon="8.743580768508902"><ele>106.5</ele><time>2026-05-03T15:16:51.999Z</time></trkpt><trkpt lat="45.25626604058469" lon="8.743745657098211"><ele>106.25</ele><time>2026-05-03T15:16:52.999Z</time></trkpt><trkpt lat="45.25629027062013" lon="8.743902666136778"><ele>106.0</ele><time>2026-05-03T15:16:53.999Z</time></trkpt><trkpt lat="45.25632367965965" lon="8.744057355303832"><ele>106.0</ele><time>2026-05-03T15:16:55Z</time></trkpt><trkpt lat="45.256357766494304" lon="8.744216358461577"><ele>106.0</ele><time>2026-05-03T15:16:56Z</time></trkpt><trkpt lat="45.25637911241228" lon="8.744357077123915"><ele>106.0</ele><time>2026-05-03T15:16:57Z</time></trkpt><trkpt lat="45.256415482315084" lon="8.74450778824102"><ele>106.0</ele><time>2026-05-03T15:16:58Z</time></trkpt><trkpt lat="45.256443365232656" lon="8.744678251122199"><ele>106.25</ele><time>2026-05-03T15:16:59Z</time></trkpt><trkpt lat="45.25649249365301" lon="8.744841051344437"><ele>106.5</ele><time>2026-05-03T15:17:00Z</time></trkpt><trkpt lat="45.25653555525631" lon="8.74500143059152"><ele>106.75</ele><time>2026-05-03T15:17:01Z</time></trkpt><trkpt lat="45.256575930484175" lon="8.745159842704341"><ele>107.0</ele><time>2026-05-03T15:17:02Z</time></trkpt><trkpt lat="45.256617225313505" lon="8.745307632433954"><ele>106.99999999999999</ele><time>2026-05-03T15:17:03Z</time></trkpt><trkpt lat="45.25665000616351" lon="8.745439751675727"><ele>107.0</ele><time>2026-05-03T15:17:04Z</time></trkpt><trkpt lat="45.256673642687765" lon="8.745552173142618"><ele>107.0</ele><time>2026-05-03T15:17:05Z</time></trkpt><trkpt lat="45.25666986348577" lon="8.745652707785025"><ele>107.0</ele><time>2026-05-03T15:17:06Z</time></trkpt><trkpt lat="45.25662901224787" lon="8.74575467863589"><ele>106.99999999999999</ele><time>2026-05-03T15:17:07Z</time></trkpt><trkpt lat="45.256658317075505" lon="8.745865017906032"><ele>107.0</ele><time>2026-05-03T15:17:08Z</time></trkpt><trkpt lat="45.25671447048297" lon="8.745963656788629"><ele>106.75</ele><time>2026-05-03T15:17:09Z</time></trkpt><trkpt lat="45.256765887347306" lon="8.74609272877705"><ele>106.5</ele><time>2026-05-03T15:17:10Z</time></trkpt><trkpt lat="45.25681066605051" lon="8.746227134463352"><ele>106.25</ele><time>2026-05-03T15:17:11Z</time></trkpt><trkpt lat="45.25683978008308" lon="8.746392041361677"><ele>106.0</ele><time>2026-05-03T15:17:12Z</time></trkpt><trkpt lat="45.25688314093062" lon="8.746593985974284"><ele>106.0</ele><time>2026-05-03T15:17:13Z</time></trkpt><trkpt lat="45.256925489884296" lon="8.746805008813826"><ele>106.0</ele><time>2026-05-03T15:17:14Z</time></trkpt><trkpt lat="45.25696699335674" lon="8.747010584051637"><ele>106.0</ele><time>2026-05-03T15:17:15Z</time></trkpt><trkpt lat="45.25699041209819" lon="8.747221005007773"><ele>106.0</ele><time>2026-05-03T15:17:16Z</time></trkpt><trkpt lat="45.25706195968163" lon="8.747459955527965"><ele>106.0</ele><time>2026-05-03T15:17:17Z</time></trkpt><trkpt lat="45.257117793251524" lon="8.747699077380652"><ele>106.0</ele><time>2026-05-03T15:17:18Z</time></trkpt><trkpt lat="45.25719632922307" lon="8.747931784017831"><ele>106.0</ele><time>2026-05-03T15:17:19Z</time></trkpt><trkpt lat="45.2572394027837" lon="8.748158695089995"><ele>106.0</ele><time>2026-05-03T15:17:20Z</time></trkpt><trkpt lat="45.25727920382092" lon="8.74839616746741"><ele>106.0</ele><time>2026-05-03T15:17:21Z</time></trkpt><trkpt lat="45.257327556370726" lon="8.748635969580718"><ele>106.0</ele><time>2026-05-03T15:17:22Z</time></trkpt><trkpt lat="45.25737545106981" lon="8.748868738178047"><ele>106.0</ele><time>2026-05-03T15:17:23Z</time></trkpt><trkpt lat="45.25742416485179" lon="8.749096029566525"><ele>106.0</ele><time>2026-05-03T15:17:24Z</time></trkpt><trkpt lat="45.257462098043625" lon="8.749324992875794"><ele>106.33333333333334</ele><time>2026-05-03T15:17:25Z</time></trkpt><trkpt lat="45.25752134644358" lon="8.749551604461859"><ele>106.66666666666666</ele><time>2026-05-03T15:17:26Z</time></trkpt><trkpt lat="45.25759749932226" lon="8.749774377811415"><ele>107.0</ele><time>2026-05-03T15:17:27Z</time></trkpt><trkpt lat="45.257656848112795" lon="8.749988896642408"><ele>107.0</ele><time>2026-05-03T15:17:28Z</time></trkpt><trkpt lat="45.25771299245406" lon="8.750201062756782"><ele>107.0</ele><time>2026-05-03T15:17:29Z</time></trkpt><trkpt lat="45.25776197602733" lon="8.75040500102851"><ele>107.0</ele><time>2026-05-03T15:17:30Z</time></trkpt><trkpt lat="45.25784376997632" lon="8.750611895488472"><ele>107.0</ele><time>2026-05-03T15:17:31Z</time></trkpt><trkpt lat="45.25792486152703" lon="8.750817339651318"><ele>107.0</ele><time>2026-05-03T15:17:32Z</time></trkpt><trkpt lat="45.25798493939341" lon="8.751024888295312"><ele>107.0</ele><time>2026-05-03T15:17:33Z</time></trkpt><trkpt lat="45.25805294177958" lon="8.751234420339939"><ele>107.33333333333333</ele><time>2026-05-03T15:17:34Z</time></trkpt><trkpt lat="45.258110988304" lon="8.751443950418997"><ele>107.66666666666666</ele><time>2026-05-03T15:17:35Z</time></trkpt><trkpt lat="45.258171281055844" lon="8.751660062063861"><ele>108.0</ele><time>2026-05-03T15:17:36Z</time></trkpt><trkpt lat="45.25822989298939" lon="8.751880854093528"><ele>108.0</ele><time>2026-05-03T15:17:37Z</time></trkpt><trkpt lat="45.2582929429911" lon="8.752094909037071"><ele>108.0</ele><time>2026-05-03T15:17:38Z</time></trkpt><trkpt lat="45.258362266948296" lon="8.752317062696767"><ele>108.0</ele><time>2026-05-03T15:17:39Z</time></trkpt><trkpt lat="45.258425804515156" lon="8.752530286971346"><ele>107.66666666666666</ele><time>2026-05-03T15:17:40Z</time></trkpt><trkpt lat="45.2584866257747" lon="8.752754914839157"><ele>107.33333333333333</ele><time>2026-05-03T15:17:41Z</time></trkpt><trkpt lat="45.258553562234006" lon="8.752980875601738"><ele>107.0</ele><time>2026-05-03T15:17:42Z</time></trkpt><trkpt lat="45.25862534524804" lon="8.753202100673997"><ele>107.0</ele><time>2026-05-03T15:17:43Z</time></trkpt><trkpt lat="45.25866560115703" lon="8.753409855061037"><ele>107.0</ele><time>2026-05-03T15:17:44Z</time></trkpt><trkpt lat="45.25871785977873" lon="8.753595390772272"><ele>107.0</ele><time>2026-05-03T15:17:45Z</time></trkpt><trkpt lat="45.25875927579163" lon="8.753753413897302"><ele>107.0</ele><time>2026-05-03T15:17:46Z</time></trkpt><trkpt lat="45.25878506681282" lon="8.753899791271422"><ele>107.0</ele><time>2026-05-03T15:17:47Z</time></trkpt><trkpt lat="45.25877672757666" lon="8.754027839236638"><ele>106.99999999999999</ele><time>2026-05-03T15:17:48Z</time></trkpt><trkpt lat="45.25873807263239" lon="8.754132187734768"><ele>106.99999999999999</ele><time>2026-05-03T15:17:49Z</time></trkpt><trkpt lat="45.258676969903966" lon="8.754222215481818"><ele>107.0</ele><time>2026-05-03T15:17:50Z</time></trkpt><trkpt lat="45.258611612176985" lon="8.754341185249427"><ele>107.0</ele><time>2026-05-03T15:17:51Z</time></trkpt><trkpt lat="45.258583439229284" lon="8.754480399786974"><ele>107.0</ele><time>2026-05-03T15:17:52Z</time></trkpt><trkpt lat="45.2586027597573" lon="8.75462668246703"><ele>106.99999999999999</ele><time>2026-05-03T15:17:53Z</time></trkpt><trkpt lat="45.25866788340258" lon="8.754725740070713"><ele>106.99999999999999</ele><time>2026-05-03T15:17:54Z</time></trkpt><trkpt lat="45.25876826971567" lon="8.754791185176963"><ele>107.0</ele><time>2026-05-03T15:17:55Z</time></trkpt><trkpt lat="45.25888089643465" lon="8.754840382680255"><ele>107.0</ele><time>2026-05-03T15:17:56Z</time></trkpt><trkpt lat="45.25902454975102" lon="8.754854911769248"><ele>107.0</ele><time>2026-05-03T15:17:57Z</time></trkpt><trkpt lat="45.259156858787605" lon="8.754908898666473"><ele>107.0</ele><time>2026-05-03T15:17:58Z</time></trkpt><trkpt lat="45.25926902767408" lon="8.754995524679039"><ele>107.0</ele><time>2026-05-03T15:17:59Z</time></trkpt><trkpt lat="45.25938397512505" lon="8.755127426438555"><ele>107.0</ele><time>2026-05-03T15:18:00Z</time></trkpt><trkpt lat="45.25949783159697" lon="8.755273377377966"><ele>107.33333333333333</ele><time>2026-05-03T15:18:01Z</time></trkpt><trkpt lat="45.25962531027217" lon="8.755420909857511"><ele>107.66666666666666</ele><time>2026-05-03T15:18:02Z</time></trkpt><trkpt lat="45.259759715379666" lon="8.755581008964269"><ele>108.0</ele><time>2026-05-03T15:18:03Z</time></trkpt><trkpt lat="45.25988892689184" lon="8.755741322556126"><ele>108.66666666666666</ele><time>2026-05-03T15:18:04Z</time></trkpt><trkpt lat="45.26002454277937" lon="8.755918202945693"><ele>109.33333333333333</ele><time>2026-05-03T15:18:05Z</time></trkpt><trkpt lat="45.26016499276252" lon="8.756098807248568"><ele>110.0</ele><time>2026-05-03T15:18:06Z</time></trkpt><trkpt lat="45.26030374934045" lon="8.756286310216879"><ele>110.33333333333333</ele><time>2026-05-03T15:18:07Z</time></trkpt><trkpt lat="45.26045157295185" lon="8.756472235774012"><ele>110.66666666666666</ele><time>2026-05-03T15:18:08Z</time></trkpt><trkpt lat="45.260607998250265" lon="8.756659332435175"><ele>111.0</ele><time>2026-05-03T15:18:09Z</time></trkpt><trkpt lat="45.26075581175" lon="8.756858977413282"><ele>110.33333333333334</ele><time>2026-05-03T15:18:10Z</time></trkpt><trkpt lat="45.26090870276283" lon="8.757064439107019"><ele>109.66666666666667</ele><time>2026-05-03T15:18:11Z</time></trkpt><trkpt lat="45.261062712436654" lon="8.757268941999197"><ele>109.0</ele><time>2026-05-03T15:18:12Z</time></trkpt><trkpt lat="45.26121401639547" lon="8.757476936410352"><ele>109.0</ele><time>2026-05-03T15:18:13Z</time></trkpt><trkpt lat="45.26136765757668" lon="8.757689821864597"><ele>109.0</ele><time>2026-05-03T15:18:14Z</time></trkpt><trkpt lat="45.26152506048188" lon="8.75789960943141"><ele>109.0</ele><time>2026-05-03T15:18:15Z</time></trkpt><trkpt lat="45.26167578734404" lon="8.758110115939672"><ele>108.33333333333334</ele><time>2026-05-03T15:18:16Z</time></trkpt><trkpt lat="45.26183674226434" lon="8.758314342130316"><ele>107.66666666666666</ele><time>2026-05-03T15:18:16.999Z</time></trkpt><trkpt lat="45.26200487762883" lon="8.758518867058354"><ele>107.0</ele><time>2026-05-03T15:18:17.999Z</time></trkpt><trkpt lat="45.26218008102651" lon="8.758714553230146"><ele>107.33333333333333</ele><time>2026-05-03T15:18:18.999Z</time></trkpt><trkpt lat="45.26235892229776" lon="8.758904936838476"><ele>107.66666666666666</ele><time>2026-05-03T15:18:19.999Z</time></trkpt><trkpt lat="45.262535094064695" lon="8.759091496521384"><ele>108.0</ele><time>2026-05-03T15:18:20.999Z</time></trkpt><trkpt lat="45.26271421790344" lon="8.759286454735316"><ele>108.0</ele><time>2026-05-03T15:18:21.999Z</time></trkpt><trkpt lat="45.26289098807577" lon="8.759482250467718"><ele>108.0</ele><time>2026-05-03T15:18:22.999Z</time></trkpt><trkpt lat="45.263065732875916" lon="8.759676799238617"><ele>108.0</ele><time>2026-05-03T15:18:23.999Z</time></trkpt><trkpt lat="45.26323966778084" lon="8.759872258115896"><ele>108.0</ele><time>2026-05-03T15:18:24.999Z</time></trkpt><trkpt lat="45.2634178077386" lon="8.760059028431924"><ele>108.0</ele><time>2026-05-03T15:18:25.999Z</time></trkpt><trkpt lat="45.26359086281557" lon="8.760244533234394"><ele>108.0</ele><time>2026-05-03T15:18:26.999Z</time></trkpt><trkpt lat="45.2637651906935" lon="8.760436586456754"><ele>108.66666666666666</ele><time>2026-05-03T15:18:27.999Z</time></trkpt><trkpt lat="45.26394978141733" lon="8.760626016767738"><ele>109.33333333333333</ele><time>2026-05-03T15:18:28.999Z</time></trkpt><trkpt lat="45.264123093555135" lon="8.760819766610409"><ele>110.0</ele><time>2026-05-03T15:18:29.999Z</time></trkpt><trkpt lat="45.264298124967404" lon="8.761021254202415"><ele>109.33333333333333</ele><time>2026-05-03T15:18:30.999Z</time></trkpt><trkpt lat="45.264462471081735" lon="8.761231129457927"><ele>108.66666666666666</ele><time>2026-05-03T15:18:31.999Z</time></trkpt><trkpt lat="45.264621732268274" lon="8.761446665541696"><ele>108.0</ele><time>2026-05-03T15:18:32.999Z</time></trkpt><trkpt lat="45.264788555508076" lon="8.761673638964332"><ele>107.0</ele><time>2026-05-03T15:18:33.999Z</time></trkpt><trkpt lat="45.26495104804999" lon="8.761908356547064"><ele>106.0</ele><time>2026-05-03T15:18:34.999Z</time></trkpt><trkpt lat="45.26512349684243" lon="8.762142996893981"><ele>106.0</ele><time>2026-05-03T15:18:35.999Z</time></trkpt><trkpt lat="45.26529422295899" lon="8.76238037706034"><ele>106.0</ele><time>2026-05-03T15:18:36.999Z</time></trkpt><trkpt lat="45.265461834542755" lon="8.762624928684732"><ele>107.0</ele><time>2026-05-03T15:18:37.999Z</time></trkpt><trkpt lat="45.26563385000217" lon="8.762880157570448"><ele>108.0</ele><time>2026-05-03T15:18:38.999Z</time></trkpt><trkpt lat="45.26580153632375" lon="8.76312439469646"><ele>108.0</ele><time>2026-05-03T15:18:39.999Z</time></trkpt><trkpt lat="45.26596287113024" lon="8.763377319057946"><ele>108.0</ele><time>2026-05-03T15:18:40.999Z</time></trkpt><trkpt lat="45.26612615400913" lon="8.763629376191822"><ele>107.0</ele><time>2026-05-03T15:18:41.999Z</time></trkpt><trkpt lat="45.266279047837" lon="8.763882483385874"><ele>106.0</ele><time>2026-05-03T15:18:42.999Z</time></trkpt><trkpt lat="45.26643870662738" lon="8.764131798181719"><ele>106.5</ele><time>2026-05-03T15:18:43.999Z</time></trkpt><trkpt lat="45.26659855696378" lon="8.764379771993102"><ele>107.0</ele><time>2026-05-03T15:18:44.999Z</time></trkpt><trkpt lat="45.266756474922595" lon="8.764619936726403"><ele>107.0</ele><time>2026-05-03T15:18:45.999Z</time></trkpt><trkpt lat="45.26691847280832" lon="8.764863455021512"><ele>107.0</ele><time>2026-05-03T15:18:46.999Z</time></trkpt><trkpt lat="45.26707415679567" lon="8.765112802537566"><ele>107.0</ele><time>2026-05-03T15:18:47.999Z</time></trkpt><trkpt lat="45.2672337970813" lon="8.765360124440365"><ele>107.0</ele><time>2026-05-03T15:18:48.999Z</time></trkpt><trkpt lat="45.26740328465858" lon="8.765603778941431"><ele>107.0</ele><time>2026-05-03T15:18:49.999Z</time></trkpt><trkpt lat="45.26757523325928" lon="8.765856872143145"><ele>107.0</ele><time>2026-05-03T15:18:50.999Z</time></trkpt><trkpt lat="45.267737173558125" lon="8.76610074111096"><ele>108.5</ele><time>2026-05-03T15:18:51.999Z</time></trkpt><trkpt lat="45.26789532853959" lon="8.76634178804357"><ele>110.0</ele><time>2026-05-03T15:18:52.999Z</time></trkpt><trkpt lat="45.268054633696394" lon="8.766586591287094"><ele>110.5</ele><time>2026-05-03T15:18:53.999Z</time></trkpt><trkpt lat="45.26821401518838" lon="8.766839889252719"><ele>111.0</ele><time>2026-05-03T15:18:54.999Z</time></trkpt><trkpt lat="45.26837838974007" lon="8.76709175660173"><ele>111.0</ele><time>2026-05-03T15:18:55.999Z</time></trkpt><trkpt lat="45.268543156331646" lon="8.767343597761723"><ele>111.0</ele><time>2026-05-03T15:18:56.999Z</time></trkpt><trkpt lat="45.26870756444577" lon="8.767602936328325"><ele>111.0</ele><time>2026-05-03T15:18:57.999Z</time></trkpt><trkpt lat="45.26887772807248" lon="8.767856046393028"><ele>111.0</ele><time>2026-05-03T15:18:58.999Z</time></trkpt><trkpt lat="45.269042751401834" lon="8.768113698226125"><ele>111.0</ele><time>2026-05-03T15:18:59.999Z</time></trkpt><trkpt lat="45.269208318958405" lon="8.768370784485432"><ele>111.0</ele><time>2026-05-03T15:19:01Z</time></trkpt><trkpt lat="45.269377071908224" lon="8.768627684439167"><ele>112.0</ele><time>2026-05-03T15:19:02Z</time></trkpt><trkpt lat="45.269554658908255" lon="8.768895050690984"><ele>113.0</ele><time>2026-05-03T15:19:03Z</time></trkpt><trkpt lat="45.26972303731316" lon="8.769157363054402"><ele>110.5</ele><time>2026-05-03T15:19:04Z</time></trkpt><trkpt lat="45.269890427404995" lon="8.769418621606144"><ele>108.0</ele><time>2026-05-03T15:19:05Z</time></trkpt><trkpt lat="45.27006192117955" lon="8.769672404309821"><ele>108.0</ele><time>2026-05-03T15:19:06Z</time></trkpt><trkpt lat="45.27022836991703" lon="8.769924808889861"><ele>108.0</ele><time>2026-05-03T15:19:07Z</time></trkpt><trkpt lat="45.27038532733638" lon="8.770167132572142"><ele>108.0</ele><time>2026-05-03T15:19:08Z</time></trkpt><trkpt lat="45.270530918685964" lon="8.77039894433131"><ele>108.0</ele><time>2026-05-03T15:19:09Z</time></trkpt><trkpt lat="45.270669801005006" lon="8.770621190539394"><ele>108.0</ele><time>2026-05-03T15:19:10Z</time></trkpt><trkpt lat="45.270808668949094" lon="8.770849769030258"><ele>107.66666666666666</ele><time>2026-05-03T15:19:11Z</time></trkpt><trkpt lat="45.27093945369355" lon="8.771082602329207"><ele>107.33333333333333</ele><time>2026-05-03T15:19:12Z</time></trkpt><trkpt lat="45.27107707119755" lon="8.771329135933767"><ele>107.0</ele><time>2026-05-03T15:19:13Z</time></trkpt><trkpt lat="45.27120801876192" lon="8.77159510272171"><ele>106.0</ele><time>2026-05-03T15:19:14Z</time></trkpt><trkpt lat="45.271328981726086" lon="8.771870292075512"><ele>105.0</ele><time>2026-05-03T15:19:15Z</time></trkpt><trkpt lat="45.27143256871677" lon="8.772158736580886"><ele>106.0</ele><time>2026-05-03T15:19:16Z</time></trkpt><trkpt lat="45.27155481794135" lon="8.772431498270315"><ele>107.0</ele><time>2026-05-03T15:19:17Z</time></trkpt><trkpt lat="45.271666538008816" lon="8.772707845119013"><ele>107.0</ele><time>2026-05-03T15:19:18Z</time></trkpt><trkpt lat="45.27177550100055" lon="8.77298132691153"><ele>107.0</ele><time>2026-05-03T15:19:19Z</time></trkpt><trkpt lat="45.27188369234886" lon="8.773252859718507"><ele>107.0</ele><time>2026-05-03T15:19:20Z</time></trkpt><trkpt lat="45.27199387727309" lon="8.773518843525457"><ele>107.0</ele><time>2026-05-03T15:19:21Z</time></trkpt><trkpt lat="45.27210133803288" lon="8.77378715633157"><ele>107.0</ele><time>2026-05-03T15:19:22Z</time></trkpt><trkpt lat="45.272205771470595" lon="8.774050137017417"><ele>107.0</ele><time>2026-05-03T15:19:23Z</time></trkpt><trkpt lat="45.2723131174612" lon="8.774320468604438"><ele>107.0</ele><time>2026-05-03T15:19:24Z</time></trkpt><trkpt lat="45.272416147726446" lon="8.774587654546401"><ele>107.0</ele><time>2026-05-03T15:19:25Z</time></trkpt><trkpt lat="45.27252819828081" lon="8.77484752116087"><ele>107.0</ele><time>2026-05-03T15:19:26Z</time></trkpt><trkpt lat="45.27264078511908" lon="8.775113270410195"><ele>106.5</ele><time>2026-05-03T15:19:27Z</time></trkpt><trkpt lat="45.2727601197786" lon="8.775392193331651"><ele>106.0</ele><time>2026-05-03T15:19:28Z</time></trkpt><trkpt lat="45.27288988883991" lon="8.775679649649938"><ele>106.0</ele><time>2026-05-03T15:19:29Z</time></trkpt><trkpt lat="45.27301931238705" lon="8.77598984710296"><ele>106.0</ele><time>2026-05-03T15:19:30Z</time></trkpt><trkpt lat="45.27315119443158" lon="8.776327298797984"><ele>107.0</ele><time>2026-05-03T15:19:31Z</time></trkpt><trkpt lat="45.27326473358176" lon="8.776644516667993"><ele>108.0</ele><time>2026-05-03T15:19:32Z</time></trkpt><trkpt lat="45.273371985814904" lon="8.776936423977283"><ele>108.0</ele><time>2026-05-03T15:19:33Z</time></trkpt><trkpt lat="45.27349446923013" lon="8.77724238594802"><ele>108.0</ele><time>2026-05-03T15:19:34Z</time></trkpt><trkpt lat="45.27361137101274" lon="8.77754480474753"><ele>108.0</ele><time>2026-05-03T15:19:35Z</time></trkpt><trkpt lat="45.27373955140959" lon="8.777863162085954"><ele>108.0</ele><time>2026-05-03T15:19:36Z</time></trkpt><trkpt lat="45.27386096890241" lon="8.778184284670507"><ele>110.0</ele><time>2026-05-03T15:19:37Z</time></trkpt><trkpt lat="45.27399222404441" lon="8.77849712988756"><ele>112.0</ele><time>2026-05-03T15:19:38Z</time></trkpt><trkpt lat="45.2741138812562" lon="8.778811092387807"><ele>112.5</ele><time>2026-05-03T15:19:39Z</time></trkpt><trkpt lat="45.27424557286484" lon="8.779125212538345"><ele>113.0</ele><time>2026-05-03T15:19:40Z</time></trkpt><trkpt lat="45.27437990228046" lon="8.779441190287733"><ele>111.0</ele><time>2026-05-03T15:19:41Z</time></trkpt><trkpt lat="45.274509917518444" lon="8.779759468742588"><ele>109.0</ele><time>2026-05-03T15:19:42Z</time></trkpt><trkpt lat="45.274638743098805" lon="8.780083515587602"><ele>109.0</ele><time>2026-05-03T15:19:43Z</time></trkpt><trkpt lat="45.274764935020315" lon="8.780383719135889"><ele>109.0</ele><time>2026-05-03T15:19:44Z</time></trkpt><trkpt lat="45.274887011223335" lon="8.780698394301961"><ele>108.5</ele><time>2026-05-03T15:19:45Z</time></trkpt><trkpt lat="45.275001225606786" lon="8.781023205724308"><ele>108.0</ele><time>2026-05-03T15:19:46Z</time></trkpt><trkpt lat="45.27512350098457" lon="8.781326866273185"><ele>108.0</ele><time>2026-05-03T15:19:47Z</time></trkpt><trkpt lat="45.27525176161276" lon="8.781631785362737"><ele>108.0</ele><time>2026-05-03T15:19:48Z</time></trkpt><trkpt lat="45.275371015622056" lon="8.781924912722616"><ele>108.0</ele><time>2026-05-03T15:19:49Z</time></trkpt><trkpt lat="45.2754793958128" lon="8.782199925160699"><ele>108.0</ele><time>2026-05-03T15:19:50Z</time></trkpt><trkpt lat="45.27558179306276" lon="8.782461584444574"><ele>108.0</ele><time>2026-05-03T15:19:51Z</time></trkpt><trkpt lat="45.275679064584494" lon="8.782707202777628"><ele>108.0</ele><time>2026-05-03T15:19:52Z</time></trkpt><trkpt lat="45.275766822441575" lon="8.782938022572733"><ele>108.0</ele><time>2026-05-03T15:19:53Z</time></trkpt><trkpt lat="45.27584842000826" lon="8.783150220217474"><ele>108.0</ele><time>2026-05-03T15:19:54Z</time></trkpt><trkpt lat="45.27592899389156" lon="8.78333513461108"><ele>108.0</ele><time>2026-05-03T15:19:55Z</time></trkpt><trkpt lat="45.2759951647579" lon="8.783494542581062"><ele>108.00000000000001</ele><time>2026-05-03T15:19:56Z</time></trkpt><trkpt lat="45.27604186436769" lon="8.783630604247339"><ele>108.00000000000001</ele><time>2026-05-03T15:19:57Z</time></trkpt><trkpt lat="45.276078673504124" lon="8.783743491159948"><ele>108.0</ele><time>2026-05-03T15:19:58Z</time></trkpt><trkpt lat="45.27609706052136" lon="8.783837204347671"><ele>108.0</ele><time>2026-05-03T15:19:59Z</time></trkpt><trkpt lat="45.276101452674" lon="8.783928752006997"><ele>108.0</ele><time>2026-05-03T15:20:00Z</time></trkpt><trkpt lat="45.276066142228174" lon="8.78409949089505"><ele>108.00000000000001</ele><time>2026-05-03T15:20:02Z</time></trkpt><trkpt lat="45.27606798562469" lon="8.784222304271045"><ele>108.00000000000001</ele><time>2026-05-03T15:20:03Z</time></trkpt><trkpt lat="45.276095191261625" lon="8.784338813537012"><ele>108.0</ele><time>2026-05-03T15:20:04Z</time></trkpt><trkpt lat="45.276143973848306" lon="8.78444251904322"><ele>108.0</ele><time>2026-05-03T15:20:05Z</time></trkpt><trkpt lat="45.27621786686373" lon="8.784541005816488"><ele>108.25</ele><time>2026-05-03T15:20:06Z</time></trkpt><trkpt lat="45.27632131972839" lon="8.784630442433953"><ele>108.5</ele><time>2026-05-03T15:20:07Z</time></trkpt><trkpt lat="45.276424083377165" lon="8.784738543704124"><ele>108.75</ele><time>2026-05-03T15:20:08Z</time></trkpt><trkpt lat="45.27650789979856" lon="8.78489737372843"><ele>109.0</ele><time>2026-05-03T15:20:09Z</time></trkpt><trkpt lat="45.27656262239763" lon="8.785079830494563"><ele>109.33333333333334</ele><time>2026-05-03T15:20:10Z</time></trkpt><trkpt lat="45.27662234523327" lon="8.785273248365035"><ele>109.66666666666666</ele><time>2026-05-03T15:20:11Z</time></trkpt><trkpt lat="45.2766923130409" lon="8.785460652414333"><ele>110.0</ele><time>2026-05-03T15:20:12Z</time></trkpt><trkpt lat="45.27677948810407" lon="8.785656649534161"><ele>110.0</ele><time>2026-05-03T15:20:13Z</time></trkpt><trkpt lat="45.2768643062371" lon="8.785861178901026"><ele>110.0</ele><time>2026-05-03T15:20:14Z</time></trkpt><trkpt lat="45.27695609100346" lon="8.786057908359805"><ele>110.0</ele><time>2026-05-03T15:20:15Z</time></trkpt><trkpt lat="45.277053724433" lon="8.786271213138532"><ele>109.0</ele><time>2026-05-03T15:20:16Z</time></trkpt><trkpt lat="45.27715784696659" lon="8.786490677270924"><ele>108.0</ele><time>2026-05-03T15:20:16.999Z</time></trkpt><trkpt lat="45.277252337976606" lon="8.786718768194905"><ele>107.0</ele><time>2026-05-03T15:20:17.999Z</time></trkpt><trkpt lat="45.27734046055425" lon="8.786952251883019"><ele>107.0</ele><time>2026-05-03T15:20:18.999Z</time></trkpt><trkpt lat="45.277419545932425" lon="8.787187060764328"><ele>107.0</ele><time>2026-05-03T15:20:19.999Z</time></trkpt><trkpt lat="45.27750017343655" lon="8.787425862301586"><ele>107.0</ele><time>2026-05-03T15:20:20.999Z</time></trkpt><trkpt lat="45.277583807441104" lon="8.787659286569397"><ele>107.0</ele><time>2026-05-03T15:20:21.999Z</time></trkpt><trkpt lat="45.27766395233621" lon="8.787887952096376"><ele>107.0</ele><time>2026-05-03T15:20:22.999Z</time></trkpt><trkpt lat="45.277751659271" lon="8.78812160917385"><ele>107.0</ele><time>2026-05-03T15:20:23.999Z</time></trkpt><trkpt lat="45.27782388692779" lon="8.78835480731533"><ele>107.0</ele><time>2026-05-03T15:20:24.999Z</time></trkpt><trkpt lat="45.27789758847266" lon="8.788581682416925"><ele>107.0</ele><time>2026-05-03T15:20:25.999Z</time></trkpt><trkpt lat="45.277976547043785" lon="8.788807696810006"><ele>107.0</ele><time>2026-05-03T15:20:26.999Z</time></trkpt><trkpt lat="45.278064527186935" lon="8.789043451671736"><ele>107.33333333333333</ele><time>2026-05-03T15:20:27.999Z</time></trkpt><trkpt lat="45.278146893333584" lon="8.789277600892602"><ele>107.66666666666666</ele><time>2026-05-03T15:20:28.999Z</time></trkpt><trkpt lat="45.27823081247083" lon="8.78951506004929"><ele>108.0</ele><time>2026-05-03T15:20:29.999Z</time></trkpt><trkpt lat="45.27831535030441" lon="8.789754204137154"><ele>108.0</ele><time>2026-05-03T15:20:30.999Z</time></trkpt><trkpt lat="45.27839559148202" lon="8.78998986088363"><ele>108.0</ele><time>2026-05-03T15:20:31.999Z</time></trkpt><trkpt lat="45.27848246218911" lon="8.790224741242891"><ele>108.0</ele><time>2026-05-03T15:20:32.999Z</time></trkpt><trkpt lat="45.27857202528939" lon="8.790464688979089"><ele>108.0</ele><time>2026-05-03T15:20:33.999Z</time></trkpt><trkpt lat="45.278660216912854" lon="8.790702896455425"><ele>108.0</ele><time>2026-05-03T15:20:34.999Z</time></trkpt><trkpt lat="45.27874754361791" lon="8.790944328567464"><ele>108.0</ele><time>2026-05-03T15:20:35.999Z</time></trkpt><trkpt lat="45.27883341324123" lon="8.791185310171517"><ele>107.66666666666666</ele><time>2026-05-03T15:20:36.999Z</time></trkpt><trkpt lat="45.278911267631926" lon="8.79141556281711"><ele>107.33333333333333</ele><time>2026-05-03T15:20:37.999Z</time></trkpt><trkpt lat="45.278989214118276" lon="8.791637677378791"><ele>107.0</ele><time>2026-05-03T15:20:38.999Z</time></trkpt><trkpt lat="45.27906404676964" lon="8.791850398735567"><ele>107.0</ele><time>2026-05-03T15:20:39.999Z</time></trkpt><trkpt lat="45.27912871652405" lon="8.792040469181583"><ele>107.0</ele><time>2026-05-03T15:20:40.999Z</time></trkpt><trkpt lat="45.27918981518167" lon="8.792216560388308"><ele>107.0</ele><time>2026-05-03T15:20:41.999Z</time></trkpt><trkpt lat="45.27924674956402" lon="8.792380715198695"><ele>107.0</ele><time>2026-05-03T15:20:42.999Z</time></trkpt><trkpt lat="45.27926703943216" lon="8.792543053236555"><ele>107.19999999999999</ele><time>2026-05-03T15:20:43.999Z</time></trkpt><trkpt lat="45.279282884398484" lon="8.792705106263469"><ele>107.39999999999999</ele><time>2026-05-03T15:20:44.999Z</time></trkpt><trkpt lat="45.27927790124924" lon="8.792859140794175"><ele>107.60000000000001</ele><time>2026-05-03T15:20:45.999Z</time></trkpt><trkpt lat="45.27926890249095" lon="8.793014019847574"><ele>107.80000000000001</ele><time>2026-05-03T15:20:46.999Z</time></trkpt><trkpt lat="45.27927898956282" lon="8.793176107643898"><ele>108.0</ele><time>2026-05-03T15:20:47.999Z</time></trkpt><trkpt lat="45.2793152229676" lon="8.793340508274007"><ele>108.0</ele><time>2026-05-03T15:20:48.999Z</time></trkpt><trkpt lat="45.2793758460161" lon="8.79350014605115"><ele>108.0</ele><time>2026-05-03T15:20:49.999Z</time></trkpt><trkpt lat="45.27945372263387" lon="8.793635434842871"><ele>108.0</ele><time>2026-05-03T15:20:50.999Z</time></trkpt><trkpt lat="45.27954770766669" lon="8.793753539248085"><ele>108.0</ele><time>2026-05-03T15:20:51.999Z</time></trkpt><trkpt lat="45.27964512206842" lon="8.79386525290574"><ele>108.0</ele><time>2026-05-03T15:20:52.999Z</time></trkpt><trkpt lat="45.27974987323146" lon="8.793990996825254"><ele>108.0</ele><time>2026-05-03T15:20:53.999Z</time></trkpt><trkpt lat="45.2798458315245" lon="8.794135925684593"><ele>108.0</ele><time>2026-05-03T15:20:54.999Z</time></trkpt><trkpt lat="45.27991719116381" lon="8.794297976370462"><ele>108.0</ele><time>2026-05-03T15:20:55.999Z</time></trkpt><trkpt lat="45.2799862850554" lon="8.794468019350935"><ele>109.0</ele><time>2026-05-03T15:20:56.999Z</time></trkpt><trkpt lat="45.2800525633098" lon="8.794665732405452"><ele>110.0</ele><time>2026-05-03T15:20:57.999Z</time></trkpt><trkpt lat="45.28012744998744" lon="8.794869308460443"><ele>111.0</ele><time>2026-05-03T15:20:58.999Z</time></trkpt><trkpt lat="45.28020809521259" lon="8.795083289188593"><ele>111.33333333333334</ele><time>2026-05-03T15:20:59.999Z</time></trkpt><trkpt lat="45.280284459204" lon="8.795305683823726"><ele>111.66666666666667</ele><time>2026-05-03T15:21:00.999Z</time></trkpt><trkpt lat="45.280360788006945" lon="8.795514251595153"><ele>112.0</ele><time>2026-05-03T15:21:01.999Z</time></trkpt><trkpt lat="45.28042793300405" lon="8.795718304451869"><ele>112.0</ele><time>2026-05-03T15:21:02.999Z</time></trkpt><trkpt lat="45.28051298647503" lon="8.79593350649026"><ele>112.0</ele><time>2026-05-03T15:21:03.999Z</time></trkpt><trkpt lat="45.2806131839445" lon="8.79616051906609"><ele>112.0</ele><time>2026-05-03T15:21:04.999Z</time></trkpt><trkpt lat="45.2807115114593" lon="8.796418609067132"><ele>111.5</ele><time>2026-05-03T15:21:05.999Z</time></trkpt><trkpt lat="45.2808088393578" lon="8.796711603466"><ele>111.0</ele><time>2026-05-03T15:21:07Z</time></trkpt><trkpt lat="45.28091620119069" lon="8.79701967562042"><ele>112.0</ele><time>2026-05-03T15:21:08Z</time></trkpt><trkpt lat="45.281013459930875" lon="8.79731752972708"><ele>113.0</ele><time>2026-05-03T15:21:09Z</time></trkpt><trkpt lat="45.28112657005547" lon="8.797608331640506"><ele>113.0</ele><time>2026-05-03T15:21:10Z</time></trkpt><trkpt lat="45.2812376180137" lon="8.79789059066434"><ele>113.0</ele><time>2026-05-03T15:21:11Z</time></trkpt><trkpt lat="45.28136658751958" lon="8.798188245202724"><ele>110.5</ele><time>2026-05-03T15:21:12Z</time></trkpt><trkpt lat="45.28148024117743" lon="8.798484152002944"><ele>108.0</ele><time>2026-05-03T15:21:13Z</time></trkpt><trkpt lat="45.281604575015976" lon="8.798783974627082"><ele>107.0</ele><time>2026-05-03T15:21:14Z</time></trkpt><trkpt lat="45.2817270932938" lon="8.799093331628683"><ele>106.0</ele><time>2026-05-03T15:21:15Z</time></trkpt><trkpt lat="45.28184974854415" lon="8.799411137849477"><ele>106.0</ele><time>2026-05-03T15:21:16Z</time></trkpt><trkpt lat="45.28197557604027" lon="8.799737506327068"><ele>106.0</ele><time>2026-05-03T15:21:17Z</time></trkpt><trkpt lat="45.282099094722874" lon="8.80006883202235"><ele>106.5</ele><time>2026-05-03T15:21:18Z</time></trkpt><trkpt lat="45.282225200153114" lon="8.800393664624432"><ele>107.0</ele><time>2026-05-03T15:21:19Z</time></trkpt><trkpt lat="45.282373765214494" lon="8.800716477056879"><ele>107.0</ele><time>2026-05-03T15:21:20Z</time></trkpt><trkpt lat="45.28250387397465" lon="8.801036727275315"><ele>107.0</ele><time>2026-05-03T15:21:21Z</time></trkpt><trkpt lat="45.282615156156865" lon="8.801347918791615"><ele>107.0</ele><time>2026-05-03T15:21:22Z</time></trkpt><trkpt lat="45.28274041153752" lon="8.801649683220072"><ele>107.0</ele><time>2026-05-03T15:21:23Z</time></trkpt><trkpt lat="45.282857431083706" lon="8.801951816213855"><ele>106.5</ele><time>2026-05-03T15:21:24Z</time></trkpt><trkpt lat="45.28298540375922" lon="8.802251072698759"><ele>106.0</ele><time>2026-05-03T15:21:25Z</time></trkpt><trkpt lat="45.283093705600315" lon="8.802542499428899"><ele>105.5</ele><time>2026-05-03T15:21:26Z</time></trkpt><trkpt lat="45.2832007994537" lon="8.802836384736102"><ele>105.0</ele><time>2026-05-03T15:21:27Z</time></trkpt><trkpt lat="45.28331475223748" lon="8.803126870802359"><ele>105.0</ele><time>2026-05-03T15:21:28Z</time></trkpt><trkpt lat="45.28342811609889" lon="8.803413264948551"><ele>105.0</ele><time>2026-05-03T15:21:29Z</time></trkpt><trkpt lat="45.28353459082142" lon="8.803685904711028"><ele>105.0</ele><time>2026-05-03T15:21:30Z</time></trkpt><trkpt lat="45.283634928195326" lon="8.803943289444902"><ele>105.0</ele><time>2026-05-03T15:21:31Z</time></trkpt><trkpt lat="45.28373211328463" lon="8.804195231233855"><ele>105.0</ele><time>2026-05-03T15:21:32Z</time></trkpt><trkpt lat="45.28382413269647" lon="8.804446815289726"><ele>105.0</ele><time>2026-05-03T15:21:33Z</time></trkpt><trkpt lat="45.283919369732686" lon="8.804698410692382"><ele>105.0</ele><time>2026-05-03T15:21:34Z</time></trkpt><trkpt lat="45.28401575021917" lon="8.804948341412935"><ele>105.0</ele><time>2026-05-03T15:21:35Z</time></trkpt><trkpt lat="45.28410897192594" lon="8.805194058644998"><ele>106.66666666666666</ele><time>2026-05-03T15:21:36Z</time></trkpt><trkpt lat="45.28421343274098" lon="8.805440381255389"><ele>108.33333333333333</ele><time>2026-05-03T15:21:37Z</time></trkpt><trkpt lat="45.284332877779704" lon="8.805673055684645"><ele>110.0</ele><time>2026-05-03T15:21:38Z</time></trkpt><trkpt lat="45.2844538845743" lon="8.805896812127246"><ele>110.66666666666666</ele><time>2026-05-03T15:21:39Z</time></trkpt><trkpt lat="45.28458137423366" lon="8.806117259888534"><ele>111.33333333333334</ele><time>2026-05-03T15:21:40Z</time></trkpt><trkpt lat="45.284718491635864" lon="8.8063389734837"><ele>112.0</ele><time>2026-05-03T15:21:41Z</time></trkpt><trkpt lat="45.284865301057465" lon="8.80655736163635"><ele>112.0</ele><time>2026-05-03T15:21:42Z</time></trkpt><trkpt lat="45.285026586572805" lon="8.806785579451974"><ele>112.0</ele><time>2026-05-03T15:21:43Z</time></trkpt><trkpt lat="45.28518811065143" lon="8.807028675630358"><ele>110.5</ele><time>2026-05-03T15:21:44Z</time></trkpt><trkpt lat="45.28535814835853" lon="8.807289362850339"><ele>109.0</ele><time>2026-05-03T15:21:45Z</time></trkpt><trkpt lat="45.28554842347675" lon="8.807570867054407"><ele>109.0</ele><time>2026-05-03T15:21:46Z</time></trkpt><trkpt lat="45.28575592108195" lon="8.80786552185316"><ele>109.0</ele><time>2026-05-03T15:21:47Z</time></trkpt><trkpt lat="45.28596477864627" lon="8.80819713354741"><ele>108.0</ele><time>2026-05-03T15:21:48Z</time></trkpt><trkpt lat="45.28619410419668" lon="8.808502499951043"><ele>107.0</ele><time>2026-05-03T15:21:49Z</time></trkpt><trkpt lat="45.28640465689113" lon="8.808811333555603"><ele>107.5</ele><time>2026-05-03T15:21:50Z</time></trkpt><trkpt lat="45.28660401131298" lon="8.809117725098213"><ele>108.0</ele><time>2026-05-03T15:21:51Z</time></trkpt><trkpt lat="45.286792121299754" lon="8.80939834708959"><ele>108.0</ele><time>2026-05-03T15:21:52Z</time></trkpt><trkpt lat="45.2869541089152" lon="8.809644471074918"><ele>108.0</ele><time>2026-05-03T15:21:53Z</time></trkpt><trkpt lat="45.287098752395124" lon="8.809854507226651"><ele>108.0</ele><time>2026-05-03T15:21:54Z</time></trkpt><trkpt lat="45.28721249379331" lon="8.810040507360707"><ele>108.25</ele><time>2026-05-03T15:21:55Z</time></trkpt><trkpt lat="45.2873124250771" lon="8.810200536501375"><ele>108.5</ele><time>2026-05-03T15:21:56Z</time></trkpt><trkpt lat="45.287364142309144" lon="8.810378522537123"><ele>108.75</ele><time>2026-05-03T15:21:57Z</time></trkpt><trkpt lat="45.287374264143345" lon="8.810559916309149"><ele>109.0</ele><time>2026-05-03T15:21:58Z</time></trkpt><trkpt lat="45.287409231395884" lon="8.810724099092633"><ele>109.0</ele><time>2026-05-03T15:21:59Z</time></trkpt><trkpt lat="45.28748825886813" lon="8.810847259135425"><ele>109.0</ele><time>2026-05-03T15:22:00Z</time></trkpt><trkpt lat="45.28761037537009" lon="8.810919223163674"><ele>109.0</ele><time>2026-05-03T15:22:01Z</time></trkpt><trkpt lat="45.2877673827606" lon="8.810967354119112"><ele>109.0</ele><time>2026-05-03T15:22:02Z</time></trkpt><trkpt lat="45.287923479955225" lon="8.811097485711482"><ele>108.0</ele><time>2026-05-03T15:22:03Z</time></trkpt><trkpt lat="45.28805287213362" lon="8.811294018613973"><ele>107.0</ele><time>2026-05-03T15:22:04Z</time></trkpt><trkpt lat="45.28817577151978" lon="8.811491608869328"><ele>106.0</ele><time>2026-05-03T15:22:05Z</time></trkpt><trkpt lat="45.288314694265964" lon="8.811688861734499"><ele>106.33333333333334</ele><time>2026-05-03T15:22:06Z</time></trkpt><trkpt lat="45.28845399612143" lon="8.811887585775226"><ele>106.66666666666666</ele><time>2026-05-03T15:22:07Z</time></trkpt><trkpt lat="45.2886011098775" lon="8.812097409274905"><ele>107.0</ele><time>2026-05-03T15:22:08Z</time></trkpt><trkpt lat="45.28874491420629" lon="8.812297744670603"><ele>107.0</ele><time>2026-05-03T15:22:09Z</time></trkpt><trkpt lat="45.28888078633002" lon="8.812509390115752"><ele>107.0</ele><time>2026-05-03T15:22:10Z</time></trkpt><trkpt lat="45.289031701232695" lon="8.812729782020106"><ele>107.0</ele><time>2026-05-03T15:22:11Z</time></trkpt><trkpt lat="45.28917787989145" lon="8.812956754490147"><ele>106.66666666666666</ele><time>2026-05-03T15:22:12Z</time></trkpt><trkpt lat="45.28933783142133" lon="8.813172117881887"><ele>106.33333333333334</ele><time>2026-05-03T15:22:13Z</time></trkpt><trkpt lat="45.289491432335566" lon="8.813392833673918"><ele>106.0</ele><time>2026-05-03T15:22:14Z</time></trkpt><trkpt lat="45.28964391791463" lon="8.813616465550668"><ele>106.66666666666667</ele><time>2026-05-03T15:22:15Z</time></trkpt><trkpt lat="45.28979071352758" lon="8.813847843532988"><ele>107.33333333333334</ele><time>2026-05-03T15:22:16Z</time></trkpt><trkpt lat="45.28994196638485" lon="8.814072633600704"><ele>108.0</ele><time>2026-05-03T15:22:17Z</time></trkpt><trkpt lat="45.29008633351846" lon="8.814301891648434"><ele>107.0</ele><time>2026-05-03T15:22:18Z</time></trkpt><trkpt lat="45.29023409330604" lon="8.814531002307037"><ele>106.0</ele><time>2026-05-03T15:22:19Z</time></trkpt><trkpt lat="45.29038227063534" lon="8.814746966770947"><ele>105.0</ele><time>2026-05-03T15:22:20Z</time></trkpt><trkpt lat="45.290516541654654" lon="8.81495618600611"><ele>105.0</ele><time>2026-05-03T15:22:21Z</time></trkpt><trkpt lat="45.29064777290526" lon="8.815152918721859"><ele>105.0</ele><time>2026-05-03T15:22:22Z</time></trkpt><trkpt lat="45.29078430095082" lon="8.815340844556756"><ele>105.0</ele><time>2026-05-03T15:22:23Z</time></trkpt><trkpt lat="45.29090099915585" lon="8.815519480680928"><ele>105.0</ele><time>2026-05-03T15:22:24Z</time></trkpt><trkpt lat="45.291016128004955" lon="8.815695786716525"><ele>105.0</ele><time>2026-05-03T15:22:25Z</time></trkpt><trkpt lat="45.291135578380256" lon="8.815863173269042"><ele>105.0</ele><time>2026-05-03T15:22:26Z</time></trkpt><trkpt lat="45.29124659979657" lon="8.816028890533392"><ele>104.66666666666666</ele><time>2026-05-03T15:22:27Z</time></trkpt><trkpt lat="45.291365599790396" lon="8.816201693155215"><ele>104.33333333333333</ele><time>2026-05-03T15:22:28Z</time></trkpt><trkpt lat="45.29148642790298" lon="8.81637612615617"><ele>104.0</ele><time>2026-05-03T15:22:29Z</time></trkpt><trkpt lat="45.291606237070454" lon="8.816554124001364"><ele>104.0</ele><time>2026-05-03T15:22:30Z</time></trkpt><trkpt lat="45.29173678844801" lon="8.816738699808546"><ele>104.0</ele><time>2026-05-03T15:22:30.999Z</time></trkpt><trkpt lat="45.29186028964923" lon="8.816924512790134"><ele>104.0</ele><time>2026-05-03T15:22:31.999Z</time></trkpt><trkpt lat="45.29198659203772" lon="8.817113241759012"><ele>103.66666666666666</ele><time>2026-05-03T15:22:32.999Z</time></trkpt><trkpt lat="45.29211526900462" lon="8.817306416478939"><ele>103.33333333333334</ele><time>2026-05-03T15:22:33.999Z</time></trkpt><trkpt lat="45.29224133354227" lon="8.817495259434939"><ele>103.0</ele><time>2026-05-03T15:22:34.999Z</time></trkpt><trkpt lat="45.292367536260244" lon="8.817688218217759"><ele>103.0</ele><time>2026-05-03T15:22:35.999Z</time></trkpt><trkpt lat="45.29249413233126" lon="8.817884243812768"><ele>103.0</ele><time>2026-05-03T15:22:36.999Z</time></trkpt><trkpt lat="45.29260548857818" lon="8.818097506171496"><ele>103.0</ele><time>2026-05-03T15:22:37.999Z</time></trkpt><trkpt lat="45.29273061087513" lon="8.818288379775959"><ele>103.0</ele><time>2026-05-03T15:22:38.999Z</time></trkpt><trkpt lat="45.292853118761855" lon="8.818477016035839"><ele>103.0</ele><time>2026-05-03T15:22:39.999Z</time></trkpt><trkpt lat="45.29297069923202" lon="8.818662007239256"><ele>103.0</ele><time>2026-05-03T15:22:40.999Z</time></trkpt><trkpt lat="45.29308322213715" lon="8.818854085698428"><ele>103.0</ele><time>2026-05-03T15:22:41.999Z</time></trkpt><trkpt lat="45.2931898503606" lon="8.819057608634992"><ele>103.0</ele><time>2026-05-03T15:22:42.999Z</time></trkpt><trkpt lat="45.29329036091994" lon="8.81927856724792"><ele>103.0</ele><time>2026-05-03T15:22:43.999Z</time></trkpt><trkpt lat="45.2934570045273" lon="8.819479903260541"><ele>103.0</ele><time>2026-05-03T15:22:44.999Z</time></trkpt><trkpt lat="45.293567390186645" lon="8.819755917819654"><ele>103.0</ele><time>2026-05-03T15:22:45.999Z</time></trkpt><trkpt lat="45.29366791217892" lon="8.820043441628972"><ele>103.0</ele><time>2026-05-03T15:22:46.999Z</time></trkpt><trkpt lat="45.29374269406631" lon="8.820353615725148"><ele>103.0</ele><time>2026-05-03T15:22:47.999Z</time></trkpt><trkpt lat="45.293714590141" lon="8.820692755933546"><ele>103.0</ele><time>2026-05-03T15:22:48.999Z</time></trkpt><trkpt lat="45.29376600330801" lon="8.820993824174822"><ele>103.0</ele><time>2026-05-03T15:22:49.999Z</time></trkpt><trkpt lat="45.29381389376986" lon="8.821284382218238"><ele>103.0</ele><time>2026-05-03T15:22:50.999Z</time></trkpt><trkpt lat="45.29385965862468" lon="8.821560920418412"><ele>103.0</ele><time>2026-05-03T15:22:51.999Z</time></trkpt><trkpt lat="45.29390406153187" lon="8.821829152498726"><ele>103.66666666666667</ele><time>2026-05-03T15:22:52.999Z</time></trkpt><trkpt lat="45.29394718609397" lon="8.822090666431063"><ele>104.33333333333334</ele><time>2026-05-03T15:22:53.999Z</time></trkpt><trkpt lat="45.293988670896724" lon="8.822345276647937"><ele>105.0</ele><time>2026-05-03T15:22:54.999Z</time></trkpt><trkpt lat="45.2940297879438" lon="8.822597629791794"><ele>105.0</ele><time>2026-05-03T15:22:55.999Z</time></trkpt><trkpt lat="45.29407056762405" lon="8.822847912359242"><ele>105.0</ele><time>2026-05-03T15:22:56.999Z</time></trkpt><trkpt lat="45.29411144746089" lon="8.823098809634985"><ele>105.0</ele><time>2026-05-03T15:22:57.999Z</time></trkpt><trkpt lat="45.29415205623019" lon="8.823348043251038"><ele>104.66666666666666</ele><time>2026-05-03T15:22:58.999Z</time></trkpt><trkpt lat="45.29419179670765" lon="8.823591947788449"><ele>104.33333333333333</ele><time>2026-05-03T15:22:59.999Z</time></trkpt><trkpt lat="45.294231715302956" lon="8.82383694549933"><ele>104.0</ele><time>2026-05-03T15:23:00.999Z</time></trkpt><trkpt lat="45.29427212176227" lon="8.824084937451813"><ele>104.0</ele><time>2026-05-03T15:23:01.999Z</time></trkpt><trkpt lat="45.29431303159609" lon="8.824336018825555"><ele>104.0</ele><time>2026-05-03T15:23:02.999Z</time></trkpt><trkpt lat="45.2943571753052" lon="8.824606947894724"><ele>104.0</ele><time>2026-05-03T15:23:03.999Z</time></trkpt><trkpt lat="45.29440493826561" lon="8.824900089867162"><ele>105.5</ele><time>2026-05-03T15:23:04.999Z</time></trkpt><trkpt lat="45.29445608522457" lon="8.825214000865152"><ele>107.0</ele><time>2026-05-03T15:23:05.999Z</time></trkpt><trkpt lat="45.29451066291127" lon="8.82554896771135"><ele>107.0</ele><time>2026-05-03T15:23:06.999Z</time></trkpt><trkpt lat="45.29456688557249" lon="8.825894030476405"><ele>107.0</ele><time>2026-05-03T15:23:07.999Z</time></trkpt><trkpt lat="45.29468206237265" lon="8.826221430946912"><ele>107.0</ele><time>2026-05-03T15:23:08.999Z</time></trkpt><trkpt lat="45.29474996741367" lon="8.826574992147519"><ele>107.0</ele><time>2026-05-03T15:23:09.999Z</time></trkpt><trkpt lat="45.294813016444714" lon="8.826965613036826"><ele>106.0</ele><time>2026-05-03T15:23:10.999Z</time></trkpt><trkpt lat="45.29484068328294" lon="8.827329868524176"><ele>105.0</ele><time>2026-05-03T15:23:11.999Z</time></trkpt><trkpt lat="45.29489172752986" lon="8.827652609446998"><ele>105.0</ele><time>2026-05-03T15:23:13Z</time></trkpt><trkpt lat="45.2949378710912" lon="8.827982617991301"><ele>105.0</ele><time>2026-05-03T15:23:14Z</time></trkpt><trkpt lat="45.29498391107702" lon="8.82825794241307"><ele>105.0</ele><time>2026-05-03T15:23:15Z</time></trkpt><trkpt lat="45.29502683204149" lon="8.828507718763833"><ele>104.66666666666666</ele><time>2026-05-03T15:23:16Z</time></trkpt><trkpt lat="45.2950604280819" lon="8.828758747264823"><ele>104.33333333333333</ele><time>2026-05-03T15:23:17Z</time></trkpt><trkpt lat="45.29509003312311" lon="8.828986050615182"><ele>104.0</ele><time>2026-05-03T15:23:18Z</time></trkpt><trkpt lat="45.295129470311174" lon="8.829190023223884"><ele>103.80000000000001</ele><time>2026-05-03T15:23:19Z</time></trkpt><trkpt lat="45.295159405527414" lon="8.82934706014596"><ele>103.60000000000001</ele><time>2026-05-03T15:23:20Z</time></trkpt><trkpt lat="45.29518405482918" lon="8.82949884368597"><ele>103.4</ele><time>2026-05-03T15:23:21Z</time></trkpt><trkpt lat="45.295152316814296" lon="8.829653408692709"><ele>103.2</ele><time>2026-05-03T15:23:22Z</time></trkpt><trkpt lat="45.295088850618605" lon="8.829775249432524"><ele>103.0</ele><time>2026-05-03T15:23:23Z</time></trkpt><trkpt lat="45.29502462230344" lon="8.829883259475766"><ele>103.00000000000001</ele><time>2026-05-03T15:23:24Z</time></trkpt><trkpt lat="45.294999720542584" lon="8.830006580702596"><ele>103.0</ele><time>2026-05-03T15:23:25Z</time></trkpt><trkpt lat="45.295027172627016" lon="8.830120234419626"><ele>103.0</ele><time>2026-05-03T15:23:26Z</time></trkpt><trkpt lat="45.29507673509875" lon="8.830222957956801"><ele>103.0</ele><time>2026-05-03T15:23:27Z</time></trkpt><trkpt lat="45.29514098311566" lon="8.830304830427934"><ele>103.00000000000001</ele><time>2026-05-03T15:23:28Z</time></trkpt><trkpt lat="45.29521266663757" lon="8.830378889591731"><ele>103.0</ele><time>2026-05-03T15:23:29Z</time></trkpt><trkpt lat="45.29529123892088" lon="8.830456832390293"><ele>103.0</ele><time>2026-05-03T15:23:30Z</time></trkpt><trkpt lat="45.29535346771134" lon="8.830563250147566"><ele>103.0</ele><time>2026-05-03T15:23:31Z</time></trkpt><trkpt lat="45.295386406701446" lon="8.830701075564164"><ele>103.0</ele><time>2026-05-03T15:23:32Z</time></trkpt><trkpt lat="45.29541906921519" lon="8.83086490098685"><ele>103.0</ele><time>2026-05-03T15:23:33Z</time></trkpt><trkpt lat="45.295436702851184" lon="8.831032884061607"><ele>103.0</ele><time>2026-05-03T15:23:34Z</time></trkpt><trkpt lat="45.295464937807076" lon="8.831212492902853"><ele>103.25</ele><time>2026-05-03T15:23:35Z</time></trkpt><trkpt lat="45.2955014121814" lon="8.831379517421166"><ele>103.5</ele><time>2026-05-03T15:23:36Z</time></trkpt><trkpt lat="45.29553667461369" lon="8.831571771968765"><ele>103.75</ele><time>2026-05-03T15:23:37Z</time></trkpt><trkpt lat="45.29557544205119" lon="8.831784261507408"><ele>104.0</ele><time>2026-05-03T15:23:38Z</time></trkpt><trkpt lat="45.29562233357681" lon="8.832015620058788"><ele>104.33333333333333</ele><time>2026-05-03T15:23:39Z</time></trkpt><trkpt lat="45.29566218661276" lon="8.832267847322669"><ele>104.66666666666666</ele><time>2026-05-03T15:23:40Z</time></trkpt><trkpt lat="45.295702244955756" lon="8.832533902752685"><ele>105.0</ele><time>2026-05-03T15:23:41Z</time></trkpt><trkpt lat="45.29573584509582" lon="8.832802576384461"><ele>105.0</ele><time>2026-05-03T15:23:42Z</time></trkpt><trkpt lat="45.2957693333726" lon="8.833084367516374"><ele>105.0</ele><time>2026-05-03T15:23:43Z</time></trkpt><trkpt lat="45.29581067358555" lon="8.83336055886445"><ele>105.0</ele><time>2026-05-03T15:23:44Z</time></trkpt><trkpt lat="45.29586096033635" lon="8.833637566810102"><ele>105.33333333333334</ele><time>2026-05-03T15:23:45Z</time></trkpt><trkpt lat="45.295907654987815" lon="8.833910537959012"><ele>105.66666666666667</ele><time>2026-05-03T15:23:46Z</time></trkpt><trkpt lat="45.295951164034555" lon="8.834199436833273"><ele>106.0</ele><time>2026-05-03T15:23:47Z</time></trkpt><trkpt lat="45.295999032038935" lon="8.834481085720277"><ele>106.33333333333334</ele><time>2026-05-03T15:23:48Z</time></trkpt><trkpt lat="45.29605481317628" lon="8.834754880692962"><ele>106.66666666666666</ele><time>2026-05-03T15:23:49Z</time></trkpt><trkpt lat="45.296093445507594" lon="8.835034401380149"><ele>107.0</ele><time>2026-05-03T15:23:50Z</time></trkpt><trkpt lat="45.2961468716999" lon="8.835319165243936"><ele>107.0</ele><time>2026-05-03T15:23:51Z</time></trkpt><trkpt lat="45.29618990412548" lon="8.835601529158897"><ele>107.0</ele><time>2026-05-03T15:23:52Z</time></trkpt><trkpt lat="45.29624415145905" lon="8.835887933210646"><ele>107.0</ele><time>2026-05-03T15:23:53Z</time></trkpt><trkpt lat="45.29628135825972" lon="8.836193987218488"><ele>107.33333333333333</ele><time>2026-05-03T15:23:54Z</time></trkpt><trkpt lat="45.2963358485648" lon="8.8364853948962"><ele>107.66666666666666</ele><time>2026-05-03T15:23:55Z</time></trkpt><trkpt lat="45.296381190732774" lon="8.836779590831698"><ele>108.0</ele><time>2026-05-03T15:23:56Z</time></trkpt><trkpt lat="45.296429964962435" lon="8.837075905489195"><ele>108.66666666666666</ele><time>2026-05-03T15:23:57Z</time></trkpt><trkpt lat="45.2964747587223" lon="8.837367239640372"><ele>109.33333333333333</ele><time>2026-05-03T15:23:58Z</time></trkpt><trkpt lat="45.296516040458606" lon="8.837664404427528"><ele>110.0</ele><time>2026-05-03T15:23:59Z</time></trkpt><trkpt lat="45.29655256994344" lon="8.837960227714879"><ele>110.0</ele><time>2026-05-03T15:24:00Z</time></trkpt><trkpt lat="45.29661152144707" lon="8.838260902658824"><ele>110.0</ele><time>2026-05-03T15:24:01Z</time></trkpt><trkpt lat="45.296659170947315" lon="8.83855834093751"><ele>110.0</ele><time>2026-05-03T15:24:02Z</time></trkpt><trkpt lat="45.296707127688414" lon="8.838849611263422"><ele>110.0</ele><time>2026-05-03T15:24:03Z</time></trkpt><trkpt lat="45.29676092593729" lon="8.839141346985953"><ele>110.0</ele><time>2026-05-03T15:24:04Z</time></trkpt><trkpt lat="45.29681956312258" lon="8.839427530954021"><ele>110.0</ele><time>2026-05-03T15:24:05Z</time></trkpt><trkpt lat="45.296870988605164" lon="8.839713470378847"><ele>110.0</ele><time>2026-05-03T15:24:06Z</time></trkpt><trkpt lat="45.29691879914691" lon="8.839996125820672"><ele>110.0</ele><time>2026-05-03T15:24:07Z</time></trkpt><trkpt lat="45.29697476419785" lon="8.840277025045992"><ele>110.0</ele><time>2026-05-03T15:24:08Z</time></trkpt><trkpt lat="45.297017882295144" lon="8.840546669678611"><ele>110.0</ele><time>2026-05-03T15:24:09Z</time></trkpt><trkpt lat="45.29706933044587" lon="8.840815817099276"><ele>110.0</ele><time>2026-05-03T15:24:10Z</time></trkpt><trkpt lat="45.29710583312699" lon="8.841062154882732"><ele>110.0</ele><time>2026-05-03T15:24:11Z</time></trkpt><trkpt lat="45.29714459171462" lon="8.841293101383172"><ele>110.0</ele><time>2026-05-03T15:24:12Z</time></trkpt><trkpt lat="45.29718962972955" lon="8.841536746033066"><ele>110.0</ele><time>2026-05-03T15:24:13Z</time></trkpt><trkpt lat="45.29723498198396" lon="8.841803819103825"><ele>110.0</ele><time>2026-05-03T15:24:14Z</time></trkpt><trkpt lat="45.2972686735783" lon="8.842074930206758"><ele>109.66666666666666</ele><time>2026-05-03T15:24:15Z</time></trkpt><trkpt lat="45.297310320210876" lon="8.842347797234918"><ele>109.33333333333334</ele><time>2026-05-03T15:24:16Z</time></trkpt><trkpt lat="45.29734648950211" lon="8.842632267024623"><ele>109.0</ele><time>2026-05-03T15:24:17Z</time></trkpt><trkpt lat="45.29738649180571" lon="8.842898717831748"><ele>109.0</ele><time>2026-05-03T15:24:18Z</time></trkpt><trkpt lat="45.2974315960655" lon="8.84316432074759"><ele>109.0</ele><time>2026-05-03T15:24:19Z</time></trkpt><trkpt lat="45.29747769334996" lon="8.84344465613187"><ele>109.0</ele><time>2026-05-03T15:24:20Z</time></trkpt><trkpt lat="45.29752893555257" lon="8.84372636478105"><ele>109.0</ele><time>2026-05-03T15:24:21Z</time></trkpt><trkpt lat="45.297579024086524" lon="8.844014637915139"><ele>109.0</ele><time>2026-05-03T15:24:22Z</time></trkpt><trkpt lat="45.29763866913889" lon="8.844320401335777"><ele>109.0</ele><time>2026-05-03T15:24:23Z</time></trkpt><trkpt lat="45.29769866774256" lon="8.844636239037325"><ele>109.0</ele><time>2026-05-03T15:24:24Z</time></trkpt><trkpt lat="45.297753635338445" lon="8.844958335343902"><ele>109.0</ele><time>2026-05-03T15:24:25Z</time></trkpt><trkpt lat="45.29779398832486" lon="8.845283940227164"><ele>109.0</ele><time>2026-05-03T15:24:26Z</time></trkpt><trkpt lat="45.297838168172056" lon="8.845599647041219"><ele>109.0</ele><time>2026-05-03T15:24:27Z</time></trkpt><trkpt lat="45.29788911327301" lon="8.845915247959365"><ele>109.0</ele><time>2026-05-03T15:24:28Z</time></trkpt><trkpt lat="45.29794970874527" lon="8.846218474366086"><ele>109.0</ele><time>2026-05-03T15:24:29Z</time></trkpt><trkpt lat="45.29799720758235" lon="8.846535046472264"><ele>109.0</ele><time>2026-05-03T15:24:30Z</time></trkpt><trkpt lat="45.298044579902694" lon="8.846825575434718"><ele>109.33333333333334</ele><time>2026-05-03T15:24:31Z</time></trkpt><trkpt lat="45.29809711441036" lon="8.847105122450783"><ele>109.66666666666666</ele><time>2026-05-03T15:24:32Z</time></trkpt><trkpt lat="45.298135185464815" lon="8.847374564196645"><ele>110.0</ele><time>2026-05-03T15:24:33Z</time></trkpt><trkpt lat="45.29817570737807" lon="8.847643062528954"><ele>110.0</ele><time>2026-05-03T15:24:34Z</time></trkpt><trkpt lat="45.29821171383373" lon="8.847871151753091"><ele>110.0</ele><time>2026-05-03T15:24:35Z</time></trkpt><trkpt lat="45.29824399427264" lon="8.848074101046594"><ele>110.0</ele><time>2026-05-03T15:24:36Z</time></trkpt><trkpt lat="45.298285493523636" lon="8.848266050906087"><ele>109.99999999999999</ele><time>2026-05-03T15:24:37Z</time></trkpt><trkpt lat="45.298315698826386" lon="8.848416966229177"><ele>110.0</ele><time>2026-05-03T15:24:37.999Z</time></trkpt><trkpt lat="45.2983511758185" lon="8.848548092981503"><ele>110.0</ele><time>2026-05-03T15:24:38.999Z</time></trkpt><trkpt lat="45.2983833115951" lon="8.84865853785707"><ele>110.0</ele><time>2026-05-03T15:24:39.999Z</time></trkpt><trkpt lat="45.2984066098511" lon="8.848759002321549"><ele>109.99999999999999</ele><time>2026-05-03T15:24:40.999Z</time></trkpt><trkpt lat="45.29842666665892" lon="8.848848404503956"><ele>110.0</ele><time>2026-05-03T15:24:41.999Z</time></trkpt><trkpt lat="45.29843422987416" lon="8.848952355325732"><ele>109.8</ele><time>2026-05-03T15:24:42.999Z</time></trkpt><trkpt lat="45.29841181098633" lon="8.849059147536918"><ele>109.6</ele><time>2026-05-03T15:24:43.999Z</time></trkpt><trkpt lat="45.29835487848756" lon="8.849179459545834"><ele>109.4</ele><time>2026-05-03T15:24:44.999Z</time></trkpt><trkpt lat="45.29834581963346" lon="8.84929559367251"><ele>109.2</ele><time>2026-05-03T15:24:45.999Z</time></trkpt><trkpt lat="45.29836426241575" lon="8.849418793579325"><ele>109.0</ele><time>2026-05-03T15:24:46.999Z</time></trkpt><trkpt lat="45.29840549236906" lon="8.849553403595394"><ele>109.0</ele><time>2026-05-03T15:24:47.999Z</time></trkpt><trkpt lat="45.29847434491931" lon="8.84966125743569"><ele>109.0</ele><time>2026-05-03T15:24:48.999Z</time></trkpt><trkpt lat="45.29853826525121" lon="8.849765004991792"><ele>109.0</ele><time>2026-05-03T15:24:49.999Z</time></trkpt><trkpt lat="45.29857969396741" lon="8.849895858326413"><ele>109.0</ele><time>2026-05-03T15:24:50.999Z</time></trkpt><trkpt lat="45.29863808713688" lon="8.850049621426098"><ele>109.0</ele><time>2026-05-03T15:24:51.999Z</time></trkpt><trkpt lat="45.29867592656927" lon="8.850219566537046"><ele>109.0</ele><time>2026-05-03T15:24:52.999Z</time></trkpt><trkpt lat="45.29870487481387" lon="8.850396630954346"><ele>109.0</ele><time>2026-05-03T15:24:53.999Z</time></trkpt><trkpt lat="45.29872930391268" lon="8.850568191034247"><ele>109.0</ele><time>2026-05-03T15:24:54.999Z</time></trkpt><trkpt lat="45.298739455117094" lon="8.850733883405008"><ele>109.0</ele><time>2026-05-03T15:24:55.999Z</time></trkpt><trkpt lat="45.29874935863195" lon="8.850894077233292"><ele>109.0</ele><time>2026-05-03T15:24:56.999Z</time></trkpt><trkpt lat="45.298776763450775" lon="8.851048696519976"><ele>109.0</ele><time>2026-05-03T15:24:57.999Z</time></trkpt><trkpt lat="45.29880243363814" lon="8.851208631628324"><ele>109.0</ele><time>2026-05-03T15:24:58.999Z</time></trkpt><trkpt lat="45.2988320428486" lon="8.851359641288484"><ele>109.0</ele><time>2026-05-03T15:24:59.999Z</time></trkpt><trkpt lat="45.29885776882043" lon="8.851520099668635"><ele>109.0</ele><time>2026-05-03T15:25:00.999Z</time></trkpt><trkpt lat="45.29888803941327" lon="8.851685516339874"><ele>109.0</ele><time>2026-05-03T15:25:01.999Z</time></trkpt><trkpt lat="45.29892096265602" lon="8.851852404928257"><ele>109.0</ele><time>2026-05-03T15:25:02.999Z</time></trkpt><trkpt lat="45.29896220361164" lon="8.852019337265475"><ele>109.0</ele><time>2026-05-03T15:25:03.999Z</time></trkpt><trkpt lat="45.29900102764278" lon="8.852197653326508"><ele>109.25</ele><time>2026-05-03T15:25:04.999Z</time></trkpt><trkpt lat="45.29904251392815" lon="8.852378227667176"><ele>109.5</ele><time>2026-05-03T15:25:05.999Z</time></trkpt><trkpt lat="45.29908590415824" lon="8.85256269576768"><ele>109.75</ele><time>2026-05-03T15:25:06.999Z</time></trkpt><trkpt lat="45.29913581204565" lon="8.85275449446012"><ele>110.0</ele><time>2026-05-03T15:25:07.999Z</time></trkpt><trkpt lat="45.29918308737162" lon="8.85295139408647"><ele>110.0</ele><time>2026-05-03T15:25:08.999Z</time></trkpt><trkpt lat="45.29923274522202" lon="8.853152935247703"><ele>110.0</ele><time>2026-05-03T15:25:09.999Z</time></trkpt><trkpt lat="45.29928189918523" lon="8.853351012768696"><ele>110.0</ele><time>2026-05-03T15:25:10.999Z</time></trkpt><trkpt lat="45.29933693328806" lon="8.853551712281376"><ele>110.0</ele><time>2026-05-03T15:25:11.999Z</time></trkpt><trkpt lat="45.29938689570822" lon="8.853750677166175"><ele>109.33333333333333</ele><time>2026-05-03T15:25:12.999Z</time></trkpt><trkpt lat="45.29944320895601" lon="8.853941683424742"><ele>108.66666666666666</ele><time>2026-05-03T15:25:13.999Z</time></trkpt><trkpt lat="45.29948330267169" lon="8.854160038095875"><ele>108.0</ele><time>2026-05-03T15:25:14.999Z</time></trkpt><trkpt lat="45.29952892572657" lon="8.85436311556552"><ele>108.0</ele><time>2026-05-03T15:25:15.999Z</time></trkpt><trkpt lat="45.29956639574653" lon="8.854563325209494"><ele>108.0</ele><time>2026-05-03T15:25:16.999Z</time></trkpt><trkpt lat="45.299607727830804" lon="8.85475730055058"><ele>108.0</ele><time>2026-05-03T15:25:17.999Z</time></trkpt><trkpt lat="45.29964491043356" lon="8.854948589350244"><ele>108.0</ele><time>2026-05-03T15:25:19Z</time></trkpt><trkpt lat="45.29969346578083" lon="8.855143210339207"><ele>107.75</ele><time>2026-05-03T15:25:20Z</time></trkpt><trkpt lat="45.29973547047499" lon="8.8553224661142"><ele>107.5</ele><time>2026-05-03T15:25:21Z</time></trkpt><trkpt lat="45.299785800198435" lon="8.855515341699265"><ele>107.25</ele><time>2026-05-03T15:25:22Z</time></trkpt><trkpt lat="45.29982638462357" lon="8.855724479444014"><ele>107.0</ele><time>2026-05-03T15:25:23Z</time></trkpt><trkpt lat="45.29988254371946" lon="8.855925630046535"><ele>106.5</ele><time>2026-05-03T15:25:24Z</time></trkpt><trkpt lat="45.29993288991456" lon="8.856131665648896"><ele>106.0</ele><time>2026-05-03T15:25:25Z</time></trkpt><trkpt lat="45.299971926652866" lon="8.856326554230083"><ele>105.5</ele><time>2026-05-03T15:25:26Z</time></trkpt><trkpt lat="45.30001806089212" lon="8.856518563396753"><ele>105.0</ele><time>2026-05-03T15:25:27Z</time></trkpt><trkpt lat="45.30007460814131" lon="8.856702641979801"><ele>103.75</ele><time>2026-05-03T15:25:28Z</time></trkpt><trkpt lat="45.30011962769292" lon="8.856888278584757"><ele>102.5</ele><time>2026-05-03T15:25:29Z</time></trkpt><trkpt lat="45.300167547864206" lon="8.857063965450715"><ele>101.25</ele><time>2026-05-03T15:25:30Z</time></trkpt><trkpt lat="45.30021813457011" lon="8.857230542672447"><ele>100.0</ele><time>2026-05-03T15:25:31Z</time></trkpt><trkpt lat="45.30023808304199" lon="8.85738653486686"><ele>100.0</ele><time>2026-05-03T15:25:32Z</time></trkpt><trkpt lat="45.300272467735084" lon="8.85754727533278"><ele>100.0</ele><time>2026-05-03T15:25:33Z</time></trkpt><trkpt lat="45.300305548925444" lon="8.857702826313568"><ele>100.0</ele><time>2026-05-03T15:25:34Z</time></trkpt><trkpt lat="45.30033968123247" lon="8.857850470874427"><ele>100.0</ele><time>2026-05-03T15:25:35Z</time></trkpt><trkpt lat="45.30037481322736" lon="8.857985348028482"><ele>100.0</ele><time>2026-05-03T15:25:36Z</time></trkpt><trkpt lat="45.30039715944213" lon="8.858092015169426"><ele>100.00000000000001</ele><time>2026-05-03T15:25:37Z</time></trkpt><trkpt lat="45.300416140008345" lon="8.858181936171384"><ele>100.0</ele><time>2026-05-03T15:25:38Z</time></trkpt><trkpt lat="45.30045081261838" lon="8.858354627665127"><ele>100.0</ele><time>2026-05-03T15:25:40Z</time></trkpt><trkpt lat="45.30046747913216" lon="8.8584515652307"><ele>100.0</ele><time>2026-05-03T15:25:42Z</time></trkpt><trkpt lat="45.30048129033737" lon="8.85855293932566"><ele>100.00000000000001</ele><time>2026-05-03T15:25:45Z</time></trkpt><trkpt lat="45.3005078170598" lon="8.858658301427958"><ele>100.0</ele><time>2026-05-03T15:25:47Z</time></trkpt><trkpt lat="45.30053782940866" lon="8.858815491616769"><ele>100.16666666666667</ele><time>2026-05-03T15:25:49Z</time></trkpt><trkpt lat="45.300526070540094" lon="8.858925805375806"><ele>100.33333333333334</ele><time>2026-05-03T15:25:50Z</time></trkpt><trkpt lat="45.30049287999576" lon="8.85903239625197"><ele>100.5</ele><time>2026-05-03T15:25:51Z</time></trkpt><trkpt lat="45.30046267685955" lon="8.859134883283328"><ele>100.66666666666666</ele><time>2026-05-03T15:25:52Z</time></trkpt><trkpt lat="45.300450659858" lon="8.859233408670727"><ele>100.83333333333333</ele><time>2026-05-03T15:25:53Z</time></trkpt><trkpt lat="45.300458025691434" lon="8.859336175440967"><ele>101.0</ele><time>2026-05-03T15:25:54Z</time></trkpt><trkpt lat="45.300488345903" lon="8.859435898329629"><ele>100.6</ele><time>2026-05-03T15:25:55Z</time></trkpt><trkpt lat="45.300539533765374" lon="8.859526169053485"><ele>100.19999999999999</ele><time>2026-05-03T15:25:56Z</time></trkpt><trkpt lat="45.30061455339891" lon="8.85959835754251"><ele>99.80000000000001</ele><time>2026-05-03T15:25:57Z</time></trkpt><trkpt lat="45.300696138201374" lon="8.85970147816506"><ele>99.4</ele><time>2026-05-03T15:25:58Z</time></trkpt><trkpt lat="45.300778468778184" lon="8.859826060919318"><ele>99.0</ele><time>2026-05-03T15:25:59Z</time></trkpt><trkpt lat="45.30082907609285" lon="8.859984497468783"><ele>99.25</ele><time>2026-05-03T15:26:00Z</time></trkpt><trkpt lat="45.300866971876594" lon="8.860155309801591"><ele>99.5</ele><time>2026-05-03T15:26:01Z</time></trkpt><trkpt lat="45.300918320403476" lon="8.860353206125497"><ele>99.75</ele><time>2026-05-03T15:26:02Z</time></trkpt><trkpt lat="45.30096712992205" lon="8.860565258942891"><ele>100.0</ele><time>2026-05-03T15:26:03Z</time></trkpt><trkpt lat="45.3010174142145" lon="8.860776776323387"><ele>99.33333333333334</ele><time>2026-05-03T15:26:04Z</time></trkpt><trkpt lat="45.30106362384691" lon="8.860983235453944"><ele>98.66666666666666</ele><time>2026-05-03T15:26:05Z</time></trkpt><trkpt lat="45.30111266219906" lon="8.861200454009408"><ele>98.0</ele><time>2026-05-03T15:26:06Z</time></trkpt><trkpt lat="45.301166727045484" lon="8.861423130368287"><ele>98.0</ele><time>2026-05-03T15:26:07Z</time></trkpt><trkpt lat="45.30121909098108" lon="8.861645489575967"><ele>98.0</ele><time>2026-05-03T15:26:08Z</time></trkpt><trkpt lat="45.30127162364045" lon="8.861872067436813"><ele>98.0</ele><time>2026-05-03T15:26:09Z</time></trkpt><trkpt lat="45.30132782622476" lon="8.862094306241277"><ele>98.33333333333333</ele><time>2026-05-03T15:26:10Z</time></trkpt><trkpt lat="45.30138903245823" lon="8.862314094250253"><ele>98.66666666666666</ele><time>2026-05-03T15:26:11Z</time></trkpt><trkpt lat="45.30144469560731" lon="8.862527532654902"><ele>99.0</ele><time>2026-05-03T15:26:12Z</time></trkpt><trkpt lat="45.301496521887245" lon="8.862729423289325"><ele>99.5</ele><time>2026-05-03T15:26:13Z</time></trkpt><trkpt lat="45.30154574901181" lon="8.862927893332479"><ele>100.0</ele><time>2026-05-03T15:26:14Z</time></trkpt><trkpt lat="45.30159005555176" lon="8.863121359023433"><ele>100.5</ele><time>2026-05-03T15:26:15Z</time></trkpt><trkpt lat="45.30163740990525" lon="8.863307248231806"><ele>101.0</ele><time>2026-05-03T15:26:16Z</time></trkpt><trkpt lat="45.30168351575713" lon="8.863520492134736"><ele>101.0</ele><time>2026-05-03T15:26:17Z</time></trkpt><trkpt lat="45.30173720103437" lon="8.863741573987992"><ele>101.0</ele><time>2026-05-03T15:26:18Z</time></trkpt><trkpt lat="45.30178429262434" lon="8.863956536542435"><ele>101.0</ele><time>2026-05-03T15:26:19Z</time></trkpt><trkpt lat="45.301839291266894" lon="8.864179425956229"><ele>101.0</ele><time>2026-05-03T15:26:20Z</time></trkpt><trkpt lat="45.301895508697626" lon="8.86441138983535"><ele>101.0</ele><time>2026-05-03T15:26:21Z</time></trkpt><trkpt lat="45.30197030000514" lon="8.864648776084152"><ele>101.0</ele><time>2026-05-03T15:26:22Z</time></trkpt><trkpt lat="45.30202815984604" lon="8.86488795987198"><ele>101.0</ele><time>2026-05-03T15:26:23Z</time></trkpt><trkpt lat="45.30208363920465" lon="8.86512550548604"><ele>101.0</ele><time>2026-05-03T15:26:24Z</time></trkpt><trkpt lat="45.30215120014009" lon="8.865368961154296"><ele>101.0</ele><time>2026-05-03T15:26:25Z</time></trkpt><trkpt lat="45.30219604640471" lon="8.865600397832743"><ele>100.66666666666666</ele><time>2026-05-03T15:26:26Z</time></trkpt><trkpt lat="45.3022545197347" lon="8.865828607019216"><ele>100.33333333333334</ele><time>2026-05-03T15:26:27Z</time></trkpt><trkpt lat="45.302308043269996" lon="8.866044377993594"><ele>100.0</ele><time>2026-05-03T15:26:28Z</time></trkpt><trkpt lat="45.30235419458607" lon="8.86626391801158"><ele>100.66666666666667</ele><time>2026-05-03T15:26:29Z</time></trkpt><trkpt lat="45.302408225893984" lon="8.866483122711761"><ele>101.33333333333334</ele><time>2026-05-03T15:26:30Z</time></trkpt><trkpt lat="45.30246673255503" lon="8.866710162230037"><ele>102.0</ele><time>2026-05-03T15:26:31Z</time></trkpt><trkpt lat="45.30252908489646" lon="8.866941088745047"><ele>102.33333333333334</ele><time>2026-05-03T15:26:32Z</time></trkpt><trkpt lat="45.302596721166246" lon="8.867176899696451"><ele>102.66666666666667</ele><time>2026-05-03T15:26:33Z</time></trkpt><trkpt lat="45.30264405482948" lon="8.8674183415597"><ele>103.0</ele><time>2026-05-03T15:26:34Z</time></trkpt><trkpt lat="45.30269674962032" lon="8.867651383685143"><ele>102.0</ele><time>2026-05-03T15:26:35Z</time></trkpt><trkpt lat="45.30275629630107" lon="8.867873280535287"><ele>101.0</ele><time>2026-05-03T15:26:36Z</time></trkpt><trkpt lat="45.30282900211064" lon="8.86809801391467"><ele>100.0</ele><time>2026-05-03T15:26:36.999Z</time></trkpt><trkpt lat="45.30288861715482" lon="8.868330806400566"><ele>99.33333333333334</ele><time>2026-05-03T15:26:37.999Z</time></trkpt><trkpt lat="45.30295499724618" lon="8.868568355213867"><ele>98.66666666666666</ele><time>2026-05-03T15:26:38.999Z</time></trkpt><trkpt lat="45.30300392778157" lon="8.86879605234542"><ele>98.0</ele><time>2026-05-03T15:26:39.999Z</time></trkpt><trkpt lat="45.30305525650733" lon="8.869013681258906"><ele>99.0</ele><time>2026-05-03T15:26:40.999Z</time></trkpt><trkpt lat="45.303098515695915" lon="8.86922380190844"><ele>100.0</ele><time>2026-05-03T15:26:41.999Z</time></trkpt><trkpt lat="45.30313090160079" lon="8.869429007659308"><ele>101.0</ele><time>2026-05-03T15:26:42.999Z</time></trkpt><trkpt lat="45.30318555457451" lon="8.869641600395608"><ele>101.0</ele><time>2026-05-03T15:26:43.999Z</time></trkpt><trkpt lat="45.303235525565746" lon="8.86986352879264"><ele>101.0</ele><time>2026-05-03T15:26:44.999Z</time></trkpt><trkpt lat="45.30328041228461" lon="8.870078521814476"><ele>101.0</ele><time>2026-05-03T15:26:45.999Z</time></trkpt><trkpt lat="45.30332572841862" lon="8.870282876797377"><ele>101.25</ele><time>2026-05-03T15:26:46.999Z</time></trkpt><trkpt lat="45.30337515559154" lon="8.87047573541546"><ele>101.5</ele><time>2026-05-03T15:26:47.999Z</time></trkpt><trkpt lat="45.30342636029394" lon="8.870665453940171"><ele>101.75</ele><time>2026-05-03T15:26:48.999Z</time></trkpt><trkpt lat="45.303456189456725" lon="8.870839035400197"><ele>102.0</ele><time>2026-05-03T15:26:49.999Z</time></trkpt><trkpt lat="45.30348627957407" lon="8.870980070765983"><ele>102.0</ele><time>2026-05-03T15:26:50.999Z</time></trkpt><trkpt lat="45.303518073212196" lon="8.871115212986533"><ele>102.0</ele><time>2026-05-03T15:26:51.999Z</time></trkpt><trkpt lat="45.3035437441372" lon="8.871231035991029"><ele>102.0</ele><time>2026-05-03T15:26:52.999Z</time></trkpt><trkpt lat="45.30356551693128" lon="8.871317374874678"><ele>102.0</ele><time>2026-05-03T15:26:53.999Z</time></trkpt><trkpt lat="45.30360411876402" lon="8.871475392311371"><ele>102.0</ele><time>2026-05-03T15:26:55.999Z</time></trkpt><trkpt lat="45.30364523107592" lon="8.871636308593157"><ele>101.66666666666667</ele><time>2026-05-03T15:26:57.999Z</time></trkpt><trkpt lat="45.30363567527987" lon="8.87179510832115"><ele>101.33333333333334</ele><time>2026-05-03T15:26:59.999Z</time></trkpt><trkpt lat="45.30361655257724" lon="8.87189476959957"><ele>101.0</ele><time>2026-05-03T15:27:00.999Z</time></trkpt><trkpt lat="45.303579241638865" lon="8.87199731512327"><ele>100.66666666666667</ele><time>2026-05-03T15:27:01.999Z</time></trkpt><trkpt lat="45.303567726229254" lon="8.872106871663087"><ele>100.33333333333334</ele><time>2026-05-03T15:27:02.999Z</time></trkpt><trkpt lat="45.30360211796824" lon="8.8722210678311"><ele>100.0</ele><time>2026-05-03T15:27:03.999Z</time></trkpt><trkpt lat="45.303677749303816" lon="8.87232974130394"><ele>100.0</ele><time>2026-05-03T15:27:04.999Z</time></trkpt><trkpt lat="45.30376744094378" lon="8.872396103221892"><ele>100.0</ele><time>2026-05-03T15:27:05.999Z</time></trkpt><trkpt lat="45.30387003235913" lon="8.872431533883988"><ele>100.0</ele><time>2026-05-03T15:27:06.999Z</time></trkpt><trkpt lat="45.304004705895224" lon="8.872473254490334"><ele>100.0</ele><time>2026-05-03T15:27:07.999Z</time></trkpt><trkpt lat="45.30413219714495" lon="8.872553855402202"><ele>100.33333333333334</ele><time>2026-05-03T15:27:08.999Z</time></trkpt><trkpt lat="45.3042589295995" lon="8.87267969549492"><ele>100.66666666666666</ele><time>2026-05-03T15:27:09.999Z</time></trkpt><trkpt lat="45.304376781665745" lon="8.872799893632628"><ele>101.0</ele><time>2026-05-03T15:27:10.999Z</time></trkpt><trkpt lat="45.30451823221629" lon="8.872928931206024"><ele>101.0</ele><time>2026-05-03T15:27:11.999Z</time></trkpt><trkpt lat="45.304661318229506" lon="8.873097114176044"><ele>101.0</ele><time>2026-05-03T15:27:12.999Z</time></trkpt><trkpt lat="45.304828149005814" lon="8.873248977746352"><ele>101.0</ele><time>2026-05-03T15:27:13.999Z</time></trkpt><trkpt lat="45.30500066666221" lon="8.873408324298138"><ele>101.33333333333333</ele><time>2026-05-03T15:27:14.999Z</time></trkpt><trkpt lat="45.30517746479106" lon="8.87357821513537"><ele>101.66666666666666</ele><time>2026-05-03T15:27:15.999Z</time></trkpt><trkpt lat="45.30535262388043" lon="8.8737445457547"><ele>102.0</ele><time>2026-05-03T15:27:16.999Z</time></trkpt><trkpt lat="45.30554768619915" lon="8.8738897636547"><ele>102.33333333333334</ele><time>2026-05-03T15:27:17.999Z</time></trkpt><trkpt lat="45.30573123780217" lon="8.874067156147715"><ele>102.66666666666667</ele><time>2026-05-03T15:27:18.999Z</time></trkpt><trkpt lat="45.30590616407292" lon="8.87424299165804"><ele>103.0</ele><time>2026-05-03T15:27:19.999Z</time></trkpt><trkpt lat="45.30608750594532" lon="8.874415422183809"><ele>102.0</ele><time>2026-05-03T15:27:20.999Z</time></trkpt><trkpt lat="45.30626680620677" lon="8.874592016329268"><ele>101.0</ele><time>2026-05-03T15:27:21.999Z</time></trkpt><trkpt lat="45.306445680412715" lon="8.874766747084186"><ele>100.0</ele><time>2026-05-03T15:27:22.999Z</time></trkpt><trkpt lat="45.306629115415774" lon="8.874941013475937"><ele>100.66666666666667</ele><time>2026-05-03T15:27:23.999Z</time></trkpt><trkpt lat="45.30681339553761" lon="8.87511378717281"><ele>101.33333333333334</ele><time>2026-05-03T15:27:25Z</time></trkpt><trkpt lat="45.30699207629329" lon="8.875292024687836"><ele>102.0</ele><time>2026-05-03T15:27:26Z</time></trkpt><trkpt lat="45.30718201432087" lon="8.87547184038587"><ele>101.0</ele><time>2026-05-03T15:27:27Z</time></trkpt><trkpt lat="45.30736624228836" lon="8.875656785160341"><ele>100.0</ele><time>2026-05-03T15:27:28Z</time></trkpt><trkpt lat="45.30756840168776" lon="8.875843470770972"><ele>100.5</ele><time>2026-05-03T15:27:29Z</time></trkpt><trkpt lat="45.30774346651563" lon="8.87608236331272"><ele>101.0</ele><time>2026-05-03T15:27:30Z</time></trkpt><trkpt lat="45.307934729986755" lon="8.876271207794108"><ele>101.0</ele><time>2026-05-03T15:27:31Z</time></trkpt><trkpt lat="45.30812175349442" lon="8.876455865936412"><ele>101.0</ele><time>2026-05-03T15:27:32Z</time></trkpt><trkpt lat="45.30831371898753" lon="8.876643887444297"><ele>101.0</ele><time>2026-05-03T15:27:33Z</time></trkpt><trkpt lat="45.30850790656396" lon="8.876833912484255"><ele>101.0</ele><time>2026-05-03T15:27:34Z</time></trkpt><trkpt lat="45.30869230381446" lon="8.87701463254927"><ele>101.0</ele><time>2026-05-03T15:27:35Z</time></trkpt><trkpt lat="45.308873492668674" lon="8.877193104024865"><ele>101.0</ele><time>2026-05-03T15:27:36Z</time></trkpt><trkpt lat="45.30904859069309" lon="8.877365576016347"><ele>101.0</ele><time>2026-05-03T15:27:37Z</time></trkpt><trkpt lat="45.30920038378762" lon="8.877515092613137"><ele>100.66666666666666</ele><time>2026-05-03T15:27:38Z</time></trkpt><trkpt lat="45.3093527807728" lon="8.877663308387106"><ele>100.33333333333334</ele><time>2026-05-03T15:27:39Z</time></trkpt><trkpt lat="45.30948290689634" lon="8.87778947959228"><ele>100.0</ele><time>2026-05-03T15:27:40Z</time></trkpt><trkpt lat="45.30960294973424" lon="8.877901596548254"><ele>100.0</ele><time>2026-05-03T15:27:41Z</time></trkpt><trkpt lat="45.30970804055598" lon="8.877999142200853"><ele>100.0</ele><time>2026-05-03T15:27:42Z</time></trkpt><trkpt lat="45.309788797215845" lon="8.87807410063239"><ele>100.0</ele><time>2026-05-03T15:27:43Z</time></trkpt><trkpt lat="45.30987045695347" lon="8.878119671195572"><ele>100.0</ele><time>2026-05-03T15:27:45Z</time></trkpt><trkpt lat="45.309900008850796" lon="8.878220304797646"><ele>100.0</ele><time>2026-05-03T15:27:47Z</time></trkpt><trkpt lat="45.30994080703094" lon="8.87838086943047"><ele>100.14285714285715</ele><time>2026-05-03T15:27:49Z</time></trkpt><trkpt lat="45.30995107621742" lon="8.87848862022635"><ele>100.28571428571429</ele><time>2026-05-03T15:27:50Z</time></trkpt><trkpt lat="45.3099791495379" lon="8.878593326012577"><ele>100.42857142857143</ele><time>2026-05-03T15:27:51Z</time></trkpt><trkpt lat="45.310046090198696" lon="8.878670682841042"><ele>100.57142857142858</ele><time>2026-05-03T15:27:52Z</time></trkpt><trkpt lat="45.31011167945645" lon="8.878714105980615"><ele>100.71428571428571</ele><time>2026-05-03T15:27:53Z</time></trkpt><trkpt lat="45.31017874347698" lon="8.878712327837583"><ele>100.85714285714286</ele><time>2026-05-03T15:27:54Z</time></trkpt><trkpt lat="45.31024078151092" lon="8.878733954836973"><ele>101.0</ele><time>2026-05-03T15:27:55Z</time></trkpt><trkpt lat="45.31030577037916" lon="8.878753822735867"><ele>101.0</ele><time>2026-05-03T15:27:56Z</time></trkpt><trkpt lat="45.31037858994033" lon="8.878763790521209"><ele>101.0</ele><time>2026-05-03T15:27:57Z</time></trkpt><trkpt lat="45.31045891314441" lon="8.878773968106646"><ele>101.0</ele><time>2026-05-03T15:27:58Z</time></trkpt><trkpt lat="45.31054892402635" lon="8.878796880531123"><ele>101.0</ele><time>2026-05-03T15:27:59Z</time></trkpt><trkpt lat="45.31064015582285" lon="8.87884630470701"><ele>101.0</ele><time>2026-05-03T15:28:00Z</time></trkpt><trkpt lat="45.31071628498924" lon="8.87899653663361"><ele>101.5</ele><time>2026-05-03T15:28:01Z</time></trkpt><trkpt lat="45.31081478998542" lon="8.879092756719077"><ele>102.0</ele><time>2026-05-03T15:28:02Z</time></trkpt><trkpt lat="45.310920149259346" lon="8.879196270684133"><ele>102.5</ele><time>2026-05-03T15:28:03Z</time></trkpt><trkpt lat="45.311021198152126" lon="8.879322899960924"><ele>103.0</ele><time>2026-05-03T15:28:04Z</time></trkpt><trkpt lat="45.31113431755854" lon="8.87943251131172"><ele>103.0</ele><time>2026-05-03T15:28:05Z</time></trkpt><trkpt lat="45.31126410736289" lon="8.879541550868717"><ele>103.0</ele><time>2026-05-03T15:28:06Z</time></trkpt><trkpt lat="45.31140495327211" lon="8.879680427817869"><ele>103.0</ele><time>2026-05-03T15:28:07Z</time></trkpt><trkpt lat="45.311572366706145" lon="8.87982447104595"><ele>103.0</ele><time>2026-05-03T15:28:08Z</time></trkpt><trkpt lat="45.311706921651364" lon="8.880005893620885"><ele>103.0</ele><time>2026-05-03T15:28:09Z</time></trkpt><trkpt lat="45.31186797787163" lon="8.88015511387528"><ele>103.0</ele><time>2026-05-03T15:28:10Z</time></trkpt><trkpt lat="45.31202522166625" lon="8.880292762587686"><ele>102.33333333333334</ele><time>2026-05-03T15:28:11Z</time></trkpt><trkpt lat="45.31219195944843" lon="8.88041343966136"><ele>101.66666666666666</ele><time>2026-05-03T15:28:12Z</time></trkpt><trkpt lat="45.31237826485751" lon="8.880533153962729"><ele>101.0</ele><time>2026-05-03T15:28:13Z</time></trkpt><trkpt lat="45.312571200052176" lon="8.88062712208765"><ele>100.66666666666666</ele><time>2026-05-03T15:28:14Z</time></trkpt><trkpt lat="45.312741397070994" lon="8.880708955989519"><ele>100.33333333333334</ele><time>2026-05-03T15:28:15Z</time></trkpt><trkpt lat="45.31293620543096" lon="8.880779438079161"><ele>100.0</ele><time>2026-05-03T15:28:16Z</time></trkpt><trkpt lat="45.31312344594119" lon="8.880837070534701"><ele>100.0</ele><time>2026-05-03T15:28:17Z</time></trkpt><trkpt lat="45.31331849591367" lon="8.880867517477798"><ele>100.0</ele><time>2026-05-03T15:28:18Z</time></trkpt><trkpt lat="45.31350937194204" lon="8.880895219455642"><ele>100.0</ele><time>2026-05-03T15:28:19Z</time></trkpt><trkpt lat="45.313703172603496" lon="8.880901041009581"><ele>100.0</ele><time>2026-05-03T15:28:20Z</time></trkpt><trkpt lat="45.31390013663716" lon="8.88089749132917"><ele>100.0</ele><time>2026-05-03T15:28:21Z</time></trkpt><trkpt lat="45.314097920921704" lon="8.880898219173245"><ele>100.0</ele><time>2026-05-03T15:28:22Z</time></trkpt><trkpt lat="45.31430540880436" lon="8.880905652717221"><ele>100.33333333333334</ele><time>2026-05-03T15:28:23Z</time></trkpt><trkpt lat="45.31450382017019" lon="8.8809076009144"><ele>100.66666666666666</ele><time>2026-05-03T15:28:24Z</time></trkpt><trkpt lat="45.31469848562243" lon="8.880908426504256"><ele>101.0</ele><time>2026-05-03T15:28:25Z</time></trkpt><trkpt lat="45.31487528920217" lon="8.880897234034764"><ele>101.0</ele><time>2026-05-03T15:28:26Z</time></trkpt><trkpt lat="45.31504128522827" lon="8.880892516399422"><ele>101.0</ele><time>2026-05-03T15:28:27Z</time></trkpt><trkpt lat="45.31521052577735" lon="8.880907777539845"><ele>101.0</ele><time>2026-05-03T15:28:28Z</time></trkpt><trkpt lat="45.31535577886938" lon="8.880918471522198"><ele>101.0</ele><time>2026-05-03T15:28:29Z</time></trkpt><trkpt lat="45.31546003270089" lon="8.880935329386459"><ele>101.0</ele><time>2026-05-03T15:28:30Z</time></trkpt><trkpt lat="45.31555316815358" lon="8.880989950026319"><ele>101.0</ele><time>2026-05-03T15:28:31Z</time></trkpt><trkpt lat="45.31562263615593" lon="8.881055284016997"><ele>101.0</ele><time>2026-05-03T15:28:32Z</time></trkpt><trkpt lat="45.31567697655342" lon="8.88115877013111"><ele>101.0</ele><time>2026-05-03T15:28:33Z</time></trkpt><trkpt lat="45.31573578626235" lon="8.8812254012202"><ele>100.99999999999999</ele><time>2026-05-03T15:28:34Z</time></trkpt><trkpt lat="45.315806292221225" lon="8.881254249257513"><ele>101.0</ele><time>2026-05-03T15:28:35Z</time></trkpt><trkpt lat="45.315882854166894" lon="8.881238477521679"><ele>101.0</ele><time>2026-05-03T15:28:36Z</time></trkpt><trkpt lat="45.31594654841962" lon="8.881187546986723"><ele>101.0</ele><time>2026-05-03T15:28:37Z</time></trkpt><trkpt lat="45.31600262392222" lon="8.881122219070944"><ele>100.99999999999999</ele><time>2026-05-03T15:28:38Z</time></trkpt><trkpt lat="45.31604903528756" lon="8.88105296424282"><ele>101.0</ele><time>2026-05-03T15:28:39Z</time></trkpt><trkpt lat="45.31615580757297" lon="8.880963471568474"><ele>101.0</ele><time>2026-05-03T15:28:41Z</time></trkpt><trkpt lat="45.31621813727235" lon="8.880906847555856"><ele>101.0</ele><time>2026-05-03T15:28:42Z</time></trkpt><trkpt lat="45.31631793138614" lon="8.880937948436662"><ele>101.0</ele><time>2026-05-03T15:28:43Z</time></trkpt><trkpt lat="45.31641308583118" lon="8.88093338247873"><ele>101.0</ele><time>2026-05-03T15:28:44Z</time></trkpt><trkpt lat="45.31652042076458" lon="8.880938491595016"><ele>101.0</ele><time>2026-05-03T15:28:44.999Z</time></trkpt><trkpt lat="45.316627129678785" lon="8.880915038568906"><ele>101.25</ele><time>2026-05-03T15:28:45.999Z</time></trkpt><trkpt lat="45.31674027154265" lon="8.880918906042012"><ele>101.5</ele><time>2026-05-03T15:28:46.999Z</time></trkpt><trkpt lat="45.31685812700172" lon="8.88091961954814"><ele>101.75</ele><time>2026-05-03T15:28:47.999Z</time></trkpt><trkpt lat="45.31697518763195" lon="8.880906835550675"><ele>102.0</ele><time>2026-05-03T15:28:48.999Z</time></trkpt><trkpt lat="45.31711025393569" lon="8.880896557332226"><ele>101.66666666666666</ele><time>2026-05-03T15:28:49.999Z</time></trkpt><trkpt lat="45.31725733157564" lon="8.880894953934325"><ele>101.33333333333333</ele><time>2026-05-03T15:28:50.999Z</time></trkpt><trkpt lat="45.317429244663444" lon="8.880886467740966"><ele>101.0</ele><time>2026-05-03T15:28:51.999Z</time></trkpt><trkpt lat="45.317601855738005" lon="8.880888305538592"><ele>101.0</ele><time>2026-05-03T15:28:52.999Z</time></trkpt><trkpt lat="45.31778296478262" lon="8.880901201103642"><ele>101.0</ele><time>2026-05-03T15:28:53.999Z</time></trkpt><trkpt lat="45.317969003167015" lon="8.880923196526831"><ele>101.0</ele><time>2026-05-03T15:28:54.999Z</time></trkpt><trkpt lat="45.31815718807643" lon="8.88092736184836"><ele>101.66666666666666</ele><time>2026-05-03T15:28:55.999Z</time></trkpt><trkpt lat="45.31834747544258" lon="8.880935140289592"><ele>102.33333333333334</ele><time>2026-05-03T15:28:56.999Z</time></trkpt><trkpt lat="45.31854777527554" lon="8.88093565666023"><ele>103.0</ele><time>2026-05-03T15:28:57.999Z</time></trkpt><trkpt lat="45.31875683615667" lon="8.88093539992377"><ele>103.33333333333334</ele><time>2026-05-03T15:28:58.999Z</time></trkpt><trkpt lat="45.31897387399064" lon="8.880936721367519"><ele>103.66666666666666</ele><time>2026-05-03T15:28:59.999Z</time></trkpt><trkpt lat="45.31918974211104" lon="8.880940091984634"><ele>104.0</ele><time>2026-05-03T15:29:00.999Z</time></trkpt><trkpt lat="45.31940500588458" lon="8.880939494029187"><ele>104.0</ele><time>2026-05-03T15:29:01.999Z</time></trkpt><trkpt lat="45.319619249068644" lon="8.880946189556877"><ele>104.0</ele><time>2026-05-03T15:29:02.999Z</time></trkpt><trkpt lat="45.31983024884567" lon="8.880958053144814"><ele>104.0</ele><time>2026-05-03T15:29:03.999Z</time></trkpt><trkpt lat="45.32003909256111" lon="8.8809515930154"><ele>103.66666666666666</ele><time>2026-05-03T15:29:04.999Z</time></trkpt><trkpt lat="45.32025158678356" lon="8.880953679140159"><ele>103.33333333333334</ele><time>2026-05-03T15:29:05.999Z</time></trkpt><trkpt lat="45.32045879951107" lon="8.880960966830008"><ele>103.0</ele><time>2026-05-03T15:29:06.999Z</time></trkpt><trkpt lat="45.32065723303761" lon="8.88096924923908"><ele>103.0</ele><time>2026-05-03T15:29:07.999Z</time></trkpt><trkpt lat="45.32084739754675" lon="8.880964243733219"><ele>103.0</ele><time>2026-05-03T15:29:08.999Z</time></trkpt><trkpt lat="45.321036090582744" lon="8.880955449868887"><ele>103.0</ele><time>2026-05-03T15:29:09.999Z</time></trkpt><trkpt lat="45.321227389997624" lon="8.880979972746987"><ele>103.33333333333334</ele><time>2026-05-03T15:29:10.999Z</time></trkpt><trkpt lat="45.3214106794819" lon="8.880982282557158"><ele>103.66666666666666</ele><time>2026-05-03T15:29:11.999Z</time></trkpt><trkpt lat="45.32158376891866" lon="8.880984373569643"><ele>104.0</ele><time>2026-05-03T15:29:12.999Z</time></trkpt><trkpt lat="45.32175279515323" lon="8.880985944225845"><ele>104.0</ele><time>2026-05-03T15:29:13.999Z</time></trkpt><trkpt lat="45.32190976918494" lon="8.880986403629953"><ele>104.0</ele><time>2026-05-03T15:29:14.999Z</time></trkpt><trkpt lat="45.32206917638093" lon="8.880970201051678"><ele>104.0</ele><time>2026-05-03T15:29:15.999Z</time></trkpt><trkpt lat="45.322227316437335" lon="8.880987332960412"><ele>103.66666666666666</ele><time>2026-05-03T15:29:16.999Z</time></trkpt><trkpt lat="45.32239256414103" lon="8.880988571472045"><ele>103.33333333333334</ele><time>2026-05-03T15:29:17.999Z</time></trkpt><trkpt lat="45.322565308048354" lon="8.880989604934785"><ele>103.0</ele><time>2026-05-03T15:29:18.999Z</time></trkpt><trkpt lat="45.32273197480721" lon="8.880990602046298"><ele>103.0</ele><time>2026-05-03T15:29:19.999Z</time></trkpt><trkpt lat="45.32288570477694" lon="8.880991438281898"><ele>103.0</ele><time>2026-05-03T15:29:20.999Z</time></trkpt><trkpt lat="45.32303335814662" lon="8.880992145242397"><ele>103.0</ele><time>2026-05-03T15:29:21.999Z</time></trkpt><trkpt lat="45.32316957842658" lon="8.880992797481037"><ele>103.0</ele><time>2026-05-03T15:29:22.999Z</time></trkpt><trkpt lat="45.323295694966845" lon="8.880913108558824"><ele>103.0</ele><time>2026-05-03T15:29:23.999Z</time></trkpt><trkpt lat="45.323409693080144" lon="8.880904951190375"><ele>103.0</ele><time>2026-05-03T15:29:24.999Z</time></trkpt><trkpt lat="45.3235192761384" lon="8.880897746871929"><ele>103.0</ele><time>2026-05-03T15:29:25.999Z</time></trkpt><trkpt lat="45.32362133721817" lon="8.880898839127699"><ele>103.0</ele><time>2026-05-03T15:29:26.999Z</time></trkpt><trkpt lat="45.32373085776467" lon="8.88099473302777"><ele>103.0</ele><time>2026-05-03T15:29:27.999Z</time></trkpt><trkpt lat="45.32382970877273" lon="8.880995140659714"><ele>103.0</ele><time>2026-05-03T15:29:28.999Z</time></trkpt><trkpt lat="45.32393616731124" lon="8.880981291222374"><ele>103.0</ele><time>2026-05-03T15:29:29.999Z</time></trkpt><trkpt lat="45.324020552726395" lon="8.881075520936387"><ele>103.0</ele><time>2026-05-03T15:29:31Z</time></trkpt><trkpt lat="45.32406169629474" lon="8.881212296495569"><ele>103.0</ele><time>2026-05-03T15:29:32Z</time></trkpt><trkpt lat="45.32411508774321" lon="8.881326457328777"><ele>103.0</ele><time>2026-05-03T15:29:33Z</time></trkpt><trkpt lat="45.32421220764456" lon="8.881375340545794"><ele>103.0</ele><time>2026-05-03T15:29:34Z</time></trkpt><trkpt lat="45.32431807515892" lon="8.881381802698705"><ele>103.0</ele><time>2026-05-03T15:29:35Z</time></trkpt><trkpt lat="45.324426079900626" lon="8.881315984285425"><ele>103.0</ele><time>2026-05-03T15:29:36Z</time></trkpt><trkpt lat="45.32451732315897" lon="8.881211583541512"><ele>103.0</ele><time>2026-05-03T15:29:37Z</time></trkpt><trkpt lat="45.324597986071545" lon="8.88108045866939"><ele>103.0</ele><time>2026-05-03T15:29:38Z</time></trkpt><trkpt lat="45.32469703819202" lon="8.880986101600119"><ele>103.0</ele><time>2026-05-03T15:29:39Z</time></trkpt><trkpt lat="45.32483105733966" lon="8.88096804075989"><ele>103.0</ele><time>2026-05-03T15:29:40Z</time></trkpt><trkpt lat="45.324983230151645" lon="8.881005279089589"><ele>103.0</ele><time>2026-05-03T15:29:41Z</time></trkpt><trkpt lat="45.32514684451917" lon="8.881005461839564"><ele>102.66666666666667</ele><time>2026-05-03T15:29:42Z</time></trkpt><trkpt lat="45.32530077405137" lon="8.880999194001863"><ele>102.33333333333334</ele><time>2026-05-03T15:29:43Z</time></trkpt><trkpt lat="45.32545435096302" lon="8.880990277109435"><ele>102.0</ele><time>2026-05-03T15:29:44Z</time></trkpt><trkpt lat="45.32563141620176" lon="8.880977112038893"><ele>101.66666666666666</ele><time>2026-05-03T15:29:45Z</time></trkpt><trkpt lat="45.325828357944346" lon="8.880955009649158"><ele>101.33333333333333</ele><time>2026-05-03T15:29:46Z</time></trkpt><trkpt lat="45.32603483178882" lon="8.880922820222972"><ele>101.0</ele><time>2026-05-03T15:29:47Z</time></trkpt><trkpt lat="45.32624443333705" lon="8.880885928233875"><ele>101.0</ele><time>2026-05-03T15:29:48Z</time></trkpt><trkpt lat="45.326465292272445" lon="8.880841543067787"><ele>101.0</ele><time>2026-05-03T15:29:49Z</time></trkpt><trkpt lat="45.326690199283696" lon="8.880796358080662"><ele>101.0</ele><time>2026-05-03T15:29:50Z</time></trkpt><trkpt lat="45.326923417561986" lon="8.880749557418364"><ele>101.0</ele><time>2026-05-03T15:29:51Z</time></trkpt><trkpt lat="45.32715864416503" lon="8.880702353704423"><ele>100.5</ele><time>2026-05-03T15:29:52Z</time></trkpt><trkpt lat="45.327397774078186" lon="8.880654366742826"><ele>100.0</ele><time>2026-05-03T15:29:53Z</time></trkpt><trkpt lat="45.327634499783" lon="8.880606862202125"><ele>100.0</ele><time>2026-05-03T15:29:54Z</time></trkpt><trkpt lat="45.32787331714969" lon="8.880558949344792"><ele>100.0</ele><time>2026-05-03T15:29:55Z</time></trkpt><trkpt lat="45.32809369504928" lon="8.880513882101205"><ele>99.33333333333334</ele><time>2026-05-03T15:29:56Z</time></trkpt><trkpt lat="45.32831007940048" lon="8.880469295438099"><ele>98.66666666666666</ele><time>2026-05-03T15:29:57Z</time></trkpt><trkpt lat="45.32851878258605" lon="8.880427346174494"><ele>98.0</ele><time>2026-05-03T15:29:58Z</time></trkpt><trkpt lat="45.328712403162925" lon="8.880387559589922"><ele>98.0</ele><time>2026-05-03T15:29:59Z</time></trkpt><trkpt lat="45.32888922507949" lon="8.880314437003394"><ele>98.0</ele><time>2026-05-03T15:30:00Z</time></trkpt><trkpt lat="45.3290636512976" lon="8.880200324610408"><ele>98.0</ele><time>2026-05-03T15:30:01Z</time></trkpt><trkpt lat="45.32920994468361" lon="8.880168523352285"><ele>96.5</ele><time>2026-05-03T15:30:02Z</time></trkpt><trkpt lat="45.3293273596337" lon="8.880128971643886"><ele>95.0</ele><time>2026-05-03T15:30:03Z</time></trkpt><trkpt lat="45.32943866470361" lon="8.880230906453454"><ele>93.5</ele><time>2026-05-03T15:30:04Z</time></trkpt><trkpt lat="45.329555559155466" lon="8.880230906444673"><ele>92.0</ele><time>2026-05-03T15:30:05Z</time></trkpt><trkpt lat="45.3296699457784" lon="8.880350974588572"><ele>90.66666666666667</ele><time>2026-05-03T15:30:06Z</time></trkpt><trkpt lat="45.32984065270996" lon="8.880240913728551"><ele>89.33333333333333</ele><time>2026-05-03T15:30:07Z</time></trkpt><trkpt lat="45.32999297637446" lon="8.880205203695093"><ele>88.0</ele><time>2026-05-03T15:30:08Z</time></trkpt><trkpt lat="45.330157814742236" lon="8.880132276453134"><ele>88.0</ele><time>2026-05-03T15:30:09Z</time></trkpt><trkpt lat="45.33031950238754" lon="8.880270471058118"><ele>88.0</ele><time>2026-05-03T15:30:10Z</time></trkpt><trkpt lat="45.33050545209921" lon="8.880299766076353"><ele>88.0</ele><time>2026-05-03T15:30:11Z</time></trkpt><trkpt lat="45.33069032245625" lon="8.880329256308881"><ele>88.0</ele><time>2026-05-03T15:30:12Z</time></trkpt><trkpt lat="45.33089507950124" lon="8.880357416545309"><ele>88.0</ele><time>2026-05-03T15:30:13Z</time></trkpt><trkpt lat="45.33108722273129" lon="8.880380605319697"><ele>88.0</ele><time>2026-05-03T15:30:14Z</time></trkpt><trkpt lat="45.331279131502164" lon="8.880392845615557"><ele>88.33333333333333</ele><time>2026-05-03T15:30:15Z</time></trkpt><trkpt lat="45.33147469714463" lon="8.88037623437137"><ele>88.66666666666667</ele><time>2026-05-03T15:30:16Z</time></trkpt><trkpt lat="45.331665555846286" lon="8.880331389067532"><ele>89.0</ele><time>2026-05-03T15:30:17Z</time></trkpt><trkpt lat="45.33185855886633" lon="8.880248976471389"><ele>89.0</ele><time>2026-05-03T15:30:18Z</time></trkpt><trkpt lat="45.33203361680328" lon="8.880148423580083"><ele>89.0</ele><time>2026-05-03T15:30:19Z</time></trkpt><trkpt lat="45.33220374554547" lon="8.880026900215254"><ele>89.0</ele><time>2026-05-03T15:30:20Z</time></trkpt><trkpt lat="45.332369503749675" lon="8.879901333399962"><ele>88.33333333333334</ele><time>2026-05-03T15:30:21Z</time></trkpt><trkpt lat="45.33252299608118" lon="8.879782444820584"><ele>87.66666666666667</ele><time>2026-05-03T15:30:22Z</time></trkpt><trkpt lat="45.332664775998666" lon="8.879648652616746"><ele>87.0</ele><time>2026-05-03T15:30:23Z</time></trkpt><trkpt lat="45.33279679527281" lon="8.87954987831487"><ele>87.0</ele><time>2026-05-03T15:30:24Z</time></trkpt><trkpt lat="45.332906096583784" lon="8.879452166396128"><ele>87.0</ele><time>2026-05-03T15:30:25Z</time></trkpt><trkpt lat="45.333021855856344" lon="8.879351972819704"><ele>87.0</ele><time>2026-05-03T15:30:26Z</time></trkpt><trkpt lat="45.333141321807865" lon="8.87928370864532"><ele>87.0</ele><time>2026-05-03T15:30:27Z</time></trkpt><trkpt lat="45.333275596869825" lon="8.879175733092667"><ele>87.0</ele><time>2026-05-03T15:30:28Z</time></trkpt><trkpt lat="45.333389955187094" lon="8.8790772794116"><ele>87.0</ele><time>2026-05-03T15:30:29Z</time></trkpt><trkpt lat="45.333547229086506" lon="8.878984687599734"><ele>87.0</ele><time>2026-05-03T15:30:30Z</time></trkpt><trkpt lat="45.333709415837504" lon="8.878862597844327"><ele>87.0</ele><time>2026-05-03T15:30:31Z</time></trkpt><trkpt lat="45.333856140617435" lon="8.878733486402435"><ele>87.0</ele><time>2026-05-03T15:30:32Z</time></trkpt><trkpt lat="45.3340105961368" lon="8.878649964685494"><ele>87.0</ele><time>2026-05-03T15:30:33Z</time></trkpt><trkpt lat="45.33415924965633" lon="8.878536305245639"><ele>86.66666666666667</ele><time>2026-05-03T15:30:34Z</time></trkpt><trkpt lat="45.334302555288254" lon="8.878427122555518"><ele>86.33333333333334</ele><time>2026-05-03T15:30:35Z</time></trkpt><trkpt lat="45.334461166045735" lon="8.878311877846608"><ele>86.0</ele><time>2026-05-03T15:30:36Z</time></trkpt><trkpt lat="45.33463614361967" lon="8.878214985109876"><ele>86.0</ele><time>2026-05-03T15:30:37Z</time></trkpt><trkpt lat="45.334807570677725" lon="8.878094888182915"><ele>86.0</ele><time>2026-05-03T15:30:38Z</time></trkpt><trkpt lat="45.33499030804653" lon="8.877966867526908"><ele>86.0</ele><time>2026-05-03T15:30:39Z</time></trkpt><trkpt lat="45.33516974162919" lon="8.87782668682552"><ele>86.0</ele><time>2026-05-03T15:30:40Z</time></trkpt><trkpt lat="45.33534351722312" lon="8.877739907604882"><ele>86.0</ele><time>2026-05-03T15:30:41Z</time></trkpt><trkpt lat="45.335502622221455" lon="8.877675176532755"><ele>86.0</ele><time>2026-05-03T15:30:42Z</time></trkpt><trkpt lat="45.33563835220369" lon="8.877644576673857"><ele>86.25</ele><time>2026-05-03T15:30:43Z</time></trkpt><trkpt lat="45.335771371322906" lon="8.877621510487442"><ele>86.5</ele><time>2026-05-03T15:30:44Z</time></trkpt><trkpt lat="45.33588117734139" lon="8.877679181015873"><ele>86.75</ele><time>2026-05-03T15:30:45Z</time></trkpt><trkpt lat="45.335991429729624" lon="8.877730958988256"><ele>87.0</ele><time>2026-05-03T15:30:46Z</time></trkpt><trkpt lat="45.3361073703718" lon="8.877721364153288"><ele>87.0</ele><time>2026-05-03T15:30:47Z</time></trkpt><trkpt lat="45.33621492352686" lon="8.877618502097055"><ele>87.0</ele><time>2026-05-03T15:30:48Z</time></trkpt><trkpt lat="45.336290588322434" lon="8.877460798639193"><ele>87.0</ele><time>2026-05-03T15:30:49Z</time></trkpt><trkpt lat="45.33639962468284" lon="8.877316991331183"><ele>87.0</ele><time>2026-05-03T15:30:49.999Z</time></trkpt><trkpt lat="45.33655117365195" lon="8.8772340458444"><ele>87.33333333333333</ele><time>2026-05-03T15:30:50.999Z</time></trkpt><trkpt lat="45.33672850156113" lon="8.877234399021042"><ele>87.66666666666666</ele><time>2026-05-03T15:30:51.999Z</time></trkpt><trkpt lat="45.33689940513925" lon="8.877176032859095"><ele>88.0</ele><time>2026-05-03T15:30:52.999Z</time></trkpt><trkpt lat="45.33708134155122" lon="8.87711285750777"><ele>87.66666666666666</ele><time>2026-05-03T15:30:53.999Z</time></trkpt><trkpt lat="45.33726864693277" lon="8.877037301577461"><ele>87.33333333333333</ele><time>2026-05-03T15:30:54.999Z</time></trkpt><trkpt lat="45.33744660750398" lon="8.876958103809642"><ele>87.0</ele><time>2026-05-03T15:30:55.999Z</time></trkpt><trkpt lat="45.337623101480126" lon="8.876943760420243"><ele>87.0</ele><time>2026-05-03T15:30:56.999Z</time></trkpt><trkpt lat="45.3377912150334" lon="8.876928024617456"><ele>87.0</ele><time>2026-05-03T15:30:57.999Z</time></trkpt><trkpt lat="45.33794640677215" lon="8.876939888220871"><ele>87.0</ele><time>2026-05-03T15:30:58.999Z</time></trkpt><trkpt lat="45.33811292688671" lon="8.87696987499753"><ele>87.0</ele><time>2026-05-03T15:30:59.999Z</time></trkpt><trkpt lat="45.33825019678596" lon="8.8770121524097"><ele>87.0</ele><time>2026-05-03T15:31:00.999Z</time></trkpt><trkpt lat="45.338385001111014" lon="8.877074525945646"><ele>87.0</ele><time>2026-05-03T15:31:01.999Z</time></trkpt><trkpt lat="45.33850754621255" lon="8.877154744903535"><ele>87.0</ele><time>2026-05-03T15:31:02.999Z</time></trkpt><trkpt lat="45.33862785765737" lon="8.877251075759018"><ele>87.0</ele><time>2026-05-03T15:31:03.999Z</time></trkpt><trkpt lat="45.33874567503721" lon="8.8773506916804"><ele>87.0</ele><time>2026-05-03T15:31:04.999Z</time></trkpt><trkpt lat="45.33884721144323" lon="8.877470418177483"><ele>87.0</ele><time>2026-05-03T15:31:05.999Z</time></trkpt><trkpt lat="45.33895744923027" lon="8.877568390410302"><ele>87.0</ele><time>2026-05-03T15:31:06.999Z</time></trkpt><trkpt lat="45.339074902470756" lon="8.877676019359955"><ele>86.5</ele><time>2026-05-03T15:31:07.999Z</time></trkpt><trkpt lat="45.339188665001195" lon="8.877766463660445"><ele>86.0</ele><time>2026-05-03T15:31:08.999Z</time></trkpt><trkpt lat="45.3393028298456" lon="8.877852669556987"><ele>85.5</ele><time>2026-05-03T15:31:09.999Z</time></trkpt><trkpt lat="45.33940858588557" lon="8.877940419181126"><ele>85.0</ele><time>2026-05-03T15:31:10.999Z</time></trkpt><trkpt lat="45.33951060047494" lon="8.878051325265737"><ele>85.0</ele><time>2026-05-03T15:31:11.999Z</time></trkpt><trkpt lat="45.33963573682815" lon="8.878162200814675"><ele>85.0</ele><time>2026-05-03T15:31:12.999Z</time></trkpt><trkpt lat="45.33977869126007" lon="8.878234554962743"><ele>85.0</ele><time>2026-05-03T15:31:13.999Z</time></trkpt><trkpt lat="45.339896354007266" lon="8.878325390650465"><ele>85.0</ele><time>2026-05-03T15:31:14.999Z</time></trkpt><trkpt lat="45.34001352989464" lon="8.87841488130818"><ele>85.25</ele><time>2026-05-03T15:31:15.999Z</time></trkpt><trkpt lat="45.34013188826313" lon="8.878504889687465"><ele>85.5</ele><time>2026-05-03T15:31:16.999Z</time></trkpt><trkpt lat="45.340246652077624" lon="8.878594421422896"><ele>85.75</ele><time>2026-05-03T15:31:17.999Z</time></trkpt><trkpt lat="45.34035632376842" lon="8.878667937781257"><ele>86.0</ele><time>2026-05-03T15:31:18.999Z</time></trkpt><trkpt lat="45.3404834335937" lon="8.87877105285455"><ele>85.25</ele><time>2026-05-03T15:31:19.999Z</time></trkpt><trkpt lat="45.34060122904498" lon="8.87888082861152"><ele>84.5</ele><time>2026-05-03T15:31:20.999Z</time></trkpt><trkpt lat="45.34072284129241" lon="8.87899305474097"><ele>83.75</ele><time>2026-05-03T15:31:21.999Z</time></trkpt><trkpt lat="45.340842051978846" lon="8.879101735580619"><ele>83.0</ele><time>2026-05-03T15:31:22.999Z</time></trkpt><trkpt lat="45.34096465096076" lon="8.879212378316723"><ele>83.0</ele><time>2026-05-03T15:31:23.999Z</time></trkpt><trkpt lat="45.341077431479135" lon="8.879318126750965"><ele>83.0</ele><time>2026-05-03T15:31:24.999Z</time></trkpt><trkpt lat="45.341207101643505" lon="8.87942932057621"><ele>83.0</ele><time>2026-05-03T15:31:25.999Z</time></trkpt><trkpt lat="45.34133376786691" lon="8.879542175791956"><ele>83.0</ele><time>2026-05-03T15:31:26.999Z</time></trkpt><trkpt lat="45.341458668911976" lon="8.87965408033761"><ele>82.25</ele><time>2026-05-03T15:31:27.999Z</time></trkpt><trkpt lat="45.34156501804549" lon="8.87977805672282"><ele>81.5</ele><time>2026-05-03T15:31:28.999Z</time></trkpt><trkpt lat="45.34167656012147" lon="8.879881599553858"><ele>80.75</ele><time>2026-05-03T15:31:29.999Z</time></trkpt><trkpt lat="45.34177711766303" lon="8.879980412678359"><ele>80.0</ele><time>2026-05-03T15:31:30.999Z</time></trkpt><trkpt lat="45.341890747951446" lon="8.880083880459928"><ele>80.25</ele><time>2026-05-03T15:31:31.999Z</time></trkpt><trkpt lat="45.34200310973068" lon="8.880186848173846"><ele>80.5</ele><time>2026-05-03T15:31:32.999Z</time></trkpt><trkpt lat="45.342109341688285" lon="8.880288006580285"><ele>80.75</ele><time>2026-05-03T15:31:33.999Z</time></trkpt><trkpt lat="45.34221525708404" lon="8.880379130356674"><ele>81.0</ele><time>2026-05-03T15:31:34.999Z</time></trkpt><trkpt lat="45.34232924117356" lon="8.88047519458954"><ele>82.0</ele><time>2026-05-03T15:31:35.999Z</time></trkpt><trkpt lat="45.34244508870887" lon="8.880579120540588"><ele>83.0</ele><time>2026-05-03T15:31:37Z</time></trkpt><trkpt lat="45.34253968744312" lon="8.880690211683085"><ele>84.0</ele><time>2026-05-03T15:31:38Z</time></trkpt><trkpt lat="45.34264731033754" lon="8.880798898476868"><ele>85.0</ele><time>2026-05-03T15:31:39Z</time></trkpt><trkpt lat="45.34275070055723" lon="8.880910727356046"><ele>85.25</ele><time>2026-05-03T15:31:40Z</time></trkpt><trkpt lat="45.34285043256761" lon="8.881038105359849"><ele>85.5</ele><time>2026-05-03T15:31:41Z</time></trkpt><trkpt lat="45.34293932851373" lon="8.881180638992788"><ele>85.75</ele><time>2026-05-03T15:31:42Z</time></trkpt><trkpt lat="45.34302215223717" lon="8.881331739820173"><ele>86.0</ele><time>2026-05-03T15:31:43Z</time></trkpt><trkpt lat="45.34309802202856" lon="8.88148495493797"><ele>85.75</ele><time>2026-05-03T15:31:44Z</time></trkpt><trkpt lat="45.34316238917391" lon="8.881647361246994"><ele>85.5</ele><time>2026-05-03T15:31:45Z</time></trkpt><trkpt lat="45.34320591049428" lon="8.881826222204072"><ele>85.25</ele><time>2026-05-03T15:31:46Z</time></trkpt><trkpt lat="45.34325130582647" lon="8.88199953283481"><ele>85.0</ele><time>2026-05-03T15:31:47Z</time></trkpt><trkpt lat="45.34328659759253" lon="8.882178474512562"><ele>85.0</ele><time>2026-05-03T15:31:48Z</time></trkpt><trkpt lat="45.3433122311546" lon="8.88236122033381"><ele>85.0</ele><time>2026-05-03T15:31:49Z</time></trkpt><trkpt lat="45.34333384735858" lon="8.882557582593753"><ele>85.0</ele><time>2026-05-03T15:31:50Z</time></trkpt><trkpt lat="45.34335079356555" lon="8.882758576878446"><ele>85.0</ele><time>2026-05-03T15:31:51Z</time></trkpt><trkpt lat="45.34337272993945" lon="8.882957236042875"><ele>85.25</ele><time>2026-05-03T15:31:52Z</time></trkpt><trkpt lat="45.34339582362456" lon="8.883155719441927"><ele>85.5</ele><time>2026-05-03T15:31:53Z</time></trkpt><trkpt lat="45.343417777517054" lon="8.883353348485203"><ele>85.75</ele><time>2026-05-03T15:31:54Z</time></trkpt><trkpt lat="45.343431705025864" lon="8.883549861415405"><ele>86.0</ele><time>2026-05-03T15:31:55Z</time></trkpt><trkpt lat="45.34345597778644" lon="8.883747337115201"><ele>86.0</ele><time>2026-05-03T15:31:56Z</time></trkpt><trkpt lat="45.3434908512134" lon="8.883945492968966"><ele>86.0</ele><time>2026-05-03T15:31:57Z</time></trkpt><trkpt lat="45.34351853389241" lon="8.884150224461038"><ele>86.0</ele><time>2026-05-03T15:31:58Z</time></trkpt><trkpt lat="45.3435455844812" lon="8.88434523164937"><ele>86.0</ele><time>2026-05-03T15:31:59Z</time></trkpt><trkpt lat="45.34357509869052" lon="8.884565771783304"><ele>85.75</ele><time>2026-05-03T15:32:00Z</time></trkpt><trkpt lat="45.343601524833986" lon="8.884782658270886"><ele>85.5</ele><time>2026-05-03T15:32:01Z</time></trkpt><trkpt lat="45.34362483696411" lon="8.884985085812088"><ele>85.25</ele><time>2026-05-03T15:32:02Z</time></trkpt><trkpt lat="45.34363461810801" lon="8.885180441474605"><ele>85.0</ele><time>2026-05-03T15:32:03Z</time></trkpt><trkpt lat="45.34365609266781" lon="8.885367623282976"><ele>85.0</ele><time>2026-05-03T15:32:04Z</time></trkpt><trkpt lat="45.34367828737186" lon="8.8855522844333"><ele>85.0</ele><time>2026-05-03T15:32:05Z</time></trkpt><trkpt lat="45.34370329111242" lon="8.885744924962093"><ele>85.0</ele><time>2026-05-03T15:32:06Z</time></trkpt><trkpt lat="45.34373897964211" lon="8.885937517850161"><ele>85.0</ele><time>2026-05-03T15:32:07Z</time></trkpt><trkpt lat="45.3437709234476" lon="8.88612358481002"><ele>85.25</ele><time>2026-05-03T15:32:08Z</time></trkpt><trkpt lat="45.343805529406325" lon="8.886285005861504"><ele>85.5</ele><time>2026-05-03T15:32:09Z</time></trkpt><trkpt lat="45.34386914548128" lon="8.886464106176177"><ele>85.75</ele><time>2026-05-03T15:32:10Z</time></trkpt><trkpt lat="45.343934543570114" lon="8.886643611136003"><ele>86.0</ele><time>2026-05-03T15:32:11Z</time></trkpt><trkpt lat="45.34400095141598" lon="8.886794601654755"><ele>87.0</ele><time>2026-05-03T15:32:12Z</time></trkpt><trkpt lat="45.34408062498363" lon="8.886945468150826"><ele>88.0</ele><time>2026-05-03T15:32:13Z</time></trkpt><trkpt lat="45.344180850052325" lon="8.88705507535769"><ele>89.0</ele><time>2026-05-03T15:32:14Z</time></trkpt><trkpt lat="45.34427490276317" lon="8.887204478970641"><ele>90.0</ele><time>2026-05-03T15:32:15Z</time></trkpt><trkpt lat="45.344356522970465" lon="8.887341027623023"><ele>90.0</ele><time>2026-05-03T15:32:16Z</time></trkpt><trkpt lat="45.34446543290803" lon="8.887480841274039"><ele>90.0</ele><time>2026-05-03T15:32:17Z</time></trkpt><trkpt lat="45.34457550039552" lon="8.88761821335824"><ele>90.0</ele><time>2026-05-03T15:32:18Z</time></trkpt><trkpt lat="45.344684504838874" lon="8.887757485236648"><ele>90.0</ele><time>2026-05-03T15:32:19Z</time></trkpt><trkpt lat="45.34478911590406" lon="8.88789913775946"><ele>89.66666666666667</ele><time>2026-05-03T15:32:20Z</time></trkpt><trkpt lat="45.34490598136744" lon="8.888049131452748"><ele>89.33333333333334</ele><time>2026-05-03T15:32:21Z</time></trkpt><trkpt lat="45.34503266329732" lon="8.888192418629643"><ele>89.0</ele><time>2026-05-03T15:32:22Z</time></trkpt><trkpt lat="45.34516764832197" lon="8.888349170348617"><ele>89.33333333333334</ele><time>2026-05-03T15:32:23Z</time></trkpt><trkpt lat="45.34530369201788" lon="8.88852353009016"><ele>89.66666666666667</ele><time>2026-05-03T15:32:24Z</time></trkpt><trkpt lat="45.34544819207969" lon="8.888707259431838"><ele>90.0</ele><time>2026-05-03T15:32:25Z</time></trkpt><trkpt lat="45.34556997200627" lon="8.888891061462417"><ele>90.0</ele><time>2026-05-03T15:32:26Z</time></trkpt><trkpt lat="45.34570751505439" lon="8.889072214040135"><ele>90.0</ele><time>2026-05-03T15:32:27Z</time></trkpt><trkpt lat="45.34584491288365" lon="8.889244028260677"><ele>90.0</ele><time>2026-05-03T15:32:28Z</time></trkpt><trkpt lat="45.3460049118054" lon="8.889422896593857"><ele>89.66666666666667</ele><time>2026-05-03T15:32:29Z</time></trkpt><trkpt lat="45.346175652553896" lon="8.889621713634165"><ele>89.33333333333334</ele><time>2026-05-03T15:32:30Z</time></trkpt><trkpt lat="45.34633046322483" lon="8.889830509517061"><ele>89.0</ele><time>2026-05-03T15:32:31Z</time></trkpt><trkpt lat="45.34649325895237" lon="8.89005360182919"><ele>89.33333333333334</ele><time>2026-05-03T15:32:32Z</time></trkpt><trkpt lat="45.346636504971926" lon="8.890242782384343"><ele>89.66666666666667</ele><time>2026-05-03T15:32:33Z</time></trkpt><trkpt lat="45.34676583699097" lon="8.890391229106879"><ele>90.0</ele><time>2026-05-03T15:32:34Z</time></trkpt><trkpt lat="45.34689437655443" lon="8.890555884367096"><ele>90.0</ele><time>2026-05-03T15:32:35Z</time></trkpt><trkpt lat="45.34702314173469" lon="8.890730770408906"><ele>90.0</ele><time>2026-05-03T15:32:36Z</time></trkpt><trkpt lat="45.34716396817433" lon="8.890897577408476"><ele>90.0</ele><time>2026-05-03T15:32:37Z</time></trkpt><trkpt lat="45.34729969944846" lon="8.891056794418128"><ele>89.0</ele><time>2026-05-03T15:32:38Z</time></trkpt><trkpt lat="45.34739355213474" lon="8.891202980947021"><ele>88.0</ele><time>2026-05-03T15:32:39Z</time></trkpt><trkpt lat="45.347521162006174" lon="8.891381333900052"><ele>87.0</ele><time>2026-05-03T15:32:40Z</time></trkpt><trkpt lat="45.34763468115479" lon="8.891525096621558"><ele>87.0</ele><time>2026-05-03T15:32:41Z</time></trkpt><trkpt lat="45.347743658686106" lon="8.891670013524891"><ele>87.0</ele><time>2026-05-03T15:32:42Z</time></trkpt><trkpt lat="45.3478496748721" lon="8.891806670642342"><ele>87.0</ele><time>2026-05-03T15:32:43Z</time></trkpt><trkpt lat="45.347951479577986" lon="8.891959131936257"><ele>87.0</ele><time>2026-05-03T15:32:44Z</time></trkpt><trkpt lat="45.34803260498892" lon="8.89213334248969"><ele>87.0</ele><time>2026-05-03T15:32:45Z</time></trkpt><trkpt lat="45.34812670145809" lon="8.892329439048353"><ele>87.0</ele><time>2026-05-03T15:32:46Z</time></trkpt><trkpt lat="45.34819639213142" lon="8.892559858322851"><ele>87.0</ele><time>2026-05-03T15:32:47Z</time></trkpt><trkpt lat="45.34828977670904" lon="8.89280822516283"><ele>87.0</ele><time>2026-05-03T15:32:48Z</time></trkpt><trkpt lat="45.34835935760796" lon="8.893079771887251"><ele>87.0</ele><time>2026-05-03T15:32:49Z</time></trkpt><trkpt lat="45.348419017568474" lon="8.893350436348527"><ele>87.0</ele><time>2026-05-03T15:32:50Z</time></trkpt><trkpt lat="45.348499323530575" lon="8.893601259507934"><ele>86.33333333333333</ele><time>2026-05-03T15:32:51Z</time></trkpt><trkpt lat="45.3485826035755" lon="8.893838164651918"><ele>85.66666666666666</ele><time>2026-05-03T15:32:52Z</time></trkpt><trkpt lat="45.34866571271903" lon="8.894079407940714"><ele>85.0</ele><time>2026-05-03T15:32:53Z</time></trkpt><trkpt lat="45.34874620914816" lon="8.894330739982244"><ele>85.66666666666666</ele><time>2026-05-03T15:32:54Z</time></trkpt><trkpt lat="45.34881229066346" lon="8.894592793121424"><ele>86.33333333333333</ele><time>2026-05-03T15:32:54.999Z</time></trkpt><trkpt lat="45.34887963830298" lon="8.894847929940669"><ele>87.0</ele><time>2026-05-03T15:32:55.999Z</time></trkpt><trkpt lat="45.34895678809718" lon="8.895096437452441"><ele>87.0</ele><time>2026-05-03T15:32:56.999Z</time></trkpt><trkpt lat="45.349022750607816" lon="8.895345291703059"><ele>87.0</ele><time>2026-05-03T15:32:57.999Z</time></trkpt><trkpt lat="45.34909001084674" lon="8.895588745381719"><ele>87.0</ele><time>2026-05-03T15:32:58.999Z</time></trkpt><trkpt lat="45.349172725645566" lon="8.895863363136863"><ele>86.5</ele><time>2026-05-03T15:32:59.999Z</time></trkpt><trkpt lat="45.34926332289423" lon="8.89616970183654"><ele>86.0</ele><time>2026-05-03T15:33:00.999Z</time></trkpt><trkpt lat="45.34935313029852" lon="8.896497899537497"><ele>86.0</ele><time>2026-05-03T15:33:01.999Z</time></trkpt><trkpt lat="45.349443428572656" lon="8.89683868615803"><ele>86.0</ele><time>2026-05-03T15:33:02.999Z</time></trkpt><trkpt lat="45.34954235480588" lon="8.897188165183504"><ele>86.0</ele><time>2026-05-03T15:33:03.999Z</time></trkpt><trkpt lat="45.34963290791562" lon="8.897549885685741"><ele>86.0</ele><time>2026-05-03T15:33:04.999Z</time></trkpt><trkpt lat="45.349720366165705" lon="8.89792156677106"><ele>85.5</ele><time>2026-05-03T15:33:05.999Z</time></trkpt><trkpt lat="45.34981363758426" lon="8.898269467863317"><ele>85.0</ele><time>2026-05-03T15:33:06.999Z</time></trkpt><trkpt lat="45.34991268494455" lon="8.89860687177298"><ele>85.0</ele><time>2026-05-03T15:33:07.999Z</time></trkpt><trkpt lat="45.34999982942537" lon="8.89894719945039"><ele>85.0</ele><time>2026-05-03T15:33:08.999Z</time></trkpt><trkpt lat="45.3500767176626" lon="8.89928494498224"><ele>84.5</ele><time>2026-05-03T15:33:09.999Z</time></trkpt><trkpt lat="45.35015172511139" lon="8.899604678539333"><ele>84.0</ele><time>2026-05-03T15:33:10.999Z</time></trkpt><trkpt lat="45.35023154589759" lon="8.89991107281285"><ele>84.0</ele><time>2026-05-03T15:33:11.999Z</time></trkpt><trkpt lat="45.350319034855254" lon="8.900207714585857"><ele>84.0</ele><time>2026-05-03T15:33:12.999Z</time></trkpt><trkpt lat="45.35039280990532" lon="8.900514472966115"><ele>84.0</ele><time>2026-05-03T15:33:13.999Z</time></trkpt><trkpt lat="45.3504688279541" lon="8.900813974242133"><ele>84.0</ele><time>2026-05-03T15:33:14.999Z</time></trkpt><trkpt lat="45.35054712507429" lon="8.901094326256903"><ele>84.0</ele><time>2026-05-03T15:33:15.999Z</time></trkpt><trkpt lat="45.35061945321482" lon="8.901362520811407"><ele>84.33333333333333</ele><time>2026-05-03T15:33:16.999Z</time></trkpt><trkpt lat="45.35068527120294" lon="8.901632468691806"><ele>84.66666666666666</ele><time>2026-05-03T15:33:17.999Z</time></trkpt><trkpt lat="45.35075752644884" lon="8.90189597061242"><ele>85.0</ele><time>2026-05-03T15:33:18.999Z</time></trkpt><trkpt lat="45.350838880941545" lon="8.9021621537755"><ele>85.0</ele><time>2026-05-03T15:33:19.999Z</time></trkpt><trkpt lat="45.35090376563673" lon="8.902421523311858"><ele>85.0</ele><time>2026-05-03T15:33:20.999Z</time></trkpt><trkpt lat="45.35096691253186" lon="8.902673093646808"><ele>85.0</ele><time>2026-05-03T15:33:21.999Z</time></trkpt><trkpt lat="45.35103036911919" lon="8.902925727542913"><ele>85.33333333333333</ele><time>2026-05-03T15:33:22.999Z</time></trkpt><trkpt lat="45.35109138596355" lon="8.903173075781456"><ele>85.66666666666667</ele><time>2026-05-03T15:33:23.999Z</time></trkpt><trkpt lat="45.35115346337665" lon="8.903407265457702"><ele>86.0</ele><time>2026-05-03T15:33:24.999Z</time></trkpt><trkpt lat="45.35121768833874" lon="8.90362607130342"><ele>86.0</ele><time>2026-05-03T15:33:25.999Z</time></trkpt><trkpt lat="45.35127861611353" lon="8.903844297091315"><ele>86.0</ele><time>2026-05-03T15:33:26.999Z</time></trkpt><trkpt lat="45.35133009702502" lon="8.904049276510719"><ele>86.0</ele><time>2026-05-03T15:33:27.999Z</time></trkpt><trkpt lat="45.351387104026706" lon="8.904250677690166"><ele>86.0</ele><time>2026-05-03T15:33:28.999Z</time></trkpt><trkpt lat="45.35144666500657" lon="8.904458463829195"><ele>86.0</ele><time>2026-05-03T15:33:29.999Z</time></trkpt><trkpt lat="45.35150617080415" lon="8.90467153067183"><ele>86.0</ele><time>2026-05-03T15:33:30.999Z</time></trkpt><trkpt lat="45.35156816934072" lon="8.904890592688572"><ele>86.0</ele><time>2026-05-03T15:33:31.999Z</time></trkpt><trkpt lat="45.35162190306538" lon="8.905109080315603"><ele>86.0</ele><time>2026-05-03T15:33:32.999Z</time></trkpt><trkpt lat="45.351681775305664" lon="8.905333921097652"><ele>86.0</ele><time>2026-05-03T15:33:33.999Z</time></trkpt><trkpt lat="45.351741435227844" lon="8.905559603180318"><ele>86.0</ele><time>2026-05-03T15:33:34.999Z</time></trkpt><trkpt lat="45.351806836128645" lon="8.905792733024038"><ele>86.0</ele><time>2026-05-03T15:33:35.999Z</time></trkpt><trkpt lat="45.351841370078375" lon="8.90604178097504"><ele>86.0</ele><time>2026-05-03T15:33:36.999Z</time></trkpt><trkpt lat="45.35191685531654" lon="8.90627256047428"><ele>86.0</ele><time>2026-05-03T15:33:37.999Z</time></trkpt><trkpt lat="45.352013065099456" lon="8.906494102081881"><ele>86.0</ele><time>2026-05-03T15:33:38.999Z</time></trkpt><trkpt lat="45.352114245763836" lon="8.906688743098135"><ele>86.0</ele><time>2026-05-03T15:33:39.999Z</time></trkpt><trkpt lat="45.35221589615373" lon="8.90686606552605"><ele>86.33333333333334</ele><time>2026-05-03T15:33:40.999Z</time></trkpt><trkpt lat="45.35232778784268" lon="8.907042643936432"><ele>86.66666666666667</ele><time>2026-05-03T15:33:41.999Z</time></trkpt><trkpt lat="45.35244461254564" lon="8.907205942156146"><ele>87.0</ele><time>2026-05-03T15:33:43Z</time></trkpt><trkpt lat="45.352577707847196" lon="8.907367942580562"><ele>87.0</ele><time>2026-05-03T15:33:44Z</time></trkpt><trkpt lat="45.35272456806531" lon="8.90752643639643"><ele>87.0</ele><time>2026-05-03T15:33:45Z</time></trkpt><trkpt lat="45.35286894988422" lon="8.907658653983583"><ele>87.0</ele><time>2026-05-03T15:33:46Z</time></trkpt><trkpt lat="45.353010897007096" lon="8.907773213891335"><ele>87.33333333333333</ele><time>2026-05-03T15:33:47Z</time></trkpt><trkpt lat="45.35315456858345" lon="8.907873910228847"><ele>87.66666666666666</ele><time>2026-05-03T15:33:48Z</time></trkpt><trkpt lat="45.35329352880186" lon="8.90795974648156"><ele>88.0</ele><time>2026-05-03T15:33:49Z</time></trkpt><trkpt lat="45.35342877705301" lon="8.90803200344907"><ele>88.0</ele><time>2026-05-03T15:33:50Z</time></trkpt><trkpt lat="45.35355866132987" lon="8.90808737735078"><ele>88.0</ele><time>2026-05-03T15:33:51Z</time></trkpt><trkpt lat="45.35368027043657" lon="8.90813243876833"><ele>88.0</ele><time>2026-05-03T15:33:52Z</time></trkpt><trkpt lat="45.35379886430843" lon="8.90816700284834"><ele>88.0</ele><time>2026-05-03T15:33:53Z</time></trkpt><trkpt lat="45.35391567541008" lon="8.908198908429458"><ele>87.75</ele><time>2026-05-03T15:33:54Z</time></trkpt><trkpt lat="45.35403910935817" lon="8.908226843178126"><ele>87.5</ele><time>2026-05-03T15:33:55Z</time></trkpt><trkpt lat="45.35417385211563" lon="8.908248932205161"><ele>87.25</ele><time>2026-05-03T15:33:56Z</time></trkpt><trkpt lat="45.35431355649698" lon="8.908263324679474"><ele>87.0</ele><time>2026-05-03T15:33:57Z</time></trkpt><trkpt lat="45.354461753066104" lon="8.908286241468696"><ele>87.0</ele><time>2026-05-03T15:33:58Z</time></trkpt><trkpt lat="45.354615141983246" lon="8.908312956153187"><ele>87.0</ele><time>2026-05-03T15:33:59Z</time></trkpt><trkpt lat="45.354750757688784" lon="8.908329496517824"><ele>87.0</ele><time>2026-05-03T15:34:00Z</time></trkpt><trkpt lat="45.35487668812327" lon="8.908347957614913"><ele>87.0</ele><time>2026-05-03T15:34:01Z</time></trkpt><trkpt lat="45.355000765908535" lon="8.9083622899691"><ele>87.0</ele><time>2026-05-03T15:34:02Z</time></trkpt><trkpt lat="45.35511573057186" lon="8.908376442218703"><ele>87.0</ele><time>2026-05-03T15:34:03Z</time></trkpt><trkpt lat="45.355207558156486" lon="8.908423610421622"><ele>87.0</ele><time>2026-05-03T15:34:04Z</time></trkpt><trkpt lat="45.35529766653543" lon="8.908424347455504"><ele>87.0</ele><time>2026-05-03T15:34:05Z</time></trkpt><trkpt lat="45.355383550813976" lon="8.908430352538895"><ele>87.0</ele><time>2026-05-03T15:34:06Z</time></trkpt><trkpt lat="45.35548701845106" lon="8.908430495859474"><ele>87.0</ele><time>2026-05-03T15:34:07Z</time></trkpt><trkpt lat="45.355610055713356" lon="8.908455707172537"><ele>87.0</ele><time>2026-05-03T15:34:08Z</time></trkpt><trkpt lat="45.35574569077887" lon="8.908462247289375"><ele>87.0</ele><time>2026-05-03T15:34:09Z</time></trkpt><trkpt lat="45.35588178738124" lon="8.908483149576625"><ele>87.0</ele><time>2026-05-03T15:34:10Z</time></trkpt><trkpt lat="45.3560361566571" lon="8.90849462555974"><ele>87.0</ele><time>2026-05-03T15:34:11Z</time></trkpt><trkpt lat="45.35620712374001" lon="8.908515581851002"><ele>87.0</ele><time>2026-05-03T15:34:12Z</time></trkpt><trkpt lat="45.35636775558844" lon="8.908543119163017"><ele>87.0</ele><time>2026-05-03T15:34:13Z</time></trkpt><trkpt lat="45.356522524954464" lon="8.90856258494775"><ele>87.0</ele><time>2026-05-03T15:34:14Z</time></trkpt><trkpt lat="45.35668568792664" lon="8.908602681346915"><ele>87.0</ele><time>2026-05-03T15:34:15Z</time></trkpt><trkpt lat="45.35684790366765" lon="8.90862871785468"><ele>87.0</ele><time>2026-05-03T15:34:16Z</time></trkpt><trkpt lat="45.357014143104266" lon="8.908660711874766"><ele>87.0</ele><time>2026-05-03T15:34:17Z</time></trkpt><trkpt lat="45.357185266702004" lon="8.908694239837315"><ele>87.0</ele><time>2026-05-03T15:34:18Z</time></trkpt><trkpt lat="45.357362345277224" lon="8.908727314552342"><ele>87.0</ele><time>2026-05-03T15:34:19Z</time></trkpt><trkpt lat="45.35753112313011" lon="8.908754286734357"><ele>88.33333333333333</ele><time>2026-05-03T15:34:20Z</time></trkpt><trkpt lat="45.357698924868075" lon="8.90877716994434"><ele>89.66666666666666</ele><time>2026-05-03T15:34:21Z</time></trkpt><trkpt lat="45.357882225827495" lon="8.908804534747118"><ele>91.0</ele><time>2026-05-03T15:34:22Z</time></trkpt><trkpt lat="45.358063455222336" lon="8.908760961279572"><ele>91.33333333333333</ele><time>2026-05-03T15:34:23Z</time></trkpt><trkpt lat="45.35825061453846" lon="8.908789912238246"><ele>91.66666666666667</ele><time>2026-05-03T15:34:24Z</time></trkpt><trkpt lat="45.35844538254744" lon="8.908827624523337"><ele>92.0</ele><time>2026-05-03T15:34:25Z</time></trkpt><trkpt lat="45.35863386360667" lon="8.908859606271449"><ele>92.0</ele><time>2026-05-03T15:34:26Z</time></trkpt><trkpt lat="45.35881415656906" lon="8.908947080246685"><ele>92.0</ele><time>2026-05-03T15:34:27Z</time></trkpt><trkpt lat="45.359017531009094" lon="8.908905261376992"><ele>92.0</ele><time>2026-05-03T15:34:28Z</time></trkpt><trkpt lat="45.359217253513194" lon="8.908932703260367"><ele>91.66666666666667</ele><time>2026-05-03T15:34:29Z</time></trkpt><trkpt lat="45.359429718653814" lon="8.90896538867814"><ele>91.33333333333333</ele><time>2026-05-03T15:34:30Z</time></trkpt><trkpt lat="45.35965254812627" lon="8.909001382916095"><ele>91.0</ele><time>2026-05-03T15:34:31Z</time></trkpt><trkpt lat="45.35988855861848" lon="8.909032970853076"><ele>92.0</ele><time>2026-05-03T15:34:32Z</time></trkpt><trkpt lat="45.360130194474316" lon="8.909081769665093"><ele>93.0</ele><time>2026-05-03T15:34:33Z</time></trkpt><trkpt lat="45.36036340032236" lon="8.909139428943023"><ele>93.33333333333333</ele><time>2026-05-03T15:34:34Z</time></trkpt><trkpt lat="45.36059091960991" lon="8.90918912209029"><ele>93.66666666666666</ele><time>2026-05-03T15:34:35Z</time></trkpt><trkpt lat="45.36080680224385" lon="8.909226144956744"><ele>94.0</ele><time>2026-05-03T15:34:36Z</time></trkpt><trkpt lat="45.36101522880567" lon="8.909266262801541"><ele>94.33333333333333</ele><time>2026-05-03T15:34:37Z</time></trkpt><trkpt lat="45.36122031062081" lon="8.909300802033775"><ele>94.66666666666667</ele><time>2026-05-03T15:34:38Z</time></trkpt><trkpt lat="45.36141615520568" lon="8.909334606733704"><ele>95.0</ele><time>2026-05-03T15:34:39Z</time></trkpt><trkpt lat="45.36161999628605" lon="8.909368784896706"><ele>93.66666666666667</ele><time>2026-05-03T15:34:40Z</time></trkpt><trkpt lat="45.36181523194569" lon="8.909407782785928"><ele>92.33333333333333</ele><time>2026-05-03T15:34:41Z</time></trkpt><trkpt lat="45.36201383406842" lon="8.909429547826129"><ele>91.0</ele><time>2026-05-03T15:34:42Z</time></trkpt><trkpt lat="45.3622139323788" lon="8.909459414273664"><ele>90.66666666666666</ele><time>2026-05-03T15:34:43Z</time></trkpt><trkpt lat="45.362401501885586" lon="8.909471155719245"><ele>90.33333333333333</ele><time>2026-05-03T15:34:44Z</time></trkpt><trkpt lat="45.36257594513146" lon="8.909496007402755"><ele>90.0</ele><time>2026-05-03T15:34:45Z</time></trkpt><trkpt lat="45.36274954695945" lon="8.909523379649519"><ele>90.0</ele><time>2026-05-03T15:34:46Z</time></trkpt><trkpt lat="45.36293285155061" lon="8.909582233169472"><ele>90.0</ele><time>2026-05-03T15:34:47Z</time></trkpt><trkpt lat="45.36313695363151" lon="8.909613166284114"><ele>90.0</ele><time>2026-05-03T15:34:48Z</time></trkpt><trkpt lat="45.363347940294254" lon="8.90964541716807"><ele>90.66666666666667</ele><time>2026-05-03T15:34:49Z</time></trkpt><trkpt lat="45.36355892195711" lon="8.909654759927166"><ele>91.33333333333334</ele><time>2026-05-03T15:34:50Z</time></trkpt><trkpt lat="45.36376310945113" lon="8.909690000843165"><ele>92.0</ele><time>2026-05-03T15:34:51Z</time></trkpt><trkpt lat="45.36396253093257" lon="8.909722866791506"><ele>92.0</ele><time>2026-05-03T15:34:52Z</time></trkpt><trkpt lat="45.36416511786276" lon="8.90975956460496"><ele>92.0</ele><time>2026-05-03T15:34:53Z</time></trkpt><trkpt lat="45.36435593362482" lon="8.909795877486337"><ele>92.0</ele><time>2026-05-03T15:34:54Z</time></trkpt><trkpt lat="45.36454814694111" lon="8.909831002899809"><ele>92.0</ele><time>2026-05-03T15:34:55Z</time></trkpt><trkpt lat="45.364745716445" lon="8.909855640486805"><ele>92.0</ele><time>2026-05-03T15:34:56Z</time></trkpt><trkpt lat="45.36495512109394" lon="8.909872487363453"><ele>92.0</ele><time>2026-05-03T15:34:57Z</time></trkpt><trkpt lat="45.36519082833965" lon="8.909930738624315"><ele>92.0</ele><time>2026-05-03T15:34:58Z</time></trkpt><trkpt lat="45.36542424724958" lon="8.90996762815841"><ele>92.0</ele><time>2026-05-03T15:34:58.999Z</time></trkpt><trkpt lat="45.365670673222404" lon="8.909988885173227"><ele>93.0</ele><time>2026-05-03T15:34:59.999Z</time></trkpt><trkpt lat="45.365910085328004" lon="8.91003424675804"><ele>94.0</ele><time>2026-05-03T15:35:00.999Z</time></trkpt><trkpt lat="45.366141368800186" lon="8.910077896626033"><ele>94.66666666666666</ele><time>2026-05-03T15:35:01.999Z</time></trkpt><trkpt lat="45.36636811446451" lon="8.910115125027126"><ele>95.33333333333333</ele><time>2026-05-03T15:35:02.999Z</time></trkpt><trkpt lat="45.3665802401631" lon="8.910149403467113"><ele>96.0</ele><time>2026-05-03T15:35:03.999Z</time></trkpt><trkpt lat="45.36677771276192" lon="8.91018540751453"><ele>96.0</ele><time>2026-05-03T15:35:04.999Z</time></trkpt><trkpt lat="45.36697648654944" lon="8.91021417861909"><ele>96.0</ele><time>2026-05-03T15:35:05.999Z</time></trkpt><trkpt lat="45.367181118476864" lon="8.910241084061598"><ele>96.0</ele><time>2026-05-03T15:35:06.999Z</time></trkpt><trkpt lat="45.36739200274005" lon="8.910269591304806"><ele>96.33333333333334</ele><time>2026-05-03T15:35:07.999Z</time></trkpt><trkpt lat="45.3675976062949" lon="8.910296416380882"><ele>96.66666666666667</ele><time>2026-05-03T15:35:08.999Z</time></trkpt><trkpt lat="45.36779667828647" lon="8.91033676971914"><ele>97.0</ele><time>2026-05-03T15:35:09.999Z</time></trkpt><trkpt lat="45.36798596264714" lon="8.910368768088244"><ele>96.66666666666667</ele><time>2026-05-03T15:35:10.999Z</time></trkpt><trkpt lat="45.36818286361125" lon="8.910396407172469"><ele>96.33333333333334</ele><time>2026-05-03T15:35:11.999Z</time></trkpt><trkpt lat="45.36839494396749" lon="8.910399144603357"><ele>96.0</ele><time>2026-05-03T15:35:12.999Z</time></trkpt><trkpt lat="45.36861077289291" lon="8.91041814193502"><ele>96.0</ele><time>2026-05-03T15:35:13.999Z</time></trkpt><trkpt lat="45.36882809590078" lon="8.910427563355425"><ele>96.0</ele><time>2026-05-03T15:35:14.999Z</time></trkpt><trkpt lat="45.369054962776055" lon="8.910456371805939"><ele>96.0</ele><time>2026-05-03T15:35:15.999Z</time></trkpt><trkpt lat="45.36929038632364" lon="8.91048398802916"><ele>96.0</ele><time>2026-05-03T15:35:16.999Z</time></trkpt><trkpt lat="45.36951873165005" lon="8.910520161451892"><ele>96.0</ele><time>2026-05-03T15:35:17.999Z</time></trkpt><trkpt lat="45.36974578699821" lon="8.910548937839105"><ele>96.5</ele><time>2026-05-03T15:35:18.999Z</time></trkpt><trkpt lat="45.36997197131755" lon="8.910583324809071"><ele>97.0</ele><time>2026-05-03T15:35:19.999Z</time></trkpt><trkpt lat="45.3701988475442" lon="8.910598075638731"><ele>97.0</ele><time>2026-05-03T15:35:20.999Z</time></trkpt><trkpt lat="45.3704207055501" lon="8.910618414018536"><ele>97.0</ele><time>2026-05-03T15:35:21.999Z</time></trkpt><trkpt lat="45.37064031506785" lon="8.910628507868498"><ele>97.0</ele><time>2026-05-03T15:35:22.999Z</time></trkpt><trkpt lat="45.370857611496646" lon="8.910662039567049"><ele>97.0</ele><time>2026-05-03T15:35:23.999Z</time></trkpt><trkpt lat="45.371069407665246" lon="8.91069014132237"><ele>97.0</ele><time>2026-05-03T15:35:24.999Z</time></trkpt><trkpt lat="45.37125890640999" lon="8.910737326385442"><ele>97.0</ele><time>2026-05-03T15:35:25.999Z</time></trkpt><trkpt lat="45.37146488075577" lon="8.91077829169543"><ele>97.0</ele><time>2026-05-03T15:35:26.999Z</time></trkpt><trkpt lat="45.3716653418506" lon="8.910811705925026"><ele>97.0</ele><time>2026-05-03T15:35:27.999Z</time></trkpt><trkpt lat="45.37188004791233" lon="8.910821784005455"><ele>97.0</ele><time>2026-05-03T15:35:28.999Z</time></trkpt><trkpt lat="45.37210587163516" lon="8.910845037566869"><ele>97.0</ele><time>2026-05-03T15:35:29.999Z</time></trkpt><trkpt lat="45.37234420866375" lon="8.910869722837194"><ele>97.0</ele><time>2026-05-03T15:35:30.999Z</time></trkpt><trkpt lat="45.37258503890154" lon="8.91091882670353"><ele>97.0</ele><time>2026-05-03T15:35:31.999Z</time></trkpt><trkpt lat="45.372807592233166" lon="8.91099143405527"><ele>97.0</ele><time>2026-05-03T15:35:32.999Z</time></trkpt><trkpt lat="45.37305130198829" lon="8.911026806136404"><ele>97.0</ele><time>2026-05-03T15:35:33.999Z</time></trkpt><trkpt lat="45.37329182938999" lon="8.911053277437258"><ele>97.0</ele><time>2026-05-03T15:35:34.999Z</time></trkpt><trkpt lat="45.373545406555294" lon="8.911077421302155"><ele>97.0</ele><time>2026-05-03T15:35:35.999Z</time></trkpt><trkpt lat="45.373775281646395" lon="8.911103121890358"><ele>97.0</ele><time>2026-05-03T15:35:36.999Z</time></trkpt><trkpt lat="45.37401814260682" lon="8.911102783049587"><ele>97.0</ele><time>2026-05-03T15:35:37.999Z</time></trkpt><trkpt lat="45.374250849818516" lon="8.911112182006496"><ele>97.0</ele><time>2026-05-03T15:35:38.999Z</time></trkpt><trkpt lat="45.374473118212855" lon="8.911166740384253"><ele>97.0</ele><time>2026-05-03T15:35:39.999Z</time></trkpt><trkpt lat="45.37467532229747" lon="8.911234878545269"><ele>97.0</ele><time>2026-05-03T15:35:40.999Z</time></trkpt><trkpt lat="45.3748525241846" lon="8.911329547625416"><ele>97.0</ele><time>2026-05-03T15:35:41.999Z</time></trkpt><trkpt lat="45.3750253617282" lon="8.91143190998808"><ele>97.33333333333334</ele><time>2026-05-03T15:35:42.999Z</time></trkpt><trkpt lat="45.37519252060873" lon="8.91153283981127"><ele>97.66666666666666</ele><time>2026-05-03T15:35:43.999Z</time></trkpt><trkpt lat="45.37534929706566" lon="8.911633458403708"><ele>98.0</ele><time>2026-05-03T15:35:44.999Z</time></trkpt><trkpt lat="45.37549661691519" lon="8.91173812510247"><ele>99.0</ele><time>2026-05-03T15:35:45.999Z</time></trkpt><trkpt lat="45.375617917200934" lon="8.911824775633479"><ele>100.0</ele><time>2026-05-03T15:35:46.999Z</time></trkpt><trkpt lat="45.37571519950196" lon="8.91189041494298"><ele>101.0</ele><time>2026-05-03T15:35:47.999Z</time></trkpt><trkpt lat="45.37580863120603" lon="8.911945813599441"><ele>102.0</ele><time>2026-05-03T15:35:49Z</time></trkpt><trkpt lat="45.375895018045235" lon="8.91200973572423"><ele>103.0</ele><time>2026-05-03T15:35:50Z</time></trkpt><trkpt lat="45.37600379228438" lon="8.91207750405932"><ele>103.0</ele><time>2026-05-03T15:35:51Z</time></trkpt><trkpt lat="45.37611496706499" lon="8.91215170094892"><ele>103.0</ele><time>2026-05-03T15:35:52Z</time></trkpt><trkpt lat="45.37621627114101" lon="8.912218585298522"><ele>103.0</ele><time>2026-05-03T15:35:53Z</time></trkpt><trkpt lat="45.376344830470515" lon="8.912285704325921"><ele>103.0</ele><time>2026-05-03T15:35:54Z</time></trkpt><trkpt lat="45.37649835167173" lon="8.912363154567714"><ele>103.66666666666667</ele><time>2026-05-03T15:35:55Z</time></trkpt><trkpt lat="45.37666974921585" lon="8.912477785757835"><ele>104.33333333333334</ele><time>2026-05-03T15:35:56Z</time></trkpt><trkpt lat="45.37685302064952" lon="8.912612433845473"><ele>105.0</ele><time>2026-05-03T15:35:57Z</time></trkpt><trkpt lat="45.37705247670686" lon="8.912742342899216"><ele>106.0</ele><time>2026-05-03T15:35:58Z</time></trkpt><trkpt lat="45.37724837168839" lon="8.912846707140776"><ele>107.0</ele><time>2026-05-03T15:35:59Z</time></trkpt><trkpt lat="45.37744952996599" lon="8.912943476865085"><ele>108.0</ele><time>2026-05-03T15:36:00Z</time></trkpt><trkpt lat="45.37767039214963" lon="8.913051780702002"><ele>108.0</ele><time>2026-05-03T15:36:01Z</time></trkpt><trkpt lat="45.37789263317281" lon="8.913155949400327"><ele>108.0</ele><time>2026-05-03T15:36:02Z</time></trkpt><trkpt lat="45.37812465382583" lon="8.913280609640523"><ele>107.0</ele><time>2026-05-03T15:36:03Z</time></trkpt><trkpt lat="45.37834879953816" lon="8.913378254984645"><ele>106.0</ele><time>2026-05-03T15:36:04Z</time></trkpt><trkpt lat="45.378565015547174" lon="8.9134867632839"><ele>106.0</ele><time>2026-05-03T15:36:05Z</time></trkpt><trkpt lat="45.37879998772216" lon="8.913605344716512"><ele>106.0</ele><time>2026-05-03T15:36:06Z</time></trkpt><trkpt lat="45.379040880333875" lon="8.913698862043272"><ele>107.0</ele><time>2026-05-03T15:36:07Z</time></trkpt><trkpt lat="45.37928849320354" lon="8.913775691780023"><ele>108.0</ele><time>2026-05-03T15:36:08Z</time></trkpt><trkpt lat="45.37952922968776" lon="8.913883861264704"><ele>108.0</ele><time>2026-05-03T15:36:09Z</time></trkpt><trkpt lat="45.37978962285376" lon="8.913988987118275"><ele>108.0</ele><time>2026-05-03T15:36:10Z</time></trkpt><trkpt lat="45.38006889962808" lon="8.91410272437444"><ele>108.0</ele><time>2026-05-03T15:36:11Z</time></trkpt><trkpt lat="45.38032103189498" lon="8.914208652799257"><ele>108.0</ele><time>2026-05-03T15:36:12Z</time></trkpt><trkpt lat="45.38057403798749" lon="8.914309236822001"><ele>108.5</ele><time>2026-05-03T15:36:13Z</time></trkpt><trkpt lat="45.38083045756827" lon="8.914424439723632"><ele>109.0</ele><time>2026-05-03T15:36:14Z</time></trkpt><trkpt lat="45.38107987670362" lon="8.914527945267734"><ele>109.0</ele><time>2026-05-03T15:36:15Z</time></trkpt><trkpt lat="45.381320270707405" lon="8.91465652147415"><ele>109.0</ele><time>2026-05-03T15:36:16Z</time></trkpt><trkpt lat="45.381567639153744" lon="8.914725720095957"><ele>108.0</ele><time>2026-05-03T15:36:17Z</time></trkpt><trkpt lat="45.38184199739982" lon="8.914841436780282"><ele>107.0</ele><time>2026-05-03T15:36:18Z</time></trkpt><trkpt lat="45.382069391058245" lon="8.914937347856453"><ele>107.5</ele><time>2026-05-03T15:36:19Z</time></trkpt><trkpt lat="45.38228649251854" lon="8.915023709963874"><ele>108.0</ele><time>2026-05-03T15:36:20Z</time></trkpt><trkpt lat="45.382494743677185" lon="8.91516804236175"><ele>108.0</ele><time>2026-05-03T15:36:21Z</time></trkpt><trkpt lat="45.38270962460802" lon="8.915250359651365"><ele>108.0</ele><time>2026-05-03T15:36:22Z</time></trkpt><trkpt lat="45.38290825381138" lon="8.915356709716393"><ele>108.0</ele><time>2026-05-03T15:36:23Z</time></trkpt><trkpt lat="45.383105265859534" lon="8.915478560641112"><ele>108.0</ele><time>2026-05-03T15:36:24Z</time></trkpt><trkpt lat="45.38327895198536" lon="8.91558690937074"><ele>108.0</ele><time>2026-05-03T15:36:25Z</time></trkpt><trkpt lat="45.3834547919141" lon="8.915695524440524"><ele>108.0</ele><time>2026-05-03T15:36:26Z</time></trkpt><trkpt lat="45.38359522692049" lon="8.915799303987898"><ele>108.0</ele><time>2026-05-03T15:36:27Z</time></trkpt><trkpt lat="45.38372871517239" lon="8.91588688737219"><ele>108.0</ele><time>2026-05-03T15:36:28Z</time></trkpt><trkpt lat="45.38383675868292" lon="8.915988261412751"><ele>108.0</ele><time>2026-05-03T15:36:29Z</time></trkpt><trkpt lat="45.38391115659335" lon="8.916115501845457"><ele>108.0</ele><time>2026-05-03T15:36:30Z</time></trkpt><trkpt lat="45.38394305740088" lon="8.916276201916398"><ele>108.2</ele><time>2026-05-03T15:36:31Z</time></trkpt><trkpt lat="45.383936242246094" lon="8.916395437060682"><ele>108.4</ele><time>2026-05-03T15:36:32Z</time></trkpt><trkpt lat="45.383935053380426" lon="8.916513259116769"><ele>108.60000000000001</ele><time>2026-05-03T15:36:33Z</time></trkpt><trkpt lat="45.38399789341251" lon="8.916601243491876"><ele>108.80000000000001</ele><time>2026-05-03T15:36:34Z</time></trkpt><trkpt lat="45.38407805082619" lon="8.916675243471136"><ele>109.0</ele><time>2026-05-03T15:36:35Z</time></trkpt><trkpt lat="45.38419826806177" lon="8.91668240602212"><ele>109.0</ele><time>2026-05-03T15:36:36Z</time></trkpt><trkpt lat="45.38429998458825" lon="8.916560738479067"><ele>109.0</ele><time>2026-05-03T15:36:37Z</time></trkpt><trkpt lat="45.384404590302466" lon="8.916512153576518"><ele>109.0</ele><time>2026-05-03T15:36:38Z</time></trkpt><trkpt lat="45.38451518612185" lon="8.916532506249466"><ele>109.0</ele><time>2026-05-03T15:36:39Z</time></trkpt><trkpt lat="45.3846286446748" lon="8.916593147570996"><ele>109.75</ele><time>2026-05-03T15:36:40Z</time></trkpt><trkpt lat="45.38474107081372" lon="8.916634794061574"><ele>110.5</ele><time>2026-05-03T15:36:41Z</time></trkpt><trkpt lat="45.384851133160936" lon="8.916689345822304"><ele>111.25</ele><time>2026-05-03T15:36:42Z</time></trkpt><trkpt lat="45.38495143926558" lon="8.916789535462666"><ele>112.0</ele><time>2026-05-03T15:36:43Z</time></trkpt><trkpt lat="45.385058151452654" lon="8.91686232506059"><ele>112.39999999999999</ele><time>2026-05-03T15:36:44Z</time></trkpt><trkpt lat="45.38515735976282" lon="8.916919670180771"><ele>112.79999999999998</ele><time>2026-05-03T15:36:45Z</time></trkpt><trkpt lat="45.385257392813" lon="8.916980717435948"><ele>113.2</ele><time>2026-05-03T15:36:46Z</time></trkpt><trkpt lat="45.38535651214405" lon="8.917047527351263"><ele>113.6</ele><time>2026-05-03T15:36:47Z</time></trkpt><trkpt lat="45.38546419642259" lon="8.91711650679565"><ele>114.0</ele><time>2026-05-03T15:36:48Z</time></trkpt><trkpt lat="45.38557087831966" lon="8.917194457114435"><ele>114.0</ele><time>2026-05-03T15:36:49Z</time></trkpt><trkpt lat="45.38567622653799" lon="8.91726888776375"><ele>114.0</ele><time>2026-05-03T15:36:50Z</time></trkpt><trkpt lat="45.38577457334699" lon="8.917343462911804"><ele>114.0</ele><time>2026-05-03T15:36:51Z</time></trkpt><trkpt lat="45.38587568537505" lon="8.91742118942085"><ele>114.0</ele><time>2026-05-03T15:36:52Z</time></trkpt><trkpt lat="45.38596724785021" lon="8.917510917351487"><ele>114.4</ele><time>2026-05-03T15:36:53Z</time></trkpt><trkpt lat="45.386035470421966" lon="8.917591438792275"><ele>114.80000000000001</ele><time>2026-05-03T15:36:54Z</time></trkpt><trkpt lat="45.38612835173985" lon="8.917694534313485"><ele>115.19999999999999</ele><time>2026-05-03T15:36:55Z</time></trkpt><trkpt lat="45.38621490093199" lon="8.917791641843937"><ele>115.6</ele><time>2026-05-03T15:36:56Z</time></trkpt><trkpt lat="45.38629749726411" lon="8.91788555510222"><ele>116.0</ele><time>2026-05-03T15:36:57Z</time></trkpt><trkpt lat="45.386382130291054" lon="8.917984711086428"><ele>116.16666666666666</ele><time>2026-05-03T15:36:58Z</time></trkpt><trkpt lat="45.386449920949865" lon="8.918079881148087"><ele>116.33333333333333</ele><time>2026-05-03T15:36:59Z</time></trkpt><trkpt lat="45.386499840680216" lon="8.918175555518458"><ele>116.5</ele><time>2026-05-03T15:37:00Z</time></trkpt><trkpt lat="45.38656054163589" lon="8.918270390178712"><ele>116.66666666666666</ele><time>2026-05-03T15:37:01Z</time></trkpt><trkpt lat="45.38662045893429" lon="8.91836850476297"><ele>116.83333333333333</ele><time>2026-05-03T15:37:02Z</time></trkpt><trkpt lat="45.38667395400746" lon="8.918459161266076"><ele>117.0</ele><time>2026-05-03T15:37:03Z</time></trkpt><trkpt lat="45.38672713445804" lon="8.918568599082086"><ele>117.0</ele><time>2026-05-03T15:37:04Z</time></trkpt><trkpt lat="45.38678672194417" lon="8.918691367111618"><ele>117.0</ele><time>2026-05-03T15:37:05Z</time></trkpt><trkpt lat="45.386844089598604" lon="8.918838843403693"><ele>117.0</ele><time>2026-05-03T15:37:06Z</time></trkpt><trkpt lat="45.38690289452086" lon="8.918992629939478"><ele>117.0</ele><time>2026-05-03T15:37:07Z</time></trkpt><trkpt lat="45.38692956087205" lon="8.919142462047484"><ele>117.0</ele><time>2026-05-03T15:37:08Z</time></trkpt><trkpt lat="45.386976889059795" lon="8.919290667279995"><ele>116.99999999999999</ele><time>2026-05-03T15:37:09Z</time></trkpt><trkpt lat="45.38702083038858" lon="8.919428052117322"><ele>116.99999999999999</ele><time>2026-05-03T15:37:10Z</time></trkpt><trkpt lat="45.38705881485408" lon="8.919561713736469"><ele>117.0</ele><time>2026-05-03T15:37:11Z</time></trkpt><trkpt lat="45.38709714978556" lon="8.919690920930845"><ele>117.0</ele><time>2026-05-03T15:37:12Z</time></trkpt><trkpt lat="45.38713687942549" lon="8.91981563581994"><ele>117.0</ele><time>2026-05-03T15:37:13Z</time></trkpt><trkpt lat="45.387161976945855" lon="8.919955388996625"><ele>116.99999999999999</ele><time>2026-05-03T15:37:14Z</time></trkpt><trkpt lat="45.38721759256526" lon="8.920071356149483"><ele>116.99999999999999</ele><time>2026-05-03T15:37:14.999Z</time></trkpt><trkpt lat="45.38724823591282" lon="8.920205247505608"><ele>117.0</ele><time>2026-05-03T15:37:15.999Z</time></trkpt><trkpt lat="45.38727640710564" lon="8.920343606159218"><ele>117.0</ele><time>2026-05-03T15:37:16.999Z</time></trkpt><trkpt lat="45.387307138965994" lon="8.920489615238672"><ele>117.0</ele><time>2026-05-03T15:37:17.999Z</time></trkpt><trkpt lat="45.38734461111435" lon="8.920636659059515"><ele>116.99999999999999</ele><time>2026-05-03T15:37:18.999Z</time></trkpt><trkpt lat="45.38739466787185" lon="8.920781532772155"><ele>116.99999999999999</ele><time>2026-05-03T15:37:19.999Z</time></trkpt><trkpt lat="45.38743802413056" lon="8.920923374407554"><ele>117.0</ele><time>2026-05-03T15:37:20.999Z</time></trkpt><trkpt lat="45.38747859130392" lon="8.921071307982936"><ele>117.0</ele><time>2026-05-03T15:37:21.999Z</time></trkpt><trkpt lat="45.38751469220781" lon="8.92119839186761"><ele>117.0</ele><time>2026-05-03T15:37:22.999Z</time></trkpt><trkpt lat="45.387550846342954" lon="8.921321986841575"><ele>117.0</ele><time>2026-05-03T15:37:23.999Z</time></trkpt><trkpt lat="45.38758875299276" lon="8.921424034684861"><ele>117.0</ele><time>2026-05-03T15:37:24.999Z</time></trkpt><trkpt lat="45.38763330479909" lon="8.921561749663484"><ele>117.0</ele><time>2026-05-03T15:37:26.999Z</time></trkpt><trkpt lat="45.38766380552031" lon="8.921645344095886"><ele>117.0</ele><time>2026-05-03T15:37:28.999Z</time></trkpt><trkpt lat="45.38773431158125" lon="8.921699089997487"><ele>117.0</ele><time>2026-05-03T15:37:31.999Z</time></trkpt><trkpt lat="45.3877329636969" lon="8.921797563596886"><ele>117.0</ele><time>2026-05-03T15:38:00Z</time></trkpt><trkpt lat="45.387771229447196" lon="8.92188230021527"><ele>116.99999999999999</ele><time>2026-05-03T15:38:02Z</time></trkpt><trkpt lat="45.38782212699283" lon="8.921990278519475"><ele>116.99999999999999</ele><time>2026-05-03T15:38:04Z</time></trkpt><trkpt lat="45.38790406096882" lon="8.922016236532558"><ele>117.0</ele><time>2026-05-03T15:38:05Z</time></trkpt><trkpt lat="45.38798528088584" lon="8.922176869541934"><ele>117.0</ele><time>2026-05-03T15:38:07Z</time></trkpt><trkpt lat="45.388047854695444" lon="8.922250511574754"><ele>116.8</ele><time>2026-05-03T15:38:08Z</time></trkpt><trkpt lat="45.38809030625244" lon="8.922407394744381"><ele>116.6</ele><time>2026-05-03T15:38:10Z</time></trkpt><trkpt lat="45.38817462673258" lon="8.922518805079205"><ele>116.39999999999999</ele><time>2026-05-03T15:38:12Z</time></trkpt><trkpt lat="45.38822551115652" lon="8.92258128534775"><ele>116.19999999999999</ele><time>2026-05-03T15:38:13Z</time></trkpt><trkpt lat="45.38830615494481" lon="8.922677735884669"><ele>116.0</ele><time>2026-05-03T15:38:15Z</time></trkpt><trkpt lat="45.388364737648416" lon="8.922754428271801"><ele>115.83333333333333</ele><time>2026-05-03T15:38:16Z</time></trkpt><trkpt lat="45.388443204404204" lon="8.922828536445063"><ele>115.66666666666666</ele><time>2026-05-03T15:38:17Z</time></trkpt><trkpt lat="45.3885162816667" lon="8.922896383328984"><ele>115.5</ele><time>2026-05-03T15:38:18Z</time></trkpt><trkpt lat="45.38858405910198" lon="8.92295483882044"><ele>115.33333333333334</ele><time>2026-05-03T15:38:19Z</time></trkpt><trkpt lat="45.38866874652317" lon="8.92301177538156"><ele>115.16666666666667</ele><time>2026-05-03T15:38:20Z</time></trkpt><trkpt lat="45.388727012883926" lon="8.923096039654492"><ele>115.0</ele><time>2026-05-03T15:38:21Z</time></trkpt><trkpt lat="45.38880783732211" lon="8.923164025731463"><ele>115.6</ele><time>2026-05-03T15:38:22Z</time></trkpt><trkpt lat="45.38888479175443" lon="8.923227088138349"><ele>116.2</ele><time>2026-05-03T15:38:23Z</time></trkpt><trkpt lat="45.38896717278125" lon="8.923278952602576"><ele>116.80000000000001</ele><time>2026-05-03T15:38:24Z</time></trkpt><trkpt lat="45.38905957043937" lon="8.923327103010797"><ele>117.4</ele><time>2026-05-03T15:38:25Z</time></trkpt><trkpt lat="45.38917832204101" lon="8.923371495836822"><ele>118.0</ele><time>2026-05-03T15:38:26Z</time></trkpt><trkpt lat="45.38928173814935" lon="8.923394880673918"><ele>118.0</ele><time>2026-05-03T15:38:27Z</time></trkpt><trkpt lat="45.389376105568786" lon="8.923432596688729"><ele>118.00000000000001</ele><time>2026-05-03T15:38:28Z</time></trkpt><trkpt lat="45.3894772885405" lon="8.923468256549524"><ele>118.00000000000001</ele><time>2026-05-03T15:38:29Z</time></trkpt><trkpt lat="45.389577028197955" lon="8.923509659322484"><ele>118.0</ele><time>2026-05-03T15:38:30Z</time></trkpt><trkpt lat="45.389670839741065" lon="8.923552599142337"><ele>118.0</ele><time>2026-05-03T15:38:31Z</time></trkpt><trkpt lat="45.38977118488038" lon="8.923625522855948"><ele>118.00000000000001</ele><time>2026-05-03T15:38:32Z</time></trkpt><trkpt lat="45.389848634436994" lon="8.92366340306538"><ele>118.0</ele><time>2026-05-03T15:38:33Z</time></trkpt><trkpt lat="45.38992673413048" lon="8.923686004489939"><ele>118.0</ele><time>2026-05-03T15:38:34Z</time></trkpt><trkpt lat="45.389995012101174" lon="8.923734995751744"><ele>118.0</ele><time>2026-05-03T15:38:35Z</time></trkpt><trkpt lat="45.39005567400156" lon="8.92376475410835"><ele>118.00000000000001</ele><time>2026-05-03T15:38:36Z</time></trkpt><trkpt lat="45.39013686420162" lon="8.923804615796987"><ele>118.0</ele><time>2026-05-03T15:38:38Z</time></trkpt><trkpt lat="45.390229130938174" lon="8.923764004368454"><ele>118.0</ele><time>2026-05-03T15:38:39Z</time></trkpt><trkpt lat="45.39031258534402" lon="8.923816026725126"><ele>118.0</ele><time>2026-05-03T15:38:40Z</time></trkpt><trkpt lat="45.39042447308317" lon="8.923877603557745"><ele>118.0</ele><time>2026-05-03T15:38:41Z</time></trkpt><trkpt lat="45.390541558560514" lon="8.923945298987062"><ele>118.0</ele><time>2026-05-03T15:38:42Z</time></trkpt><trkpt lat="45.39066462873948" lon="8.92399871338379"><ele>118.0</ele><time>2026-05-03T15:38:43Z</time></trkpt><trkpt lat="45.39080312893789" lon="8.924058173244616"><ele>118.0</ele><time>2026-05-03T15:38:44Z</time></trkpt><trkpt lat="45.3909492115538" lon="8.924131430853704"><ele>118.0</ele><time>2026-05-03T15:38:45Z</time></trkpt><trkpt lat="45.391078899624304" lon="8.92419519003185"><ele>118.0</ele><time>2026-05-03T15:38:46Z</time></trkpt><trkpt lat="45.39120822017713" lon="8.924257203726862"><ele>117.75</ele><time>2026-05-03T15:38:47Z</time></trkpt><trkpt lat="45.391340915637194" lon="8.924320598423401"><ele>117.5</ele><time>2026-05-03T15:38:48Z</time></trkpt><trkpt lat="45.39148024937531" lon="8.924394344076147"><ele>117.25</ele><time>2026-05-03T15:38:49Z</time></trkpt><trkpt lat="45.3916177114492" lon="8.924475474531075"><ele>117.0</ele><time>2026-05-03T15:38:50Z</time></trkpt><trkpt lat="45.3917427232959" lon="8.924602853354818"><ele>117.0</ele><time>2026-05-03T15:38:51Z</time></trkpt><trkpt lat="45.39188921386514" lon="8.924673990219743"><ele>117.0</ele><time>2026-05-03T15:38:52Z</time></trkpt><trkpt lat="45.39202383950178" lon="8.924740180040684"><ele>117.0</ele><time>2026-05-03T15:38:53Z</time></trkpt><trkpt lat="45.39215485536696" lon="8.924805401081203"><ele>117.0</ele><time>2026-05-03T15:38:54Z</time></trkpt><trkpt lat="45.39227911503713" lon="8.924893993186094"><ele>117.0</ele><time>2026-05-03T15:38:55Z</time></trkpt><trkpt lat="45.392406448267536" lon="8.924928728171748"><ele>117.0</ele><time>2026-05-03T15:38:56Z</time></trkpt><trkpt lat="45.39254961700165" lon="8.92501844260463"><ele>117.0</ele><time>2026-05-03T15:38:57Z</time></trkpt><trkpt lat="45.392676999149785" lon="8.925073695891268"><ele>117.0</ele><time>2026-05-03T15:38:58Z</time></trkpt><trkpt lat="45.39281055648145" lon="8.925127825321718"><ele>117.0</ele><time>2026-05-03T15:38:59Z</time></trkpt><trkpt lat="45.39294894379209" lon="8.925196865074867"><ele>117.0</ele><time>2026-05-03T15:39:00Z</time></trkpt><trkpt lat="45.39308670220309" lon="8.925258019907881"><ele>117.0</ele><time>2026-05-03T15:39:01Z</time></trkpt><trkpt lat="45.3932156164836" lon="8.925326066032866"><ele>117.0</ele><time>2026-05-03T15:39:02Z</time></trkpt><trkpt lat="45.39334460285244" lon="8.925378617231527"><ele>117.0</ele><time>2026-05-03T15:39:03Z</time></trkpt><trkpt lat="45.39345219932151" lon="8.925473597288372"><ele>116.99999999999999</ele><time>2026-05-03T15:39:04Z</time></trkpt><trkpt lat="45.39352889305453" lon="8.92558636408921"><ele>116.99999999999999</ele><time>2026-05-03T15:39:05Z</time></trkpt><trkpt lat="45.39356953530609" lon="8.925744874909908"><ele>117.0</ele><time>2026-05-03T15:39:06Z</time></trkpt><trkpt lat="45.39364296433995" lon="8.925810543452215"><ele>117.0</ele><time>2026-05-03T15:39:07Z</time></trkpt><trkpt lat="45.3937103103686" lon="8.925859219401678"><ele>117.0</ele><time>2026-05-03T15:39:07.999Z</time></trkpt><trkpt lat="45.393793604251115" lon="8.925861032166644"><ele>117.0</ele><time>2026-05-03T15:39:08.999Z</time></trkpt><trkpt lat="45.39387251733344" lon="8.925831085605541"><ele>117.0</ele><time>2026-05-03T15:39:09.999Z</time></trkpt><trkpt lat="45.39396525180405" lon="8.925801491293859"><ele>117.0</ele><time>2026-05-03T15:39:10.999Z</time></trkpt><trkpt lat="45.39404461088942" lon="8.925784979263724"><ele>117.0</ele><time>2026-05-03T15:39:11.999Z</time></trkpt><trkpt lat="45.39413916227374" lon="8.925795432388837"><ele>117.0</ele><time>2026-05-03T15:39:12.999Z</time></trkpt><trkpt lat="45.39423957105867" lon="8.925838168302098"><ele>117.19999999999999</ele><time>2026-05-03T15:39:13.999Z</time></trkpt><trkpt lat="45.394333556293134" lon="8.925890345697567"><ele>117.39999999999999</ele><time>2026-05-03T15:39:14.999Z</time></trkpt><trkpt lat="45.39444342241151" lon="8.925941580862746"><ele>117.60000000000001</ele><time>2026-05-03T15:39:15.999Z</time></trkpt><trkpt lat="45.39453900701647" lon="8.925988000686871"><ele>117.80000000000001</ele><time>2026-05-03T15:39:16.999Z</time></trkpt><trkpt lat="45.39462707937947" lon="8.92606974459538"><ele>118.0</ele><time>2026-05-03T15:39:17.999Z</time></trkpt><trkpt lat="45.39472448904383" lon="8.926116528537568"><ele>117.2</ele><time>2026-05-03T15:39:18.999Z</time></trkpt><trkpt lat="45.39482660922893" lon="8.926171282368623"><ele>116.4</ele><time>2026-05-03T15:39:19.999Z</time></trkpt><trkpt lat="45.39493343603915" lon="8.926225569754596"><ele>115.60000000000001</ele><time>2026-05-03T15:39:20.999Z</time></trkpt><trkpt lat="45.395035644887216" lon="8.92627089969095"><ele>114.80000000000001</ele><time>2026-05-03T15:39:21.999Z</time></trkpt><trkpt lat="45.39514021948179" lon="8.926320004054338"><ele>114.0</ele><time>2026-05-03T15:39:22.999Z</time></trkpt><trkpt lat="45.39524302103114" lon="8.926356208001733"><ele>114.0</ele><time>2026-05-03T15:39:23.999Z</time></trkpt><trkpt lat="45.39534998163149" lon="8.926397152716788"><ele>114.0</ele><time>2026-05-03T15:39:24.999Z</time></trkpt><trkpt lat="45.39544235470859" lon="8.926446761299058"><ele>114.0</ele><time>2026-05-03T15:39:25.999Z</time></trkpt><trkpt lat="45.39554584047197" lon="8.926498391934267"><ele>114.0</ele><time>2026-05-03T15:39:26.999Z</time></trkpt><trkpt lat="45.395649941830754" lon="8.92654979612424"><ele>114.0</ele><time>2026-05-03T15:39:27.999Z</time></trkpt><trkpt lat="45.39575461231799" lon="8.926608920155962"><ele>114.25</ele><time>2026-05-03T15:39:28.999Z</time></trkpt><trkpt lat="45.39585531720409" lon="8.926658291405179"><ele>114.5</ele><time>2026-05-03T15:39:29.999Z</time></trkpt><trkpt lat="45.3959675579336" lon="8.926713899313192"><ele>114.75</ele><time>2026-05-03T15:39:30.999Z</time></trkpt><trkpt lat="45.39608761489739" lon="8.92676495752528"><ele>115.0</ele><time>2026-05-03T15:39:31.999Z</time></trkpt><trkpt lat="45.39620424945153" lon="8.926820839005316"><ele>115.0</ele><time>2026-05-03T15:39:32.999Z</time></trkpt><trkpt lat="45.396323692002944" lon="8.926874817155177"><ele>115.0</ele><time>2026-05-03T15:39:33.999Z</time></trkpt><trkpt lat="45.396435674341504" lon="8.926929219614742"><ele>115.0</ele><time>2026-05-03T15:39:34.999Z</time></trkpt><trkpt lat="45.396544941667074" lon="8.926983223869794"><ele>115.0</ele><time>2026-05-03T15:39:35.999Z</time></trkpt><trkpt lat="45.39665099533727" lon="8.927033244911906"><ele>115.25</ele><time>2026-05-03T15:39:36.999Z</time></trkpt><trkpt lat="45.39675799105599" lon="8.927082467629823"><ele>115.5</ele><time>2026-05-03T15:39:37.999Z</time></trkpt><trkpt lat="45.39686381869544" lon="8.927127432971515"><ele>115.75</ele><time>2026-05-03T15:39:38.999Z</time></trkpt><trkpt lat="45.39694684727868" lon="8.927218190171379"><ele>116.0</ele><time>2026-05-03T15:39:39.999Z</time></trkpt><trkpt lat="45.39706241031665" lon="8.927275408102014"><ele>116.0</ele><time>2026-05-03T15:39:40.999Z</time></trkpt><trkpt lat="45.39716344869105" lon="8.927334567048431"><ele>116.0</ele><time>2026-05-03T15:39:41.999Z</time></trkpt><trkpt lat="45.39726067097908" lon="8.927387176739732"><ele>116.0</ele><time>2026-05-03T15:39:42.999Z</time></trkpt><trkpt lat="45.397351826742955" lon="8.927433854052165"><ele>116.0</ele><time>2026-05-03T15:39:43.999Z</time></trkpt><trkpt lat="45.39745623000102" lon="8.927495562182484"><ele>116.0</ele><time>2026-05-03T15:39:44.999Z</time></trkpt><trkpt lat="45.39755088658736" lon="8.927556354791474"><ele>116.19999999999999</ele><time>2026-05-03T15:39:45.999Z</time></trkpt><trkpt lat="45.39764808597089" lon="8.927635920297718"><ele>116.39999999999999</ele><time>2026-05-03T15:39:46.999Z</time></trkpt><trkpt lat="45.39773716406608" lon="8.927694688038782"><ele>116.6</ele><time>2026-05-03T15:39:47.999Z</time></trkpt><trkpt lat="45.39783121647995" lon="8.927783546574767"><ele>116.8</ele><time>2026-05-03T15:39:48.999Z</time></trkpt><trkpt lat="45.39791231987752" lon="8.927895057011503"><ele>117.0</ele><time>2026-05-03T15:39:49.999Z</time></trkpt><trkpt lat="45.3979882531391" lon="8.927989412397487"><ele>117.0</ele><time>2026-05-03T15:39:50.999Z</time></trkpt><trkpt lat="45.39805928707887" lon="8.92807646353469"><ele>117.0</ele><time>2026-05-03T15:39:51.999Z</time></trkpt><trkpt lat="45.39811655162913" lon="8.928168039675963"><ele>117.0</ele><time>2026-05-03T15:39:52.999Z</time></trkpt><trkpt lat="45.39816383541151" lon="8.92827474626635"><ele>117.0</ele><time>2026-05-03T15:39:53.999Z</time></trkpt><trkpt lat="45.39821379260023" lon="8.928381706120124"><ele>117.0</ele><time>2026-05-03T15:39:54.999Z</time></trkpt><trkpt lat="45.398261323413834" lon="8.928485047662331"><ele>117.0</ele><time>2026-05-03T15:39:55.999Z</time></trkpt><trkpt lat="45.39829847653205" lon="8.928592719938298"><ele>116.6</ele><time>2026-05-03T15:39:56.999Z</time></trkpt><trkpt lat="45.39835078738284" lon="8.928710204326713"><ele>116.19999999999999</ele><time>2026-05-03T15:39:57.999Z</time></trkpt><trkpt lat="45.39839592788286" lon="8.928855131798477"><ele>115.8</ele><time>2026-05-03T15:39:58.999Z</time></trkpt><trkpt lat="45.39843634462124" lon="8.928997535775792"><ele>115.4</ele><time>2026-05-03T15:39:59.999Z</time></trkpt><trkpt lat="45.39846071243893" lon="8.929126149873001"><ele>115.0</ele><time>2026-05-03T15:40:01Z</time></trkpt><trkpt lat="45.398497898918684" lon="8.929260737697344"><ele>115.0</ele><time>2026-05-03T15:40:02Z</time></trkpt><trkpt lat="45.398548630997475" lon="8.92938659992077"><ele>115.0</ele><time>2026-05-03T15:40:03Z</time></trkpt><trkpt lat="45.39860767192889" lon="8.929503432940855"><ele>115.0</ele><time>2026-05-03T15:40:04Z</time></trkpt><trkpt lat="45.398679259995035" lon="8.929626154920202"><ele>115.0</ele><time>2026-05-03T15:40:05Z</time></trkpt><trkpt lat="45.398756741331034" lon="8.9297311442558"><ele>115.0</ele><time>2026-05-03T15:40:06Z</time></trkpt><trkpt lat="45.39884979572177" lon="8.929816206861716"><ele>115.5</ele><time>2026-05-03T15:40:07Z</time></trkpt><trkpt lat="45.39894369514861" lon="8.929905495038305"><ele>116.0</ele><time>2026-05-03T15:40:08Z</time></trkpt><trkpt lat="45.39905684977138" lon="8.930016323954789"><ele>116.5</ele><time>2026-05-03T15:40:09Z</time></trkpt><trkpt lat="45.3991634929589" lon="8.930153729720871"><ele>117.0</ele><time>2026-05-03T15:40:10Z</time></trkpt><trkpt lat="45.39926290626731" lon="8.93032958776429"><ele>117.0</ele><time>2026-05-03T15:40:11Z</time></trkpt><trkpt lat="45.39934095748441" lon="8.930513016515421"><ele>117.0</ele><time>2026-05-03T15:40:12Z</time></trkpt><trkpt lat="45.399400182624284" lon="8.930716564040848"><ele>117.0</ele><time>2026-05-03T15:40:13Z</time></trkpt><trkpt lat="45.39943414894313" lon="8.930915205742375"><ele>117.0</ele><time>2026-05-03T15:40:14Z</time></trkpt><trkpt lat="45.39946511930018" lon="8.931114312182997"><ele>117.0</ele><time>2026-05-03T15:40:15Z</time></trkpt><trkpt lat="45.399479518021714" lon="8.93132702818295"><ele>117.0</ele><time>2026-05-03T15:40:16Z</time></trkpt><trkpt lat="45.39949719924598" lon="8.931526260707704"><ele>117.0</ele><time>2026-05-03T15:40:17Z</time></trkpt><trkpt lat="45.39949059769492" lon="8.931717406273625"><ele>117.0</ele><time>2026-05-03T15:40:18Z</time></trkpt><trkpt lat="45.39950290735386" lon="8.931884708495582"><ele>117.16666666666667</ele><time>2026-05-03T15:40:19Z</time></trkpt><trkpt lat="45.39950954061771" lon="8.932025012409941"><ele>117.33333333333334</ele><time>2026-05-03T15:40:20Z</time></trkpt><trkpt lat="45.3995238297953" lon="8.932137398740387"><ele>117.5</ele><time>2026-05-03T15:40:21Z</time></trkpt><trkpt lat="45.39953854140638" lon="8.932262592327948"><ele>117.66666666666667</ele><time>2026-05-03T15:40:23Z</time></trkpt><trkpt lat="45.399545762560734" lon="8.932357855437688"><ele>117.83333333333334</ele><time>2026-05-03T15:40:25Z</time></trkpt><trkpt lat="45.399556662332046" lon="8.932473857152434"><ele>118.0</ele><time>2026-05-03T15:40:27Z</time></trkpt><trkpt lat="45.39957551183737" lon="8.932585564447386"><ele>118.0</ele><time>2026-05-03T15:40:30Z</time></trkpt><trkpt lat="45.39967597031306" lon="8.93265029202689"><ele>118.00000000000001</ele><time>2026-05-03T15:40:33Z</time></trkpt><trkpt lat="45.39975660546912" lon="8.932646524880914"><ele>118.00000000000001</ele><time>2026-05-03T15:40:34Z</time></trkpt><trkpt lat="45.399833499404906" lon="8.932637070892916"><ele>118.0</ele><time>2026-05-03T15:40:35Z</time></trkpt><trkpt lat="45.39991849238931" lon="8.93259981848085"><ele>118.0</ele><time>2026-05-03T15:40:36Z</time></trkpt><trkpt lat="45.40001139540043" lon="8.93255191016244"><ele>118.0</ele><time>2026-05-03T15:40:37Z</time></trkpt><trkpt lat="45.40012489400181" lon="8.932500488835998"><ele>118.0</ele><time>2026-05-03T15:40:38Z</time></trkpt><trkpt lat="45.400226712314534" lon="8.932459360010338"><ele>118.0</ele><time>2026-05-03T15:40:39Z</time></trkpt><trkpt lat="45.40036382247014" lon="8.932432509818145"><ele>118.0</ele><time>2026-05-03T15:40:40Z</time></trkpt><trkpt lat="45.40051188984623" lon="8.932398177829281"><ele>118.0</ele><time>2026-05-03T15:40:41Z</time></trkpt><trkpt lat="45.400655552742165" lon="8.932353970122351"><ele>118.0</ele><time>2026-05-03T15:40:42Z</time></trkpt><trkpt lat="45.40081794302364" lon="8.932314907100304"><ele>118.0</ele><time>2026-05-03T15:40:43Z</time></trkpt><trkpt lat="45.40098903349248" lon="8.93228314904679"><ele>118.0</ele><time>2026-05-03T15:40:44Z</time></trkpt><trkpt lat="45.40115548538122" lon="8.932231366880758"><ele>118.0</ele><time>2026-05-03T15:40:45Z</time></trkpt><trkpt lat="45.40133521126281" lon="8.932187305832253"><ele>118.0</ele><time>2026-05-03T15:40:46Z</time></trkpt><trkpt lat="45.40151877570908" lon="8.932130659839217"><ele>117.66666666666667</ele><time>2026-05-03T15:40:47Z</time></trkpt><trkpt lat="45.40170285338132" lon="8.93206888491863"><ele>117.33333333333334</ele><time>2026-05-03T15:40:48Z</time></trkpt><trkpt lat="45.40188155809243" lon="8.93201585172786"><ele>117.0</ele><time>2026-05-03T15:40:49Z</time></trkpt><trkpt lat="45.40206316350284" lon="8.931946546306305"><ele>116.66666666666666</ele><time>2026-05-03T15:40:50Z</time></trkpt><trkpt lat="45.402251992827644" lon="8.93187077781485"><ele>116.33333333333333</ele><time>2026-05-03T15:40:51Z</time></trkpt><trkpt lat="45.402444492550714" lon="8.931789975373317"><ele>116.0</ele><time>2026-05-03T15:40:52Z</time></trkpt><trkpt lat="45.4026397552307" lon="8.931706725254248"><ele>116.66666666666666</ele><time>2026-05-03T15:40:53Z</time></trkpt><trkpt lat="45.402833870602855" lon="8.931614037801364"><ele>117.33333333333334</ele><time>2026-05-03T15:40:54Z</time></trkpt><trkpt lat="45.403030202639236" lon="8.931531134133513"><ele>118.0</ele><time>2026-05-03T15:40:55Z</time></trkpt><trkpt lat="45.40322478107414" lon="8.931438168878554"><ele>118.0</ele><time>2026-05-03T15:40:56Z</time></trkpt><trkpt lat="45.40341802814555" lon="8.931342130081141"><ele>118.0</ele><time>2026-05-03T15:40:57Z</time></trkpt><trkpt lat="45.40361153496953" lon="8.931240951914438"><ele>118.0</ele><time>2026-05-03T15:40:58Z</time></trkpt><trkpt lat="45.40380128250845" lon="8.931136114677882"><ele>117.66666666666667</ele><time>2026-05-03T15:40:59Z</time></trkpt><trkpt lat="45.403992702480664" lon="8.931021631501517"><ele>117.33333333333334</ele><time>2026-05-03T15:41:00Z</time></trkpt><trkpt lat="45.40419194144081" lon="8.930903751504955"><ele>117.0</ele><time>2026-05-03T15:41:01Z</time></trkpt><trkpt lat="45.40437797219548" lon="8.930773378675749"><ele>116.66666666666666</ele><time>2026-05-03T15:41:02Z</time></trkpt><trkpt lat="45.40456201545621" lon="8.93064249940009"><ele>116.33333333333333</ele><time>2026-05-03T15:41:03Z</time></trkpt><trkpt lat="45.404742777040816" lon="8.930513572326984"><ele>116.0</ele><time>2026-05-03T15:41:04Z</time></trkpt><trkpt lat="45.40491874441486" lon="8.930379146493278"><ele>116.0</ele><time>2026-05-03T15:41:05Z</time></trkpt><trkpt lat="45.405086342469126" lon="8.930257467511856"><ele>116.0</ele><time>2026-05-03T15:41:06Z</time></trkpt><trkpt lat="45.405254891606596" lon="8.930136959849865"><ele>116.0</ele><time>2026-05-03T15:41:07Z</time></trkpt><trkpt lat="45.40542042391807" lon="8.93001292517381"><ele>116.66666666666666</ele><time>2026-05-03T15:41:08Z</time></trkpt><trkpt lat="45.405592634387546" lon="8.929875392972138"><ele>117.33333333333334</ele><time>2026-05-03T15:41:09Z</time></trkpt><trkpt lat="45.405770486681455" lon="8.92975294410087"><ele>118.0</ele><time>2026-05-03T15:41:10Z</time></trkpt><trkpt lat="45.405943964993206" lon="8.929614070158312"><ele>118.0</ele><time>2026-05-03T15:41:11Z</time></trkpt><trkpt lat="45.40611211563963" lon="8.929466428994786"><ele>118.0</ele><time>2026-05-03T15:41:12Z</time></trkpt><trkpt lat="45.40627022992397" lon="8.929279738127727"><ele>118.0</ele><time>2026-05-03T15:41:13Z</time></trkpt><trkpt lat="45.406423389526594" lon="8.929091427111215"><ele>118.0</ele><time>2026-05-03T15:41:13.999Z</time></trkpt><trkpt lat="45.406571500525295" lon="8.928888340454339"><ele>118.0</ele><time>2026-05-03T15:41:14.999Z</time></trkpt><trkpt lat="45.406719825989605" lon="8.92867697960975"><ele>118.0</ele><time>2026-05-03T15:41:15.999Z</time></trkpt><trkpt lat="45.40686942510976" lon="8.928473640214511"><ele>118.0</ele><time>2026-05-03T15:41:16.999Z</time></trkpt><trkpt lat="45.407014907483706" lon="8.928300781697025"><ele>118.0</ele><time>2026-05-03T15:41:17.999Z</time></trkpt><trkpt lat="45.40714825987183" lon="8.928138957998595"><ele>118.0</ele><time>2026-05-03T15:41:18.999Z</time></trkpt><trkpt lat="45.40728341453884" lon="8.9279896748721"><ele>118.0</ele><time>2026-05-03T15:41:19.999Z</time></trkpt><trkpt lat="45.407424223071764" lon="8.927880106127054"><ele>118.0</ele><time>2026-05-03T15:41:20.999Z</time></trkpt><trkpt lat="45.40757494564281" lon="8.927808752143045"><ele>118.0</ele><time>2026-05-03T15:41:21.999Z</time></trkpt><trkpt lat="45.40771887335744" lon="8.927754792740183"><ele>118.0</ele><time>2026-05-03T15:41:22.999Z</time></trkpt><trkpt lat="45.407858025993406" lon="8.927738390097135"><ele>118.0</ele><time>2026-05-03T15:41:23.999Z</time></trkpt><trkpt lat="45.407997839640345" lon="8.92773414681535"><ele>118.0</ele><time>2026-05-03T15:41:24.999Z</time></trkpt><trkpt lat="45.40814225797631" lon="8.92774423355181"><ele>118.0</ele><time>2026-05-03T15:41:25.999Z</time></trkpt><trkpt lat="45.4082680128174" lon="8.927803756438717"><ele>118.2</ele><time>2026-05-03T15:41:26.999Z</time></trkpt><trkpt lat="45.40837282128597" lon="8.927838693315882"><ele>118.4</ele><time>2026-05-03T15:41:27.999Z</time></trkpt><trkpt lat="45.40846933394306" lon="8.927886376262416"><ele>118.60000000000001</ele><time>2026-05-03T15:41:28.999Z</time></trkpt><trkpt lat="45.408558484482" lon="8.927946970072899"><ele>118.80000000000001</ele><time>2026-05-03T15:41:29.999Z</time></trkpt><trkpt lat="45.40864029966407" lon="8.928001388161123"><ele>119.0</ele><time>2026-05-03T15:41:30.999Z</time></trkpt><trkpt lat="45.40872283050308" lon="8.9280561691574"><ele>118.99999999999999</ele><time>2026-05-03T15:41:31.999Z</time></trkpt><trkpt lat="45.40880010579227" lon="8.928115374195807"><ele>119.0</ele><time>2026-05-03T15:41:32.999Z</time></trkpt><trkpt lat="45.408870245682195" lon="8.92817442098474"><ele>119.0</ele><time>2026-05-03T15:41:33.999Z</time></trkpt><trkpt lat="45.40893640172939" lon="8.92823788059394"><ele>119.0</ele><time>2026-05-03T15:41:34.999Z</time></trkpt><trkpt lat="45.40901201234584" lon="8.92831610507903"><ele>118.99999999999999</ele><time>2026-05-03T15:41:35.999Z</time></trkpt><trkpt lat="45.40909061274147" lon="8.928388800463015"><ele>119.0</ele><time>2026-05-03T15:41:36.999Z</time></trkpt><trkpt lat="45.409163299906986" lon="8.928469087041611"><ele>119.0</ele><time>2026-05-03T15:41:37.999Z</time></trkpt><trkpt lat="45.40923167826215" lon="8.928541863554852"><ele>119.0</ele><time>2026-05-03T15:41:38.999Z</time></trkpt><trkpt lat="45.40930289332895" lon="8.92862302781104"><ele>119.0</ele><time>2026-05-03T15:41:39.999Z</time></trkpt><trkpt lat="45.40938100205803" lon="8.928702652102361"><ele>119.0</ele><time>2026-05-03T15:41:40.999Z</time></trkpt><trkpt lat="45.40946343778252" lon="8.928780221863386"><ele>119.0</ele><time>2026-05-03T15:41:41.999Z</time></trkpt><trkpt lat="45.4095509985751" lon="8.928858254187212"><ele>119.0</ele><time>2026-05-03T15:41:42.999Z</time></trkpt><trkpt lat="45.40962924287249" lon="8.928937600157083"><ele>119.0</ele><time>2026-05-03T15:41:43.999Z</time></trkpt><trkpt lat="45.40970942617015" lon="8.929020068652504"><ele>119.0</ele><time>2026-05-03T15:41:44.999Z</time></trkpt><trkpt lat="45.40979064746059" lon="8.929102758822593"><ele>119.0</ele><time>2026-05-03T15:41:45.999Z</time></trkpt><trkpt lat="45.409878767956734" lon="8.929195409615504"><ele>119.0</ele><time>2026-05-03T15:41:46.999Z</time></trkpt><trkpt lat="45.40996780011499" lon="8.929282231489287"><ele>118.80000000000001</ele><time>2026-05-03T15:41:47.999Z</time></trkpt><trkpt lat="45.410058877482925" lon="8.929374446159185"><ele>118.60000000000001</ele><time>2026-05-03T15:41:48.999Z</time></trkpt><trkpt lat="45.41014362765285" lon="8.929472618399076"><ele>118.4</ele><time>2026-05-03T15:41:49.999Z</time></trkpt><trkpt lat="45.41023083700361" lon="8.929574005342062"><ele>118.2</ele><time>2026-05-03T15:41:50.999Z</time></trkpt><trkpt lat="45.41032299471301" lon="8.929666205770387"><ele>118.0</ele><time>2026-05-03T15:41:51.999Z</time></trkpt><trkpt lat="45.41041057145138" lon="8.929764604887447"><ele>118.2</ele><time>2026-05-03T15:41:52.999Z</time></trkpt><trkpt lat="45.41049691847596" lon="8.929863403857823"><ele>118.4</ele><time>2026-05-03T15:41:53.999Z</time></trkpt><trkpt lat="45.410583543223396" lon="8.929962518333875"><ele>118.60000000000001</ele><time>2026-05-03T15:41:54.999Z</time></trkpt><trkpt lat="45.41065875422881" lon="8.93006793693621"><ele>118.80000000000001</ele><time>2026-05-03T15:41:55.999Z</time></trkpt><trkpt lat="45.41073834937091" lon="8.9301559804241"><ele>119.0</ele><time>2026-05-03T15:41:56.999Z</time></trkpt><trkpt lat="45.41081744239601" lon="8.930246707515588"><ele>119.0</ele><time>2026-05-03T15:41:57.999Z</time></trkpt><trkpt lat="45.41089571645834" lon="8.930337799041238"><ele>119.0</ele><time>2026-05-03T15:41:58.999Z</time></trkpt><trkpt lat="45.41097925009565" lon="8.930423667738495"><ele>119.0</ele><time>2026-05-03T15:41:59.999Z</time></trkpt><trkpt lat="45.41105623004474" lon="8.93050603901674"><ele>119.0</ele><time>2026-05-03T15:42:00.999Z</time></trkpt><trkpt lat="45.41113030185197" lon="8.930597055420067"><ele>119.0</ele><time>2026-05-03T15:42:01.999Z</time></trkpt><trkpt lat="45.4112086024482" lon="8.930681794149086"><ele>119.0</ele><time>2026-05-03T15:42:02.999Z</time></trkpt><trkpt lat="45.411284624240515" lon="8.930768723431878"><ele>119.0</ele><time>2026-05-03T15:42:03.999Z</time></trkpt><trkpt lat="45.41135713772699" lon="8.930857624219005"><ele>119.0</ele><time>2026-05-03T15:42:04.999Z</time></trkpt><trkpt lat="45.41143369804823" lon="8.930943132176322"><ele>119.0</ele><time>2026-05-03T15:42:05.999Z</time></trkpt><trkpt lat="45.411511654075724" lon="8.931029622016705"><ele>119.0</ele><time>2026-05-03T15:42:07Z</time></trkpt><trkpt lat="45.4115921042628" lon="8.931120100078953"><ele>119.5</ele><time>2026-05-03T15:42:08Z</time></trkpt><trkpt lat="45.411672229706475" lon="8.931220796378167"><ele>120.0</ele><time>2026-05-03T15:42:09Z</time></trkpt><trkpt lat="45.4117650442587" lon="8.931308172987759"><ele>120.5</ele><time>2026-05-03T15:42:10Z</time></trkpt><trkpt lat="45.41185193712563" lon="8.931420046043945"><ele>121.0</ele><time>2026-05-03T15:42:11Z</time></trkpt><trkpt lat="45.41195003877031" lon="8.931526127435514"><ele>121.0</ele><time>2026-05-03T15:42:12Z</time></trkpt><trkpt lat="45.41205128885835" lon="8.931632150818903"><ele>121.0</ele><time>2026-05-03T15:42:13Z</time></trkpt><trkpt lat="45.412155613937664" lon="8.931743880556517"><ele>121.0</ele><time>2026-05-03T15:42:14Z</time></trkpt><trkpt lat="45.412254452649094" lon="8.931852841395465"><ele>121.0</ele><time>2026-05-03T15:42:15Z</time></trkpt><trkpt lat="45.41236478862867" lon="8.931967572661895"><ele>120.25</ele><time>2026-05-03T15:42:16Z</time></trkpt><trkpt lat="45.41245377502878" lon="8.932058809152286"><ele>119.5</ele><time>2026-05-03T15:42:17Z</time></trkpt><trkpt lat="45.41255273556686" lon="8.93217429981442"><ele>118.75</ele><time>2026-05-03T15:42:18Z</time></trkpt><trkpt lat="45.41266272276102" lon="8.932289415633116"><ele>118.0</ele><time>2026-05-03T15:42:19Z</time></trkpt><trkpt lat="45.41277176084496" lon="8.932399682958104"><ele>118.0</ele><time>2026-05-03T15:42:20Z</time></trkpt><trkpt lat="45.41287581351563" lon="8.932515548883858"><ele>118.0</ele><time>2026-05-03T15:42:21Z</time></trkpt><trkpt lat="45.41298266899655" lon="8.932635290158592"><ele>118.0</ele><time>2026-05-03T15:42:22Z</time></trkpt><trkpt lat="45.41307982607416" lon="8.932740857863413"><ele>118.0</ele><time>2026-05-03T15:42:23Z</time></trkpt><trkpt lat="45.41319100827322" lon="8.9328623167222"><ele>118.0</ele><time>2026-05-03T15:42:24Z</time></trkpt><trkpt lat="45.41329572651942" lon="8.932989902927357"><ele>118.0</ele><time>2026-05-03T15:42:25Z</time></trkpt><trkpt lat="45.41339997008419" lon="8.933114090772822"><ele>118.0</ele><time>2026-05-03T15:42:26Z</time></trkpt><trkpt lat="45.413501602182166" lon="8.933250769371588"><ele>118.0</ele><time>2026-05-03T15:42:27Z</time></trkpt><trkpt lat="45.41359985911374" lon="8.933387249165552"><ele>118.5</ele><time>2026-05-03T15:42:28Z</time></trkpt><trkpt lat="45.413690007176804" lon="8.933528656583816"><ele>119.0</ele><time>2026-05-03T15:42:29Z</time></trkpt><trkpt lat="45.413775435563636" lon="8.933663836475514"><ele>119.5</ele><time>2026-05-03T15:42:30Z</time></trkpt><trkpt lat="45.41385529440217" lon="8.933801252359526"><ele>120.0</ele><time>2026-05-03T15:42:31Z</time></trkpt><trkpt lat="45.41393597028234" lon="8.933925380813841"><ele>120.2</ele><time>2026-05-03T15:42:32Z</time></trkpt><trkpt lat="45.414004761665396" lon="8.934062799595411"><ele>120.4</ele><time>2026-05-03T15:42:33Z</time></trkpt><trkpt lat="45.414081595983966" lon="8.93418235235242"><ele>120.6</ele><time>2026-05-03T15:42:34Z</time></trkpt><trkpt lat="45.41414082255829" lon="8.934272647579906"><ele>120.8</ele><time>2026-05-03T15:42:35Z</time></trkpt><trkpt lat="45.41416930935369" lon="8.934379394467008"><ele>121.0</ele><time>2026-05-03T15:42:36Z</time></trkpt><trkpt lat="45.41422709311296" lon="8.934445159644824"><ele>121.00000000000001</ele><time>2026-05-03T15:42:37Z</time></trkpt><trkpt lat="45.41427048641092" lon="8.934556331716111"><ele>121.0</ele><time>2026-05-03T15:42:39Z</time></trkpt><trkpt lat="45.41431157302064" lon="8.934645610315293"><ele>121.0</ele><time>2026-05-03T15:42:42Z</time></trkpt><trkpt lat="45.41431509964833" lon="8.934740188566733"><ele>121.0</ele><time>2026-05-03T15:43:05Z</time></trkpt><trkpt lat="45.41438282112819" lon="8.934869507439544"><ele>121.00000000000001</ele><time>2026-05-03T15:43:07Z</time></trkpt><trkpt lat="45.41442759497244" lon="8.934961906420169"><ele>121.0</ele><time>2026-05-03T15:43:08Z</time></trkpt><trkpt lat="45.414475335243765" lon="8.935060977307772"><ele>121.0</ele><time>2026-05-03T15:43:09Z</time></trkpt><trkpt lat="45.41453593837608" lon="8.935175854243685"><ele>121.0</ele><time>2026-05-03T15:43:10Z</time></trkpt><trkpt lat="45.41459376990812" lon="8.935296476091672"><ele>121.0</ele><time>2026-05-03T15:43:11Z</time></trkpt><trkpt lat="45.41464928708476" lon="8.935426742054215"><ele>121.0</ele><time>2026-05-03T15:43:12Z</time></trkpt><trkpt lat="45.414700812888654" lon="8.935576253716766"><ele>121.0</ele><time>2026-05-03T15:43:13Z</time></trkpt><trkpt lat="45.41476145184136" lon="8.935737123685813"><ele>121.0</ele><time>2026-05-03T15:43:14Z</time></trkpt><trkpt lat="45.41481920287961" lon="8.935908010484898"><ele>121.0</ele><time>2026-05-03T15:43:15Z</time></trkpt><trkpt lat="45.41487481331628" lon="8.936073487893777"><ele>121.0</ele><time>2026-05-03T15:43:16Z</time></trkpt><trkpt lat="45.41492470908544" lon="8.936242725929004"><ele>121.0</ele><time>2026-05-03T15:43:17Z</time></trkpt><trkpt lat="45.41497448978326" lon="8.936401119199084"><ele>121.0</ele><time>2026-05-03T15:43:18Z</time></trkpt><trkpt lat="45.41503865091136" lon="8.936576438541897"><ele>121.0</ele><time>2026-05-03T15:43:19Z</time></trkpt><trkpt lat="45.415104536335804" lon="8.936755104723716"><ele>121.0</ele><time>2026-05-03T15:43:20Z</time></trkpt><trkpt lat="45.415159535931714" lon="8.93694470078855"><ele>121.0</ele><time>2026-05-03T15:43:21Z</time></trkpt><trkpt lat="45.41521080543692" lon="8.937127651055032"><ele>120.75</ele><time>2026-05-03T15:43:22Z</time></trkpt><trkpt lat="45.415267400824604" lon="8.937316557899447"><ele>120.5</ele><time>2026-05-03T15:43:23Z</time></trkpt><trkpt lat="45.41533814094332" lon="8.937497040060542"><ele>120.25</ele><time>2026-05-03T15:43:24Z</time></trkpt><trkpt lat="45.415390428220434" lon="8.937678422285876"><ele>120.0</ele><time>2026-05-03T15:43:25Z</time></trkpt><trkpt lat="45.41545424858466" lon="8.937864817355806"><ele>120.5</ele><time>2026-05-03T15:43:26Z</time></trkpt><trkpt lat="45.41550869529788" lon="8.938051881679135"><ele>121.0</ele><time>2026-05-03T15:43:27Z</time></trkpt><trkpt lat="45.41556320792411" lon="8.938240939378595"><ele>121.5</ele><time>2026-05-03T15:43:28Z</time></trkpt><trkpt lat="45.41561853756693" lon="8.938430721774084"><ele>122.0</ele><time>2026-05-03T15:43:29Z</time></trkpt><trkpt lat="45.4156739707614" lon="8.938617441751882"><ele>122.0</ele><time>2026-05-03T15:43:30Z</time></trkpt><trkpt lat="45.415740493695054" lon="8.938805983627802"><ele>122.0</ele><time>2026-05-03T15:43:30.999Z</time></trkpt><trkpt lat="45.4157993178069" lon="8.938995337863242"><ele>122.0</ele><time>2026-05-03T15:43:31.999Z</time></trkpt><trkpt lat="45.415853032873095" lon="8.939170479358777"><ele>122.0</ele><time>2026-05-03T15:43:32.999Z</time></trkpt><trkpt lat="45.41592148210202" lon="8.93935417111288"><ele>122.0</ele><time>2026-05-03T15:43:33.999Z</time></trkpt><trkpt lat="45.41598008698244" lon="8.939525079654683"><ele>122.0</ele><time>2026-05-03T15:43:34.999Z</time></trkpt><trkpt lat="45.416044178689425" lon="8.939691842319773"><ele>122.0</ele><time>2026-05-03T15:43:35.999Z</time></trkpt><trkpt lat="45.41610044228594" lon="8.939852102068214"><ele>122.0</ele><time>2026-05-03T15:43:36.999Z</time></trkpt><trkpt lat="45.41615866084314" lon="8.940022684142827"><ele>121.75</ele><time>2026-05-03T15:43:37.999Z</time></trkpt><trkpt lat="45.41619581924947" lon="8.940179722458774"><ele>121.5</ele><time>2026-05-03T15:43:38.999Z</time></trkpt><trkpt lat="45.416248365889196" lon="8.940331814578345"><ele>121.25</ele><time>2026-05-03T15:43:39.999Z</time></trkpt><trkpt lat="45.41630430599778" lon="8.94049250847387"><ele>121.0</ele><time>2026-05-03T15:43:40.999Z</time></trkpt><trkpt lat="45.41634571724309" lon="8.940633890446469"><ele>121.0</ele><time>2026-05-03T15:43:41.999Z</time></trkpt><trkpt lat="45.416362621190444" lon="8.940770764712825"><ele>121.0</ele><time>2026-05-03T15:43:42.999Z</time></trkpt><trkpt lat="45.41639535768989" lon="8.94091557610932"><ele>121.0</ele><time>2026-05-03T15:43:43.999Z</time></trkpt><trkpt lat="45.41640247326691" lon="8.94107195298086"><ele>121.0</ele><time>2026-05-03T15:43:44.999Z</time></trkpt><trkpt lat="45.41637673070527" lon="8.94123513135224"><ele>121.0</ele><time>2026-05-03T15:43:45.999Z</time></trkpt><trkpt lat="45.416382515260516" lon="8.941386127519428"><ele>121.0</ele><time>2026-05-03T15:43:46.999Z</time></trkpt><trkpt lat="45.41643581601889" lon="8.941520859415878"><ele>121.0</ele><time>2026-05-03T15:43:47.999Z</time></trkpt><trkpt lat="45.41651859586307" lon="8.941612378758817"><ele>121.0</ele><time>2026-05-03T15:43:48.999Z</time></trkpt><trkpt lat="45.41662091601779" lon="8.941678270803527"><ele>121.0</ele><time>2026-05-03T15:43:49.999Z</time></trkpt><trkpt lat="45.416698330597015" lon="8.94176842473519"><ele>121.0</ele><time>2026-05-03T15:43:50.999Z</time></trkpt><trkpt lat="45.41677030437244" lon="8.941916534567193"><ele>121.0</ele><time>2026-05-03T15:43:51.999Z</time></trkpt><trkpt lat="45.416822890339326" lon="8.942073085542035"><ele>121.0</ele><time>2026-05-03T15:43:52.999Z</time></trkpt><trkpt lat="45.41687265309654" lon="8.942231470382954"><ele>121.0</ele><time>2026-05-03T15:43:53.999Z</time></trkpt><trkpt lat="45.41694000743486" lon="8.942380441624758"><ele>121.0</ele><time>2026-05-03T15:43:54.999Z</time></trkpt><trkpt lat="45.41699218557579" lon="8.94254890433024"><ele>121.0</ele><time>2026-05-03T15:43:55.999Z</time></trkpt><trkpt lat="45.417048373381284" lon="8.942724583175684"><ele>121.0</ele><time>2026-05-03T15:43:56.999Z</time></trkpt><trkpt lat="45.417113049669666" lon="8.942910579375182"><ele>121.0</ele><time>2026-05-03T15:43:57.999Z</time></trkpt><trkpt lat="45.41717662395716" lon="8.943107892649154"><ele>121.0</ele><time>2026-05-03T15:43:58.999Z</time></trkpt><trkpt lat="45.41725031144042" lon="8.94331816412324"><ele>121.33333333333334</ele><time>2026-05-03T15:43:59.999Z</time></trkpt><trkpt lat="45.41730881947703" lon="8.943525229772153"><ele>121.66666666666666</ele><time>2026-05-03T15:44:00.999Z</time></trkpt><trkpt lat="45.417374354696655" lon="8.94373176000992"><ele>122.0</ele><time>2026-05-03T15:44:01.999Z</time></trkpt><trkpt lat="45.417439262190996" lon="8.943947009018062"><ele>122.0</ele><time>2026-05-03T15:44:02.999Z</time></trkpt><trkpt lat="45.41750946957126" lon="8.944157587796957"><ele>122.0</ele><time>2026-05-03T15:44:03.999Z</time></trkpt><trkpt lat="45.417570592556196" lon="8.944369233486672"><ele>122.0</ele><time>2026-05-03T15:44:04.999Z</time></trkpt><trkpt lat="45.41763775766928" lon="8.944584673034177"><ele>122.0</ele><time>2026-05-03T15:44:05.999Z</time></trkpt><trkpt lat="45.41770635725729" lon="8.94480821568774"><ele>122.0</ele><time>2026-05-03T15:44:06.999Z</time></trkpt><trkpt lat="45.41778034641075" lon="8.945034407888055"><ele>122.0</ele><time>2026-05-03T15:44:07.999Z</time></trkpt><trkpt lat="45.41785196397831" lon="8.945266277558025"><ele>122.0</ele><time>2026-05-03T15:44:08.999Z</time></trkpt><trkpt lat="45.41794056886981" lon="8.945492581608748"><ele>122.0</ele><time>2026-05-03T15:44:09.999Z</time></trkpt><trkpt lat="45.418015712311146" lon="8.945717044624244"><ele>122.0</ele><time>2026-05-03T15:44:10.999Z</time></trkpt><trkpt lat="45.418109811617335" lon="8.945940041977147"><ele>121.66666666666666</ele><time>2026-05-03T15:44:11.999Z</time></trkpt><trkpt lat="45.418197496777786" lon="8.946154787177743"><ele>121.33333333333334</ele><time>2026-05-03T15:44:13Z</time></trkpt><trkpt lat="45.418295037757865" lon="8.946346761848677"><ele>121.0</ele><time>2026-05-03T15:44:14Z</time></trkpt><trkpt lat="45.41840880214101" lon="8.946544818432994"><ele>120.66666666666667</ele><time>2026-05-03T15:44:15Z</time></trkpt><trkpt lat="45.41850784275042" lon="8.946739430669771"><ele>120.33333333333334</ele><time>2026-05-03T15:44:16Z</time></trkpt><trkpt lat="45.41861330172963" lon="8.946936426810563"><ele>120.0</ele><time>2026-05-03T15:44:17Z</time></trkpt><trkpt lat="45.41873217996819" lon="8.94712458468654"><ele>120.33333333333334</ele><time>2026-05-03T15:44:18Z</time></trkpt><trkpt lat="45.418847747470664" lon="8.947313551157393"><ele>120.66666666666667</ele><time>2026-05-03T15:44:19Z</time></trkpt><trkpt lat="45.418985397767145" lon="8.947502565469927"><ele>121.0</ele><time>2026-05-03T15:44:20Z</time></trkpt><trkpt lat="45.41910648076045" lon="8.947688842603428"><ele>121.0</ele><time>2026-05-03T15:44:21Z</time></trkpt><trkpt lat="45.41924451835355" lon="8.9478633361495"><ele>121.0</ele><time>2026-05-03T15:44:22Z</time></trkpt><trkpt lat="45.41936778895216" lon="8.948038965920711"><ele>121.0</ele><time>2026-05-03T15:44:23Z</time></trkpt><trkpt lat="45.41949580756159" lon="8.94821449196178"><ele>120.66666666666667</ele><time>2026-05-03T15:44:24Z</time></trkpt><trkpt lat="45.41961544448449" lon="8.948392710901956"><ele>120.33333333333334</ele><time>2026-05-03T15:44:25Z</time></trkpt><trkpt lat="45.41973374363882" lon="8.94857110849717"><ele>120.0</ele><time>2026-05-03T15:44:26Z</time></trkpt><trkpt lat="45.4198579658989" lon="8.948745564836805"><ele>120.66666666666666</ele><time>2026-05-03T15:44:27Z</time></trkpt><trkpt lat="45.419982885294715" lon="8.948921651202046"><ele>121.33333333333333</ele><time>2026-05-03T15:44:28Z</time></trkpt><trkpt lat="45.420108617894904" lon="8.949095009505468"><ele>122.0</ele><time>2026-05-03T15:44:29Z</time></trkpt><trkpt lat="45.42023468210286" lon="8.949276390121984"><ele>122.0</ele><time>2026-05-03T15:44:30Z</time></trkpt><trkpt lat="45.420363682650425" lon="8.949453836440185"><ele>122.0</ele><time>2026-05-03T15:44:31Z</time></trkpt><trkpt lat="45.42049110951606" lon="8.949636345617987"><ele>122.0</ele><time>2026-05-03T15:44:32Z</time></trkpt><trkpt lat="45.42061416799924" lon="8.949825058006567"><ele>121.66666666666666</ele><time>2026-05-03T15:44:33Z</time></trkpt><trkpt lat="45.42074680898377" lon="8.950009649830848"><ele>121.33333333333334</ele><time>2026-05-03T15:44:34Z</time></trkpt><trkpt lat="45.42087896303407" lon="8.950192812110439"><ele>121.0</ele><time>2026-05-03T15:44:35Z</time></trkpt><trkpt lat="45.42100677289224" lon="8.950377959935421"><ele>121.0</ele><time>2026-05-03T15:44:36Z</time></trkpt><trkpt lat="45.421141227408675" lon="8.950566171197583"><ele>121.0</ele><time>2026-05-03T15:44:37Z</time></trkpt><trkpt lat="45.421265350824925" lon="8.950753450140834"><ele>121.0</ele><time>2026-05-03T15:44:38Z</time></trkpt><trkpt lat="45.42138251271307" lon="8.950933248745574"><ele>121.33333333333334</ele><time>2026-05-03T15:44:39Z</time></trkpt><trkpt lat="45.42150769244053" lon="8.951107840230458"><ele>121.66666666666666</ele><time>2026-05-03T15:44:40Z</time></trkpt><trkpt lat="45.421635054557605" lon="8.951280843846353"><ele>122.0</ele><time>2026-05-03T15:44:41Z</time></trkpt><trkpt lat="45.42175778511879" lon="8.951453451906977"><ele>122.0</ele><time>2026-05-03T15:44:42Z</time></trkpt><trkpt lat="45.42187794501194" lon="8.951626386111311"><ele>122.0</ele><time>2026-05-03T15:44:43Z</time></trkpt><trkpt lat="45.421998371358505" lon="8.951795720165034"><ele>122.0</ele><time>2026-05-03T15:44:44Z</time></trkpt><trkpt lat="45.422113919957305" lon="8.951968824992282"><ele>121.33333333333333</ele><time>2026-05-03T15:44:45Z</time></trkpt><trkpt lat="45.42222605832195" lon="8.952143063111185"><ele>120.66666666666666</ele><time>2026-05-03T15:44:46Z</time></trkpt><trkpt lat="45.42234146783069" lon="8.952316807916501"><ele>120.0</ele><time>2026-05-03T15:44:47Z</time></trkpt><trkpt lat="45.42245576946427" lon="8.95249054079176"><ele>120.0</ele><time>2026-05-03T15:44:48Z</time></trkpt><trkpt lat="45.42257617682306" lon="8.952656464538398"><ele>120.0</ele><time>2026-05-03T15:44:49Z</time></trkpt><trkpt lat="45.42269730985162" lon="8.952825269869932"><ele>120.0</ele><time>2026-05-03T15:44:50Z</time></trkpt><trkpt lat="45.422815210002106" lon="8.95299435879188"><ele>120.0</ele><time>2026-05-03T15:44:51Z</time></trkpt><trkpt lat="45.42293440580118" lon="8.953163295652406"><ele>120.0</ele><time>2026-05-03T15:44:52Z</time></trkpt><trkpt lat="45.42305268426258" lon="8.953327026734108"><ele>120.0</ele><time>2026-05-03T15:44:53Z</time></trkpt><trkpt lat="45.42317876005811" lon="8.953498974414499"><ele>120.0</ele><time>2026-05-03T15:44:54Z</time></trkpt><trkpt lat="45.42331305772214" lon="8.953677127498064"><ele>120.0</ele><time>2026-05-03T15:44:55Z</time></trkpt><trkpt lat="45.42345407881531" lon="8.953871833429602"><ele>120.0</ele><time>2026-05-03T15:44:56Z</time></trkpt><trkpt lat="45.42359468901854" lon="8.954070055047403"><ele>120.33333333333334</ele><time>2026-05-03T15:44:57Z</time></trkpt><trkpt lat="45.4237399578159" lon="8.954270931350383"><ele>120.66666666666667</ele><time>2026-05-03T15:44:58Z</time></trkpt><trkpt lat="45.423882802189745" lon="8.954474158243055"><ele>121.0</ele><time>2026-05-03T15:44:59Z</time></trkpt><trkpt lat="45.424023869916645" lon="8.954664467039459"><ele>121.33333333333334</ele><time>2026-05-03T15:45:00Z</time></trkpt><trkpt lat="45.4241520588475" lon="8.954832795912"><ele>121.66666666666666</ele><time>2026-05-03T15:45:01Z</time></trkpt><trkpt lat="45.424267677693855" lon="8.955003333275377"><ele>122.0</ele><time>2026-05-03T15:45:02Z</time></trkpt><trkpt lat="45.424381734515606" lon="8.955165896181116"><ele>121.66666666666666</ele><time>2026-05-03T15:45:03Z</time></trkpt><trkpt lat="45.42449922001291" lon="8.955328942895855"><ele>121.33333333333334</ele><time>2026-05-03T15:45:04Z</time></trkpt><trkpt lat="45.42463861697107" lon="8.95550453844471"><ele>121.0</ele><time>2026-05-03T15:45:05Z</time></trkpt><trkpt lat="45.42478316875075" lon="8.955695785032937"><ele>121.0</ele><time>2026-05-03T15:45:06Z</time></trkpt><trkpt lat="45.42491923691841" lon="8.95589388709823"><ele>121.0</ele><time>2026-05-03T15:45:07Z</time></trkpt><trkpt lat="45.42504404813066" lon="8.956083639163007"><ele>121.0</ele><time>2026-05-03T15:45:08Z</time></trkpt><trkpt lat="45.425168058025584" lon="8.956265631360766"><ele>121.0</ele><time>2026-05-03T15:45:09Z</time></trkpt><trkpt lat="45.425298697097084" lon="8.956444993940664"><ele>121.0</ele><time>2026-05-03T15:45:10Z</time></trkpt><trkpt lat="45.425429063060726" lon="8.956633265642315"><ele>121.0</ele><time>2026-05-03T15:45:11Z</time></trkpt><trkpt lat="45.42557905557923" lon="8.956822753531716"><ele>121.33333333333334</ele><time>2026-05-03T15:45:12Z</time></trkpt><trkpt lat="45.425721195027" lon="8.957024584386499"><ele>121.66666666666666</ele><time>2026-05-03T15:45:13Z</time></trkpt><trkpt lat="45.42585858641041" lon="8.957238627137276"><ele>122.0</ele><time>2026-05-03T15:45:14Z</time></trkpt><trkpt lat="45.42600344207621" lon="8.957478027242042"><ele>121.5</ele><time>2026-05-03T15:45:15Z</time></trkpt><trkpt lat="45.42616446964738" lon="8.957727958484282"><ele>121.0</ele><time>2026-05-03T15:45:16Z</time></trkpt><trkpt lat="45.42632771415595" lon="8.957971864290633"><ele>122.0</ele><time>2026-05-03T15:45:17Z</time></trkpt><trkpt lat="45.426497010883175" lon="8.95821577228335"><ele>123.0</ele><time>2026-05-03T15:45:18Z</time></trkpt><trkpt lat="45.42666693990058" lon="8.95845692083046"><ele>123.0</ele><time>2026-05-03T15:45:19Z</time></trkpt><trkpt lat="45.426821306805614" lon="8.958691555560875"><ele>123.0</ele><time>2026-05-03T15:45:20Z</time></trkpt><trkpt lat="45.42698316482288" lon="8.95892163354809"><ele>123.0</ele><time>2026-05-03T15:45:21Z</time></trkpt><trkpt lat="45.4271444579217" lon="8.959149550243213"><ele>123.0</ele><time>2026-05-03T15:45:22Z</time></trkpt><trkpt lat="45.42730169446693" lon="8.959370068334174"><ele>123.0</ele><time>2026-05-03T15:45:23Z</time></trkpt><trkpt lat="45.42745071420135" lon="8.959577255549002"><ele>123.33333333333334</ele><time>2026-05-03T15:45:24Z</time></trkpt><trkpt lat="45.42758910517564" lon="8.959784176097724"><ele>123.66666666666667</ele><time>2026-05-03T15:45:25Z</time></trkpt><trkpt lat="45.427728565792826" lon="8.959987715621116"><ele>124.0</ele><time>2026-05-03T15:45:26Z</time></trkpt><trkpt lat="45.42787628427666" lon="8.96018832533273"><ele>123.66666666666667</ele><time>2026-05-03T15:45:26.999Z</time></trkpt><trkpt lat="45.42804926379678" lon="8.960378366703969"><ele>123.33333333333334</ele><time>2026-05-03T15:45:27.999Z</time></trkpt><trkpt lat="45.42821256228679" lon="8.960562820654978"><ele>123.0</ele><time>2026-05-03T15:45:28.999Z</time></trkpt><trkpt lat="45.428332027445535" lon="8.96073635484744"><ele>122.75</ele><time>2026-05-03T15:45:29.999Z</time></trkpt><trkpt lat="45.42843732223876" lon="8.96089555120531"><ele>122.5</ele><time>2026-05-03T15:45:30.999Z</time></trkpt><trkpt lat="45.42855113974291" lon="8.961041772300273"><ele>122.25</ele><time>2026-05-03T15:45:31.999Z</time></trkpt><trkpt lat="45.428645270603695" lon="8.96118805702283"><ele>122.0</ele><time>2026-05-03T15:45:32.999Z</time></trkpt><trkpt lat="45.42874988002532" lon="8.961335091480079"><ele>122.0</ele><time>2026-05-03T15:45:33.999Z</time></trkpt><trkpt lat="45.4288565410199" lon="8.961487082450393"><ele>122.0</ele><time>2026-05-03T15:45:34.999Z</time></trkpt><trkpt lat="45.428951271420814" lon="8.961636169055154"><ele>122.0</ele><time>2026-05-03T15:45:35.999Z</time></trkpt><trkpt lat="45.429043183628025" lon="8.96178628476289"><ele>122.0</ele><time>2026-05-03T15:45:36.999Z</time></trkpt><trkpt lat="45.42913614409733" lon="8.96193370450027"><ele>122.0</ele><time>2026-05-03T15:45:37.999Z</time></trkpt><trkpt lat="45.42923904717315" lon="8.962080417832915"><ele>122.0</ele><time>2026-05-03T15:45:38.999Z</time></trkpt><trkpt lat="45.42934298330534" lon="8.96222586645209"><ele>122.0</ele><time>2026-05-03T15:45:39.999Z</time></trkpt><trkpt lat="45.42943480176107" lon="8.962367833504162"><ele>122.0</ele><time>2026-05-03T15:45:40.999Z</time></trkpt><trkpt lat="45.42952916222197" lon="8.962510740063768"><ele>122.0</ele><time>2026-05-03T15:45:41.999Z</time></trkpt><trkpt lat="45.429621365565225" lon="8.96265663601954"><ele>122.0</ele><time>2026-05-03T15:45:42.999Z</time></trkpt><trkpt lat="45.42971534077012" lon="8.962795196799725"><ele>122.0</ele><time>2026-05-03T15:45:43.999Z</time></trkpt><trkpt lat="45.429814238839704" lon="8.96293556783019"><ele>122.0</ele><time>2026-05-03T15:45:44.999Z</time></trkpt><trkpt lat="45.42991517081305" lon="8.963076160165247"><ele>122.0</ele><time>2026-05-03T15:45:45.999Z</time></trkpt><trkpt lat="45.43001162370307" lon="8.963210514033099"><ele>122.0</ele><time>2026-05-03T15:45:46.999Z</time></trkpt><trkpt lat="45.43010370653634" lon="8.96335088579303"><ele>122.0</ele><time>2026-05-03T15:45:47.999Z</time></trkpt><trkpt lat="45.43020488585199" lon="8.963493608724086"><ele>122.0</ele><time>2026-05-03T15:45:48.999Z</time></trkpt><trkpt lat="45.430302820123785" lon="8.963633712230129"><ele>122.0</ele><time>2026-05-03T15:45:49.999Z</time></trkpt><trkpt lat="45.43040327897979" lon="8.963775786321621"><ele>122.0</ele><time>2026-05-03T15:45:50.999Z</time></trkpt><trkpt lat="45.43050302662924" lon="8.963919727467196"><ele>122.0</ele><time>2026-05-03T15:45:51.999Z</time></trkpt><trkpt lat="45.430597167002624" lon="8.964068968490167"><ele>122.0</ele><time>2026-05-03T15:45:52.999Z</time></trkpt><trkpt lat="45.43071096781017" lon="8.9642052120159"><ele>122.0</ele><time>2026-05-03T15:45:53.999Z</time></trkpt><trkpt lat="45.43079874620764" lon="8.964357537094983"><ele>122.0</ele><time>2026-05-03T15:45:54.999Z</time></trkpt><trkpt lat="45.430883903709194" lon="8.96452414850278"><ele>122.0</ele><time>2026-05-03T15:45:55.999Z</time></trkpt><trkpt lat="45.43099910963244" lon="8.964667430286061"><ele>122.0</ele><time>2026-05-03T15:45:56.999Z</time></trkpt><trkpt lat="45.43109229564323" lon="8.964809312759261"><ele>122.0</ele><time>2026-05-03T15:45:57.999Z</time></trkpt><trkpt lat="45.431183398076016" lon="8.964951289174078"><ele>122.0</ele><time>2026-05-03T15:45:58.999Z</time></trkpt><trkpt lat="45.4312801283007" lon="8.96508917869799"><ele>122.0</ele><time>2026-05-03T15:45:59.999Z</time></trkpt><trkpt lat="45.43137486164212" lon="8.965228484063276"><ele>122.0</ele><time>2026-05-03T15:46:00.999Z</time></trkpt><trkpt lat="45.43147200858943" lon="8.96535845579752"><ele>122.0</ele><time>2026-05-03T15:46:01.999Z</time></trkpt><trkpt lat="45.43157236216506" lon="8.965491470460565"><ele>122.0</ele><time>2026-05-03T15:46:02.999Z</time></trkpt><trkpt lat="45.431674449310144" lon="8.96562392165079"><ele>122.0</ele><time>2026-05-03T15:46:03.999Z</time></trkpt><trkpt lat="45.43177173525669" lon="8.96576411813341"><ele>122.0</ele><time>2026-05-03T15:46:04.999Z</time></trkpt><trkpt lat="45.4318651656871" lon="8.965903610518113"><ele>122.0</ele><time>2026-05-03T15:46:05.999Z</time></trkpt><trkpt lat="45.43196386821994" lon="8.966036316696652"><ele>122.0</ele><time>2026-05-03T15:46:06.999Z</time></trkpt><trkpt lat="45.43205360534832" lon="8.966186541666234"><ele>122.0</ele><time>2026-05-03T15:46:07.999Z</time></trkpt><trkpt lat="45.432151141307074" lon="8.966320072066024"><ele>122.0</ele><time>2026-05-03T15:46:08.999Z</time></trkpt><trkpt lat="45.432242391025625" lon="8.966456313355685"><ele>121.75</ele><time>2026-05-03T15:46:09.999Z</time></trkpt><trkpt lat="45.43232884770019" lon="8.966542094772567"><ele>121.5</ele><time>2026-05-03T15:46:10.999Z</time></trkpt><trkpt lat="45.43242153197701" lon="8.966691657000586"><ele>121.25</ele><time>2026-05-03T15:46:11.999Z</time></trkpt><trkpt lat="45.43253145313528" lon="8.966843520339014"><ele>121.0</ele><time>2026-05-03T15:46:12.999Z</time></trkpt><trkpt lat="45.43263017318132" lon="8.96699353709925"><ele>121.5</ele><time>2026-05-03T15:46:13.999Z</time></trkpt><trkpt lat="45.4327316662016" lon="8.967138691406973"><ele>122.0</ele><time>2026-05-03T15:46:14.999Z</time></trkpt><trkpt lat="45.43283297072375" lon="8.967288733224205"><ele>122.5</ele><time>2026-05-03T15:46:15.999Z</time></trkpt><trkpt lat="45.43293117136316" lon="8.967427942094595"><ele>123.0</ele><time>2026-05-03T15:46:16.999Z</time></trkpt><trkpt lat="45.43303692250087" lon="8.967572564695118"><ele>123.0</ele><time>2026-05-03T15:46:17.999Z</time></trkpt><trkpt lat="45.433126192514244" lon="8.967725229583241"><ele>123.0</ele><time>2026-05-03T15:46:19Z</time></trkpt><trkpt lat="45.43322953306404" lon="8.967867695844225"><ele>123.0</ele><time>2026-05-03T15:46:20Z</time></trkpt><trkpt lat="45.43333493093162" lon="8.968006272038501"><ele>123.0</ele><time>2026-05-03T15:46:21Z</time></trkpt><trkpt lat="45.433436710032986" lon="8.96814756435086"><ele>123.0</ele><time>2026-05-03T15:46:22Z</time></trkpt><trkpt lat="45.43353190304495" lon="8.968280954554842"><ele>123.0</ele><time>2026-05-03T15:46:23Z</time></trkpt><trkpt lat="45.43363403546201" lon="8.968425116189902"><ele>123.0</ele><time>2026-05-03T15:46:24Z</time></trkpt><trkpt lat="45.433733171776375" lon="8.968568194689135"><ele>123.0</ele><time>2026-05-03T15:46:25Z</time></trkpt><trkpt lat="45.433827000255285" lon="8.968710844622782"><ele>123.0</ele><time>2026-05-03T15:46:26Z</time></trkpt><trkpt lat="45.43393076068755" lon="8.96885769240846"><ele>123.0</ele><time>2026-05-03T15:46:27Z</time></trkpt><trkpt lat="45.434025202099015" lon="8.968997467028206"><ele>123.0</ele><time>2026-05-03T15:46:28Z</time></trkpt><trkpt lat="45.43412137337922" lon="8.969137674774833"><ele>123.0</ele><time>2026-05-03T15:46:29Z</time></trkpt><trkpt lat="45.43421844917663" lon="8.96928008957735"><ele>122.75</ele><time>2026-05-03T15:46:30Z</time></trkpt><trkpt lat="45.434321505366505" lon="8.969417725318625"><ele>122.5</ele><time>2026-05-03T15:46:31Z</time></trkpt><trkpt lat="45.434414055761415" lon="8.969554787607102"><ele>122.25</ele><time>2026-05-03T15:46:32Z</time></trkpt><trkpt lat="45.43450125094844" lon="8.969683938103643"><ele>122.0</ele><time>2026-05-03T15:46:33Z</time></trkpt><trkpt lat="45.4345949026424" lon="8.969807371402707"><ele>121.75</ele><time>2026-05-03T15:46:34Z</time></trkpt><trkpt lat="45.43467860259198" lon="8.969923070491289"><ele>121.5</ele><time>2026-05-03T15:46:35Z</time></trkpt><trkpt lat="45.4347630618919" lon="8.97004450373606"><ele>121.25</ele><time>2026-05-03T15:46:36Z</time></trkpt><trkpt lat="45.43483815071771" lon="8.970168392703512"><ele>121.0</ele><time>2026-05-03T15:46:37Z</time></trkpt><trkpt lat="45.43492443501421" lon="8.97028116815144"><ele>121.5</ele><time>2026-05-03T15:46:38Z</time></trkpt><trkpt lat="45.435006381516125" lon="8.970396653638211"><ele>122.0</ele><time>2026-05-03T15:46:39Z</time></trkpt><trkpt lat="45.43507891637501" lon="8.97051558654581"><ele>122.5</ele><time>2026-05-03T15:46:40Z</time></trkpt><trkpt lat="45.4351651502906" lon="8.970629753055038"><ele>123.0</ele><time>2026-05-03T15:46:41Z</time></trkpt><trkpt lat="45.43525054110569" lon="8.970752510073234"><ele>122.75</ele><time>2026-05-03T15:46:42Z</time></trkpt><trkpt lat="45.43532837428915" lon="8.9708733267259"><ele>122.5</ele><time>2026-05-03T15:46:43Z</time></trkpt><trkpt lat="45.435415404410215" lon="8.970993446913099"><ele>122.25</ele><time>2026-05-03T15:46:44Z</time></trkpt><trkpt lat="45.43549776298273" lon="8.97111592351188"><ele>122.0</ele><time>2026-05-03T15:46:45Z</time></trkpt><trkpt lat="45.43558995367096" lon="8.971239070242936"><ele>122.0</ele><time>2026-05-03T15:46:46Z</time></trkpt><trkpt lat="45.43567627921433" lon="8.971359859743547"><ele>122.0</ele><time>2026-05-03T15:46:47Z</time></trkpt><trkpt lat="45.43575362966533" lon="8.971466201246203"><ele>122.0</ele><time>2026-05-03T15:46:48Z</time></trkpt><trkpt lat="45.4358343168971" lon="8.97158073273002"><ele>122.0</ele><time>2026-05-03T15:46:49Z</time></trkpt><trkpt lat="45.435913930260156" lon="8.971691419190908"><ele>122.0</ele><time>2026-05-03T15:46:50Z</time></trkpt><trkpt lat="45.43600279124761" lon="8.971803374223466"><ele>121.99999999999999</ele><time>2026-05-03T15:46:51Z</time></trkpt><trkpt lat="45.43606854298851" lon="8.971930333005337"><ele>121.99999999999999</ele><time>2026-05-03T15:46:52Z</time></trkpt><trkpt lat="45.43614259931877" lon="8.97203585751157"><ele>122.0</ele><time>2026-05-03T15:46:53Z</time></trkpt><trkpt lat="45.43621898634394" lon="8.972144703186244"><ele>122.0</ele><time>2026-05-03T15:46:54Z</time></trkpt><trkpt lat="45.436293509726134" lon="8.972250896478368"><ele>122.0</ele><time>2026-05-03T15:46:55Z</time></trkpt><trkpt lat="45.43636839389206" lon="8.972357608656852"><ele>121.99999999999999</ele><time>2026-05-03T15:46:56Z</time></trkpt><trkpt lat="45.43645254995242" lon="8.972477533388814"><ele>121.99999999999999</ele><time>2026-05-03T15:46:57Z</time></trkpt><trkpt lat="45.43653501404134" lon="8.97259504699128"><ele>122.0</ele><time>2026-05-03T15:46:58Z</time></trkpt><trkpt lat="45.436609412982186" lon="8.972700614993864"><ele>122.0</ele><time>2026-05-03T15:46:59Z</time></trkpt><trkpt lat="45.436697482231025" lon="8.972796075771095"><ele>122.0</ele><time>2026-05-03T15:47:00Z</time></trkpt><trkpt lat="45.43675709365393" lon="8.972924860791515"><ele>122.0</ele><time>2026-05-03T15:47:01Z</time></trkpt><trkpt lat="45.436833673294934" lon="8.973052048614749"><ele>122.0</ele><time>2026-05-03T15:47:02Z</time></trkpt><trkpt lat="45.43690919600328" lon="8.973184044772857"><ele>122.0</ele><time>2026-05-03T15:47:03Z</time></trkpt><trkpt lat="45.436985992352554" lon="8.973305997416906"><ele>122.0</ele><time>2026-05-03T15:47:04Z</time></trkpt><trkpt lat="45.43706238961561" lon="8.973443224526969"><ele>122.0</ele><time>2026-05-03T15:47:05Z</time></trkpt><trkpt lat="45.43713372455981" lon="8.973570358167805"><ele>122.0</ele><time>2026-05-03T15:47:06Z</time></trkpt><trkpt lat="45.43720726847803" lon="8.973703468315724"><ele>122.0</ele><time>2026-05-03T15:47:07Z</time></trkpt><trkpt lat="45.43727153143978" lon="8.973828981828694"><ele>123.0</ele><time>2026-05-03T15:47:08Z</time></trkpt><trkpt lat="45.437339289594334" lon="8.973944523111935"><ele>123.0</ele><time>2026-05-03T15:47:09Z</time></trkpt><trkpt lat="45.43739117370716" lon="8.974059729010147"><ele>123.0</ele><time>2026-05-03T15:47:10Z</time></trkpt><trkpt lat="45.43742708105398" lon="8.974160409912486"><ele>123.0</ele><time>2026-05-03T15:47:11Z</time></trkpt><trkpt lat="45.43746269726109" lon="8.974241664013611"><ele>124.0</ele><time>2026-05-03T15:47:12Z</time></trkpt><trkpt lat="45.43750964681263" lon="8.974350104007742"><ele>124.0</ele><time>2026-05-03T15:47:14Z</time></trkpt></trkseg></trk></gpx>